<?xml version="1.0" encoding="UTF-8" standalone="no" ?>
<gpx xmlns="http://www.topografix.com/GPX/1/1" xmlns:xsi="http://www.w3.org/2001/XMLSchema-instance" xsi:schemaLocation="http://www.topografix.com/GPX/1/1 http://www.topografix.com/GPX/1/1/gpx.xsd" version="1.1" creator="VisuGPX - https://www.visugpx.com">
  <metadata>
    <name>Rando Bethoncourt 2016</name>
    <desc><![CDATA[Super edition de la rando de Bethoncourt. Pleins de singles de follie et meteo idéale]]></desc>
  </metadata>
  <wpt lat="47.53254" lon="6.78319">
    <ele>370</ele>
    <name><![CDATA[Point de cheminement 1]]></name>
    <desc><![CDATA[]]></desc>
  </wpt>
  <wpt lat="47.53095" lon="6.79321">
    <ele>318</ele>
    <name><![CDATA[Point de cheminement 2]]></name>
    <desc><![CDATA[]]></desc>
  </wpt>
  <wpt lat="47.53521" lon="6.77629">
    <ele>363</ele>
    <name><![CDATA[Point de cheminement 3]]></name>
    <desc><![CDATA[]]></desc>
  </wpt>
  <wpt lat="47.54351" lon="6.75275">
    <ele>468</ele>
    <name><![CDATA[Point de cheminement 4]]></name>
    <desc><![CDATA[]]></desc>
  </wpt>
  <wpt lat="47.56835" lon="6.73544">
    <ele>374</ele>
    <name><![CDATA[Point de cheminement 5]]></name>
    <desc><![CDATA[]]></desc>
  </wpt>
  <wpt lat="47.58524" lon="6.73663">
    <ele>334</ele>
    <name><![CDATA[Point de cheminement 6]]></name>
    <desc><![CDATA[]]></desc>
  </wpt>
  <wpt lat="47.58734" lon="6.75014">
    <ele>413</ele>
    <name><![CDATA[Point de cheminement 7]]></name>
    <desc><![CDATA[]]></desc>
  </wpt>
  <wpt lat="47.59603" lon="6.76424">
    <ele>516</ele>
    <name><![CDATA[Point de cheminement 8]]></name>
    <desc><![CDATA[]]></desc>
  </wpt>
  <wpt lat="47.58421" lon="6.7862">
    <ele>342</ele>
    <name><![CDATA[Point de cheminement 9]]></name>
    <desc><![CDATA[]]></desc>
  </wpt>
  <wpt lat="47.56714" lon="6.78553">
    <ele>429</ele>
    <name><![CDATA[Point de cheminement 10]]></name>
    <desc><![CDATA[]]></desc>
  </wpt>
  <wpt lat="47.574" lon="6.80883">
    <ele>398</ele>
    <name><![CDATA[Point de cheminement 11]]></name>
    <desc><![CDATA[]]></desc>
  </wpt>
  <wpt lat="47.58914" lon="6.80481">
    <ele>436</ele>
    <name><![CDATA[Point de cheminement 12]]></name>
    <desc><![CDATA[]]></desc>
  </wpt>
  <wpt lat="47.58639" lon="6.81664">
    <ele>426</ele>
    <name><![CDATA[Point de cheminement 13]]></name>
    <desc><![CDATA[]]></desc>
  </wpt>
  <wpt lat="47.572" lon="6.82301">
    <ele>372</ele>
    <name><![CDATA[Point de cheminement 14]]></name>
    <desc><![CDATA[]]></desc>
  </wpt>
  <wpt lat="47.55485" lon="6.81635">
    <ele>408</ele>
    <name><![CDATA[Point de cheminement 15]]></name>
    <desc><![CDATA[]]></desc>
  </wpt>
  <wpt lat="47.53347" lon="6.79419">
    <ele>321</ele>
    <name><![CDATA[Point de cheminement 16]]></name>
    <desc><![CDATA[]]></desc>
  </wpt>
  <trk>
    <name><![CDATA[Rue Antoine Coysevox]]></name>
    <desc><![CDATA[]]></desc>
    <trkseg>
      <trkpt lat="47.51819" lon="6.77492">
        <ele>387</ele>
        <time>2016-04-10T06:33:29.000Z</time>
      </trkpt>
      <trkpt lat="47.51816" lon="6.77487">
        <ele>387</ele>
        <time>2016-04-10T06:33:31.000Z</time>
      </trkpt>
      <trkpt lat="47.51817" lon="6.77484">
        <ele>387</ele>
        <time>2016-04-10T06:33:32.000Z</time>
      </trkpt>
      <trkpt lat="47.51815" lon="6.77488">
        <ele>387</ele>
        <time>2016-04-10T06:33:33.000Z</time>
      </trkpt>
      <trkpt lat="47.51814" lon="6.77501">
        <ele>388</ele>
        <time>2016-04-10T06:33:34.000Z</time>
      </trkpt>
      <trkpt lat="47.51813" lon="6.77503">
        <ele>388</ele>
        <time>2016-04-10T06:33:35.000Z</time>
      </trkpt>
      <trkpt lat="47.51812" lon="6.77511">
        <ele>389</ele>
        <time>2016-04-10T06:33:36.000Z</time>
      </trkpt>
      <trkpt lat="47.51808" lon="6.77511">
        <ele>389</ele>
        <time>2016-04-10T06:33:40.000Z</time>
      </trkpt>
      <trkpt lat="47.51807" lon="6.7751">
        <ele>389</ele>
        <time>2016-04-10T06:33:41.000Z</time>
      </trkpt>
      <trkpt lat="47.51804" lon="6.77515">
        <ele>389</ele>
        <time>2016-04-10T06:33:56.000Z</time>
      </trkpt>
      <trkpt lat="47.51804" lon="6.77517">
        <ele>389</ele>
        <time>2016-04-10T06:33:57.000Z</time>
      </trkpt>
      <trkpt lat="47.51806" lon="6.77522">
        <ele>389</ele>
        <time>2016-04-10T06:34:04.000Z</time>
      </trkpt>
      <trkpt lat="47.51806" lon="6.77523">
        <ele>389</ele>
        <time>2016-04-10T06:34:05.000Z</time>
      </trkpt>
      <trkpt lat="47.51806" lon="6.77529">
        <ele>389</ele>
        <time>2016-04-10T06:34:19.000Z</time>
      </trkpt>
      <trkpt lat="47.51807" lon="6.77531">
        <ele>389</ele>
        <time>2016-04-10T06:34:20.000Z</time>
      </trkpt>
      <trkpt lat="47.51807" lon="6.77524">
        <ele>389</ele>
        <time>2016-04-10T06:36:05.000Z</time>
      </trkpt>
      <trkpt lat="47.51807" lon="6.77524">
        <ele>389</ele>
        <time>2016-04-10T06:36:06.000Z</time>
      </trkpt>
      <trkpt lat="47.51807" lon="6.7752">
        <ele>389</ele>
        <time>2016-04-10T06:36:09.000Z</time>
      </trkpt>
      <trkpt lat="47.51807" lon="6.77517">
        <ele>389</ele>
        <time>2016-04-10T06:36:10.000Z</time>
      </trkpt>
      <trkpt lat="47.51807" lon="6.77514">
        <ele>389</ele>
        <time>2016-04-10T06:36:11.000Z</time>
      </trkpt>
      <trkpt lat="47.51806" lon="6.7751">
        <ele>389</ele>
        <time>2016-04-10T06:36:12.000Z</time>
      </trkpt>
      <trkpt lat="47.51805" lon="6.77507">
        <ele>389</ele>
        <time>2016-04-10T06:36:13.000Z</time>
      </trkpt>
      <trkpt lat="47.51804" lon="6.77503">
        <ele>389</ele>
        <time>2016-04-10T06:36:14.000Z</time>
      </trkpt>
      <trkpt lat="47.51803" lon="6.77498">
        <ele>388</ele>
        <time>2016-04-10T06:36:16.000Z</time>
      </trkpt>
      <trkpt lat="47.51803" lon="6.77496">
        <ele>388</ele>
        <time>2016-04-10T06:36:17.000Z</time>
      </trkpt>
      <trkpt lat="47.51806" lon="6.77498">
        <ele>388</ele>
        <time>2016-04-10T06:36:53.000Z</time>
      </trkpt>
      <trkpt lat="47.51807" lon="6.77497">
        <ele>388</ele>
        <time>2016-04-10T06:36:54.000Z</time>
      </trkpt>
      <trkpt lat="47.51811" lon="6.77498">
        <ele>388</ele>
        <time>2016-04-10T06:36:58.000Z</time>
      </trkpt>
      <trkpt lat="47.51813" lon="6.77499">
        <ele>388</ele>
        <time>2016-04-10T06:36:59.000Z</time>
      </trkpt>
      <trkpt lat="47.51817" lon="6.77499">
        <ele>387</ele>
        <time>2016-04-10T06:37:00.000Z</time>
      </trkpt>
      <trkpt lat="47.51821" lon="6.775">
        <ele>387</ele>
        <time>2016-04-10T06:37:01.000Z</time>
      </trkpt>
      <trkpt lat="47.51826" lon="6.775">
        <ele>388</ele>
        <time>2016-04-10T06:37:02.000Z</time>
      </trkpt>
      <trkpt lat="47.51831" lon="6.77501">
        <ele>387</ele>
        <time>2016-04-10T06:37:03.000Z</time>
      </trkpt>
      <trkpt lat="47.51836" lon="6.77501">
        <ele>387</ele>
        <time>2016-04-10T06:37:04.000Z</time>
      </trkpt>
      <trkpt lat="47.5184" lon="6.77502">
        <ele>387</ele>
        <time>2016-04-10T06:37:05.000Z</time>
      </trkpt>
      <trkpt lat="47.51844" lon="6.77503">
        <ele>388</ele>
        <time>2016-04-10T06:37:06.000Z</time>
      </trkpt>
      <trkpt lat="47.51849" lon="6.77504">
        <ele>388</ele>
        <time>2016-04-10T06:37:07.000Z</time>
      </trkpt>
      <trkpt lat="47.51853" lon="6.77504">
        <ele>388</ele>
        <time>2016-04-10T06:37:08.000Z</time>
      </trkpt>
      <trkpt lat="47.51856" lon="6.77503">
        <ele>388</ele>
        <time>2016-04-10T06:37:09.000Z</time>
      </trkpt>
      <trkpt lat="47.5186" lon="6.77502">
        <ele>388</ele>
        <time>2016-04-10T06:37:10.000Z</time>
      </trkpt>
      <trkpt lat="47.51864" lon="6.77502">
        <ele>388</ele>
        <time>2016-04-10T06:37:11.000Z</time>
      </trkpt>
      <trkpt lat="47.51867" lon="6.77501">
        <ele>388</ele>
        <time>2016-04-10T06:37:12.000Z</time>
      </trkpt>
      <trkpt lat="47.51871" lon="6.77501">
        <ele>388</ele>
        <time>2016-04-10T06:37:13.000Z</time>
      </trkpt>
      <trkpt lat="47.51874" lon="6.77501">
        <ele>388</ele>
        <time>2016-04-10T06:37:14.000Z</time>
      </trkpt>
      <trkpt lat="47.51878" lon="6.77501">
        <ele>388</ele>
        <time>2016-04-10T06:37:15.000Z</time>
      </trkpt>
      <trkpt lat="47.51881" lon="6.77502">
        <ele>388</ele>
        <time>2016-04-10T06:37:16.000Z</time>
      </trkpt>
      <trkpt lat="47.51884" lon="6.77502">
        <ele>388</ele>
        <time>2016-04-10T06:37:17.000Z</time>
      </trkpt>
      <trkpt lat="47.51887" lon="6.77502">
        <ele>388</ele>
        <time>2016-04-10T06:37:18.000Z</time>
      </trkpt>
      <trkpt lat="47.51891" lon="6.77503">
        <ele>388</ele>
        <time>2016-04-10T06:37:19.000Z</time>
      </trkpt>
      <trkpt lat="47.51895" lon="6.77503">
        <ele>388</ele>
        <time>2016-04-10T06:37:20.000Z</time>
      </trkpt>
      <trkpt lat="47.51899" lon="6.77504">
        <ele>388</ele>
        <time>2016-04-10T06:37:21.000Z</time>
      </trkpt>
      <trkpt lat="47.51902" lon="6.77506">
        <ele>388</ele>
        <time>2016-04-10T06:37:22.000Z</time>
      </trkpt>
      <trkpt lat="47.51906" lon="6.77509">
        <ele>388</ele>
        <time>2016-04-10T06:37:23.000Z</time>
      </trkpt>
      <trkpt lat="47.51909" lon="6.77511">
        <ele>388</ele>
        <time>2016-04-10T06:37:24.000Z</time>
      </trkpt>
      <trkpt lat="47.51913" lon="6.77512">
        <ele>388</ele>
        <time>2016-04-10T06:37:25.000Z</time>
      </trkpt>
      <trkpt lat="47.51917" lon="6.77514">
        <ele>389</ele>
        <time>2016-04-10T06:37:26.000Z</time>
      </trkpt>
      <trkpt lat="47.51921" lon="6.77516">
        <ele>389</ele>
        <time>2016-04-10T06:37:27.000Z</time>
      </trkpt>
      <trkpt lat="47.51924" lon="6.77518">
        <ele>389</ele>
        <time>2016-04-10T06:37:28.000Z</time>
      </trkpt>
      <trkpt lat="47.51928" lon="6.7752">
        <ele>389</ele>
        <time>2016-04-10T06:37:29.000Z</time>
      </trkpt>
      <trkpt lat="47.51932" lon="6.77521">
        <ele>389</ele>
        <time>2016-04-10T06:37:30.000Z</time>
      </trkpt>
      <trkpt lat="47.51936" lon="6.77522">
        <ele>389</ele>
        <time>2016-04-10T06:37:31.000Z</time>
      </trkpt>
      <trkpt lat="47.5194" lon="6.77522">
        <ele>389</ele>
        <time>2016-04-10T06:37:32.000Z</time>
      </trkpt>
      <trkpt lat="47.51944" lon="6.77523">
        <ele>390</ele>
        <time>2016-04-10T06:37:33.000Z</time>
      </trkpt>
      <trkpt lat="47.51948" lon="6.77523">
        <ele>390</ele>
        <time>2016-04-10T06:37:34.000Z</time>
      </trkpt>
      <trkpt lat="47.51952" lon="6.77524">
        <ele>390</ele>
        <time>2016-04-10T06:37:35.000Z</time>
      </trkpt>
      <trkpt lat="47.51957" lon="6.77525">
        <ele>390</ele>
        <time>2016-04-10T06:37:36.000Z</time>
      </trkpt>
      <trkpt lat="47.51961" lon="6.77526">
        <ele>390</ele>
        <time>2016-04-10T06:37:37.000Z</time>
      </trkpt>
      <trkpt lat="47.51965" lon="6.77527">
        <ele>390</ele>
        <time>2016-04-10T06:37:38.000Z</time>
      </trkpt>
      <trkpt lat="47.51969" lon="6.77528">
        <ele>390</ele>
        <time>2016-04-10T06:37:39.000Z</time>
      </trkpt>
      <trkpt lat="47.51973" lon="6.77529">
        <ele>390</ele>
        <time>2016-04-10T06:37:40.000Z</time>
      </trkpt>
      <trkpt lat="47.51977" lon="6.7753">
        <ele>390</ele>
        <time>2016-04-10T06:37:41.000Z</time>
      </trkpt>
      <trkpt lat="47.51981" lon="6.7753">
        <ele>390</ele>
        <time>2016-04-10T06:37:42.000Z</time>
      </trkpt>
      <trkpt lat="47.51985" lon="6.77531">
        <ele>390</ele>
        <time>2016-04-10T06:37:43.000Z</time>
      </trkpt>
      <trkpt lat="47.51989" lon="6.77531">
        <ele>390</ele>
        <time>2016-04-10T06:37:44.000Z</time>
      </trkpt>
      <trkpt lat="47.51993" lon="6.77532">
        <ele>390</ele>
        <time>2016-04-10T06:37:45.000Z</time>
      </trkpt>
      <trkpt lat="47.51997" lon="6.77533">
        <ele>390</ele>
        <time>2016-04-10T06:37:46.000Z</time>
      </trkpt>
      <trkpt lat="47.52001" lon="6.77534">
        <ele>390</ele>
        <time>2016-04-10T06:37:47.000Z</time>
      </trkpt>
      <trkpt lat="47.52005" lon="6.77536">
        <ele>390</ele>
        <time>2016-04-10T06:37:48.000Z</time>
      </trkpt>
      <trkpt lat="47.52008" lon="6.77537">
        <ele>390</ele>
        <time>2016-04-10T06:37:49.000Z</time>
      </trkpt>
      <trkpt lat="47.52011" lon="6.77537">
        <ele>390</ele>
        <time>2016-04-10T06:37:50.000Z</time>
      </trkpt>
      <trkpt lat="47.52014" lon="6.77538">
        <ele>390</ele>
        <time>2016-04-10T06:37:51.000Z</time>
      </trkpt>
      <trkpt lat="47.52017" lon="6.77538">
        <ele>390</ele>
        <time>2016-04-10T06:37:52.000Z</time>
      </trkpt>
      <trkpt lat="47.5202" lon="6.77538">
        <ele>390</ele>
        <time>2016-04-10T06:37:53.000Z</time>
      </trkpt>
      <trkpt lat="47.52023" lon="6.77538">
        <ele>390</ele>
        <time>2016-04-10T06:37:54.000Z</time>
      </trkpt>
      <trkpt lat="47.52026" lon="6.77537">
        <ele>390</ele>
        <time>2016-04-10T06:37:55.000Z</time>
      </trkpt>
      <trkpt lat="47.5203" lon="6.77537">
        <ele>390</ele>
        <time>2016-04-10T06:37:56.000Z</time>
      </trkpt>
      <trkpt lat="47.52033" lon="6.77537">
        <ele>390</ele>
        <time>2016-04-10T06:37:57.000Z</time>
      </trkpt>
      <trkpt lat="47.52037" lon="6.77539">
        <ele>390</ele>
        <time>2016-04-10T06:37:58.000Z</time>
      </trkpt>
      <trkpt lat="47.52041" lon="6.7754">
        <ele>390</ele>
        <time>2016-04-10T06:37:59.000Z</time>
      </trkpt>
      <trkpt lat="47.52045" lon="6.77541">
        <ele>390</ele>
        <time>2016-04-10T06:38:00.000Z</time>
      </trkpt>
      <trkpt lat="47.52048" lon="6.77542">
        <ele>390</ele>
        <time>2016-04-10T06:38:01.000Z</time>
      </trkpt>
      <trkpt lat="47.52052" lon="6.77542">
        <ele>391</ele>
        <time>2016-04-10T06:38:02.000Z</time>
      </trkpt>
      <trkpt lat="47.52056" lon="6.77543">
        <ele>391</ele>
        <time>2016-04-10T06:38:03.000Z</time>
      </trkpt>
      <trkpt lat="47.52061" lon="6.77545">
        <ele>391</ele>
        <time>2016-04-10T06:38:04.000Z</time>
      </trkpt>
      <trkpt lat="47.52065" lon="6.77546">
        <ele>391</ele>
        <time>2016-04-10T06:38:05.000Z</time>
      </trkpt>
      <trkpt lat="47.5207" lon="6.77547">
        <ele>391</ele>
        <time>2016-04-10T06:38:06.000Z</time>
      </trkpt>
      <trkpt lat="47.52074" lon="6.77548">
        <ele>391</ele>
        <time>2016-04-10T06:38:07.000Z</time>
      </trkpt>
      <trkpt lat="47.52079" lon="6.77551">
        <ele>391</ele>
        <time>2016-04-10T06:38:08.000Z</time>
      </trkpt>
      <trkpt lat="47.52082" lon="6.77554">
        <ele>391</ele>
        <time>2016-04-10T06:38:09.000Z</time>
      </trkpt>
      <trkpt lat="47.52084" lon="6.7756">
        <ele>390</ele>
        <time>2016-04-10T06:38:10.000Z</time>
      </trkpt>
      <trkpt lat="47.52086" lon="6.77568">
        <ele>391</ele>
        <time>2016-04-10T06:38:11.000Z</time>
      </trkpt>
      <trkpt lat="47.52087" lon="6.77575">
        <ele>391</ele>
        <time>2016-04-10T06:38:12.000Z</time>
      </trkpt>
      <trkpt lat="47.52087" lon="6.77583">
        <ele>392</ele>
        <time>2016-04-10T06:38:13.000Z</time>
      </trkpt>
      <trkpt lat="47.52087" lon="6.7759">
        <ele>392</ele>
        <time>2016-04-10T06:38:14.000Z</time>
      </trkpt>
      <trkpt lat="47.52088" lon="6.77597">
        <ele>391</ele>
        <time>2016-04-10T06:38:15.000Z</time>
      </trkpt>
      <trkpt lat="47.52089" lon="6.77604">
        <ele>391</ele>
        <time>2016-04-10T06:38:16.000Z</time>
      </trkpt>
      <trkpt lat="47.52088" lon="6.7761">
        <ele>391</ele>
        <time>2016-04-10T06:38:17.000Z</time>
      </trkpt>
      <trkpt lat="47.52087" lon="6.77616">
        <ele>391</ele>
        <time>2016-04-10T06:38:18.000Z</time>
      </trkpt>
      <trkpt lat="47.52088" lon="6.77623">
        <ele>391</ele>
        <time>2016-04-10T06:38:19.000Z</time>
      </trkpt>
      <trkpt lat="47.52088" lon="6.77629">
        <ele>391</ele>
        <time>2016-04-10T06:38:20.000Z</time>
      </trkpt>
      <trkpt lat="47.52088" lon="6.77635">
        <ele>391</ele>
        <time>2016-04-10T06:38:21.000Z</time>
      </trkpt>
      <trkpt lat="47.52088" lon="6.77642">
        <ele>392</ele>
        <time>2016-04-10T06:38:22.000Z</time>
      </trkpt>
      <trkpt lat="47.52089" lon="6.77648">
        <ele>392</ele>
        <time>2016-04-10T06:38:23.000Z</time>
      </trkpt>
      <trkpt lat="47.52089" lon="6.77654">
        <ele>392</ele>
        <time>2016-04-10T06:38:24.000Z</time>
      </trkpt>
      <trkpt lat="47.52089" lon="6.77659">
        <ele>392</ele>
        <time>2016-04-10T06:38:25.000Z</time>
      </trkpt>
      <trkpt lat="47.5209" lon="6.77664">
        <ele>392</ele>
        <time>2016-04-10T06:38:26.000Z</time>
      </trkpt>
      <trkpt lat="47.5209" lon="6.77668">
        <ele>392</ele>
        <time>2016-04-10T06:38:27.000Z</time>
      </trkpt>
      <trkpt lat="47.52091" lon="6.77672">
        <ele>392</ele>
        <time>2016-04-10T06:38:28.000Z</time>
      </trkpt>
      <trkpt lat="47.52092" lon="6.77676">
        <ele>392</ele>
        <time>2016-04-10T06:38:29.000Z</time>
      </trkpt>
      <trkpt lat="47.52094" lon="6.77679">
        <ele>392</ele>
        <time>2016-04-10T06:38:30.000Z</time>
      </trkpt>
      <trkpt lat="47.52097" lon="6.77681">
        <ele>392</ele>
        <time>2016-04-10T06:38:31.000Z</time>
      </trkpt>
      <trkpt lat="47.52107" lon="6.77675">
        <ele>391</ele>
        <time>2016-04-10T06:38:32.000Z</time>
      </trkpt>
      <trkpt lat="47.52112" lon="6.77672">
        <ele>391</ele>
        <time>2016-04-10T06:38:33.000Z</time>
      </trkpt>
      <trkpt lat="47.52117" lon="6.77668">
        <ele>391</ele>
        <time>2016-04-10T06:38:34.000Z</time>
      </trkpt>
      <trkpt lat="47.52123" lon="6.77664">
        <ele>391</ele>
        <time>2016-04-10T06:38:35.000Z</time>
      </trkpt>
      <trkpt lat="47.52128" lon="6.7766">
        <ele>391</ele>
        <time>2016-04-10T06:38:36.000Z</time>
      </trkpt>
      <trkpt lat="47.52133" lon="6.77655">
        <ele>390</ele>
        <time>2016-04-10T06:38:37.000Z</time>
      </trkpt>
      <trkpt lat="47.52139" lon="6.77653">
        <ele>390</ele>
        <time>2016-04-10T06:38:38.000Z</time>
      </trkpt>
      <trkpt lat="47.52145" lon="6.77649">
        <ele>390</ele>
        <time>2016-04-10T06:38:39.000Z</time>
      </trkpt>
      <trkpt lat="47.5215" lon="6.77645">
        <ele>390</ele>
        <time>2016-04-10T06:38:40.000Z</time>
      </trkpt>
      <trkpt lat="47.52157" lon="6.77641">
        <ele>390</ele>
        <time>2016-04-10T06:38:41.000Z</time>
      </trkpt>
      <trkpt lat="47.52163" lon="6.77636">
        <ele>390</ele>
        <time>2016-04-10T06:38:42.000Z</time>
      </trkpt>
      <trkpt lat="47.52169" lon="6.77632">
        <ele>387</ele>
        <time>2016-04-10T06:38:43.000Z</time>
      </trkpt>
      <trkpt lat="47.52175" lon="6.77627">
        <ele>387</ele>
        <time>2016-04-10T06:38:44.000Z</time>
      </trkpt>
      <trkpt lat="47.52181" lon="6.77624">
        <ele>387</ele>
        <time>2016-04-10T06:38:45.000Z</time>
      </trkpt>
      <trkpt lat="47.52186" lon="6.7762">
        <ele>387</ele>
        <time>2016-04-10T06:38:46.000Z</time>
      </trkpt>
      <trkpt lat="47.52192" lon="6.77616">
        <ele>387</ele>
        <time>2016-04-10T06:38:47.000Z</time>
      </trkpt>
      <trkpt lat="47.52197" lon="6.77612">
        <ele>387</ele>
        <time>2016-04-10T06:38:48.000Z</time>
      </trkpt>
      <trkpt lat="47.52202" lon="6.77608">
        <ele>387</ele>
        <time>2016-04-10T06:38:49.000Z</time>
      </trkpt>
      <trkpt lat="47.52207" lon="6.77604">
        <ele>387</ele>
        <time>2016-04-10T06:38:50.000Z</time>
      </trkpt>
      <trkpt lat="47.52212" lon="6.77599">
        <ele>387</ele>
        <time>2016-04-10T06:38:51.000Z</time>
      </trkpt>
      <trkpt lat="47.52217" lon="6.77598">
        <ele>386</ele>
        <time>2016-04-10T06:38:52.000Z</time>
      </trkpt>
      <trkpt lat="47.52222" lon="6.77595">
        <ele>386</ele>
        <time>2016-04-10T06:38:53.000Z</time>
      </trkpt>
      <trkpt lat="47.52226" lon="6.77593">
        <ele>386</ele>
        <time>2016-04-10T06:38:54.000Z</time>
      </trkpt>
      <trkpt lat="47.5223" lon="6.7759">
        <ele>386</ele>
        <time>2016-04-10T06:38:55.000Z</time>
      </trkpt>
      <trkpt lat="47.52234" lon="6.77588">
        <ele>386</ele>
        <time>2016-04-10T06:38:56.000Z</time>
      </trkpt>
      <trkpt lat="47.52238" lon="6.77586">
        <ele>386</ele>
        <time>2016-04-10T06:38:57.000Z</time>
      </trkpt>
      <trkpt lat="47.52243" lon="6.77584">
        <ele>386</ele>
        <time>2016-04-10T06:38:58.000Z</time>
      </trkpt>
      <trkpt lat="47.52247" lon="6.77581">
        <ele>386</ele>
        <time>2016-04-10T06:38:59.000Z</time>
      </trkpt>
      <trkpt lat="47.52252" lon="6.77578">
        <ele>386</ele>
        <time>2016-04-10T06:39:00.000Z</time>
      </trkpt>
      <trkpt lat="47.52256" lon="6.77575">
        <ele>386</ele>
        <time>2016-04-10T06:39:01.000Z</time>
      </trkpt>
      <trkpt lat="47.5226" lon="6.77572">
        <ele>387</ele>
        <time>2016-04-10T06:39:02.000Z</time>
      </trkpt>
      <trkpt lat="47.52265" lon="6.77569">
        <ele>387</ele>
        <time>2016-04-10T06:39:03.000Z</time>
      </trkpt>
      <trkpt lat="47.52269" lon="6.77567">
        <ele>387</ele>
        <time>2016-04-10T06:39:04.000Z</time>
      </trkpt>
      <trkpt lat="47.52274" lon="6.77564">
        <ele>387</ele>
        <time>2016-04-10T06:39:05.000Z</time>
      </trkpt>
      <trkpt lat="47.52278" lon="6.7756">
        <ele>387</ele>
        <time>2016-04-10T06:39:06.000Z</time>
      </trkpt>
      <trkpt lat="47.52282" lon="6.77556">
        <ele>387</ele>
        <time>2016-04-10T06:39:07.000Z</time>
      </trkpt>
      <trkpt lat="47.52287" lon="6.77553">
        <ele>387</ele>
        <time>2016-04-10T06:39:08.000Z</time>
      </trkpt>
      <trkpt lat="47.52292" lon="6.7755">
        <ele>387</ele>
        <time>2016-04-10T06:39:09.000Z</time>
      </trkpt>
      <trkpt lat="47.52296" lon="6.77546">
        <ele>387</ele>
        <time>2016-04-10T06:39:10.000Z</time>
      </trkpt>
      <trkpt lat="47.52301" lon="6.77542">
        <ele>387</ele>
        <time>2016-04-10T06:39:11.000Z</time>
      </trkpt>
      <trkpt lat="47.52306" lon="6.77539">
        <ele>387</ele>
        <time>2016-04-10T06:39:12.000Z</time>
      </trkpt>
      <trkpt lat="47.5231" lon="6.77533">
        <ele>387</ele>
        <time>2016-04-10T06:39:13.000Z</time>
      </trkpt>
      <trkpt lat="47.52315" lon="6.7753">
        <ele>388</ele>
        <time>2016-04-10T06:39:14.000Z</time>
      </trkpt>
      <trkpt lat="47.52319" lon="6.77527">
        <ele>388</ele>
        <time>2016-04-10T06:39:15.000Z</time>
      </trkpt>
      <trkpt lat="47.52323" lon="6.77524">
        <ele>388</ele>
        <time>2016-04-10T06:39:16.000Z</time>
      </trkpt>
      <trkpt lat="47.52327" lon="6.77521">
        <ele>388</ele>
        <time>2016-04-10T06:39:17.000Z</time>
      </trkpt>
      <trkpt lat="47.52331" lon="6.77519">
        <ele>388</ele>
        <time>2016-04-10T06:39:18.000Z</time>
      </trkpt>
      <trkpt lat="47.52335" lon="6.77516">
        <ele>389</ele>
        <time>2016-04-10T06:39:19.000Z</time>
      </trkpt>
      <trkpt lat="47.52339" lon="6.77513">
        <ele>389</ele>
        <time>2016-04-10T06:39:20.000Z</time>
      </trkpt>
      <trkpt lat="47.52342" lon="6.77511">
        <ele>389</ele>
        <time>2016-04-10T06:39:21.000Z</time>
      </trkpt>
      <trkpt lat="47.52346" lon="6.77508">
        <ele>389</ele>
        <time>2016-04-10T06:39:22.000Z</time>
      </trkpt>
      <trkpt lat="47.5235" lon="6.77506">
        <ele>389</ele>
        <time>2016-04-10T06:39:23.000Z</time>
      </trkpt>
      <trkpt lat="47.52353" lon="6.77504">
        <ele>389</ele>
        <time>2016-04-10T06:39:24.000Z</time>
      </trkpt>
      <trkpt lat="47.52357" lon="6.77501">
        <ele>389</ele>
        <time>2016-04-10T06:39:25.000Z</time>
      </trkpt>
      <trkpt lat="47.5236" lon="6.77499">
        <ele>390</ele>
        <time>2016-04-10T06:39:26.000Z</time>
      </trkpt>
      <trkpt lat="47.52364" lon="6.77497">
        <ele>391</ele>
        <time>2016-04-10T06:39:27.000Z</time>
      </trkpt>
      <trkpt lat="47.52368" lon="6.77495">
        <ele>391</ele>
        <time>2016-04-10T06:39:28.000Z</time>
      </trkpt>
      <trkpt lat="47.52372" lon="6.77492">
        <ele>391</ele>
        <time>2016-04-10T06:39:29.000Z</time>
      </trkpt>
      <trkpt lat="47.52375" lon="6.7749">
        <ele>391</ele>
        <time>2016-04-10T06:39:30.000Z</time>
      </trkpt>
      <trkpt lat="47.5238" lon="6.77487">
        <ele>391</ele>
        <time>2016-04-10T06:39:31.000Z</time>
      </trkpt>
      <trkpt lat="47.52385" lon="6.77484">
        <ele>391</ele>
        <time>2016-04-10T06:39:32.000Z</time>
      </trkpt>
      <trkpt lat="47.5239" lon="6.77481">
        <ele>391</ele>
        <time>2016-04-10T06:39:33.000Z</time>
      </trkpt>
      <trkpt lat="47.52394" lon="6.77478">
        <ele>391</ele>
        <time>2016-04-10T06:39:34.000Z</time>
      </trkpt>
      <trkpt lat="47.52399" lon="6.77474">
        <ele>391</ele>
        <time>2016-04-10T06:39:35.000Z</time>
      </trkpt>
      <trkpt lat="47.52404" lon="6.7747">
        <ele>391</ele>
        <time>2016-04-10T06:39:36.000Z</time>
      </trkpt>
      <trkpt lat="47.52408" lon="6.77467">
        <ele>391</ele>
        <time>2016-04-10T06:39:37.000Z</time>
      </trkpt>
      <trkpt lat="47.52414" lon="6.77461">
        <ele>391</ele>
        <time>2016-04-10T06:39:38.000Z</time>
      </trkpt>
      <trkpt lat="47.52419" lon="6.77457">
        <ele>392</ele>
        <time>2016-04-10T06:39:39.000Z</time>
      </trkpt>
      <trkpt lat="47.52422" lon="6.77454">
        <ele>393</ele>
        <time>2016-04-10T06:39:40.000Z</time>
      </trkpt>
      <trkpt lat="47.52425" lon="6.77453">
        <ele>393</ele>
        <time>2016-04-10T06:39:41.000Z</time>
      </trkpt>
      <trkpt lat="47.5243" lon="6.77454">
        <ele>393</ele>
        <time>2016-04-10T06:39:42.000Z</time>
      </trkpt>
      <trkpt lat="47.52435" lon="6.77457">
        <ele>393</ele>
        <time>2016-04-10T06:39:43.000Z</time>
      </trkpt>
      <trkpt lat="47.52438" lon="6.77458">
        <ele>393</ele>
        <time>2016-04-10T06:39:44.000Z</time>
      </trkpt>
      <trkpt lat="47.52442" lon="6.7746">
        <ele>393</ele>
        <time>2016-04-10T06:39:45.000Z</time>
      </trkpt>
      <trkpt lat="47.52446" lon="6.77462">
        <ele>393</ele>
        <time>2016-04-10T06:39:46.000Z</time>
      </trkpt>
      <trkpt lat="47.52449" lon="6.77463">
        <ele>393</ele>
        <time>2016-04-10T06:39:47.000Z</time>
      </trkpt>
      <trkpt lat="47.52452" lon="6.77464">
        <ele>393</ele>
        <time>2016-04-10T06:39:48.000Z</time>
      </trkpt>
      <trkpt lat="47.52455" lon="6.77465">
        <ele>393</ele>
        <time>2016-04-10T06:39:49.000Z</time>
      </trkpt>
      <trkpt lat="47.52459" lon="6.77465">
        <ele>393</ele>
        <time>2016-04-10T06:39:50.000Z</time>
      </trkpt>
      <trkpt lat="47.52462" lon="6.77465">
        <ele>393</ele>
        <time>2016-04-10T06:39:51.000Z</time>
      </trkpt>
      <trkpt lat="47.52466" lon="6.77465">
        <ele>393</ele>
        <time>2016-04-10T06:39:52.000Z</time>
      </trkpt>
      <trkpt lat="47.5247" lon="6.77465">
        <ele>393</ele>
        <time>2016-04-10T06:39:53.000Z</time>
      </trkpt>
      <trkpt lat="47.52474" lon="6.77464">
        <ele>393</ele>
        <time>2016-04-10T06:39:54.000Z</time>
      </trkpt>
      <trkpt lat="47.52478" lon="6.77464">
        <ele>393</ele>
        <time>2016-04-10T06:39:55.000Z</time>
      </trkpt>
      <trkpt lat="47.52481" lon="6.77464">
        <ele>393</ele>
        <time>2016-04-10T06:39:56.000Z</time>
      </trkpt>
      <trkpt lat="47.52485" lon="6.77464">
        <ele>393</ele>
        <time>2016-04-10T06:39:57.000Z</time>
      </trkpt>
      <trkpt lat="47.52487" lon="6.77465">
        <ele>393</ele>
        <time>2016-04-10T06:39:58.000Z</time>
      </trkpt>
      <trkpt lat="47.5249" lon="6.77466">
        <ele>393</ele>
        <time>2016-04-10T06:39:59.000Z</time>
      </trkpt>
      <trkpt lat="47.52493" lon="6.77467">
        <ele>393</ele>
        <time>2016-04-10T06:40:01.000Z</time>
      </trkpt>
      <trkpt lat="47.52495" lon="6.77467">
        <ele>393</ele>
        <time>2016-04-10T06:40:02.000Z</time>
      </trkpt>
      <trkpt lat="47.52497" lon="6.77466">
        <ele>393</ele>
        <time>2016-04-10T06:40:03.000Z</time>
      </trkpt>
      <trkpt lat="47.525" lon="6.77466">
        <ele>393</ele>
        <time>2016-04-10T06:40:04.000Z</time>
      </trkpt>
      <trkpt lat="47.52503" lon="6.77466">
        <ele>394</ele>
        <time>2016-04-10T06:40:05.000Z</time>
      </trkpt>
      <trkpt lat="47.52506" lon="6.77466">
        <ele>394</ele>
        <time>2016-04-10T06:40:06.000Z</time>
      </trkpt>
      <trkpt lat="47.52509" lon="6.77465">
        <ele>394</ele>
        <time>2016-04-10T06:40:07.000Z</time>
      </trkpt>
      <trkpt lat="47.52513" lon="6.77464">
        <ele>394</ele>
        <time>2016-04-10T06:40:08.000Z</time>
      </trkpt>
      <trkpt lat="47.52517" lon="6.77462">
        <ele>394</ele>
        <time>2016-04-10T06:40:09.000Z</time>
      </trkpt>
      <trkpt lat="47.52521" lon="6.77461">
        <ele>394</ele>
        <time>2016-04-10T06:40:10.000Z</time>
      </trkpt>
      <trkpt lat="47.52525" lon="6.7746">
        <ele>394</ele>
        <time>2016-04-10T06:40:11.000Z</time>
      </trkpt>
      <trkpt lat="47.52529" lon="6.77459">
        <ele>394</ele>
        <time>2016-04-10T06:40:12.000Z</time>
      </trkpt>
      <trkpt lat="47.52533" lon="6.77459">
        <ele>394</ele>
        <time>2016-04-10T06:40:13.000Z</time>
      </trkpt>
      <trkpt lat="47.52537" lon="6.77461">
        <ele>394</ele>
        <time>2016-04-10T06:40:14.000Z</time>
      </trkpt>
      <trkpt lat="47.52541" lon="6.77462">
        <ele>394</ele>
        <time>2016-04-10T06:40:15.000Z</time>
      </trkpt>
      <trkpt lat="47.52544" lon="6.77464">
        <ele>394</ele>
        <time>2016-04-10T06:40:16.000Z</time>
      </trkpt>
      <trkpt lat="47.52548" lon="6.77465">
        <ele>394</ele>
        <time>2016-04-10T06:40:17.000Z</time>
      </trkpt>
      <trkpt lat="47.52552" lon="6.77465">
        <ele>394</ele>
        <time>2016-04-10T06:40:18.000Z</time>
      </trkpt>
      <trkpt lat="47.52556" lon="6.77466">
        <ele>394</ele>
        <time>2016-04-10T06:40:19.000Z</time>
      </trkpt>
      <trkpt lat="47.5256" lon="6.77468">
        <ele>394</ele>
        <time>2016-04-10T06:40:20.000Z</time>
      </trkpt>
      <trkpt lat="47.52563" lon="6.77469">
        <ele>394</ele>
        <time>2016-04-10T06:40:21.000Z</time>
      </trkpt>
      <trkpt lat="47.52566" lon="6.77471">
        <ele>394</ele>
        <time>2016-04-10T06:40:22.000Z</time>
      </trkpt>
      <trkpt lat="47.52569" lon="6.77473">
        <ele>394</ele>
        <time>2016-04-10T06:40:23.000Z</time>
      </trkpt>
      <trkpt lat="47.52572" lon="6.77474">
        <ele>395</ele>
        <time>2016-04-10T06:40:24.000Z</time>
      </trkpt>
      <trkpt lat="47.52576" lon="6.77474">
        <ele>395</ele>
        <time>2016-04-10T06:40:25.000Z</time>
      </trkpt>
      <trkpt lat="47.5258" lon="6.77475">
        <ele>395</ele>
        <time>2016-04-10T06:40:26.000Z</time>
      </trkpt>
      <trkpt lat="47.52584" lon="6.77476">
        <ele>397</ele>
        <time>2016-04-10T06:40:27.000Z</time>
      </trkpt>
      <trkpt lat="47.52587" lon="6.77478">
        <ele>397</ele>
        <time>2016-04-10T06:40:28.000Z</time>
      </trkpt>
      <trkpt lat="47.5259" lon="6.7748">
        <ele>397</ele>
        <time>2016-04-10T06:40:29.000Z</time>
      </trkpt>
      <trkpt lat="47.52592" lon="6.77483">
        <ele>397</ele>
        <time>2016-04-10T06:40:30.000Z</time>
      </trkpt>
      <trkpt lat="47.52595" lon="6.77485">
        <ele>397</ele>
        <time>2016-04-10T06:40:31.000Z</time>
      </trkpt>
      <trkpt lat="47.52598" lon="6.77485">
        <ele>397</ele>
        <time>2016-04-10T06:40:32.000Z</time>
      </trkpt>
      <trkpt lat="47.52602" lon="6.77485">
        <ele>397</ele>
        <time>2016-04-10T06:40:33.000Z</time>
      </trkpt>
      <trkpt lat="47.52605" lon="6.77483">
        <ele>397</ele>
        <time>2016-04-10T06:40:34.000Z</time>
      </trkpt>
      <trkpt lat="47.52608" lon="6.77481">
        <ele>397</ele>
        <time>2016-04-10T06:40:35.000Z</time>
      </trkpt>
      <trkpt lat="47.52611" lon="6.77479">
        <ele>397</ele>
        <time>2016-04-10T06:40:36.000Z</time>
      </trkpt>
      <trkpt lat="47.52614" lon="6.77475">
        <ele>397</ele>
        <time>2016-04-10T06:40:37.000Z</time>
      </trkpt>
      <trkpt lat="47.52616" lon="6.77471">
        <ele>397</ele>
        <time>2016-04-10T06:40:38.000Z</time>
      </trkpt>
      <trkpt lat="47.52619" lon="6.77465">
        <ele>397</ele>
        <time>2016-04-10T06:40:39.000Z</time>
      </trkpt>
      <trkpt lat="47.52623" lon="6.77454">
        <ele>397</ele>
        <time>2016-04-10T06:40:40.000Z</time>
      </trkpt>
      <trkpt lat="47.52627" lon="6.7745">
        <ele>397</ele>
        <time>2016-04-10T06:40:41.000Z</time>
      </trkpt>
      <trkpt lat="47.52632" lon="6.77449">
        <ele>397</ele>
        <time>2016-04-10T06:40:42.000Z</time>
      </trkpt>
      <trkpt lat="47.52635" lon="6.77446">
        <ele>397</ele>
        <time>2016-04-10T06:40:43.000Z</time>
      </trkpt>
      <trkpt lat="47.52639" lon="6.77444">
        <ele>397</ele>
        <time>2016-04-10T06:40:44.000Z</time>
      </trkpt>
      <trkpt lat="47.52643" lon="6.77442">
        <ele>397</ele>
        <time>2016-04-10T06:40:45.000Z</time>
      </trkpt>
      <trkpt lat="47.52646" lon="6.77439">
        <ele>398</ele>
        <time>2016-04-10T06:40:46.000Z</time>
      </trkpt>
      <trkpt lat="47.52649" lon="6.77439">
        <ele>398</ele>
        <time>2016-04-10T06:40:47.000Z</time>
      </trkpt>
      <trkpt lat="47.52653" lon="6.77437">
        <ele>398</ele>
        <time>2016-04-10T06:40:48.000Z</time>
      </trkpt>
      <trkpt lat="47.52657" lon="6.77437">
        <ele>398</ele>
        <time>2016-04-10T06:40:49.000Z</time>
      </trkpt>
      <trkpt lat="47.52658" lon="6.77437">
        <ele>398</ele>
        <time>2016-04-10T06:40:50.000Z</time>
      </trkpt>
      <trkpt lat="47.52661" lon="6.77438">
        <ele>398</ele>
        <time>2016-04-10T06:40:51.000Z</time>
      </trkpt>
      <trkpt lat="47.52663" lon="6.77438">
        <ele>398</ele>
        <time>2016-04-10T06:40:52.000Z</time>
      </trkpt>
      <trkpt lat="47.52666" lon="6.77442">
        <ele>398</ele>
        <time>2016-04-10T06:40:54.000Z</time>
      </trkpt>
      <trkpt lat="47.52668" lon="6.77443">
        <ele>400</ele>
        <time>2016-04-10T06:40:55.000Z</time>
      </trkpt>
      <trkpt lat="47.5267" lon="6.77445">
        <ele>400</ele>
        <time>2016-04-10T06:40:56.000Z</time>
      </trkpt>
      <trkpt lat="47.52672" lon="6.77446">
        <ele>400</ele>
        <time>2016-04-10T06:40:57.000Z</time>
      </trkpt>
      <trkpt lat="47.52676" lon="6.77449">
        <ele>400</ele>
        <time>2016-04-10T06:40:59.000Z</time>
      </trkpt>
      <trkpt lat="47.52677" lon="6.7745">
        <ele>400</ele>
        <time>2016-04-10T06:41:00.000Z</time>
      </trkpt>
      <trkpt lat="47.52679" lon="6.77452">
        <ele>400</ele>
        <time>2016-04-10T06:41:01.000Z</time>
      </trkpt>
      <trkpt lat="47.52681" lon="6.77455">
        <ele>400</ele>
        <time>2016-04-10T06:41:02.000Z</time>
      </trkpt>
      <trkpt lat="47.52683" lon="6.77457">
        <ele>400</ele>
        <time>2016-04-10T06:41:03.000Z</time>
      </trkpt>
      <trkpt lat="47.52685" lon="6.77459">
        <ele>400</ele>
        <time>2016-04-10T06:41:04.000Z</time>
      </trkpt>
      <trkpt lat="47.52687" lon="6.77461">
        <ele>400</ele>
        <time>2016-04-10T06:41:05.000Z</time>
      </trkpt>
      <trkpt lat="47.52689" lon="6.77463">
        <ele>400</ele>
        <time>2016-04-10T06:41:06.000Z</time>
      </trkpt>
      <trkpt lat="47.52692" lon="6.77465">
        <ele>400</ele>
        <time>2016-04-10T06:41:07.000Z</time>
      </trkpt>
      <trkpt lat="47.52695" lon="6.77466">
        <ele>400</ele>
        <time>2016-04-10T06:41:08.000Z</time>
      </trkpt>
      <trkpt lat="47.52698" lon="6.77467">
        <ele>400</ele>
        <time>2016-04-10T06:41:09.000Z</time>
      </trkpt>
      <trkpt lat="47.52702" lon="6.77468">
        <ele>400</ele>
        <time>2016-04-10T06:41:10.000Z</time>
      </trkpt>
      <trkpt lat="47.52705" lon="6.7747">
        <ele>400</ele>
        <time>2016-04-10T06:41:11.000Z</time>
      </trkpt>
      <trkpt lat="47.52708" lon="6.77472">
        <ele>400</ele>
        <time>2016-04-10T06:41:12.000Z</time>
      </trkpt>
      <trkpt lat="47.52711" lon="6.77474">
        <ele>400</ele>
        <time>2016-04-10T06:41:13.000Z</time>
      </trkpt>
      <trkpt lat="47.52714" lon="6.77477">
        <ele>400</ele>
        <time>2016-04-10T06:41:14.000Z</time>
      </trkpt>
      <trkpt lat="47.52717" lon="6.77479">
        <ele>400</ele>
        <time>2016-04-10T06:41:15.000Z</time>
      </trkpt>
      <trkpt lat="47.5272" lon="6.7748">
        <ele>400</ele>
        <time>2016-04-10T06:41:16.000Z</time>
      </trkpt>
      <trkpt lat="47.52723" lon="6.77482">
        <ele>400</ele>
        <time>2016-04-10T06:41:17.000Z</time>
      </trkpt>
      <trkpt lat="47.52726" lon="6.77482">
        <ele>400</ele>
        <time>2016-04-10T06:41:18.000Z</time>
      </trkpt>
      <trkpt lat="47.52729" lon="6.77483">
        <ele>400</ele>
        <time>2016-04-10T06:41:19.000Z</time>
      </trkpt>
      <trkpt lat="47.52732" lon="6.77484">
        <ele>400</ele>
        <time>2016-04-10T06:41:20.000Z</time>
      </trkpt>
      <trkpt lat="47.52735" lon="6.77485">
        <ele>400</ele>
        <time>2016-04-10T06:41:21.000Z</time>
      </trkpt>
      <trkpt lat="47.52738" lon="6.77487">
        <ele>400</ele>
        <time>2016-04-10T06:41:22.000Z</time>
      </trkpt>
      <trkpt lat="47.52741" lon="6.77489">
        <ele>400</ele>
        <time>2016-04-10T06:41:23.000Z</time>
      </trkpt>
      <trkpt lat="47.52743" lon="6.77491">
        <ele>400</ele>
        <time>2016-04-10T06:41:24.000Z</time>
      </trkpt>
      <trkpt lat="47.52746" lon="6.77494">
        <ele>400</ele>
        <time>2016-04-10T06:41:25.000Z</time>
      </trkpt>
      <trkpt lat="47.52748" lon="6.77497">
        <ele>400</ele>
        <time>2016-04-10T06:41:26.000Z</time>
      </trkpt>
      <trkpt lat="47.52751" lon="6.77501">
        <ele>400</ele>
        <time>2016-04-10T06:41:27.000Z</time>
      </trkpt>
      <trkpt lat="47.52755" lon="6.77503">
        <ele>400</ele>
        <time>2016-04-10T06:41:28.000Z</time>
      </trkpt>
      <trkpt lat="47.52758" lon="6.77506">
        <ele>400</ele>
        <time>2016-04-10T06:41:29.000Z</time>
      </trkpt>
      <trkpt lat="47.52763" lon="6.77508">
        <ele>400</ele>
        <time>2016-04-10T06:41:30.000Z</time>
      </trkpt>
      <trkpt lat="47.52767" lon="6.77509">
        <ele>400</ele>
        <time>2016-04-10T06:41:31.000Z</time>
      </trkpt>
      <trkpt lat="47.52771" lon="6.77511">
        <ele>400</ele>
        <time>2016-04-10T06:41:32.000Z</time>
      </trkpt>
      <trkpt lat="47.52775" lon="6.77512">
        <ele>400</ele>
        <time>2016-04-10T06:41:33.000Z</time>
      </trkpt>
      <trkpt lat="47.52779" lon="6.77514">
        <ele>400</ele>
        <time>2016-04-10T06:41:34.000Z</time>
      </trkpt>
      <trkpt lat="47.52783" lon="6.77516">
        <ele>400</ele>
        <time>2016-04-10T06:41:35.000Z</time>
      </trkpt>
      <trkpt lat="47.52786" lon="6.77519">
        <ele>400</ele>
        <time>2016-04-10T06:41:36.000Z</time>
      </trkpt>
      <trkpt lat="47.5279" lon="6.77521">
        <ele>400</ele>
        <time>2016-04-10T06:41:37.000Z</time>
      </trkpt>
      <trkpt lat="47.52793" lon="6.77524">
        <ele>400</ele>
        <time>2016-04-10T06:41:38.000Z</time>
      </trkpt>
      <trkpt lat="47.52797" lon="6.77526">
        <ele>400</ele>
        <time>2016-04-10T06:41:39.000Z</time>
      </trkpt>
      <trkpt lat="47.52801" lon="6.77529">
        <ele>400</ele>
        <time>2016-04-10T06:41:40.000Z</time>
      </trkpt>
      <trkpt lat="47.52805" lon="6.77533">
        <ele>400</ele>
        <time>2016-04-10T06:41:41.000Z</time>
      </trkpt>
      <trkpt lat="47.52809" lon="6.77535">
        <ele>400</ele>
        <time>2016-04-10T06:41:42.000Z</time>
      </trkpt>
      <trkpt lat="47.52812" lon="6.77537">
        <ele>400</ele>
        <time>2016-04-10T06:41:43.000Z</time>
      </trkpt>
      <trkpt lat="47.52815" lon="6.77538">
        <ele>400</ele>
        <time>2016-04-10T06:41:44.000Z</time>
      </trkpt>
      <trkpt lat="47.52818" lon="6.77539">
        <ele>400</ele>
        <time>2016-04-10T06:41:45.000Z</time>
      </trkpt>
      <trkpt lat="47.52821" lon="6.77539">
        <ele>400</ele>
        <time>2016-04-10T06:41:46.000Z</time>
      </trkpt>
      <trkpt lat="47.52824" lon="6.7754">
        <ele>400</ele>
        <time>2016-04-10T06:41:47.000Z</time>
      </trkpt>
      <trkpt lat="47.52827" lon="6.77541">
        <ele>400</ele>
        <time>2016-04-10T06:41:48.000Z</time>
      </trkpt>
      <trkpt lat="47.5283" lon="6.77542">
        <ele>400</ele>
        <time>2016-04-10T06:41:49.000Z</time>
      </trkpt>
      <trkpt lat="47.52833" lon="6.77544">
        <ele>400</ele>
        <time>2016-04-10T06:41:50.000Z</time>
      </trkpt>
      <trkpt lat="47.52836" lon="6.77545">
        <ele>401</ele>
        <time>2016-04-10T06:41:51.000Z</time>
      </trkpt>
      <trkpt lat="47.5284" lon="6.77546">
        <ele>401</ele>
        <time>2016-04-10T06:41:52.000Z</time>
      </trkpt>
      <trkpt lat="47.52843" lon="6.77546">
        <ele>401</ele>
        <time>2016-04-10T06:41:53.000Z</time>
      </trkpt>
      <trkpt lat="47.52847" lon="6.77547">
        <ele>401</ele>
        <time>2016-04-10T06:41:54.000Z</time>
      </trkpt>
      <trkpt lat="47.5285" lon="6.77547">
        <ele>401</ele>
        <time>2016-04-10T06:41:55.000Z</time>
      </trkpt>
      <trkpt lat="47.52853" lon="6.77548">
        <ele>401</ele>
        <time>2016-04-10T06:41:56.000Z</time>
      </trkpt>
      <trkpt lat="47.52857" lon="6.77549">
        <ele>401</ele>
        <time>2016-04-10T06:41:57.000Z</time>
      </trkpt>
      <trkpt lat="47.5286" lon="6.77549">
        <ele>401</ele>
        <time>2016-04-10T06:41:58.000Z</time>
      </trkpt>
      <trkpt lat="47.52863" lon="6.77549">
        <ele>401</ele>
        <time>2016-04-10T06:41:59.000Z</time>
      </trkpt>
      <trkpt lat="47.52866" lon="6.77549">
        <ele>401</ele>
        <time>2016-04-10T06:42:00.000Z</time>
      </trkpt>
      <trkpt lat="47.52869" lon="6.77549">
        <ele>401</ele>
        <time>2016-04-10T06:42:01.000Z</time>
      </trkpt>
      <trkpt lat="47.52873" lon="6.77549">
        <ele>401</ele>
        <time>2016-04-10T06:42:02.000Z</time>
      </trkpt>
      <trkpt lat="47.52877" lon="6.77549">
        <ele>402</ele>
        <time>2016-04-10T06:42:03.000Z</time>
      </trkpt>
      <trkpt lat="47.5288" lon="6.7755">
        <ele>402</ele>
        <time>2016-04-10T06:42:04.000Z</time>
      </trkpt>
      <trkpt lat="47.52884" lon="6.7755">
        <ele>402</ele>
        <time>2016-04-10T06:42:05.000Z</time>
      </trkpt>
      <trkpt lat="47.52887" lon="6.77551">
        <ele>402</ele>
        <time>2016-04-10T06:42:06.000Z</time>
      </trkpt>
      <trkpt lat="47.52891" lon="6.77551">
        <ele>402</ele>
        <time>2016-04-10T06:42:07.000Z</time>
      </trkpt>
      <trkpt lat="47.52895" lon="6.7755">
        <ele>402</ele>
        <time>2016-04-10T06:42:08.000Z</time>
      </trkpt>
      <trkpt lat="47.52899" lon="6.7755">
        <ele>402</ele>
        <time>2016-04-10T06:42:09.000Z</time>
      </trkpt>
      <trkpt lat="47.52903" lon="6.77549">
        <ele>402</ele>
        <time>2016-04-10T06:42:10.000Z</time>
      </trkpt>
      <trkpt lat="47.52907" lon="6.77548">
        <ele>402</ele>
        <time>2016-04-10T06:42:11.000Z</time>
      </trkpt>
      <trkpt lat="47.52911" lon="6.77548">
        <ele>402</ele>
        <time>2016-04-10T06:42:12.000Z</time>
      </trkpt>
      <trkpt lat="47.52915" lon="6.77548">
        <ele>402</ele>
        <time>2016-04-10T06:42:13.000Z</time>
      </trkpt>
      <trkpt lat="47.5292" lon="6.77549">
        <ele>403</ele>
        <time>2016-04-10T06:42:14.000Z</time>
      </trkpt>
      <trkpt lat="47.52924" lon="6.7755">
        <ele>403</ele>
        <time>2016-04-10T06:42:15.000Z</time>
      </trkpt>
      <trkpt lat="47.52928" lon="6.77551">
        <ele>403</ele>
        <time>2016-04-10T06:42:16.000Z</time>
      </trkpt>
      <trkpt lat="47.52932" lon="6.77551">
        <ele>403</ele>
        <time>2016-04-10T06:42:17.000Z</time>
      </trkpt>
      <trkpt lat="47.52936" lon="6.77552">
        <ele>403</ele>
        <time>2016-04-10T06:42:18.000Z</time>
      </trkpt>
      <trkpt lat="47.52939" lon="6.77552">
        <ele>403</ele>
        <time>2016-04-10T06:42:19.000Z</time>
      </trkpt>
      <trkpt lat="47.52942" lon="6.77553">
        <ele>403</ele>
        <time>2016-04-10T06:42:20.000Z</time>
      </trkpt>
      <trkpt lat="47.52945" lon="6.77555">
        <ele>403</ele>
        <time>2016-04-10T06:42:21.000Z</time>
      </trkpt>
      <trkpt lat="47.52948" lon="6.77556">
        <ele>403</ele>
        <time>2016-04-10T06:42:22.000Z</time>
      </trkpt>
      <trkpt lat="47.52951" lon="6.77557">
        <ele>403</ele>
        <time>2016-04-10T06:42:23.000Z</time>
      </trkpt>
      <trkpt lat="47.52954" lon="6.77558">
        <ele>403</ele>
        <time>2016-04-10T06:42:24.000Z</time>
      </trkpt>
      <trkpt lat="47.52956" lon="6.77559">
        <ele>403</ele>
        <time>2016-04-10T06:42:25.000Z</time>
      </trkpt>
      <trkpt lat="47.52958" lon="6.77559">
        <ele>403</ele>
        <time>2016-04-10T06:42:26.000Z</time>
      </trkpt>
      <trkpt lat="47.52961" lon="6.77559">
        <ele>403</ele>
        <time>2016-04-10T06:42:27.000Z</time>
      </trkpt>
      <trkpt lat="47.52964" lon="6.77559">
        <ele>403</ele>
        <time>2016-04-10T06:42:28.000Z</time>
      </trkpt>
      <trkpt lat="47.52968" lon="6.77559">
        <ele>403</ele>
        <time>2016-04-10T06:42:29.000Z</time>
      </trkpt>
      <trkpt lat="47.52971" lon="6.77559">
        <ele>404</ele>
        <time>2016-04-10T06:42:30.000Z</time>
      </trkpt>
      <trkpt lat="47.52975" lon="6.77559">
        <ele>404</ele>
        <time>2016-04-10T06:42:31.000Z</time>
      </trkpt>
      <trkpt lat="47.52978" lon="6.7756">
        <ele>404</ele>
        <time>2016-04-10T06:42:32.000Z</time>
      </trkpt>
      <trkpt lat="47.52982" lon="6.77562">
        <ele>404</ele>
        <time>2016-04-10T06:42:33.000Z</time>
      </trkpt>
      <trkpt lat="47.52987" lon="6.77563">
        <ele>404</ele>
        <time>2016-04-10T06:42:34.000Z</time>
      </trkpt>
      <trkpt lat="47.52991" lon="6.77565">
        <ele>404</ele>
        <time>2016-04-10T06:42:35.000Z</time>
      </trkpt>
      <trkpt lat="47.52995" lon="6.77567">
        <ele>404</ele>
        <time>2016-04-10T06:42:36.000Z</time>
      </trkpt>
      <trkpt lat="47.52999" lon="6.77568">
        <ele>404</ele>
        <time>2016-04-10T06:42:37.000Z</time>
      </trkpt>
      <trkpt lat="47.53004" lon="6.77569">
        <ele>405</ele>
        <time>2016-04-10T06:42:38.000Z</time>
      </trkpt>
      <trkpt lat="47.53009" lon="6.7757">
        <ele>405</ele>
        <time>2016-04-10T06:42:39.000Z</time>
      </trkpt>
      <trkpt lat="47.53013" lon="6.77571">
        <ele>404</ele>
        <time>2016-04-10T06:42:40.000Z</time>
      </trkpt>
      <trkpt lat="47.53018" lon="6.77573">
        <ele>404</ele>
        <time>2016-04-10T06:42:41.000Z</time>
      </trkpt>
      <trkpt lat="47.53023" lon="6.77574">
        <ele>404</ele>
        <time>2016-04-10T06:42:42.000Z</time>
      </trkpt>
      <trkpt lat="47.53027" lon="6.77575">
        <ele>404</ele>
        <time>2016-04-10T06:42:43.000Z</time>
      </trkpt>
      <trkpt lat="47.53031" lon="6.77576">
        <ele>404</ele>
        <time>2016-04-10T06:42:44.000Z</time>
      </trkpt>
      <trkpt lat="47.53035" lon="6.77577">
        <ele>404</ele>
        <time>2016-04-10T06:42:45.000Z</time>
      </trkpt>
      <trkpt lat="47.53039" lon="6.77578">
        <ele>404</ele>
        <time>2016-04-10T06:42:46.000Z</time>
      </trkpt>
      <trkpt lat="47.53043" lon="6.77579">
        <ele>404</ele>
        <time>2016-04-10T06:42:47.000Z</time>
      </trkpt>
      <trkpt lat="47.53046" lon="6.77579">
        <ele>404</ele>
        <time>2016-04-10T06:42:48.000Z</time>
      </trkpt>
      <trkpt lat="47.5305" lon="6.7758">
        <ele>404</ele>
        <time>2016-04-10T06:42:49.000Z</time>
      </trkpt>
      <trkpt lat="47.53054" lon="6.7758">
        <ele>405</ele>
        <time>2016-04-10T06:42:50.000Z</time>
      </trkpt>
      <trkpt lat="47.53058" lon="6.7758">
        <ele>405</ele>
        <time>2016-04-10T06:42:51.000Z</time>
      </trkpt>
      <trkpt lat="47.53063" lon="6.7758">
        <ele>405</ele>
        <time>2016-04-10T06:42:52.000Z</time>
      </trkpt>
      <trkpt lat="47.53067" lon="6.7758">
        <ele>405</ele>
        <time>2016-04-10T06:42:53.000Z</time>
      </trkpt>
      <trkpt lat="47.53072" lon="6.77582">
        <ele>405</ele>
        <time>2016-04-10T06:42:54.000Z</time>
      </trkpt>
      <trkpt lat="47.53076" lon="6.77583">
        <ele>405</ele>
        <time>2016-04-10T06:42:55.000Z</time>
      </trkpt>
      <trkpt lat="47.53079" lon="6.77586">
        <ele>406</ele>
        <time>2016-04-10T06:42:56.000Z</time>
      </trkpt>
      <trkpt lat="47.53082" lon="6.7759">
        <ele>405</ele>
        <time>2016-04-10T06:42:57.000Z</time>
      </trkpt>
      <trkpt lat="47.53084" lon="6.77593">
        <ele>406</ele>
        <time>2016-04-10T06:42:58.000Z</time>
      </trkpt>
      <trkpt lat="47.53087" lon="6.77597">
        <ele>405</ele>
        <time>2016-04-10T06:42:59.000Z</time>
      </trkpt>
      <trkpt lat="47.53089" lon="6.77601">
        <ele>405</ele>
        <time>2016-04-10T06:43:00.000Z</time>
      </trkpt>
      <trkpt lat="47.53091" lon="6.77604">
        <ele>405</ele>
        <time>2016-04-10T06:43:01.000Z</time>
      </trkpt>
      <trkpt lat="47.53092" lon="6.77608">
        <ele>405</ele>
        <time>2016-04-10T06:43:02.000Z</time>
      </trkpt>
      <trkpt lat="47.53094" lon="6.77612">
        <ele>405</ele>
        <time>2016-04-10T06:43:03.000Z</time>
      </trkpt>
      <trkpt lat="47.53095" lon="6.77616">
        <ele>405</ele>
        <time>2016-04-10T06:43:04.000Z</time>
      </trkpt>
      <trkpt lat="47.53097" lon="6.7762">
        <ele>405</ele>
        <time>2016-04-10T06:43:05.000Z</time>
      </trkpt>
      <trkpt lat="47.53099" lon="6.77624">
        <ele>405</ele>
        <time>2016-04-10T06:43:06.000Z</time>
      </trkpt>
      <trkpt lat="47.531" lon="6.77629">
        <ele>405</ele>
        <time>2016-04-10T06:43:07.000Z</time>
      </trkpt>
      <trkpt lat="47.53101" lon="6.77634">
        <ele>405</ele>
        <time>2016-04-10T06:43:08.000Z</time>
      </trkpt>
      <trkpt lat="47.53102" lon="6.77639">
        <ele>404</ele>
        <time>2016-04-10T06:43:09.000Z</time>
      </trkpt>
      <trkpt lat="47.53103" lon="6.77644">
        <ele>404</ele>
        <time>2016-04-10T06:43:10.000Z</time>
      </trkpt>
      <trkpt lat="47.53104" lon="6.77648">
        <ele>404</ele>
        <time>2016-04-10T06:43:11.000Z</time>
      </trkpt>
      <trkpt lat="47.53105" lon="6.77653">
        <ele>404</ele>
        <time>2016-04-10T06:43:12.000Z</time>
      </trkpt>
      <trkpt lat="47.53107" lon="6.77659">
        <ele>404</ele>
        <time>2016-04-10T06:43:13.000Z</time>
      </trkpt>
      <trkpt lat="47.53108" lon="6.77664">
        <ele>404</ele>
        <time>2016-04-10T06:43:14.000Z</time>
      </trkpt>
      <trkpt lat="47.53109" lon="6.7767">
        <ele>404</ele>
        <time>2016-04-10T06:43:15.000Z</time>
      </trkpt>
      <trkpt lat="47.53111" lon="6.77676">
        <ele>404</ele>
        <time>2016-04-10T06:43:16.000Z</time>
      </trkpt>
      <trkpt lat="47.53112" lon="6.77682">
        <ele>404</ele>
        <time>2016-04-10T06:43:17.000Z</time>
      </trkpt>
      <trkpt lat="47.53113" lon="6.77688">
        <ele>404</ele>
        <time>2016-04-10T06:43:18.000Z</time>
      </trkpt>
      <trkpt lat="47.53115" lon="6.77694">
        <ele>404</ele>
        <time>2016-04-10T06:43:19.000Z</time>
      </trkpt>
      <trkpt lat="47.53116" lon="6.777">
        <ele>404</ele>
        <time>2016-04-10T06:43:20.000Z</time>
      </trkpt>
      <trkpt lat="47.53118" lon="6.77705">
        <ele>404</ele>
        <time>2016-04-10T06:43:21.000Z</time>
      </trkpt>
      <trkpt lat="47.5312" lon="6.7771">
        <ele>404</ele>
        <time>2016-04-10T06:43:22.000Z</time>
      </trkpt>
      <trkpt lat="47.53122" lon="6.77715">
        <ele>404</ele>
        <time>2016-04-10T06:43:23.000Z</time>
      </trkpt>
      <trkpt lat="47.53125" lon="6.77719">
        <ele>404</ele>
        <time>2016-04-10T06:43:24.000Z</time>
      </trkpt>
      <trkpt lat="47.53128" lon="6.77724">
        <ele>404</ele>
        <time>2016-04-10T06:43:25.000Z</time>
      </trkpt>
      <trkpt lat="47.5313" lon="6.7773">
        <ele>404</ele>
        <time>2016-04-10T06:43:26.000Z</time>
      </trkpt>
      <trkpt lat="47.53132" lon="6.77735">
        <ele>404</ele>
        <time>2016-04-10T06:43:27.000Z</time>
      </trkpt>
      <trkpt lat="47.53134" lon="6.7774">
        <ele>404</ele>
        <time>2016-04-10T06:43:28.000Z</time>
      </trkpt>
      <trkpt lat="47.53137" lon="6.77745">
        <ele>404</ele>
        <time>2016-04-10T06:43:29.000Z</time>
      </trkpt>
      <trkpt lat="47.53139" lon="6.7775">
        <ele>404</ele>
        <time>2016-04-10T06:43:30.000Z</time>
      </trkpt>
      <trkpt lat="47.53142" lon="6.77756">
        <ele>403</ele>
        <time>2016-04-10T06:43:31.000Z</time>
      </trkpt>
      <trkpt lat="47.53144" lon="6.77761">
        <ele>403</ele>
        <time>2016-04-10T06:43:32.000Z</time>
      </trkpt>
      <trkpt lat="47.53147" lon="6.77767">
        <ele>403</ele>
        <time>2016-04-10T06:43:33.000Z</time>
      </trkpt>
      <trkpt lat="47.53149" lon="6.77774">
        <ele>402</ele>
        <time>2016-04-10T06:43:34.000Z</time>
      </trkpt>
      <trkpt lat="47.53152" lon="6.77781">
        <ele>402</ele>
        <time>2016-04-10T06:43:35.000Z</time>
      </trkpt>
      <trkpt lat="47.53155" lon="6.7779">
        <ele>402</ele>
        <time>2016-04-10T06:43:36.000Z</time>
      </trkpt>
      <trkpt lat="47.53157" lon="6.77798">
        <ele>402</ele>
        <time>2016-04-10T06:43:37.000Z</time>
      </trkpt>
      <trkpt lat="47.53159" lon="6.77807">
        <ele>402</ele>
        <time>2016-04-10T06:43:38.000Z</time>
      </trkpt>
      <trkpt lat="47.53161" lon="6.77817">
        <ele>402</ele>
        <time>2016-04-10T06:43:39.000Z</time>
      </trkpt>
      <trkpt lat="47.53162" lon="6.77827">
        <ele>403</ele>
        <time>2016-04-10T06:43:40.000Z</time>
      </trkpt>
      <trkpt lat="47.53164" lon="6.77852">
        <ele>400</ele>
        <time>2016-04-10T06:43:41.000Z</time>
      </trkpt>
      <trkpt lat="47.53166" lon="6.77861">
        <ele>399</ele>
        <time>2016-04-10T06:43:42.000Z</time>
      </trkpt>
      <trkpt lat="47.53168" lon="6.77869">
        <ele>399</ele>
        <time>2016-04-10T06:43:43.000Z</time>
      </trkpt>
      <trkpt lat="47.53168" lon="6.77879">
        <ele>398</ele>
        <time>2016-04-10T06:43:44.000Z</time>
      </trkpt>
      <trkpt lat="47.53169" lon="6.77889">
        <ele>398</ele>
        <time>2016-04-10T06:43:45.000Z</time>
      </trkpt>
      <trkpt lat="47.53169" lon="6.77898">
        <ele>397</ele>
        <time>2016-04-10T06:43:46.000Z</time>
      </trkpt>
      <trkpt lat="47.53167" lon="6.77911">
        <ele>397</ele>
        <time>2016-04-10T06:43:47.000Z</time>
      </trkpt>
      <trkpt lat="47.53164" lon="6.77926">
        <ele>395</ele>
        <time>2016-04-10T06:43:48.000Z</time>
      </trkpt>
      <trkpt lat="47.53162" lon="6.77937">
        <ele>394</ele>
        <time>2016-04-10T06:43:49.000Z</time>
      </trkpt>
      <trkpt lat="47.53163" lon="6.77951">
        <ele>393</ele>
        <time>2016-04-10T06:43:50.000Z</time>
      </trkpt>
      <trkpt lat="47.53164" lon="6.77964">
        <ele>393</ele>
        <time>2016-04-10T06:43:51.000Z</time>
      </trkpt>
      <trkpt lat="47.53164" lon="6.77975">
        <ele>393</ele>
        <time>2016-04-10T06:43:52.000Z</time>
      </trkpt>
      <trkpt lat="47.53165" lon="6.77986">
        <ele>393</ele>
        <time>2016-04-10T06:43:53.000Z</time>
      </trkpt>
      <trkpt lat="47.53166" lon="6.77996">
        <ele>394</ele>
        <time>2016-04-10T06:43:54.000Z</time>
      </trkpt>
      <trkpt lat="47.53168" lon="6.78005">
        <ele>394</ele>
        <time>2016-04-10T06:43:55.000Z</time>
      </trkpt>
      <trkpt lat="47.53169" lon="6.78013">
        <ele>394</ele>
        <time>2016-04-10T06:43:56.000Z</time>
      </trkpt>
      <trkpt lat="47.53171" lon="6.78023">
        <ele>393</ele>
        <time>2016-04-10T06:43:57.000Z</time>
      </trkpt>
      <trkpt lat="47.53172" lon="6.78031">
        <ele>393</ele>
        <time>2016-04-10T06:43:58.000Z</time>
      </trkpt>
      <trkpt lat="47.53174" lon="6.7804">
        <ele>393</ele>
        <time>2016-04-10T06:43:59.000Z</time>
      </trkpt>
      <trkpt lat="47.53175" lon="6.78049">
        <ele>393</ele>
        <time>2016-04-10T06:44:00.000Z</time>
      </trkpt>
      <trkpt lat="47.53177" lon="6.78059">
        <ele>393</ele>
        <time>2016-04-10T06:44:01.000Z</time>
      </trkpt>
      <trkpt lat="47.53178" lon="6.78067">
        <ele>393</ele>
        <time>2016-04-10T06:44:02.000Z</time>
      </trkpt>
      <trkpt lat="47.53179" lon="6.78077">
        <ele>393</ele>
        <time>2016-04-10T06:44:03.000Z</time>
      </trkpt>
      <trkpt lat="47.5318" lon="6.78085">
        <ele>391</ele>
        <time>2016-04-10T06:44:04.000Z</time>
      </trkpt>
      <trkpt lat="47.53181" lon="6.78092">
        <ele>391</ele>
        <time>2016-04-10T06:44:05.000Z</time>
      </trkpt>
      <trkpt lat="47.53181" lon="6.78104">
        <ele>391</ele>
        <time>2016-04-10T06:44:06.000Z</time>
      </trkpt>
      <trkpt lat="47.53181" lon="6.78114">
        <ele>391</ele>
        <time>2016-04-10T06:44:07.000Z</time>
      </trkpt>
      <trkpt lat="47.53181" lon="6.78122">
        <ele>390</ele>
        <time>2016-04-10T06:44:08.000Z</time>
      </trkpt>
      <trkpt lat="47.53182" lon="6.78128">
        <ele>390</ele>
        <time>2016-04-10T06:44:10.000Z</time>
      </trkpt>
      <trkpt lat="47.53183" lon="6.78131">
        <ele>390</ele>
        <time>2016-04-10T06:44:11.000Z</time>
      </trkpt>
      <trkpt lat="47.53185" lon="6.78136">
        <ele>390</ele>
        <time>2016-04-10T06:44:17.000Z</time>
      </trkpt>
      <trkpt lat="47.53185" lon="6.78137">
        <ele>390</ele>
        <time>2016-04-10T06:44:18.000Z</time>
      </trkpt>
      <trkpt lat="47.53185" lon="6.78142">
        <ele>390</ele>
        <time>2016-04-10T06:44:23.000Z</time>
      </trkpt>
      <trkpt lat="47.53184" lon="6.78148">
        <ele>389</ele>
        <time>2016-04-10T06:44:24.000Z</time>
      </trkpt>
      <trkpt lat="47.53184" lon="6.78155">
        <ele>389</ele>
        <time>2016-04-10T06:44:25.000Z</time>
      </trkpt>
      <trkpt lat="47.53184" lon="6.7816">
        <ele>389</ele>
        <time>2016-04-10T06:44:26.000Z</time>
      </trkpt>
      <trkpt lat="47.53184" lon="6.78166">
        <ele>389</ele>
        <time>2016-04-10T06:44:27.000Z</time>
      </trkpt>
      <trkpt lat="47.53184" lon="6.78172">
        <ele>385</ele>
        <time>2016-04-10T06:44:28.000Z</time>
      </trkpt>
      <trkpt lat="47.53184" lon="6.78177">
        <ele>385</ele>
        <time>2016-04-10T06:44:29.000Z</time>
      </trkpt>
      <trkpt lat="47.53184" lon="6.78181">
        <ele>385</ele>
        <time>2016-04-10T06:44:30.000Z</time>
      </trkpt>
      <trkpt lat="47.53184" lon="6.78184">
        <ele>385</ele>
        <time>2016-04-10T06:44:31.000Z</time>
      </trkpt>
      <trkpt lat="47.53179" lon="6.78194">
        <ele>384</ele>
        <time>2016-04-10T06:44:32.000Z</time>
      </trkpt>
      <trkpt lat="47.53175" lon="6.78202">
        <ele>384</ele>
        <time>2016-04-10T06:44:33.000Z</time>
      </trkpt>
      <trkpt lat="47.53172" lon="6.78208">
        <ele>383</ele>
        <time>2016-04-10T06:44:34.000Z</time>
      </trkpt>
      <trkpt lat="47.53171" lon="6.78213">
        <ele>383</ele>
        <time>2016-04-10T06:44:36.000Z</time>
      </trkpt>
      <trkpt lat="47.5317" lon="6.78215">
        <ele>383</ele>
        <time>2016-04-10T06:44:37.000Z</time>
      </trkpt>
      <trkpt lat="47.53168" lon="6.78221">
        <ele>382</ele>
        <time>2016-04-10T06:44:44.000Z</time>
      </trkpt>
      <trkpt lat="47.53168" lon="6.78223">
        <ele>382</ele>
        <time>2016-04-10T06:44:45.000Z</time>
      </trkpt>
      <trkpt lat="47.53164" lon="6.78225">
        <ele>379</ele>
        <time>2016-04-10T06:44:54.000Z</time>
      </trkpt>
      <trkpt lat="47.53163" lon="6.78225">
        <ele>379</ele>
        <time>2016-04-10T06:44:55.000Z</time>
      </trkpt>
      <trkpt lat="47.53163" lon="6.78219">
        <ele>380</ele>
        <time>2016-04-10T06:45:07.000Z</time>
      </trkpt>
      <trkpt lat="47.53163" lon="6.78218">
        <ele>380</ele>
        <time>2016-04-10T06:45:08.000Z</time>
      </trkpt>
      <trkpt lat="47.53165" lon="6.78212">
        <ele>380</ele>
        <time>2016-04-10T06:45:14.000Z</time>
      </trkpt>
      <trkpt lat="47.53165" lon="6.78212">
        <ele>380</ele>
        <time>2016-04-10T06:45:15.000Z</time>
      </trkpt>
      <trkpt lat="47.53169" lon="6.7821">
        <ele>383</ele>
        <time>2016-04-10T06:45:23.000Z</time>
      </trkpt>
      <trkpt lat="47.5317" lon="6.7821">
        <ele>383</ele>
        <time>2016-04-10T06:45:24.000Z</time>
      </trkpt>
      <trkpt lat="47.53172" lon="6.78213">
        <ele>383</ele>
        <time>2016-04-10T06:45:32.000Z</time>
      </trkpt>
      <trkpt lat="47.53171" lon="6.78218">
        <ele>382</ele>
        <time>2016-04-10T06:45:33.000Z</time>
      </trkpt>
      <trkpt lat="47.5317" lon="6.78222">
        <ele>382</ele>
        <time>2016-04-10T06:45:34.000Z</time>
      </trkpt>
      <trkpt lat="47.5317" lon="6.78227">
        <ele>382</ele>
        <time>2016-04-10T06:45:35.000Z</time>
      </trkpt>
      <trkpt lat="47.5317" lon="6.78233">
        <ele>381</ele>
        <time>2016-04-10T06:45:36.000Z</time>
      </trkpt>
      <trkpt lat="47.5317" lon="6.78239">
        <ele>380</ele>
        <time>2016-04-10T06:45:37.000Z</time>
      </trkpt>
      <trkpt lat="47.53174" lon="6.78255">
        <ele>377</ele>
        <time>2016-04-10T06:45:38.000Z</time>
      </trkpt>
      <trkpt lat="47.53176" lon="6.78262">
        <ele>376</ele>
        <time>2016-04-10T06:45:39.000Z</time>
      </trkpt>
      <trkpt lat="47.53178" lon="6.78269">
        <ele>375</ele>
        <time>2016-04-10T06:45:40.000Z</time>
      </trkpt>
      <trkpt lat="47.5318" lon="6.78277">
        <ele>374</ele>
        <time>2016-04-10T06:45:41.000Z</time>
      </trkpt>
      <trkpt lat="47.5318" lon="6.78286">
        <ele>374</ele>
        <time>2016-04-10T06:45:42.000Z</time>
      </trkpt>
      <trkpt lat="47.53181" lon="6.78294">
        <ele>373</ele>
        <time>2016-04-10T06:45:43.000Z</time>
      </trkpt>
      <trkpt lat="47.53182" lon="6.78301">
        <ele>372</ele>
        <time>2016-04-10T06:45:44.000Z</time>
      </trkpt>
      <trkpt lat="47.53182" lon="6.78307">
        <ele>372</ele>
        <time>2016-04-10T06:45:45.000Z</time>
      </trkpt>
      <trkpt lat="47.53182" lon="6.78313">
        <ele>371</ele>
        <time>2016-04-10T06:45:46.000Z</time>
      </trkpt>
      <trkpt lat="47.53183" lon="6.78317">
        <ele>371</ele>
        <time>2016-04-10T06:45:47.000Z</time>
      </trkpt>
      <trkpt lat="47.53183" lon="6.78326">
        <ele>370</ele>
        <time>2016-04-10T06:45:48.000Z</time>
      </trkpt>
      <trkpt lat="47.53185" lon="6.78331">
        <ele>370</ele>
        <time>2016-04-10T06:45:51.000Z</time>
      </trkpt>
      <trkpt lat="47.53186" lon="6.78331">
        <ele>370</ele>
        <time>2016-04-10T06:45:52.000Z</time>
      </trkpt>
      <trkpt lat="47.53186" lon="6.78336">
        <ele>364</ele>
        <time>2016-04-10T06:45:59.000Z</time>
      </trkpt>
      <trkpt lat="47.53187" lon="6.78338">
        <ele>364</ele>
        <time>2016-04-10T06:46:00.000Z</time>
      </trkpt>
      <trkpt lat="47.53183" lon="6.78342">
        <ele>364</ele>
        <time>2016-04-10T06:46:12.000Z</time>
      </trkpt>
      <trkpt lat="47.53183" lon="6.78343">
        <ele>364</ele>
        <time>2016-04-10T06:46:13.000Z</time>
      </trkpt>
      <trkpt lat="47.53184" lon="6.78348">
        <ele>364</ele>
        <time>2016-04-10T06:46:20.000Z</time>
      </trkpt>
      <trkpt lat="47.53185" lon="6.78349">
        <ele>364</ele>
        <time>2016-04-10T06:46:21.000Z</time>
      </trkpt>
      <trkpt lat="47.53187" lon="6.78352">
        <ele>364</ele>
        <time>2016-04-10T06:46:23.000Z</time>
      </trkpt>
      <trkpt lat="47.5319" lon="6.78352">
        <ele>364</ele>
        <time>2016-04-10T06:46:24.000Z</time>
      </trkpt>
      <trkpt lat="47.53192" lon="6.78354">
        <ele>364</ele>
        <time>2016-04-10T06:46:25.000Z</time>
      </trkpt>
      <trkpt lat="47.53195" lon="6.78355">
        <ele>364</ele>
        <time>2016-04-10T06:46:26.000Z</time>
      </trkpt>
      <trkpt lat="47.53198" lon="6.78356">
        <ele>363</ele>
        <time>2016-04-10T06:46:27.000Z</time>
      </trkpt>
      <trkpt lat="47.532" lon="6.78357">
        <ele>363</ele>
        <time>2016-04-10T06:46:28.000Z</time>
      </trkpt>
      <trkpt lat="47.53202" lon="6.78358">
        <ele>363</ele>
        <time>2016-04-10T06:46:29.000Z</time>
      </trkpt>
      <trkpt lat="47.53205" lon="6.78359">
        <ele>363</ele>
        <time>2016-04-10T06:46:30.000Z</time>
      </trkpt>
      <trkpt lat="47.53207" lon="6.7836">
        <ele>363</ele>
        <time>2016-04-10T06:46:31.000Z</time>
      </trkpt>
      <trkpt lat="47.5321" lon="6.78361">
        <ele>363</ele>
        <time>2016-04-10T06:46:32.000Z</time>
      </trkpt>
      <trkpt lat="47.53214" lon="6.78362">
        <ele>363</ele>
        <time>2016-04-10T06:46:33.000Z</time>
      </trkpt>
      <trkpt lat="47.53216" lon="6.78362">
        <ele>363</ele>
        <time>2016-04-10T06:46:34.000Z</time>
      </trkpt>
      <trkpt lat="47.53219" lon="6.78363">
        <ele>363</ele>
        <time>2016-04-10T06:46:35.000Z</time>
      </trkpt>
      <trkpt lat="47.53221" lon="6.78363">
        <ele>363</ele>
        <time>2016-04-10T06:46:36.000Z</time>
      </trkpt>
      <trkpt lat="47.53224" lon="6.78363">
        <ele>364</ele>
        <time>2016-04-10T06:46:37.000Z</time>
      </trkpt>
      <trkpt lat="47.53226" lon="6.78362">
        <ele>364</ele>
        <time>2016-04-10T06:46:38.000Z</time>
      </trkpt>
      <trkpt lat="47.5323" lon="6.78359">
        <ele>364</ele>
        <time>2016-04-10T06:46:40.000Z</time>
      </trkpt>
      <trkpt lat="47.53232" lon="6.78356">
        <ele>364</ele>
        <time>2016-04-10T06:46:41.000Z</time>
      </trkpt>
      <trkpt lat="47.53233" lon="6.78353">
        <ele>365</ele>
        <time>2016-04-10T06:46:42.000Z</time>
      </trkpt>
      <trkpt lat="47.53234" lon="6.7835">
        <ele>365</ele>
        <time>2016-04-10T06:46:43.000Z</time>
      </trkpt>
      <trkpt lat="47.53236" lon="6.78344">
        <ele>366</ele>
        <time>2016-04-10T06:46:45.000Z</time>
      </trkpt>
      <trkpt lat="47.53237" lon="6.78342">
        <ele>366</ele>
        <time>2016-04-10T06:46:46.000Z</time>
      </trkpt>
      <trkpt lat="47.53239" lon="6.78337">
        <ele>367</ele>
        <time>2016-04-10T06:46:48.000Z</time>
      </trkpt>
      <trkpt lat="47.5324" lon="6.78335">
        <ele>367</ele>
        <time>2016-04-10T06:46:49.000Z</time>
      </trkpt>
      <trkpt lat="47.53242" lon="6.78331">
        <ele>370</ele>
        <time>2016-04-10T06:46:51.000Z</time>
      </trkpt>
      <trkpt lat="47.53243" lon="6.78328">
        <ele>370</ele>
        <time>2016-04-10T06:46:52.000Z</time>
      </trkpt>
      <trkpt lat="47.53246" lon="6.78323">
        <ele>371</ele>
        <time>2016-04-10T06:46:54.000Z</time>
      </trkpt>
      <trkpt lat="47.53248" lon="6.78322">
        <ele>371</ele>
        <time>2016-04-10T06:46:55.000Z</time>
      </trkpt>
      <trkpt lat="47.53252" lon="6.7832">
        <ele>370</ele>
        <time>2016-04-10T06:46:57.000Z</time>
      </trkpt>
      <trkpt lat="47.53254" lon="6.78319">
        <ele>370</ele>
        <time>2016-04-10T06:46:58.000Z</time>
      </trkpt>
      <trkpt lat="47.53257" lon="6.78319">
        <ele>370</ele>
        <time>2016-04-10T06:46:59.000Z</time>
      </trkpt>
      <trkpt lat="47.53259" lon="6.78318">
        <ele>370</ele>
        <time>2016-04-10T06:47:00.000Z</time>
      </trkpt>
      <trkpt lat="47.53263" lon="6.78318">
        <ele>370</ele>
        <time>2016-04-10T06:47:03.000Z</time>
      </trkpt>
      <trkpt lat="47.53264" lon="6.78318">
        <ele>370</ele>
        <time>2016-04-10T06:47:04.000Z</time>
      </trkpt>
      <trkpt lat="47.53259" lon="6.78318">
        <ele>370</ele>
        <time>2016-04-10T06:47:20.000Z</time>
      </trkpt>
      <trkpt lat="47.53258" lon="6.78318">
        <ele>370</ele>
        <time>2016-04-10T06:47:21.000Z</time>
      </trkpt>
      <trkpt lat="47.53254" lon="6.7832">
        <ele>370</ele>
        <time>2016-04-10T06:47:23.000Z</time>
      </trkpt>
      <trkpt lat="47.53252" lon="6.78321">
        <ele>370</ele>
        <time>2016-04-10T06:47:23.998Z</time>
      </trkpt>
      <trkpt lat="47.53251" lon="6.78327">
        <ele>370</ele>
        <time>2016-04-10T06:47:25.000Z</time>
      </trkpt>
      <trkpt lat="47.53249" lon="6.78331">
        <ele>369</ele>
        <time>2016-04-10T06:47:26.000Z</time>
      </trkpt>
      <trkpt lat="47.53248" lon="6.78336">
        <ele>368</ele>
        <time>2016-04-10T06:47:27.000Z</time>
      </trkpt>
      <trkpt lat="47.53247" lon="6.78342">
        <ele>367</ele>
        <time>2016-04-10T06:47:28.000Z</time>
      </trkpt>
      <trkpt lat="47.53246" lon="6.78347">
        <ele>366</ele>
        <time>2016-04-10T06:47:29.000Z</time>
      </trkpt>
      <trkpt lat="47.53244" lon="6.78352">
        <ele>365</ele>
        <time>2016-04-10T06:47:30.000Z</time>
      </trkpt>
      <trkpt lat="47.53233" lon="6.78354">
        <ele>365</ele>
        <time>2016-04-10T06:47:31.000Z</time>
      </trkpt>
      <trkpt lat="47.53229" lon="6.78357">
        <ele>364</ele>
        <time>2016-04-10T06:47:32.000Z</time>
      </trkpt>
      <trkpt lat="47.53222" lon="6.78359">
        <ele>364</ele>
        <time>2016-04-10T06:47:33.000Z</time>
      </trkpt>
      <trkpt lat="47.53218" lon="6.78359">
        <ele>364</ele>
        <time>2016-04-10T06:47:34.000Z</time>
      </trkpt>
      <trkpt lat="47.53213" lon="6.78359">
        <ele>363</ele>
        <time>2016-04-10T06:47:35.000Z</time>
      </trkpt>
      <trkpt lat="47.53206" lon="6.78358">
        <ele>363</ele>
        <time>2016-04-10T06:47:36.000Z</time>
      </trkpt>
      <trkpt lat="47.53202" lon="6.78358">
        <ele>363</ele>
        <time>2016-04-10T06:47:37.000Z</time>
      </trkpt>
      <trkpt lat="47.53197" lon="6.78357">
        <ele>363</ele>
        <time>2016-04-10T06:47:38.000Z</time>
      </trkpt>
      <trkpt lat="47.53193" lon="6.78354">
        <ele>364</ele>
        <time>2016-04-10T06:47:39.000Z</time>
      </trkpt>
      <trkpt lat="47.53188" lon="6.78353">
        <ele>364</ele>
        <time>2016-04-10T06:47:40.000Z</time>
      </trkpt>
      <trkpt lat="47.53183" lon="6.78351">
        <ele>364</ele>
        <time>2016-04-10T06:47:41.000Z</time>
      </trkpt>
      <trkpt lat="47.53178" lon="6.78349">
        <ele>364</ele>
        <time>2016-04-10T06:47:42.000Z</time>
      </trkpt>
      <trkpt lat="47.53175" lon="6.78349">
        <ele>364</ele>
        <time>2016-04-10T06:47:43.000Z</time>
      </trkpt>
      <trkpt lat="47.53171" lon="6.78351">
        <ele>364</ele>
        <time>2016-04-10T06:47:44.000Z</time>
      </trkpt>
      <trkpt lat="47.53168" lon="6.78352">
        <ele>364</ele>
        <time>2016-04-10T06:47:45.000Z</time>
      </trkpt>
      <trkpt lat="47.53164" lon="6.78358">
        <ele>364</ele>
        <time>2016-04-10T06:47:46.000Z</time>
      </trkpt>
      <trkpt lat="47.53161" lon="6.78363">
        <ele>363</ele>
        <time>2016-04-10T06:47:47.000Z</time>
      </trkpt>
      <trkpt lat="47.53159" lon="6.78367">
        <ele>363</ele>
        <time>2016-04-10T06:47:48.000Z</time>
      </trkpt>
      <trkpt lat="47.53157" lon="6.78372">
        <ele>363</ele>
        <time>2016-04-10T06:47:49.000Z</time>
      </trkpt>
      <trkpt lat="47.53149" lon="6.78373">
        <ele>363</ele>
        <time>2016-04-10T06:47:50.000Z</time>
      </trkpt>
      <trkpt lat="47.53144" lon="6.78377">
        <ele>363</ele>
        <time>2016-04-10T06:47:51.000Z</time>
      </trkpt>
      <trkpt lat="47.53139" lon="6.78381">
        <ele>362</ele>
        <time>2016-04-10T06:47:52.000Z</time>
      </trkpt>
      <trkpt lat="47.53135" lon="6.78387">
        <ele>362</ele>
        <time>2016-04-10T06:47:53.000Z</time>
      </trkpt>
      <trkpt lat="47.53131" lon="6.7839">
        <ele>362</ele>
        <time>2016-04-10T06:47:54.000Z</time>
      </trkpt>
      <trkpt lat="47.53127" lon="6.78395">
        <ele>362</ele>
        <time>2016-04-10T06:47:55.000Z</time>
      </trkpt>
      <trkpt lat="47.53124" lon="6.78399">
        <ele>362</ele>
        <time>2016-04-10T06:47:56.000Z</time>
      </trkpt>
      <trkpt lat="47.53121" lon="6.78402">
        <ele>362</ele>
        <time>2016-04-10T06:47:57.000Z</time>
      </trkpt>
      <trkpt lat="47.53116" lon="6.78406">
        <ele>362</ele>
        <time>2016-04-10T06:47:58.000Z</time>
      </trkpt>
      <trkpt lat="47.53111" lon="6.78407">
        <ele>361</ele>
        <time>2016-04-10T06:47:59.000Z</time>
      </trkpt>
      <trkpt lat="47.53103" lon="6.7841">
        <ele>361</ele>
        <time>2016-04-10T06:48:00.000Z</time>
      </trkpt>
      <trkpt lat="47.531" lon="6.78411">
        <ele>361</ele>
        <time>2016-04-10T06:48:01.000Z</time>
      </trkpt>
      <trkpt lat="47.53098" lon="6.7841">
        <ele>361</ele>
        <time>2016-04-10T06:48:02.000Z</time>
      </trkpt>
      <trkpt lat="47.53094" lon="6.78413">
        <ele>360</ele>
        <time>2016-04-10T06:48:05.000Z</time>
      </trkpt>
      <trkpt lat="47.53093" lon="6.78415">
        <ele>360</ele>
        <time>2016-04-10T06:48:06.000Z</time>
      </trkpt>
      <trkpt lat="47.53092" lon="6.78419">
        <ele>358</ele>
        <time>2016-04-10T06:48:08.000Z</time>
      </trkpt>
      <trkpt lat="47.5309" lon="6.7842">
        <ele>358</ele>
        <time>2016-04-10T06:48:09.000Z</time>
      </trkpt>
      <trkpt lat="47.53086" lon="6.78422">
        <ele>358</ele>
        <time>2016-04-10T06:48:11.000Z</time>
      </trkpt>
      <trkpt lat="47.53084" lon="6.78424">
        <ele>358</ele>
        <time>2016-04-10T06:48:12.000Z</time>
      </trkpt>
      <trkpt lat="47.5308" lon="6.78427">
        <ele>358</ele>
        <time>2016-04-10T06:48:14.000Z</time>
      </trkpt>
      <trkpt lat="47.53078" lon="6.78427">
        <ele>358</ele>
        <time>2016-04-10T06:48:15.000Z</time>
      </trkpt>
      <trkpt lat="47.53076" lon="6.78428">
        <ele>358</ele>
        <time>2016-04-10T06:48:16.000Z</time>
      </trkpt>
      <trkpt lat="47.53074" lon="6.78429">
        <ele>358</ele>
        <time>2016-04-10T06:48:17.000Z</time>
      </trkpt>
      <trkpt lat="47.53071" lon="6.7843">
        <ele>358</ele>
        <time>2016-04-10T06:48:18.000Z</time>
      </trkpt>
      <trkpt lat="47.53069" lon="6.78431">
        <ele>358</ele>
        <time>2016-04-10T06:48:19.000Z</time>
      </trkpt>
      <trkpt lat="47.53067" lon="6.78433">
        <ele>358</ele>
        <time>2016-04-10T06:48:20.000Z</time>
      </trkpt>
      <trkpt lat="47.53065" lon="6.78436">
        <ele>358</ele>
        <time>2016-04-10T06:48:21.000Z</time>
      </trkpt>
      <trkpt lat="47.53062" lon="6.78439">
        <ele>357</ele>
        <time>2016-04-10T06:48:23.000Z</time>
      </trkpt>
      <trkpt lat="47.53059" lon="6.78439">
        <ele>357</ele>
        <time>2016-04-10T06:48:24.000Z</time>
      </trkpt>
      <trkpt lat="47.53055" lon="6.78439">
        <ele>357</ele>
        <time>2016-04-10T06:48:25.000Z</time>
      </trkpt>
      <trkpt lat="47.53051" lon="6.78439">
        <ele>357</ele>
        <time>2016-04-10T06:48:26.000Z</time>
      </trkpt>
      <trkpt lat="47.53047" lon="6.78439">
        <ele>357</ele>
        <time>2016-04-10T06:48:27.000Z</time>
      </trkpt>
      <trkpt lat="47.53044" lon="6.78439">
        <ele>358</ele>
        <time>2016-04-10T06:48:28.000Z</time>
      </trkpt>
      <trkpt lat="47.5304" lon="6.78439">
        <ele>358</ele>
        <time>2016-04-10T06:48:29.000Z</time>
      </trkpt>
      <trkpt lat="47.53035" lon="6.78439">
        <ele>358</ele>
        <time>2016-04-10T06:48:30.000Z</time>
      </trkpt>
      <trkpt lat="47.5303" lon="6.78438">
        <ele>358</ele>
        <time>2016-04-10T06:48:31.000Z</time>
      </trkpt>
      <trkpt lat="47.53025" lon="6.78438">
        <ele>358</ele>
        <time>2016-04-10T06:48:32.000Z</time>
      </trkpt>
      <trkpt lat="47.53021" lon="6.78439">
        <ele>358</ele>
        <time>2016-04-10T06:48:33.000Z</time>
      </trkpt>
      <trkpt lat="47.53017" lon="6.78439">
        <ele>358</ele>
        <time>2016-04-10T06:48:34.000Z</time>
      </trkpt>
      <trkpt lat="47.53013" lon="6.78439">
        <ele>359</ele>
        <time>2016-04-10T06:48:35.000Z</time>
      </trkpt>
      <trkpt lat="47.53009" lon="6.78438">
        <ele>359</ele>
        <time>2016-04-10T06:48:36.000Z</time>
      </trkpt>
      <trkpt lat="47.53005" lon="6.78437">
        <ele>359</ele>
        <time>2016-04-10T06:48:37.000Z</time>
      </trkpt>
      <trkpt lat="47.53001" lon="6.78434">
        <ele>359</ele>
        <time>2016-04-10T06:48:38.000Z</time>
      </trkpt>
      <trkpt lat="47.52998" lon="6.78432">
        <ele>359</ele>
        <time>2016-04-10T06:48:39.000Z</time>
      </trkpt>
      <trkpt lat="47.52994" lon="6.78429">
        <ele>359</ele>
        <time>2016-04-10T06:48:40.000Z</time>
      </trkpt>
      <trkpt lat="47.52991" lon="6.78428">
        <ele>359</ele>
        <time>2016-04-10T06:48:41.000Z</time>
      </trkpt>
      <trkpt lat="47.52988" lon="6.78427">
        <ele>359</ele>
        <time>2016-04-10T06:48:42.000Z</time>
      </trkpt>
      <trkpt lat="47.52985" lon="6.78428">
        <ele>359</ele>
        <time>2016-04-10T06:48:43.000Z</time>
      </trkpt>
      <trkpt lat="47.52983" lon="6.7843">
        <ele>358</ele>
        <time>2016-04-10T06:48:44.000Z</time>
      </trkpt>
      <trkpt lat="47.52982" lon="6.78433">
        <ele>358</ele>
        <time>2016-04-10T06:48:45.000Z</time>
      </trkpt>
      <trkpt lat="47.5298" lon="6.78437">
        <ele>357</ele>
        <time>2016-04-10T06:48:46.000Z</time>
      </trkpt>
      <trkpt lat="47.5298" lon="6.78443">
        <ele>357</ele>
        <time>2016-04-10T06:48:47.000Z</time>
      </trkpt>
      <trkpt lat="47.52979" lon="6.78448">
        <ele>357</ele>
        <time>2016-04-10T06:48:48.000Z</time>
      </trkpt>
      <trkpt lat="47.52979" lon="6.78452">
        <ele>356</ele>
        <time>2016-04-10T06:48:49.000Z</time>
      </trkpt>
      <trkpt lat="47.52979" lon="6.78456">
        <ele>356</ele>
        <time>2016-04-10T06:48:50.000Z</time>
      </trkpt>
      <trkpt lat="47.52979" lon="6.7846">
        <ele>356</ele>
        <time>2016-04-10T06:48:51.000Z</time>
      </trkpt>
      <trkpt lat="47.52981" lon="6.78464">
        <ele>356</ele>
        <time>2016-04-10T06:48:52.000Z</time>
      </trkpt>
      <trkpt lat="47.52983" lon="6.78468">
        <ele>356</ele>
        <time>2016-04-10T06:48:53.000Z</time>
      </trkpt>
      <trkpt lat="47.52984" lon="6.78472">
        <ele>355</ele>
        <time>2016-04-10T06:48:54.000Z</time>
      </trkpt>
      <trkpt lat="47.52985" lon="6.78476">
        <ele>355</ele>
        <time>2016-04-10T06:48:55.000Z</time>
      </trkpt>
      <trkpt lat="47.52986" lon="6.78479">
        <ele>355</ele>
        <time>2016-04-10T06:48:56.000Z</time>
      </trkpt>
      <trkpt lat="47.52986" lon="6.78483">
        <ele>355</ele>
        <time>2016-04-10T06:48:57.000Z</time>
      </trkpt>
      <trkpt lat="47.52984" lon="6.78487">
        <ele>355</ele>
        <time>2016-04-10T06:48:58.000Z</time>
      </trkpt>
      <trkpt lat="47.52982" lon="6.7849">
        <ele>355</ele>
        <time>2016-04-10T06:48:59.000Z</time>
      </trkpt>
      <trkpt lat="47.52978" lon="6.78494">
        <ele>355</ele>
        <time>2016-04-10T06:49:00.000Z</time>
      </trkpt>
      <trkpt lat="47.52975" lon="6.78498">
        <ele>355</ele>
        <time>2016-04-10T06:49:01.000Z</time>
      </trkpt>
      <trkpt lat="47.52971" lon="6.78503">
        <ele>352</ele>
        <time>2016-04-10T06:49:02.000Z</time>
      </trkpt>
      <trkpt lat="47.52974" lon="6.78518">
        <ele>352</ele>
        <time>2016-04-10T06:49:03.000Z</time>
      </trkpt>
      <trkpt lat="47.52974" lon="6.78524">
        <ele>352</ele>
        <time>2016-04-10T06:49:04.000Z</time>
      </trkpt>
      <trkpt lat="47.52974" lon="6.7853">
        <ele>351</ele>
        <time>2016-04-10T06:49:05.000Z</time>
      </trkpt>
      <trkpt lat="47.52973" lon="6.78536">
        <ele>351</ele>
        <time>2016-04-10T06:49:07.000Z</time>
      </trkpt>
      <trkpt lat="47.52973" lon="6.78538">
        <ele>351</ele>
        <time>2016-04-10T06:49:08.000Z</time>
      </trkpt>
      <trkpt lat="47.52971" lon="6.78542">
        <ele>351</ele>
        <time>2016-04-10T06:49:10.000Z</time>
      </trkpt>
      <trkpt lat="47.52969" lon="6.78544">
        <ele>351</ele>
        <time>2016-04-10T06:49:11.000Z</time>
      </trkpt>
      <trkpt lat="47.52965" lon="6.78547">
        <ele>351</ele>
        <time>2016-04-10T06:49:13.000Z</time>
      </trkpt>
      <trkpt lat="47.52963" lon="6.78549">
        <ele>351</ele>
        <time>2016-04-10T06:49:14.000Z</time>
      </trkpt>
      <trkpt lat="47.52961" lon="6.78551">
        <ele>351</ele>
        <time>2016-04-10T06:49:15.000Z</time>
      </trkpt>
      <trkpt lat="47.52959" lon="6.78553">
        <ele>351</ele>
        <time>2016-04-10T06:49:16.000Z</time>
      </trkpt>
      <trkpt lat="47.52958" lon="6.78556">
        <ele>351</ele>
        <time>2016-04-10T06:49:17.000Z</time>
      </trkpt>
      <trkpt lat="47.52958" lon="6.7856">
        <ele>351</ele>
        <time>2016-04-10T06:49:18.000Z</time>
      </trkpt>
      <trkpt lat="47.52959" lon="6.78566">
        <ele>351</ele>
        <time>2016-04-10T06:49:19.000Z</time>
      </trkpt>
      <trkpt lat="47.52966" lon="6.78581">
        <ele>351</ele>
        <time>2016-04-10T06:49:20.000Z</time>
      </trkpt>
      <trkpt lat="47.52968" lon="6.78591">
        <ele>349</ele>
        <time>2016-04-10T06:49:21.000Z</time>
      </trkpt>
      <trkpt lat="47.52969" lon="6.786">
        <ele>349</ele>
        <time>2016-04-10T06:49:22.000Z</time>
      </trkpt>
      <trkpt lat="47.52971" lon="6.7861">
        <ele>349</ele>
        <time>2016-04-10T06:49:23.000Z</time>
      </trkpt>
      <trkpt lat="47.52972" lon="6.7862">
        <ele>349</ele>
        <time>2016-04-10T06:49:24.000Z</time>
      </trkpt>
      <trkpt lat="47.52973" lon="6.78631">
        <ele>348</ele>
        <time>2016-04-10T06:49:25.000Z</time>
      </trkpt>
      <trkpt lat="47.52973" lon="6.78642">
        <ele>348</ele>
        <time>2016-04-10T06:49:26.000Z</time>
      </trkpt>
      <trkpt lat="47.52972" lon="6.78654">
        <ele>348</ele>
        <time>2016-04-10T06:49:27.000Z</time>
      </trkpt>
      <trkpt lat="47.52972" lon="6.78666">
        <ele>348</ele>
        <time>2016-04-10T06:49:28.000Z</time>
      </trkpt>
      <trkpt lat="47.52971" lon="6.78678">
        <ele>346</ele>
        <time>2016-04-10T06:49:29.000Z</time>
      </trkpt>
      <trkpt lat="47.52969" lon="6.7869">
        <ele>346</ele>
        <time>2016-04-10T06:49:30.000Z</time>
      </trkpt>
      <trkpt lat="47.52968" lon="6.78702">
        <ele>346</ele>
        <time>2016-04-10T06:49:31.000Z</time>
      </trkpt>
      <trkpt lat="47.52966" lon="6.78715">
        <ele>346</ele>
        <time>2016-04-10T06:49:32.000Z</time>
      </trkpt>
      <trkpt lat="47.52963" lon="6.78727">
        <ele>346</ele>
        <time>2016-04-10T06:49:33.000Z</time>
      </trkpt>
      <trkpt lat="47.5296" lon="6.78738">
        <ele>345</ele>
        <time>2016-04-10T06:49:34.000Z</time>
      </trkpt>
      <trkpt lat="47.52958" lon="6.78749">
        <ele>345</ele>
        <time>2016-04-10T06:49:35.000Z</time>
      </trkpt>
      <trkpt lat="47.52957" lon="6.7876">
        <ele>343</ele>
        <time>2016-04-10T06:49:36.000Z</time>
      </trkpt>
      <trkpt lat="47.52956" lon="6.7877">
        <ele>343</ele>
        <time>2016-04-10T06:49:37.000Z</time>
      </trkpt>
      <trkpt lat="47.52955" lon="6.7878">
        <ele>343</ele>
        <time>2016-04-10T06:49:38.000Z</time>
      </trkpt>
      <trkpt lat="47.52954" lon="6.7879">
        <ele>342</ele>
        <time>2016-04-10T06:49:39.000Z</time>
      </trkpt>
      <trkpt lat="47.52954" lon="6.788">
        <ele>342</ele>
        <time>2016-04-10T06:49:40.000Z</time>
      </trkpt>
      <trkpt lat="47.52954" lon="6.78809">
        <ele>342</ele>
        <time>2016-04-10T06:49:41.000Z</time>
      </trkpt>
      <trkpt lat="47.52955" lon="6.7882">
        <ele>342</ele>
        <time>2016-04-10T06:49:42.000Z</time>
      </trkpt>
      <trkpt lat="47.52957" lon="6.7883">
        <ele>342</ele>
        <time>2016-04-10T06:49:43.000Z</time>
      </trkpt>
      <trkpt lat="47.52959" lon="6.7884">
        <ele>339</ele>
        <time>2016-04-10T06:49:44.000Z</time>
      </trkpt>
      <trkpt lat="47.52962" lon="6.7885">
        <ele>339</ele>
        <time>2016-04-10T06:49:45.000Z</time>
      </trkpt>
      <trkpt lat="47.52964" lon="6.7886">
        <ele>339</ele>
        <time>2016-04-10T06:49:46.000Z</time>
      </trkpt>
      <trkpt lat="47.52966" lon="6.7887">
        <ele>339</ele>
        <time>2016-04-10T06:49:47.000Z</time>
      </trkpt>
      <trkpt lat="47.52968" lon="6.78881">
        <ele>339</ele>
        <time>2016-04-10T06:49:48.000Z</time>
      </trkpt>
      <trkpt lat="47.52971" lon="6.78892">
        <ele>338</ele>
        <time>2016-04-10T06:49:49.000Z</time>
      </trkpt>
      <trkpt lat="47.52975" lon="6.78903">
        <ele>338</ele>
        <time>2016-04-10T06:49:50.000Z</time>
      </trkpt>
      <trkpt lat="47.52978" lon="6.78914">
        <ele>337</ele>
        <time>2016-04-10T06:49:51.000Z</time>
      </trkpt>
      <trkpt lat="47.52982" lon="6.78925">
        <ele>337</ele>
        <time>2016-04-10T06:49:52.000Z</time>
      </trkpt>
      <trkpt lat="47.52985" lon="6.78936">
        <ele>337</ele>
        <time>2016-04-10T06:49:53.000Z</time>
      </trkpt>
      <trkpt lat="47.52988" lon="6.78948">
        <ele>337</ele>
        <time>2016-04-10T06:49:54.000Z</time>
      </trkpt>
      <trkpt lat="47.52991" lon="6.78959">
        <ele>337</ele>
        <time>2016-04-10T06:49:55.000Z</time>
      </trkpt>
      <trkpt lat="47.52993" lon="6.78971">
        <ele>337</ele>
        <time>2016-04-10T06:49:56.000Z</time>
      </trkpt>
      <trkpt lat="47.52994" lon="6.78982">
        <ele>336</ele>
        <time>2016-04-10T06:49:57.000Z</time>
      </trkpt>
      <trkpt lat="47.52997" lon="6.78994">
        <ele>335</ele>
        <time>2016-04-10T06:49:58.000Z</time>
      </trkpt>
      <trkpt lat="47.53" lon="6.79005">
        <ele>335</ele>
        <time>2016-04-10T06:49:59.000Z</time>
      </trkpt>
      <trkpt lat="47.53002" lon="6.79015">
        <ele>332</ele>
        <time>2016-04-10T06:50:00.000Z</time>
      </trkpt>
      <trkpt lat="47.53003" lon="6.79021">
        <ele>331</ele>
        <time>2016-04-10T06:50:01.000Z</time>
      </trkpt>
      <trkpt lat="47.53003" lon="6.79024">
        <ele>331</ele>
        <time>2016-04-10T06:50:02.000Z</time>
      </trkpt>
      <trkpt lat="47.53006" lon="6.7902">
        <ele>331</ele>
        <time>2016-04-10T06:50:04.000Z</time>
      </trkpt>
      <trkpt lat="47.53005" lon="6.79017">
        <ele>332</ele>
        <time>2016-04-10T06:50:05.000Z</time>
      </trkpt>
      <trkpt lat="47.53004" lon="6.79011">
        <ele>332</ele>
        <time>2016-04-10T06:50:07.000Z</time>
      </trkpt>
      <trkpt lat="47.53004" lon="6.79008">
        <ele>333</ele>
        <time>2016-04-10T06:50:08.000Z</time>
      </trkpt>
      <trkpt lat="47.53004" lon="6.79002">
        <ele>333</ele>
        <time>2016-04-10T06:50:10.000Z</time>
      </trkpt>
      <trkpt lat="47.53004" lon="6.78998">
        <ele>333</ele>
        <time>2016-04-10T06:50:11.000Z</time>
      </trkpt>
      <trkpt lat="47.53006" lon="6.78992">
        <ele>333</ele>
        <time>2016-04-10T06:50:13.000Z</time>
      </trkpt>
      <trkpt lat="47.53007" lon="6.7899">
        <ele>333</ele>
        <time>2016-04-10T06:50:14.000Z</time>
      </trkpt>
      <trkpt lat="47.53005" lon="6.78984">
        <ele>332</ele>
        <time>2016-04-10T06:52:53.000Z</time>
      </trkpt>
      <trkpt lat="47.53006" lon="6.78983">
        <ele>332</ele>
        <time>2016-04-10T06:52:54.000Z</time>
      </trkpt>
      <trkpt lat="47.53005" lon="6.78989">
        <ele>333</ele>
        <time>2016-04-10T06:53:14.000Z</time>
      </trkpt>
      <trkpt lat="47.53004" lon="6.7899">
        <ele>333</ele>
        <time>2016-04-10T06:53:15.000Z</time>
      </trkpt>
      <trkpt lat="47.53003" lon="6.78996">
        <ele>333</ele>
        <time>2016-04-10T06:53:19.000Z</time>
      </trkpt>
      <trkpt lat="47.53002" lon="6.78998">
        <ele>334</ele>
        <time>2016-04-10T06:53:20.000Z</time>
      </trkpt>
      <trkpt lat="47.53004" lon="6.79004">
        <ele>333</ele>
        <time>2016-04-10T06:53:29.000Z</time>
      </trkpt>
      <trkpt lat="47.53004" lon="6.79004">
        <ele>333</ele>
        <time>2016-04-10T06:53:30.000Z</time>
      </trkpt>
      <trkpt lat="47.53007" lon="6.79">
        <ele>333</ele>
        <time>2016-04-10T06:53:33.000Z</time>
      </trkpt>
      <trkpt lat="47.53007" lon="6.78998">
        <ele>333</ele>
        <time>2016-04-10T06:53:34.000Z</time>
      </trkpt>
      <trkpt lat="47.53005" lon="6.78993">
        <ele>333</ele>
        <time>2016-04-10T06:53:47.000Z</time>
      </trkpt>
      <trkpt lat="47.53005" lon="6.78991">
        <ele>333</ele>
        <time>2016-04-10T06:53:48.000Z</time>
      </trkpt>
      <trkpt lat="47.53004" lon="6.78985">
        <ele>332</ele>
        <time>2016-04-10T06:53:51.000Z</time>
      </trkpt>
      <trkpt lat="47.53003" lon="6.78984">
        <ele>332</ele>
        <time>2016-04-10T06:53:52.000Z</time>
      </trkpt>
      <trkpt lat="47.53" lon="6.78989">
        <ele>333</ele>
        <time>2016-04-10T06:54:00.000Z</time>
      </trkpt>
      <trkpt lat="47.53001" lon="6.78993">
        <ele>333</ele>
        <time>2016-04-10T06:54:01.000Z</time>
      </trkpt>
      <trkpt lat="47.53001" lon="6.78998">
        <ele>334</ele>
        <time>2016-04-10T06:54:02.000Z</time>
      </trkpt>
      <trkpt lat="47.53" lon="6.79003">
        <ele>335</ele>
        <time>2016-04-10T06:54:03.000Z</time>
      </trkpt>
      <trkpt lat="47.52999" lon="6.79007">
        <ele>335</ele>
        <time>2016-04-10T06:54:04.000Z</time>
      </trkpt>
      <trkpt lat="47.52998" lon="6.79012">
        <ele>336</ele>
        <time>2016-04-10T06:54:05.000Z</time>
      </trkpt>
      <trkpt lat="47.52998" lon="6.79017">
        <ele>336</ele>
        <time>2016-04-10T06:54:06.000Z</time>
      </trkpt>
      <trkpt lat="47.52998" lon="6.79023">
        <ele>337</ele>
        <time>2016-04-10T06:54:07.000Z</time>
      </trkpt>
      <trkpt lat="47.53005" lon="6.79037">
        <ele>331</ele>
        <time>2016-04-10T06:54:08.000Z</time>
      </trkpt>
      <trkpt lat="47.53007" lon="6.79046">
        <ele>331</ele>
        <time>2016-04-10T06:54:09.000Z</time>
      </trkpt>
      <trkpt lat="47.53009" lon="6.79053">
        <ele>331</ele>
        <time>2016-04-10T06:54:10.000Z</time>
      </trkpt>
      <trkpt lat="47.53011" lon="6.79061">
        <ele>331</ele>
        <time>2016-04-10T06:54:11.000Z</time>
      </trkpt>
      <trkpt lat="47.53013" lon="6.7907">
        <ele>331</ele>
        <time>2016-04-10T06:54:12.000Z</time>
      </trkpt>
      <trkpt lat="47.53015" lon="6.79079">
        <ele>331</ele>
        <time>2016-04-10T06:54:13.000Z</time>
      </trkpt>
      <trkpt lat="47.53018" lon="6.79088">
        <ele>330</ele>
        <time>2016-04-10T06:54:14.000Z</time>
      </trkpt>
      <trkpt lat="47.53022" lon="6.79097">
        <ele>329</ele>
        <time>2016-04-10T06:54:15.000Z</time>
      </trkpt>
      <trkpt lat="47.53026" lon="6.79104">
        <ele>329</ele>
        <time>2016-04-10T06:54:16.000Z</time>
      </trkpt>
      <trkpt lat="47.5303" lon="6.79112">
        <ele>328</ele>
        <time>2016-04-10T06:54:17.000Z</time>
      </trkpt>
      <trkpt lat="47.5303" lon="6.79121">
        <ele>328</ele>
        <time>2016-04-10T06:54:18.000Z</time>
      </trkpt>
      <trkpt lat="47.53029" lon="6.79131">
        <ele>328</ele>
        <time>2016-04-10T06:54:19.000Z</time>
      </trkpt>
      <trkpt lat="47.53027" lon="6.7914">
        <ele>328</ele>
        <time>2016-04-10T06:54:20.000Z</time>
      </trkpt>
      <trkpt lat="47.53025" lon="6.79149">
        <ele>328</ele>
        <time>2016-04-10T06:54:21.000Z</time>
      </trkpt>
      <trkpt lat="47.53024" lon="6.79158">
        <ele>329</ele>
        <time>2016-04-10T06:54:22.000Z</time>
      </trkpt>
      <trkpt lat="47.53022" lon="6.79167">
        <ele>328</ele>
        <time>2016-04-10T06:54:23.000Z</time>
      </trkpt>
      <trkpt lat="47.5302" lon="6.79175">
        <ele>328</ele>
        <time>2016-04-10T06:54:24.000Z</time>
      </trkpt>
      <trkpt lat="47.53019" lon="6.79183">
        <ele>327</ele>
        <time>2016-04-10T06:54:25.000Z</time>
      </trkpt>
      <trkpt lat="47.53018" lon="6.79191">
        <ele>327</ele>
        <time>2016-04-10T06:54:26.000Z</time>
      </trkpt>
      <trkpt lat="47.53017" lon="6.79198">
        <ele>327</ele>
        <time>2016-04-10T06:54:27.000Z</time>
      </trkpt>
      <trkpt lat="47.53016" lon="6.79205">
        <ele>327</ele>
        <time>2016-04-10T06:54:28.000Z</time>
      </trkpt>
      <trkpt lat="47.53014" lon="6.79213">
        <ele>327</ele>
        <time>2016-04-10T06:54:29.000Z</time>
      </trkpt>
      <trkpt lat="47.53013" lon="6.7922">
        <ele>327</ele>
        <time>2016-04-10T06:54:30.000Z</time>
      </trkpt>
      <trkpt lat="47.53013" lon="6.79228">
        <ele>327</ele>
        <time>2016-04-10T06:54:31.000Z</time>
      </trkpt>
      <trkpt lat="47.53013" lon="6.79235">
        <ele>327</ele>
        <time>2016-04-10T06:54:32.000Z</time>
      </trkpt>
      <trkpt lat="47.53013" lon="6.79243">
        <ele>327</ele>
        <time>2016-04-10T06:54:33.000Z</time>
      </trkpt>
      <trkpt lat="47.53013" lon="6.79251">
        <ele>327</ele>
        <time>2016-04-10T06:54:34.000Z</time>
      </trkpt>
      <trkpt lat="47.53012" lon="6.79261">
        <ele>326</ele>
        <time>2016-04-10T06:54:35.000Z</time>
      </trkpt>
      <trkpt lat="47.53012" lon="6.79269">
        <ele>326</ele>
        <time>2016-04-10T06:54:36.000Z</time>
      </trkpt>
      <trkpt lat="47.53013" lon="6.79278">
        <ele>325</ele>
        <time>2016-04-10T06:54:37.000Z</time>
      </trkpt>
      <trkpt lat="47.53014" lon="6.79287">
        <ele>325</ele>
        <time>2016-04-10T06:54:38.000Z</time>
      </trkpt>
      <trkpt lat="47.53013" lon="6.79297">
        <ele>325</ele>
        <time>2016-04-10T06:54:39.000Z</time>
      </trkpt>
      <trkpt lat="47.53015" lon="6.79306">
        <ele>325</ele>
        <time>2016-04-10T06:54:40.000Z</time>
      </trkpt>
      <trkpt lat="47.53018" lon="6.79315">
        <ele>325</ele>
        <time>2016-04-10T06:54:41.000Z</time>
      </trkpt>
      <trkpt lat="47.53019" lon="6.79324">
        <ele>325</ele>
        <time>2016-04-10T06:54:42.000Z</time>
      </trkpt>
      <trkpt lat="47.53019" lon="6.79333">
        <ele>325</ele>
        <time>2016-04-10T06:54:43.000Z</time>
      </trkpt>
      <trkpt lat="47.5302" lon="6.79343">
        <ele>326</ele>
        <time>2016-04-10T06:54:44.000Z</time>
      </trkpt>
      <trkpt lat="47.53021" lon="6.79352">
        <ele>326</ele>
        <time>2016-04-10T06:54:45.000Z</time>
      </trkpt>
      <trkpt lat="47.53021" lon="6.79362">
        <ele>326</ele>
        <time>2016-04-10T06:54:46.000Z</time>
      </trkpt>
      <trkpt lat="47.53022" lon="6.79371">
        <ele>326</ele>
        <time>2016-04-10T06:54:47.000Z</time>
      </trkpt>
      <trkpt lat="47.53023" lon="6.7938">
        <ele>326</ele>
        <time>2016-04-10T06:54:48.000Z</time>
      </trkpt>
      <trkpt lat="47.53023" lon="6.79388">
        <ele>326</ele>
        <time>2016-04-10T06:54:49.000Z</time>
      </trkpt>
      <trkpt lat="47.53024" lon="6.79392">
        <ele>326</ele>
        <time>2016-04-10T06:54:50.000Z</time>
      </trkpt>
      <trkpt lat="47.53027" lon="6.79399">
        <ele>327</ele>
        <time>2016-04-10T06:54:51.000Z</time>
      </trkpt>
      <trkpt lat="47.53029" lon="6.79405">
        <ele>327</ele>
        <time>2016-04-10T06:54:52.000Z</time>
      </trkpt>
      <trkpt lat="47.53033" lon="6.79407">
        <ele>326</ele>
        <time>2016-04-10T06:54:53.000Z</time>
      </trkpt>
      <trkpt lat="47.53038" lon="6.79408">
        <ele>326</ele>
        <time>2016-04-10T06:54:54.000Z</time>
      </trkpt>
      <trkpt lat="47.53042" lon="6.79408">
        <ele>325</ele>
        <time>2016-04-10T06:54:55.000Z</time>
      </trkpt>
      <trkpt lat="47.53047" lon="6.79406">
        <ele>325</ele>
        <time>2016-04-10T06:54:56.000Z</time>
      </trkpt>
      <trkpt lat="47.53051" lon="6.79406">
        <ele>324</ele>
        <time>2016-04-10T06:54:57.000Z</time>
      </trkpt>
      <trkpt lat="47.53055" lon="6.79404">
        <ele>324</ele>
        <time>2016-04-10T06:54:58.000Z</time>
      </trkpt>
      <trkpt lat="47.5306" lon="6.79403">
        <ele>324</ele>
        <time>2016-04-10T06:54:59.000Z</time>
      </trkpt>
      <trkpt lat="47.53065" lon="6.79402">
        <ele>323</ele>
        <time>2016-04-10T06:55:00.000Z</time>
      </trkpt>
      <trkpt lat="47.53069" lon="6.79401">
        <ele>323</ele>
        <time>2016-04-10T06:55:01.000Z</time>
      </trkpt>
      <trkpt lat="47.53073" lon="6.79401">
        <ele>323</ele>
        <time>2016-04-10T06:55:02.000Z</time>
      </trkpt>
      <trkpt lat="47.53077" lon="6.79401">
        <ele>323</ele>
        <time>2016-04-10T06:55:03.000Z</time>
      </trkpt>
      <trkpt lat="47.53081" lon="6.79401">
        <ele>323</ele>
        <time>2016-04-10T06:55:04.000Z</time>
      </trkpt>
      <trkpt lat="47.53083" lon="6.794">
        <ele>323</ele>
        <time>2016-04-10T06:55:05.000Z</time>
      </trkpt>
      <trkpt lat="47.53086" lon="6.794">
        <ele>320</ele>
        <time>2016-04-10T06:55:06.000Z</time>
      </trkpt>
      <trkpt lat="47.53088" lon="6.79402">
        <ele>320</ele>
        <time>2016-04-10T06:55:07.000Z</time>
      </trkpt>
      <trkpt lat="47.5309" lon="6.79406">
        <ele>320</ele>
        <time>2016-04-10T06:55:08.000Z</time>
      </trkpt>
      <trkpt lat="47.53087" lon="6.79409">
        <ele>320</ele>
        <time>2016-04-10T06:55:09.000Z</time>
      </trkpt>
      <trkpt lat="47.53086" lon="6.79404">
        <ele>320</ele>
        <time>2016-04-10T06:55:42.000Z</time>
      </trkpt>
      <trkpt lat="47.53086" lon="6.79399">
        <ele>320</ele>
        <time>2016-04-10T06:55:43.000Z</time>
      </trkpt>
      <trkpt lat="47.53087" lon="6.79394">
        <ele>320</ele>
        <time>2016-04-10T06:55:44.000Z</time>
      </trkpt>
      <trkpt lat="47.53087" lon="6.79387">
        <ele>320</ele>
        <time>2016-04-10T06:55:45.000Z</time>
      </trkpt>
      <trkpt lat="47.53088" lon="6.79373">
        <ele>319</ele>
        <time>2016-04-10T06:55:46.000Z</time>
      </trkpt>
      <trkpt lat="47.53089" lon="6.79365">
        <ele>319</ele>
        <time>2016-04-10T06:55:47.000Z</time>
      </trkpt>
      <trkpt lat="47.53091" lon="6.79357">
        <ele>319</ele>
        <time>2016-04-10T06:55:48.000Z</time>
      </trkpt>
      <trkpt lat="47.53094" lon="6.7935">
        <ele>319</ele>
        <time>2016-04-10T06:55:49.000Z</time>
      </trkpt>
      <trkpt lat="47.53093" lon="6.79343">
        <ele>318</ele>
        <time>2016-04-10T06:55:50.000Z</time>
      </trkpt>
      <trkpt lat="47.53093" lon="6.79336">
        <ele>318</ele>
        <time>2016-04-10T06:55:51.000Z</time>
      </trkpt>
      <trkpt lat="47.53094" lon="6.7933">
        <ele>318</ele>
        <time>2016-04-10T06:55:52.000Z</time>
      </trkpt>
      <trkpt lat="47.53093" lon="6.79324">
        <ele>318</ele>
        <time>2016-04-10T06:55:58.000Z</time>
      </trkpt>
      <trkpt lat="47.53093" lon="6.79323">
        <ele>318</ele>
        <time>2016-04-10T06:55:59.000Z</time>
      </trkpt>
      <trkpt lat="47.53093" lon="6.79317">
        <ele>318</ele>
        <time>2016-04-10T06:56:03.000Z</time>
      </trkpt>
      <trkpt lat="47.53093" lon="6.79315">
        <ele>318</ele>
        <time>2016-04-10T06:56:04.000Z</time>
      </trkpt>
      <trkpt lat="47.53092" lon="6.79308">
        <ele>318</ele>
        <time>2016-04-10T06:56:07.000Z</time>
      </trkpt>
      <trkpt lat="47.53092" lon="6.79307">
        <ele>318</ele>
        <time>2016-04-10T06:56:08.000Z</time>
      </trkpt>
      <trkpt lat="47.5309" lon="6.79312">
        <ele>318</ele>
        <time>2016-04-10T06:56:18.000Z</time>
      </trkpt>
      <trkpt lat="47.5309" lon="6.79313">
        <ele>318</ele>
        <time>2016-04-10T06:56:19.000Z</time>
      </trkpt>
      <trkpt lat="47.53092" lon="6.79319">
        <ele>318</ele>
        <time>2016-04-10T06:56:24.000Z</time>
      </trkpt>
      <trkpt lat="47.53093" lon="6.7932">
        <ele>318</ele>
        <time>2016-04-10T06:56:25.000Z</time>
      </trkpt>
      <trkpt lat="47.53097" lon="6.7932">
        <ele>318</ele>
        <time>2016-04-10T06:56:28.000Z</time>
      </trkpt>
      <trkpt lat="47.53098" lon="6.79319">
        <ele>318</ele>
        <time>2016-04-10T06:56:29.000Z</time>
      </trkpt>
      <trkpt lat="47.53097" lon="6.79314">
        <ele>318</ele>
        <time>2016-04-10T06:56:36.000Z</time>
      </trkpt>
      <trkpt lat="47.53096" lon="6.79314">
        <ele>318</ele>
        <time>2016-04-10T06:56:37.000Z</time>
      </trkpt>
      <trkpt lat="47.53095" lon="6.79308">
        <ele>318</ele>
        <time>2016-04-10T06:56:41.000Z</time>
      </trkpt>
      <trkpt lat="47.53095" lon="6.79306">
        <ele>318</ele>
        <time>2016-04-10T06:56:42.000Z</time>
      </trkpt>
      <trkpt lat="47.53099" lon="6.79303">
        <ele>318</ele>
        <time>2016-04-10T06:56:46.000Z</time>
      </trkpt>
      <trkpt lat="47.531" lon="6.79302">
        <ele>318</ele>
        <time>2016-04-10T06:56:47.000Z</time>
      </trkpt>
      <trkpt lat="47.53102" lon="6.79308">
        <ele>318</ele>
        <time>2016-04-10T06:59:33.000Z</time>
      </trkpt>
      <trkpt lat="47.53102" lon="6.79309">
        <ele>318</ele>
        <time>2016-04-10T06:59:34.000Z</time>
      </trkpt>
      <trkpt lat="47.53099" lon="6.79313">
        <ele>318</ele>
        <time>2016-04-10T06:59:42.000Z</time>
      </trkpt>
      <trkpt lat="47.53098" lon="6.79315">
        <ele>318</ele>
        <time>2016-04-10T06:59:43.000Z</time>
      </trkpt>
      <trkpt lat="47.53095" lon="6.7932">
        <ele>318</ele>
        <time>2016-04-10T06:59:46.000Z</time>
      </trkpt>
      <trkpt lat="47.53095" lon="6.79321">
        <ele>318</ele>
        <time>2016-04-10T06:59:47.000Z</time>
      </trkpt>
      <trkpt lat="47.53095" lon="6.79327">
        <ele>318</ele>
        <time>2016-04-10T07:02:52.000Z</time>
      </trkpt>
      <trkpt lat="47.53094" lon="6.79328">
        <ele>318</ele>
        <time>2016-04-10T07:02:53.000Z</time>
      </trkpt>
      <trkpt lat="47.53094" lon="6.79335">
        <ele>318</ele>
        <time>2016-04-10T07:04:20.000Z</time>
      </trkpt>
      <trkpt lat="47.53094" lon="6.79335">
        <ele>318</ele>
        <time>2016-04-10T07:04:21.000Z</time>
      </trkpt>
      <trkpt lat="47.53096" lon="6.7934">
        <ele>318</ele>
        <time>2016-04-10T07:08:52.000Z</time>
      </trkpt>
      <trkpt lat="47.53095" lon="6.79342">
        <ele>319</ele>
        <time>2016-04-10T07:08:53.000Z</time>
      </trkpt>
      <trkpt lat="47.53096" lon="6.79347">
        <ele>319</ele>
        <time>2016-04-10T07:08:55.000Z</time>
      </trkpt>
      <trkpt lat="47.53097" lon="6.7935">
        <ele>319</ele>
        <time>2016-04-10T07:08:56.000Z</time>
      </trkpt>
      <trkpt lat="47.53098" lon="6.79355">
        <ele>319</ele>
        <time>2016-04-10T07:08:58.000Z</time>
      </trkpt>
      <trkpt lat="47.53097" lon="6.79358">
        <ele>319</ele>
        <time>2016-04-10T07:08:59.000Z</time>
      </trkpt>
      <trkpt lat="47.53096" lon="6.79362">
        <ele>319</ele>
        <time>2016-04-10T07:09:00.999Z</time>
      </trkpt>
      <trkpt lat="47.53095" lon="6.79364">
        <ele>319</ele>
        <time>2016-04-10T07:09:02.000Z</time>
      </trkpt>
      <trkpt lat="47.53093" lon="6.79368">
        <ele>319</ele>
        <time>2016-04-10T07:09:06.000Z</time>
      </trkpt>
      <trkpt lat="47.53092" lon="6.7937">
        <ele>319</ele>
        <time>2016-04-10T07:09:07.000Z</time>
      </trkpt>
      <trkpt lat="47.53093" lon="6.79376">
        <ele>319</ele>
        <time>2016-04-10T07:09:10.000Z</time>
      </trkpt>
      <trkpt lat="47.53094" lon="6.79378">
        <ele>319</ele>
        <time>2016-04-10T07:09:11.000Z</time>
      </trkpt>
      <trkpt lat="47.53094" lon="6.79383">
        <ele>319</ele>
        <time>2016-04-10T07:09:13.000Z</time>
      </trkpt>
      <trkpt lat="47.53094" lon="6.79385">
        <ele>319</ele>
        <time>2016-04-10T07:09:14.000Z</time>
      </trkpt>
      <trkpt lat="47.53092" lon="6.7939">
        <ele>320</ele>
        <time>2016-04-10T07:09:16.000Z</time>
      </trkpt>
      <trkpt lat="47.53092" lon="6.79392">
        <ele>320</ele>
        <time>2016-04-10T07:09:17.000Z</time>
      </trkpt>
      <trkpt lat="47.53092" lon="6.79398">
        <ele>320</ele>
        <time>2016-04-10T07:09:20.001Z</time>
      </trkpt>
      <trkpt lat="47.5309" lon="6.794">
        <ele>320</ele>
        <time>2016-04-10T07:09:21.000Z</time>
      </trkpt>
      <trkpt lat="47.53087" lon="6.79401">
        <ele>320</ele>
        <time>2016-04-10T07:09:23.000Z</time>
      </trkpt>
      <trkpt lat="47.53085" lon="6.79402">
        <ele>320</ele>
        <time>2016-04-10T07:09:23.999Z</time>
      </trkpt>
      <trkpt lat="47.53082" lon="6.794">
        <ele>323</ele>
        <time>2016-04-10T07:09:26.000Z</time>
      </trkpt>
      <trkpt lat="47.5308" lon="6.79399">
        <ele>323</ele>
        <time>2016-04-10T07:09:27.000Z</time>
      </trkpt>
      <trkpt lat="47.53076" lon="6.79398">
        <ele>323</ele>
        <time>2016-04-10T07:09:31.000Z</time>
      </trkpt>
      <trkpt lat="47.53075" lon="6.79399">
        <ele>323</ele>
        <time>2016-04-10T07:09:32.000Z</time>
      </trkpt>
      <trkpt lat="47.5307" lon="6.79399">
        <ele>323</ele>
        <time>2016-04-10T07:09:37.000Z</time>
      </trkpt>
      <trkpt lat="47.53068" lon="6.79399">
        <ele>323</ele>
        <time>2016-04-10T07:09:38.000Z</time>
      </trkpt>
      <trkpt lat="47.53066" lon="6.794">
        <ele>323</ele>
        <time>2016-04-10T07:09:39.000Z</time>
      </trkpt>
      <trkpt lat="47.53063" lon="6.79401">
        <ele>324</ele>
        <time>2016-04-10T07:09:40.000Z</time>
      </trkpt>
      <trkpt lat="47.5306" lon="6.79403">
        <ele>324</ele>
        <time>2016-04-10T07:09:41.000Z</time>
      </trkpt>
      <trkpt lat="47.53057" lon="6.79404">
        <ele>324</ele>
        <time>2016-04-10T07:09:42.000Z</time>
      </trkpt>
      <trkpt lat="47.53055" lon="6.79406">
        <ele>324</ele>
        <time>2016-04-10T07:09:43.000Z</time>
      </trkpt>
      <trkpt lat="47.53052" lon="6.79407">
        <ele>324</ele>
        <time>2016-04-10T07:09:44.000Z</time>
      </trkpt>
      <trkpt lat="47.53047" lon="6.7941">
        <ele>325</ele>
        <time>2016-04-10T07:09:45.000Z</time>
      </trkpt>
      <trkpt lat="47.53044" lon="6.79413">
        <ele>325</ele>
        <time>2016-04-10T07:09:46.000Z</time>
      </trkpt>
      <trkpt lat="47.53041" lon="6.79415">
        <ele>325</ele>
        <time>2016-04-10T07:09:47.000Z</time>
      </trkpt>
      <trkpt lat="47.53039" lon="6.79407">
        <ele>326</ele>
        <time>2016-04-10T07:09:48.000Z</time>
      </trkpt>
      <trkpt lat="47.53038" lon="6.79404">
        <ele>326</ele>
        <time>2016-04-10T07:09:49.000Z</time>
      </trkpt>
      <trkpt lat="47.53037" lon="6.794">
        <ele>326</ele>
        <time>2016-04-10T07:09:50.000Z</time>
      </trkpt>
      <trkpt lat="47.53036" lon="6.79395">
        <ele>326</ele>
        <time>2016-04-10T07:09:52.000Z</time>
      </trkpt>
      <trkpt lat="47.53035" lon="6.79393">
        <ele>326</ele>
        <time>2016-04-10T07:09:53.000Z</time>
      </trkpt>
      <trkpt lat="47.53034" lon="6.79388">
        <ele>326</ele>
        <time>2016-04-10T07:09:54.000Z</time>
      </trkpt>
      <trkpt lat="47.53033" lon="6.79385">
        <ele>326</ele>
        <time>2016-04-10T07:09:55.000Z</time>
      </trkpt>
      <trkpt lat="47.53033" lon="6.79382">
        <ele>325</ele>
        <time>2016-04-10T07:09:56.000Z</time>
      </trkpt>
      <trkpt lat="47.53032" lon="6.79378">
        <ele>325</ele>
        <time>2016-04-10T07:09:57.000Z</time>
      </trkpt>
      <trkpt lat="47.53031" lon="6.79375">
        <ele>325</ele>
        <time>2016-04-10T07:09:58.000Z</time>
      </trkpt>
      <trkpt lat="47.53031" lon="6.79371">
        <ele>325</ele>
        <time>2016-04-10T07:09:59.000Z</time>
      </trkpt>
      <trkpt lat="47.5303" lon="6.79367">
        <ele>325</ele>
        <time>2016-04-10T07:10:00.000Z</time>
      </trkpt>
      <trkpt lat="47.5303" lon="6.79363">
        <ele>325</ele>
        <time>2016-04-10T07:10:01.000Z</time>
      </trkpt>
      <trkpt lat="47.5303" lon="6.7936">
        <ele>325</ele>
        <time>2016-04-10T07:10:02.000Z</time>
      </trkpt>
      <trkpt lat="47.5303" lon="6.79356">
        <ele>325</ele>
        <time>2016-04-10T07:10:03.000Z</time>
      </trkpt>
      <trkpt lat="47.53029" lon="6.79352">
        <ele>325</ele>
        <time>2016-04-10T07:10:04.000Z</time>
      </trkpt>
      <trkpt lat="47.53029" lon="6.79348">
        <ele>325</ele>
        <time>2016-04-10T07:10:05.000Z</time>
      </trkpt>
      <trkpt lat="47.53029" lon="6.79343">
        <ele>325</ele>
        <time>2016-04-10T07:10:06.000Z</time>
      </trkpt>
      <trkpt lat="47.53029" lon="6.7934">
        <ele>325</ele>
        <time>2016-04-10T07:10:06.999Z</time>
      </trkpt>
      <trkpt lat="47.53028" lon="6.79335">
        <ele>325</ele>
        <time>2016-04-10T07:10:08.000Z</time>
      </trkpt>
      <trkpt lat="47.53028" lon="6.79331">
        <ele>325</ele>
        <time>2016-04-10T07:10:08.999Z</time>
      </trkpt>
      <trkpt lat="47.53027" lon="6.79325">
        <ele>325</ele>
        <time>2016-04-10T07:10:10.000Z</time>
      </trkpt>
      <trkpt lat="47.53027" lon="6.79319">
        <ele>325</ele>
        <time>2016-04-10T07:10:11.000Z</time>
      </trkpt>
      <trkpt lat="47.53026" lon="6.79314">
        <ele>325</ele>
        <time>2016-04-10T07:10:12.000Z</time>
      </trkpt>
      <trkpt lat="47.53026" lon="6.7931">
        <ele>324</ele>
        <time>2016-04-10T07:10:13.001Z</time>
      </trkpt>
      <trkpt lat="47.53025" lon="6.79304">
        <ele>324</ele>
        <time>2016-04-10T07:10:14.000Z</time>
      </trkpt>
      <trkpt lat="47.53025" lon="6.793">
        <ele>324</ele>
        <time>2016-04-10T07:10:15.000Z</time>
      </trkpt>
      <trkpt lat="47.53025" lon="6.79297">
        <ele>324</ele>
        <time>2016-04-10T07:10:16.000Z</time>
      </trkpt>
      <trkpt lat="47.53024" lon="6.79293">
        <ele>324</ele>
        <time>2016-04-10T07:10:17.000Z</time>
      </trkpt>
      <trkpt lat="47.53024" lon="6.79286">
        <ele>325</ele>
        <time>2016-04-10T07:10:19.000Z</time>
      </trkpt>
      <trkpt lat="47.53024" lon="6.79283">
        <ele>325</ele>
        <time>2016-04-10T07:10:20.000Z</time>
      </trkpt>
      <trkpt lat="47.53023" lon="6.79278">
        <ele>325</ele>
        <time>2016-04-10T07:10:21.000Z</time>
      </trkpt>
      <trkpt lat="47.53023" lon="6.79273">
        <ele>325</ele>
        <time>2016-04-10T07:10:22.000Z</time>
      </trkpt>
      <trkpt lat="47.53023" lon="6.79267">
        <ele>325</ele>
        <time>2016-04-10T07:10:23.000Z</time>
      </trkpt>
      <trkpt lat="47.53023" lon="6.79262">
        <ele>325</ele>
        <time>2016-04-10T07:10:24.000Z</time>
      </trkpt>
      <trkpt lat="47.53022" lon="6.79256">
        <ele>326</ele>
        <time>2016-04-10T07:10:25.000Z</time>
      </trkpt>
      <trkpt lat="47.53022" lon="6.79251">
        <ele>326</ele>
        <time>2016-04-10T07:10:26.000Z</time>
      </trkpt>
      <trkpt lat="47.53023" lon="6.79242">
        <ele>326</ele>
        <time>2016-04-10T07:10:27.000Z</time>
      </trkpt>
      <trkpt lat="47.53023" lon="6.79237">
        <ele>326</ele>
        <time>2016-04-10T07:10:28.000Z</time>
      </trkpt>
      <trkpt lat="47.53023" lon="6.79232">
        <ele>326</ele>
        <time>2016-04-10T07:10:29.000Z</time>
      </trkpt>
      <trkpt lat="47.53023" lon="6.79228">
        <ele>326</ele>
        <time>2016-04-10T07:10:30.000Z</time>
      </trkpt>
      <trkpt lat="47.53023" lon="6.79223">
        <ele>326</ele>
        <time>2016-04-10T07:10:31.000Z</time>
      </trkpt>
      <trkpt lat="47.53024" lon="6.79218">
        <ele>326</ele>
        <time>2016-04-10T07:10:32.000Z</time>
      </trkpt>
      <trkpt lat="47.53024" lon="6.79214">
        <ele>326</ele>
        <time>2016-04-10T07:10:33.000Z</time>
      </trkpt>
      <trkpt lat="47.53025" lon="6.79211">
        <ele>326</ele>
        <time>2016-04-10T07:10:34.000Z</time>
      </trkpt>
      <trkpt lat="47.53026" lon="6.79207">
        <ele>326</ele>
        <time>2016-04-10T07:10:35.001Z</time>
      </trkpt>
      <trkpt lat="47.53026" lon="6.79203">
        <ele>326</ele>
        <time>2016-04-10T07:10:36.000Z</time>
      </trkpt>
      <trkpt lat="47.53027" lon="6.79198">
        <ele>326</ele>
        <time>2016-04-10T07:10:37.000Z</time>
      </trkpt>
      <trkpt lat="47.53027" lon="6.79193">
        <ele>326</ele>
        <time>2016-04-10T07:10:38.000Z</time>
      </trkpt>
      <trkpt lat="47.53028" lon="6.79189">
        <ele>326</ele>
        <time>2016-04-10T07:10:38.999Z</time>
      </trkpt>
      <trkpt lat="47.53028" lon="6.79183">
        <ele>327</ele>
        <time>2016-04-10T07:10:40.000Z</time>
      </trkpt>
      <trkpt lat="47.53029" lon="6.79178">
        <ele>327</ele>
        <time>2016-04-10T07:10:41.000Z</time>
      </trkpt>
      <trkpt lat="47.53029" lon="6.79172">
        <ele>327</ele>
        <time>2016-04-10T07:10:42.000Z</time>
      </trkpt>
      <trkpt lat="47.5303" lon="6.79167">
        <ele>327</ele>
        <time>2016-04-10T07:10:42.999Z</time>
      </trkpt>
      <trkpt lat="47.5303" lon="6.79162">
        <ele>328</ele>
        <time>2016-04-10T07:10:44.000Z</time>
      </trkpt>
      <trkpt lat="47.53031" lon="6.79157">
        <ele>328</ele>
        <time>2016-04-10T07:10:45.000Z</time>
      </trkpt>
      <trkpt lat="47.53031" lon="6.79153">
        <ele>328</ele>
        <time>2016-04-10T07:10:46.000Z</time>
      </trkpt>
      <trkpt lat="47.53032" lon="6.79148">
        <ele>328</ele>
        <time>2016-04-10T07:10:46.999Z</time>
      </trkpt>
      <trkpt lat="47.53033" lon="6.79144">
        <ele>328</ele>
        <time>2016-04-10T07:10:48.000Z</time>
      </trkpt>
      <trkpt lat="47.53035" lon="6.79141">
        <ele>328</ele>
        <time>2016-04-10T07:10:49.000Z</time>
      </trkpt>
      <trkpt lat="47.53036" lon="6.79137">
        <ele>328</ele>
        <time>2016-04-10T07:10:50.000Z</time>
      </trkpt>
      <trkpt lat="47.53037" lon="6.79133">
        <ele>328</ele>
        <time>2016-04-10T07:10:51.002Z</time>
      </trkpt>
      <trkpt lat="47.53038" lon="6.79128">
        <ele>328</ele>
        <time>2016-04-10T07:10:52.001Z</time>
      </trkpt>
      <trkpt lat="47.53039" lon="6.79123">
        <ele>328</ele>
        <time>2016-04-10T07:10:53.000Z</time>
      </trkpt>
      <trkpt lat="47.5304" lon="6.79117">
        <ele>328</ele>
        <time>2016-04-10T07:10:54.000Z</time>
      </trkpt>
      <trkpt lat="47.53041" lon="6.79113">
        <ele>328</ele>
        <time>2016-04-10T07:10:55.000Z</time>
      </trkpt>
      <trkpt lat="47.53042" lon="6.79109">
        <ele>328</ele>
        <time>2016-04-10T07:10:56.000Z</time>
      </trkpt>
      <trkpt lat="47.53044" lon="6.79105">
        <ele>328</ele>
        <time>2016-04-10T07:10:57.000Z</time>
      </trkpt>
      <trkpt lat="47.53046" lon="6.79101">
        <ele>327</ele>
        <time>2016-04-10T07:10:58.000Z</time>
      </trkpt>
      <trkpt lat="47.53048" lon="6.79097">
        <ele>327</ele>
        <time>2016-04-10T07:10:58.999Z</time>
      </trkpt>
      <trkpt lat="47.53051" lon="6.79092">
        <ele>327</ele>
        <time>2016-04-10T07:11:00.000Z</time>
      </trkpt>
      <trkpt lat="47.53053" lon="6.79088">
        <ele>327</ele>
        <time>2016-04-10T07:11:01.000Z</time>
      </trkpt>
      <trkpt lat="47.53056" lon="6.79084">
        <ele>327</ele>
        <time>2016-04-10T07:11:02.000Z</time>
      </trkpt>
      <trkpt lat="47.53058" lon="6.79082">
        <ele>327</ele>
        <time>2016-04-10T07:11:03.000Z</time>
      </trkpt>
      <trkpt lat="47.53061" lon="6.79079">
        <ele>327</ele>
        <time>2016-04-10T07:11:03.999Z</time>
      </trkpt>
      <trkpt lat="47.53064" lon="6.79077">
        <ele>327</ele>
        <time>2016-04-10T07:11:05.000Z</time>
      </trkpt>
      <trkpt lat="47.53067" lon="6.79074">
        <ele>327</ele>
        <time>2016-04-10T07:11:06.000Z</time>
      </trkpt>
      <trkpt lat="47.53071" lon="6.79071">
        <ele>327</ele>
        <time>2016-04-10T07:11:07.000Z</time>
      </trkpt>
      <trkpt lat="47.53074" lon="6.79068">
        <ele>327</ele>
        <time>2016-04-10T07:11:08.000Z</time>
      </trkpt>
      <trkpt lat="47.53077" lon="6.79065">
        <ele>327</ele>
        <time>2016-04-10T07:11:08.999Z</time>
      </trkpt>
      <trkpt lat="47.53081" lon="6.79062">
        <ele>327</ele>
        <time>2016-04-10T07:11:10.000Z</time>
      </trkpt>
      <trkpt lat="47.53084" lon="6.79059">
        <ele>324</ele>
        <time>2016-04-10T07:11:11.000Z</time>
      </trkpt>
      <trkpt lat="47.53087" lon="6.79056">
        <ele>324</ele>
        <time>2016-04-10T07:11:11.999Z</time>
      </trkpt>
      <trkpt lat="47.5309" lon="6.79053">
        <ele>324</ele>
        <time>2016-04-10T07:11:13.000Z</time>
      </trkpt>
      <trkpt lat="47.53094" lon="6.7905">
        <ele>324</ele>
        <time>2016-04-10T07:11:14.000Z</time>
      </trkpt>
      <trkpt lat="47.53096" lon="6.79046">
        <ele>324</ele>
        <time>2016-04-10T07:11:15.000Z</time>
      </trkpt>
      <trkpt lat="47.53099" lon="6.79042">
        <ele>324</ele>
        <time>2016-04-10T07:11:16.000Z</time>
      </trkpt>
      <trkpt lat="47.53103" lon="6.79039">
        <ele>324</ele>
        <time>2016-04-10T07:11:17.000Z</time>
      </trkpt>
      <trkpt lat="47.53106" lon="6.79035">
        <ele>324</ele>
        <time>2016-04-10T07:11:18.000Z</time>
      </trkpt>
      <trkpt lat="47.53109" lon="6.79031">
        <ele>324</ele>
        <time>2016-04-10T07:11:19.000Z</time>
      </trkpt>
      <trkpt lat="47.53112" lon="6.79027">
        <ele>324</ele>
        <time>2016-04-10T07:11:19.999Z</time>
      </trkpt>
      <trkpt lat="47.53116" lon="6.79022">
        <ele>323</ele>
        <time>2016-04-10T07:11:21.000Z</time>
      </trkpt>
      <trkpt lat="47.53119" lon="6.79018">
        <ele>323</ele>
        <time>2016-04-10T07:11:22.000Z</time>
      </trkpt>
      <trkpt lat="47.53122" lon="6.79014">
        <ele>323</ele>
        <time>2016-04-10T07:11:23.000Z</time>
      </trkpt>
      <trkpt lat="47.53126" lon="6.7901">
        <ele>323</ele>
        <time>2016-04-10T07:11:24.000Z</time>
      </trkpt>
      <trkpt lat="47.53129" lon="6.79007">
        <ele>323</ele>
        <time>2016-04-10T07:11:25.000Z</time>
      </trkpt>
      <trkpt lat="47.53132" lon="6.79003">
        <ele>323</ele>
        <time>2016-04-10T07:11:26.000Z</time>
      </trkpt>
      <trkpt lat="47.53135" lon="6.78999">
        <ele>324</ele>
        <time>2016-04-10T07:11:27.000Z</time>
      </trkpt>
      <trkpt lat="47.53139" lon="6.78995">
        <ele>324</ele>
        <time>2016-04-10T07:11:28.000Z</time>
      </trkpt>
      <trkpt lat="47.53142" lon="6.78992">
        <ele>324</ele>
        <time>2016-04-10T07:11:29.000Z</time>
      </trkpt>
      <trkpt lat="47.53146" lon="6.78988">
        <ele>324</ele>
        <time>2016-04-10T07:11:30.000Z</time>
      </trkpt>
      <trkpt lat="47.53149" lon="6.78984">
        <ele>324</ele>
        <time>2016-04-10T07:11:30.999Z</time>
      </trkpt>
      <trkpt lat="47.53153" lon="6.7898">
        <ele>324</ele>
        <time>2016-04-10T07:11:32.000Z</time>
      </trkpt>
      <trkpt lat="47.53156" lon="6.78977">
        <ele>324</ele>
        <time>2016-04-10T07:11:33.000Z</time>
      </trkpt>
      <trkpt lat="47.53159" lon="6.78973">
        <ele>324</ele>
        <time>2016-04-10T07:11:34.000Z</time>
      </trkpt>
      <trkpt lat="47.53162" lon="6.7897">
        <ele>324</ele>
        <time>2016-04-10T07:11:34.999Z</time>
      </trkpt>
      <trkpt lat="47.53165" lon="6.78966">
        <ele>324</ele>
        <time>2016-04-10T07:11:36.000Z</time>
      </trkpt>
      <trkpt lat="47.53169" lon="6.78963">
        <ele>323</ele>
        <time>2016-04-10T07:11:37.000Z</time>
      </trkpt>
      <trkpt lat="47.53172" lon="6.78959">
        <ele>323</ele>
        <time>2016-04-10T07:11:38.000Z</time>
      </trkpt>
      <trkpt lat="47.53176" lon="6.78955">
        <ele>324</ele>
        <time>2016-04-10T07:11:39.000Z</time>
      </trkpt>
      <trkpt lat="47.53179" lon="6.78952">
        <ele>324</ele>
        <time>2016-04-10T07:11:40.000Z</time>
      </trkpt>
      <trkpt lat="47.53183" lon="6.78948">
        <ele>324</ele>
        <time>2016-04-10T07:11:40.999Z</time>
      </trkpt>
      <trkpt lat="47.53187" lon="6.78944">
        <ele>324</ele>
        <time>2016-04-10T07:11:42.000Z</time>
      </trkpt>
      <trkpt lat="47.5319" lon="6.7894">
        <ele>324</ele>
        <time>2016-04-10T07:11:43.000Z</time>
      </trkpt>
      <trkpt lat="47.53195" lon="6.78935">
        <ele>324</ele>
        <time>2016-04-10T07:11:44.000Z</time>
      </trkpt>
      <trkpt lat="47.53198" lon="6.78933">
        <ele>324</ele>
        <time>2016-04-10T07:11:45.000Z</time>
      </trkpt>
      <trkpt lat="47.53202" lon="6.78929">
        <ele>324</ele>
        <time>2016-04-10T07:11:46.000Z</time>
      </trkpt>
      <trkpt lat="47.53206" lon="6.78926">
        <ele>324</ele>
        <time>2016-04-10T07:11:47.000Z</time>
      </trkpt>
      <trkpt lat="47.5321" lon="6.78923">
        <ele>324</ele>
        <time>2016-04-10T07:11:48.000Z</time>
      </trkpt>
      <trkpt lat="47.53214" lon="6.78919">
        <ele>324</ele>
        <time>2016-04-10T07:11:49.000Z</time>
      </trkpt>
      <trkpt lat="47.53219" lon="6.78916">
        <ele>326</ele>
        <time>2016-04-10T07:11:50.000Z</time>
      </trkpt>
      <trkpt lat="47.53223" lon="6.78913">
        <ele>326</ele>
        <time>2016-04-10T07:11:51.000Z</time>
      </trkpt>
      <trkpt lat="47.53227" lon="6.78909">
        <ele>326</ele>
        <time>2016-04-10T07:11:52.000Z</time>
      </trkpt>
      <trkpt lat="47.53231" lon="6.78905">
        <ele>326</ele>
        <time>2016-04-10T07:11:53.000Z</time>
      </trkpt>
      <trkpt lat="47.53235" lon="6.78901">
        <ele>326</ele>
        <time>2016-04-10T07:11:54.000Z</time>
      </trkpt>
      <trkpt lat="47.5324" lon="6.78897">
        <ele>326</ele>
        <time>2016-04-10T07:11:55.000Z</time>
      </trkpt>
      <trkpt lat="47.53244" lon="6.78893">
        <ele>326</ele>
        <time>2016-04-10T07:11:56.000Z</time>
      </trkpt>
      <trkpt lat="47.53249" lon="6.7889">
        <ele>326</ele>
        <time>2016-04-10T07:11:57.000Z</time>
      </trkpt>
      <trkpt lat="47.53254" lon="6.78885">
        <ele>326</ele>
        <time>2016-04-10T07:11:58.000Z</time>
      </trkpt>
      <trkpt lat="47.53258" lon="6.7888">
        <ele>326</ele>
        <time>2016-04-10T07:11:59.000Z</time>
      </trkpt>
      <trkpt lat="47.53263" lon="6.78878">
        <ele>326</ele>
        <time>2016-04-10T07:12:00.000Z</time>
      </trkpt>
      <trkpt lat="47.53268" lon="6.78875">
        <ele>326</ele>
        <time>2016-04-10T07:12:01.000Z</time>
      </trkpt>
      <trkpt lat="47.53273" lon="6.78873">
        <ele>326</ele>
        <time>2016-04-10T07:12:02.000Z</time>
      </trkpt>
      <trkpt lat="47.53277" lon="6.7887">
        <ele>326</ele>
        <time>2016-04-10T07:12:03.000Z</time>
      </trkpt>
      <trkpt lat="47.53283" lon="6.78868">
        <ele>326</ele>
        <time>2016-04-10T07:12:04.000Z</time>
      </trkpt>
      <trkpt lat="47.53288" lon="6.78866">
        <ele>326</ele>
        <time>2016-04-10T07:12:05.000Z</time>
      </trkpt>
      <trkpt lat="47.53293" lon="6.78864">
        <ele>326</ele>
        <time>2016-04-10T07:12:05.999Z</time>
      </trkpt>
      <trkpt lat="47.53298" lon="6.78862">
        <ele>326</ele>
        <time>2016-04-10T07:12:07.000Z</time>
      </trkpt>
      <trkpt lat="47.53303" lon="6.7886">
        <ele>326</ele>
        <time>2016-04-10T07:12:08.000Z</time>
      </trkpt>
      <trkpt lat="47.53307" lon="6.78859">
        <ele>326</ele>
        <time>2016-04-10T07:12:09.000Z</time>
      </trkpt>
      <trkpt lat="47.53312" lon="6.78857">
        <ele>326</ele>
        <time>2016-04-10T07:12:10.000Z</time>
      </trkpt>
      <trkpt lat="47.53317" lon="6.78856">
        <ele>326</ele>
        <time>2016-04-10T07:12:11.000Z</time>
      </trkpt>
      <trkpt lat="47.53322" lon="6.78855">
        <ele>326</ele>
        <time>2016-04-10T07:12:12.000Z</time>
      </trkpt>
      <trkpt lat="47.53327" lon="6.78854">
        <ele>326</ele>
        <time>2016-04-10T07:12:13.000Z</time>
      </trkpt>
      <trkpt lat="47.53331" lon="6.78852">
        <ele>326</ele>
        <time>2016-04-10T07:12:14.000Z</time>
      </trkpt>
      <trkpt lat="47.53336" lon="6.78849">
        <ele>326</ele>
        <time>2016-04-10T07:12:15.000Z</time>
      </trkpt>
      <trkpt lat="47.53341" lon="6.78847">
        <ele>326</ele>
        <time>2016-04-10T07:12:15.999Z</time>
      </trkpt>
      <trkpt lat="47.53346" lon="6.78848">
        <ele>326</ele>
        <time>2016-04-10T07:12:17.000Z</time>
      </trkpt>
      <trkpt lat="47.53351" lon="6.78847">
        <ele>326</ele>
        <time>2016-04-10T07:12:17.999Z</time>
      </trkpt>
      <trkpt lat="47.53355" lon="6.78845">
        <ele>326</ele>
        <time>2016-04-10T07:12:19.000Z</time>
      </trkpt>
      <trkpt lat="47.5336" lon="6.78844">
        <ele>326</ele>
        <time>2016-04-10T07:12:19.999Z</time>
      </trkpt>
      <trkpt lat="47.53364" lon="6.78843">
        <ele>326</ele>
        <time>2016-04-10T07:12:21.000Z</time>
      </trkpt>
      <trkpt lat="47.53369" lon="6.78841">
        <ele>326</ele>
        <time>2016-04-10T07:12:22.000Z</time>
      </trkpt>
      <trkpt lat="47.53373" lon="6.78839">
        <ele>326</ele>
        <time>2016-04-10T07:12:23.000Z</time>
      </trkpt>
      <trkpt lat="47.53377" lon="6.78838">
        <ele>326</ele>
        <time>2016-04-10T07:12:24.000Z</time>
      </trkpt>
      <trkpt lat="47.53381" lon="6.78836">
        <ele>326</ele>
        <time>2016-04-10T07:12:25.000Z</time>
      </trkpt>
      <trkpt lat="47.53385" lon="6.78836">
        <ele>326</ele>
        <time>2016-04-10T07:12:26.000Z</time>
      </trkpt>
      <trkpt lat="47.5339" lon="6.78835">
        <ele>326</ele>
        <time>2016-04-10T07:12:27.000Z</time>
      </trkpt>
      <trkpt lat="47.53394" lon="6.78832">
        <ele>329</ele>
        <time>2016-04-10T07:12:28.000Z</time>
      </trkpt>
      <trkpt lat="47.53398" lon="6.7883">
        <ele>329</ele>
        <time>2016-04-10T07:12:29.000Z</time>
      </trkpt>
      <trkpt lat="47.53403" lon="6.78826">
        <ele>329</ele>
        <time>2016-04-10T07:12:30.000Z</time>
      </trkpt>
      <trkpt lat="47.53409" lon="6.78824">
        <ele>329</ele>
        <time>2016-04-10T07:12:31.000Z</time>
      </trkpt>
      <trkpt lat="47.53414" lon="6.78823">
        <ele>328</ele>
        <time>2016-04-10T07:12:32.000Z</time>
      </trkpt>
      <trkpt lat="47.53418" lon="6.78822">
        <ele>328</ele>
        <time>2016-04-10T07:12:33.000Z</time>
      </trkpt>
      <trkpt lat="47.53421" lon="6.78821">
        <ele>328</ele>
        <time>2016-04-10T07:12:34.000Z</time>
      </trkpt>
      <trkpt lat="47.53425" lon="6.78819">
        <ele>328</ele>
        <time>2016-04-10T07:12:35.000Z</time>
      </trkpt>
      <trkpt lat="47.53429" lon="6.78818">
        <ele>328</ele>
        <time>2016-04-10T07:12:36.000Z</time>
      </trkpt>
      <trkpt lat="47.53432" lon="6.78817">
        <ele>328</ele>
        <time>2016-04-10T07:12:37.000Z</time>
      </trkpt>
      <trkpt lat="47.53435" lon="6.78816">
        <ele>328</ele>
        <time>2016-04-10T07:12:38.000Z</time>
      </trkpt>
      <trkpt lat="47.53439" lon="6.78814">
        <ele>329</ele>
        <time>2016-04-10T07:12:39.000Z</time>
      </trkpt>
      <trkpt lat="47.53442" lon="6.78813">
        <ele>329</ele>
        <time>2016-04-10T07:12:40.000Z</time>
      </trkpt>
      <trkpt lat="47.53446" lon="6.78813">
        <ele>329</ele>
        <time>2016-04-10T07:12:41.000Z</time>
      </trkpt>
      <trkpt lat="47.53449" lon="6.78812">
        <ele>329</ele>
        <time>2016-04-10T07:12:42.000Z</time>
      </trkpt>
      <trkpt lat="47.53452" lon="6.7881">
        <ele>329</ele>
        <time>2016-04-10T07:12:43.000Z</time>
      </trkpt>
      <trkpt lat="47.53456" lon="6.78807">
        <ele>329</ele>
        <time>2016-04-10T07:12:44.000Z</time>
      </trkpt>
      <trkpt lat="47.53459" lon="6.78805">
        <ele>329</ele>
        <time>2016-04-10T07:12:45.000Z</time>
      </trkpt>
      <trkpt lat="47.53463" lon="6.78802">
        <ele>329</ele>
        <time>2016-04-10T07:12:46.000Z</time>
      </trkpt>
      <trkpt lat="47.53466" lon="6.78799">
        <ele>329</ele>
        <time>2016-04-10T07:12:47.000Z</time>
      </trkpt>
      <trkpt lat="47.53469" lon="6.78796">
        <ele>329</ele>
        <time>2016-04-10T07:12:48.000Z</time>
      </trkpt>
      <trkpt lat="47.53472" lon="6.78793">
        <ele>329</ele>
        <time>2016-04-10T07:12:49.000Z</time>
      </trkpt>
      <trkpt lat="47.53474" lon="6.7879">
        <ele>329</ele>
        <time>2016-04-10T07:12:50.000Z</time>
      </trkpt>
      <trkpt lat="47.53477" lon="6.78787">
        <ele>329</ele>
        <time>2016-04-10T07:12:50.999Z</time>
      </trkpt>
      <trkpt lat="47.5348" lon="6.78783">
        <ele>329</ele>
        <time>2016-04-10T07:12:52.000Z</time>
      </trkpt>
      <trkpt lat="47.53482" lon="6.78779">
        <ele>329</ele>
        <time>2016-04-10T07:12:53.000Z</time>
      </trkpt>
      <trkpt lat="47.53485" lon="6.78775">
        <ele>330</ele>
        <time>2016-04-10T07:12:54.000Z</time>
      </trkpt>
      <trkpt lat="47.53487" lon="6.78771">
        <ele>330</ele>
        <time>2016-04-10T07:12:55.000Z</time>
      </trkpt>
      <trkpt lat="47.53489" lon="6.78767">
        <ele>330</ele>
        <time>2016-04-10T07:12:56.000Z</time>
      </trkpt>
      <trkpt lat="47.53491" lon="6.78762">
        <ele>330</ele>
        <time>2016-04-10T07:12:57.000Z</time>
      </trkpt>
      <trkpt lat="47.53493" lon="6.78758">
        <ele>330</ele>
        <time>2016-04-10T07:12:58.000Z</time>
      </trkpt>
      <trkpt lat="47.53496" lon="6.78753">
        <ele>331</ele>
        <time>2016-04-10T07:12:59.001Z</time>
      </trkpt>
      <trkpt lat="47.53497" lon="6.78748">
        <ele>332</ele>
        <time>2016-04-10T07:13:00.000Z</time>
      </trkpt>
      <trkpt lat="47.53499" lon="6.78742">
        <ele>332</ele>
        <time>2016-04-10T07:13:01.000Z</time>
      </trkpt>
      <trkpt lat="47.535" lon="6.78737">
        <ele>333</ele>
        <time>2016-04-10T07:13:02.000Z</time>
      </trkpt>
      <trkpt lat="47.53501" lon="6.78732">
        <ele>330</ele>
        <time>2016-04-10T07:13:03.000Z</time>
      </trkpt>
      <trkpt lat="47.53503" lon="6.78726">
        <ele>330</ele>
        <time>2016-04-10T07:13:04.000Z</time>
      </trkpt>
      <trkpt lat="47.53504" lon="6.78721">
        <ele>330</ele>
        <time>2016-04-10T07:13:05.000Z</time>
      </trkpt>
      <trkpt lat="47.53505" lon="6.78715">
        <ele>330</ele>
        <time>2016-04-10T07:13:06.000Z</time>
      </trkpt>
      <trkpt lat="47.53505" lon="6.78709">
        <ele>330</ele>
        <time>2016-04-10T07:13:07.000Z</time>
      </trkpt>
      <trkpt lat="47.53506" lon="6.78702">
        <ele>330</ele>
        <time>2016-04-10T07:13:08.000Z</time>
      </trkpt>
      <trkpt lat="47.53506" lon="6.78696">
        <ele>330</ele>
        <time>2016-04-10T07:13:09.000Z</time>
      </trkpt>
      <trkpt lat="47.53506" lon="6.7869">
        <ele>331</ele>
        <time>2016-04-10T07:13:10.000Z</time>
      </trkpt>
      <trkpt lat="47.53506" lon="6.78683">
        <ele>331</ele>
        <time>2016-04-10T07:13:11.000Z</time>
      </trkpt>
      <trkpt lat="47.53506" lon="6.78677">
        <ele>332</ele>
        <time>2016-04-10T07:13:12.000Z</time>
      </trkpt>
      <trkpt lat="47.53505" lon="6.7867">
        <ele>333</ele>
        <time>2016-04-10T07:13:13.000Z</time>
      </trkpt>
      <trkpt lat="47.53506" lon="6.78664">
        <ele>333</ele>
        <time>2016-04-10T07:13:14.000Z</time>
      </trkpt>
      <trkpt lat="47.53507" lon="6.78658">
        <ele>333</ele>
        <time>2016-04-10T07:13:15.000Z</time>
      </trkpt>
      <trkpt lat="47.53507" lon="6.78651">
        <ele>332</ele>
        <time>2016-04-10T07:13:16.000Z</time>
      </trkpt>
      <trkpt lat="47.53507" lon="6.78646">
        <ele>332</ele>
        <time>2016-04-10T07:13:17.000Z</time>
      </trkpt>
      <trkpt lat="47.53506" lon="6.7864">
        <ele>332</ele>
        <time>2016-04-10T07:13:18.000Z</time>
      </trkpt>
      <trkpt lat="47.53506" lon="6.78634">
        <ele>332</ele>
        <time>2016-04-10T07:13:18.999Z</time>
      </trkpt>
      <trkpt lat="47.53506" lon="6.78628">
        <ele>332</ele>
        <time>2016-04-10T07:13:20.000Z</time>
      </trkpt>
      <trkpt lat="47.53505" lon="6.78622">
        <ele>332</ele>
        <time>2016-04-10T07:13:21.000Z</time>
      </trkpt>
      <trkpt lat="47.53505" lon="6.78615">
        <ele>332</ele>
        <time>2016-04-10T07:13:22.000Z</time>
      </trkpt>
      <trkpt lat="47.53506" lon="6.78608">
        <ele>332</ele>
        <time>2016-04-10T07:13:23.000Z</time>
      </trkpt>
      <trkpt lat="47.53506" lon="6.786">
        <ele>332</ele>
        <time>2016-04-10T07:13:24.000Z</time>
      </trkpt>
      <trkpt lat="47.53506" lon="6.78593">
        <ele>332</ele>
        <time>2016-04-10T07:13:25.000Z</time>
      </trkpt>
      <trkpt lat="47.53506" lon="6.78586">
        <ele>333</ele>
        <time>2016-04-10T07:13:26.000Z</time>
      </trkpt>
      <trkpt lat="47.53506" lon="6.78578">
        <ele>332</ele>
        <time>2016-04-10T07:13:26.999Z</time>
      </trkpt>
      <trkpt lat="47.53505" lon="6.78574">
        <ele>332</ele>
        <time>2016-04-10T07:13:28.000Z</time>
      </trkpt>
      <trkpt lat="47.53505" lon="6.78566">
        <ele>332</ele>
        <time>2016-04-10T07:13:29.000Z</time>
      </trkpt>
      <trkpt lat="47.53505" lon="6.7856">
        <ele>332</ele>
        <time>2016-04-10T07:13:30.000Z</time>
      </trkpt>
      <trkpt lat="47.53505" lon="6.78554">
        <ele>332</ele>
        <time>2016-04-10T07:13:31.000Z</time>
      </trkpt>
      <trkpt lat="47.53505" lon="6.78547">
        <ele>332</ele>
        <time>2016-04-10T07:13:32.000Z</time>
      </trkpt>
      <trkpt lat="47.53504" lon="6.78541">
        <ele>332</ele>
        <time>2016-04-10T07:13:33.000Z</time>
      </trkpt>
      <trkpt lat="47.53504" lon="6.78535">
        <ele>332</ele>
        <time>2016-04-10T07:13:34.001Z</time>
      </trkpt>
      <trkpt lat="47.53504" lon="6.78529">
        <ele>332</ele>
        <time>2016-04-10T07:13:35.000Z</time>
      </trkpt>
      <trkpt lat="47.53503" lon="6.78523">
        <ele>333</ele>
        <time>2016-04-10T07:13:36.000Z</time>
      </trkpt>
      <trkpt lat="47.53503" lon="6.78516">
        <ele>333</ele>
        <time>2016-04-10T07:13:37.000Z</time>
      </trkpt>
      <trkpt lat="47.53503" lon="6.7851">
        <ele>334</ele>
        <time>2016-04-10T07:13:38.000Z</time>
      </trkpt>
      <trkpt lat="47.53503" lon="6.78503">
        <ele>334</ele>
        <time>2016-04-10T07:13:39.000Z</time>
      </trkpt>
      <trkpt lat="47.53503" lon="6.78497">
        <ele>334</ele>
        <time>2016-04-10T07:13:40.000Z</time>
      </trkpt>
      <trkpt lat="47.53504" lon="6.78491">
        <ele>334</ele>
        <time>2016-04-10T07:13:41.000Z</time>
      </trkpt>
      <trkpt lat="47.53503" lon="6.78486">
        <ele>333</ele>
        <time>2016-04-10T07:13:42.000Z</time>
      </trkpt>
      <trkpt lat="47.53503" lon="6.78478">
        <ele>333</ele>
        <time>2016-04-10T07:13:43.000Z</time>
      </trkpt>
      <trkpt lat="47.53504" lon="6.78471">
        <ele>332</ele>
        <time>2016-04-10T07:13:44.000Z</time>
      </trkpt>
      <trkpt lat="47.53504" lon="6.78464">
        <ele>332</ele>
        <time>2016-04-10T07:13:44.999Z</time>
      </trkpt>
      <trkpt lat="47.53505" lon="6.78458">
        <ele>332</ele>
        <time>2016-04-10T07:13:46.000Z</time>
      </trkpt>
      <trkpt lat="47.53507" lon="6.78451">
        <ele>332</ele>
        <time>2016-04-10T07:13:47.000Z</time>
      </trkpt>
      <trkpt lat="47.53507" lon="6.78443">
        <ele>332</ele>
        <time>2016-04-10T07:13:48.000Z</time>
      </trkpt>
      <trkpt lat="47.53508" lon="6.78435">
        <ele>333</ele>
        <time>2016-04-10T07:13:48.999Z</time>
      </trkpt>
      <trkpt lat="47.5351" lon="6.78431">
        <ele>333</ele>
        <time>2016-04-10T07:13:50.000Z</time>
      </trkpt>
      <trkpt lat="47.53511" lon="6.78425">
        <ele>333</ele>
        <time>2016-04-10T07:13:51.000Z</time>
      </trkpt>
      <trkpt lat="47.53513" lon="6.78418">
        <ele>333</ele>
        <time>2016-04-10T07:13:52.000Z</time>
      </trkpt>
      <trkpt lat="47.53515" lon="6.78411">
        <ele>333</ele>
        <time>2016-04-10T07:13:53.000Z</time>
      </trkpt>
      <trkpt lat="47.53517" lon="6.78403">
        <ele>333</ele>
        <time>2016-04-10T07:13:54.000Z</time>
      </trkpt>
      <trkpt lat="47.53519" lon="6.78396">
        <ele>332</ele>
        <time>2016-04-10T07:13:55.000Z</time>
      </trkpt>
      <trkpt lat="47.53521" lon="6.7839">
        <ele>332</ele>
        <time>2016-04-10T07:13:56.000Z</time>
      </trkpt>
      <trkpt lat="47.53523" lon="6.78384">
        <ele>332</ele>
        <time>2016-04-10T07:13:57.000Z</time>
      </trkpt>
      <trkpt lat="47.53525" lon="6.78378">
        <ele>332</ele>
        <time>2016-04-10T07:13:58.000Z</time>
      </trkpt>
      <trkpt lat="47.53527" lon="6.78372">
        <ele>332</ele>
        <time>2016-04-10T07:13:59.001Z</time>
      </trkpt>
      <trkpt lat="47.53528" lon="6.78365">
        <ele>332</ele>
        <time>2016-04-10T07:14:00.000Z</time>
      </trkpt>
      <trkpt lat="47.53529" lon="6.78358">
        <ele>332</ele>
        <time>2016-04-10T07:14:01.000Z</time>
      </trkpt>
      <trkpt lat="47.5353" lon="6.78349">
        <ele>332</ele>
        <time>2016-04-10T07:14:02.000Z</time>
      </trkpt>
      <trkpt lat="47.53532" lon="6.78342">
        <ele>332</ele>
        <time>2016-04-10T07:14:03.000Z</time>
      </trkpt>
      <trkpt lat="47.53534" lon="6.78336">
        <ele>332</ele>
        <time>2016-04-10T07:14:04.000Z</time>
      </trkpt>
      <trkpt lat="47.53536" lon="6.78329">
        <ele>333</ele>
        <time>2016-04-10T07:14:05.000Z</time>
      </trkpt>
      <trkpt lat="47.53538" lon="6.78323">
        <ele>333</ele>
        <time>2016-04-10T07:14:06.000Z</time>
      </trkpt>
      <trkpt lat="47.53542" lon="6.78317">
        <ele>332</ele>
        <time>2016-04-10T07:14:07.000Z</time>
      </trkpt>
      <trkpt lat="47.53544" lon="6.7831">
        <ele>332</ele>
        <time>2016-04-10T07:14:08.000Z</time>
      </trkpt>
      <trkpt lat="47.53547" lon="6.78302">
        <ele>332</ele>
        <time>2016-04-10T07:14:09.000Z</time>
      </trkpt>
      <trkpt lat="47.5355" lon="6.78298">
        <ele>332</ele>
        <time>2016-04-10T07:14:10.000Z</time>
      </trkpt>
      <trkpt lat="47.53553" lon="6.78293">
        <ele>332</ele>
        <time>2016-04-10T07:14:11.000Z</time>
      </trkpt>
      <trkpt lat="47.53555" lon="6.78287">
        <ele>332</ele>
        <time>2016-04-10T07:14:12.000Z</time>
      </trkpt>
      <trkpt lat="47.53557" lon="6.78281">
        <ele>332</ele>
        <time>2016-04-10T07:14:13.000Z</time>
      </trkpt>
      <trkpt lat="47.5356" lon="6.78276">
        <ele>332</ele>
        <time>2016-04-10T07:14:14.000Z</time>
      </trkpt>
      <trkpt lat="47.53562" lon="6.7827">
        <ele>332</ele>
        <time>2016-04-10T07:14:15.000Z</time>
      </trkpt>
      <trkpt lat="47.53563" lon="6.78265">
        <ele>331</ele>
        <time>2016-04-10T07:14:16.000Z</time>
      </trkpt>
      <trkpt lat="47.53564" lon="6.78258">
        <ele>331</ele>
        <time>2016-04-10T07:14:17.000Z</time>
      </trkpt>
      <trkpt lat="47.53565" lon="6.78252">
        <ele>331</ele>
        <time>2016-04-10T07:14:18.000Z</time>
      </trkpt>
      <trkpt lat="47.53568" lon="6.78245">
        <ele>333</ele>
        <time>2016-04-10T07:14:19.000Z</time>
      </trkpt>
      <trkpt lat="47.53571" lon="6.7824">
        <ele>333</ele>
        <time>2016-04-10T07:14:19.999Z</time>
      </trkpt>
      <trkpt lat="47.53576" lon="6.78236">
        <ele>333</ele>
        <time>2016-04-10T07:14:21.000Z</time>
      </trkpt>
      <trkpt lat="47.53579" lon="6.7823">
        <ele>334</ele>
        <time>2016-04-10T07:14:22.000Z</time>
      </trkpt>
      <trkpt lat="47.53582" lon="6.78225">
        <ele>335</ele>
        <time>2016-04-10T07:14:22.999Z</time>
      </trkpt>
      <trkpt lat="47.53583" lon="6.78218">
        <ele>336</ele>
        <time>2016-04-10T07:14:24.000Z</time>
      </trkpt>
      <trkpt lat="47.53584" lon="6.7821">
        <ele>330</ele>
        <time>2016-04-10T07:14:25.000Z</time>
      </trkpt>
      <trkpt lat="47.53585" lon="6.78202">
        <ele>330</ele>
        <time>2016-04-10T07:14:26.000Z</time>
      </trkpt>
      <trkpt lat="47.53587" lon="6.78196">
        <ele>331</ele>
        <time>2016-04-10T07:14:26.999Z</time>
      </trkpt>
      <trkpt lat="47.5359" lon="6.7819">
        <ele>331</ele>
        <time>2016-04-10T07:14:28.000Z</time>
      </trkpt>
      <trkpt lat="47.53594" lon="6.78183">
        <ele>332</ele>
        <time>2016-04-10T07:14:29.000Z</time>
      </trkpt>
      <trkpt lat="47.53598" lon="6.78179">
        <ele>332</ele>
        <time>2016-04-10T07:14:30.000Z</time>
      </trkpt>
      <trkpt lat="47.53603" lon="6.78174">
        <ele>331</ele>
        <time>2016-04-10T07:14:31.000Z</time>
      </trkpt>
      <trkpt lat="47.53607" lon="6.7817">
        <ele>331</ele>
        <time>2016-04-10T07:14:32.000Z</time>
      </trkpt>
      <trkpt lat="47.53611" lon="6.78166">
        <ele>334</ele>
        <time>2016-04-10T07:14:33.000Z</time>
      </trkpt>
      <trkpt lat="47.53614" lon="6.7816">
        <ele>334</ele>
        <time>2016-04-10T07:14:34.000Z</time>
      </trkpt>
      <trkpt lat="47.53619" lon="6.78156">
        <ele>334</ele>
        <time>2016-04-10T07:14:35.000Z</time>
      </trkpt>
      <trkpt lat="47.53624" lon="6.78153">
        <ele>333</ele>
        <time>2016-04-10T07:14:36.000Z</time>
      </trkpt>
      <trkpt lat="47.53629" lon="6.78148">
        <ele>333</ele>
        <time>2016-04-10T07:14:37.000Z</time>
      </trkpt>
      <trkpt lat="47.53635" lon="6.78143">
        <ele>333</ele>
        <time>2016-04-10T07:14:38.000Z</time>
      </trkpt>
      <trkpt lat="47.5364" lon="6.78138">
        <ele>333</ele>
        <time>2016-04-10T07:14:39.000Z</time>
      </trkpt>
      <trkpt lat="47.53644" lon="6.78133">
        <ele>333</ele>
        <time>2016-04-10T07:14:40.000Z</time>
      </trkpt>
      <trkpt lat="47.5365" lon="6.7813">
        <ele>333</ele>
        <time>2016-04-10T07:14:41.000Z</time>
      </trkpt>
      <trkpt lat="47.53656" lon="6.78125">
        <ele>333</ele>
        <time>2016-04-10T07:14:42.000Z</time>
      </trkpt>
      <trkpt lat="47.53661" lon="6.78122">
        <ele>333</ele>
        <time>2016-04-10T07:14:43.000Z</time>
      </trkpt>
      <trkpt lat="47.53665" lon="6.78118">
        <ele>333</ele>
        <time>2016-04-10T07:14:44.000Z</time>
      </trkpt>
      <trkpt lat="47.5367" lon="6.78114">
        <ele>329</ele>
        <time>2016-04-10T07:14:45.000Z</time>
      </trkpt>
      <trkpt lat="47.53675" lon="6.7811">
        <ele>329</ele>
        <time>2016-04-10T07:14:46.000Z</time>
      </trkpt>
      <trkpt lat="47.5368" lon="6.78106">
        <ele>329</ele>
        <time>2016-04-10T07:14:47.000Z</time>
      </trkpt>
      <trkpt lat="47.53684" lon="6.78102">
        <ele>329</ele>
        <time>2016-04-10T07:14:48.000Z</time>
      </trkpt>
      <trkpt lat="47.53688" lon="6.78098">
        <ele>329</ele>
        <time>2016-04-10T07:14:49.000Z</time>
      </trkpt>
      <trkpt lat="47.53693" lon="6.78094">
        <ele>329</ele>
        <time>2016-04-10T07:14:50.000Z</time>
      </trkpt>
      <trkpt lat="47.53697" lon="6.78091">
        <ele>329</ele>
        <time>2016-04-10T07:14:51.000Z</time>
      </trkpt>
      <trkpt lat="47.53701" lon="6.78087">
        <ele>329</ele>
        <time>2016-04-10T07:14:52.000Z</time>
      </trkpt>
      <trkpt lat="47.53705" lon="6.78083">
        <ele>333</ele>
        <time>2016-04-10T07:14:53.000Z</time>
      </trkpt>
      <trkpt lat="47.53706" lon="6.78076">
        <ele>334</ele>
        <time>2016-04-10T07:14:54.000Z</time>
      </trkpt>
      <trkpt lat="47.53708" lon="6.78068">
        <ele>334</ele>
        <time>2016-04-10T07:14:55.000Z</time>
      </trkpt>
      <trkpt lat="47.53709" lon="6.7806">
        <ele>334</ele>
        <time>2016-04-10T07:14:56.000Z</time>
      </trkpt>
      <trkpt lat="47.5371" lon="6.78052">
        <ele>335</ele>
        <time>2016-04-10T07:14:57.001Z</time>
      </trkpt>
      <trkpt lat="47.53707" lon="6.78048">
        <ele>335</ele>
        <time>2016-04-10T07:14:58.000Z</time>
      </trkpt>
      <trkpt lat="47.53701" lon="6.78053">
        <ele>335</ele>
        <time>2016-04-10T07:14:59.000Z</time>
      </trkpt>
      <trkpt lat="47.53698" lon="6.78049">
        <ele>335</ele>
        <time>2016-04-10T07:15:00.000Z</time>
      </trkpt>
      <trkpt lat="47.53695" lon="6.78046">
        <ele>335</ele>
        <time>2016-04-10T07:15:01.000Z</time>
      </trkpt>
      <trkpt lat="47.53693" lon="6.78042">
        <ele>336</ele>
        <time>2016-04-10T07:15:03.000Z</time>
      </trkpt>
      <trkpt lat="47.53692" lon="6.7804">
        <ele>336</ele>
        <time>2016-04-10T07:15:04.000Z</time>
      </trkpt>
      <trkpt lat="47.53691" lon="6.78036">
        <ele>336</ele>
        <time>2016-04-10T07:15:05.001Z</time>
      </trkpt>
      <trkpt lat="47.53689" lon="6.78032">
        <ele>336</ele>
        <time>2016-04-10T07:15:06.000Z</time>
      </trkpt>
      <trkpt lat="47.53687" lon="6.78026">
        <ele>337</ele>
        <time>2016-04-10T07:15:08.000Z</time>
      </trkpt>
      <trkpt lat="47.53686" lon="6.78023">
        <ele>337</ele>
        <time>2016-04-10T07:15:09.000Z</time>
      </trkpt>
      <trkpt lat="47.53686" lon="6.7802">
        <ele>337</ele>
        <time>2016-04-10T07:15:10.000Z</time>
      </trkpt>
      <trkpt lat="47.53685" lon="6.78016">
        <ele>338</ele>
        <time>2016-04-10T07:15:11.000Z</time>
      </trkpt>
      <trkpt lat="47.53684" lon="6.78012">
        <ele>338</ele>
        <time>2016-04-10T07:15:12.000Z</time>
      </trkpt>
      <trkpt lat="47.53684" lon="6.78009">
        <ele>338</ele>
        <time>2016-04-10T07:15:13.000Z</time>
      </trkpt>
      <trkpt lat="47.53683" lon="6.78004">
        <ele>338</ele>
        <time>2016-04-10T07:15:14.000Z</time>
      </trkpt>
      <trkpt lat="47.53683" lon="6.78">
        <ele>342</ele>
        <time>2016-04-10T07:15:15.000Z</time>
      </trkpt>
      <trkpt lat="47.53683" lon="6.77995">
        <ele>342</ele>
        <time>2016-04-10T07:15:16.000Z</time>
      </trkpt>
      <trkpt lat="47.53682" lon="6.7799">
        <ele>342</ele>
        <time>2016-04-10T07:15:17.000Z</time>
      </trkpt>
      <trkpt lat="47.53682" lon="6.77985">
        <ele>342</ele>
        <time>2016-04-10T07:15:18.000Z</time>
      </trkpt>
      <trkpt lat="47.53682" lon="6.7798">
        <ele>343</ele>
        <time>2016-04-10T07:15:19.000Z</time>
      </trkpt>
      <trkpt lat="47.53681" lon="6.77975">
        <ele>343</ele>
        <time>2016-04-10T07:15:20.000Z</time>
      </trkpt>
      <trkpt lat="47.53681" lon="6.77971">
        <ele>343</ele>
        <time>2016-04-10T07:15:21.000Z</time>
      </trkpt>
      <trkpt lat="47.53681" lon="6.77966">
        <ele>343</ele>
        <time>2016-04-10T07:15:22.000Z</time>
      </trkpt>
      <trkpt lat="47.53681" lon="6.77962">
        <ele>343</ele>
        <time>2016-04-10T07:15:23.000Z</time>
      </trkpt>
      <trkpt lat="47.53681" lon="6.77957">
        <ele>344</ele>
        <time>2016-04-10T07:15:24.000Z</time>
      </trkpt>
      <trkpt lat="47.53681" lon="6.77952">
        <ele>344</ele>
        <time>2016-04-10T07:15:25.000Z</time>
      </trkpt>
      <trkpt lat="47.53681" lon="6.77948">
        <ele>344</ele>
        <time>2016-04-10T07:15:26.000Z</time>
      </trkpt>
      <trkpt lat="47.5368" lon="6.77944">
        <ele>344</ele>
        <time>2016-04-10T07:15:27.000Z</time>
      </trkpt>
      <trkpt lat="47.53679" lon="6.77939">
        <ele>344</ele>
        <time>2016-04-10T07:15:29.000Z</time>
      </trkpt>
      <trkpt lat="47.53678" lon="6.77936">
        <ele>345</ele>
        <time>2016-04-10T07:15:30.000Z</time>
      </trkpt>
      <trkpt lat="47.53675" lon="6.7793">
        <ele>345</ele>
        <time>2016-04-10T07:15:32.000Z</time>
      </trkpt>
      <trkpt lat="47.53674" lon="6.77928">
        <ele>345</ele>
        <time>2016-04-10T07:15:33.000Z</time>
      </trkpt>
      <trkpt lat="47.53672" lon="6.77922">
        <ele>345</ele>
        <time>2016-04-10T07:15:35.000Z</time>
      </trkpt>
      <trkpt lat="47.53671" lon="6.7792">
        <ele>346</ele>
        <time>2016-04-10T07:15:36.000Z</time>
      </trkpt>
      <trkpt lat="47.53668" lon="6.77915">
        <ele>346</ele>
        <time>2016-04-10T07:15:38.000Z</time>
      </trkpt>
      <trkpt lat="47.53667" lon="6.77913">
        <ele>346</ele>
        <time>2016-04-10T07:15:39.000Z</time>
      </trkpt>
      <trkpt lat="47.53664" lon="6.77909">
        <ele>348</ele>
        <time>2016-04-10T07:15:41.000Z</time>
      </trkpt>
      <trkpt lat="47.53662" lon="6.77907">
        <ele>348</ele>
        <time>2016-04-10T07:15:42.000Z</time>
      </trkpt>
      <trkpt lat="47.5366" lon="6.77904">
        <ele>349</ele>
        <time>2016-04-10T07:15:43.000Z</time>
      </trkpt>
      <trkpt lat="47.53658" lon="6.77901">
        <ele>349</ele>
        <time>2016-04-10T07:15:44.000Z</time>
      </trkpt>
      <trkpt lat="47.53656" lon="6.77898">
        <ele>350</ele>
        <time>2016-04-10T07:15:45.000Z</time>
      </trkpt>
      <trkpt lat="47.53655" lon="6.77894">
        <ele>350</ele>
        <time>2016-04-10T07:15:46.000Z</time>
      </trkpt>
      <trkpt lat="47.53653" lon="6.77891">
        <ele>351</ele>
        <time>2016-04-10T07:15:47.000Z</time>
      </trkpt>
      <trkpt lat="47.53652" lon="6.77887">
        <ele>351</ele>
        <time>2016-04-10T07:15:48.000Z</time>
      </trkpt>
      <trkpt lat="47.53651" lon="6.77883">
        <ele>351</ele>
        <time>2016-04-10T07:15:49.000Z</time>
      </trkpt>
      <trkpt lat="47.5365" lon="6.77878">
        <ele>352</ele>
        <time>2016-04-10T07:15:50.000Z</time>
      </trkpt>
      <trkpt lat="47.53649" lon="6.77873">
        <ele>352</ele>
        <time>2016-04-10T07:15:51.000Z</time>
      </trkpt>
      <trkpt lat="47.53648" lon="6.77868">
        <ele>352</ele>
        <time>2016-04-10T07:15:52.000Z</time>
      </trkpt>
      <trkpt lat="47.53647" lon="6.77864">
        <ele>352</ele>
        <time>2016-04-10T07:15:53.000Z</time>
      </trkpt>
      <trkpt lat="47.53646" lon="6.7786">
        <ele>352</ele>
        <time>2016-04-10T07:15:54.000Z</time>
      </trkpt>
      <trkpt lat="47.53645" lon="6.77856">
        <ele>352</ele>
        <time>2016-04-10T07:15:55.000Z</time>
      </trkpt>
      <trkpt lat="47.53644" lon="6.77852">
        <ele>352</ele>
        <time>2016-04-10T07:15:56.000Z</time>
      </trkpt>
      <trkpt lat="47.53643" lon="6.77848">
        <ele>352</ele>
        <time>2016-04-10T07:15:57.000Z</time>
      </trkpt>
      <trkpt lat="47.53642" lon="6.77844">
        <ele>352</ele>
        <time>2016-04-10T07:15:58.000Z</time>
      </trkpt>
      <trkpt lat="47.5364" lon="6.7784">
        <ele>352</ele>
        <time>2016-04-10T07:15:59.000Z</time>
      </trkpt>
      <trkpt lat="47.53639" lon="6.77837">
        <ele>352</ele>
        <time>2016-04-10T07:16:00.000Z</time>
      </trkpt>
      <trkpt lat="47.53638" lon="6.77833">
        <ele>352</ele>
        <time>2016-04-10T07:16:01.000Z</time>
      </trkpt>
      <trkpt lat="47.53638" lon="6.7783">
        <ele>354</ele>
        <time>2016-04-10T07:16:02.000Z</time>
      </trkpt>
      <trkpt lat="47.53636" lon="6.77827">
        <ele>354</ele>
        <time>2016-04-10T07:16:03.000Z</time>
      </trkpt>
      <trkpt lat="47.53635" lon="6.77824">
        <ele>354</ele>
        <time>2016-04-10T07:16:04.000Z</time>
      </trkpt>
      <trkpt lat="47.53634" lon="6.7782">
        <ele>354</ele>
        <time>2016-04-10T07:16:05.000Z</time>
      </trkpt>
      <trkpt lat="47.53633" lon="6.77817">
        <ele>354</ele>
        <time>2016-04-10T07:16:06.000Z</time>
      </trkpt>
      <trkpt lat="47.53631" lon="6.77814">
        <ele>354</ele>
        <time>2016-04-10T07:16:07.000Z</time>
      </trkpt>
      <trkpt lat="47.53629" lon="6.7781">
        <ele>354</ele>
        <time>2016-04-10T07:16:08.000Z</time>
      </trkpt>
      <trkpt lat="47.53626" lon="6.77806">
        <ele>354</ele>
        <time>2016-04-10T07:16:09.000Z</time>
      </trkpt>
      <trkpt lat="47.53624" lon="6.77802">
        <ele>354</ele>
        <time>2016-04-10T07:16:10.000Z</time>
      </trkpt>
      <trkpt lat="47.53622" lon="6.77798">
        <ele>355</ele>
        <time>2016-04-10T07:16:11.000Z</time>
      </trkpt>
      <trkpt lat="47.5362" lon="6.77795">
        <ele>355</ele>
        <time>2016-04-10T07:16:12.000Z</time>
      </trkpt>
      <trkpt lat="47.53617" lon="6.77792">
        <ele>355</ele>
        <time>2016-04-10T07:16:13.000Z</time>
      </trkpt>
      <trkpt lat="47.53615" lon="6.77789">
        <ele>355</ele>
        <time>2016-04-10T07:16:14.000Z</time>
      </trkpt>
      <trkpt lat="47.53612" lon="6.77786">
        <ele>355</ele>
        <time>2016-04-10T07:16:15.000Z</time>
      </trkpt>
      <trkpt lat="47.53609" lon="6.77783">
        <ele>355</ele>
        <time>2016-04-10T07:16:16.000Z</time>
      </trkpt>
      <trkpt lat="47.53607" lon="6.7778">
        <ele>355</ele>
        <time>2016-04-10T07:16:17.000Z</time>
      </trkpt>
      <trkpt lat="47.53604" lon="6.77777">
        <ele>355</ele>
        <time>2016-04-10T07:16:18.000Z</time>
      </trkpt>
      <trkpt lat="47.53602" lon="6.77773">
        <ele>355</ele>
        <time>2016-04-10T07:16:19.000Z</time>
      </trkpt>
      <trkpt lat="47.53599" lon="6.7777">
        <ele>355</ele>
        <time>2016-04-10T07:16:20.000Z</time>
      </trkpt>
      <trkpt lat="47.53597" lon="6.77766">
        <ele>355</ele>
        <time>2016-04-10T07:16:21.000Z</time>
      </trkpt>
      <trkpt lat="47.53594" lon="6.77763">
        <ele>355</ele>
        <time>2016-04-10T07:16:22.000Z</time>
      </trkpt>
      <trkpt lat="47.53593" lon="6.77759">
        <ele>355</ele>
        <time>2016-04-10T07:16:23.000Z</time>
      </trkpt>
      <trkpt lat="47.53591" lon="6.77756">
        <ele>356</ele>
        <time>2016-04-10T07:16:24.000Z</time>
      </trkpt>
      <trkpt lat="47.5359" lon="6.77752">
        <ele>356</ele>
        <time>2016-04-10T07:16:25.000Z</time>
      </trkpt>
      <trkpt lat="47.53588" lon="6.77749">
        <ele>356</ele>
        <time>2016-04-10T07:16:26.000Z</time>
      </trkpt>
      <trkpt lat="47.53586" lon="6.77746">
        <ele>356</ele>
        <time>2016-04-10T07:16:27.000Z</time>
      </trkpt>
      <trkpt lat="47.53584" lon="6.77743">
        <ele>356</ele>
        <time>2016-04-10T07:16:28.000Z</time>
      </trkpt>
      <trkpt lat="47.53582" lon="6.7774">
        <ele>357</ele>
        <time>2016-04-10T07:16:29.000Z</time>
      </trkpt>
      <trkpt lat="47.53581" lon="6.77737">
        <ele>358</ele>
        <time>2016-04-10T07:16:30.000Z</time>
      </trkpt>
      <trkpt lat="47.5358" lon="6.77734">
        <ele>358</ele>
        <time>2016-04-10T07:16:31.000Z</time>
      </trkpt>
      <trkpt lat="47.53578" lon="6.77731">
        <ele>358</ele>
        <time>2016-04-10T07:16:32.000Z</time>
      </trkpt>
      <trkpt lat="47.53577" lon="6.77727">
        <ele>358</ele>
        <time>2016-04-10T07:16:33.000Z</time>
      </trkpt>
      <trkpt lat="47.53575" lon="6.77724">
        <ele>359</ele>
        <time>2016-04-10T07:16:34.000Z</time>
      </trkpt>
      <trkpt lat="47.53574" lon="6.7772">
        <ele>359</ele>
        <time>2016-04-10T07:16:35.000Z</time>
      </trkpt>
      <trkpt lat="47.53572" lon="6.77717">
        <ele>359</ele>
        <time>2016-04-10T07:16:36.000Z</time>
      </trkpt>
      <trkpt lat="47.53571" lon="6.77713">
        <ele>359</ele>
        <time>2016-04-10T07:16:37.000Z</time>
      </trkpt>
      <trkpt lat="47.53569" lon="6.7771">
        <ele>359</ele>
        <time>2016-04-10T07:16:38.000Z</time>
      </trkpt>
      <trkpt lat="47.53567" lon="6.77706">
        <ele>359</ele>
        <time>2016-04-10T07:16:39.000Z</time>
      </trkpt>
      <trkpt lat="47.53564" lon="6.77702">
        <ele>359</ele>
        <time>2016-04-10T07:16:40.000Z</time>
      </trkpt>
      <trkpt lat="47.53562" lon="6.77698">
        <ele>359</ele>
        <time>2016-04-10T07:16:41.000Z</time>
      </trkpt>
      <trkpt lat="47.5356" lon="6.77693">
        <ele>359</ele>
        <time>2016-04-10T07:16:42.000Z</time>
      </trkpt>
      <trkpt lat="47.53557" lon="6.77688">
        <ele>360</ele>
        <time>2016-04-10T07:16:43.000Z</time>
      </trkpt>
      <trkpt lat="47.53555" lon="6.77684">
        <ele>360</ele>
        <time>2016-04-10T07:16:44.000Z</time>
      </trkpt>
      <trkpt lat="47.53552" lon="6.77679">
        <ele>360</ele>
        <time>2016-04-10T07:16:45.000Z</time>
      </trkpt>
      <trkpt lat="47.5355" lon="6.77674">
        <ele>360</ele>
        <time>2016-04-10T07:16:46.000Z</time>
      </trkpt>
      <trkpt lat="47.53547" lon="6.7767">
        <ele>360</ele>
        <time>2016-04-10T07:16:47.000Z</time>
      </trkpt>
      <trkpt lat="47.53544" lon="6.77666">
        <ele>362</ele>
        <time>2016-04-10T07:16:48.000Z</time>
      </trkpt>
      <trkpt lat="47.53542" lon="6.77662">
        <ele>362</ele>
        <time>2016-04-10T07:16:49.000Z</time>
      </trkpt>
      <trkpt lat="47.53539" lon="6.77658">
        <ele>362</ele>
        <time>2016-04-10T07:16:50.000Z</time>
      </trkpt>
      <trkpt lat="47.53537" lon="6.77655">
        <ele>362</ele>
        <time>2016-04-10T07:16:51.000Z</time>
      </trkpt>
      <trkpt lat="47.53535" lon="6.77652">
        <ele>363</ele>
        <time>2016-04-10T07:16:52.000Z</time>
      </trkpt>
      <trkpt lat="47.53532" lon="6.77648">
        <ele>363</ele>
        <time>2016-04-10T07:16:53.000Z</time>
      </trkpt>
      <trkpt lat="47.5353" lon="6.77644">
        <ele>363</ele>
        <time>2016-04-10T07:16:54.000Z</time>
      </trkpt>
      <trkpt lat="47.53527" lon="6.7764">
        <ele>363</ele>
        <time>2016-04-10T07:16:55.000Z</time>
      </trkpt>
      <trkpt lat="47.53525" lon="6.77636">
        <ele>363</ele>
        <time>2016-04-10T07:16:56.000Z</time>
      </trkpt>
      <trkpt lat="47.53523" lon="6.77632">
        <ele>363</ele>
        <time>2016-04-10T07:16:57.000Z</time>
      </trkpt>
      <trkpt lat="47.53521" lon="6.77629">
        <ele>363</ele>
        <time>2016-04-10T07:16:58.000Z</time>
      </trkpt>
      <trkpt lat="47.53519" lon="6.77625">
        <ele>363</ele>
        <time>2016-04-10T07:16:59.000Z</time>
      </trkpt>
      <trkpt lat="47.53517" lon="6.77621">
        <ele>364</ele>
        <time>2016-04-10T07:17:00.000Z</time>
      </trkpt>
      <trkpt lat="47.53516" lon="6.77617">
        <ele>364</ele>
        <time>2016-04-10T07:17:01.000Z</time>
      </trkpt>
      <trkpt lat="47.53514" lon="6.77613">
        <ele>364</ele>
        <time>2016-04-10T07:17:02.000Z</time>
      </trkpt>
      <trkpt lat="47.53512" lon="6.77608">
        <ele>364</ele>
        <time>2016-04-10T07:17:03.000Z</time>
      </trkpt>
      <trkpt lat="47.5351" lon="6.77604">
        <ele>364</ele>
        <time>2016-04-10T07:17:04.000Z</time>
      </trkpt>
      <trkpt lat="47.53509" lon="6.776">
        <ele>365</ele>
        <time>2016-04-10T07:17:05.000Z</time>
      </trkpt>
      <trkpt lat="47.53507" lon="6.77595">
        <ele>365</ele>
        <time>2016-04-10T07:17:06.000Z</time>
      </trkpt>
      <trkpt lat="47.53505" lon="6.77591">
        <ele>366</ele>
        <time>2016-04-10T07:17:07.000Z</time>
      </trkpt>
      <trkpt lat="47.53504" lon="6.77587">
        <ele>366</ele>
        <time>2016-04-10T07:17:08.000Z</time>
      </trkpt>
      <trkpt lat="47.53501" lon="6.77583">
        <ele>367</ele>
        <time>2016-04-10T07:17:09.000Z</time>
      </trkpt>
      <trkpt lat="47.53499" lon="6.7758">
        <ele>368</ele>
        <time>2016-04-10T07:17:10.000Z</time>
      </trkpt>
      <trkpt lat="47.53497" lon="6.77577">
        <ele>368</ele>
        <time>2016-04-10T07:17:11.000Z</time>
      </trkpt>
      <trkpt lat="47.53495" lon="6.77573">
        <ele>369</ele>
        <time>2016-04-10T07:17:12.000Z</time>
      </trkpt>
      <trkpt lat="47.53493" lon="6.7757">
        <ele>369</ele>
        <time>2016-04-10T07:17:13.000Z</time>
      </trkpt>
      <trkpt lat="47.53492" lon="6.77566">
        <ele>370</ele>
        <time>2016-04-10T07:17:14.000Z</time>
      </trkpt>
      <trkpt lat="47.53491" lon="6.7756">
        <ele>370</ele>
        <time>2016-04-10T07:17:16.000Z</time>
      </trkpt>
      <trkpt lat="47.53491" lon="6.77557">
        <ele>370</ele>
        <time>2016-04-10T07:17:17.000Z</time>
      </trkpt>
      <trkpt lat="47.53489" lon="6.77551">
        <ele>370</ele>
        <time>2016-04-10T07:17:19.000Z</time>
      </trkpt>
      <trkpt lat="47.53488" lon="6.77548">
        <ele>370</ele>
        <time>2016-04-10T07:17:20.000Z</time>
      </trkpt>
      <trkpt lat="47.53487" lon="6.77545">
        <ele>370</ele>
        <time>2016-04-10T07:17:21.000Z</time>
      </trkpt>
      <trkpt lat="47.53484" lon="6.77542">
        <ele>370</ele>
        <time>2016-04-10T07:17:22.000Z</time>
      </trkpt>
      <trkpt lat="47.53482" lon="6.77539">
        <ele>371</ele>
        <time>2016-04-10T07:17:23.000Z</time>
      </trkpt>
      <trkpt lat="47.53478" lon="6.77535">
        <ele>371</ele>
        <time>2016-04-10T07:17:24.000Z</time>
      </trkpt>
      <trkpt lat="47.53475" lon="6.77531">
        <ele>371</ele>
        <time>2016-04-10T07:17:25.000Z</time>
      </trkpt>
      <trkpt lat="47.53473" lon="6.77527">
        <ele>371</ele>
        <time>2016-04-10T07:17:26.000Z</time>
      </trkpt>
      <trkpt lat="47.53471" lon="6.77523">
        <ele>371</ele>
        <time>2016-04-10T07:17:27.000Z</time>
      </trkpt>
      <trkpt lat="47.53468" lon="6.77519">
        <ele>371</ele>
        <time>2016-04-10T07:17:28.000Z</time>
      </trkpt>
      <trkpt lat="47.53466" lon="6.77515">
        <ele>371</ele>
        <time>2016-04-10T07:17:29.000Z</time>
      </trkpt>
      <trkpt lat="47.53464" lon="6.77512">
        <ele>371</ele>
        <time>2016-04-10T07:17:30.000Z</time>
      </trkpt>
      <trkpt lat="47.53462" lon="6.77508">
        <ele>372</ele>
        <time>2016-04-10T07:17:31.000Z</time>
      </trkpt>
      <trkpt lat="47.53461" lon="6.77505">
        <ele>372</ele>
        <time>2016-04-10T07:17:32.000Z</time>
      </trkpt>
      <trkpt lat="47.53459" lon="6.77502">
        <ele>372</ele>
        <time>2016-04-10T07:17:33.000Z</time>
      </trkpt>
      <trkpt lat="47.53457" lon="6.77497">
        <ele>371</ele>
        <time>2016-04-10T07:17:34.000Z</time>
      </trkpt>
      <trkpt lat="47.53455" lon="6.77493">
        <ele>371</ele>
        <time>2016-04-10T07:17:35.000Z</time>
      </trkpt>
      <trkpt lat="47.53453" lon="6.77488">
        <ele>371</ele>
        <time>2016-04-10T07:17:36.000Z</time>
      </trkpt>
      <trkpt lat="47.53451" lon="6.77484">
        <ele>371</ele>
        <time>2016-04-10T07:17:37.000Z</time>
      </trkpt>
      <trkpt lat="47.5345" lon="6.77481">
        <ele>371</ele>
        <time>2016-04-10T07:17:38.000Z</time>
      </trkpt>
      <trkpt lat="47.53448" lon="6.77477">
        <ele>371</ele>
        <time>2016-04-10T07:17:39.000Z</time>
      </trkpt>
      <trkpt lat="47.53447" lon="6.77474">
        <ele>371</ele>
        <time>2016-04-10T07:17:40.000Z</time>
      </trkpt>
      <trkpt lat="47.53445" lon="6.7747">
        <ele>371</ele>
        <time>2016-04-10T07:17:41.000Z</time>
      </trkpt>
      <trkpt lat="47.53443" lon="6.77465">
        <ele>371</ele>
        <time>2016-04-10T07:17:42.000Z</time>
      </trkpt>
      <trkpt lat="47.53441" lon="6.7746">
        <ele>371</ele>
        <time>2016-04-10T07:17:43.000Z</time>
      </trkpt>
      <trkpt lat="47.53439" lon="6.77456">
        <ele>371</ele>
        <time>2016-04-10T07:17:44.000Z</time>
      </trkpt>
      <trkpt lat="47.53438" lon="6.77452">
        <ele>371</ele>
        <time>2016-04-10T07:17:45.000Z</time>
      </trkpt>
      <trkpt lat="47.53437" lon="6.77448">
        <ele>371</ele>
        <time>2016-04-10T07:17:46.000Z</time>
      </trkpt>
      <trkpt lat="47.53435" lon="6.77444">
        <ele>371</ele>
        <time>2016-04-10T07:17:47.000Z</time>
      </trkpt>
      <trkpt lat="47.53433" lon="6.7744">
        <ele>371</ele>
        <time>2016-04-10T07:17:48.000Z</time>
      </trkpt>
      <trkpt lat="47.5343" lon="6.77436">
        <ele>371</ele>
        <time>2016-04-10T07:17:49.000Z</time>
      </trkpt>
      <trkpt lat="47.53428" lon="6.77433">
        <ele>371</ele>
        <time>2016-04-10T07:17:50.000Z</time>
      </trkpt>
      <trkpt lat="47.53426" lon="6.77429">
        <ele>371</ele>
        <time>2016-04-10T07:17:51.000Z</time>
      </trkpt>
      <trkpt lat="47.53424" lon="6.77426">
        <ele>371</ele>
        <time>2016-04-10T07:17:52.000Z</time>
      </trkpt>
      <trkpt lat="47.53422" lon="6.77421">
        <ele>371</ele>
        <time>2016-04-10T07:17:53.000Z</time>
      </trkpt>
      <trkpt lat="47.53419" lon="6.77417">
        <ele>371</ele>
        <time>2016-04-10T07:17:54.000Z</time>
      </trkpt>
      <trkpt lat="47.53417" lon="6.77412">
        <ele>371</ele>
        <time>2016-04-10T07:17:55.000Z</time>
      </trkpt>
      <trkpt lat="47.53414" lon="6.77407">
        <ele>372</ele>
        <time>2016-04-10T07:17:56.000Z</time>
      </trkpt>
      <trkpt lat="47.53412" lon="6.77402">
        <ele>372</ele>
        <time>2016-04-10T07:17:57.000Z</time>
      </trkpt>
      <trkpt lat="47.53409" lon="6.77398">
        <ele>372</ele>
        <time>2016-04-10T07:17:58.000Z</time>
      </trkpt>
      <trkpt lat="47.53407" lon="6.77393">
        <ele>372</ele>
        <time>2016-04-10T07:17:59.000Z</time>
      </trkpt>
      <trkpt lat="47.53403" lon="6.77384">
        <ele>372</ele>
        <time>2016-04-10T07:18:01.000Z</time>
      </trkpt>
      <trkpt lat="47.534" lon="6.77379">
        <ele>372</ele>
        <time>2016-04-10T07:18:02.000Z</time>
      </trkpt>
      <trkpt lat="47.53398" lon="6.77375">
        <ele>372</ele>
        <time>2016-04-10T07:18:03.000Z</time>
      </trkpt>
      <trkpt lat="47.53397" lon="6.77371">
        <ele>372</ele>
        <time>2016-04-10T07:18:04.000Z</time>
      </trkpt>
      <trkpt lat="47.53395" lon="6.77366">
        <ele>372</ele>
        <time>2016-04-10T07:18:05.000Z</time>
      </trkpt>
      <trkpt lat="47.53394" lon="6.77362">
        <ele>372</ele>
        <time>2016-04-10T07:18:06.000Z</time>
      </trkpt>
      <trkpt lat="47.53392" lon="6.77357">
        <ele>371</ele>
        <time>2016-04-10T07:18:07.000Z</time>
      </trkpt>
      <trkpt lat="47.5339" lon="6.77352">
        <ele>371</ele>
        <time>2016-04-10T07:18:08.000Z</time>
      </trkpt>
      <trkpt lat="47.53388" lon="6.77347">
        <ele>371</ele>
        <time>2016-04-10T07:18:09.000Z</time>
      </trkpt>
      <trkpt lat="47.53385" lon="6.77342">
        <ele>371</ele>
        <time>2016-04-10T07:18:10.000Z</time>
      </trkpt>
      <trkpt lat="47.53384" lon="6.77337">
        <ele>371</ele>
        <time>2016-04-10T07:18:11.000Z</time>
      </trkpt>
      <trkpt lat="47.53382" lon="6.77332">
        <ele>367</ele>
        <time>2016-04-10T07:18:12.000Z</time>
      </trkpt>
      <trkpt lat="47.5338" lon="6.77326">
        <ele>367</ele>
        <time>2016-04-10T07:18:13.000Z</time>
      </trkpt>
      <trkpt lat="47.53378" lon="6.77321">
        <ele>367</ele>
        <time>2016-04-10T07:18:14.000Z</time>
      </trkpt>
      <trkpt lat="47.53376" lon="6.77315">
        <ele>367</ele>
        <time>2016-04-10T07:18:15.000Z</time>
      </trkpt>
      <trkpt lat="47.53374" lon="6.7731">
        <ele>367</ele>
        <time>2016-04-10T07:18:16.000Z</time>
      </trkpt>
      <trkpt lat="47.53373" lon="6.77305">
        <ele>367</ele>
        <time>2016-04-10T07:18:17.000Z</time>
      </trkpt>
      <trkpt lat="47.53371" lon="6.77299">
        <ele>367</ele>
        <time>2016-04-10T07:18:18.000Z</time>
      </trkpt>
      <trkpt lat="47.53371" lon="6.77292">
        <ele>367</ele>
        <time>2016-04-10T07:18:19.000Z</time>
      </trkpt>
      <trkpt lat="47.53372" lon="6.77283">
        <ele>367</ele>
        <time>2016-04-10T07:18:20.000Z</time>
      </trkpt>
      <trkpt lat="47.53375" lon="6.77276">
        <ele>366</ele>
        <time>2016-04-10T07:18:21.000Z</time>
      </trkpt>
      <trkpt lat="47.53379" lon="6.77269">
        <ele>366</ele>
        <time>2016-04-10T07:18:22.000Z</time>
      </trkpt>
      <trkpt lat="47.53383" lon="6.77264">
        <ele>366</ele>
        <time>2016-04-10T07:18:23.000Z</time>
      </trkpt>
      <trkpt lat="47.53388" lon="6.7726">
        <ele>366</ele>
        <time>2016-04-10T07:18:24.000Z</time>
      </trkpt>
      <trkpt lat="47.53392" lon="6.77257">
        <ele>366</ele>
        <time>2016-04-10T07:18:25.000Z</time>
      </trkpt>
      <trkpt lat="47.53395" lon="6.77255">
        <ele>366</ele>
        <time>2016-04-10T07:18:26.000Z</time>
      </trkpt>
      <trkpt lat="47.53398" lon="6.77253">
        <ele>366</ele>
        <time>2016-04-10T07:18:27.000Z</time>
      </trkpt>
      <trkpt lat="47.53401" lon="6.77251">
        <ele>366</ele>
        <time>2016-04-10T07:18:28.000Z</time>
      </trkpt>
      <trkpt lat="47.53404" lon="6.7725">
        <ele>365</ele>
        <time>2016-04-10T07:18:29.000Z</time>
      </trkpt>
      <trkpt lat="47.53406" lon="6.77248">
        <ele>365</ele>
        <time>2016-04-10T07:18:30.000Z</time>
      </trkpt>
      <trkpt lat="47.53409" lon="6.77247">
        <ele>365</ele>
        <time>2016-04-10T07:18:31.000Z</time>
      </trkpt>
      <trkpt lat="47.53411" lon="6.77246">
        <ele>365</ele>
        <time>2016-04-10T07:18:32.000Z</time>
      </trkpt>
      <trkpt lat="47.53415" lon="6.77245">
        <ele>365</ele>
        <time>2016-04-10T07:18:34.000Z</time>
      </trkpt>
      <trkpt lat="47.53417" lon="6.77244">
        <ele>366</ele>
        <time>2016-04-10T07:18:35.000Z</time>
      </trkpt>
      <trkpt lat="47.53421" lon="6.77243">
        <ele>366</ele>
        <time>2016-04-10T07:18:37.000Z</time>
      </trkpt>
      <trkpt lat="47.53422" lon="6.77242">
        <ele>366</ele>
        <time>2016-04-10T07:18:38.000Z</time>
      </trkpt>
      <trkpt lat="47.53426" lon="6.77241">
        <ele>366</ele>
        <time>2016-04-10T07:18:40.000Z</time>
      </trkpt>
      <trkpt lat="47.53427" lon="6.7724">
        <ele>367</ele>
        <time>2016-04-10T07:18:41.000Z</time>
      </trkpt>
      <trkpt lat="47.53432" lon="6.7724">
        <ele>367</ele>
        <time>2016-04-10T07:18:44.000Z</time>
      </trkpt>
      <trkpt lat="47.53433" lon="6.7724">
        <ele>367</ele>
        <time>2016-04-10T07:18:45.000Z</time>
      </trkpt>
      <trkpt lat="47.53437" lon="6.77239">
        <ele>367</ele>
        <time>2016-04-10T07:18:48.000Z</time>
      </trkpt>
      <trkpt lat="47.53439" lon="6.77239">
        <ele>367</ele>
        <time>2016-04-10T07:18:49.000Z</time>
      </trkpt>
      <trkpt lat="47.53442" lon="6.77239">
        <ele>368</ele>
        <time>2016-04-10T07:18:52.000Z</time>
      </trkpt>
      <trkpt lat="47.53444" lon="6.77239">
        <ele>368</ele>
        <time>2016-04-10T07:18:53.000Z</time>
      </trkpt>
      <trkpt lat="47.53447" lon="6.77239">
        <ele>368</ele>
        <time>2016-04-10T07:18:56.000Z</time>
      </trkpt>
      <trkpt lat="47.53448" lon="6.7724">
        <ele>368</ele>
        <time>2016-04-10T07:18:57.000Z</time>
      </trkpt>
      <trkpt lat="47.53452" lon="6.77241">
        <ele>368</ele>
        <time>2016-04-10T07:19:00.000Z</time>
      </trkpt>
      <trkpt lat="47.53453" lon="6.77241">
        <ele>368</ele>
        <time>2016-04-10T07:19:01.000Z</time>
      </trkpt>
      <trkpt lat="47.53457" lon="6.77241">
        <ele>368</ele>
        <time>2016-04-10T07:19:04.000Z</time>
      </trkpt>
      <trkpt lat="47.53458" lon="6.77242">
        <ele>368</ele>
        <time>2016-04-10T07:19:05.000Z</time>
      </trkpt>
      <trkpt lat="47.53462" lon="6.77244">
        <ele>369</ele>
        <time>2016-04-10T07:19:08.000Z</time>
      </trkpt>
      <trkpt lat="47.53464" lon="6.77245">
        <ele>369</ele>
        <time>2016-04-10T07:19:09.000Z</time>
      </trkpt>
      <trkpt lat="47.53467" lon="6.77246">
        <ele>369</ele>
        <time>2016-04-10T07:19:12.000Z</time>
      </trkpt>
      <trkpt lat="47.53468" lon="6.77247">
        <ele>369</ele>
        <time>2016-04-10T07:19:13.000Z</time>
      </trkpt>
      <trkpt lat="47.53472" lon="6.77248">
        <ele>369</ele>
        <time>2016-04-10T07:19:16.000Z</time>
      </trkpt>
      <trkpt lat="47.53473" lon="6.77249">
        <ele>369</ele>
        <time>2016-04-10T07:19:17.000Z</time>
      </trkpt>
      <trkpt lat="47.53476" lon="6.7725">
        <ele>370</ele>
        <time>2016-04-10T07:19:19.000Z</time>
      </trkpt>
      <trkpt lat="47.53478" lon="6.7725">
        <ele>370</ele>
        <time>2016-04-10T07:19:20.000Z</time>
      </trkpt>
      <trkpt lat="47.53482" lon="6.77251">
        <ele>370</ele>
        <time>2016-04-10T07:19:23.000Z</time>
      </trkpt>
      <trkpt lat="47.53482" lon="6.7725">
        <ele>370</ele>
        <time>2016-04-10T07:19:24.000Z</time>
      </trkpt>
      <trkpt lat="47.53486" lon="6.77251">
        <ele>370</ele>
        <time>2016-04-10T07:19:27.000Z</time>
      </trkpt>
      <trkpt lat="47.53487" lon="6.77251">
        <ele>370</ele>
        <time>2016-04-10T07:19:28.000Z</time>
      </trkpt>
      <trkpt lat="47.53491" lon="6.77251">
        <ele>371</ele>
        <time>2016-04-10T07:19:32.000Z</time>
      </trkpt>
      <trkpt lat="47.53493" lon="6.77251">
        <ele>371</ele>
        <time>2016-04-10T07:19:33.000Z</time>
      </trkpt>
      <trkpt lat="47.53496" lon="6.7725">
        <ele>371</ele>
        <time>2016-04-10T07:19:37.000Z</time>
      </trkpt>
      <trkpt lat="47.53497" lon="6.7725">
        <ele>372</ele>
        <time>2016-04-10T07:19:38.000Z</time>
      </trkpt>
      <trkpt lat="47.53501" lon="6.77251">
        <ele>372</ele>
        <time>2016-04-10T07:19:41.000Z</time>
      </trkpt>
      <trkpt lat="47.53502" lon="6.77251">
        <ele>372</ele>
        <time>2016-04-10T07:19:42.000Z</time>
      </trkpt>
      <trkpt lat="47.53505" lon="6.77252">
        <ele>373</ele>
        <time>2016-04-10T07:19:46.000Z</time>
      </trkpt>
      <trkpt lat="47.53506" lon="6.77252">
        <ele>373</ele>
        <time>2016-04-10T07:19:47.000Z</time>
      </trkpt>
      <trkpt lat="47.5351" lon="6.77253">
        <ele>374</ele>
        <time>2016-04-10T07:19:50.000Z</time>
      </trkpt>
      <trkpt lat="47.53511" lon="6.77253">
        <ele>374</ele>
        <time>2016-04-10T07:19:51.000Z</time>
      </trkpt>
      <trkpt lat="47.53514" lon="6.77253">
        <ele>374</ele>
        <time>2016-04-10T07:19:53.000Z</time>
      </trkpt>
      <trkpt lat="47.53517" lon="6.77254">
        <ele>375</ele>
        <time>2016-04-10T07:19:54.000Z</time>
      </trkpt>
      <trkpt lat="47.53521" lon="6.77255">
        <ele>375</ele>
        <time>2016-04-10T07:19:56.000Z</time>
      </trkpt>
      <trkpt lat="47.53523" lon="6.77255">
        <ele>375</ele>
        <time>2016-04-10T07:19:57.000Z</time>
      </trkpt>
      <trkpt lat="47.53527" lon="6.77255">
        <ele>376</ele>
        <time>2016-04-10T07:20:00.000Z</time>
      </trkpt>
      <trkpt lat="47.53529" lon="6.77255">
        <ele>376</ele>
        <time>2016-04-10T07:20:01.000Z</time>
      </trkpt>
      <trkpt lat="47.53532" lon="6.77256">
        <ele>377</ele>
        <time>2016-04-10T07:20:03.000Z</time>
      </trkpt>
      <trkpt lat="47.53534" lon="6.77255">
        <ele>377</ele>
        <time>2016-04-10T07:20:04.000Z</time>
      </trkpt>
      <trkpt lat="47.53536" lon="6.77255">
        <ele>377</ele>
        <time>2016-04-10T07:20:06.000Z</time>
      </trkpt>
      <trkpt lat="47.53538" lon="6.77256">
        <ele>377</ele>
        <time>2016-04-10T07:20:07.000Z</time>
      </trkpt>
      <trkpt lat="47.53541" lon="6.77256">
        <ele>378</ele>
        <time>2016-04-10T07:20:09.000Z</time>
      </trkpt>
      <trkpt lat="47.53543" lon="6.77256">
        <ele>378</ele>
        <time>2016-04-10T07:20:10.000Z</time>
      </trkpt>
      <trkpt lat="47.53546" lon="6.77257">
        <ele>378</ele>
        <time>2016-04-10T07:20:12.000Z</time>
      </trkpt>
      <trkpt lat="47.53548" lon="6.77257">
        <ele>378</ele>
        <time>2016-04-10T07:20:13.000Z</time>
      </trkpt>
      <trkpt lat="47.53551" lon="6.77258">
        <ele>379</ele>
        <time>2016-04-10T07:20:15.000Z</time>
      </trkpt>
      <trkpt lat="47.53552" lon="6.7726">
        <ele>379</ele>
        <time>2016-04-10T07:20:16.000Z</time>
      </trkpt>
      <trkpt lat="47.53555" lon="6.77262">
        <ele>379</ele>
        <time>2016-04-10T07:20:18.000Z</time>
      </trkpt>
      <trkpt lat="47.53557" lon="6.77263">
        <ele>379</ele>
        <time>2016-04-10T07:20:19.000Z</time>
      </trkpt>
      <trkpt lat="47.5356" lon="6.77264">
        <ele>380</ele>
        <time>2016-04-10T07:20:21.000Z</time>
      </trkpt>
      <trkpt lat="47.53562" lon="6.77264">
        <ele>380</ele>
        <time>2016-04-10T07:20:22.000Z</time>
      </trkpt>
      <trkpt lat="47.53566" lon="6.77264">
        <ele>381</ele>
        <time>2016-04-10T07:20:24.000Z</time>
      </trkpt>
      <trkpt lat="47.53568" lon="6.77265">
        <ele>381</ele>
        <time>2016-04-10T07:20:25.000Z</time>
      </trkpt>
      <trkpt lat="47.53571" lon="6.77265">
        <ele>381</ele>
        <time>2016-04-10T07:20:27.000Z</time>
      </trkpt>
      <trkpt lat="47.53573" lon="6.77265">
        <ele>381</ele>
        <time>2016-04-10T07:20:28.000Z</time>
      </trkpt>
      <trkpt lat="47.53576" lon="6.77264">
        <ele>382</ele>
        <time>2016-04-10T07:20:30.000Z</time>
      </trkpt>
      <trkpt lat="47.53577" lon="6.77263">
        <ele>382</ele>
        <time>2016-04-10T07:20:31.000Z</time>
      </trkpt>
      <trkpt lat="47.53581" lon="6.77263">
        <ele>382</ele>
        <time>2016-04-10T07:20:33.000Z</time>
      </trkpt>
      <trkpt lat="47.53583" lon="6.77263">
        <ele>382</ele>
        <time>2016-04-10T07:20:34.000Z</time>
      </trkpt>
      <trkpt lat="47.53587" lon="6.77263">
        <ele>387</ele>
        <time>2016-04-10T07:20:37.000Z</time>
      </trkpt>
      <trkpt lat="47.53588" lon="6.77264">
        <ele>387</ele>
        <time>2016-04-10T07:20:38.000Z</time>
      </trkpt>
      <trkpt lat="47.53592" lon="6.77264">
        <ele>387</ele>
        <time>2016-04-10T07:20:40.000Z</time>
      </trkpt>
      <trkpt lat="47.53594" lon="6.77264">
        <ele>387</ele>
        <time>2016-04-10T07:20:41.000Z</time>
      </trkpt>
      <trkpt lat="47.53597" lon="6.77264">
        <ele>387</ele>
        <time>2016-04-10T07:20:43.000Z</time>
      </trkpt>
      <trkpt lat="47.53599" lon="6.77264">
        <ele>387</ele>
        <time>2016-04-10T07:20:44.000Z</time>
      </trkpt>
      <trkpt lat="47.53602" lon="6.77265">
        <ele>388</ele>
        <time>2016-04-10T07:20:46.000Z</time>
      </trkpt>
      <trkpt lat="47.53604" lon="6.77265">
        <ele>388</ele>
        <time>2016-04-10T07:20:47.000Z</time>
      </trkpt>
      <trkpt lat="47.53608" lon="6.77267">
        <ele>388</ele>
        <time>2016-04-10T07:20:49.000Z</time>
      </trkpt>
      <trkpt lat="47.5361" lon="6.77267">
        <ele>388</ele>
        <time>2016-04-10T07:20:50.000Z</time>
      </trkpt>
      <trkpt lat="47.53614" lon="6.77269">
        <ele>388</ele>
        <time>2016-04-10T07:20:52.000Z</time>
      </trkpt>
      <trkpt lat="47.53616" lon="6.7727">
        <ele>389</ele>
        <time>2016-04-10T07:20:53.000Z</time>
      </trkpt>
      <trkpt lat="47.5362" lon="6.77272">
        <ele>389</ele>
        <time>2016-04-10T07:20:55.000Z</time>
      </trkpt>
      <trkpt lat="47.53622" lon="6.77273">
        <ele>389</ele>
        <time>2016-04-10T07:20:56.000Z</time>
      </trkpt>
      <trkpt lat="47.53626" lon="6.77276">
        <ele>389</ele>
        <time>2016-04-10T07:20:58.000Z</time>
      </trkpt>
      <trkpt lat="47.53628" lon="6.77277">
        <ele>389</ele>
        <time>2016-04-10T07:20:59.000Z</time>
      </trkpt>
      <trkpt lat="47.53632" lon="6.7728">
        <ele>389</ele>
        <time>2016-04-10T07:21:01.000Z</time>
      </trkpt>
      <trkpt lat="47.53634" lon="6.77282">
        <ele>389</ele>
        <time>2016-04-10T07:21:02.000Z</time>
      </trkpt>
      <trkpt lat="47.53636" lon="6.77284">
        <ele>389</ele>
        <time>2016-04-10T07:21:03.000Z</time>
      </trkpt>
      <trkpt lat="47.53638" lon="6.77286">
        <ele>389</ele>
        <time>2016-04-10T07:21:04.000Z</time>
      </trkpt>
      <trkpt lat="47.53641" lon="6.77289">
        <ele>390</ele>
        <time>2016-04-10T07:21:06.000Z</time>
      </trkpt>
      <trkpt lat="47.53643" lon="6.7729">
        <ele>390</ele>
        <time>2016-04-10T07:21:07.000Z</time>
      </trkpt>
      <trkpt lat="47.53646" lon="6.77292">
        <ele>390</ele>
        <time>2016-04-10T07:21:09.000Z</time>
      </trkpt>
      <trkpt lat="47.53648" lon="6.77293">
        <ele>390</ele>
        <time>2016-04-10T07:21:10.000Z</time>
      </trkpt>
      <trkpt lat="47.53651" lon="6.77295">
        <ele>390</ele>
        <time>2016-04-10T07:21:12.000Z</time>
      </trkpt>
      <trkpt lat="47.53653" lon="6.77296">
        <ele>390</ele>
        <time>2016-04-10T07:21:13.000Z</time>
      </trkpt>
      <trkpt lat="47.53656" lon="6.77298">
        <ele>390</ele>
        <time>2016-04-10T07:21:15.000Z</time>
      </trkpt>
      <trkpt lat="47.53657" lon="6.77299">
        <ele>390</ele>
        <time>2016-04-10T07:21:16.000Z</time>
      </trkpt>
      <trkpt lat="47.5366" lon="6.77301">
        <ele>390</ele>
        <time>2016-04-10T07:21:18.000Z</time>
      </trkpt>
      <trkpt lat="47.53662" lon="6.77302">
        <ele>390</ele>
        <time>2016-04-10T07:21:19.000Z</time>
      </trkpt>
      <trkpt lat="47.53666" lon="6.77303">
        <ele>390</ele>
        <time>2016-04-10T07:21:22.000Z</time>
      </trkpt>
      <trkpt lat="47.53667" lon="6.77304">
        <ele>394</ele>
        <time>2016-04-10T07:21:23.000Z</time>
      </trkpt>
      <trkpt lat="47.5367" lon="6.77305">
        <ele>394</ele>
        <time>2016-04-10T07:21:25.000Z</time>
      </trkpt>
      <trkpt lat="47.53671" lon="6.77306">
        <ele>394</ele>
        <time>2016-04-10T07:21:26.000Z</time>
      </trkpt>
      <trkpt lat="47.53676" lon="6.77308">
        <ele>394</ele>
        <time>2016-04-10T07:21:28.000Z</time>
      </trkpt>
      <trkpt lat="47.53678" lon="6.77309">
        <ele>394</ele>
        <time>2016-04-10T07:21:29.000Z</time>
      </trkpt>
      <trkpt lat="47.53681" lon="6.7731">
        <ele>394</ele>
        <time>2016-04-10T07:21:31.000Z</time>
      </trkpt>
      <trkpt lat="47.53683" lon="6.7731">
        <ele>394</ele>
        <time>2016-04-10T07:21:32.000Z</time>
      </trkpt>
      <trkpt lat="47.53687" lon="6.7731">
        <ele>394</ele>
        <time>2016-04-10T07:21:36.000Z</time>
      </trkpt>
      <trkpt lat="47.53688" lon="6.7731">
        <ele>394</ele>
        <time>2016-04-10T07:21:37.000Z</time>
      </trkpt>
      <trkpt lat="47.53691" lon="6.7731">
        <ele>395</ele>
        <time>2016-04-10T07:21:39.000Z</time>
      </trkpt>
      <trkpt lat="47.53693" lon="6.7731">
        <ele>395</ele>
        <time>2016-04-10T07:21:40.000Z</time>
      </trkpt>
      <trkpt lat="47.53695" lon="6.7731">
        <ele>395</ele>
        <time>2016-04-10T07:21:41.000Z</time>
      </trkpt>
      <trkpt lat="47.53697" lon="6.77311">
        <ele>395</ele>
        <time>2016-04-10T07:21:42.000Z</time>
      </trkpt>
      <trkpt lat="47.53699" lon="6.77311">
        <ele>395</ele>
        <time>2016-04-10T07:21:43.000Z</time>
      </trkpt>
      <trkpt lat="47.53702" lon="6.77311">
        <ele>395</ele>
        <time>2016-04-10T07:21:44.000Z</time>
      </trkpt>
      <trkpt lat="47.53706" lon="6.7731">
        <ele>395</ele>
        <time>2016-04-10T07:21:46.000Z</time>
      </trkpt>
      <trkpt lat="47.53707" lon="6.7731">
        <ele>395</ele>
        <time>2016-04-10T07:21:47.000Z</time>
      </trkpt>
      <trkpt lat="47.53711" lon="6.77307">
        <ele>396</ele>
        <time>2016-04-10T07:21:50.000Z</time>
      </trkpt>
      <trkpt lat="47.53713" lon="6.77307">
        <ele>396</ele>
        <time>2016-04-10T07:21:51.000Z</time>
      </trkpt>
      <trkpt lat="47.53716" lon="6.77305">
        <ele>396</ele>
        <time>2016-04-10T07:21:53.000Z</time>
      </trkpt>
      <trkpt lat="47.53717" lon="6.77304">
        <ele>396</ele>
        <time>2016-04-10T07:21:54.000Z</time>
      </trkpt>
      <trkpt lat="47.53721" lon="6.77301">
        <ele>396</ele>
        <time>2016-04-10T07:21:56.000Z</time>
      </trkpt>
      <trkpt lat="47.53722" lon="6.773">
        <ele>396</ele>
        <time>2016-04-10T07:21:57.000Z</time>
      </trkpt>
      <trkpt lat="47.53725" lon="6.77297">
        <ele>396</ele>
        <time>2016-04-10T07:21:59.000Z</time>
      </trkpt>
      <trkpt lat="47.53726" lon="6.77296">
        <ele>396</ele>
        <time>2016-04-10T07:22:00.000Z</time>
      </trkpt>
      <trkpt lat="47.53729" lon="6.77295">
        <ele>396</ele>
        <time>2016-04-10T07:22:02.000Z</time>
      </trkpt>
      <trkpt lat="47.53731" lon="6.77294">
        <ele>397</ele>
        <time>2016-04-10T07:22:03.000Z</time>
      </trkpt>
      <trkpt lat="47.53734" lon="6.77293">
        <ele>397</ele>
        <time>2016-04-10T07:22:05.000Z</time>
      </trkpt>
      <trkpt lat="47.53735" lon="6.77292">
        <ele>397</ele>
        <time>2016-04-10T07:22:06.000Z</time>
      </trkpt>
      <trkpt lat="47.53738" lon="6.77288">
        <ele>397</ele>
        <time>2016-04-10T07:22:08.000Z</time>
      </trkpt>
      <trkpt lat="47.53738" lon="6.77286">
        <ele>397</ele>
        <time>2016-04-10T07:22:09.000Z</time>
      </trkpt>
      <trkpt lat="47.5374" lon="6.77282">
        <ele>397</ele>
        <time>2016-04-10T07:22:12.000Z</time>
      </trkpt>
      <trkpt lat="47.53741" lon="6.7728">
        <ele>397</ele>
        <time>2016-04-10T07:22:13.000Z</time>
      </trkpt>
      <trkpt lat="47.53743" lon="6.77276">
        <ele>398</ele>
        <time>2016-04-10T07:22:16.000Z</time>
      </trkpt>
      <trkpt lat="47.53744" lon="6.77274">
        <ele>398</ele>
        <time>2016-04-10T07:22:17.000Z</time>
      </trkpt>
      <trkpt lat="47.53744" lon="6.77269">
        <ele>398</ele>
        <time>2016-04-10T07:22:21.000Z</time>
      </trkpt>
      <trkpt lat="47.53744" lon="6.77266">
        <ele>399</ele>
        <time>2016-04-10T07:22:22.000Z</time>
      </trkpt>
      <trkpt lat="47.53745" lon="6.77261">
        <ele>399</ele>
        <time>2016-04-10T07:22:24.000Z</time>
      </trkpt>
      <trkpt lat="47.53746" lon="6.77258">
        <ele>400</ele>
        <time>2016-04-10T07:22:25.000Z</time>
      </trkpt>
      <trkpt lat="47.53747" lon="6.77255">
        <ele>400</ele>
        <time>2016-04-10T07:22:26.000Z</time>
      </trkpt>
      <trkpt lat="47.53748" lon="6.77252">
        <ele>400</ele>
        <time>2016-04-10T07:22:27.000Z</time>
      </trkpt>
      <trkpt lat="47.53749" lon="6.77247">
        <ele>401</ele>
        <time>2016-04-10T07:22:29.000Z</time>
      </trkpt>
      <trkpt lat="47.53749" lon="6.77245">
        <ele>401</ele>
        <time>2016-04-10T07:22:30.000Z</time>
      </trkpt>
      <trkpt lat="47.5375" lon="6.77239">
        <ele>404</ele>
        <time>2016-04-10T07:22:33.000Z</time>
      </trkpt>
      <trkpt lat="47.53751" lon="6.77237">
        <ele>404</ele>
        <time>2016-04-10T07:22:34.000Z</time>
      </trkpt>
      <trkpt lat="47.53751" lon="6.77233">
        <ele>405</ele>
        <time>2016-04-10T07:22:36.000Z</time>
      </trkpt>
      <trkpt lat="47.53751" lon="6.7723">
        <ele>406</ele>
        <time>2016-04-10T07:22:37.000Z</time>
      </trkpt>
      <trkpt lat="47.53752" lon="6.77225">
        <ele>406</ele>
        <time>2016-04-10T07:22:39.000Z</time>
      </trkpt>
      <trkpt lat="47.53753" lon="6.77222">
        <ele>407</ele>
        <time>2016-04-10T07:22:40.000Z</time>
      </trkpt>
      <trkpt lat="47.53753" lon="6.77217">
        <ele>407</ele>
        <time>2016-04-10T07:22:42.000Z</time>
      </trkpt>
      <trkpt lat="47.53754" lon="6.77215">
        <ele>407</ele>
        <time>2016-04-10T07:22:43.000Z</time>
      </trkpt>
      <trkpt lat="47.53753" lon="6.77209">
        <ele>408</ele>
        <time>2016-04-10T07:22:48.000Z</time>
      </trkpt>
      <trkpt lat="47.53753" lon="6.77207">
        <ele>408</ele>
        <time>2016-04-10T07:22:49.000Z</time>
      </trkpt>
      <trkpt lat="47.53751" lon="6.77202">
        <ele>408</ele>
        <time>2016-04-10T07:22:53.000Z</time>
      </trkpt>
      <trkpt lat="47.53751" lon="6.772">
        <ele>408</ele>
        <time>2016-04-10T07:22:54.000Z</time>
      </trkpt>
      <trkpt lat="47.5375" lon="6.77194">
        <ele>409</ele>
        <time>2016-04-10T07:22:58.000Z</time>
      </trkpt>
      <trkpt lat="47.5375" lon="6.77193">
        <ele>404</ele>
        <time>2016-04-10T07:22:59.000Z</time>
      </trkpt>
      <trkpt lat="47.5375" lon="6.77187">
        <ele>409</ele>
        <time>2016-04-10T07:23:02.000Z</time>
      </trkpt>
      <trkpt lat="47.5375" lon="6.77185">
        <ele>405</ele>
        <time>2016-04-10T07:23:03.000Z</time>
      </trkpt>
      <trkpt lat="47.53749" lon="6.77179">
        <ele>406</ele>
        <time>2016-04-10T07:23:07.000Z</time>
      </trkpt>
      <trkpt lat="47.53749" lon="6.77178">
        <ele>406</ele>
        <time>2016-04-10T07:23:08.000Z</time>
      </trkpt>
      <trkpt lat="47.53749" lon="6.77172">
        <ele>407</ele>
        <time>2016-04-10T07:23:11.000Z</time>
      </trkpt>
      <trkpt lat="47.5375" lon="6.7717">
        <ele>408</ele>
        <time>2016-04-10T07:23:12.000Z</time>
      </trkpt>
      <trkpt lat="47.53748" lon="6.77163">
        <ele>408</ele>
        <time>2016-04-10T07:23:16.000Z</time>
      </trkpt>
      <trkpt lat="47.53747" lon="6.77163">
        <ele>408</ele>
        <time>2016-04-10T07:23:17.000Z</time>
      </trkpt>
      <trkpt lat="47.53747" lon="6.77158">
        <ele>407</ele>
        <time>2016-04-10T07:23:20.000Z</time>
      </trkpt>
      <trkpt lat="47.53747" lon="6.77156">
        <ele>407</ele>
        <time>2016-04-10T07:23:21.000Z</time>
      </trkpt>
      <trkpt lat="47.53747" lon="6.7715">
        <ele>407</ele>
        <time>2016-04-10T07:23:24.000Z</time>
      </trkpt>
      <trkpt lat="47.53748" lon="6.77148">
        <ele>406</ele>
        <time>2016-04-10T07:23:25.000Z</time>
      </trkpt>
      <trkpt lat="47.53749" lon="6.77143">
        <ele>406</ele>
        <time>2016-04-10T07:23:27.000Z</time>
      </trkpt>
      <trkpt lat="47.5375" lon="6.77141">
        <ele>406</ele>
        <time>2016-04-10T07:23:28.000Z</time>
      </trkpt>
      <trkpt lat="47.5375" lon="6.77136">
        <ele>406</ele>
        <time>2016-04-10T07:23:30.000Z</time>
      </trkpt>
      <trkpt lat="47.5375" lon="6.77132">
        <ele>406</ele>
        <time>2016-04-10T07:23:31.000Z</time>
      </trkpt>
      <trkpt lat="47.5375" lon="6.77129">
        <ele>406</ele>
        <time>2016-04-10T07:23:32.000Z</time>
      </trkpt>
      <trkpt lat="47.53749" lon="6.77126">
        <ele>406</ele>
        <time>2016-04-10T07:23:33.000Z</time>
      </trkpt>
      <trkpt lat="47.5375" lon="6.77122">
        <ele>406</ele>
        <time>2016-04-10T07:23:34.000Z</time>
      </trkpt>
      <trkpt lat="47.5375" lon="6.77118">
        <ele>407</ele>
        <time>2016-04-10T07:23:35.000Z</time>
      </trkpt>
      <trkpt lat="47.5375" lon="6.77114">
        <ele>407</ele>
        <time>2016-04-10T07:23:36.000Z</time>
      </trkpt>
      <trkpt lat="47.5375" lon="6.77111">
        <ele>407</ele>
        <time>2016-04-10T07:23:37.000Z</time>
      </trkpt>
      <trkpt lat="47.53749" lon="6.77106">
        <ele>408</ele>
        <time>2016-04-10T07:23:39.000Z</time>
      </trkpt>
      <trkpt lat="47.53749" lon="6.77103">
        <ele>408</ele>
        <time>2016-04-10T07:23:40.000Z</time>
      </trkpt>
      <trkpt lat="47.53749" lon="6.77097">
        <ele>410</ele>
        <time>2016-04-10T07:23:42.000Z</time>
      </trkpt>
      <trkpt lat="47.53749" lon="6.77094">
        <ele>410</ele>
        <time>2016-04-10T07:23:43.000Z</time>
      </trkpt>
      <trkpt lat="47.53748" lon="6.77088">
        <ele>412</ele>
        <time>2016-04-10T07:23:45.000Z</time>
      </trkpt>
      <trkpt lat="47.53747" lon="6.77086">
        <ele>412</ele>
        <time>2016-04-10T07:23:46.000Z</time>
      </trkpt>
      <trkpt lat="47.53747" lon="6.77081">
        <ele>413</ele>
        <time>2016-04-10T07:23:48.000Z</time>
      </trkpt>
      <trkpt lat="47.53747" lon="6.77079">
        <ele>413</ele>
        <time>2016-04-10T07:23:49.000Z</time>
      </trkpt>
      <trkpt lat="47.53747" lon="6.77072">
        <ele>412</ele>
        <time>2016-04-10T07:23:53.000Z</time>
      </trkpt>
      <trkpt lat="47.53748" lon="6.7707">
        <ele>411</ele>
        <time>2016-04-10T07:23:54.000Z</time>
      </trkpt>
      <trkpt lat="47.5375" lon="6.77067">
        <ele>411</ele>
        <time>2016-04-10T07:23:55.000Z</time>
      </trkpt>
      <trkpt lat="47.53752" lon="6.77064">
        <ele>417</ele>
        <time>2016-04-10T07:23:56.000Z</time>
      </trkpt>
      <trkpt lat="47.53754" lon="6.77061">
        <ele>417</ele>
        <time>2016-04-10T07:23:57.000Z</time>
      </trkpt>
      <trkpt lat="47.53757" lon="6.77057">
        <ele>417</ele>
        <time>2016-04-10T07:23:58.000Z</time>
      </trkpt>
      <trkpt lat="47.53759" lon="6.77054">
        <ele>417</ele>
        <time>2016-04-10T07:23:59.000Z</time>
      </trkpt>
      <trkpt lat="47.53761" lon="6.77051">
        <ele>418</ele>
        <time>2016-04-10T07:24:00.000Z</time>
      </trkpt>
      <trkpt lat="47.53763" lon="6.77048">
        <ele>418</ele>
        <time>2016-04-10T07:24:01.000Z</time>
      </trkpt>
      <trkpt lat="47.53764" lon="6.77044">
        <ele>418</ele>
        <time>2016-04-10T07:24:02.000Z</time>
      </trkpt>
      <trkpt lat="47.53763" lon="6.77038">
        <ele>418</ele>
        <time>2016-04-10T07:24:04.000Z</time>
      </trkpt>
      <trkpt lat="47.53761" lon="6.77035">
        <ele>418</ele>
        <time>2016-04-10T07:24:05.000Z</time>
      </trkpt>
      <trkpt lat="47.5376" lon="6.77032">
        <ele>418</ele>
        <time>2016-04-10T07:24:06.000Z</time>
      </trkpt>
      <trkpt lat="47.53758" lon="6.7703">
        <ele>418</ele>
        <time>2016-04-10T07:24:07.000Z</time>
      </trkpt>
      <trkpt lat="47.53757" lon="6.77026">
        <ele>418</ele>
        <time>2016-04-10T07:24:08.000Z</time>
      </trkpt>
      <trkpt lat="47.53756" lon="6.77022">
        <ele>418</ele>
        <time>2016-04-10T07:24:09.000Z</time>
      </trkpt>
      <trkpt lat="47.53754" lon="6.77018">
        <ele>418</ele>
        <time>2016-04-10T07:24:10.000Z</time>
      </trkpt>
      <trkpt lat="47.53753" lon="6.77013">
        <ele>418</ele>
        <time>2016-04-10T07:24:11.000Z</time>
      </trkpt>
      <trkpt lat="47.53752" lon="6.77009">
        <ele>418</ele>
        <time>2016-04-10T07:24:12.000Z</time>
      </trkpt>
      <trkpt lat="47.53752" lon="6.77003">
        <ele>418</ele>
        <time>2016-04-10T07:24:13.000Z</time>
      </trkpt>
      <trkpt lat="47.53752" lon="6.76998">
        <ele>418</ele>
        <time>2016-04-10T07:24:14.000Z</time>
      </trkpt>
      <trkpt lat="47.53751" lon="6.76993">
        <ele>419</ele>
        <time>2016-04-10T07:24:15.000Z</time>
      </trkpt>
      <trkpt lat="47.53751" lon="6.76988">
        <ele>419</ele>
        <time>2016-04-10T07:24:16.000Z</time>
      </trkpt>
      <trkpt lat="47.5375" lon="6.76984">
        <ele>420</ele>
        <time>2016-04-10T07:24:17.000Z</time>
      </trkpt>
      <trkpt lat="47.53749" lon="6.76979">
        <ele>415</ele>
        <time>2016-04-10T07:24:18.000Z</time>
      </trkpt>
      <trkpt lat="47.53749" lon="6.76975">
        <ele>414</ele>
        <time>2016-04-10T07:24:19.000Z</time>
      </trkpt>
      <trkpt lat="47.53748" lon="6.76971">
        <ele>414</ele>
        <time>2016-04-10T07:24:20.000Z</time>
      </trkpt>
      <trkpt lat="47.53748" lon="6.76968">
        <ele>414</ele>
        <time>2016-04-10T07:24:21.000Z</time>
      </trkpt>
      <trkpt lat="47.53749" lon="6.76962">
        <ele>414</ele>
        <time>2016-04-10T07:24:23.000Z</time>
      </trkpt>
      <trkpt lat="47.53749" lon="6.7696">
        <ele>414</ele>
        <time>2016-04-10T07:24:24.000Z</time>
      </trkpt>
      <trkpt lat="47.53749" lon="6.76954">
        <ele>414</ele>
        <time>2016-04-10T07:24:26.000Z</time>
      </trkpt>
      <trkpt lat="47.53749" lon="6.7695">
        <ele>414</ele>
        <time>2016-04-10T07:24:27.000Z</time>
      </trkpt>
      <trkpt lat="47.5375" lon="6.76947">
        <ele>421</ele>
        <time>2016-04-10T07:24:28.000Z</time>
      </trkpt>
      <trkpt lat="47.53751" lon="6.76943">
        <ele>421</ele>
        <time>2016-04-10T07:24:29.000Z</time>
      </trkpt>
      <trkpt lat="47.53753" lon="6.7694">
        <ele>421</ele>
        <time>2016-04-10T07:24:30.000Z</time>
      </trkpt>
      <trkpt lat="47.53754" lon="6.76937">
        <ele>421</ele>
        <time>2016-04-10T07:24:31.000Z</time>
      </trkpt>
      <trkpt lat="47.53756" lon="6.76934">
        <ele>420</ele>
        <time>2016-04-10T07:24:32.000Z</time>
      </trkpt>
      <trkpt lat="47.53757" lon="6.76931">
        <ele>420</ele>
        <time>2016-04-10T07:24:33.000Z</time>
      </trkpt>
      <trkpt lat="47.53758" lon="6.76926">
        <ele>420</ele>
        <time>2016-04-10T07:24:35.000Z</time>
      </trkpt>
      <trkpt lat="47.53758" lon="6.76922">
        <ele>420</ele>
        <time>2016-04-10T07:24:36.000Z</time>
      </trkpt>
      <trkpt lat="47.53759" lon="6.76916">
        <ele>420</ele>
        <time>2016-04-10T07:24:38.000Z</time>
      </trkpt>
      <trkpt lat="47.53759" lon="6.76912">
        <ele>421</ele>
        <time>2016-04-10T07:24:39.000Z</time>
      </trkpt>
      <trkpt lat="47.53758" lon="6.76909">
        <ele>421</ele>
        <time>2016-04-10T07:24:40.000Z</time>
      </trkpt>
      <trkpt lat="47.53758" lon="6.76905">
        <ele>421</ele>
        <time>2016-04-10T07:24:41.000Z</time>
      </trkpt>
      <trkpt lat="47.53758" lon="6.76902">
        <ele>421</ele>
        <time>2016-04-10T07:24:42.000Z</time>
      </trkpt>
      <trkpt lat="47.53759" lon="6.76898">
        <ele>422</ele>
        <time>2016-04-10T07:24:43.000Z</time>
      </trkpt>
      <trkpt lat="47.5376" lon="6.76894">
        <ele>422</ele>
        <time>2016-04-10T07:24:44.000Z</time>
      </trkpt>
      <trkpt lat="47.53761" lon="6.7689">
        <ele>422</ele>
        <time>2016-04-10T07:24:45.000Z</time>
      </trkpt>
      <trkpt lat="47.53761" lon="6.76887">
        <ele>422</ele>
        <time>2016-04-10T07:24:46.000Z</time>
      </trkpt>
      <trkpt lat="47.53762" lon="6.76883">
        <ele>423</ele>
        <time>2016-04-10T07:24:47.000Z</time>
      </trkpt>
      <trkpt lat="47.53762" lon="6.76879">
        <ele>423</ele>
        <time>2016-04-10T07:24:49.000Z</time>
      </trkpt>
      <trkpt lat="47.53762" lon="6.76876">
        <ele>423</ele>
        <time>2016-04-10T07:24:50.000Z</time>
      </trkpt>
      <trkpt lat="47.53763" lon="6.76871">
        <ele>423</ele>
        <time>2016-04-10T07:24:53.000Z</time>
      </trkpt>
      <trkpt lat="47.53762" lon="6.76868">
        <ele>423</ele>
        <time>2016-04-10T07:24:54.000Z</time>
      </trkpt>
      <trkpt lat="47.53763" lon="6.76862">
        <ele>423</ele>
        <time>2016-04-10T07:24:56.000Z</time>
      </trkpt>
      <trkpt lat="47.53763" lon="6.76858">
        <ele>423</ele>
        <time>2016-04-10T07:24:57.000Z</time>
      </trkpt>
      <trkpt lat="47.53764" lon="6.76853">
        <ele>423</ele>
        <time>2016-04-10T07:24:59.000Z</time>
      </trkpt>
      <trkpt lat="47.53764" lon="6.76851">
        <ele>423</ele>
        <time>2016-04-10T07:25:00.000Z</time>
      </trkpt>
      <trkpt lat="47.53765" lon="6.76845">
        <ele>423</ele>
        <time>2016-04-10T07:25:03.000Z</time>
      </trkpt>
      <trkpt lat="47.53766" lon="6.76842">
        <ele>423</ele>
        <time>2016-04-10T07:25:04.000Z</time>
      </trkpt>
      <trkpt lat="47.53767" lon="6.76839">
        <ele>423</ele>
        <time>2016-04-10T07:25:05.000Z</time>
      </trkpt>
      <trkpt lat="47.53768" lon="6.76836">
        <ele>423</ele>
        <time>2016-04-10T07:25:06.000Z</time>
      </trkpt>
      <trkpt lat="47.5377" lon="6.7683">
        <ele>425</ele>
        <time>2016-04-10T07:25:08.000Z</time>
      </trkpt>
      <trkpt lat="47.53771" lon="6.76827">
        <ele>425</ele>
        <time>2016-04-10T07:25:09.000Z</time>
      </trkpt>
      <trkpt lat="47.53773" lon="6.76822">
        <ele>425</ele>
        <time>2016-04-10T07:25:11.000Z</time>
      </trkpt>
      <trkpt lat="47.53774" lon="6.76819">
        <ele>425</ele>
        <time>2016-04-10T07:25:12.000Z</time>
      </trkpt>
      <trkpt lat="47.53776" lon="6.76815">
        <ele>426</ele>
        <time>2016-04-10T07:25:14.000Z</time>
      </trkpt>
      <trkpt lat="47.53776" lon="6.76812">
        <ele>426</ele>
        <time>2016-04-10T07:25:15.000Z</time>
      </trkpt>
      <trkpt lat="47.53778" lon="6.76808">
        <ele>426</ele>
        <time>2016-04-10T07:25:17.000Z</time>
      </trkpt>
      <trkpt lat="47.53778" lon="6.76805">
        <ele>426</ele>
        <time>2016-04-10T07:25:18.000Z</time>
      </trkpt>
      <trkpt lat="47.5378" lon="6.76801">
        <ele>426</ele>
        <time>2016-04-10T07:25:20.000Z</time>
      </trkpt>
      <trkpt lat="47.53781" lon="6.76798">
        <ele>427</ele>
        <time>2016-04-10T07:25:21.000Z</time>
      </trkpt>
      <trkpt lat="47.53782" lon="6.76795">
        <ele>427</ele>
        <time>2016-04-10T07:25:22.000Z</time>
      </trkpt>
      <trkpt lat="47.53784" lon="6.76792">
        <ele>427</ele>
        <time>2016-04-10T07:25:23.000Z</time>
      </trkpt>
      <trkpt lat="47.53786" lon="6.76786">
        <ele>427</ele>
        <time>2016-04-10T07:25:25.000Z</time>
      </trkpt>
      <trkpt lat="47.53787" lon="6.76784">
        <ele>427</ele>
        <time>2016-04-10T07:25:26.000Z</time>
      </trkpt>
      <trkpt lat="47.53788" lon="6.76779">
        <ele>427</ele>
        <time>2016-04-10T07:25:28.000Z</time>
      </trkpt>
      <trkpt lat="47.53788" lon="6.76777">
        <ele>428</ele>
        <time>2016-04-10T07:25:29.000Z</time>
      </trkpt>
      <trkpt lat="47.53789" lon="6.76772">
        <ele>428</ele>
        <time>2016-04-10T07:25:31.000Z</time>
      </trkpt>
      <trkpt lat="47.5379" lon="6.76769">
        <ele>428</ele>
        <time>2016-04-10T07:25:32.000Z</time>
      </trkpt>
      <trkpt lat="47.53792" lon="6.76764">
        <ele>428</ele>
        <time>2016-04-10T07:25:34.000Z</time>
      </trkpt>
      <trkpt lat="47.53792" lon="6.76762">
        <ele>428</ele>
        <time>2016-04-10T07:25:35.000Z</time>
      </trkpt>
      <trkpt lat="47.53794" lon="6.76758">
        <ele>428</ele>
        <time>2016-04-10T07:25:37.000Z</time>
      </trkpt>
      <trkpt lat="47.53795" lon="6.76756">
        <ele>428</ele>
        <time>2016-04-10T07:25:38.000Z</time>
      </trkpt>
      <trkpt lat="47.53797" lon="6.76752">
        <ele>428</ele>
        <time>2016-04-10T07:25:40.000Z</time>
      </trkpt>
      <trkpt lat="47.53797" lon="6.7675">
        <ele>430</ele>
        <time>2016-04-10T07:25:41.000Z</time>
      </trkpt>
      <trkpt lat="47.53798" lon="6.76747">
        <ele>431</ele>
        <time>2016-04-10T07:25:42.000Z</time>
      </trkpt>
      <trkpt lat="47.538" lon="6.76744">
        <ele>431</ele>
        <time>2016-04-10T07:25:43.000Z</time>
      </trkpt>
      <trkpt lat="47.53801" lon="6.7674">
        <ele>431</ele>
        <time>2016-04-10T07:25:44.000Z</time>
      </trkpt>
      <trkpt lat="47.53803" lon="6.76736">
        <ele>431</ele>
        <time>2016-04-10T07:25:45.000Z</time>
      </trkpt>
      <trkpt lat="47.53805" lon="6.76732">
        <ele>431</ele>
        <time>2016-04-10T07:25:46.000Z</time>
      </trkpt>
      <trkpt lat="47.53807" lon="6.76728">
        <ele>431</ele>
        <time>2016-04-10T07:25:47.000Z</time>
      </trkpt>
      <trkpt lat="47.53809" lon="6.76725">
        <ele>431</ele>
        <time>2016-04-10T07:25:48.000Z</time>
      </trkpt>
      <trkpt lat="47.5381" lon="6.76722">
        <ele>431</ele>
        <time>2016-04-10T07:25:49.000Z</time>
      </trkpt>
      <trkpt lat="47.53812" lon="6.76719">
        <ele>431</ele>
        <time>2016-04-10T07:25:50.000Z</time>
      </trkpt>
      <trkpt lat="47.53813" lon="6.76716">
        <ele>432</ele>
        <time>2016-04-10T07:25:51.000Z</time>
      </trkpt>
      <trkpt lat="47.53815" lon="6.76712">
        <ele>432</ele>
        <time>2016-04-10T07:25:52.000Z</time>
      </trkpt>
      <trkpt lat="47.53817" lon="6.76708">
        <ele>432</ele>
        <time>2016-04-10T07:25:53.000Z</time>
      </trkpt>
      <trkpt lat="47.53818" lon="6.76705">
        <ele>432</ele>
        <time>2016-04-10T07:25:54.000Z</time>
      </trkpt>
      <trkpt lat="47.5382" lon="6.76701">
        <ele>432</ele>
        <time>2016-04-10T07:25:55.000Z</time>
      </trkpt>
      <trkpt lat="47.53823" lon="6.76697">
        <ele>432</ele>
        <time>2016-04-10T07:25:56.000Z</time>
      </trkpt>
      <trkpt lat="47.53825" lon="6.76693">
        <ele>432</ele>
        <time>2016-04-10T07:25:57.000Z</time>
      </trkpt>
      <trkpt lat="47.53828" lon="6.76689">
        <ele>432</ele>
        <time>2016-04-10T07:25:58.000Z</time>
      </trkpt>
      <trkpt lat="47.5383" lon="6.76685">
        <ele>433</ele>
        <time>2016-04-10T07:25:59.000Z</time>
      </trkpt>
      <trkpt lat="47.53833" lon="6.76682">
        <ele>433</ele>
        <time>2016-04-10T07:26:00.000Z</time>
      </trkpt>
      <trkpt lat="47.53836" lon="6.76678">
        <ele>434</ele>
        <time>2016-04-10T07:26:01.000Z</time>
      </trkpt>
      <trkpt lat="47.53838" lon="6.76675">
        <ele>434</ele>
        <time>2016-04-10T07:26:02.000Z</time>
      </trkpt>
      <trkpt lat="47.5384" lon="6.76672">
        <ele>434</ele>
        <time>2016-04-10T07:26:03.000Z</time>
      </trkpt>
      <trkpt lat="47.53842" lon="6.76668">
        <ele>434</ele>
        <time>2016-04-10T07:26:04.000Z</time>
      </trkpt>
      <trkpt lat="47.53844" lon="6.76665">
        <ele>435</ele>
        <time>2016-04-10T07:26:05.000Z</time>
      </trkpt>
      <trkpt lat="47.53847" lon="6.76662">
        <ele>435</ele>
        <time>2016-04-10T07:26:06.000Z</time>
      </trkpt>
      <trkpt lat="47.53849" lon="6.76657">
        <ele>435</ele>
        <time>2016-04-10T07:26:07.000Z</time>
      </trkpt>
      <trkpt lat="47.53851" lon="6.76653">
        <ele>435</ele>
        <time>2016-04-10T07:26:08.000Z</time>
      </trkpt>
      <trkpt lat="47.53854" lon="6.76648">
        <ele>435</ele>
        <time>2016-04-10T07:26:09.000Z</time>
      </trkpt>
      <trkpt lat="47.53856" lon="6.76643">
        <ele>435</ele>
        <time>2016-04-10T07:26:10.000Z</time>
      </trkpt>
      <trkpt lat="47.53858" lon="6.76638">
        <ele>435</ele>
        <time>2016-04-10T07:26:11.000Z</time>
      </trkpt>
      <trkpt lat="47.53861" lon="6.76634">
        <ele>435</ele>
        <time>2016-04-10T07:26:12.000Z</time>
      </trkpt>
      <trkpt lat="47.53863" lon="6.76629">
        <ele>435</ele>
        <time>2016-04-10T07:26:13.000Z</time>
      </trkpt>
      <trkpt lat="47.53865" lon="6.76625">
        <ele>436</ele>
        <time>2016-04-10T07:26:14.000Z</time>
      </trkpt>
      <trkpt lat="47.53867" lon="6.76621">
        <ele>436</ele>
        <time>2016-04-10T07:26:15.000Z</time>
      </trkpt>
      <trkpt lat="47.53869" lon="6.76617">
        <ele>436</ele>
        <time>2016-04-10T07:26:16.000Z</time>
      </trkpt>
      <trkpt lat="47.5387" lon="6.76614">
        <ele>436</ele>
        <time>2016-04-10T07:26:17.000Z</time>
      </trkpt>
      <trkpt lat="47.53871" lon="6.76611">
        <ele>436</ele>
        <time>2016-04-10T07:26:18.000Z</time>
      </trkpt>
      <trkpt lat="47.53872" lon="6.76608">
        <ele>436</ele>
        <time>2016-04-10T07:26:19.000Z</time>
      </trkpt>
      <trkpt lat="47.53873" lon="6.76604">
        <ele>436</ele>
        <time>2016-04-10T07:26:20.000Z</time>
      </trkpt>
      <trkpt lat="47.53875" lon="6.766">
        <ele>436</ele>
        <time>2016-04-10T07:26:21.000Z</time>
      </trkpt>
      <trkpt lat="47.53877" lon="6.76597">
        <ele>436</ele>
        <time>2016-04-10T07:26:22.000Z</time>
      </trkpt>
      <trkpt lat="47.5388" lon="6.76593">
        <ele>436</ele>
        <time>2016-04-10T07:26:23.000Z</time>
      </trkpt>
      <trkpt lat="47.53883" lon="6.76591">
        <ele>436</ele>
        <time>2016-04-10T07:26:24.000Z</time>
      </trkpt>
      <trkpt lat="47.53886" lon="6.76589">
        <ele>436</ele>
        <time>2016-04-10T07:26:25.000Z</time>
      </trkpt>
      <trkpt lat="47.53889" lon="6.76588">
        <ele>436</ele>
        <time>2016-04-10T07:26:26.000Z</time>
      </trkpt>
      <trkpt lat="47.53892" lon="6.76587">
        <ele>436</ele>
        <time>2016-04-10T07:26:27.000Z</time>
      </trkpt>
      <trkpt lat="47.53895" lon="6.76585">
        <ele>436</ele>
        <time>2016-04-10T07:26:28.000Z</time>
      </trkpt>
      <trkpt lat="47.53899" lon="6.76582">
        <ele>437</ele>
        <time>2016-04-10T07:26:29.000Z</time>
      </trkpt>
      <trkpt lat="47.53901" lon="6.7658">
        <ele>437</ele>
        <time>2016-04-10T07:26:30.000Z</time>
      </trkpt>
      <trkpt lat="47.53904" lon="6.76577">
        <ele>437</ele>
        <time>2016-04-10T07:26:31.000Z</time>
      </trkpt>
      <trkpt lat="47.53907" lon="6.76574">
        <ele>437</ele>
        <time>2016-04-10T07:26:32.000Z</time>
      </trkpt>
      <trkpt lat="47.53909" lon="6.7657">
        <ele>437</ele>
        <time>2016-04-10T07:26:33.000Z</time>
      </trkpt>
      <trkpt lat="47.53911" lon="6.76567">
        <ele>437</ele>
        <time>2016-04-10T07:26:34.000Z</time>
      </trkpt>
      <trkpt lat="47.53914" lon="6.76563">
        <ele>437</ele>
        <time>2016-04-10T07:26:35.000Z</time>
      </trkpt>
      <trkpt lat="47.53916" lon="6.76559">
        <ele>437</ele>
        <time>2016-04-10T07:26:36.000Z</time>
      </trkpt>
      <trkpt lat="47.53919" lon="6.76555">
        <ele>435</ele>
        <time>2016-04-10T07:26:37.000Z</time>
      </trkpt>
      <trkpt lat="47.53922" lon="6.7655">
        <ele>435</ele>
        <time>2016-04-10T07:26:38.000Z</time>
      </trkpt>
      <trkpt lat="47.53925" lon="6.76546">
        <ele>435</ele>
        <time>2016-04-10T07:26:39.000Z</time>
      </trkpt>
      <trkpt lat="47.53928" lon="6.76543">
        <ele>435</ele>
        <time>2016-04-10T07:26:40.000Z</time>
      </trkpt>
      <trkpt lat="47.5393" lon="6.76539">
        <ele>435</ele>
        <time>2016-04-10T07:26:41.000Z</time>
      </trkpt>
      <trkpt lat="47.53932" lon="6.76535">
        <ele>435</ele>
        <time>2016-04-10T07:26:42.000Z</time>
      </trkpt>
      <trkpt lat="47.53934" lon="6.76531">
        <ele>435</ele>
        <time>2016-04-10T07:26:43.000Z</time>
      </trkpt>
      <trkpt lat="47.53935" lon="6.76528">
        <ele>435</ele>
        <time>2016-04-10T07:26:44.000Z</time>
      </trkpt>
      <trkpt lat="47.53937" lon="6.76524">
        <ele>435</ele>
        <time>2016-04-10T07:26:45.000Z</time>
      </trkpt>
      <trkpt lat="47.53939" lon="6.7652">
        <ele>435</ele>
        <time>2016-04-10T07:26:46.000Z</time>
      </trkpt>
      <trkpt lat="47.53942" lon="6.76515">
        <ele>435</ele>
        <time>2016-04-10T07:26:47.000Z</time>
      </trkpt>
      <trkpt lat="47.53944" lon="6.7651">
        <ele>435</ele>
        <time>2016-04-10T07:26:48.000Z</time>
      </trkpt>
      <trkpt lat="47.53946" lon="6.76505">
        <ele>435</ele>
        <time>2016-04-10T07:26:49.000Z</time>
      </trkpt>
      <trkpt lat="47.53948" lon="6.76499">
        <ele>435</ele>
        <time>2016-04-10T07:26:50.000Z</time>
      </trkpt>
      <trkpt lat="47.53953" lon="6.76489">
        <ele>435</ele>
        <time>2016-04-10T07:26:51.000Z</time>
      </trkpt>
      <trkpt lat="47.53955" lon="6.76483">
        <ele>435</ele>
        <time>2016-04-10T07:26:52.000Z</time>
      </trkpt>
      <trkpt lat="47.53957" lon="6.76475">
        <ele>435</ele>
        <time>2016-04-10T07:26:53.000Z</time>
      </trkpt>
      <trkpt lat="47.5396" lon="6.76469">
        <ele>435</ele>
        <time>2016-04-10T07:26:54.000Z</time>
      </trkpt>
      <trkpt lat="47.53962" lon="6.76461">
        <ele>435</ele>
        <time>2016-04-10T07:26:55.000Z</time>
      </trkpt>
      <trkpt lat="47.53965" lon="6.76453">
        <ele>435</ele>
        <time>2016-04-10T07:26:56.000Z</time>
      </trkpt>
      <trkpt lat="47.53969" lon="6.76448">
        <ele>435</ele>
        <time>2016-04-10T07:26:57.000Z</time>
      </trkpt>
      <trkpt lat="47.53972" lon="6.76443">
        <ele>435</ele>
        <time>2016-04-10T07:26:58.000Z</time>
      </trkpt>
      <trkpt lat="47.53976" lon="6.76437">
        <ele>435</ele>
        <time>2016-04-10T07:26:59.000Z</time>
      </trkpt>
      <trkpt lat="47.53982" lon="6.7642">
        <ele>436</ele>
        <time>2016-04-10T07:27:01.000Z</time>
      </trkpt>
      <trkpt lat="47.53985" lon="6.76412">
        <ele>436</ele>
        <time>2016-04-10T07:27:02.000Z</time>
      </trkpt>
      <trkpt lat="47.5399" lon="6.76408">
        <ele>436</ele>
        <time>2016-04-10T07:27:03.000Z</time>
      </trkpt>
      <trkpt lat="47.53994" lon="6.76402">
        <ele>436</ele>
        <time>2016-04-10T07:27:04.000Z</time>
      </trkpt>
      <trkpt lat="47.53997" lon="6.76399">
        <ele>436</ele>
        <time>2016-04-10T07:27:05.000Z</time>
      </trkpt>
      <trkpt lat="47.54" lon="6.76394">
        <ele>436</ele>
        <time>2016-04-10T07:27:06.000Z</time>
      </trkpt>
      <trkpt lat="47.54003" lon="6.7639">
        <ele>436</ele>
        <time>2016-04-10T07:27:07.000Z</time>
      </trkpt>
      <trkpt lat="47.54006" lon="6.76384">
        <ele>436</ele>
        <time>2016-04-10T07:27:08.000Z</time>
      </trkpt>
      <trkpt lat="47.5401" lon="6.76379">
        <ele>436</ele>
        <time>2016-04-10T07:27:09.000Z</time>
      </trkpt>
      <trkpt lat="47.54013" lon="6.76375">
        <ele>436</ele>
        <time>2016-04-10T07:27:10.000Z</time>
      </trkpt>
      <trkpt lat="47.54018" lon="6.76372">
        <ele>436</ele>
        <time>2016-04-10T07:27:11.000Z</time>
      </trkpt>
      <trkpt lat="47.54021" lon="6.76368">
        <ele>436</ele>
        <time>2016-04-10T07:27:12.000Z</time>
      </trkpt>
      <trkpt lat="47.54024" lon="6.76365">
        <ele>436</ele>
        <time>2016-04-10T07:27:13.000Z</time>
      </trkpt>
      <trkpt lat="47.54025" lon="6.76361">
        <ele>436</ele>
        <time>2016-04-10T07:27:14.000Z</time>
      </trkpt>
      <trkpt lat="47.54026" lon="6.76357">
        <ele>436</ele>
        <time>2016-04-10T07:27:15.000Z</time>
      </trkpt>
      <trkpt lat="47.54029" lon="6.76353">
        <ele>436</ele>
        <time>2016-04-10T07:27:16.000Z</time>
      </trkpt>
      <trkpt lat="47.5403" lon="6.76346">
        <ele>436</ele>
        <time>2016-04-10T07:27:17.000Z</time>
      </trkpt>
      <trkpt lat="47.54032" lon="6.7634">
        <ele>436</ele>
        <time>2016-04-10T07:27:18.000Z</time>
      </trkpt>
      <trkpt lat="47.54035" lon="6.76335">
        <ele>436</ele>
        <time>2016-04-10T07:27:19.000Z</time>
      </trkpt>
      <trkpt lat="47.54036" lon="6.7633">
        <ele>436</ele>
        <time>2016-04-10T07:27:21.000Z</time>
      </trkpt>
      <trkpt lat="47.54036" lon="6.76327">
        <ele>436</ele>
        <time>2016-04-10T07:27:22.000Z</time>
      </trkpt>
      <trkpt lat="47.54038" lon="6.76322">
        <ele>436</ele>
        <time>2016-04-10T07:27:24.000Z</time>
      </trkpt>
      <trkpt lat="47.54038" lon="6.76319">
        <ele>436</ele>
        <time>2016-04-10T07:27:25.000Z</time>
      </trkpt>
      <trkpt lat="47.54039" lon="6.76315">
        <ele>436</ele>
        <time>2016-04-10T07:27:26.000Z</time>
      </trkpt>
      <trkpt lat="47.54041" lon="6.76308">
        <ele>436</ele>
        <time>2016-04-10T07:27:27.000Z</time>
      </trkpt>
      <trkpt lat="47.54042" lon="6.76302">
        <ele>436</ele>
        <time>2016-04-10T07:27:28.000Z</time>
      </trkpt>
      <trkpt lat="47.54043" lon="6.76299">
        <ele>436</ele>
        <time>2016-04-10T07:27:29.000Z</time>
      </trkpt>
      <trkpt lat="47.54044" lon="6.76295">
        <ele>436</ele>
        <time>2016-04-10T07:27:30.000Z</time>
      </trkpt>
      <trkpt lat="47.54045" lon="6.76291">
        <ele>435</ele>
        <time>2016-04-10T07:27:31.000Z</time>
      </trkpt>
      <trkpt lat="47.54046" lon="6.76288">
        <ele>435</ele>
        <time>2016-04-10T07:27:32.000Z</time>
      </trkpt>
      <trkpt lat="47.54046" lon="6.76284">
        <ele>435</ele>
        <time>2016-04-10T07:27:33.000Z</time>
      </trkpt>
      <trkpt lat="47.54047" lon="6.76281">
        <ele>435</ele>
        <time>2016-04-10T07:27:34.000Z</time>
      </trkpt>
      <trkpt lat="47.54047" lon="6.76277">
        <ele>435</ele>
        <time>2016-04-10T07:27:35.000Z</time>
      </trkpt>
      <trkpt lat="47.54048" lon="6.76272">
        <ele>435</ele>
        <time>2016-04-10T07:27:36.000Z</time>
      </trkpt>
      <trkpt lat="47.54048" lon="6.76268">
        <ele>435</ele>
        <time>2016-04-10T07:27:37.000Z</time>
      </trkpt>
      <trkpt lat="47.54048" lon="6.76264">
        <ele>435</ele>
        <time>2016-04-10T07:27:38.000Z</time>
      </trkpt>
      <trkpt lat="47.54049" lon="6.76261">
        <ele>435</ele>
        <time>2016-04-10T07:27:39.000Z</time>
      </trkpt>
      <trkpt lat="47.5405" lon="6.76257">
        <ele>435</ele>
        <time>2016-04-10T07:27:40.000Z</time>
      </trkpt>
      <trkpt lat="47.54051" lon="6.76254">
        <ele>435</ele>
        <time>2016-04-10T07:27:41.000Z</time>
      </trkpt>
      <trkpt lat="47.54052" lon="6.7625">
        <ele>435</ele>
        <time>2016-04-10T07:27:42.000Z</time>
      </trkpt>
      <trkpt lat="47.54052" lon="6.76246">
        <ele>436</ele>
        <time>2016-04-10T07:27:43.000Z</time>
      </trkpt>
      <trkpt lat="47.54053" lon="6.76241">
        <ele>436</ele>
        <time>2016-04-10T07:27:44.000Z</time>
      </trkpt>
      <trkpt lat="47.54054" lon="6.76235">
        <ele>436</ele>
        <time>2016-04-10T07:27:45.000Z</time>
      </trkpt>
      <trkpt lat="47.54055" lon="6.7623">
        <ele>436</ele>
        <time>2016-04-10T07:27:46.000Z</time>
      </trkpt>
      <trkpt lat="47.54056" lon="6.76224">
        <ele>436</ele>
        <time>2016-04-10T07:27:47.000Z</time>
      </trkpt>
      <trkpt lat="47.54058" lon="6.76219">
        <ele>436</ele>
        <time>2016-04-10T07:27:48.000Z</time>
      </trkpt>
      <trkpt lat="47.5406" lon="6.76214">
        <ele>436</ele>
        <time>2016-04-10T07:27:49.000Z</time>
      </trkpt>
      <trkpt lat="47.54061" lon="6.76208">
        <ele>436</ele>
        <time>2016-04-10T07:27:50.000Z</time>
      </trkpt>
      <trkpt lat="47.54063" lon="6.76203">
        <ele>436</ele>
        <time>2016-04-10T07:27:51.000Z</time>
      </trkpt>
      <trkpt lat="47.54064" lon="6.76197">
        <ele>436</ele>
        <time>2016-04-10T07:27:52.000Z</time>
      </trkpt>
      <trkpt lat="47.54066" lon="6.76191">
        <ele>436</ele>
        <time>2016-04-10T07:27:53.000Z</time>
      </trkpt>
      <trkpt lat="47.54067" lon="6.76186">
        <ele>436</ele>
        <time>2016-04-10T07:27:54.000Z</time>
      </trkpt>
      <trkpt lat="47.54069" lon="6.7618">
        <ele>437</ele>
        <time>2016-04-10T07:27:55.000Z</time>
      </trkpt>
      <trkpt lat="47.5407" lon="6.76175">
        <ele>437</ele>
        <time>2016-04-10T07:27:56.000Z</time>
      </trkpt>
      <trkpt lat="47.5407" lon="6.76169">
        <ele>437</ele>
        <time>2016-04-10T07:27:57.000Z</time>
      </trkpt>
      <trkpt lat="47.54071" lon="6.76164">
        <ele>437</ele>
        <time>2016-04-10T07:27:58.000Z</time>
      </trkpt>
      <trkpt lat="47.54071" lon="6.76158">
        <ele>437</ele>
        <time>2016-04-10T07:27:59.000Z</time>
      </trkpt>
      <trkpt lat="47.54071" lon="6.76153">
        <ele>437</ele>
        <time>2016-04-10T07:28:00.000Z</time>
      </trkpt>
      <trkpt lat="47.54071" lon="6.76148">
        <ele>437</ele>
        <time>2016-04-10T07:28:01.000Z</time>
      </trkpt>
      <trkpt lat="47.5407" lon="6.76142">
        <ele>437</ele>
        <time>2016-04-10T07:28:02.000Z</time>
      </trkpt>
      <trkpt lat="47.54069" lon="6.76136">
        <ele>436</ele>
        <time>2016-04-10T07:28:03.000Z</time>
      </trkpt>
      <trkpt lat="47.54067" lon="6.7613">
        <ele>436</ele>
        <time>2016-04-10T07:28:04.000Z</time>
      </trkpt>
      <trkpt lat="47.54066" lon="6.76124">
        <ele>436</ele>
        <time>2016-04-10T07:28:05.000Z</time>
      </trkpt>
      <trkpt lat="47.54066" lon="6.76118">
        <ele>436</ele>
        <time>2016-04-10T07:28:06.000Z</time>
      </trkpt>
      <trkpt lat="47.54067" lon="6.76112">
        <ele>436</ele>
        <time>2016-04-10T07:28:07.000Z</time>
      </trkpt>
      <trkpt lat="47.54069" lon="6.76106">
        <ele>437</ele>
        <time>2016-04-10T07:28:08.000Z</time>
      </trkpt>
      <trkpt lat="47.54071" lon="6.76099">
        <ele>437</ele>
        <time>2016-04-10T07:28:09.000Z</time>
      </trkpt>
      <trkpt lat="47.54075" lon="6.76091">
        <ele>437</ele>
        <time>2016-04-10T07:28:10.000Z</time>
      </trkpt>
      <trkpt lat="47.54078" lon="6.76083">
        <ele>438</ele>
        <time>2016-04-10T07:28:11.000Z</time>
      </trkpt>
      <trkpt lat="47.54086" lon="6.7606">
        <ele>437</ele>
        <time>2016-04-10T07:28:12.000Z</time>
      </trkpt>
      <trkpt lat="47.54089" lon="6.7605">
        <ele>436</ele>
        <time>2016-04-10T07:28:13.000Z</time>
      </trkpt>
      <trkpt lat="47.54092" lon="6.76043">
        <ele>436</ele>
        <time>2016-04-10T07:28:14.000Z</time>
      </trkpt>
      <trkpt lat="47.54095" lon="6.76039">
        <ele>436</ele>
        <time>2016-04-10T07:28:15.000Z</time>
      </trkpt>
      <trkpt lat="47.54096" lon="6.76034">
        <ele>436</ele>
        <time>2016-04-10T07:28:16.000Z</time>
      </trkpt>
      <trkpt lat="47.54098" lon="6.76027">
        <ele>436</ele>
        <time>2016-04-10T07:28:17.000Z</time>
      </trkpt>
      <trkpt lat="47.541" lon="6.76022">
        <ele>436</ele>
        <time>2016-04-10T07:28:18.000Z</time>
      </trkpt>
      <trkpt lat="47.541" lon="6.76015">
        <ele>436</ele>
        <time>2016-04-10T07:28:19.000Z</time>
      </trkpt>
      <trkpt lat="47.54101" lon="6.7601">
        <ele>437</ele>
        <time>2016-04-10T07:28:20.000Z</time>
      </trkpt>
      <trkpt lat="47.54102" lon="6.76001">
        <ele>437</ele>
        <time>2016-04-10T07:28:21.000Z</time>
      </trkpt>
      <trkpt lat="47.54103" lon="6.75995">
        <ele>437</ele>
        <time>2016-04-10T07:28:22.000Z</time>
      </trkpt>
      <trkpt lat="47.54104" lon="6.75988">
        <ele>437</ele>
        <time>2016-04-10T07:28:23.000Z</time>
      </trkpt>
      <trkpt lat="47.54106" lon="6.75981">
        <ele>437</ele>
        <time>2016-04-10T07:28:24.000Z</time>
      </trkpt>
      <trkpt lat="47.54107" lon="6.75975">
        <ele>437</ele>
        <time>2016-04-10T07:28:25.000Z</time>
      </trkpt>
      <trkpt lat="47.54108" lon="6.75968">
        <ele>437</ele>
        <time>2016-04-10T07:28:26.000Z</time>
      </trkpt>
      <trkpt lat="47.54112" lon="6.75954">
        <ele>437</ele>
        <time>2016-04-10T07:28:27.000Z</time>
      </trkpt>
      <trkpt lat="47.54114" lon="6.75947">
        <ele>437</ele>
        <time>2016-04-10T07:28:28.000Z</time>
      </trkpt>
      <trkpt lat="47.54115" lon="6.75944">
        <ele>437</ele>
        <time>2016-04-10T07:28:29.000Z</time>
      </trkpt>
      <trkpt lat="47.54115" lon="6.75939">
        <ele>437</ele>
        <time>2016-04-10T07:28:30.000Z</time>
      </trkpt>
      <trkpt lat="47.54112" lon="6.75933">
        <ele>437</ele>
        <time>2016-04-10T07:28:31.000Z</time>
      </trkpt>
      <trkpt lat="47.54111" lon="6.7593">
        <ele>437</ele>
        <time>2016-04-10T07:28:32.000Z</time>
      </trkpt>
      <trkpt lat="47.54109" lon="6.75926">
        <ele>437</ele>
        <time>2016-04-10T07:28:33.000Z</time>
      </trkpt>
      <trkpt lat="47.5411" lon="6.7592">
        <ele>437</ele>
        <time>2016-04-10T07:28:34.000Z</time>
      </trkpt>
      <trkpt lat="47.5411" lon="6.75914">
        <ele>438</ele>
        <time>2016-04-10T07:28:35.000Z</time>
      </trkpt>
      <trkpt lat="47.54111" lon="6.75908">
        <ele>438</ele>
        <time>2016-04-10T07:28:36.000Z</time>
      </trkpt>
      <trkpt lat="47.5411" lon="6.75904">
        <ele>439</ele>
        <time>2016-04-10T07:28:37.000Z</time>
      </trkpt>
      <trkpt lat="47.5411" lon="6.75899">
        <ele>439</ele>
        <time>2016-04-10T07:28:38.000Z</time>
      </trkpt>
      <trkpt lat="47.5411" lon="6.75895">
        <ele>439</ele>
        <time>2016-04-10T07:28:39.000Z</time>
      </trkpt>
      <trkpt lat="47.54111" lon="6.75889">
        <ele>439</ele>
        <time>2016-04-10T07:28:40.000Z</time>
      </trkpt>
      <trkpt lat="47.54112" lon="6.75884">
        <ele>439</ele>
        <time>2016-04-10T07:28:41.000Z</time>
      </trkpt>
      <trkpt lat="47.54114" lon="6.75879">
        <ele>439</ele>
        <time>2016-04-10T07:28:42.000Z</time>
      </trkpt>
      <trkpt lat="47.54116" lon="6.75874">
        <ele>439</ele>
        <time>2016-04-10T07:28:43.000Z</time>
      </trkpt>
      <trkpt lat="47.54119" lon="6.75869">
        <ele>439</ele>
        <time>2016-04-10T07:28:44.000Z</time>
      </trkpt>
      <trkpt lat="47.54121" lon="6.75863">
        <ele>439</ele>
        <time>2016-04-10T07:28:45.000Z</time>
      </trkpt>
      <trkpt lat="47.54123" lon="6.75856">
        <ele>439</ele>
        <time>2016-04-10T07:28:46.000Z</time>
      </trkpt>
      <trkpt lat="47.54125" lon="6.75849">
        <ele>439</ele>
        <time>2016-04-10T07:28:47.000Z</time>
      </trkpt>
      <trkpt lat="47.54127" lon="6.75842">
        <ele>440</ele>
        <time>2016-04-10T07:28:48.000Z</time>
      </trkpt>
      <trkpt lat="47.5413" lon="6.75835">
        <ele>440</ele>
        <time>2016-04-10T07:28:49.000Z</time>
      </trkpt>
      <trkpt lat="47.54133" lon="6.75829">
        <ele>442</ele>
        <time>2016-04-10T07:28:50.000Z</time>
      </trkpt>
      <trkpt lat="47.54135" lon="6.75824">
        <ele>442</ele>
        <time>2016-04-10T07:28:51.000Z</time>
      </trkpt>
      <trkpt lat="47.54138" lon="6.75819">
        <ele>442</ele>
        <time>2016-04-10T07:28:52.000Z</time>
      </trkpt>
      <trkpt lat="47.5414" lon="6.75815">
        <ele>443</ele>
        <time>2016-04-10T07:28:53.000Z</time>
      </trkpt>
      <trkpt lat="47.54142" lon="6.75811">
        <ele>443</ele>
        <time>2016-04-10T07:28:54.000Z</time>
      </trkpt>
      <trkpt lat="47.54145" lon="6.75808">
        <ele>443</ele>
        <time>2016-04-10T07:28:55.000Z</time>
      </trkpt>
      <trkpt lat="47.54147" lon="6.75804">
        <ele>443</ele>
        <time>2016-04-10T07:28:56.000Z</time>
      </trkpt>
      <trkpt lat="47.54148" lon="6.758">
        <ele>443</ele>
        <time>2016-04-10T07:28:57.000Z</time>
      </trkpt>
      <trkpt lat="47.54149" lon="6.75795">
        <ele>443</ele>
        <time>2016-04-10T07:28:58.000Z</time>
      </trkpt>
      <trkpt lat="47.5415" lon="6.7579">
        <ele>444</ele>
        <time>2016-04-10T07:28:59.000Z</time>
      </trkpt>
      <trkpt lat="47.54151" lon="6.75786">
        <ele>444</ele>
        <time>2016-04-10T07:29:00.000Z</time>
      </trkpt>
      <trkpt lat="47.54152" lon="6.75783">
        <ele>444</ele>
        <time>2016-04-10T07:29:01.000Z</time>
      </trkpt>
      <trkpt lat="47.54154" lon="6.75779">
        <ele>444</ele>
        <time>2016-04-10T07:29:02.000Z</time>
      </trkpt>
      <trkpt lat="47.54156" lon="6.75774">
        <ele>445</ele>
        <time>2016-04-10T07:29:04.000Z</time>
      </trkpt>
      <trkpt lat="47.54157" lon="6.75772">
        <ele>445</ele>
        <time>2016-04-10T07:29:05.000Z</time>
      </trkpt>
      <trkpt lat="47.54158" lon="6.75766">
        <ele>446</ele>
        <time>2016-04-10T07:29:07.000Z</time>
      </trkpt>
      <trkpt lat="47.54159" lon="6.75763">
        <ele>446</ele>
        <time>2016-04-10T07:29:08.000Z</time>
      </trkpt>
      <trkpt lat="47.54159" lon="6.75757">
        <ele>447</ele>
        <time>2016-04-10T07:29:10.000Z</time>
      </trkpt>
      <trkpt lat="47.5416" lon="6.75754">
        <ele>447</ele>
        <time>2016-04-10T07:29:11.000Z</time>
      </trkpt>
      <trkpt lat="47.5416" lon="6.7575">
        <ele>447</ele>
        <time>2016-04-10T07:29:12.000Z</time>
      </trkpt>
      <trkpt lat="47.5416" lon="6.75747">
        <ele>448</ele>
        <time>2016-04-10T07:29:13.000Z</time>
      </trkpt>
      <trkpt lat="47.54161" lon="6.75744">
        <ele>448</ele>
        <time>2016-04-10T07:29:14.000Z</time>
      </trkpt>
      <trkpt lat="47.54161" lon="6.7574">
        <ele>448</ele>
        <time>2016-04-10T07:29:15.000Z</time>
      </trkpt>
      <trkpt lat="47.54162" lon="6.75737">
        <ele>448</ele>
        <time>2016-04-10T07:29:16.000Z</time>
      </trkpt>
      <trkpt lat="47.54162" lon="6.75733">
        <ele>448</ele>
        <time>2016-04-10T07:29:17.000Z</time>
      </trkpt>
      <trkpt lat="47.54163" lon="6.75729">
        <ele>448</ele>
        <time>2016-04-10T07:29:18.000Z</time>
      </trkpt>
      <trkpt lat="47.54164" lon="6.75726">
        <ele>448</ele>
        <time>2016-04-10T07:29:19.000Z</time>
      </trkpt>
      <trkpt lat="47.54164" lon="6.75723">
        <ele>448</ele>
        <time>2016-04-10T07:29:20.000Z</time>
      </trkpt>
      <trkpt lat="47.54165" lon="6.75719">
        <ele>448</ele>
        <time>2016-04-10T07:29:21.000Z</time>
      </trkpt>
      <trkpt lat="47.54166" lon="6.75716">
        <ele>448</ele>
        <time>2016-04-10T07:29:22.000Z</time>
      </trkpt>
      <trkpt lat="47.54166" lon="6.75712">
        <ele>448</ele>
        <time>2016-04-10T07:29:23.000Z</time>
      </trkpt>
      <trkpt lat="47.54168" lon="6.75706">
        <ele>450</ele>
        <time>2016-04-10T07:29:25.000Z</time>
      </trkpt>
      <trkpt lat="47.54168" lon="6.75702">
        <ele>450</ele>
        <time>2016-04-10T07:29:26.000Z</time>
      </trkpt>
      <trkpt lat="47.5417" lon="6.75698">
        <ele>450</ele>
        <time>2016-04-10T07:29:27.000Z</time>
      </trkpt>
      <trkpt lat="47.54171" lon="6.75693">
        <ele>450</ele>
        <time>2016-04-10T07:29:28.000Z</time>
      </trkpt>
      <trkpt lat="47.54173" lon="6.75688">
        <ele>451</ele>
        <time>2016-04-10T07:29:29.000Z</time>
      </trkpt>
      <trkpt lat="47.54174" lon="6.75684">
        <ele>451</ele>
        <time>2016-04-10T07:29:30.000Z</time>
      </trkpt>
      <trkpt lat="47.54176" lon="6.75681">
        <ele>451</ele>
        <time>2016-04-10T07:29:31.000Z</time>
      </trkpt>
      <trkpt lat="47.54177" lon="6.75677">
        <ele>451</ele>
        <time>2016-04-10T07:29:32.000Z</time>
      </trkpt>
      <trkpt lat="47.54178" lon="6.75674">
        <ele>451</ele>
        <time>2016-04-10T07:29:33.000Z</time>
      </trkpt>
      <trkpt lat="47.54179" lon="6.7567">
        <ele>451</ele>
        <time>2016-04-10T07:29:34.000Z</time>
      </trkpt>
      <trkpt lat="47.5418" lon="6.75664">
        <ele>452</ele>
        <time>2016-04-10T07:29:36.000Z</time>
      </trkpt>
      <trkpt lat="47.54181" lon="6.75661">
        <ele>452</ele>
        <time>2016-04-10T07:29:37.000Z</time>
      </trkpt>
      <trkpt lat="47.54183" lon="6.75658">
        <ele>452</ele>
        <time>2016-04-10T07:29:38.000Z</time>
      </trkpt>
      <trkpt lat="47.54184" lon="6.75655">
        <ele>452</ele>
        <time>2016-04-10T07:29:39.000Z</time>
      </trkpt>
      <trkpt lat="47.54186" lon="6.75651">
        <ele>452</ele>
        <time>2016-04-10T07:29:40.000Z</time>
      </trkpt>
      <trkpt lat="47.54187" lon="6.75647">
        <ele>452</ele>
        <time>2016-04-10T07:29:41.000Z</time>
      </trkpt>
      <trkpt lat="47.54188" lon="6.75644">
        <ele>452</ele>
        <time>2016-04-10T07:29:42.000Z</time>
      </trkpt>
      <trkpt lat="47.54189" lon="6.7564">
        <ele>452</ele>
        <time>2016-04-10T07:29:43.000Z</time>
      </trkpt>
      <trkpt lat="47.5419" lon="6.75634">
        <ele>453</ele>
        <time>2016-04-10T07:29:45.000Z</time>
      </trkpt>
      <trkpt lat="47.54191" lon="6.75631">
        <ele>453</ele>
        <time>2016-04-10T07:29:46.000Z</time>
      </trkpt>
      <trkpt lat="47.54193" lon="6.75626">
        <ele>453</ele>
        <time>2016-04-10T07:29:48.000Z</time>
      </trkpt>
      <trkpt lat="47.54194" lon="6.75623">
        <ele>453</ele>
        <time>2016-04-10T07:29:49.000Z</time>
      </trkpt>
      <trkpt lat="47.54196" lon="6.75618">
        <ele>453</ele>
        <time>2016-04-10T07:29:51.000Z</time>
      </trkpt>
      <trkpt lat="47.54197" lon="6.75615">
        <ele>453</ele>
        <time>2016-04-10T07:29:52.000Z</time>
      </trkpt>
      <trkpt lat="47.54198" lon="6.75609">
        <ele>453</ele>
        <time>2016-04-10T07:29:54.000Z</time>
      </trkpt>
      <trkpt lat="47.54199" lon="6.75606">
        <ele>453</ele>
        <time>2016-04-10T07:29:55.000Z</time>
      </trkpt>
      <trkpt lat="47.54201" lon="6.75602">
        <ele>453</ele>
        <time>2016-04-10T07:29:56.000Z</time>
      </trkpt>
      <trkpt lat="47.54202" lon="6.75598">
        <ele>453</ele>
        <time>2016-04-10T07:29:57.000Z</time>
      </trkpt>
      <trkpt lat="47.54204" lon="6.75595">
        <ele>453</ele>
        <time>2016-04-10T07:29:58.000Z</time>
      </trkpt>
      <trkpt lat="47.54205" lon="6.75592">
        <ele>453</ele>
        <time>2016-04-10T07:29:59.000Z</time>
      </trkpt>
      <trkpt lat="47.54207" lon="6.75587">
        <ele>454</ele>
        <time>2016-04-10T07:30:01.000Z</time>
      </trkpt>
      <trkpt lat="47.54208" lon="6.75583">
        <ele>454</ele>
        <time>2016-04-10T07:30:02.000Z</time>
      </trkpt>
      <trkpt lat="47.54209" lon="6.7558">
        <ele>455</ele>
        <time>2016-04-10T07:30:03.000Z</time>
      </trkpt>
      <trkpt lat="47.5421" lon="6.75577">
        <ele>455</ele>
        <time>2016-04-10T07:30:04.000Z</time>
      </trkpt>
      <trkpt lat="47.54213" lon="6.75572">
        <ele>455</ele>
        <time>2016-04-10T07:30:06.000Z</time>
      </trkpt>
      <trkpt lat="47.54214" lon="6.7557">
        <ele>455</ele>
        <time>2016-04-10T07:30:07.000Z</time>
      </trkpt>
      <trkpt lat="47.54217" lon="6.75566">
        <ele>455</ele>
        <time>2016-04-10T07:30:09.000Z</time>
      </trkpt>
      <trkpt lat="47.54218" lon="6.75562">
        <ele>455</ele>
        <time>2016-04-10T07:30:10.000Z</time>
      </trkpt>
      <trkpt lat="47.5422" lon="6.75559">
        <ele>455</ele>
        <time>2016-04-10T07:30:11.000Z</time>
      </trkpt>
      <trkpt lat="47.54221" lon="6.75556">
        <ele>455</ele>
        <time>2016-04-10T07:30:12.000Z</time>
      </trkpt>
      <trkpt lat="47.54223" lon="6.7555">
        <ele>455</ele>
        <time>2016-04-10T07:30:14.000Z</time>
      </trkpt>
      <trkpt lat="47.54223" lon="6.75548">
        <ele>455</ele>
        <time>2016-04-10T07:30:15.000Z</time>
      </trkpt>
      <trkpt lat="47.54221" lon="6.75543">
        <ele>456</ele>
        <time>2016-04-10T07:30:17.000Z</time>
      </trkpt>
      <trkpt lat="47.5422" lon="6.7554">
        <ele>456</ele>
        <time>2016-04-10T07:30:18.000Z</time>
      </trkpt>
      <trkpt lat="47.54218" lon="6.75536">
        <ele>456</ele>
        <time>2016-04-10T07:30:20.000Z</time>
      </trkpt>
      <trkpt lat="47.54219" lon="6.75533">
        <ele>456</ele>
        <time>2016-04-10T07:30:21.000Z</time>
      </trkpt>
      <trkpt lat="47.5422" lon="6.75528">
        <ele>456</ele>
        <time>2016-04-10T07:30:23.000Z</time>
      </trkpt>
      <trkpt lat="47.5422" lon="6.75525">
        <ele>456</ele>
        <time>2016-04-10T07:30:24.000Z</time>
      </trkpt>
      <trkpt lat="47.54221" lon="6.75519">
        <ele>456</ele>
        <time>2016-04-10T07:30:26.000Z</time>
      </trkpt>
      <trkpt lat="47.54222" lon="6.75517">
        <ele>456</ele>
        <time>2016-04-10T07:30:27.000Z</time>
      </trkpt>
      <trkpt lat="47.54225" lon="6.75512">
        <ele>456</ele>
        <time>2016-04-10T07:30:29.000Z</time>
      </trkpt>
      <trkpt lat="47.54226" lon="6.7551">
        <ele>456</ele>
        <time>2016-04-10T07:30:30.000Z</time>
      </trkpt>
      <trkpt lat="47.54227" lon="6.75507">
        <ele>456</ele>
        <time>2016-04-10T07:30:31.000Z</time>
      </trkpt>
      <trkpt lat="47.54228" lon="6.75504">
        <ele>456</ele>
        <time>2016-04-10T07:30:32.000Z</time>
      </trkpt>
      <trkpt lat="47.54229" lon="6.75501">
        <ele>456</ele>
        <time>2016-04-10T07:30:33.000Z</time>
      </trkpt>
      <trkpt lat="47.54231" lon="6.75498">
        <ele>457</ele>
        <time>2016-04-10T07:30:34.000Z</time>
      </trkpt>
      <trkpt lat="47.54232" lon="6.75494">
        <ele>457</ele>
        <time>2016-04-10T07:30:35.000Z</time>
      </trkpt>
      <trkpt lat="47.54234" lon="6.7549">
        <ele>457</ele>
        <time>2016-04-10T07:30:36.000Z</time>
      </trkpt>
      <trkpt lat="47.54236" lon="6.75487">
        <ele>457</ele>
        <time>2016-04-10T07:30:37.000Z</time>
      </trkpt>
      <trkpt lat="47.54238" lon="6.75484">
        <ele>457</ele>
        <time>2016-04-10T07:30:38.000Z</time>
      </trkpt>
      <trkpt lat="47.5424" lon="6.75482">
        <ele>457</ele>
        <time>2016-04-10T07:30:39.000Z</time>
      </trkpt>
      <trkpt lat="47.54242" lon="6.75479">
        <ele>457</ele>
        <time>2016-04-10T07:30:40.000Z</time>
      </trkpt>
      <trkpt lat="47.54243" lon="6.75477">
        <ele>457</ele>
        <time>2016-04-10T07:30:41.000Z</time>
      </trkpt>
      <trkpt lat="47.54245" lon="6.75474">
        <ele>457</ele>
        <time>2016-04-10T07:30:42.000Z</time>
      </trkpt>
      <trkpt lat="47.54246" lon="6.75471">
        <ele>457</ele>
        <time>2016-04-10T07:30:43.000Z</time>
      </trkpt>
      <trkpt lat="47.54247" lon="6.75468">
        <ele>457</ele>
        <time>2016-04-10T07:30:44.000Z</time>
      </trkpt>
      <trkpt lat="47.54248" lon="6.75464">
        <ele>458</ele>
        <time>2016-04-10T07:30:45.000Z</time>
      </trkpt>
      <trkpt lat="47.54249" lon="6.7546">
        <ele>458</ele>
        <time>2016-04-10T07:30:46.000Z</time>
      </trkpt>
      <trkpt lat="47.54249" lon="6.75457">
        <ele>458</ele>
        <time>2016-04-10T07:30:47.000Z</time>
      </trkpt>
      <trkpt lat="47.5425" lon="6.75454">
        <ele>458</ele>
        <time>2016-04-10T07:30:48.000Z</time>
      </trkpt>
      <trkpt lat="47.54251" lon="6.75448">
        <ele>460</ele>
        <time>2016-04-10T07:30:50.000Z</time>
      </trkpt>
      <trkpt lat="47.54251" lon="6.75446">
        <ele>460</ele>
        <time>2016-04-10T07:30:51.000Z</time>
      </trkpt>
      <trkpt lat="47.54253" lon="6.75442">
        <ele>460</ele>
        <time>2016-04-10T07:30:53.000Z</time>
      </trkpt>
      <trkpt lat="47.54254" lon="6.7544">
        <ele>460</ele>
        <time>2016-04-10T07:30:54.000Z</time>
      </trkpt>
      <trkpt lat="47.54257" lon="6.75436">
        <ele>460</ele>
        <time>2016-04-10T07:30:56.000Z</time>
      </trkpt>
      <trkpt lat="47.54259" lon="6.75433">
        <ele>460</ele>
        <time>2016-04-10T07:30:57.000Z</time>
      </trkpt>
      <trkpt lat="47.5426" lon="6.75431">
        <ele>460</ele>
        <time>2016-04-10T07:30:58.000Z</time>
      </trkpt>
      <trkpt lat="47.54262" lon="6.75428">
        <ele>460</ele>
        <time>2016-04-10T07:30:59.000Z</time>
      </trkpt>
      <trkpt lat="47.54263" lon="6.75424">
        <ele>460</ele>
        <time>2016-04-10T07:31:00.000Z</time>
      </trkpt>
      <trkpt lat="47.54265" lon="6.75421">
        <ele>460</ele>
        <time>2016-04-10T07:31:01.000Z</time>
      </trkpt>
      <trkpt lat="47.54266" lon="6.75418">
        <ele>460</ele>
        <time>2016-04-10T07:31:02.000Z</time>
      </trkpt>
      <trkpt lat="47.54267" lon="6.75414">
        <ele>461</ele>
        <time>2016-04-10T07:31:03.000Z</time>
      </trkpt>
      <trkpt lat="47.54267" lon="6.75411">
        <ele>461</ele>
        <time>2016-04-10T07:31:04.000Z</time>
      </trkpt>
      <trkpt lat="47.54268" lon="6.75407">
        <ele>461</ele>
        <time>2016-04-10T07:31:05.000Z</time>
      </trkpt>
      <trkpt lat="47.54269" lon="6.75401">
        <ele>462</ele>
        <time>2016-04-10T07:31:07.000Z</time>
      </trkpt>
      <trkpt lat="47.5427" lon="6.75399">
        <ele>462</ele>
        <time>2016-04-10T07:31:08.000Z</time>
      </trkpt>
      <trkpt lat="47.54272" lon="6.75395">
        <ele>462</ele>
        <time>2016-04-10T07:31:10.000Z</time>
      </trkpt>
      <trkpt lat="47.54273" lon="6.75393">
        <ele>462</ele>
        <time>2016-04-10T07:31:11.000Z</time>
      </trkpt>
      <trkpt lat="47.54276" lon="6.75389">
        <ele>462</ele>
        <time>2016-04-10T07:31:13.000Z</time>
      </trkpt>
      <trkpt lat="47.54278" lon="6.75387">
        <ele>462</ele>
        <time>2016-04-10T07:31:14.000Z</time>
      </trkpt>
      <trkpt lat="47.54281" lon="6.75383">
        <ele>462</ele>
        <time>2016-04-10T07:31:16.000Z</time>
      </trkpt>
      <trkpt lat="47.54282" lon="6.7538">
        <ele>462</ele>
        <time>2016-04-10T07:31:17.000Z</time>
      </trkpt>
      <trkpt lat="47.54284" lon="6.75378">
        <ele>462</ele>
        <time>2016-04-10T07:31:18.000Z</time>
      </trkpt>
      <trkpt lat="47.54285" lon="6.75375">
        <ele>462</ele>
        <time>2016-04-10T07:31:19.000Z</time>
      </trkpt>
      <trkpt lat="47.54288" lon="6.7537">
        <ele>462</ele>
        <time>2016-04-10T07:31:21.000Z</time>
      </trkpt>
      <trkpt lat="47.5429" lon="6.75369">
        <ele>463</ele>
        <time>2016-04-10T07:31:22.000Z</time>
      </trkpt>
      <trkpt lat="47.54292" lon="6.75364">
        <ele>463</ele>
        <time>2016-04-10T07:31:25.000Z</time>
      </trkpt>
      <trkpt lat="47.54293" lon="6.75361">
        <ele>463</ele>
        <time>2016-04-10T07:31:26.000Z</time>
      </trkpt>
      <trkpt lat="47.54295" lon="6.75356">
        <ele>463</ele>
        <time>2016-04-10T07:31:28.000Z</time>
      </trkpt>
      <trkpt lat="47.54297" lon="6.75353">
        <ele>463</ele>
        <time>2016-04-10T07:31:29.000Z</time>
      </trkpt>
      <trkpt lat="47.54299" lon="6.7535">
        <ele>463</ele>
        <time>2016-04-10T07:31:30.000Z</time>
      </trkpt>
      <trkpt lat="47.54301" lon="6.75348">
        <ele>463</ele>
        <time>2016-04-10T07:31:31.000Z</time>
      </trkpt>
      <trkpt lat="47.54303" lon="6.75345">
        <ele>463</ele>
        <time>2016-04-10T07:31:32.000Z</time>
      </trkpt>
      <trkpt lat="47.54305" lon="6.75342">
        <ele>463</ele>
        <time>2016-04-10T07:31:33.000Z</time>
      </trkpt>
      <trkpt lat="47.54306" lon="6.7534">
        <ele>464</ele>
        <time>2016-04-10T07:31:34.000Z</time>
      </trkpt>
      <trkpt lat="47.54308" lon="6.75337">
        <ele>464</ele>
        <time>2016-04-10T07:31:35.000Z</time>
      </trkpt>
      <trkpt lat="47.54311" lon="6.75333">
        <ele>465</ele>
        <time>2016-04-10T07:31:37.000Z</time>
      </trkpt>
      <trkpt lat="47.54313" lon="6.75331">
        <ele>465</ele>
        <time>2016-04-10T07:31:38.000Z</time>
      </trkpt>
      <trkpt lat="47.54317" lon="6.75327">
        <ele>465</ele>
        <time>2016-04-10T07:31:40.000Z</time>
      </trkpt>
      <trkpt lat="47.54318" lon="6.75324">
        <ele>465</ele>
        <time>2016-04-10T07:31:41.000Z</time>
      </trkpt>
      <trkpt lat="47.5432" lon="6.75321">
        <ele>465</ele>
        <time>2016-04-10T07:31:42.000Z</time>
      </trkpt>
      <trkpt lat="47.54322" lon="6.75318">
        <ele>465</ele>
        <time>2016-04-10T07:31:43.000Z</time>
      </trkpt>
      <trkpt lat="47.54324" lon="6.75314">
        <ele>465</ele>
        <time>2016-04-10T07:31:44.000Z</time>
      </trkpt>
      <trkpt lat="47.54325" lon="6.75311">
        <ele>465</ele>
        <time>2016-04-10T07:31:45.000Z</time>
      </trkpt>
      <trkpt lat="47.54328" lon="6.75307">
        <ele>465</ele>
        <time>2016-04-10T07:31:47.000Z</time>
      </trkpt>
      <trkpt lat="47.54329" lon="6.75305">
        <ele>465</ele>
        <time>2016-04-10T07:31:48.000Z</time>
      </trkpt>
      <trkpt lat="47.5433" lon="6.75299">
        <ele>465</ele>
        <time>2016-04-10T07:31:50.000Z</time>
      </trkpt>
      <trkpt lat="47.54331" lon="6.75296">
        <ele>465</ele>
        <time>2016-04-10T07:31:51.000Z</time>
      </trkpt>
      <trkpt lat="47.54332" lon="6.75294">
        <ele>465</ele>
        <time>2016-04-10T07:31:52.000Z</time>
      </trkpt>
      <trkpt lat="47.54334" lon="6.75292">
        <ele>467</ele>
        <time>2016-04-10T07:31:53.000Z</time>
      </trkpt>
      <trkpt lat="47.54337" lon="6.7529">
        <ele>467</ele>
        <time>2016-04-10T07:31:54.000Z</time>
      </trkpt>
      <trkpt lat="47.5434" lon="6.75288">
        <ele>468</ele>
        <time>2016-04-10T07:31:55.000Z</time>
      </trkpt>
      <trkpt lat="47.54343" lon="6.75285">
        <ele>468</ele>
        <time>2016-04-10T07:31:56.000Z</time>
      </trkpt>
      <trkpt lat="47.54345" lon="6.75282">
        <ele>468</ele>
        <time>2016-04-10T07:31:57.000Z</time>
      </trkpt>
      <trkpt lat="47.54348" lon="6.75279">
        <ele>468</ele>
        <time>2016-04-10T07:31:58.000Z</time>
      </trkpt>
      <trkpt lat="47.54351" lon="6.75275">
        <ele>468</ele>
        <time>2016-04-10T07:31:59.000Z</time>
      </trkpt>
      <trkpt lat="47.54354" lon="6.75271">
        <ele>468</ele>
        <time>2016-04-10T07:32:00.000Z</time>
      </trkpt>
      <trkpt lat="47.54356" lon="6.75266">
        <ele>468</ele>
        <time>2016-04-10T07:32:01.000Z</time>
      </trkpt>
      <trkpt lat="47.54358" lon="6.75262">
        <ele>468</ele>
        <time>2016-04-10T07:32:02.000Z</time>
      </trkpt>
      <trkpt lat="47.5436" lon="6.75257">
        <ele>468</ele>
        <time>2016-04-10T07:32:03.000Z</time>
      </trkpt>
      <trkpt lat="47.54362" lon="6.75253">
        <ele>468</ele>
        <time>2016-04-10T07:32:04.000Z</time>
      </trkpt>
      <trkpt lat="47.54365" lon="6.75249">
        <ele>468</ele>
        <time>2016-04-10T07:32:05.000Z</time>
      </trkpt>
      <trkpt lat="47.54367" lon="6.75244">
        <ele>468</ele>
        <time>2016-04-10T07:32:06.000Z</time>
      </trkpt>
      <trkpt lat="47.5437" lon="6.7524">
        <ele>468</ele>
        <time>2016-04-10T07:32:07.000Z</time>
      </trkpt>
      <trkpt lat="47.54372" lon="6.75236">
        <ele>468</ele>
        <time>2016-04-10T07:32:08.000Z</time>
      </trkpt>
      <trkpt lat="47.54375" lon="6.75232">
        <ele>468</ele>
        <time>2016-04-10T07:32:09.000Z</time>
      </trkpt>
      <trkpt lat="47.54378" lon="6.75229">
        <ele>469</ele>
        <time>2016-04-10T07:32:10.000Z</time>
      </trkpt>
      <trkpt lat="47.54381" lon="6.75226">
        <ele>469</ele>
        <time>2016-04-10T07:32:11.000Z</time>
      </trkpt>
      <trkpt lat="47.54384" lon="6.75223">
        <ele>469</ele>
        <time>2016-04-10T07:32:12.000Z</time>
      </trkpt>
      <trkpt lat="47.54387" lon="6.7522">
        <ele>469</ele>
        <time>2016-04-10T07:32:13.000Z</time>
      </trkpt>
      <trkpt lat="47.54389" lon="6.75217">
        <ele>469</ele>
        <time>2016-04-10T07:32:14.000Z</time>
      </trkpt>
      <trkpt lat="47.54392" lon="6.75214">
        <ele>469</ele>
        <time>2016-04-10T07:32:15.000Z</time>
      </trkpt>
      <trkpt lat="47.54395" lon="6.75212">
        <ele>469</ele>
        <time>2016-04-10T07:32:16.000Z</time>
      </trkpt>
      <trkpt lat="47.54398" lon="6.7521">
        <ele>469</ele>
        <time>2016-04-10T07:32:17.000Z</time>
      </trkpt>
      <trkpt lat="47.544" lon="6.75207">
        <ele>469</ele>
        <time>2016-04-10T07:32:18.000Z</time>
      </trkpt>
      <trkpt lat="47.54403" lon="6.75205">
        <ele>469</ele>
        <time>2016-04-10T07:32:19.000Z</time>
      </trkpt>
      <trkpt lat="47.54405" lon="6.75203">
        <ele>469</ele>
        <time>2016-04-10T07:32:20.000Z</time>
      </trkpt>
      <trkpt lat="47.54408" lon="6.752">
        <ele>469</ele>
        <time>2016-04-10T07:32:21.000Z</time>
      </trkpt>
      <trkpt lat="47.54411" lon="6.75198">
        <ele>469</ele>
        <time>2016-04-10T07:32:22.000Z</time>
      </trkpt>
      <trkpt lat="47.54414" lon="6.75197">
        <ele>469</ele>
        <time>2016-04-10T07:32:23.000Z</time>
      </trkpt>
      <trkpt lat="47.54416" lon="6.75195">
        <ele>469</ele>
        <time>2016-04-10T07:32:24.000Z</time>
      </trkpt>
      <trkpt lat="47.54419" lon="6.75193">
        <ele>471</ele>
        <time>2016-04-10T07:32:25.000Z</time>
      </trkpt>
      <trkpt lat="47.54421" lon="6.75191">
        <ele>471</ele>
        <time>2016-04-10T07:32:26.000Z</time>
      </trkpt>
      <trkpt lat="47.54424" lon="6.75189">
        <ele>471</ele>
        <time>2016-04-10T07:32:27.000Z</time>
      </trkpt>
      <trkpt lat="47.54426" lon="6.75188">
        <ele>471</ele>
        <time>2016-04-10T07:32:28.000Z</time>
      </trkpt>
      <trkpt lat="47.54429" lon="6.75186">
        <ele>471</ele>
        <time>2016-04-10T07:32:29.000Z</time>
      </trkpt>
      <trkpt lat="47.54432" lon="6.75185">
        <ele>471</ele>
        <time>2016-04-10T07:32:30.000Z</time>
      </trkpt>
      <trkpt lat="47.54434" lon="6.75183">
        <ele>471</ele>
        <time>2016-04-10T07:32:31.000Z</time>
      </trkpt>
      <trkpt lat="47.54437" lon="6.75181">
        <ele>471</ele>
        <time>2016-04-10T07:32:32.000Z</time>
      </trkpt>
      <trkpt lat="47.54439" lon="6.75179">
        <ele>471</ele>
        <time>2016-04-10T07:32:33.000Z</time>
      </trkpt>
      <trkpt lat="47.54442" lon="6.75177">
        <ele>471</ele>
        <time>2016-04-10T07:32:34.000Z</time>
      </trkpt>
      <trkpt lat="47.54445" lon="6.75175">
        <ele>471</ele>
        <time>2016-04-10T07:32:35.000Z</time>
      </trkpt>
      <trkpt lat="47.54447" lon="6.75173">
        <ele>471</ele>
        <time>2016-04-10T07:32:36.000Z</time>
      </trkpt>
      <trkpt lat="47.5445" lon="6.75171">
        <ele>471</ele>
        <time>2016-04-10T07:32:37.000Z</time>
      </trkpt>
      <trkpt lat="47.54452" lon="6.75169">
        <ele>471</ele>
        <time>2016-04-10T07:32:38.000Z</time>
      </trkpt>
      <trkpt lat="47.54454" lon="6.75167">
        <ele>471</ele>
        <time>2016-04-10T07:32:39.000Z</time>
      </trkpt>
      <trkpt lat="47.54456" lon="6.75164">
        <ele>471</ele>
        <time>2016-04-10T07:32:40.000Z</time>
      </trkpt>
      <trkpt lat="47.54458" lon="6.75161">
        <ele>471</ele>
        <time>2016-04-10T07:32:41.000Z</time>
      </trkpt>
      <trkpt lat="47.54461" lon="6.75158">
        <ele>471</ele>
        <time>2016-04-10T07:32:42.000Z</time>
      </trkpt>
      <trkpt lat="47.54464" lon="6.75157">
        <ele>471</ele>
        <time>2016-04-10T07:32:43.000Z</time>
      </trkpt>
      <trkpt lat="47.54467" lon="6.75155">
        <ele>471</ele>
        <time>2016-04-10T07:32:44.000Z</time>
      </trkpt>
      <trkpt lat="47.5447" lon="6.75154">
        <ele>471</ele>
        <time>2016-04-10T07:32:45.000Z</time>
      </trkpt>
      <trkpt lat="47.54473" lon="6.75153">
        <ele>471</ele>
        <time>2016-04-10T07:32:46.000Z</time>
      </trkpt>
      <trkpt lat="47.54476" lon="6.75152">
        <ele>470</ele>
        <time>2016-04-10T07:32:47.000Z</time>
      </trkpt>
      <trkpt lat="47.54479" lon="6.7515">
        <ele>470</ele>
        <time>2016-04-10T07:32:48.000Z</time>
      </trkpt>
      <trkpt lat="47.54483" lon="6.75148">
        <ele>470</ele>
        <time>2016-04-10T07:32:49.000Z</time>
      </trkpt>
      <trkpt lat="47.54486" lon="6.75145">
        <ele>470</ele>
        <time>2016-04-10T07:32:50.000Z</time>
      </trkpt>
      <trkpt lat="47.54488" lon="6.75141">
        <ele>470</ele>
        <time>2016-04-10T07:32:51.000Z</time>
      </trkpt>
      <trkpt lat="47.5449" lon="6.75137">
        <ele>470</ele>
        <time>2016-04-10T07:32:52.000Z</time>
      </trkpt>
      <trkpt lat="47.54493" lon="6.75132">
        <ele>470</ele>
        <time>2016-04-10T07:32:53.000Z</time>
      </trkpt>
      <trkpt lat="47.54495" lon="6.75128">
        <ele>470</ele>
        <time>2016-04-10T07:32:54.000Z</time>
      </trkpt>
      <trkpt lat="47.54498" lon="6.75125">
        <ele>470</ele>
        <time>2016-04-10T07:32:55.000Z</time>
      </trkpt>
      <trkpt lat="47.54501" lon="6.75124">
        <ele>468</ele>
        <time>2016-04-10T07:32:56.000Z</time>
      </trkpt>
      <trkpt lat="47.54505" lon="6.75123">
        <ele>468</ele>
        <time>2016-04-10T07:32:57.000Z</time>
      </trkpt>
      <trkpt lat="47.54509" lon="6.75122">
        <ele>468</ele>
        <time>2016-04-10T07:32:58.000Z</time>
      </trkpt>
      <trkpt lat="47.54512" lon="6.7512">
        <ele>468</ele>
        <time>2016-04-10T07:32:59.000Z</time>
      </trkpt>
      <trkpt lat="47.54516" lon="6.75117">
        <ele>468</ele>
        <time>2016-04-10T07:33:00.000Z</time>
      </trkpt>
      <trkpt lat="47.5452" lon="6.75115">
        <ele>468</ele>
        <time>2016-04-10T07:33:01.000Z</time>
      </trkpt>
      <trkpt lat="47.54524" lon="6.75112">
        <ele>468</ele>
        <time>2016-04-10T07:33:02.000Z</time>
      </trkpt>
      <trkpt lat="47.5453" lon="6.75111">
        <ele>468</ele>
        <time>2016-04-10T07:33:03.000Z</time>
      </trkpt>
      <trkpt lat="47.54534" lon="6.75107">
        <ele>468</ele>
        <time>2016-04-10T07:33:04.000Z</time>
      </trkpt>
      <trkpt lat="47.54538" lon="6.75102">
        <ele>467</ele>
        <time>2016-04-10T07:33:05.000Z</time>
      </trkpt>
      <trkpt lat="47.54542" lon="6.75097">
        <ele>467</ele>
        <time>2016-04-10T07:33:06.000Z</time>
      </trkpt>
      <trkpt lat="47.54546" lon="6.75092">
        <ele>467</ele>
        <time>2016-04-10T07:33:07.000Z</time>
      </trkpt>
      <trkpt lat="47.54551" lon="6.75089">
        <ele>467</ele>
        <time>2016-04-10T07:33:08.000Z</time>
      </trkpt>
      <trkpt lat="47.54555" lon="6.75085">
        <ele>466</ele>
        <time>2016-04-10T07:33:09.000Z</time>
      </trkpt>
      <trkpt lat="47.54561" lon="6.75082">
        <ele>465</ele>
        <time>2016-04-10T07:33:10.000Z</time>
      </trkpt>
      <trkpt lat="47.54566" lon="6.75079">
        <ele>465</ele>
        <time>2016-04-10T07:33:11.000Z</time>
      </trkpt>
      <trkpt lat="47.5457" lon="6.75073">
        <ele>465</ele>
        <time>2016-04-10T07:33:12.000Z</time>
      </trkpt>
      <trkpt lat="47.54576" lon="6.75068">
        <ele>465</ele>
        <time>2016-04-10T07:33:13.000Z</time>
      </trkpt>
      <trkpt lat="47.54582" lon="6.75064">
        <ele>465</ele>
        <time>2016-04-10T07:33:14.000Z</time>
      </trkpt>
      <trkpt lat="47.54589" lon="6.75062">
        <ele>461</ele>
        <time>2016-04-10T07:33:15.000Z</time>
      </trkpt>
      <trkpt lat="47.54595" lon="6.7506">
        <ele>461</ele>
        <time>2016-04-10T07:33:16.000Z</time>
      </trkpt>
      <trkpt lat="47.54601" lon="6.75058">
        <ele>460</ele>
        <time>2016-04-10T07:33:17.000Z</time>
      </trkpt>
      <trkpt lat="47.54608" lon="6.75055">
        <ele>460</ele>
        <time>2016-04-10T07:33:18.000Z</time>
      </trkpt>
      <trkpt lat="47.54614" lon="6.75052">
        <ele>460</ele>
        <time>2016-04-10T07:33:19.000Z</time>
      </trkpt>
      <trkpt lat="47.5462" lon="6.7505">
        <ele>460</ele>
        <time>2016-04-10T07:33:20.000Z</time>
      </trkpt>
      <trkpt lat="47.54626" lon="6.75047">
        <ele>459</ele>
        <time>2016-04-10T07:33:21.000Z</time>
      </trkpt>
      <trkpt lat="47.54631" lon="6.75044">
        <ele>459</ele>
        <time>2016-04-10T07:33:22.000Z</time>
      </trkpt>
      <trkpt lat="47.54636" lon="6.75041">
        <ele>459</ele>
        <time>2016-04-10T07:33:23.000Z</time>
      </trkpt>
      <trkpt lat="47.54642" lon="6.75038">
        <ele>458</ele>
        <time>2016-04-10T07:33:24.000Z</time>
      </trkpt>
      <trkpt lat="47.54648" lon="6.75036">
        <ele>458</ele>
        <time>2016-04-10T07:33:25.000Z</time>
      </trkpt>
      <trkpt lat="47.54655" lon="6.75034">
        <ele>458</ele>
        <time>2016-04-10T07:33:26.000Z</time>
      </trkpt>
      <trkpt lat="47.54662" lon="6.75033">
        <ele>457</ele>
        <time>2016-04-10T07:33:27.000Z</time>
      </trkpt>
      <trkpt lat="47.54668" lon="6.7503">
        <ele>453</ele>
        <time>2016-04-10T07:33:28.000Z</time>
      </trkpt>
      <trkpt lat="47.54675" lon="6.75027">
        <ele>453</ele>
        <time>2016-04-10T07:33:29.000Z</time>
      </trkpt>
      <trkpt lat="47.54681" lon="6.75025">
        <ele>453</ele>
        <time>2016-04-10T07:33:30.000Z</time>
      </trkpt>
      <trkpt lat="47.54688" lon="6.75022">
        <ele>453</ele>
        <time>2016-04-10T07:33:31.000Z</time>
      </trkpt>
      <trkpt lat="47.54694" lon="6.75019">
        <ele>452</ele>
        <time>2016-04-10T07:33:32.000Z</time>
      </trkpt>
      <trkpt lat="47.547" lon="6.75014">
        <ele>452</ele>
        <time>2016-04-10T07:33:33.000Z</time>
      </trkpt>
      <trkpt lat="47.54704" lon="6.75008">
        <ele>452</ele>
        <time>2016-04-10T07:33:34.000Z</time>
      </trkpt>
      <trkpt lat="47.54709" lon="6.75004">
        <ele>452</ele>
        <time>2016-04-10T07:33:35.000Z</time>
      </trkpt>
      <trkpt lat="47.54715" lon="6.75001">
        <ele>452</ele>
        <time>2016-04-10T07:33:36.000Z</time>
      </trkpt>
      <trkpt lat="47.5472" lon="6.74999">
        <ele>451</ele>
        <time>2016-04-10T07:33:37.000Z</time>
      </trkpt>
      <trkpt lat="47.54726" lon="6.74997">
        <ele>451</ele>
        <time>2016-04-10T07:33:38.000Z</time>
      </trkpt>
      <trkpt lat="47.54731" lon="6.74995">
        <ele>450</ele>
        <time>2016-04-10T07:33:39.000Z</time>
      </trkpt>
      <trkpt lat="47.54735" lon="6.74993">
        <ele>450</ele>
        <time>2016-04-10T07:33:40.000Z</time>
      </trkpt>
      <trkpt lat="47.54739" lon="6.74992">
        <ele>450</ele>
        <time>2016-04-10T07:33:41.000Z</time>
      </trkpt>
      <trkpt lat="47.54742" lon="6.74991">
        <ele>450</ele>
        <time>2016-04-10T07:33:42.000Z</time>
      </trkpt>
      <trkpt lat="47.54745" lon="6.74989">
        <ele>450</ele>
        <time>2016-04-10T07:33:43.000Z</time>
      </trkpt>
      <trkpt lat="47.54747" lon="6.74986">
        <ele>450</ele>
        <time>2016-04-10T07:33:44.000Z</time>
      </trkpt>
      <trkpt lat="47.5475" lon="6.74983">
        <ele>447</ele>
        <time>2016-04-10T07:33:45.000Z</time>
      </trkpt>
      <trkpt lat="47.54753" lon="6.74979">
        <ele>447</ele>
        <time>2016-04-10T07:33:46.000Z</time>
      </trkpt>
      <trkpt lat="47.54756" lon="6.74975">
        <ele>447</ele>
        <time>2016-04-10T07:33:47.000Z</time>
      </trkpt>
      <trkpt lat="47.54761" lon="6.74971">
        <ele>447</ele>
        <time>2016-04-10T07:33:48.000Z</time>
      </trkpt>
      <trkpt lat="47.54764" lon="6.74967">
        <ele>447</ele>
        <time>2016-04-10T07:33:49.000Z</time>
      </trkpt>
      <trkpt lat="47.54772" lon="6.74965">
        <ele>446</ele>
        <time>2016-04-10T07:33:50.000Z</time>
      </trkpt>
      <trkpt lat="47.54777" lon="6.74962">
        <ele>446</ele>
        <time>2016-04-10T07:33:51.000Z</time>
      </trkpt>
      <trkpt lat="47.54781" lon="6.74959">
        <ele>446</ele>
        <time>2016-04-10T07:33:52.000Z</time>
      </trkpt>
      <trkpt lat="47.54784" lon="6.74955">
        <ele>446</ele>
        <time>2016-04-10T07:33:53.000Z</time>
      </trkpt>
      <trkpt lat="47.54788" lon="6.74952">
        <ele>446</ele>
        <time>2016-04-10T07:33:54.000Z</time>
      </trkpt>
      <trkpt lat="47.54791" lon="6.74949">
        <ele>445</ele>
        <time>2016-04-10T07:33:55.000Z</time>
      </trkpt>
      <trkpt lat="47.54796" lon="6.74945">
        <ele>445</ele>
        <time>2016-04-10T07:33:56.000Z</time>
      </trkpt>
      <trkpt lat="47.54799" lon="6.74941">
        <ele>445</ele>
        <time>2016-04-10T07:33:57.000Z</time>
      </trkpt>
      <trkpt lat="47.54804" lon="6.74937">
        <ele>445</ele>
        <time>2016-04-10T07:33:58.000Z</time>
      </trkpt>
      <trkpt lat="47.54809" lon="6.74932">
        <ele>445</ele>
        <time>2016-04-10T07:33:59.000Z</time>
      </trkpt>
      <trkpt lat="47.54814" lon="6.74928">
        <ele>444</ele>
        <time>2016-04-10T07:34:00.000Z</time>
      </trkpt>
      <trkpt lat="47.54821" lon="6.74924">
        <ele>444</ele>
        <time>2016-04-10T07:34:01.000Z</time>
      </trkpt>
      <trkpt lat="47.54826" lon="6.7492">
        <ele>444</ele>
        <time>2016-04-10T07:34:02.000Z</time>
      </trkpt>
      <trkpt lat="47.54831" lon="6.74915">
        <ele>444</ele>
        <time>2016-04-10T07:34:03.000Z</time>
      </trkpt>
      <trkpt lat="47.54834" lon="6.74911">
        <ele>443</ele>
        <time>2016-04-10T07:34:04.000Z</time>
      </trkpt>
      <trkpt lat="47.54836" lon="6.74908">
        <ele>444</ele>
        <time>2016-04-10T07:34:05.000Z</time>
      </trkpt>
      <trkpt lat="47.54838" lon="6.74905">
        <ele>444</ele>
        <time>2016-04-10T07:34:06.000Z</time>
      </trkpt>
      <trkpt lat="47.5484" lon="6.74901">
        <ele>444</ele>
        <time>2016-04-10T07:34:07.000Z</time>
      </trkpt>
      <trkpt lat="47.54843" lon="6.74898">
        <ele>444</ele>
        <time>2016-04-10T07:34:08.000Z</time>
      </trkpt>
      <trkpt lat="47.54845" lon="6.74895">
        <ele>444</ele>
        <time>2016-04-10T07:34:09.000Z</time>
      </trkpt>
      <trkpt lat="47.54849" lon="6.74887">
        <ele>445</ele>
        <time>2016-04-10T07:34:10.000Z</time>
      </trkpt>
      <trkpt lat="47.54852" lon="6.74882">
        <ele>445</ele>
        <time>2016-04-10T07:34:11.000Z</time>
      </trkpt>
      <trkpt lat="47.54855" lon="6.74876">
        <ele>445</ele>
        <time>2016-04-10T07:34:12.000Z</time>
      </trkpt>
      <trkpt lat="47.54858" lon="6.74872">
        <ele>445</ele>
        <time>2016-04-10T07:34:13.000Z</time>
      </trkpt>
      <trkpt lat="47.54861" lon="6.74869">
        <ele>445</ele>
        <time>2016-04-10T07:34:14.000Z</time>
      </trkpt>
      <trkpt lat="47.54863" lon="6.74867">
        <ele>445</ele>
        <time>2016-04-10T07:34:15.000Z</time>
      </trkpt>
      <trkpt lat="47.54865" lon="6.74863">
        <ele>445</ele>
        <time>2016-04-10T07:34:16.000Z</time>
      </trkpt>
      <trkpt lat="47.54867" lon="6.7486">
        <ele>445</ele>
        <time>2016-04-10T07:34:17.000Z</time>
      </trkpt>
      <trkpt lat="47.54868" lon="6.74856">
        <ele>445</ele>
        <time>2016-04-10T07:34:18.000Z</time>
      </trkpt>
      <trkpt lat="47.54869" lon="6.74853">
        <ele>445</ele>
        <time>2016-04-10T07:34:19.000Z</time>
      </trkpt>
      <trkpt lat="47.54871" lon="6.7485">
        <ele>446</ele>
        <time>2016-04-10T07:34:20.000Z</time>
      </trkpt>
      <trkpt lat="47.54873" lon="6.74846">
        <ele>446</ele>
        <time>2016-04-10T07:34:21.000Z</time>
      </trkpt>
      <trkpt lat="47.54876" lon="6.74843">
        <ele>446</ele>
        <time>2016-04-10T07:34:22.000Z</time>
      </trkpt>
      <trkpt lat="47.54879" lon="6.74839">
        <ele>446</ele>
        <time>2016-04-10T07:34:23.000Z</time>
      </trkpt>
      <trkpt lat="47.54882" lon="6.74836">
        <ele>446</ele>
        <time>2016-04-10T07:34:24.000Z</time>
      </trkpt>
      <trkpt lat="47.54886" lon="6.74833">
        <ele>447</ele>
        <time>2016-04-10T07:34:25.000Z</time>
      </trkpt>
      <trkpt lat="47.54889" lon="6.7483">
        <ele>448</ele>
        <time>2016-04-10T07:34:26.000Z</time>
      </trkpt>
      <trkpt lat="47.54892" lon="6.74828">
        <ele>448</ele>
        <time>2016-04-10T07:34:27.000Z</time>
      </trkpt>
      <trkpt lat="47.54894" lon="6.74826">
        <ele>448</ele>
        <time>2016-04-10T07:34:28.000Z</time>
      </trkpt>
      <trkpt lat="47.54898" lon="6.74822">
        <ele>448</ele>
        <time>2016-04-10T07:34:30.000Z</time>
      </trkpt>
      <trkpt lat="47.54899" lon="6.7482">
        <ele>448</ele>
        <time>2016-04-10T07:34:31.000Z</time>
      </trkpt>
      <trkpt lat="47.549" lon="6.74816">
        <ele>448</ele>
        <time>2016-04-10T07:34:32.000Z</time>
      </trkpt>
      <trkpt lat="47.54902" lon="6.74811">
        <ele>448</ele>
        <time>2016-04-10T07:34:33.000Z</time>
      </trkpt>
      <trkpt lat="47.54903" lon="6.74807">
        <ele>448</ele>
        <time>2016-04-10T07:34:34.000Z</time>
      </trkpt>
      <trkpt lat="47.54904" lon="6.74802">
        <ele>448</ele>
        <time>2016-04-10T07:34:35.000Z</time>
      </trkpt>
      <trkpt lat="47.54905" lon="6.74799">
        <ele>448</ele>
        <time>2016-04-10T07:34:36.000Z</time>
      </trkpt>
      <trkpt lat="47.54905" lon="6.74795">
        <ele>448</ele>
        <time>2016-04-10T07:34:37.000Z</time>
      </trkpt>
      <trkpt lat="47.54904" lon="6.74789">
        <ele>447</ele>
        <time>2016-04-10T07:34:39.000Z</time>
      </trkpt>
      <trkpt lat="47.54904" lon="6.74786">
        <ele>447</ele>
        <time>2016-04-10T07:34:40.000Z</time>
      </trkpt>
      <trkpt lat="47.54905" lon="6.74779">
        <ele>447</ele>
        <time>2016-04-10T07:34:42.000Z</time>
      </trkpt>
      <trkpt lat="47.54906" lon="6.74776">
        <ele>447</ele>
        <time>2016-04-10T07:34:43.000Z</time>
      </trkpt>
      <trkpt lat="47.54908" lon="6.74772">
        <ele>447</ele>
        <time>2016-04-10T07:34:44.000Z</time>
      </trkpt>
      <trkpt lat="47.54909" lon="6.74769">
        <ele>447</ele>
        <time>2016-04-10T07:34:45.000Z</time>
      </trkpt>
      <trkpt lat="47.5491" lon="6.74765">
        <ele>448</ele>
        <time>2016-04-10T07:34:46.000Z</time>
      </trkpt>
      <trkpt lat="47.54912" lon="6.74761">
        <ele>448</ele>
        <time>2016-04-10T07:34:47.000Z</time>
      </trkpt>
      <trkpt lat="47.54913" lon="6.74757">
        <ele>448</ele>
        <time>2016-04-10T07:34:48.000Z</time>
      </trkpt>
      <trkpt lat="47.54915" lon="6.74753">
        <ele>448</ele>
        <time>2016-04-10T07:34:49.000Z</time>
      </trkpt>
      <trkpt lat="47.54917" lon="6.74749">
        <ele>448</ele>
        <time>2016-04-10T07:34:50.000Z</time>
      </trkpt>
      <trkpt lat="47.54919" lon="6.74745">
        <ele>448</ele>
        <time>2016-04-10T07:34:51.000Z</time>
      </trkpt>
      <trkpt lat="47.54921" lon="6.74741">
        <ele>448</ele>
        <time>2016-04-10T07:34:52.000Z</time>
      </trkpt>
      <trkpt lat="47.54924" lon="6.74736">
        <ele>449</ele>
        <time>2016-04-10T07:34:53.000Z</time>
      </trkpt>
      <trkpt lat="47.54926" lon="6.74731">
        <ele>449</ele>
        <time>2016-04-10T07:34:54.000Z</time>
      </trkpt>
      <trkpt lat="47.54928" lon="6.74725">
        <ele>449</ele>
        <time>2016-04-10T07:34:55.000Z</time>
      </trkpt>
      <trkpt lat="47.54931" lon="6.7472">
        <ele>449</ele>
        <time>2016-04-10T07:34:56.000Z</time>
      </trkpt>
      <trkpt lat="47.54933" lon="6.74714">
        <ele>449</ele>
        <time>2016-04-10T07:34:57.000Z</time>
      </trkpt>
      <trkpt lat="47.54935" lon="6.74708">
        <ele>449</ele>
        <time>2016-04-10T07:34:58.000Z</time>
      </trkpt>
      <trkpt lat="47.54937" lon="6.74703">
        <ele>448</ele>
        <time>2016-04-10T07:34:59.000Z</time>
      </trkpt>
      <trkpt lat="47.54939" lon="6.74698">
        <ele>448</ele>
        <time>2016-04-10T07:35:00.000Z</time>
      </trkpt>
      <trkpt lat="47.5494" lon="6.74692">
        <ele>448</ele>
        <time>2016-04-10T07:35:01.000Z</time>
      </trkpt>
      <trkpt lat="47.54942" lon="6.74687">
        <ele>448</ele>
        <time>2016-04-10T07:35:02.000Z</time>
      </trkpt>
      <trkpt lat="47.54943" lon="6.74682">
        <ele>448</ele>
        <time>2016-04-10T07:35:03.000Z</time>
      </trkpt>
      <trkpt lat="47.54945" lon="6.74677">
        <ele>448</ele>
        <time>2016-04-10T07:35:04.000Z</time>
      </trkpt>
      <trkpt lat="47.54947" lon="6.74673">
        <ele>448</ele>
        <time>2016-04-10T07:35:05.000Z</time>
      </trkpt>
      <trkpt lat="47.54949" lon="6.74669">
        <ele>448</ele>
        <time>2016-04-10T07:35:06.000Z</time>
      </trkpt>
      <trkpt lat="47.54951" lon="6.74665">
        <ele>447</ele>
        <time>2016-04-10T07:35:07.000Z</time>
      </trkpt>
      <trkpt lat="47.54952" lon="6.74663">
        <ele>447</ele>
        <time>2016-04-10T07:35:08.000Z</time>
      </trkpt>
      <trkpt lat="47.54953" lon="6.74659">
        <ele>447</ele>
        <time>2016-04-10T07:35:09.000Z</time>
      </trkpt>
      <trkpt lat="47.54953" lon="6.74656">
        <ele>447</ele>
        <time>2016-04-10T07:35:10.000Z</time>
      </trkpt>
      <trkpt lat="47.54955" lon="6.7465">
        <ele>447</ele>
        <time>2016-04-10T07:35:17.000Z</time>
      </trkpt>
      <trkpt lat="47.54955" lon="6.74648">
        <ele>447</ele>
        <time>2016-04-10T07:35:18.000Z</time>
      </trkpt>
      <trkpt lat="47.54957" lon="6.74645">
        <ele>447</ele>
        <time>2016-04-10T07:35:20.000Z</time>
      </trkpt>
      <trkpt lat="47.54959" lon="6.74642">
        <ele>447</ele>
        <time>2016-04-10T07:35:21.000Z</time>
      </trkpt>
      <trkpt lat="47.54962" lon="6.74638">
        <ele>447</ele>
        <time>2016-04-10T07:35:22.000Z</time>
      </trkpt>
      <trkpt lat="47.54964" lon="6.74634">
        <ele>447</ele>
        <time>2016-04-10T07:35:23.000Z</time>
      </trkpt>
      <trkpt lat="47.54966" lon="6.7463">
        <ele>447</ele>
        <time>2016-04-10T07:35:24.000Z</time>
      </trkpt>
      <trkpt lat="47.54969" lon="6.74626">
        <ele>447</ele>
        <time>2016-04-10T07:35:25.000Z</time>
      </trkpt>
      <trkpt lat="47.54972" lon="6.74624">
        <ele>447</ele>
        <time>2016-04-10T07:35:26.000Z</time>
      </trkpt>
      <trkpt lat="47.54974" lon="6.74623">
        <ele>447</ele>
        <time>2016-04-10T07:35:27.000Z</time>
      </trkpt>
      <trkpt lat="47.54977" lon="6.74622">
        <ele>447</ele>
        <time>2016-04-10T07:35:28.000Z</time>
      </trkpt>
      <trkpt lat="47.54985" lon="6.74612">
        <ele>447</ele>
        <time>2016-04-10T07:35:29.000Z</time>
      </trkpt>
      <trkpt lat="47.54988" lon="6.74608">
        <ele>447</ele>
        <time>2016-04-10T07:35:30.000Z</time>
      </trkpt>
      <trkpt lat="47.54992" lon="6.74604">
        <ele>447</ele>
        <time>2016-04-10T07:35:31.000Z</time>
      </trkpt>
      <trkpt lat="47.54998" lon="6.746">
        <ele>448</ele>
        <time>2016-04-10T07:35:32.000Z</time>
      </trkpt>
      <trkpt lat="47.55003" lon="6.74594">
        <ele>449</ele>
        <time>2016-04-10T07:35:33.000Z</time>
      </trkpt>
      <trkpt lat="47.55009" lon="6.74591">
        <ele>449</ele>
        <time>2016-04-10T07:35:34.000Z</time>
      </trkpt>
      <trkpt lat="47.55016" lon="6.74586">
        <ele>449</ele>
        <time>2016-04-10T07:35:35.000Z</time>
      </trkpt>
      <trkpt lat="47.5502" lon="6.74581">
        <ele>448</ele>
        <time>2016-04-10T07:35:36.000Z</time>
      </trkpt>
      <trkpt lat="47.55025" lon="6.74578">
        <ele>447</ele>
        <time>2016-04-10T07:35:37.000Z</time>
      </trkpt>
      <trkpt lat="47.55031" lon="6.74573">
        <ele>447</ele>
        <time>2016-04-10T07:35:38.000Z</time>
      </trkpt>
      <trkpt lat="47.55037" lon="6.74568">
        <ele>447</ele>
        <time>2016-04-10T07:35:39.000Z</time>
      </trkpt>
      <trkpt lat="47.55042" lon="6.74563">
        <ele>447</ele>
        <time>2016-04-10T07:35:40.000Z</time>
      </trkpt>
      <trkpt lat="47.55043" lon="6.74555">
        <ele>447</ele>
        <time>2016-04-10T07:35:41.000Z</time>
      </trkpt>
      <trkpt lat="47.5505" lon="6.74553">
        <ele>447</ele>
        <time>2016-04-10T07:35:42.000Z</time>
      </trkpt>
      <trkpt lat="47.55054" lon="6.74549">
        <ele>447</ele>
        <time>2016-04-10T07:35:43.000Z</time>
      </trkpt>
      <trkpt lat="47.55058" lon="6.74547">
        <ele>447</ele>
        <time>2016-04-10T07:35:44.000Z</time>
      </trkpt>
      <trkpt lat="47.5506" lon="6.74542">
        <ele>447</ele>
        <time>2016-04-10T07:35:45.000Z</time>
      </trkpt>
      <trkpt lat="47.55063" lon="6.74537">
        <ele>447</ele>
        <time>2016-04-10T07:35:47.000Z</time>
      </trkpt>
      <trkpt lat="47.55065" lon="6.74536">
        <ele>447</ele>
        <time>2016-04-10T07:35:48.000Z</time>
      </trkpt>
      <trkpt lat="47.55067" lon="6.74536">
        <ele>447</ele>
        <time>2016-04-10T07:35:49.000Z</time>
      </trkpt>
      <trkpt lat="47.5507" lon="6.74534">
        <ele>446</ele>
        <time>2016-04-10T07:35:50.000Z</time>
      </trkpt>
      <trkpt lat="47.55073" lon="6.74533">
        <ele>446</ele>
        <time>2016-04-10T07:35:51.000Z</time>
      </trkpt>
      <trkpt lat="47.55075" lon="6.74532">
        <ele>446</ele>
        <time>2016-04-10T07:35:52.000Z</time>
      </trkpt>
      <trkpt lat="47.55078" lon="6.7453">
        <ele>446</ele>
        <time>2016-04-10T07:35:53.000Z</time>
      </trkpt>
      <trkpt lat="47.55081" lon="6.74529">
        <ele>446</ele>
        <time>2016-04-10T07:35:54.000Z</time>
      </trkpt>
      <trkpt lat="47.55084" lon="6.74528">
        <ele>447</ele>
        <time>2016-04-10T07:35:55.000Z</time>
      </trkpt>
      <trkpt lat="47.55087" lon="6.74526">
        <ele>446</ele>
        <time>2016-04-10T07:35:56.000Z</time>
      </trkpt>
      <trkpt lat="47.55091" lon="6.74527">
        <ele>447</ele>
        <time>2016-04-10T07:35:57.000Z</time>
      </trkpt>
      <trkpt lat="47.55093" lon="6.74527">
        <ele>447</ele>
        <time>2016-04-10T07:35:58.000Z</time>
      </trkpt>
      <trkpt lat="47.55096" lon="6.74529">
        <ele>447</ele>
        <time>2016-04-10T07:35:59.000Z</time>
      </trkpt>
      <trkpt lat="47.55098" lon="6.74532">
        <ele>447</ele>
        <time>2016-04-10T07:36:00.000Z</time>
      </trkpt>
      <trkpt lat="47.55101" lon="6.74535">
        <ele>447</ele>
        <time>2016-04-10T07:36:01.000Z</time>
      </trkpt>
      <trkpt lat="47.55103" lon="6.74538">
        <ele>447</ele>
        <time>2016-04-10T07:36:02.000Z</time>
      </trkpt>
      <trkpt lat="47.55104" lon="6.74542">
        <ele>447</ele>
        <time>2016-04-10T07:36:03.000Z</time>
      </trkpt>
      <trkpt lat="47.55106" lon="6.74546">
        <ele>447</ele>
        <time>2016-04-10T07:36:04.000Z</time>
      </trkpt>
      <trkpt lat="47.55107" lon="6.74549">
        <ele>448</ele>
        <time>2016-04-10T07:36:05.000Z</time>
      </trkpt>
      <trkpt lat="47.55109" lon="6.74552">
        <ele>448</ele>
        <time>2016-04-10T07:36:06.000Z</time>
      </trkpt>
      <trkpt lat="47.5511" lon="6.74555">
        <ele>448</ele>
        <time>2016-04-10T07:36:07.000Z</time>
      </trkpt>
      <trkpt lat="47.55111" lon="6.74558">
        <ele>448</ele>
        <time>2016-04-10T07:36:08.000Z</time>
      </trkpt>
      <trkpt lat="47.55112" lon="6.74561">
        <ele>448</ele>
        <time>2016-04-10T07:36:09.000Z</time>
      </trkpt>
      <trkpt lat="47.55114" lon="6.74565">
        <ele>448</ele>
        <time>2016-04-10T07:36:10.000Z</time>
      </trkpt>
      <trkpt lat="47.55115" lon="6.74568">
        <ele>448</ele>
        <time>2016-04-10T07:36:11.000Z</time>
      </trkpt>
      <trkpt lat="47.55117" lon="6.74572">
        <ele>448</ele>
        <time>2016-04-10T07:36:12.000Z</time>
      </trkpt>
      <trkpt lat="47.55119" lon="6.74576">
        <ele>448</ele>
        <time>2016-04-10T07:36:13.000Z</time>
      </trkpt>
      <trkpt lat="47.5512" lon="6.7458">
        <ele>448</ele>
        <time>2016-04-10T07:36:14.000Z</time>
      </trkpt>
      <trkpt lat="47.55122" lon="6.74585">
        <ele>450</ele>
        <time>2016-04-10T07:36:15.000Z</time>
      </trkpt>
      <trkpt lat="47.55124" lon="6.74588">
        <ele>450</ele>
        <time>2016-04-10T07:36:16.000Z</time>
      </trkpt>
      <trkpt lat="47.55125" lon="6.74592">
        <ele>450</ele>
        <time>2016-04-10T07:36:17.000Z</time>
      </trkpt>
      <trkpt lat="47.55126" lon="6.74596">
        <ele>450</ele>
        <time>2016-04-10T07:36:18.000Z</time>
      </trkpt>
      <trkpt lat="47.55127" lon="6.74599">
        <ele>450</ele>
        <time>2016-04-10T07:36:19.000Z</time>
      </trkpt>
      <trkpt lat="47.55128" lon="6.74602">
        <ele>450</ele>
        <time>2016-04-10T07:36:20.000Z</time>
      </trkpt>
      <trkpt lat="47.55128" lon="6.74606">
        <ele>450</ele>
        <time>2016-04-10T07:36:21.000Z</time>
      </trkpt>
      <trkpt lat="47.55129" lon="6.74609">
        <ele>450</ele>
        <time>2016-04-10T07:36:22.000Z</time>
      </trkpt>
      <trkpt lat="47.55131" lon="6.74612">
        <ele>450</ele>
        <time>2016-04-10T07:36:23.000Z</time>
      </trkpt>
      <trkpt lat="47.55132" lon="6.74615">
        <ele>450</ele>
        <time>2016-04-10T07:36:24.000Z</time>
      </trkpt>
      <trkpt lat="47.55134" lon="6.74618">
        <ele>450</ele>
        <time>2016-04-10T07:36:25.000Z</time>
      </trkpt>
      <trkpt lat="47.55135" lon="6.74622">
        <ele>450</ele>
        <time>2016-04-10T07:36:26.000Z</time>
      </trkpt>
      <trkpt lat="47.55137" lon="6.74625">
        <ele>450</ele>
        <time>2016-04-10T07:36:27.000Z</time>
      </trkpt>
      <trkpt lat="47.55138" lon="6.74629">
        <ele>450</ele>
        <time>2016-04-10T07:36:28.000Z</time>
      </trkpt>
      <trkpt lat="47.55139" lon="6.74633">
        <ele>450</ele>
        <time>2016-04-10T07:36:29.000Z</time>
      </trkpt>
      <trkpt lat="47.55141" lon="6.74636">
        <ele>450</ele>
        <time>2016-04-10T07:36:30.000Z</time>
      </trkpt>
      <trkpt lat="47.55143" lon="6.7464">
        <ele>450</ele>
        <time>2016-04-10T07:36:31.000Z</time>
      </trkpt>
      <trkpt lat="47.55145" lon="6.74643">
        <ele>450</ele>
        <time>2016-04-10T07:36:32.000Z</time>
      </trkpt>
      <trkpt lat="47.55147" lon="6.74647">
        <ele>450</ele>
        <time>2016-04-10T07:36:33.000Z</time>
      </trkpt>
      <trkpt lat="47.55149" lon="6.7465">
        <ele>450</ele>
        <time>2016-04-10T07:36:34.000Z</time>
      </trkpt>
      <trkpt lat="47.55151" lon="6.74652">
        <ele>450</ele>
        <time>2016-04-10T07:36:35.000Z</time>
      </trkpt>
      <trkpt lat="47.55153" lon="6.74654">
        <ele>450</ele>
        <time>2016-04-10T07:36:36.000Z</time>
      </trkpt>
      <trkpt lat="47.55156" lon="6.74653">
        <ele>450</ele>
        <time>2016-04-10T07:36:37.000Z</time>
      </trkpt>
      <trkpt lat="47.55159" lon="6.74651">
        <ele>450</ele>
        <time>2016-04-10T07:36:38.000Z</time>
      </trkpt>
      <trkpt lat="47.55162" lon="6.74649">
        <ele>450</ele>
        <time>2016-04-10T07:36:39.000Z</time>
      </trkpt>
      <trkpt lat="47.55165" lon="6.74645">
        <ele>450</ele>
        <time>2016-04-10T07:36:40.000Z</time>
      </trkpt>
      <trkpt lat="47.55167" lon="6.74641">
        <ele>451</ele>
        <time>2016-04-10T07:36:41.000Z</time>
      </trkpt>
      <trkpt lat="47.55169" lon="6.74638">
        <ele>451</ele>
        <time>2016-04-10T07:36:42.000Z</time>
      </trkpt>
      <trkpt lat="47.55171" lon="6.74634">
        <ele>451</ele>
        <time>2016-04-10T07:36:43.000Z</time>
      </trkpt>
      <trkpt lat="47.55173" lon="6.74631">
        <ele>451</ele>
        <time>2016-04-10T07:36:44.000Z</time>
      </trkpt>
      <trkpt lat="47.55175" lon="6.74628">
        <ele>451</ele>
        <time>2016-04-10T07:36:45.000Z</time>
      </trkpt>
      <trkpt lat="47.55176" lon="6.74625">
        <ele>451</ele>
        <time>2016-04-10T07:36:46.000Z</time>
      </trkpt>
      <trkpt lat="47.55178" lon="6.74622">
        <ele>451</ele>
        <time>2016-04-10T07:36:48.000Z</time>
      </trkpt>
      <trkpt lat="47.55179" lon="6.74619">
        <ele>451</ele>
        <time>2016-04-10T07:36:49.000Z</time>
      </trkpt>
      <trkpt lat="47.5518" lon="6.74617">
        <ele>451</ele>
        <time>2016-04-10T07:36:50.000Z</time>
      </trkpt>
      <trkpt lat="47.55181" lon="6.74614">
        <ele>451</ele>
        <time>2016-04-10T07:36:51.000Z</time>
      </trkpt>
      <trkpt lat="47.55183" lon="6.7461">
        <ele>451</ele>
        <time>2016-04-10T07:36:52.000Z</time>
      </trkpt>
      <trkpt lat="47.55185" lon="6.74607">
        <ele>451</ele>
        <time>2016-04-10T07:36:53.000Z</time>
      </trkpt>
      <trkpt lat="47.55187" lon="6.74603">
        <ele>451</ele>
        <time>2016-04-10T07:36:54.000Z</time>
      </trkpt>
      <trkpt lat="47.55188" lon="6.74599">
        <ele>451</ele>
        <time>2016-04-10T07:36:55.000Z</time>
      </trkpt>
      <trkpt lat="47.55189" lon="6.74596">
        <ele>451</ele>
        <time>2016-04-10T07:36:56.000Z</time>
      </trkpt>
      <trkpt lat="47.5519" lon="6.74593">
        <ele>451</ele>
        <time>2016-04-10T07:36:57.000Z</time>
      </trkpt>
      <trkpt lat="47.55192" lon="6.74589">
        <ele>451</ele>
        <time>2016-04-10T07:36:59.000Z</time>
      </trkpt>
      <trkpt lat="47.55192" lon="6.74586">
        <ele>451</ele>
        <time>2016-04-10T07:37:00.000Z</time>
      </trkpt>
      <trkpt lat="47.55194" lon="6.74582">
        <ele>450</ele>
        <time>2016-04-10T07:37:01.000Z</time>
      </trkpt>
      <trkpt lat="47.55195" lon="6.74577">
        <ele>450</ele>
        <time>2016-04-10T07:37:02.000Z</time>
      </trkpt>
      <trkpt lat="47.55197" lon="6.74571">
        <ele>450</ele>
        <time>2016-04-10T07:37:03.000Z</time>
      </trkpt>
      <trkpt lat="47.552" lon="6.74566">
        <ele>450</ele>
        <time>2016-04-10T07:37:04.000Z</time>
      </trkpt>
      <trkpt lat="47.55203" lon="6.7456">
        <ele>450</ele>
        <time>2016-04-10T07:37:05.000Z</time>
      </trkpt>
      <trkpt lat="47.55206" lon="6.74555">
        <ele>449</ele>
        <time>2016-04-10T07:37:06.000Z</time>
      </trkpt>
      <trkpt lat="47.5521" lon="6.74546">
        <ele>449</ele>
        <time>2016-04-10T07:37:07.000Z</time>
      </trkpt>
      <trkpt lat="47.55214" lon="6.74536">
        <ele>449</ele>
        <time>2016-04-10T07:37:08.000Z</time>
      </trkpt>
      <trkpt lat="47.55216" lon="6.74524">
        <ele>449</ele>
        <time>2016-04-10T07:37:09.000Z</time>
      </trkpt>
      <trkpt lat="47.55218" lon="6.74516">
        <ele>449</ele>
        <time>2016-04-10T07:37:10.000Z</time>
      </trkpt>
      <trkpt lat="47.55222" lon="6.74508">
        <ele>449</ele>
        <time>2016-04-10T07:37:11.000Z</time>
      </trkpt>
      <trkpt lat="47.55229" lon="6.74497">
        <ele>447</ele>
        <time>2016-04-10T07:37:12.000Z</time>
      </trkpt>
      <trkpt lat="47.55234" lon="6.74486">
        <ele>447</ele>
        <time>2016-04-10T07:37:13.000Z</time>
      </trkpt>
      <trkpt lat="47.5524" lon="6.74475">
        <ele>447</ele>
        <time>2016-04-10T07:37:14.000Z</time>
      </trkpt>
      <trkpt lat="47.55243" lon="6.74466">
        <ele>447</ele>
        <time>2016-04-10T07:37:15.000Z</time>
      </trkpt>
      <trkpt lat="47.55247" lon="6.74456">
        <ele>447</ele>
        <time>2016-04-10T07:37:16.000Z</time>
      </trkpt>
      <trkpt lat="47.5525" lon="6.74443">
        <ele>447</ele>
        <time>2016-04-10T07:37:17.000Z</time>
      </trkpt>
      <trkpt lat="47.55254" lon="6.74431">
        <ele>444</ele>
        <time>2016-04-10T07:37:18.000Z</time>
      </trkpt>
      <trkpt lat="47.55258" lon="6.74421">
        <ele>445</ele>
        <time>2016-04-10T07:37:19.000Z</time>
      </trkpt>
      <trkpt lat="47.55262" lon="6.74413">
        <ele>444</ele>
        <time>2016-04-10T07:37:20.000Z</time>
      </trkpt>
      <trkpt lat="47.55266" lon="6.74403">
        <ele>443</ele>
        <time>2016-04-10T07:37:21.000Z</time>
      </trkpt>
      <trkpt lat="47.5527" lon="6.74394">
        <ele>442</ele>
        <time>2016-04-10T07:37:22.000Z</time>
      </trkpt>
      <trkpt lat="47.55273" lon="6.74387">
        <ele>441</ele>
        <time>2016-04-10T07:37:23.000Z</time>
      </trkpt>
      <trkpt lat="47.55277" lon="6.74378">
        <ele>441</ele>
        <time>2016-04-10T07:37:24.000Z</time>
      </trkpt>
      <trkpt lat="47.55279" lon="6.74372">
        <ele>441</ele>
        <time>2016-04-10T07:37:25.000Z</time>
      </trkpt>
      <trkpt lat="47.5528" lon="6.74364">
        <ele>441</ele>
        <time>2016-04-10T07:37:26.000Z</time>
      </trkpt>
      <trkpt lat="47.55281" lon="6.74356">
        <ele>441</ele>
        <time>2016-04-10T07:37:27.000Z</time>
      </trkpt>
      <trkpt lat="47.55283" lon="6.74349">
        <ele>441</ele>
        <time>2016-04-10T07:37:28.000Z</time>
      </trkpt>
      <trkpt lat="47.55287" lon="6.74341">
        <ele>440</ele>
        <time>2016-04-10T07:37:29.000Z</time>
      </trkpt>
      <trkpt lat="47.55294" lon="6.7433">
        <ele>440</ele>
        <time>2016-04-10T07:37:30.000Z</time>
      </trkpt>
      <trkpt lat="47.55301" lon="6.74325">
        <ele>439</ele>
        <time>2016-04-10T07:37:31.000Z</time>
      </trkpt>
      <trkpt lat="47.5531" lon="6.7432">
        <ele>439</ele>
        <time>2016-04-10T07:37:32.000Z</time>
      </trkpt>
      <trkpt lat="47.55319" lon="6.74314">
        <ele>438</ele>
        <time>2016-04-10T07:37:33.000Z</time>
      </trkpt>
      <trkpt lat="47.55328" lon="6.74307">
        <ele>438</ele>
        <time>2016-04-10T07:37:34.000Z</time>
      </trkpt>
      <trkpt lat="47.55336" lon="6.74299">
        <ele>432</ele>
        <time>2016-04-10T07:37:35.000Z</time>
      </trkpt>
      <trkpt lat="47.55341" lon="6.74292">
        <ele>432</ele>
        <time>2016-04-10T07:37:36.000Z</time>
      </trkpt>
      <trkpt lat="47.55349" lon="6.74288">
        <ele>432</ele>
        <time>2016-04-10T07:37:37.000Z</time>
      </trkpt>
      <trkpt lat="47.55356" lon="6.74285">
        <ele>432</ele>
        <time>2016-04-10T07:37:38.000Z</time>
      </trkpt>
      <trkpt lat="47.55362" lon="6.74281">
        <ele>431</ele>
        <time>2016-04-10T07:37:39.000Z</time>
      </trkpt>
      <trkpt lat="47.55367" lon="6.74278">
        <ele>431</ele>
        <time>2016-04-10T07:37:40.000Z</time>
      </trkpt>
      <trkpt lat="47.55366" lon="6.74271">
        <ele>431</ele>
        <time>2016-04-10T07:37:41.000Z</time>
      </trkpt>
      <trkpt lat="47.55368" lon="6.74265">
        <ele>431</ele>
        <time>2016-04-10T07:37:42.000Z</time>
      </trkpt>
      <trkpt lat="47.5537" lon="6.74261">
        <ele>431</ele>
        <time>2016-04-10T07:37:43.000Z</time>
      </trkpt>
      <trkpt lat="47.55373" lon="6.74259">
        <ele>431</ele>
        <time>2016-04-10T07:37:44.000Z</time>
      </trkpt>
      <trkpt lat="47.55377" lon="6.74258">
        <ele>431</ele>
        <time>2016-04-10T07:37:45.000Z</time>
      </trkpt>
      <trkpt lat="47.5538" lon="6.74256">
        <ele>430</ele>
        <time>2016-04-10T07:37:46.000Z</time>
      </trkpt>
      <trkpt lat="47.55383" lon="6.74256">
        <ele>430</ele>
        <time>2016-04-10T07:37:47.000Z</time>
      </trkpt>
      <trkpt lat="47.55387" lon="6.74253">
        <ele>430</ele>
        <time>2016-04-10T07:37:48.000Z</time>
      </trkpt>
      <trkpt lat="47.5539" lon="6.74253">
        <ele>429</ele>
        <time>2016-04-10T07:37:49.000Z</time>
      </trkpt>
      <trkpt lat="47.55393" lon="6.74252">
        <ele>429</ele>
        <time>2016-04-10T07:37:50.000Z</time>
      </trkpt>
      <trkpt lat="47.55396" lon="6.74252">
        <ele>429</ele>
        <time>2016-04-10T07:37:51.000Z</time>
      </trkpt>
      <trkpt lat="47.55399" lon="6.74251">
        <ele>428</ele>
        <time>2016-04-10T07:37:52.000Z</time>
      </trkpt>
      <trkpt lat="47.55402" lon="6.7425">
        <ele>428</ele>
        <time>2016-04-10T07:37:53.000Z</time>
      </trkpt>
      <trkpt lat="47.55405" lon="6.74249">
        <ele>429</ele>
        <time>2016-04-10T07:37:54.000Z</time>
      </trkpt>
      <trkpt lat="47.55409" lon="6.74248">
        <ele>428</ele>
        <time>2016-04-10T07:37:55.000Z</time>
      </trkpt>
      <trkpt lat="47.55412" lon="6.74246">
        <ele>427</ele>
        <time>2016-04-10T07:37:56.000Z</time>
      </trkpt>
      <trkpt lat="47.55416" lon="6.74244">
        <ele>427</ele>
        <time>2016-04-10T07:37:57.000Z</time>
      </trkpt>
      <trkpt lat="47.5542" lon="6.74242">
        <ele>426</ele>
        <time>2016-04-10T07:37:58.000Z</time>
      </trkpt>
      <trkpt lat="47.55424" lon="6.74239">
        <ele>425</ele>
        <time>2016-04-10T07:37:59.000Z</time>
      </trkpt>
      <trkpt lat="47.55428" lon="6.74237">
        <ele>425</ele>
        <time>2016-04-10T07:38:00.000Z</time>
      </trkpt>
      <trkpt lat="47.55438" lon="6.74234">
        <ele>425</ele>
        <time>2016-04-10T07:38:01.000Z</time>
      </trkpt>
      <trkpt lat="47.55443" lon="6.74231">
        <ele>425</ele>
        <time>2016-04-10T07:38:02.000Z</time>
      </trkpt>
      <trkpt lat="47.55447" lon="6.74229">
        <ele>425</ele>
        <time>2016-04-10T07:38:03.000Z</time>
      </trkpt>
      <trkpt lat="47.55451" lon="6.74226">
        <ele>425</ele>
        <time>2016-04-10T07:38:04.000Z</time>
      </trkpt>
      <trkpt lat="47.55456" lon="6.74224">
        <ele>425</ele>
        <time>2016-04-10T07:38:05.000Z</time>
      </trkpt>
      <trkpt lat="47.55461" lon="6.74221">
        <ele>425</ele>
        <time>2016-04-10T07:38:06.000Z</time>
      </trkpt>
      <trkpt lat="47.55465" lon="6.74219">
        <ele>424</ele>
        <time>2016-04-10T07:38:07.000Z</time>
      </trkpt>
      <trkpt lat="47.5547" lon="6.74216">
        <ele>424</ele>
        <time>2016-04-10T07:38:08.000Z</time>
      </trkpt>
      <trkpt lat="47.55475" lon="6.74214">
        <ele>424</ele>
        <time>2016-04-10T07:38:09.000Z</time>
      </trkpt>
      <trkpt lat="47.5548" lon="6.74211">
        <ele>424</ele>
        <time>2016-04-10T07:38:10.000Z</time>
      </trkpt>
      <trkpt lat="47.55486" lon="6.7421">
        <ele>424</ele>
        <time>2016-04-10T07:38:11.000Z</time>
      </trkpt>
      <trkpt lat="47.5549" lon="6.74209">
        <ele>424</ele>
        <time>2016-04-10T07:38:12.000Z</time>
      </trkpt>
      <trkpt lat="47.55499" lon="6.74206">
        <ele>424</ele>
        <time>2016-04-10T07:38:13.000Z</time>
      </trkpt>
      <trkpt lat="47.55505" lon="6.74204">
        <ele>422</ele>
        <time>2016-04-10T07:38:14.000Z</time>
      </trkpt>
      <trkpt lat="47.55511" lon="6.742">
        <ele>422</ele>
        <time>2016-04-10T07:38:15.000Z</time>
      </trkpt>
      <trkpt lat="47.55517" lon="6.74196">
        <ele>422</ele>
        <time>2016-04-10T07:38:16.000Z</time>
      </trkpt>
      <trkpt lat="47.55524" lon="6.74195">
        <ele>421</ele>
        <time>2016-04-10T07:38:17.000Z</time>
      </trkpt>
      <trkpt lat="47.5553" lon="6.74193">
        <ele>421</ele>
        <time>2016-04-10T07:38:18.000Z</time>
      </trkpt>
      <trkpt lat="47.55536" lon="6.74189">
        <ele>421</ele>
        <time>2016-04-10T07:38:19.000Z</time>
      </trkpt>
      <trkpt lat="47.55541" lon="6.74186">
        <ele>421</ele>
        <time>2016-04-10T07:38:20.000Z</time>
      </trkpt>
      <trkpt lat="47.55547" lon="6.74184">
        <ele>421</ele>
        <time>2016-04-10T07:38:21.000Z</time>
      </trkpt>
      <trkpt lat="47.55552" lon="6.74182">
        <ele>421</ele>
        <time>2016-04-10T07:38:22.000Z</time>
      </trkpt>
      <trkpt lat="47.55556" lon="6.7418">
        <ele>421</ele>
        <time>2016-04-10T07:38:23.000Z</time>
      </trkpt>
      <trkpt lat="47.5556" lon="6.74178">
        <ele>420</ele>
        <time>2016-04-10T07:38:24.000Z</time>
      </trkpt>
      <trkpt lat="47.55567" lon="6.74175">
        <ele>420</ele>
        <time>2016-04-10T07:38:25.000Z</time>
      </trkpt>
      <trkpt lat="47.55572" lon="6.74172">
        <ele>420</ele>
        <time>2016-04-10T07:38:26.000Z</time>
      </trkpt>
      <trkpt lat="47.55576" lon="6.74171">
        <ele>420</ele>
        <time>2016-04-10T07:38:27.000Z</time>
      </trkpt>
      <trkpt lat="47.5558" lon="6.74169">
        <ele>419</ele>
        <time>2016-04-10T07:38:28.000Z</time>
      </trkpt>
      <trkpt lat="47.55585" lon="6.74167">
        <ele>419</ele>
        <time>2016-04-10T07:38:29.000Z</time>
      </trkpt>
      <trkpt lat="47.55592" lon="6.74165">
        <ele>419</ele>
        <time>2016-04-10T07:38:30.000Z</time>
      </trkpt>
      <trkpt lat="47.55597" lon="6.74162">
        <ele>419</ele>
        <time>2016-04-10T07:38:31.000Z</time>
      </trkpt>
      <trkpt lat="47.55602" lon="6.7416">
        <ele>419</ele>
        <time>2016-04-10T07:38:32.000Z</time>
      </trkpt>
      <trkpt lat="47.55606" lon="6.74158">
        <ele>419</ele>
        <time>2016-04-10T07:38:33.000Z</time>
      </trkpt>
      <trkpt lat="47.55611" lon="6.74154">
        <ele>419</ele>
        <time>2016-04-10T07:38:34.000Z</time>
      </trkpt>
      <trkpt lat="47.55617" lon="6.74151">
        <ele>419</ele>
        <time>2016-04-10T07:38:35.000Z</time>
      </trkpt>
      <trkpt lat="47.55621" lon="6.74149">
        <ele>419</ele>
        <time>2016-04-10T07:38:36.000Z</time>
      </trkpt>
      <trkpt lat="47.55626" lon="6.74148">
        <ele>419</ele>
        <time>2016-04-10T07:38:37.000Z</time>
      </trkpt>
      <trkpt lat="47.55631" lon="6.74145">
        <ele>419</ele>
        <time>2016-04-10T07:38:38.000Z</time>
      </trkpt>
      <trkpt lat="47.55635" lon="6.74139">
        <ele>419</ele>
        <time>2016-04-10T07:38:39.000Z</time>
      </trkpt>
      <trkpt lat="47.55635" lon="6.7413">
        <ele>419</ele>
        <time>2016-04-10T07:38:40.000Z</time>
      </trkpt>
      <trkpt lat="47.55638" lon="6.74124">
        <ele>419</ele>
        <time>2016-04-10T07:38:40.998Z</time>
      </trkpt>
      <trkpt lat="47.5564" lon="6.74116">
        <ele>419</ele>
        <time>2016-04-10T07:38:42.000Z</time>
      </trkpt>
      <trkpt lat="47.55642" lon="6.7411">
        <ele>419</ele>
        <time>2016-04-10T07:38:43.000Z</time>
      </trkpt>
      <trkpt lat="47.55645" lon="6.74104">
        <ele>419</ele>
        <time>2016-04-10T07:38:44.000Z</time>
      </trkpt>
      <trkpt lat="47.55648" lon="6.74097">
        <ele>418</ele>
        <time>2016-04-10T07:38:45.000Z</time>
      </trkpt>
      <trkpt lat="47.55652" lon="6.7409">
        <ele>418</ele>
        <time>2016-04-10T07:38:46.000Z</time>
      </trkpt>
      <trkpt lat="47.55654" lon="6.74083">
        <ele>417</ele>
        <time>2016-04-10T07:38:47.000Z</time>
      </trkpt>
      <trkpt lat="47.55658" lon="6.74076">
        <ele>417</ele>
        <time>2016-04-10T07:38:48.000Z</time>
      </trkpt>
      <trkpt lat="47.55662" lon="6.74069">
        <ele>417</ele>
        <time>2016-04-10T07:38:49.000Z</time>
      </trkpt>
      <trkpt lat="47.55665" lon="6.74061">
        <ele>417</ele>
        <time>2016-04-10T07:38:50.000Z</time>
      </trkpt>
      <trkpt lat="47.55668" lon="6.74053">
        <ele>416</ele>
        <time>2016-04-10T07:38:51.000Z</time>
      </trkpt>
      <trkpt lat="47.55671" lon="6.74046">
        <ele>415</ele>
        <time>2016-04-10T07:38:52.000Z</time>
      </trkpt>
      <trkpt lat="47.55674" lon="6.74038">
        <ele>415</ele>
        <time>2016-04-10T07:38:53.000Z</time>
      </trkpt>
      <trkpt lat="47.55677" lon="6.74031">
        <ele>415</ele>
        <time>2016-04-10T07:38:54.000Z</time>
      </trkpt>
      <trkpt lat="47.5568" lon="6.74024">
        <ele>415</ele>
        <time>2016-04-10T07:38:55.000Z</time>
      </trkpt>
      <trkpt lat="47.55683" lon="6.74016">
        <ele>415</ele>
        <time>2016-04-10T07:38:56.000Z</time>
      </trkpt>
      <trkpt lat="47.55686" lon="6.74009">
        <ele>415</ele>
        <time>2016-04-10T07:38:57.000Z</time>
      </trkpt>
      <trkpt lat="47.55689" lon="6.74001">
        <ele>415</ele>
        <time>2016-04-10T07:38:58.000Z</time>
      </trkpt>
      <trkpt lat="47.55693" lon="6.73992">
        <ele>412</ele>
        <time>2016-04-10T07:38:59.000Z</time>
      </trkpt>
      <trkpt lat="47.55696" lon="6.73984">
        <ele>411</ele>
        <time>2016-04-10T07:39:00.000Z</time>
      </trkpt>
      <trkpt lat="47.557" lon="6.73976">
        <ele>411</ele>
        <time>2016-04-10T07:39:01.000Z</time>
      </trkpt>
      <trkpt lat="47.55703" lon="6.73968">
        <ele>411</ele>
        <time>2016-04-10T07:39:02.000Z</time>
      </trkpt>
      <trkpt lat="47.55706" lon="6.73959">
        <ele>411</ele>
        <time>2016-04-10T07:39:03.000Z</time>
      </trkpt>
      <trkpt lat="47.55709" lon="6.73951">
        <ele>410</ele>
        <time>2016-04-10T07:39:04.000Z</time>
      </trkpt>
      <trkpt lat="47.55712" lon="6.73941">
        <ele>410</ele>
        <time>2016-04-10T07:39:05.000Z</time>
      </trkpt>
      <trkpt lat="47.55716" lon="6.73932">
        <ele>410</ele>
        <time>2016-04-10T07:39:06.000Z</time>
      </trkpt>
      <trkpt lat="47.5572" lon="6.73923">
        <ele>409</ele>
        <time>2016-04-10T07:39:07.000Z</time>
      </trkpt>
      <trkpt lat="47.55725" lon="6.73914">
        <ele>406</ele>
        <time>2016-04-10T07:39:08.000Z</time>
      </trkpt>
      <trkpt lat="47.55731" lon="6.73905">
        <ele>406</ele>
        <time>2016-04-10T07:39:09.000Z</time>
      </trkpt>
      <trkpt lat="47.55737" lon="6.73897">
        <ele>406</ele>
        <time>2016-04-10T07:39:10.000Z</time>
      </trkpt>
      <trkpt lat="47.55744" lon="6.73892">
        <ele>406</ele>
        <time>2016-04-10T07:39:11.000Z</time>
      </trkpt>
      <trkpt lat="47.5575" lon="6.73887">
        <ele>403</ele>
        <time>2016-04-10T07:39:12.000Z</time>
      </trkpt>
      <trkpt lat="47.55757" lon="6.73882">
        <ele>403</ele>
        <time>2016-04-10T07:39:13.000Z</time>
      </trkpt>
      <trkpt lat="47.55763" lon="6.73877">
        <ele>403</ele>
        <time>2016-04-10T07:39:14.000Z</time>
      </trkpt>
      <trkpt lat="47.55769" lon="6.73873">
        <ele>402</ele>
        <time>2016-04-10T07:39:15.000Z</time>
      </trkpt>
      <trkpt lat="47.55776" lon="6.73871">
        <ele>402</ele>
        <time>2016-04-10T07:39:16.000Z</time>
      </trkpt>
      <trkpt lat="47.55783" lon="6.73871">
        <ele>402</ele>
        <time>2016-04-10T07:39:17.000Z</time>
      </trkpt>
      <trkpt lat="47.55789" lon="6.73869">
        <ele>402</ele>
        <time>2016-04-10T07:39:18.000Z</time>
      </trkpt>
      <trkpt lat="47.55795" lon="6.73868">
        <ele>402</ele>
        <time>2016-04-10T07:39:19.000Z</time>
      </trkpt>
      <trkpt lat="47.55801" lon="6.73868">
        <ele>402</ele>
        <time>2016-04-10T07:39:20.000Z</time>
      </trkpt>
      <trkpt lat="47.55807" lon="6.73869">
        <ele>402</ele>
        <time>2016-04-10T07:39:21.000Z</time>
      </trkpt>
      <trkpt lat="47.55812" lon="6.73868">
        <ele>401</ele>
        <time>2016-04-10T07:39:22.000Z</time>
      </trkpt>
      <trkpt lat="47.55818" lon="6.73868">
        <ele>401</ele>
        <time>2016-04-10T07:39:23.000Z</time>
      </trkpt>
      <trkpt lat="47.55822" lon="6.73866">
        <ele>401</ele>
        <time>2016-04-10T07:39:24.000Z</time>
      </trkpt>
      <trkpt lat="47.55827" lon="6.73865">
        <ele>401</ele>
        <time>2016-04-10T07:39:25.000Z</time>
      </trkpt>
      <trkpt lat="47.55831" lon="6.73867">
        <ele>401</ele>
        <time>2016-04-10T07:39:26.000Z</time>
      </trkpt>
      <trkpt lat="47.55834" lon="6.73871">
        <ele>400</ele>
        <time>2016-04-10T07:39:27.000Z</time>
      </trkpt>
      <trkpt lat="47.55836" lon="6.73875">
        <ele>401</ele>
        <time>2016-04-10T07:39:28.000Z</time>
      </trkpt>
      <trkpt lat="47.55838" lon="6.73878">
        <ele>401</ele>
        <time>2016-04-10T07:39:29.000Z</time>
      </trkpt>
      <trkpt lat="47.55839" lon="6.73882">
        <ele>401</ele>
        <time>2016-04-10T07:39:30.000Z</time>
      </trkpt>
      <trkpt lat="47.5584" lon="6.73885">
        <ele>401</ele>
        <time>2016-04-10T07:39:31.000Z</time>
      </trkpt>
      <trkpt lat="47.5584" lon="6.73889">
        <ele>401</ele>
        <time>2016-04-10T07:39:32.000Z</time>
      </trkpt>
      <trkpt lat="47.55841" lon="6.73893">
        <ele>401</ele>
        <time>2016-04-10T07:39:33.000Z</time>
      </trkpt>
      <trkpt lat="47.55842" lon="6.73897">
        <ele>402</ele>
        <time>2016-04-10T07:39:34.000Z</time>
      </trkpt>
      <trkpt lat="47.55842" lon="6.73901">
        <ele>402</ele>
        <time>2016-04-10T07:39:35.000Z</time>
      </trkpt>
      <trkpt lat="47.55843" lon="6.73904">
        <ele>402</ele>
        <time>2016-04-10T07:39:36.000Z</time>
      </trkpt>
      <trkpt lat="47.55843" lon="6.73908">
        <ele>402</ele>
        <time>2016-04-10T07:39:37.000Z</time>
      </trkpt>
      <trkpt lat="47.55844" lon="6.73912">
        <ele>402</ele>
        <time>2016-04-10T07:39:38.000Z</time>
      </trkpt>
      <trkpt lat="47.55844" lon="6.73915">
        <ele>402</ele>
        <time>2016-04-10T07:39:39.000Z</time>
      </trkpt>
      <trkpt lat="47.55845" lon="6.73918">
        <ele>404</ele>
        <time>2016-04-10T07:39:40.000Z</time>
      </trkpt>
      <trkpt lat="47.55845" lon="6.73922">
        <ele>404</ele>
        <time>2016-04-10T07:39:41.000Z</time>
      </trkpt>
      <trkpt lat="47.55846" lon="6.73925">
        <ele>404</ele>
        <time>2016-04-10T07:39:42.000Z</time>
      </trkpt>
      <trkpt lat="47.55846" lon="6.73929">
        <ele>404</ele>
        <time>2016-04-10T07:39:43.000Z</time>
      </trkpt>
      <trkpt lat="47.55847" lon="6.73932">
        <ele>404</ele>
        <time>2016-04-10T07:39:44.000Z</time>
      </trkpt>
      <trkpt lat="47.55848" lon="6.73936">
        <ele>404</ele>
        <time>2016-04-10T07:39:44.999Z</time>
      </trkpt>
      <trkpt lat="47.55848" lon="6.7394">
        <ele>405</ele>
        <time>2016-04-10T07:39:46.000Z</time>
      </trkpt>
      <trkpt lat="47.55849" lon="6.73943">
        <ele>405</ele>
        <time>2016-04-10T07:39:47.000Z</time>
      </trkpt>
      <trkpt lat="47.5585" lon="6.73947">
        <ele>405</ele>
        <time>2016-04-10T07:39:48.000Z</time>
      </trkpt>
      <trkpt lat="47.5585" lon="6.7395">
        <ele>405</ele>
        <time>2016-04-10T07:39:49.000Z</time>
      </trkpt>
      <trkpt lat="47.55851" lon="6.73954">
        <ele>405</ele>
        <time>2016-04-10T07:39:50.000Z</time>
      </trkpt>
      <trkpt lat="47.55851" lon="6.73958">
        <ele>405</ele>
        <time>2016-04-10T07:39:51.000Z</time>
      </trkpt>
      <trkpt lat="47.55852" lon="6.73961">
        <ele>405</ele>
        <time>2016-04-10T07:39:52.000Z</time>
      </trkpt>
      <trkpt lat="47.55853" lon="6.73965">
        <ele>406</ele>
        <time>2016-04-10T07:39:53.000Z</time>
      </trkpt>
      <trkpt lat="47.55853" lon="6.73969">
        <ele>406</ele>
        <time>2016-04-10T07:39:54.000Z</time>
      </trkpt>
      <trkpt lat="47.55854" lon="6.73973">
        <ele>406</ele>
        <time>2016-04-10T07:39:55.000Z</time>
      </trkpt>
      <trkpt lat="47.55854" lon="6.73977">
        <ele>406</ele>
        <time>2016-04-10T07:39:56.000Z</time>
      </trkpt>
      <trkpt lat="47.55855" lon="6.73981">
        <ele>406</ele>
        <time>2016-04-10T07:39:57.000Z</time>
      </trkpt>
      <trkpt lat="47.55855" lon="6.73985">
        <ele>406</ele>
        <time>2016-04-10T07:39:58.000Z</time>
      </trkpt>
      <trkpt lat="47.55856" lon="6.73988">
        <ele>406</ele>
        <time>2016-04-10T07:39:59.000Z</time>
      </trkpt>
      <trkpt lat="47.55856" lon="6.73992">
        <ele>406</ele>
        <time>2016-04-10T07:40:00.001Z</time>
      </trkpt>
      <trkpt lat="47.55856" lon="6.73996">
        <ele>406</ele>
        <time>2016-04-10T07:40:01.001Z</time>
      </trkpt>
      <trkpt lat="47.55857" lon="6.73999">
        <ele>406</ele>
        <time>2016-04-10T07:40:02.000Z</time>
      </trkpt>
      <trkpt lat="47.55857" lon="6.74005">
        <ele>409</ele>
        <time>2016-04-10T07:40:04.000Z</time>
      </trkpt>
      <trkpt lat="47.55858" lon="6.74008">
        <ele>409</ele>
        <time>2016-04-10T07:40:05.000Z</time>
      </trkpt>
      <trkpt lat="47.55859" lon="6.74013">
        <ele>409</ele>
        <time>2016-04-10T07:40:07.000Z</time>
      </trkpt>
      <trkpt lat="47.5586" lon="6.74016">
        <ele>409</ele>
        <time>2016-04-10T07:40:08.000Z</time>
      </trkpt>
      <trkpt lat="47.55861" lon="6.74021">
        <ele>409</ele>
        <time>2016-04-10T07:40:10.000Z</time>
      </trkpt>
      <trkpt lat="47.55861" lon="6.74024">
        <ele>409</ele>
        <time>2016-04-10T07:40:11.000Z</time>
      </trkpt>
      <trkpt lat="47.55862" lon="6.7403">
        <ele>409</ele>
        <time>2016-04-10T07:40:13.000Z</time>
      </trkpt>
      <trkpt lat="47.55862" lon="6.74033">
        <ele>409</ele>
        <time>2016-04-10T07:40:14.000Z</time>
      </trkpt>
      <trkpt lat="47.55863" lon="6.74036">
        <ele>409</ele>
        <time>2016-04-10T07:40:15.000Z</time>
      </trkpt>
      <trkpt lat="47.55864" lon="6.74039">
        <ele>409</ele>
        <time>2016-04-10T07:40:16.000Z</time>
      </trkpt>
      <trkpt lat="47.55865" lon="6.74043">
        <ele>409</ele>
        <time>2016-04-10T07:40:17.000Z</time>
      </trkpt>
      <trkpt lat="47.55865" lon="6.74046">
        <ele>409</ele>
        <time>2016-04-10T07:40:18.000Z</time>
      </trkpt>
      <trkpt lat="47.55866" lon="6.7405">
        <ele>410</ele>
        <time>2016-04-10T07:40:19.000Z</time>
      </trkpt>
      <trkpt lat="47.55866" lon="6.74054">
        <ele>410</ele>
        <time>2016-04-10T07:40:20.000Z</time>
      </trkpt>
      <trkpt lat="47.55866" lon="6.74057">
        <ele>410</ele>
        <time>2016-04-10T07:40:21.000Z</time>
      </trkpt>
      <trkpt lat="47.55867" lon="6.74061">
        <ele>410</ele>
        <time>2016-04-10T07:40:22.000Z</time>
      </trkpt>
      <trkpt lat="47.55867" lon="6.74064">
        <ele>410</ele>
        <time>2016-04-10T07:40:23.000Z</time>
      </trkpt>
      <trkpt lat="47.55868" lon="6.74068">
        <ele>410</ele>
        <time>2016-04-10T07:40:24.000Z</time>
      </trkpt>
      <trkpt lat="47.55869" lon="6.74072">
        <ele>410</ele>
        <time>2016-04-10T07:40:25.000Z</time>
      </trkpt>
      <trkpt lat="47.55869" lon="6.74076">
        <ele>410</ele>
        <time>2016-04-10T07:40:26.000Z</time>
      </trkpt>
      <trkpt lat="47.5587" lon="6.7408">
        <ele>410</ele>
        <time>2016-04-10T07:40:27.000Z</time>
      </trkpt>
      <trkpt lat="47.5587" lon="6.74084">
        <ele>412</ele>
        <time>2016-04-10T07:40:28.000Z</time>
      </trkpt>
      <trkpt lat="47.55871" lon="6.74088">
        <ele>412</ele>
        <time>2016-04-10T07:40:29.000Z</time>
      </trkpt>
      <trkpt lat="47.55872" lon="6.74092">
        <ele>412</ele>
        <time>2016-04-10T07:40:30.000Z</time>
      </trkpt>
      <trkpt lat="47.55872" lon="6.74096">
        <ele>412</ele>
        <time>2016-04-10T07:40:31.000Z</time>
      </trkpt>
      <trkpt lat="47.55873" lon="6.741">
        <ele>412</ele>
        <time>2016-04-10T07:40:32.000Z</time>
      </trkpt>
      <trkpt lat="47.55873" lon="6.74104">
        <ele>412</ele>
        <time>2016-04-10T07:40:33.000Z</time>
      </trkpt>
      <trkpt lat="47.55874" lon="6.74108">
        <ele>412</ele>
        <time>2016-04-10T07:40:34.000Z</time>
      </trkpt>
      <trkpt lat="47.55874" lon="6.74112">
        <ele>412</ele>
        <time>2016-04-10T07:40:35.000Z</time>
      </trkpt>
      <trkpt lat="47.55875" lon="6.74117">
        <ele>412</ele>
        <time>2016-04-10T07:40:35.999Z</time>
      </trkpt>
      <trkpt lat="47.55876" lon="6.74121">
        <ele>412</ele>
        <time>2016-04-10T07:40:37.000Z</time>
      </trkpt>
      <trkpt lat="47.55876" lon="6.74125">
        <ele>412</ele>
        <time>2016-04-10T07:40:38.000Z</time>
      </trkpt>
      <trkpt lat="47.55877" lon="6.74129">
        <ele>413</ele>
        <time>2016-04-10T07:40:39.000Z</time>
      </trkpt>
      <trkpt lat="47.55878" lon="6.74133">
        <ele>413</ele>
        <time>2016-04-10T07:40:39.999Z</time>
      </trkpt>
      <trkpt lat="47.55879" lon="6.74137">
        <ele>413</ele>
        <time>2016-04-10T07:40:41.000Z</time>
      </trkpt>
      <trkpt lat="47.5588" lon="6.74141">
        <ele>413</ele>
        <time>2016-04-10T07:40:42.000Z</time>
      </trkpt>
      <trkpt lat="47.5588" lon="6.74145">
        <ele>413</ele>
        <time>2016-04-10T07:40:43.000Z</time>
      </trkpt>
      <trkpt lat="47.55881" lon="6.7415">
        <ele>413</ele>
        <time>2016-04-10T07:40:44.000Z</time>
      </trkpt>
      <trkpt lat="47.55881" lon="6.74154">
        <ele>413</ele>
        <time>2016-04-10T07:40:45.000Z</time>
      </trkpt>
      <trkpt lat="47.55882" lon="6.74158">
        <ele>413</ele>
        <time>2016-04-10T07:40:46.000Z</time>
      </trkpt>
      <trkpt lat="47.55882" lon="6.74162">
        <ele>413</ele>
        <time>2016-04-10T07:40:47.000Z</time>
      </trkpt>
      <trkpt lat="47.55883" lon="6.74166">
        <ele>413</ele>
        <time>2016-04-10T07:40:48.000Z</time>
      </trkpt>
      <trkpt lat="47.55883" lon="6.7417">
        <ele>415</ele>
        <time>2016-04-10T07:40:49.000Z</time>
      </trkpt>
      <trkpt lat="47.55883" lon="6.74174">
        <ele>415</ele>
        <time>2016-04-10T07:40:50.000Z</time>
      </trkpt>
      <trkpt lat="47.55884" lon="6.74178">
        <ele>416</ele>
        <time>2016-04-10T07:40:50.999Z</time>
      </trkpt>
      <trkpt lat="47.55884" lon="6.74183">
        <ele>416</ele>
        <time>2016-04-10T07:40:52.000Z</time>
      </trkpt>
      <trkpt lat="47.55884" lon="6.74187">
        <ele>416</ele>
        <time>2016-04-10T07:40:53.000Z</time>
      </trkpt>
      <trkpt lat="47.55884" lon="6.74191">
        <ele>416</ele>
        <time>2016-04-10T07:40:54.000Z</time>
      </trkpt>
      <trkpt lat="47.55884" lon="6.74195">
        <ele>416</ele>
        <time>2016-04-10T07:40:55.000Z</time>
      </trkpt>
      <trkpt lat="47.55884" lon="6.742">
        <ele>416</ele>
        <time>2016-04-10T07:40:56.000Z</time>
      </trkpt>
      <trkpt lat="47.55885" lon="6.74204">
        <ele>416</ele>
        <time>2016-04-10T07:40:57.000Z</time>
      </trkpt>
      <trkpt lat="47.55886" lon="6.74208">
        <ele>416</ele>
        <time>2016-04-10T07:40:58.000Z</time>
      </trkpt>
      <trkpt lat="47.55886" lon="6.74212">
        <ele>416</ele>
        <time>2016-04-10T07:40:59.000Z</time>
      </trkpt>
      <trkpt lat="47.55887" lon="6.74216">
        <ele>417</ele>
        <time>2016-04-10T07:41:00.000Z</time>
      </trkpt>
      <trkpt lat="47.55887" lon="6.7422">
        <ele>417</ele>
        <time>2016-04-10T07:41:01.000Z</time>
      </trkpt>
      <trkpt lat="47.55888" lon="6.74225">
        <ele>417</ele>
        <time>2016-04-10T07:41:02.000Z</time>
      </trkpt>
      <trkpt lat="47.55888" lon="6.7423">
        <ele>417</ele>
        <time>2016-04-10T07:41:03.000Z</time>
      </trkpt>
      <trkpt lat="47.55888" lon="6.74234">
        <ele>417</ele>
        <time>2016-04-10T07:41:04.000Z</time>
      </trkpt>
      <trkpt lat="47.55888" lon="6.74239">
        <ele>417</ele>
        <time>2016-04-10T07:41:05.000Z</time>
      </trkpt>
      <trkpt lat="47.55889" lon="6.74244">
        <ele>417</ele>
        <time>2016-04-10T07:41:06.000Z</time>
      </trkpt>
      <trkpt lat="47.55889" lon="6.74249">
        <ele>417</ele>
        <time>2016-04-10T07:41:07.000Z</time>
      </trkpt>
      <trkpt lat="47.55889" lon="6.74254">
        <ele>419</ele>
        <time>2016-04-10T07:41:08.000Z</time>
      </trkpt>
      <trkpt lat="47.5589" lon="6.74259">
        <ele>419</ele>
        <time>2016-04-10T07:41:09.000Z</time>
      </trkpt>
      <trkpt lat="47.5589" lon="6.74264">
        <ele>419</ele>
        <time>2016-04-10T07:41:10.000Z</time>
      </trkpt>
      <trkpt lat="47.55891" lon="6.74269">
        <ele>419</ele>
        <time>2016-04-10T07:41:11.000Z</time>
      </trkpt>
      <trkpt lat="47.55893" lon="6.74272">
        <ele>419</ele>
        <time>2016-04-10T07:41:12.000Z</time>
      </trkpt>
      <trkpt lat="47.55896" lon="6.74273">
        <ele>419</ele>
        <time>2016-04-10T07:41:13.000Z</time>
      </trkpt>
      <trkpt lat="47.559" lon="6.74272">
        <ele>419</ele>
        <time>2016-04-10T07:41:14.000Z</time>
      </trkpt>
      <trkpt lat="47.55904" lon="6.74269">
        <ele>419</ele>
        <time>2016-04-10T07:41:15.000Z</time>
      </trkpt>
      <trkpt lat="47.55907" lon="6.74267">
        <ele>419</ele>
        <time>2016-04-10T07:41:16.000Z</time>
      </trkpt>
      <trkpt lat="47.55911" lon="6.74266">
        <ele>419</ele>
        <time>2016-04-10T07:41:17.000Z</time>
      </trkpt>
      <trkpt lat="47.55915" lon="6.74264">
        <ele>419</ele>
        <time>2016-04-10T07:41:18.000Z</time>
      </trkpt>
      <trkpt lat="47.55919" lon="6.74263">
        <ele>419</ele>
        <time>2016-04-10T07:41:19.000Z</time>
      </trkpt>
      <trkpt lat="47.55922" lon="6.74262">
        <ele>419</ele>
        <time>2016-04-10T07:41:20.000Z</time>
      </trkpt>
      <trkpt lat="47.55926" lon="6.7426">
        <ele>419</ele>
        <time>2016-04-10T07:41:21.000Z</time>
      </trkpt>
      <trkpt lat="47.55929" lon="6.74259">
        <ele>419</ele>
        <time>2016-04-10T07:41:22.000Z</time>
      </trkpt>
      <trkpt lat="47.55933" lon="6.74257">
        <ele>419</ele>
        <time>2016-04-10T07:41:23.000Z</time>
      </trkpt>
      <trkpt lat="47.55936" lon="6.74255">
        <ele>419</ele>
        <time>2016-04-10T07:41:24.000Z</time>
      </trkpt>
      <trkpt lat="47.55939" lon="6.74253">
        <ele>419</ele>
        <time>2016-04-10T07:41:25.000Z</time>
      </trkpt>
      <trkpt lat="47.55943" lon="6.74251">
        <ele>419</ele>
        <time>2016-04-10T07:41:26.000Z</time>
      </trkpt>
      <trkpt lat="47.55947" lon="6.7425">
        <ele>418</ele>
        <time>2016-04-10T07:41:27.000Z</time>
      </trkpt>
      <trkpt lat="47.55951" lon="6.74248">
        <ele>417</ele>
        <time>2016-04-10T07:41:28.000Z</time>
      </trkpt>
      <trkpt lat="47.55954" lon="6.74247">
        <ele>417</ele>
        <time>2016-04-10T07:41:29.000Z</time>
      </trkpt>
      <trkpt lat="47.55958" lon="6.74246">
        <ele>417</ele>
        <time>2016-04-10T07:41:30.000Z</time>
      </trkpt>
      <trkpt lat="47.55962" lon="6.74244">
        <ele>417</ele>
        <time>2016-04-10T07:41:31.000Z</time>
      </trkpt>
      <trkpt lat="47.55966" lon="6.74243">
        <ele>417</ele>
        <time>2016-04-10T07:41:32.000Z</time>
      </trkpt>
      <trkpt lat="47.5597" lon="6.74242">
        <ele>417</ele>
        <time>2016-04-10T07:41:33.000Z</time>
      </trkpt>
      <trkpt lat="47.55974" lon="6.7424">
        <ele>417</ele>
        <time>2016-04-10T07:41:34.000Z</time>
      </trkpt>
      <trkpt lat="47.55978" lon="6.74238">
        <ele>417</ele>
        <time>2016-04-10T07:41:35.000Z</time>
      </trkpt>
      <trkpt lat="47.55981" lon="6.74235">
        <ele>417</ele>
        <time>2016-04-10T07:41:36.000Z</time>
      </trkpt>
      <trkpt lat="47.55983" lon="6.7423">
        <ele>417</ele>
        <time>2016-04-10T07:41:37.000Z</time>
      </trkpt>
      <trkpt lat="47.55984" lon="6.74225">
        <ele>417</ele>
        <time>2016-04-10T07:41:38.000Z</time>
      </trkpt>
      <trkpt lat="47.55983" lon="6.74218">
        <ele>417</ele>
        <time>2016-04-10T07:41:39.000Z</time>
      </trkpt>
      <trkpt lat="47.55977" lon="6.74209">
        <ele>417</ele>
        <time>2016-04-10T07:41:40.000Z</time>
      </trkpt>
      <trkpt lat="47.55975" lon="6.74202">
        <ele>416</ele>
        <time>2016-04-10T07:41:41.000Z</time>
      </trkpt>
      <trkpt lat="47.55973" lon="6.74194">
        <ele>416</ele>
        <time>2016-04-10T07:41:42.000Z</time>
      </trkpt>
      <trkpt lat="47.55972" lon="6.74187">
        <ele>416</ele>
        <time>2016-04-10T07:41:43.000Z</time>
      </trkpt>
      <trkpt lat="47.55971" lon="6.74179">
        <ele>416</ele>
        <time>2016-04-10T07:41:44.000Z</time>
      </trkpt>
      <trkpt lat="47.5597" lon="6.74171">
        <ele>416</ele>
        <time>2016-04-10T07:41:45.000Z</time>
      </trkpt>
      <trkpt lat="47.55969" lon="6.74162">
        <ele>413</ele>
        <time>2016-04-10T07:41:46.000Z</time>
      </trkpt>
      <trkpt lat="47.55968" lon="6.74155">
        <ele>413</ele>
        <time>2016-04-10T07:41:47.000Z</time>
      </trkpt>
      <trkpt lat="47.55967" lon="6.74146">
        <ele>412</ele>
        <time>2016-04-10T07:41:48.000Z</time>
      </trkpt>
      <trkpt lat="47.55966" lon="6.74136">
        <ele>412</ele>
        <time>2016-04-10T07:41:49.000Z</time>
      </trkpt>
      <trkpt lat="47.55965" lon="6.74126">
        <ele>412</ele>
        <time>2016-04-10T07:41:50.000Z</time>
      </trkpt>
      <trkpt lat="47.55963" lon="6.74116">
        <ele>412</ele>
        <time>2016-04-10T07:41:51.000Z</time>
      </trkpt>
      <trkpt lat="47.55961" lon="6.74107">
        <ele>412</ele>
        <time>2016-04-10T07:41:52.000Z</time>
      </trkpt>
      <trkpt lat="47.55958" lon="6.74097">
        <ele>411</ele>
        <time>2016-04-10T07:41:53.000Z</time>
      </trkpt>
      <trkpt lat="47.55956" lon="6.74087">
        <ele>411</ele>
        <time>2016-04-10T07:41:54.000Z</time>
      </trkpt>
      <trkpt lat="47.55954" lon="6.74079">
        <ele>409</ele>
        <time>2016-04-10T07:41:55.000Z</time>
      </trkpt>
      <trkpt lat="47.55952" lon="6.74069">
        <ele>409</ele>
        <time>2016-04-10T07:41:56.000Z</time>
      </trkpt>
      <trkpt lat="47.55951" lon="6.74058">
        <ele>409</ele>
        <time>2016-04-10T07:41:57.000Z</time>
      </trkpt>
      <trkpt lat="47.55949" lon="6.74048">
        <ele>409</ele>
        <time>2016-04-10T07:41:58.000Z</time>
      </trkpt>
      <trkpt lat="47.55948" lon="6.74038">
        <ele>409</ele>
        <time>2016-04-10T07:41:59.000Z</time>
      </trkpt>
      <trkpt lat="47.55944" lon="6.74016">
        <ele>408</ele>
        <time>2016-04-10T07:42:01.000Z</time>
      </trkpt>
      <trkpt lat="47.55943" lon="6.74005">
        <ele>408</ele>
        <time>2016-04-10T07:42:02.000Z</time>
      </trkpt>
      <trkpt lat="47.55942" lon="6.73994">
        <ele>406</ele>
        <time>2016-04-10T07:42:03.000Z</time>
      </trkpt>
      <trkpt lat="47.55943" lon="6.73983">
        <ele>406</ele>
        <time>2016-04-10T07:42:04.000Z</time>
      </trkpt>
      <trkpt lat="47.55946" lon="6.73972">
        <ele>406</ele>
        <time>2016-04-10T07:42:05.000Z</time>
      </trkpt>
      <trkpt lat="47.55951" lon="6.73963">
        <ele>406</ele>
        <time>2016-04-10T07:42:06.000Z</time>
      </trkpt>
      <trkpt lat="47.55956" lon="6.73955">
        <ele>405</ele>
        <time>2016-04-10T07:42:07.000Z</time>
      </trkpt>
      <trkpt lat="47.55962" lon="6.73948">
        <ele>405</ele>
        <time>2016-04-10T07:42:08.000Z</time>
      </trkpt>
      <trkpt lat="47.55967" lon="6.73941">
        <ele>405</ele>
        <time>2016-04-10T07:42:09.000Z</time>
      </trkpt>
      <trkpt lat="47.55973" lon="6.73934">
        <ele>405</ele>
        <time>2016-04-10T07:42:10.000Z</time>
      </trkpt>
      <trkpt lat="47.55979" lon="6.73927">
        <ele>405</ele>
        <time>2016-04-10T07:42:11.000Z</time>
      </trkpt>
      <trkpt lat="47.55985" lon="6.73921">
        <ele>405</ele>
        <time>2016-04-10T07:42:12.000Z</time>
      </trkpt>
      <trkpt lat="47.55991" lon="6.73913">
        <ele>403</ele>
        <time>2016-04-10T07:42:13.000Z</time>
      </trkpt>
      <trkpt lat="47.55997" lon="6.73906">
        <ele>403</ele>
        <time>2016-04-10T07:42:14.000Z</time>
      </trkpt>
      <trkpt lat="47.56001" lon="6.73898">
        <ele>403</ele>
        <time>2016-04-10T07:42:15.000Z</time>
      </trkpt>
      <trkpt lat="47.56006" lon="6.73889">
        <ele>402</ele>
        <time>2016-04-10T07:42:16.000Z</time>
      </trkpt>
      <trkpt lat="47.5601" lon="6.73879">
        <ele>402</ele>
        <time>2016-04-10T07:42:17.000Z</time>
      </trkpt>
      <trkpt lat="47.56014" lon="6.73869">
        <ele>401</ele>
        <time>2016-04-10T07:42:18.000Z</time>
      </trkpt>
      <trkpt lat="47.56015" lon="6.73858">
        <ele>401</ele>
        <time>2016-04-10T07:42:19.000Z</time>
      </trkpt>
      <trkpt lat="47.56017" lon="6.73846">
        <ele>401</ele>
        <time>2016-04-10T07:42:20.000Z</time>
      </trkpt>
      <trkpt lat="47.56016" lon="6.73834">
        <ele>401</ele>
        <time>2016-04-10T07:42:21.000Z</time>
      </trkpt>
      <trkpt lat="47.56016" lon="6.73822">
        <ele>398</ele>
        <time>2016-04-10T07:42:22.000Z</time>
      </trkpt>
      <trkpt lat="47.56015" lon="6.73811">
        <ele>398</ele>
        <time>2016-04-10T07:42:23.000Z</time>
      </trkpt>
      <trkpt lat="47.56016" lon="6.73801">
        <ele>398</ele>
        <time>2016-04-10T07:42:24.000Z</time>
      </trkpt>
      <trkpt lat="47.56015" lon="6.73792">
        <ele>397</ele>
        <time>2016-04-10T07:42:25.000Z</time>
      </trkpt>
      <trkpt lat="47.56014" lon="6.73783">
        <ele>397</ele>
        <time>2016-04-10T07:42:26.000Z</time>
      </trkpt>
      <trkpt lat="47.56011" lon="6.73775">
        <ele>396</ele>
        <time>2016-04-10T07:42:27.000Z</time>
      </trkpt>
      <trkpt lat="47.56004" lon="6.73768">
        <ele>396</ele>
        <time>2016-04-10T07:42:28.000Z</time>
      </trkpt>
      <trkpt lat="47.55998" lon="6.73762">
        <ele>396</ele>
        <time>2016-04-10T07:42:29.000Z</time>
      </trkpt>
      <trkpt lat="47.55993" lon="6.73757">
        <ele>396</ele>
        <time>2016-04-10T07:42:30.000Z</time>
      </trkpt>
      <trkpt lat="47.55988" lon="6.73753">
        <ele>396</ele>
        <time>2016-04-10T07:42:31.000Z</time>
      </trkpt>
      <trkpt lat="47.55985" lon="6.73747">
        <ele>395</ele>
        <time>2016-04-10T07:42:32.000Z</time>
      </trkpt>
      <trkpt lat="47.55982" lon="6.73742">
        <ele>395</ele>
        <time>2016-04-10T07:42:33.000Z</time>
      </trkpt>
      <trkpt lat="47.55981" lon="6.73736">
        <ele>395</ele>
        <time>2016-04-10T07:42:34.000Z</time>
      </trkpt>
      <trkpt lat="47.55982" lon="6.7373">
        <ele>395</ele>
        <time>2016-04-10T07:42:35.000Z</time>
      </trkpt>
      <trkpt lat="47.55985" lon="6.73725">
        <ele>395</ele>
        <time>2016-04-10T07:42:36.000Z</time>
      </trkpt>
      <trkpt lat="47.5599" lon="6.73723">
        <ele>395</ele>
        <time>2016-04-10T07:42:37.000Z</time>
      </trkpt>
      <trkpt lat="47.55995" lon="6.73724">
        <ele>395</ele>
        <time>2016-04-10T07:42:38.000Z</time>
      </trkpt>
      <trkpt lat="47.56" lon="6.73724">
        <ele>394</ele>
        <time>2016-04-10T07:42:38.999Z</time>
      </trkpt>
      <trkpt lat="47.56007" lon="6.73726">
        <ele>394</ele>
        <time>2016-04-10T07:42:40.000Z</time>
      </trkpt>
      <trkpt lat="47.56013" lon="6.73726">
        <ele>394</ele>
        <time>2016-04-10T07:42:41.000Z</time>
      </trkpt>
      <trkpt lat="47.56019" lon="6.73726">
        <ele>394</ele>
        <time>2016-04-10T07:42:42.000Z</time>
      </trkpt>
      <trkpt lat="47.56025" lon="6.73727">
        <ele>394</ele>
        <time>2016-04-10T07:42:43.000Z</time>
      </trkpt>
      <trkpt lat="47.56031" lon="6.73727">
        <ele>394</ele>
        <time>2016-04-10T07:42:44.000Z</time>
      </trkpt>
      <trkpt lat="47.56038" lon="6.73727">
        <ele>394</ele>
        <time>2016-04-10T07:42:45.000Z</time>
      </trkpt>
      <trkpt lat="47.56044" lon="6.73728">
        <ele>394</ele>
        <time>2016-04-10T07:42:46.000Z</time>
      </trkpt>
      <trkpt lat="47.56051" lon="6.73729">
        <ele>394</ele>
        <time>2016-04-10T07:42:47.000Z</time>
      </trkpt>
      <trkpt lat="47.56058" lon="6.73729">
        <ele>394</ele>
        <time>2016-04-10T07:42:48.000Z</time>
      </trkpt>
      <trkpt lat="47.56065" lon="6.73729">
        <ele>394</ele>
        <time>2016-04-10T07:42:49.000Z</time>
      </trkpt>
      <trkpt lat="47.56073" lon="6.73728">
        <ele>394</ele>
        <time>2016-04-10T07:42:50.000Z</time>
      </trkpt>
      <trkpt lat="47.5608" lon="6.73727">
        <ele>394</ele>
        <time>2016-04-10T07:42:51.000Z</time>
      </trkpt>
      <trkpt lat="47.56088" lon="6.73725">
        <ele>392</ele>
        <time>2016-04-10T07:42:52.000Z</time>
      </trkpt>
      <trkpt lat="47.56095" lon="6.73724">
        <ele>392</ele>
        <time>2016-04-10T07:42:53.000Z</time>
      </trkpt>
      <trkpt lat="47.56103" lon="6.7372">
        <ele>392</ele>
        <time>2016-04-10T07:42:54.000Z</time>
      </trkpt>
      <trkpt lat="47.5611" lon="6.73715">
        <ele>392</ele>
        <time>2016-04-10T07:42:55.000Z</time>
      </trkpt>
      <trkpt lat="47.56117" lon="6.7371">
        <ele>391</ele>
        <time>2016-04-10T07:42:56.000Z</time>
      </trkpt>
      <trkpt lat="47.56124" lon="6.73704">
        <ele>391</ele>
        <time>2016-04-10T07:42:57.000Z</time>
      </trkpt>
      <trkpt lat="47.56131" lon="6.73696">
        <ele>391</ele>
        <time>2016-04-10T07:42:58.000Z</time>
      </trkpt>
      <trkpt lat="47.56138" lon="6.73689">
        <ele>390</ele>
        <time>2016-04-10T07:42:59.000Z</time>
      </trkpt>
      <trkpt lat="47.56144" lon="6.73681">
        <ele>390</ele>
        <time>2016-04-10T07:43:00.000Z</time>
      </trkpt>
      <trkpt lat="47.56151" lon="6.73673">
        <ele>389</ele>
        <time>2016-04-10T07:43:01.000Z</time>
      </trkpt>
      <trkpt lat="47.56156" lon="6.73667">
        <ele>388</ele>
        <time>2016-04-10T07:43:02.000Z</time>
      </trkpt>
      <trkpt lat="47.56163" lon="6.73661">
        <ele>387</ele>
        <time>2016-04-10T07:43:03.000Z</time>
      </trkpt>
      <trkpt lat="47.56168" lon="6.73656">
        <ele>386</ele>
        <time>2016-04-10T07:43:04.000Z</time>
      </trkpt>
      <trkpt lat="47.56173" lon="6.73652">
        <ele>385</ele>
        <time>2016-04-10T07:43:05.000Z</time>
      </trkpt>
      <trkpt lat="47.56178" lon="6.73648">
        <ele>385</ele>
        <time>2016-04-10T07:43:06.000Z</time>
      </trkpt>
      <trkpt lat="47.56182" lon="6.73646">
        <ele>385</ele>
        <time>2016-04-10T07:43:07.000Z</time>
      </trkpt>
      <trkpt lat="47.56186" lon="6.73645">
        <ele>385</ele>
        <time>2016-04-10T07:43:08.000Z</time>
      </trkpt>
      <trkpt lat="47.56189" lon="6.73644">
        <ele>385</ele>
        <time>2016-04-10T07:43:09.000Z</time>
      </trkpt>
      <trkpt lat="47.56193" lon="6.73644">
        <ele>385</ele>
        <time>2016-04-10T07:43:10.000Z</time>
      </trkpt>
      <trkpt lat="47.56196" lon="6.73643">
        <ele>385</ele>
        <time>2016-04-10T07:43:11.000Z</time>
      </trkpt>
      <trkpt lat="47.56199" lon="6.7364">
        <ele>385</ele>
        <time>2016-04-10T07:43:12.000Z</time>
      </trkpt>
      <trkpt lat="47.56202" lon="6.73636">
        <ele>385</ele>
        <time>2016-04-10T07:43:13.000Z</time>
      </trkpt>
      <trkpt lat="47.56205" lon="6.73632">
        <ele>385</ele>
        <time>2016-04-10T07:43:14.000Z</time>
      </trkpt>
      <trkpt lat="47.56207" lon="6.73627">
        <ele>385</ele>
        <time>2016-04-10T07:43:15.000Z</time>
      </trkpt>
      <trkpt lat="47.56209" lon="6.73623">
        <ele>385</ele>
        <time>2016-04-10T07:43:16.000Z</time>
      </trkpt>
      <trkpt lat="47.56212" lon="6.73619">
        <ele>385</ele>
        <time>2016-04-10T07:43:17.000Z</time>
      </trkpt>
      <trkpt lat="47.56215" lon="6.73615">
        <ele>385</ele>
        <time>2016-04-10T07:43:18.000Z</time>
      </trkpt>
      <trkpt lat="47.56217" lon="6.73613">
        <ele>385</ele>
        <time>2016-04-10T07:43:19.000Z</time>
      </trkpt>
      <trkpt lat="47.5622" lon="6.7361">
        <ele>385</ele>
        <time>2016-04-10T07:43:20.000Z</time>
      </trkpt>
      <trkpt lat="47.56222" lon="6.73607">
        <ele>385</ele>
        <time>2016-04-10T07:43:21.000Z</time>
      </trkpt>
      <trkpt lat="47.56225" lon="6.73604">
        <ele>386</ele>
        <time>2016-04-10T07:43:22.000Z</time>
      </trkpt>
      <trkpt lat="47.56228" lon="6.73603">
        <ele>386</ele>
        <time>2016-04-10T07:43:23.000Z</time>
      </trkpt>
      <trkpt lat="47.56231" lon="6.73601">
        <ele>386</ele>
        <time>2016-04-10T07:43:24.000Z</time>
      </trkpt>
      <trkpt lat="47.56233" lon="6.73599">
        <ele>386</ele>
        <time>2016-04-10T07:43:24.999Z</time>
      </trkpt>
      <trkpt lat="47.56236" lon="6.73596">
        <ele>386</ele>
        <time>2016-04-10T07:43:26.000Z</time>
      </trkpt>
      <trkpt lat="47.56239" lon="6.73594">
        <ele>386</ele>
        <time>2016-04-10T07:43:27.000Z</time>
      </trkpt>
      <trkpt lat="47.56242" lon="6.73592">
        <ele>387</ele>
        <time>2016-04-10T07:43:28.000Z</time>
      </trkpt>
      <trkpt lat="47.56245" lon="6.73589">
        <ele>387</ele>
        <time>2016-04-10T07:43:28.999Z</time>
      </trkpt>
      <trkpt lat="47.56249" lon="6.73587">
        <ele>388</ele>
        <time>2016-04-10T07:43:30.000Z</time>
      </trkpt>
      <trkpt lat="47.56252" lon="6.73585">
        <ele>388</ele>
        <time>2016-04-10T07:43:31.000Z</time>
      </trkpt>
      <trkpt lat="47.56256" lon="6.73584">
        <ele>387</ele>
        <time>2016-04-10T07:43:32.000Z</time>
      </trkpt>
      <trkpt lat="47.5626" lon="6.73583">
        <ele>390</ele>
        <time>2016-04-10T07:43:32.999Z</time>
      </trkpt>
      <trkpt lat="47.56262" lon="6.73582">
        <ele>390</ele>
        <time>2016-04-10T07:43:34.000Z</time>
      </trkpt>
      <trkpt lat="47.56265" lon="6.7358">
        <ele>390</ele>
        <time>2016-04-10T07:43:35.000Z</time>
      </trkpt>
      <trkpt lat="47.56268" lon="6.73578">
        <ele>391</ele>
        <time>2016-04-10T07:43:36.000Z</time>
      </trkpt>
      <trkpt lat="47.56271" lon="6.73579">
        <ele>391</ele>
        <time>2016-04-10T07:43:37.000Z</time>
      </trkpt>
      <trkpt lat="47.56274" lon="6.73578">
        <ele>391</ele>
        <time>2016-04-10T07:43:38.000Z</time>
      </trkpt>
      <trkpt lat="47.56277" lon="6.73577">
        <ele>391</ele>
        <time>2016-04-10T07:43:38.999Z</time>
      </trkpt>
      <trkpt lat="47.5628" lon="6.73575">
        <ele>392</ele>
        <time>2016-04-10T07:43:40.000Z</time>
      </trkpt>
      <trkpt lat="47.56282" lon="6.73575">
        <ele>392</ele>
        <time>2016-04-10T07:43:41.000Z</time>
      </trkpt>
      <trkpt lat="47.56285" lon="6.73573">
        <ele>392</ele>
        <time>2016-04-10T07:43:42.000Z</time>
      </trkpt>
      <trkpt lat="47.56288" lon="6.73572">
        <ele>392</ele>
        <time>2016-04-10T07:43:43.000Z</time>
      </trkpt>
      <trkpt lat="47.56291" lon="6.73571">
        <ele>392</ele>
        <time>2016-04-10T07:43:44.000Z</time>
      </trkpt>
      <trkpt lat="47.56294" lon="6.7357">
        <ele>392</ele>
        <time>2016-04-10T07:43:44.999Z</time>
      </trkpt>
      <trkpt lat="47.56297" lon="6.7357">
        <ele>392</ele>
        <time>2016-04-10T07:43:46.000Z</time>
      </trkpt>
      <trkpt lat="47.563" lon="6.7357">
        <ele>393</ele>
        <time>2016-04-10T07:43:47.000Z</time>
      </trkpt>
      <trkpt lat="47.56303" lon="6.7357">
        <ele>393</ele>
        <time>2016-04-10T07:43:48.000Z</time>
      </trkpt>
      <trkpt lat="47.56306" lon="6.73571">
        <ele>393</ele>
        <time>2016-04-10T07:43:49.000Z</time>
      </trkpt>
      <trkpt lat="47.56309" lon="6.73572">
        <ele>393</ele>
        <time>2016-04-10T07:43:50.000Z</time>
      </trkpt>
      <trkpt lat="47.56312" lon="6.73573">
        <ele>393</ele>
        <time>2016-04-10T07:43:51.000Z</time>
      </trkpt>
      <trkpt lat="47.56315" lon="6.73575">
        <ele>393</ele>
        <time>2016-04-10T07:43:52.000Z</time>
      </trkpt>
      <trkpt lat="47.56318" lon="6.73576">
        <ele>393</ele>
        <time>2016-04-10T07:43:53.000Z</time>
      </trkpt>
      <trkpt lat="47.56322" lon="6.73577">
        <ele>393</ele>
        <time>2016-04-10T07:43:54.000Z</time>
      </trkpt>
      <trkpt lat="47.56325" lon="6.73578">
        <ele>393</ele>
        <time>2016-04-10T07:43:55.000Z</time>
      </trkpt>
      <trkpt lat="47.56328" lon="6.73579">
        <ele>393</ele>
        <time>2016-04-10T07:43:56.000Z</time>
      </trkpt>
      <trkpt lat="47.56332" lon="6.73579">
        <ele>393</ele>
        <time>2016-04-10T07:43:57.000Z</time>
      </trkpt>
      <trkpt lat="47.56335" lon="6.7358">
        <ele>394</ele>
        <time>2016-04-10T07:43:58.000Z</time>
      </trkpt>
      <trkpt lat="47.56338" lon="6.73581">
        <ele>394</ele>
        <time>2016-04-10T07:43:59.000Z</time>
      </trkpt>
      <trkpt lat="47.56341" lon="6.73582">
        <ele>394</ele>
        <time>2016-04-10T07:44:00.000Z</time>
      </trkpt>
      <trkpt lat="47.56343" lon="6.73582">
        <ele>395</ele>
        <time>2016-04-10T07:44:01.000Z</time>
      </trkpt>
      <trkpt lat="47.56346" lon="6.73582">
        <ele>395</ele>
        <time>2016-04-10T07:44:02.000Z</time>
      </trkpt>
      <trkpt lat="47.56349" lon="6.73583">
        <ele>395</ele>
        <time>2016-04-10T07:44:03.000Z</time>
      </trkpt>
      <trkpt lat="47.56351" lon="6.73583">
        <ele>395</ele>
        <time>2016-04-10T07:44:04.000Z</time>
      </trkpt>
      <trkpt lat="47.56354" lon="6.73584">
        <ele>392</ele>
        <time>2016-04-10T07:44:05.000Z</time>
      </trkpt>
      <trkpt lat="47.56357" lon="6.73584">
        <ele>392</ele>
        <time>2016-04-10T07:44:06.000Z</time>
      </trkpt>
      <trkpt lat="47.5636" lon="6.73585">
        <ele>392</ele>
        <time>2016-04-10T07:44:07.000Z</time>
      </trkpt>
      <trkpt lat="47.56362" lon="6.73585">
        <ele>392</ele>
        <time>2016-04-10T07:44:08.000Z</time>
      </trkpt>
      <trkpt lat="47.56365" lon="6.73586">
        <ele>392</ele>
        <time>2016-04-10T07:44:09.000Z</time>
      </trkpt>
      <trkpt lat="47.56368" lon="6.73586">
        <ele>392</ele>
        <time>2016-04-10T07:44:10.000Z</time>
      </trkpt>
      <trkpt lat="47.56371" lon="6.73587">
        <ele>392</ele>
        <time>2016-04-10T07:44:11.000Z</time>
      </trkpt>
      <trkpt lat="47.56374" lon="6.73588">
        <ele>392</ele>
        <time>2016-04-10T07:44:12.000Z</time>
      </trkpt>
      <trkpt lat="47.56377" lon="6.73589">
        <ele>392</ele>
        <time>2016-04-10T07:44:13.000Z</time>
      </trkpt>
      <trkpt lat="47.5638" lon="6.73589">
        <ele>392</ele>
        <time>2016-04-10T07:44:14.000Z</time>
      </trkpt>
      <trkpt lat="47.56383" lon="6.7359">
        <ele>393</ele>
        <time>2016-04-10T07:44:15.000Z</time>
      </trkpt>
      <trkpt lat="47.56386" lon="6.7359">
        <ele>393</ele>
        <time>2016-04-10T07:44:16.000Z</time>
      </trkpt>
      <trkpt lat="47.56388" lon="6.73591">
        <ele>393</ele>
        <time>2016-04-10T07:44:17.000Z</time>
      </trkpt>
      <trkpt lat="47.56391" lon="6.73591">
        <ele>393</ele>
        <time>2016-04-10T07:44:18.000Z</time>
      </trkpt>
      <trkpt lat="47.56394" lon="6.73592">
        <ele>394</ele>
        <time>2016-04-10T07:44:19.000Z</time>
      </trkpt>
      <trkpt lat="47.56397" lon="6.73592">
        <ele>394</ele>
        <time>2016-04-10T07:44:20.000Z</time>
      </trkpt>
      <trkpt lat="47.56399" lon="6.73592">
        <ele>394</ele>
        <time>2016-04-10T07:44:21.000Z</time>
      </trkpt>
      <trkpt lat="47.56402" lon="6.73593">
        <ele>395</ele>
        <time>2016-04-10T07:44:22.000Z</time>
      </trkpt>
      <trkpt lat="47.56405" lon="6.73593">
        <ele>395</ele>
        <time>2016-04-10T07:44:23.000Z</time>
      </trkpt>
      <trkpt lat="47.56407" lon="6.73593">
        <ele>395</ele>
        <time>2016-04-10T07:44:24.000Z</time>
      </trkpt>
      <trkpt lat="47.5641" lon="6.73593">
        <ele>396</ele>
        <time>2016-04-10T07:44:25.000Z</time>
      </trkpt>
      <trkpt lat="47.56412" lon="6.73593">
        <ele>396</ele>
        <time>2016-04-10T07:44:26.000Z</time>
      </trkpt>
      <trkpt lat="47.56414" lon="6.73593">
        <ele>396</ele>
        <time>2016-04-10T07:44:27.000Z</time>
      </trkpt>
      <trkpt lat="47.56417" lon="6.73593">
        <ele>399</ele>
        <time>2016-04-10T07:44:28.000Z</time>
      </trkpt>
      <trkpt lat="47.56419" lon="6.73594">
        <ele>399</ele>
        <time>2016-04-10T07:44:29.000Z</time>
      </trkpt>
      <trkpt lat="47.56422" lon="6.73595">
        <ele>399</ele>
        <time>2016-04-10T07:44:30.000Z</time>
      </trkpt>
      <trkpt lat="47.56424" lon="6.73596">
        <ele>399</ele>
        <time>2016-04-10T07:44:31.000Z</time>
      </trkpt>
      <trkpt lat="47.56427" lon="6.73597">
        <ele>399</ele>
        <time>2016-04-10T07:44:32.000Z</time>
      </trkpt>
      <trkpt lat="47.56429" lon="6.73597">
        <ele>399</ele>
        <time>2016-04-10T07:44:33.000Z</time>
      </trkpt>
      <trkpt lat="47.56432" lon="6.73598">
        <ele>399</ele>
        <time>2016-04-10T07:44:34.000Z</time>
      </trkpt>
      <trkpt lat="47.56435" lon="6.73599">
        <ele>399</ele>
        <time>2016-04-10T07:44:35.000Z</time>
      </trkpt>
      <trkpt lat="47.56437" lon="6.73599">
        <ele>399</ele>
        <time>2016-04-10T07:44:36.000Z</time>
      </trkpt>
      <trkpt lat="47.5644" lon="6.736">
        <ele>399</ele>
        <time>2016-04-10T07:44:37.000Z</time>
      </trkpt>
      <trkpt lat="47.56442" lon="6.736">
        <ele>399</ele>
        <time>2016-04-10T07:44:38.000Z</time>
      </trkpt>
      <trkpt lat="47.56445" lon="6.736">
        <ele>399</ele>
        <time>2016-04-10T07:44:39.000Z</time>
      </trkpt>
      <trkpt lat="47.56447" lon="6.73601">
        <ele>399</ele>
        <time>2016-04-10T07:44:40.000Z</time>
      </trkpt>
      <trkpt lat="47.56449" lon="6.73601">
        <ele>399</ele>
        <time>2016-04-10T07:44:41.000Z</time>
      </trkpt>
      <trkpt lat="47.56452" lon="6.73602">
        <ele>400</ele>
        <time>2016-04-10T07:44:42.000Z</time>
      </trkpt>
      <trkpt lat="47.56454" lon="6.73603">
        <ele>400</ele>
        <time>2016-04-10T07:44:43.000Z</time>
      </trkpt>
      <trkpt lat="47.56456" lon="6.73604">
        <ele>400</ele>
        <time>2016-04-10T07:44:44.000Z</time>
      </trkpt>
      <trkpt lat="47.56458" lon="6.73605">
        <ele>400</ele>
        <time>2016-04-10T07:44:45.000Z</time>
      </trkpt>
      <trkpt lat="47.56461" lon="6.73608">
        <ele>400</ele>
        <time>2016-04-10T07:44:46.000Z</time>
      </trkpt>
      <trkpt lat="47.56462" lon="6.7361">
        <ele>400</ele>
        <time>2016-04-10T07:44:47.000Z</time>
      </trkpt>
      <trkpt lat="47.56464" lon="6.73613">
        <ele>400</ele>
        <time>2016-04-10T07:44:48.000Z</time>
      </trkpt>
      <trkpt lat="47.56466" lon="6.73616">
        <ele>400</ele>
        <time>2016-04-10T07:44:49.000Z</time>
      </trkpt>
      <trkpt lat="47.56468" lon="6.7362">
        <ele>400</ele>
        <time>2016-04-10T07:44:50.000Z</time>
      </trkpt>
      <trkpt lat="47.56469" lon="6.73624">
        <ele>400</ele>
        <time>2016-04-10T07:44:51.000Z</time>
      </trkpt>
      <trkpt lat="47.5647" lon="6.73629">
        <ele>399</ele>
        <time>2016-04-10T07:44:52.000Z</time>
      </trkpt>
      <trkpt lat="47.56472" lon="6.73634">
        <ele>399</ele>
        <time>2016-04-10T07:44:53.000Z</time>
      </trkpt>
      <trkpt lat="47.56473" lon="6.7364">
        <ele>399</ele>
        <time>2016-04-10T07:44:54.000Z</time>
      </trkpt>
      <trkpt lat="47.56476" lon="6.73649">
        <ele>399</ele>
        <time>2016-04-10T07:44:55.000Z</time>
      </trkpt>
      <trkpt lat="47.56478" lon="6.73656">
        <ele>399</ele>
        <time>2016-04-10T07:44:56.000Z</time>
      </trkpt>
      <trkpt lat="47.56481" lon="6.73664">
        <ele>400</ele>
        <time>2016-04-10T07:44:57.000Z</time>
      </trkpt>
      <trkpt lat="47.56484" lon="6.7367">
        <ele>396</ele>
        <time>2016-04-10T07:44:58.000Z</time>
      </trkpt>
      <trkpt lat="47.56488" lon="6.73676">
        <ele>396</ele>
        <time>2016-04-10T07:44:59.000Z</time>
      </trkpt>
      <trkpt lat="47.56491" lon="6.73683">
        <ele>396</ele>
        <time>2016-04-10T07:45:00.000Z</time>
      </trkpt>
      <trkpt lat="47.56493" lon="6.7369">
        <ele>395</ele>
        <time>2016-04-10T07:45:01.000Z</time>
      </trkpt>
      <trkpt lat="47.56496" lon="6.73697">
        <ele>394</ele>
        <time>2016-04-10T07:45:02.000Z</time>
      </trkpt>
      <trkpt lat="47.565" lon="6.73705">
        <ele>394</ele>
        <time>2016-04-10T07:45:03.000Z</time>
      </trkpt>
      <trkpt lat="47.56503" lon="6.73713">
        <ele>401</ele>
        <time>2016-04-10T07:45:04.000Z</time>
      </trkpt>
      <trkpt lat="47.56507" lon="6.73719">
        <ele>400</ele>
        <time>2016-04-10T07:45:05.000Z</time>
      </trkpt>
      <trkpt lat="47.5651" lon="6.73725">
        <ele>400</ele>
        <time>2016-04-10T07:45:06.000Z</time>
      </trkpt>
      <trkpt lat="47.56515" lon="6.73731">
        <ele>400</ele>
        <time>2016-04-10T07:45:07.000Z</time>
      </trkpt>
      <trkpt lat="47.56518" lon="6.73738">
        <ele>400</ele>
        <time>2016-04-10T07:45:08.000Z</time>
      </trkpt>
      <trkpt lat="47.56523" lon="6.73744">
        <ele>400</ele>
        <time>2016-04-10T07:45:09.000Z</time>
      </trkpt>
      <trkpt lat="47.56528" lon="6.73749">
        <ele>400</ele>
        <time>2016-04-10T07:45:10.000Z</time>
      </trkpt>
      <trkpt lat="47.56534" lon="6.73754">
        <ele>394</ele>
        <time>2016-04-10T07:45:11.000Z</time>
      </trkpt>
      <trkpt lat="47.56539" lon="6.73759">
        <ele>394</ele>
        <time>2016-04-10T07:45:12.000Z</time>
      </trkpt>
      <trkpt lat="47.56543" lon="6.73764">
        <ele>394</ele>
        <time>2016-04-10T07:45:13.000Z</time>
      </trkpt>
      <trkpt lat="47.56548" lon="6.7377">
        <ele>394</ele>
        <time>2016-04-10T07:45:14.000Z</time>
      </trkpt>
      <trkpt lat="47.56551" lon="6.73772">
        <ele>394</ele>
        <time>2016-04-10T07:45:15.000Z</time>
      </trkpt>
      <trkpt lat="47.56556" lon="6.73775">
        <ele>394</ele>
        <time>2016-04-10T07:45:16.000Z</time>
      </trkpt>
      <trkpt lat="47.5656" lon="6.73776">
        <ele>394</ele>
        <time>2016-04-10T07:45:17.000Z</time>
      </trkpt>
      <trkpt lat="47.56567" lon="6.73777">
        <ele>394</ele>
        <time>2016-04-10T07:45:18.000Z</time>
      </trkpt>
      <trkpt lat="47.56574" lon="6.73779">
        <ele>395</ele>
        <time>2016-04-10T07:45:19.000Z</time>
      </trkpt>
      <trkpt lat="47.56579" lon="6.7378">
        <ele>395</ele>
        <time>2016-04-10T07:45:20.000Z</time>
      </trkpt>
      <trkpt lat="47.56585" lon="6.7378">
        <ele>397</ele>
        <time>2016-04-10T07:45:21.000Z</time>
      </trkpt>
      <trkpt lat="47.56591" lon="6.73781">
        <ele>397</ele>
        <time>2016-04-10T07:45:22.000Z</time>
      </trkpt>
      <trkpt lat="47.56596" lon="6.73782">
        <ele>396</ele>
        <time>2016-04-10T07:45:23.000Z</time>
      </trkpt>
      <trkpt lat="47.56601" lon="6.73781">
        <ele>396</ele>
        <time>2016-04-10T07:45:24.000Z</time>
      </trkpt>
      <trkpt lat="47.56606" lon="6.73781">
        <ele>396</ele>
        <time>2016-04-10T07:45:25.000Z</time>
      </trkpt>
      <trkpt lat="47.56611" lon="6.7378">
        <ele>396</ele>
        <time>2016-04-10T07:45:26.000Z</time>
      </trkpt>
      <trkpt lat="47.56616" lon="6.7378">
        <ele>396</ele>
        <time>2016-04-10T07:45:27.000Z</time>
      </trkpt>
      <trkpt lat="47.56622" lon="6.73779">
        <ele>396</ele>
        <time>2016-04-10T07:45:28.000Z</time>
      </trkpt>
      <trkpt lat="47.56627" lon="6.7378">
        <ele>396</ele>
        <time>2016-04-10T07:45:29.000Z</time>
      </trkpt>
      <trkpt lat="47.56632" lon="6.73781">
        <ele>396</ele>
        <time>2016-04-10T07:45:30.000Z</time>
      </trkpt>
      <trkpt lat="47.56637" lon="6.73781">
        <ele>396</ele>
        <time>2016-04-10T07:45:31.000Z</time>
      </trkpt>
      <trkpt lat="47.56642" lon="6.7378">
        <ele>396</ele>
        <time>2016-04-10T07:45:32.000Z</time>
      </trkpt>
      <trkpt lat="47.56648" lon="6.73779">
        <ele>396</ele>
        <time>2016-04-10T07:45:33.000Z</time>
      </trkpt>
      <trkpt lat="47.56652" lon="6.73778">
        <ele>396</ele>
        <time>2016-04-10T07:45:34.000Z</time>
      </trkpt>
      <trkpt lat="47.56656" lon="6.73777">
        <ele>396</ele>
        <time>2016-04-10T07:45:35.000Z</time>
      </trkpt>
      <trkpt lat="47.56658" lon="6.73776">
        <ele>397</ele>
        <time>2016-04-10T07:45:36.000Z</time>
      </trkpt>
      <trkpt lat="47.56661" lon="6.73773">
        <ele>397</ele>
        <time>2016-04-10T07:45:37.000Z</time>
      </trkpt>
      <trkpt lat="47.56664" lon="6.7377">
        <ele>398</ele>
        <time>2016-04-10T07:45:38.000Z</time>
      </trkpt>
      <trkpt lat="47.56668" lon="6.73767">
        <ele>395</ele>
        <time>2016-04-10T07:45:39.000Z</time>
      </trkpt>
      <trkpt lat="47.56671" lon="6.73764">
        <ele>396</ele>
        <time>2016-04-10T07:45:40.000Z</time>
      </trkpt>
      <trkpt lat="47.56674" lon="6.73761">
        <ele>397</ele>
        <time>2016-04-10T07:45:41.000Z</time>
      </trkpt>
      <trkpt lat="47.5668" lon="6.73761">
        <ele>395</ele>
        <time>2016-04-10T07:45:42.000Z</time>
      </trkpt>
      <trkpt lat="47.56684" lon="6.7376">
        <ele>394</ele>
        <time>2016-04-10T07:45:43.000Z</time>
      </trkpt>
      <trkpt lat="47.56687" lon="6.73761">
        <ele>393</ele>
        <time>2016-04-10T07:45:44.000Z</time>
      </trkpt>
      <trkpt lat="47.5669" lon="6.73764">
        <ele>392</ele>
        <time>2016-04-10T07:45:45.000Z</time>
      </trkpt>
      <trkpt lat="47.56692" lon="6.73773">
        <ele>391</ele>
        <time>2016-04-10T07:45:46.000Z</time>
      </trkpt>
      <trkpt lat="47.56695" lon="6.73777">
        <ele>390</ele>
        <time>2016-04-10T07:45:47.000Z</time>
      </trkpt>
      <trkpt lat="47.56699" lon="6.7378">
        <ele>389</ele>
        <time>2016-04-10T07:45:48.000Z</time>
      </trkpt>
      <trkpt lat="47.56708" lon="6.73782">
        <ele>388</ele>
        <time>2016-04-10T07:45:49.000Z</time>
      </trkpt>
      <trkpt lat="47.56713" lon="6.73782">
        <ele>387</ele>
        <time>2016-04-10T07:45:50.000Z</time>
      </trkpt>
      <trkpt lat="47.56719" lon="6.73784">
        <ele>387</ele>
        <time>2016-04-10T07:45:51.000Z</time>
      </trkpt>
      <trkpt lat="47.56723" lon="6.73788">
        <ele>386</ele>
        <time>2016-04-10T07:45:52.000Z</time>
      </trkpt>
      <trkpt lat="47.56725" lon="6.7379">
        <ele>386</ele>
        <time>2016-04-10T07:45:53.000Z</time>
      </trkpt>
      <trkpt lat="47.56729" lon="6.73793">
        <ele>385</ele>
        <time>2016-04-10T07:45:54.000Z</time>
      </trkpt>
      <trkpt lat="47.56732" lon="6.73792">
        <ele>385</ele>
        <time>2016-04-10T07:45:55.000Z</time>
      </trkpt>
      <trkpt lat="47.56734" lon="6.73791">
        <ele>385</ele>
        <time>2016-04-10T07:45:56.000Z</time>
      </trkpt>
      <trkpt lat="47.56738" lon="6.7379">
        <ele>385</ele>
        <time>2016-04-10T07:45:58.000Z</time>
      </trkpt>
      <trkpt lat="47.56739" lon="6.73789">
        <ele>385</ele>
        <time>2016-04-10T07:45:59.000Z</time>
      </trkpt>
      <trkpt lat="47.56742" lon="6.73788">
        <ele>385</ele>
        <time>2016-04-10T07:46:01.000Z</time>
      </trkpt>
      <trkpt lat="47.56743" lon="6.73787">
        <ele>385</ele>
        <time>2016-04-10T07:46:02.000Z</time>
      </trkpt>
      <trkpt lat="47.56745" lon="6.73783">
        <ele>386</ele>
        <time>2016-04-10T07:46:04.000Z</time>
      </trkpt>
      <trkpt lat="47.56747" lon="6.7378">
        <ele>386</ele>
        <time>2016-04-10T07:46:05.000Z</time>
      </trkpt>
      <trkpt lat="47.5675" lon="6.73776">
        <ele>386</ele>
        <time>2016-04-10T07:46:07.000Z</time>
      </trkpt>
      <trkpt lat="47.56752" lon="6.73776">
        <ele>377</ele>
        <time>2016-04-10T07:46:08.000Z</time>
      </trkpt>
      <trkpt lat="47.56755" lon="6.73778">
        <ele>377</ele>
        <time>2016-04-10T07:46:09.000Z</time>
      </trkpt>
      <trkpt lat="47.56757" lon="6.73779">
        <ele>376</ele>
        <time>2016-04-10T07:46:10.000Z</time>
      </trkpt>
      <trkpt lat="47.5676" lon="6.73781">
        <ele>376</ele>
        <time>2016-04-10T07:46:11.000Z</time>
      </trkpt>
      <trkpt lat="47.56763" lon="6.73781">
        <ele>375</ele>
        <time>2016-04-10T07:46:12.000Z</time>
      </trkpt>
      <trkpt lat="47.56766" lon="6.73779">
        <ele>375</ele>
        <time>2016-04-10T07:46:13.000Z</time>
      </trkpt>
      <trkpt lat="47.56769" lon="6.73776">
        <ele>375</ele>
        <time>2016-04-10T07:46:14.000Z</time>
      </trkpt>
      <trkpt lat="47.56772" lon="6.73772">
        <ele>375</ele>
        <time>2016-04-10T07:46:15.000Z</time>
      </trkpt>
      <trkpt lat="47.56775" lon="6.73767">
        <ele>375</ele>
        <time>2016-04-10T07:46:16.000Z</time>
      </trkpt>
      <trkpt lat="47.56779" lon="6.73761">
        <ele>375</ele>
        <time>2016-04-10T07:46:17.000Z</time>
      </trkpt>
      <trkpt lat="47.56782" lon="6.73754">
        <ele>375</ele>
        <time>2016-04-10T07:46:18.000Z</time>
      </trkpt>
      <trkpt lat="47.56791" lon="6.73738">
        <ele>379</ele>
        <time>2016-04-10T07:46:19.000Z</time>
      </trkpt>
      <trkpt lat="47.56797" lon="6.73729">
        <ele>378</ele>
        <time>2016-04-10T07:46:20.000Z</time>
      </trkpt>
      <trkpt lat="47.56801" lon="6.73723">
        <ele>378</ele>
        <time>2016-04-10T07:46:21.000Z</time>
      </trkpt>
      <trkpt lat="47.56803" lon="6.73718">
        <ele>378</ele>
        <time>2016-04-10T07:46:22.000Z</time>
      </trkpt>
      <trkpt lat="47.56804" lon="6.73712">
        <ele>378</ele>
        <time>2016-04-10T07:46:23.000Z</time>
      </trkpt>
      <trkpt lat="47.56805" lon="6.73706">
        <ele>378</ele>
        <time>2016-04-10T07:46:24.000Z</time>
      </trkpt>
      <trkpt lat="47.56807" lon="6.73699">
        <ele>378</ele>
        <time>2016-04-10T07:46:25.000Z</time>
      </trkpt>
      <trkpt lat="47.56814" lon="6.73692">
        <ele>377</ele>
        <time>2016-04-10T07:46:26.000Z</time>
      </trkpt>
      <trkpt lat="47.56818" lon="6.73689">
        <ele>377</ele>
        <time>2016-04-10T07:46:27.000Z</time>
      </trkpt>
      <trkpt lat="47.5682" lon="6.73683">
        <ele>376</ele>
        <time>2016-04-10T07:46:28.000Z</time>
      </trkpt>
      <trkpt lat="47.56821" lon="6.73678">
        <ele>376</ele>
        <time>2016-04-10T07:46:29.000Z</time>
      </trkpt>
      <trkpt lat="47.56822" lon="6.73673">
        <ele>375</ele>
        <time>2016-04-10T07:46:30.000Z</time>
      </trkpt>
      <trkpt lat="47.56824" lon="6.73668">
        <ele>375</ele>
        <time>2016-04-10T07:46:31.000Z</time>
      </trkpt>
      <trkpt lat="47.56824" lon="6.73664">
        <ele>376</ele>
        <time>2016-04-10T07:46:32.000Z</time>
      </trkpt>
      <trkpt lat="47.56825" lon="6.7366">
        <ele>376</ele>
        <time>2016-04-10T07:46:33.000Z</time>
      </trkpt>
      <trkpt lat="47.56825" lon="6.73656">
        <ele>377</ele>
        <time>2016-04-10T07:46:34.000Z</time>
      </trkpt>
      <trkpt lat="47.56825" lon="6.73652">
        <ele>377</ele>
        <time>2016-04-10T07:46:35.000Z</time>
      </trkpt>
      <trkpt lat="47.56825" lon="6.73646">
        <ele>378</ele>
        <time>2016-04-10T07:46:36.000Z</time>
      </trkpt>
      <trkpt lat="47.56825" lon="6.7364">
        <ele>379</ele>
        <time>2016-04-10T07:46:37.000Z</time>
      </trkpt>
      <trkpt lat="47.56825" lon="6.73634">
        <ele>380</ele>
        <time>2016-04-10T07:46:38.000Z</time>
      </trkpt>
      <trkpt lat="47.56826" lon="6.73628">
        <ele>380</ele>
        <time>2016-04-10T07:46:39.000Z</time>
      </trkpt>
      <trkpt lat="47.56826" lon="6.73622">
        <ele>380</ele>
        <time>2016-04-10T07:46:40.000Z</time>
      </trkpt>
      <trkpt lat="47.56827" lon="6.73617">
        <ele>380</ele>
        <time>2016-04-10T07:46:41.000Z</time>
      </trkpt>
      <trkpt lat="47.56828" lon="6.73611">
        <ele>380</ele>
        <time>2016-04-10T07:46:42.000Z</time>
      </trkpt>
      <trkpt lat="47.5683" lon="6.73606">
        <ele>379</ele>
        <time>2016-04-10T07:46:43.000Z</time>
      </trkpt>
      <trkpt lat="47.56831" lon="6.736">
        <ele>379</ele>
        <time>2016-04-10T07:46:44.000Z</time>
      </trkpt>
      <trkpt lat="47.56832" lon="6.73595">
        <ele>378</ele>
        <time>2016-04-10T07:46:45.000Z</time>
      </trkpt>
      <trkpt lat="47.56833" lon="6.73589">
        <ele>377</ele>
        <time>2016-04-10T07:46:46.000Z</time>
      </trkpt>
      <trkpt lat="47.56834" lon="6.73584">
        <ele>375</ele>
        <time>2016-04-10T07:46:47.000Z</time>
      </trkpt>
      <trkpt lat="47.56834" lon="6.73578">
        <ele>374</ele>
        <time>2016-04-10T07:46:48.000Z</time>
      </trkpt>
      <trkpt lat="47.56834" lon="6.73573">
        <ele>374</ele>
        <time>2016-04-10T07:46:49.000Z</time>
      </trkpt>
      <trkpt lat="47.56834" lon="6.73569">
        <ele>373</ele>
        <time>2016-04-10T07:46:50.000Z</time>
      </trkpt>
      <trkpt lat="47.56834" lon="6.73565">
        <ele>373</ele>
        <time>2016-04-10T07:46:51.000Z</time>
      </trkpt>
      <trkpt lat="47.56834" lon="6.73562">
        <ele>373</ele>
        <time>2016-04-10T07:46:52.000Z</time>
      </trkpt>
      <trkpt lat="47.56833" lon="6.73557">
        <ele>373</ele>
        <time>2016-04-10T07:46:54.000Z</time>
      </trkpt>
      <trkpt lat="47.56833" lon="6.73554">
        <ele>373</ele>
        <time>2016-04-10T07:46:55.000Z</time>
      </trkpt>
      <trkpt lat="47.56834" lon="6.73547">
        <ele>373</ele>
        <time>2016-04-10T07:46:57.000Z</time>
      </trkpt>
      <trkpt lat="47.56835" lon="6.73544">
        <ele>374</ele>
        <time>2016-04-10T07:46:58.000Z</time>
      </trkpt>
      <trkpt lat="47.56836" lon="6.7354">
        <ele>374</ele>
        <time>2016-04-10T07:46:59.000Z</time>
      </trkpt>
      <trkpt lat="47.56838" lon="6.73535">
        <ele>374</ele>
        <time>2016-04-10T07:47:00.000Z</time>
      </trkpt>
      <trkpt lat="47.56839" lon="6.73531">
        <ele>375</ele>
        <time>2016-04-10T07:47:01.000Z</time>
      </trkpt>
      <trkpt lat="47.56842" lon="6.73527">
        <ele>375</ele>
        <time>2016-04-10T07:47:02.000Z</time>
      </trkpt>
      <trkpt lat="47.56855" lon="6.73516">
        <ele>375</ele>
        <time>2016-04-10T07:47:03.000Z</time>
      </trkpt>
      <trkpt lat="47.56859" lon="6.73511">
        <ele>375</ele>
        <time>2016-04-10T07:47:04.000Z</time>
      </trkpt>
      <trkpt lat="47.56862" lon="6.73508">
        <ele>375</ele>
        <time>2016-04-10T07:47:05.000Z</time>
      </trkpt>
      <trkpt lat="47.56865" lon="6.73506">
        <ele>374</ele>
        <time>2016-04-10T07:47:06.000Z</time>
      </trkpt>
      <trkpt lat="47.56869" lon="6.73502">
        <ele>374</ele>
        <time>2016-04-10T07:47:07.000Z</time>
      </trkpt>
      <trkpt lat="47.56873" lon="6.73496">
        <ele>382</ele>
        <time>2016-04-10T07:47:08.000Z</time>
      </trkpt>
      <trkpt lat="47.56878" lon="6.73494">
        <ele>381</ele>
        <time>2016-04-10T07:47:09.000Z</time>
      </trkpt>
      <trkpt lat="47.56882" lon="6.73494">
        <ele>381</ele>
        <time>2016-04-10T07:47:10.000Z</time>
      </trkpt>
      <trkpt lat="47.56886" lon="6.73492">
        <ele>380</ele>
        <time>2016-04-10T07:47:11.000Z</time>
      </trkpt>
      <trkpt lat="47.5689" lon="6.7349">
        <ele>380</ele>
        <time>2016-04-10T07:47:12.000Z</time>
      </trkpt>
      <trkpt lat="47.56893" lon="6.73488">
        <ele>380</ele>
        <time>2016-04-10T07:47:13.000Z</time>
      </trkpt>
      <trkpt lat="47.56896" lon="6.73487">
        <ele>379</ele>
        <time>2016-04-10T07:47:14.000Z</time>
      </trkpt>
      <trkpt lat="47.56899" lon="6.73486">
        <ele>379</ele>
        <time>2016-04-10T07:47:15.000Z</time>
      </trkpt>
      <trkpt lat="47.56903" lon="6.73484">
        <ele>379</ele>
        <time>2016-04-10T07:47:16.000Z</time>
      </trkpt>
      <trkpt lat="47.56907" lon="6.73482">
        <ele>378</ele>
        <time>2016-04-10T07:47:17.000Z</time>
      </trkpt>
      <trkpt lat="47.56911" lon="6.73481">
        <ele>378</ele>
        <time>2016-04-10T07:47:18.000Z</time>
      </trkpt>
      <trkpt lat="47.56914" lon="6.73479">
        <ele>379</ele>
        <time>2016-04-10T07:47:19.000Z</time>
      </trkpt>
      <trkpt lat="47.56917" lon="6.73478">
        <ele>375</ele>
        <time>2016-04-10T07:47:20.000Z</time>
      </trkpt>
      <trkpt lat="47.5692" lon="6.73476">
        <ele>375</ele>
        <time>2016-04-10T07:47:21.000Z</time>
      </trkpt>
      <trkpt lat="47.56922" lon="6.73476">
        <ele>375</ele>
        <time>2016-04-10T07:47:22.000Z</time>
      </trkpt>
      <trkpt lat="47.56925" lon="6.73475">
        <ele>375</ele>
        <time>2016-04-10T07:47:23.000Z</time>
      </trkpt>
      <trkpt lat="47.56928" lon="6.73474">
        <ele>375</ele>
        <time>2016-04-10T07:47:24.000Z</time>
      </trkpt>
      <trkpt lat="47.5693" lon="6.73473">
        <ele>376</ele>
        <time>2016-04-10T07:47:25.000Z</time>
      </trkpt>
      <trkpt lat="47.56933" lon="6.73472">
        <ele>376</ele>
        <time>2016-04-10T07:47:26.000Z</time>
      </trkpt>
      <trkpt lat="47.56936" lon="6.7347">
        <ele>376</ele>
        <time>2016-04-10T07:47:27.000Z</time>
      </trkpt>
      <trkpt lat="47.56938" lon="6.7347">
        <ele>376</ele>
        <time>2016-04-10T07:47:28.000Z</time>
      </trkpt>
      <trkpt lat="47.56941" lon="6.7347">
        <ele>376</ele>
        <time>2016-04-10T07:47:29.000Z</time>
      </trkpt>
      <trkpt lat="47.56944" lon="6.73471">
        <ele>376</ele>
        <time>2016-04-10T07:47:30.000Z</time>
      </trkpt>
      <trkpt lat="47.56948" lon="6.73473">
        <ele>375</ele>
        <time>2016-04-10T07:47:31.000Z</time>
      </trkpt>
      <trkpt lat="47.56953" lon="6.73477">
        <ele>375</ele>
        <time>2016-04-10T07:47:32.000Z</time>
      </trkpt>
      <trkpt lat="47.56958" lon="6.73482">
        <ele>374</ele>
        <time>2016-04-10T07:47:33.000Z</time>
      </trkpt>
      <trkpt lat="47.56963" lon="6.73487">
        <ele>373</ele>
        <time>2016-04-10T07:47:34.000Z</time>
      </trkpt>
      <trkpt lat="47.56976" lon="6.73504">
        <ele>360</ele>
        <time>2016-04-10T07:47:35.000Z</time>
      </trkpt>
      <trkpt lat="47.56979" lon="6.73509">
        <ele>360</ele>
        <time>2016-04-10T07:47:36.000Z</time>
      </trkpt>
      <trkpt lat="47.56982" lon="6.73516">
        <ele>360</ele>
        <time>2016-04-10T07:47:37.000Z</time>
      </trkpt>
      <trkpt lat="47.56985" lon="6.73525">
        <ele>359</ele>
        <time>2016-04-10T07:47:38.000Z</time>
      </trkpt>
      <trkpt lat="47.56988" lon="6.73528">
        <ele>358</ele>
        <time>2016-04-10T07:47:40.000Z</time>
      </trkpt>
      <trkpt lat="47.5699" lon="6.73526">
        <ele>358</ele>
        <time>2016-04-10T07:47:41.000Z</time>
      </trkpt>
      <trkpt lat="47.56992" lon="6.73523">
        <ele>359</ele>
        <time>2016-04-10T07:47:42.000Z</time>
      </trkpt>
      <trkpt lat="47.56994" lon="6.73518">
        <ele>360</ele>
        <time>2016-04-10T07:47:43.000Z</time>
      </trkpt>
      <trkpt lat="47.56996" lon="6.73516">
        <ele>360</ele>
        <time>2016-04-10T07:47:44.000Z</time>
      </trkpt>
      <trkpt lat="47.56998" lon="6.73513">
        <ele>360</ele>
        <time>2016-04-10T07:47:45.000Z</time>
      </trkpt>
      <trkpt lat="47.57001" lon="6.73511">
        <ele>357</ele>
        <time>2016-04-10T07:47:46.000Z</time>
      </trkpt>
      <trkpt lat="47.57004" lon="6.73509">
        <ele>358</ele>
        <time>2016-04-10T07:47:47.000Z</time>
      </trkpt>
      <trkpt lat="47.57007" lon="6.73506">
        <ele>358</ele>
        <time>2016-04-10T07:47:48.000Z</time>
      </trkpt>
      <trkpt lat="47.57011" lon="6.73504">
        <ele>357</ele>
        <time>2016-04-10T07:47:49.000Z</time>
      </trkpt>
      <trkpt lat="47.57014" lon="6.73504">
        <ele>356</ele>
        <time>2016-04-10T07:47:50.000Z</time>
      </trkpt>
      <trkpt lat="47.57018" lon="6.73506">
        <ele>355</ele>
        <time>2016-04-10T07:47:51.000Z</time>
      </trkpt>
      <trkpt lat="47.57021" lon="6.73511">
        <ele>354</ele>
        <time>2016-04-10T07:47:52.000Z</time>
      </trkpt>
      <trkpt lat="47.57023" lon="6.73517">
        <ele>352</ele>
        <time>2016-04-10T07:47:53.000Z</time>
      </trkpt>
      <trkpt lat="47.57025" lon="6.73523">
        <ele>351</ele>
        <time>2016-04-10T07:47:54.000Z</time>
      </trkpt>
      <trkpt lat="47.57027" lon="6.73528">
        <ele>350</ele>
        <time>2016-04-10T07:47:55.000Z</time>
      </trkpt>
      <trkpt lat="47.57031" lon="6.73531">
        <ele>350</ele>
        <time>2016-04-10T07:47:56.000Z</time>
      </trkpt>
      <trkpt lat="47.57038" lon="6.73528">
        <ele>349</ele>
        <time>2016-04-10T07:47:57.000Z</time>
      </trkpt>
      <trkpt lat="47.57043" lon="6.73528">
        <ele>349</ele>
        <time>2016-04-10T07:47:58.000Z</time>
      </trkpt>
      <trkpt lat="47.57048" lon="6.73527">
        <ele>348</ele>
        <time>2016-04-10T07:47:59.000Z</time>
      </trkpt>
      <trkpt lat="47.57055" lon="6.73526">
        <ele>348</ele>
        <time>2016-04-10T07:48:00.000Z</time>
      </trkpt>
      <trkpt lat="47.57061" lon="6.73526">
        <ele>347</ele>
        <time>2016-04-10T07:48:01.000Z</time>
      </trkpt>
      <trkpt lat="47.57066" lon="6.73524">
        <ele>347</ele>
        <time>2016-04-10T07:48:02.000Z</time>
      </trkpt>
      <trkpt lat="47.57071" lon="6.73522">
        <ele>347</ele>
        <time>2016-04-10T07:48:03.000Z</time>
      </trkpt>
      <trkpt lat="47.57078" lon="6.73522">
        <ele>347</ele>
        <time>2016-04-10T07:48:04.000Z</time>
      </trkpt>
      <trkpt lat="47.57084" lon="6.73522">
        <ele>342</ele>
        <time>2016-04-10T07:48:05.000Z</time>
      </trkpt>
      <trkpt lat="47.57089" lon="6.73518">
        <ele>342</ele>
        <time>2016-04-10T07:48:06.000Z</time>
      </trkpt>
      <trkpt lat="47.57096" lon="6.73517">
        <ele>342</ele>
        <time>2016-04-10T07:48:07.000Z</time>
      </trkpt>
      <trkpt lat="47.57101" lon="6.73513">
        <ele>342</ele>
        <time>2016-04-10T07:48:08.000Z</time>
      </trkpt>
      <trkpt lat="47.57108" lon="6.73512">
        <ele>341</ele>
        <time>2016-04-10T07:48:09.000Z</time>
      </trkpt>
      <trkpt lat="47.57114" lon="6.7351">
        <ele>341</ele>
        <time>2016-04-10T07:48:10.000Z</time>
      </trkpt>
      <trkpt lat="47.57121" lon="6.73508">
        <ele>341</ele>
        <time>2016-04-10T07:48:11.000Z</time>
      </trkpt>
      <trkpt lat="47.57127" lon="6.73505">
        <ele>340</ele>
        <time>2016-04-10T07:48:12.000Z</time>
      </trkpt>
      <trkpt lat="47.57132" lon="6.73503">
        <ele>340</ele>
        <time>2016-04-10T07:48:13.000Z</time>
      </trkpt>
      <trkpt lat="47.57138" lon="6.73499">
        <ele>342</ele>
        <time>2016-04-10T07:48:14.000Z</time>
      </trkpt>
      <trkpt lat="47.57144" lon="6.73496">
        <ele>342</ele>
        <time>2016-04-10T07:48:15.000Z</time>
      </trkpt>
      <trkpt lat="47.5715" lon="6.73493">
        <ele>341</ele>
        <time>2016-04-10T07:48:16.000Z</time>
      </trkpt>
      <trkpt lat="47.57156" lon="6.73491">
        <ele>341</ele>
        <time>2016-04-10T07:48:17.000Z</time>
      </trkpt>
      <trkpt lat="47.57161" lon="6.73487">
        <ele>341</ele>
        <time>2016-04-10T07:48:18.000Z</time>
      </trkpt>
      <trkpt lat="47.57167" lon="6.73484">
        <ele>338</ele>
        <time>2016-04-10T07:48:19.000Z</time>
      </trkpt>
      <trkpt lat="47.57172" lon="6.7348">
        <ele>338</ele>
        <time>2016-04-10T07:48:20.000Z</time>
      </trkpt>
      <trkpt lat="47.57177" lon="6.73476">
        <ele>338</ele>
        <time>2016-04-10T07:48:21.000Z</time>
      </trkpt>
      <trkpt lat="47.57182" lon="6.73471">
        <ele>338</ele>
        <time>2016-04-10T07:48:22.000Z</time>
      </trkpt>
      <trkpt lat="47.57187" lon="6.73466">
        <ele>338</ele>
        <time>2016-04-10T07:48:23.000Z</time>
      </trkpt>
      <trkpt lat="47.57192" lon="6.73461">
        <ele>338</ele>
        <time>2016-04-10T07:48:24.000Z</time>
      </trkpt>
      <trkpt lat="47.57196" lon="6.73454">
        <ele>338</ele>
        <time>2016-04-10T07:48:25.000Z</time>
      </trkpt>
      <trkpt lat="47.572" lon="6.73447">
        <ele>338</ele>
        <time>2016-04-10T07:48:26.000Z</time>
      </trkpt>
      <trkpt lat="47.57204" lon="6.7344">
        <ele>338</ele>
        <time>2016-04-10T07:48:27.000Z</time>
      </trkpt>
      <trkpt lat="47.57207" lon="6.73433">
        <ele>338</ele>
        <time>2016-04-10T07:48:28.000Z</time>
      </trkpt>
      <trkpt lat="47.57211" lon="6.73425">
        <ele>338</ele>
        <time>2016-04-10T07:48:29.000Z</time>
      </trkpt>
      <trkpt lat="47.57215" lon="6.73417">
        <ele>338</ele>
        <time>2016-04-10T07:48:30.000Z</time>
      </trkpt>
      <trkpt lat="47.5722" lon="6.73411">
        <ele>339</ele>
        <time>2016-04-10T07:48:31.000Z</time>
      </trkpt>
      <trkpt lat="47.57225" lon="6.73406">
        <ele>339</ele>
        <time>2016-04-10T07:48:32.000Z</time>
      </trkpt>
      <trkpt lat="47.57231" lon="6.73403">
        <ele>339</ele>
        <time>2016-04-10T07:48:33.000Z</time>
      </trkpt>
      <trkpt lat="47.57237" lon="6.734">
        <ele>339</ele>
        <time>2016-04-10T07:48:34.000Z</time>
      </trkpt>
      <trkpt lat="47.57243" lon="6.73397">
        <ele>339</ele>
        <time>2016-04-10T07:48:35.000Z</time>
      </trkpt>
      <trkpt lat="47.57249" lon="6.73394">
        <ele>339</ele>
        <time>2016-04-10T07:48:36.000Z</time>
      </trkpt>
      <trkpt lat="47.57254" lon="6.7339">
        <ele>339</ele>
        <time>2016-04-10T07:48:37.000Z</time>
      </trkpt>
      <trkpt lat="47.5726" lon="6.73388">
        <ele>339</ele>
        <time>2016-04-10T07:48:38.000Z</time>
      </trkpt>
      <trkpt lat="47.57265" lon="6.73384">
        <ele>339</ele>
        <time>2016-04-10T07:48:39.000Z</time>
      </trkpt>
      <trkpt lat="47.57271" lon="6.7338">
        <ele>340</ele>
        <time>2016-04-10T07:48:40.000Z</time>
      </trkpt>
      <trkpt lat="47.57276" lon="6.73377">
        <ele>340</ele>
        <time>2016-04-10T07:48:41.000Z</time>
      </trkpt>
      <trkpt lat="47.57281" lon="6.73375">
        <ele>340</ele>
        <time>2016-04-10T07:48:42.000Z</time>
      </trkpt>
      <trkpt lat="47.57285" lon="6.73374">
        <ele>340</ele>
        <time>2016-04-10T07:48:43.000Z</time>
      </trkpt>
      <trkpt lat="47.57289" lon="6.73376">
        <ele>340</ele>
        <time>2016-04-10T07:48:44.000Z</time>
      </trkpt>
      <trkpt lat="47.57293" lon="6.73378">
        <ele>340</ele>
        <time>2016-04-10T07:48:45.000Z</time>
      </trkpt>
      <trkpt lat="47.57297" lon="6.73381">
        <ele>340</ele>
        <time>2016-04-10T07:48:46.000Z</time>
      </trkpt>
      <trkpt lat="47.573" lon="6.73384">
        <ele>340</ele>
        <time>2016-04-10T07:48:47.000Z</time>
      </trkpt>
      <trkpt lat="47.57304" lon="6.73384">
        <ele>340</ele>
        <time>2016-04-10T07:48:48.000Z</time>
      </trkpt>
      <trkpt lat="47.57307" lon="6.73385">
        <ele>340</ele>
        <time>2016-04-10T07:48:49.000Z</time>
      </trkpt>
      <trkpt lat="47.57311" lon="6.73387">
        <ele>340</ele>
        <time>2016-04-10T07:48:50.000Z</time>
      </trkpt>
      <trkpt lat="47.57314" lon="6.73389">
        <ele>340</ele>
        <time>2016-04-10T07:48:51.000Z</time>
      </trkpt>
      <trkpt lat="47.57318" lon="6.73389">
        <ele>340</ele>
        <time>2016-04-10T07:48:52.000Z</time>
      </trkpt>
      <trkpt lat="47.57321" lon="6.7339">
        <ele>340</ele>
        <time>2016-04-10T07:48:53.000Z</time>
      </trkpt>
      <trkpt lat="47.57324" lon="6.7339">
        <ele>341</ele>
        <time>2016-04-10T07:48:54.000Z</time>
      </trkpt>
      <trkpt lat="47.57328" lon="6.73391">
        <ele>341</ele>
        <time>2016-04-10T07:48:55.000Z</time>
      </trkpt>
      <trkpt lat="47.57331" lon="6.73392">
        <ele>341</ele>
        <time>2016-04-10T07:48:56.000Z</time>
      </trkpt>
      <trkpt lat="47.57333" lon="6.73392">
        <ele>341</ele>
        <time>2016-04-10T07:48:57.000Z</time>
      </trkpt>
      <trkpt lat="47.57336" lon="6.73392">
        <ele>343</ele>
        <time>2016-04-10T07:48:58.000Z</time>
      </trkpt>
      <trkpt lat="47.57338" lon="6.7339">
        <ele>343</ele>
        <time>2016-04-10T07:48:59.000Z</time>
      </trkpt>
      <trkpt lat="47.5734" lon="6.73388">
        <ele>344</ele>
        <time>2016-04-10T07:49:00.000Z</time>
      </trkpt>
      <trkpt lat="47.57341" lon="6.73385">
        <ele>344</ele>
        <time>2016-04-10T07:49:01.000Z</time>
      </trkpt>
      <trkpt lat="47.57341" lon="6.73381">
        <ele>344</ele>
        <time>2016-04-10T07:49:02.000Z</time>
      </trkpt>
      <trkpt lat="47.57342" lon="6.73377">
        <ele>344</ele>
        <time>2016-04-10T07:49:03.000Z</time>
      </trkpt>
      <trkpt lat="47.57343" lon="6.73373">
        <ele>344</ele>
        <time>2016-04-10T07:49:04.000Z</time>
      </trkpt>
      <trkpt lat="47.57346" lon="6.7337">
        <ele>344</ele>
        <time>2016-04-10T07:49:06.000Z</time>
      </trkpt>
      <trkpt lat="47.57348" lon="6.7337">
        <ele>344</ele>
        <time>2016-04-10T07:49:07.000Z</time>
      </trkpt>
      <trkpt lat="47.57351" lon="6.7337">
        <ele>344</ele>
        <time>2016-04-10T07:49:08.000Z</time>
      </trkpt>
      <trkpt lat="47.57353" lon="6.7337">
        <ele>344</ele>
        <time>2016-04-10T07:49:09.000Z</time>
      </trkpt>
      <trkpt lat="47.57356" lon="6.7337">
        <ele>344</ele>
        <time>2016-04-10T07:49:10.000Z</time>
      </trkpt>
      <trkpt lat="47.57359" lon="6.7337">
        <ele>345</ele>
        <time>2016-04-10T07:49:11.000Z</time>
      </trkpt>
      <trkpt lat="47.57362" lon="6.7337">
        <ele>345</ele>
        <time>2016-04-10T07:49:12.000Z</time>
      </trkpt>
      <trkpt lat="47.57365" lon="6.7337">
        <ele>345</ele>
        <time>2016-04-10T07:49:13.000Z</time>
      </trkpt>
      <trkpt lat="47.57367" lon="6.7337">
        <ele>345</ele>
        <time>2016-04-10T07:49:14.000Z</time>
      </trkpt>
      <trkpt lat="47.5737" lon="6.7337">
        <ele>345</ele>
        <time>2016-04-10T07:49:15.000Z</time>
      </trkpt>
      <trkpt lat="47.57373" lon="6.73368">
        <ele>345</ele>
        <time>2016-04-10T07:49:16.000Z</time>
      </trkpt>
      <trkpt lat="47.57375" lon="6.73367">
        <ele>345</ele>
        <time>2016-04-10T07:49:17.000Z</time>
      </trkpt>
      <trkpt lat="47.57378" lon="6.73366">
        <ele>345</ele>
        <time>2016-04-10T07:49:18.000Z</time>
      </trkpt>
      <trkpt lat="47.57381" lon="6.73366">
        <ele>345</ele>
        <time>2016-04-10T07:49:19.000Z</time>
      </trkpt>
      <trkpt lat="47.57384" lon="6.73366">
        <ele>346</ele>
        <time>2016-04-10T07:49:20.000Z</time>
      </trkpt>
      <trkpt lat="47.57387" lon="6.73367">
        <ele>346</ele>
        <time>2016-04-10T07:49:21.000Z</time>
      </trkpt>
      <trkpt lat="47.57389" lon="6.73368">
        <ele>346</ele>
        <time>2016-04-10T07:49:22.000Z</time>
      </trkpt>
      <trkpt lat="47.57392" lon="6.73369">
        <ele>346</ele>
        <time>2016-04-10T07:49:23.000Z</time>
      </trkpt>
      <trkpt lat="47.57395" lon="6.7337">
        <ele>346</ele>
        <time>2016-04-10T07:49:24.000Z</time>
      </trkpt>
      <trkpt lat="47.57397" lon="6.73372">
        <ele>346</ele>
        <time>2016-04-10T07:49:25.000Z</time>
      </trkpt>
      <trkpt lat="47.574" lon="6.73374">
        <ele>346</ele>
        <time>2016-04-10T07:49:26.000Z</time>
      </trkpt>
      <trkpt lat="47.57403" lon="6.73375">
        <ele>346</ele>
        <time>2016-04-10T07:49:27.000Z</time>
      </trkpt>
      <trkpt lat="47.57406" lon="6.73377">
        <ele>346</ele>
        <time>2016-04-10T07:49:28.000Z</time>
      </trkpt>
      <trkpt lat="47.57409" lon="6.73378">
        <ele>346</ele>
        <time>2016-04-10T07:49:29.000Z</time>
      </trkpt>
      <trkpt lat="47.57412" lon="6.73379">
        <ele>346</ele>
        <time>2016-04-10T07:49:30.000Z</time>
      </trkpt>
      <trkpt lat="47.57415" lon="6.73379">
        <ele>346</ele>
        <time>2016-04-10T07:49:31.000Z</time>
      </trkpt>
      <trkpt lat="47.57418" lon="6.73379">
        <ele>350</ele>
        <time>2016-04-10T07:49:32.000Z</time>
      </trkpt>
      <trkpt lat="47.57421" lon="6.73379">
        <ele>350</ele>
        <time>2016-04-10T07:49:33.000Z</time>
      </trkpt>
      <trkpt lat="47.57423" lon="6.73379">
        <ele>350</ele>
        <time>2016-04-10T07:49:34.000Z</time>
      </trkpt>
      <trkpt lat="47.57426" lon="6.73378">
        <ele>350</ele>
        <time>2016-04-10T07:49:35.000Z</time>
      </trkpt>
      <trkpt lat="47.57429" lon="6.73378">
        <ele>350</ele>
        <time>2016-04-10T07:49:36.000Z</time>
      </trkpt>
      <trkpt lat="47.57432" lon="6.73377">
        <ele>350</ele>
        <time>2016-04-10T07:49:37.000Z</time>
      </trkpt>
      <trkpt lat="47.57435" lon="6.73376">
        <ele>350</ele>
        <time>2016-04-10T07:49:38.000Z</time>
      </trkpt>
      <trkpt lat="47.57438" lon="6.73375">
        <ele>350</ele>
        <time>2016-04-10T07:49:39.000Z</time>
      </trkpt>
      <trkpt lat="47.57441" lon="6.73375">
        <ele>351</ele>
        <time>2016-04-10T07:49:40.000Z</time>
      </trkpt>
      <trkpt lat="47.57443" lon="6.73374">
        <ele>351</ele>
        <time>2016-04-10T07:49:41.000Z</time>
      </trkpt>
      <trkpt lat="47.57446" lon="6.73373">
        <ele>351</ele>
        <time>2016-04-10T07:49:42.000Z</time>
      </trkpt>
      <trkpt lat="47.57449" lon="6.73372">
        <ele>351</ele>
        <time>2016-04-10T07:49:43.000Z</time>
      </trkpt>
      <trkpt lat="47.57451" lon="6.73372">
        <ele>351</ele>
        <time>2016-04-10T07:49:44.000Z</time>
      </trkpt>
      <trkpt lat="47.57454" lon="6.73371">
        <ele>351</ele>
        <time>2016-04-10T07:49:45.000Z</time>
      </trkpt>
      <trkpt lat="47.57456" lon="6.7337">
        <ele>351</ele>
        <time>2016-04-10T07:49:46.000Z</time>
      </trkpt>
      <trkpt lat="47.57459" lon="6.73368">
        <ele>352</ele>
        <time>2016-04-10T07:49:47.000Z</time>
      </trkpt>
      <trkpt lat="47.57461" lon="6.73367">
        <ele>352</ele>
        <time>2016-04-10T07:49:48.000Z</time>
      </trkpt>
      <trkpt lat="47.57464" lon="6.73366">
        <ele>352</ele>
        <time>2016-04-10T07:49:49.000Z</time>
      </trkpt>
      <trkpt lat="47.57467" lon="6.73364">
        <ele>352</ele>
        <time>2016-04-10T07:49:50.000Z</time>
      </trkpt>
      <trkpt lat="47.57469" lon="6.73364">
        <ele>352</ele>
        <time>2016-04-10T07:49:51.000Z</time>
      </trkpt>
      <trkpt lat="47.57472" lon="6.73363">
        <ele>352</ele>
        <time>2016-04-10T07:49:52.000Z</time>
      </trkpt>
      <trkpt lat="47.57475" lon="6.73363">
        <ele>352</ele>
        <time>2016-04-10T07:49:53.000Z</time>
      </trkpt>
      <trkpt lat="47.57477" lon="6.73364">
        <ele>353</ele>
        <time>2016-04-10T07:49:54.000Z</time>
      </trkpt>
      <trkpt lat="47.5748" lon="6.73364">
        <ele>353</ele>
        <time>2016-04-10T07:49:55.000Z</time>
      </trkpt>
      <trkpt lat="47.57482" lon="6.73364">
        <ele>353</ele>
        <time>2016-04-10T07:49:56.000Z</time>
      </trkpt>
      <trkpt lat="47.57485" lon="6.73365">
        <ele>353</ele>
        <time>2016-04-10T07:49:57.000Z</time>
      </trkpt>
      <trkpt lat="47.57487" lon="6.73365">
        <ele>353</ele>
        <time>2016-04-10T07:49:58.000Z</time>
      </trkpt>
      <trkpt lat="47.5749" lon="6.73366">
        <ele>353</ele>
        <time>2016-04-10T07:49:59.000Z</time>
      </trkpt>
      <trkpt lat="47.57492" lon="6.73367">
        <ele>353</ele>
        <time>2016-04-10T07:50:00.000Z</time>
      </trkpt>
      <trkpt lat="47.57495" lon="6.73369">
        <ele>353</ele>
        <time>2016-04-10T07:50:01.000Z</time>
      </trkpt>
      <trkpt lat="47.57497" lon="6.7337">
        <ele>353</ele>
        <time>2016-04-10T07:50:02.000Z</time>
      </trkpt>
      <trkpt lat="47.575" lon="6.73371">
        <ele>353</ele>
        <time>2016-04-10T07:50:03.000Z</time>
      </trkpt>
      <trkpt lat="47.57502" lon="6.73373">
        <ele>356</ele>
        <time>2016-04-10T07:50:04.000Z</time>
      </trkpt>
      <trkpt lat="47.57505" lon="6.73374">
        <ele>355</ele>
        <time>2016-04-10T07:50:05.000Z</time>
      </trkpt>
      <trkpt lat="47.57507" lon="6.73376">
        <ele>355</ele>
        <time>2016-04-10T07:50:06.000Z</time>
      </trkpt>
      <trkpt lat="47.5751" lon="6.73377">
        <ele>355</ele>
        <time>2016-04-10T07:50:07.000Z</time>
      </trkpt>
      <trkpt lat="47.57513" lon="6.73379">
        <ele>355</ele>
        <time>2016-04-10T07:50:08.000Z</time>
      </trkpt>
      <trkpt lat="47.57516" lon="6.7338">
        <ele>355</ele>
        <time>2016-04-10T07:50:09.000Z</time>
      </trkpt>
      <trkpt lat="47.57519" lon="6.73382">
        <ele>355</ele>
        <time>2016-04-10T07:50:10.000Z</time>
      </trkpt>
      <trkpt lat="47.57522" lon="6.73383">
        <ele>355</ele>
        <time>2016-04-10T07:50:11.000Z</time>
      </trkpt>
      <trkpt lat="47.57525" lon="6.73384">
        <ele>355</ele>
        <time>2016-04-10T07:50:12.000Z</time>
      </trkpt>
      <trkpt lat="47.57529" lon="6.73385">
        <ele>355</ele>
        <time>2016-04-10T07:50:13.000Z</time>
      </trkpt>
      <trkpt lat="47.57532" lon="6.73386">
        <ele>355</ele>
        <time>2016-04-10T07:50:14.000Z</time>
      </trkpt>
      <trkpt lat="47.57535" lon="6.73387">
        <ele>355</ele>
        <time>2016-04-10T07:50:15.000Z</time>
      </trkpt>
      <trkpt lat="47.57539" lon="6.73388">
        <ele>355</ele>
        <time>2016-04-10T07:50:16.000Z</time>
      </trkpt>
      <trkpt lat="47.57542" lon="6.73389">
        <ele>356</ele>
        <time>2016-04-10T07:50:17.000Z</time>
      </trkpt>
      <trkpt lat="47.57545" lon="6.73389">
        <ele>356</ele>
        <time>2016-04-10T07:50:18.000Z</time>
      </trkpt>
      <trkpt lat="47.57548" lon="6.73389">
        <ele>356</ele>
        <time>2016-04-10T07:50:19.000Z</time>
      </trkpt>
      <trkpt lat="47.57552" lon="6.73388">
        <ele>356</ele>
        <time>2016-04-10T07:50:20.000Z</time>
      </trkpt>
      <trkpt lat="47.57555" lon="6.73387">
        <ele>356</ele>
        <time>2016-04-10T07:50:21.000Z</time>
      </trkpt>
      <trkpt lat="47.57558" lon="6.73385">
        <ele>356</ele>
        <time>2016-04-10T07:50:22.000Z</time>
      </trkpt>
      <trkpt lat="47.57561" lon="6.73383">
        <ele>356</ele>
        <time>2016-04-10T07:50:23.000Z</time>
      </trkpt>
      <trkpt lat="47.57564" lon="6.73381">
        <ele>356</ele>
        <time>2016-04-10T07:50:24.000Z</time>
      </trkpt>
      <trkpt lat="47.57568" lon="6.73378">
        <ele>356</ele>
        <time>2016-04-10T07:50:25.000Z</time>
      </trkpt>
      <trkpt lat="47.57571" lon="6.73376">
        <ele>356</ele>
        <time>2016-04-10T07:50:26.000Z</time>
      </trkpt>
      <trkpt lat="47.57575" lon="6.73374">
        <ele>357</ele>
        <time>2016-04-10T07:50:27.000Z</time>
      </trkpt>
      <trkpt lat="47.57579" lon="6.73371">
        <ele>357</ele>
        <time>2016-04-10T07:50:28.000Z</time>
      </trkpt>
      <trkpt lat="47.57583" lon="6.73368">
        <ele>357</ele>
        <time>2016-04-10T07:50:29.000Z</time>
      </trkpt>
      <trkpt lat="47.57587" lon="6.73365">
        <ele>359</ele>
        <time>2016-04-10T07:50:30.000Z</time>
      </trkpt>
      <trkpt lat="47.57591" lon="6.73363">
        <ele>359</ele>
        <time>2016-04-10T07:50:31.000Z</time>
      </trkpt>
      <trkpt lat="47.57596" lon="6.73362">
        <ele>359</ele>
        <time>2016-04-10T07:50:32.000Z</time>
      </trkpt>
      <trkpt lat="47.576" lon="6.73361">
        <ele>359</ele>
        <time>2016-04-10T07:50:33.000Z</time>
      </trkpt>
      <trkpt lat="47.57605" lon="6.73361">
        <ele>359</ele>
        <time>2016-04-10T07:50:34.000Z</time>
      </trkpt>
      <trkpt lat="47.57609" lon="6.73361">
        <ele>359</ele>
        <time>2016-04-10T07:50:35.000Z</time>
      </trkpt>
      <trkpt lat="47.57613" lon="6.73361">
        <ele>359</ele>
        <time>2016-04-10T07:50:36.000Z</time>
      </trkpt>
      <trkpt lat="47.57618" lon="6.73362">
        <ele>360</ele>
        <time>2016-04-10T07:50:37.000Z</time>
      </trkpt>
      <trkpt lat="47.57622" lon="6.73363">
        <ele>360</ele>
        <time>2016-04-10T07:50:38.000Z</time>
      </trkpt>
      <trkpt lat="47.57627" lon="6.73364">
        <ele>360</ele>
        <time>2016-04-10T07:50:39.000Z</time>
      </trkpt>
      <trkpt lat="47.57631" lon="6.73364">
        <ele>360</ele>
        <time>2016-04-10T07:50:40.000Z</time>
      </trkpt>
      <trkpt lat="47.57635" lon="6.73365">
        <ele>360</ele>
        <time>2016-04-10T07:50:41.000Z</time>
      </trkpt>
      <trkpt lat="47.57639" lon="6.73366">
        <ele>360</ele>
        <time>2016-04-10T07:50:42.000Z</time>
      </trkpt>
      <trkpt lat="47.57642" lon="6.73367">
        <ele>360</ele>
        <time>2016-04-10T07:50:43.000Z</time>
      </trkpt>
      <trkpt lat="47.57646" lon="6.73367">
        <ele>360</ele>
        <time>2016-04-10T07:50:44.000Z</time>
      </trkpt>
      <trkpt lat="47.5765" lon="6.73367">
        <ele>360</ele>
        <time>2016-04-10T07:50:45.000Z</time>
      </trkpt>
      <trkpt lat="47.57653" lon="6.73367">
        <ele>360</ele>
        <time>2016-04-10T07:50:46.000Z</time>
      </trkpt>
      <trkpt lat="47.57657" lon="6.73367">
        <ele>360</ele>
        <time>2016-04-10T07:50:47.000Z</time>
      </trkpt>
      <trkpt lat="47.5766" lon="6.73366">
        <ele>360</ele>
        <time>2016-04-10T07:50:48.000Z</time>
      </trkpt>
      <trkpt lat="47.57663" lon="6.73364">
        <ele>361</ele>
        <time>2016-04-10T07:50:49.000Z</time>
      </trkpt>
      <trkpt lat="47.57667" lon="6.73363">
        <ele>361</ele>
        <time>2016-04-10T07:50:50.000Z</time>
      </trkpt>
      <trkpt lat="47.5767" lon="6.73361">
        <ele>361</ele>
        <time>2016-04-10T07:50:51.000Z</time>
      </trkpt>
      <trkpt lat="47.57674" lon="6.73359">
        <ele>361</ele>
        <time>2016-04-10T07:50:52.000Z</time>
      </trkpt>
      <trkpt lat="47.57678" lon="6.73356">
        <ele>361</ele>
        <time>2016-04-10T07:50:53.000Z</time>
      </trkpt>
      <trkpt lat="47.57681" lon="6.73354">
        <ele>361</ele>
        <time>2016-04-10T07:50:54.000Z</time>
      </trkpt>
      <trkpt lat="47.57685" lon="6.73352">
        <ele>361</ele>
        <time>2016-04-10T07:50:55.000Z</time>
      </trkpt>
      <trkpt lat="47.5769" lon="6.73348">
        <ele>361</ele>
        <time>2016-04-10T07:50:56.000Z</time>
      </trkpt>
      <trkpt lat="47.57694" lon="6.73344">
        <ele>361</ele>
        <time>2016-04-10T07:50:57.000Z</time>
      </trkpt>
      <trkpt lat="47.57699" lon="6.73341">
        <ele>361</ele>
        <time>2016-04-10T07:50:58.000Z</time>
      </trkpt>
      <trkpt lat="47.57705" lon="6.73338">
        <ele>360</ele>
        <time>2016-04-10T07:50:59.000Z</time>
      </trkpt>
      <trkpt lat="47.5771" lon="6.73335">
        <ele>360</ele>
        <time>2016-04-10T07:51:00.000Z</time>
      </trkpt>
      <trkpt lat="47.57715" lon="6.73331">
        <ele>362</ele>
        <time>2016-04-10T07:51:01.000Z</time>
      </trkpt>
      <trkpt lat="47.57721" lon="6.73329">
        <ele>361</ele>
        <time>2016-04-10T07:51:02.000Z</time>
      </trkpt>
      <trkpt lat="47.57726" lon="6.73325">
        <ele>361</ele>
        <time>2016-04-10T07:51:03.000Z</time>
      </trkpt>
      <trkpt lat="47.57732" lon="6.73322">
        <ele>361</ele>
        <time>2016-04-10T07:51:04.000Z</time>
      </trkpt>
      <trkpt lat="47.57737" lon="6.73318">
        <ele>361</ele>
        <time>2016-04-10T07:51:05.000Z</time>
      </trkpt>
      <trkpt lat="47.57742" lon="6.73315">
        <ele>361</ele>
        <time>2016-04-10T07:51:06.000Z</time>
      </trkpt>
      <trkpt lat="47.57747" lon="6.73311">
        <ele>361</ele>
        <time>2016-04-10T07:51:07.000Z</time>
      </trkpt>
      <trkpt lat="47.57751" lon="6.73308">
        <ele>360</ele>
        <time>2016-04-10T07:51:08.000Z</time>
      </trkpt>
      <trkpt lat="47.57756" lon="6.73303">
        <ele>360</ele>
        <time>2016-04-10T07:51:09.000Z</time>
      </trkpt>
      <trkpt lat="47.57759" lon="6.73297">
        <ele>361</ele>
        <time>2016-04-10T07:51:10.000Z</time>
      </trkpt>
      <trkpt lat="47.57761" lon="6.73291">
        <ele>361</ele>
        <time>2016-04-10T07:51:11.000Z</time>
      </trkpt>
      <trkpt lat="47.57762" lon="6.73284">
        <ele>361</ele>
        <time>2016-04-10T07:51:12.000Z</time>
      </trkpt>
      <trkpt lat="47.57762" lon="6.73277">
        <ele>361</ele>
        <time>2016-04-10T07:51:13.000Z</time>
      </trkpt>
      <trkpt lat="47.57762" lon="6.7327">
        <ele>361</ele>
        <time>2016-04-10T07:51:14.000Z</time>
      </trkpt>
      <trkpt lat="47.57761" lon="6.73263">
        <ele>361</ele>
        <time>2016-04-10T07:51:15.000Z</time>
      </trkpt>
      <trkpt lat="47.5776" lon="6.73256">
        <ele>361</ele>
        <time>2016-04-10T07:51:16.000Z</time>
      </trkpt>
      <trkpt lat="47.57759" lon="6.7325">
        <ele>362</ele>
        <time>2016-04-10T07:51:17.000Z</time>
      </trkpt>
      <trkpt lat="47.57758" lon="6.73244">
        <ele>362</ele>
        <time>2016-04-10T07:51:18.000Z</time>
      </trkpt>
      <trkpt lat="47.57756" lon="6.73237">
        <ele>363</ele>
        <time>2016-04-10T07:51:19.000Z</time>
      </trkpt>
      <trkpt lat="47.57755" lon="6.73231">
        <ele>363</ele>
        <time>2016-04-10T07:51:20.000Z</time>
      </trkpt>
      <trkpt lat="47.57754" lon="6.73225">
        <ele>364</ele>
        <time>2016-04-10T07:51:21.000Z</time>
      </trkpt>
      <trkpt lat="47.57753" lon="6.73219">
        <ele>364</ele>
        <time>2016-04-10T07:51:22.000Z</time>
      </trkpt>
      <trkpt lat="47.57752" lon="6.73214">
        <ele>365</ele>
        <time>2016-04-10T07:51:23.000Z</time>
      </trkpt>
      <trkpt lat="47.57751" lon="6.73208">
        <ele>365</ele>
        <time>2016-04-10T07:51:24.000Z</time>
      </trkpt>
      <trkpt lat="47.57751" lon="6.73202">
        <ele>365</ele>
        <time>2016-04-10T07:51:25.000Z</time>
      </trkpt>
      <trkpt lat="47.5775" lon="6.73197">
        <ele>365</ele>
        <time>2016-04-10T07:51:26.000Z</time>
      </trkpt>
      <trkpt lat="47.57749" lon="6.73193">
        <ele>365</ele>
        <time>2016-04-10T07:51:27.000Z</time>
      </trkpt>
      <trkpt lat="47.57749" lon="6.73188">
        <ele>365</ele>
        <time>2016-04-10T07:51:28.000Z</time>
      </trkpt>
      <trkpt lat="47.57749" lon="6.73183">
        <ele>365</ele>
        <time>2016-04-10T07:51:29.000Z</time>
      </trkpt>
      <trkpt lat="47.5775" lon="6.73179">
        <ele>365</ele>
        <time>2016-04-10T07:51:30.000Z</time>
      </trkpt>
      <trkpt lat="47.57751" lon="6.73175">
        <ele>366</ele>
        <time>2016-04-10T07:51:31.000Z</time>
      </trkpt>
      <trkpt lat="47.57753" lon="6.73171">
        <ele>366</ele>
        <time>2016-04-10T07:51:32.000Z</time>
      </trkpt>
      <trkpt lat="47.57755" lon="6.73167">
        <ele>366</ele>
        <time>2016-04-10T07:51:33.000Z</time>
      </trkpt>
      <trkpt lat="47.57758" lon="6.73164">
        <ele>368</ele>
        <time>2016-04-10T07:51:34.000Z</time>
      </trkpt>
      <trkpt lat="47.5776" lon="6.73161">
        <ele>368</ele>
        <time>2016-04-10T07:51:35.000Z</time>
      </trkpt>
      <trkpt lat="47.57762" lon="6.73159">
        <ele>369</ele>
        <time>2016-04-10T07:51:36.000Z</time>
      </trkpt>
      <trkpt lat="47.57766" lon="6.73155">
        <ele>370</ele>
        <time>2016-04-10T07:51:38.000Z</time>
      </trkpt>
      <trkpt lat="47.57767" lon="6.73154">
        <ele>370</ele>
        <time>2016-04-10T07:51:39.000Z</time>
      </trkpt>
      <trkpt lat="47.5777" lon="6.73151">
        <ele>370</ele>
        <time>2016-04-10T07:51:41.000Z</time>
      </trkpt>
      <trkpt lat="47.57772" lon="6.73149">
        <ele>371</ele>
        <time>2016-04-10T07:51:42.000Z</time>
      </trkpt>
      <trkpt lat="47.57774" lon="6.73148">
        <ele>371</ele>
        <time>2016-04-10T07:51:43.000Z</time>
      </trkpt>
      <trkpt lat="47.57776" lon="6.73146">
        <ele>371</ele>
        <time>2016-04-10T07:51:44.000Z</time>
      </trkpt>
      <trkpt lat="47.57778" lon="6.73144">
        <ele>371</ele>
        <time>2016-04-10T07:51:45.000Z</time>
      </trkpt>
      <trkpt lat="47.5778" lon="6.73141">
        <ele>372</ele>
        <time>2016-04-10T07:51:46.000Z</time>
      </trkpt>
      <trkpt lat="47.57782" lon="6.73139">
        <ele>372</ele>
        <time>2016-04-10T07:51:47.000Z</time>
      </trkpt>
      <trkpt lat="47.57784" lon="6.73136">
        <ele>372</ele>
        <time>2016-04-10T07:51:48.000Z</time>
      </trkpt>
      <trkpt lat="47.57786" lon="6.73133">
        <ele>372</ele>
        <time>2016-04-10T07:51:49.000Z</time>
      </trkpt>
      <trkpt lat="47.57788" lon="6.7313">
        <ele>372</ele>
        <time>2016-04-10T07:51:50.000Z</time>
      </trkpt>
      <trkpt lat="47.5779" lon="6.73126">
        <ele>373</ele>
        <time>2016-04-10T07:51:51.000Z</time>
      </trkpt>
      <trkpt lat="47.57792" lon="6.73123">
        <ele>373</ele>
        <time>2016-04-10T07:51:52.000Z</time>
      </trkpt>
      <trkpt lat="47.57793" lon="6.7312">
        <ele>373</ele>
        <time>2016-04-10T07:51:53.000Z</time>
      </trkpt>
      <trkpt lat="47.57796" lon="6.73117">
        <ele>373</ele>
        <time>2016-04-10T07:51:54.000Z</time>
      </trkpt>
      <trkpt lat="47.57798" lon="6.73114">
        <ele>373</ele>
        <time>2016-04-10T07:51:55.000Z</time>
      </trkpt>
      <trkpt lat="47.578" lon="6.73111">
        <ele>374</ele>
        <time>2016-04-10T07:51:56.000Z</time>
      </trkpt>
      <trkpt lat="47.57802" lon="6.73109">
        <ele>374</ele>
        <time>2016-04-10T07:51:57.000Z</time>
      </trkpt>
      <trkpt lat="47.57804" lon="6.73106">
        <ele>374</ele>
        <time>2016-04-10T07:51:58.000Z</time>
      </trkpt>
      <trkpt lat="47.57806" lon="6.73104">
        <ele>374</ele>
        <time>2016-04-10T07:51:59.000Z</time>
      </trkpt>
      <trkpt lat="47.57809" lon="6.73102">
        <ele>375</ele>
        <time>2016-04-10T07:52:00.000Z</time>
      </trkpt>
      <trkpt lat="47.57811" lon="6.731">
        <ele>375</ele>
        <time>2016-04-10T07:52:01.000Z</time>
      </trkpt>
      <trkpt lat="47.57814" lon="6.73099">
        <ele>375</ele>
        <time>2016-04-10T07:52:02.000Z</time>
      </trkpt>
      <trkpt lat="47.57816" lon="6.73098">
        <ele>376</ele>
        <time>2016-04-10T07:52:03.000Z</time>
      </trkpt>
      <trkpt lat="47.57818" lon="6.73098">
        <ele>376</ele>
        <time>2016-04-10T07:52:04.000Z</time>
      </trkpt>
      <trkpt lat="47.57821" lon="6.73102">
        <ele>376</ele>
        <time>2016-04-10T07:52:47.000Z</time>
      </trkpt>
      <trkpt lat="47.57821" lon="6.73105">
        <ele>375</ele>
        <time>2016-04-10T07:52:48.000Z</time>
      </trkpt>
      <trkpt lat="47.57821" lon="6.73108">
        <ele>375</ele>
        <time>2016-04-10T07:52:49.000Z</time>
      </trkpt>
      <trkpt lat="47.57823" lon="6.73112">
        <ele>375</ele>
        <time>2016-04-10T07:52:50.000Z</time>
      </trkpt>
      <trkpt lat="47.57825" lon="6.73115">
        <ele>375</ele>
        <time>2016-04-10T07:52:51.000Z</time>
      </trkpt>
      <trkpt lat="47.57827" lon="6.73117">
        <ele>375</ele>
        <time>2016-04-10T07:52:52.000Z</time>
      </trkpt>
      <trkpt lat="47.57829" lon="6.73119">
        <ele>375</ele>
        <time>2016-04-10T07:52:53.000Z</time>
      </trkpt>
      <trkpt lat="47.57831" lon="6.73119">
        <ele>375</ele>
        <time>2016-04-10T07:52:54.000Z</time>
      </trkpt>
      <trkpt lat="47.57836" lon="6.73119">
        <ele>378</ele>
        <time>2016-04-10T07:52:56.000Z</time>
      </trkpt>
      <trkpt lat="47.57838" lon="6.73118">
        <ele>378</ele>
        <time>2016-04-10T07:52:57.000Z</time>
      </trkpt>
      <trkpt lat="47.57842" lon="6.73116">
        <ele>378</ele>
        <time>2016-04-10T07:52:59.000Z</time>
      </trkpt>
      <trkpt lat="47.57843" lon="6.73115">
        <ele>378</ele>
        <time>2016-04-10T07:53:00.000Z</time>
      </trkpt>
      <trkpt lat="47.57846" lon="6.73112">
        <ele>379</ele>
        <time>2016-04-10T07:53:02.000Z</time>
      </trkpt>
      <trkpt lat="47.57847" lon="6.73109">
        <ele>379</ele>
        <time>2016-04-10T07:53:03.000Z</time>
      </trkpt>
      <trkpt lat="47.57849" lon="6.73105">
        <ele>379</ele>
        <time>2016-04-10T07:53:05.000Z</time>
      </trkpt>
      <trkpt lat="47.57851" lon="6.73103">
        <ele>379</ele>
        <time>2016-04-10T07:53:06.000Z</time>
      </trkpt>
      <trkpt lat="47.57855" lon="6.73101">
        <ele>379</ele>
        <time>2016-04-10T07:53:08.000Z</time>
      </trkpt>
      <trkpt lat="47.57857" lon="6.731">
        <ele>379</ele>
        <time>2016-04-10T07:53:09.000Z</time>
      </trkpt>
      <trkpt lat="47.57859" lon="6.73099">
        <ele>379</ele>
        <time>2016-04-10T07:53:10.000Z</time>
      </trkpt>
      <trkpt lat="47.57862" lon="6.73098">
        <ele>379</ele>
        <time>2016-04-10T07:53:11.000Z</time>
      </trkpt>
      <trkpt lat="47.57865" lon="6.73097">
        <ele>379</ele>
        <time>2016-04-10T07:53:12.000Z</time>
      </trkpt>
      <trkpt lat="47.57868" lon="6.73096">
        <ele>379</ele>
        <time>2016-04-10T07:53:13.000Z</time>
      </trkpt>
      <trkpt lat="47.57871" lon="6.73095">
        <ele>379</ele>
        <time>2016-04-10T07:53:14.000Z</time>
      </trkpt>
      <trkpt lat="47.57874" lon="6.73095">
        <ele>380</ele>
        <time>2016-04-10T07:53:15.000Z</time>
      </trkpt>
      <trkpt lat="47.57878" lon="6.73094">
        <ele>380</ele>
        <time>2016-04-10T07:53:17.000Z</time>
      </trkpt>
      <trkpt lat="47.5788" lon="6.73093">
        <ele>380</ele>
        <time>2016-04-10T07:53:18.000Z</time>
      </trkpt>
      <trkpt lat="47.57882" lon="6.73092">
        <ele>380</ele>
        <time>2016-04-10T07:53:19.000Z</time>
      </trkpt>
      <trkpt lat="47.57884" lon="6.73091">
        <ele>380</ele>
        <time>2016-04-10T07:53:20.000Z</time>
      </trkpt>
      <trkpt lat="47.57888" lon="6.7309">
        <ele>380</ele>
        <time>2016-04-10T07:53:22.000Z</time>
      </trkpt>
      <trkpt lat="47.5789" lon="6.7309">
        <ele>380</ele>
        <time>2016-04-10T07:53:23.000Z</time>
      </trkpt>
      <trkpt lat="47.57894" lon="6.7309">
        <ele>381</ele>
        <time>2016-04-10T07:53:25.000Z</time>
      </trkpt>
      <trkpt lat="47.57895" lon="6.73091">
        <ele>381</ele>
        <time>2016-04-10T07:53:26.000Z</time>
      </trkpt>
      <trkpt lat="47.57899" lon="6.73093">
        <ele>381</ele>
        <time>2016-04-10T07:53:28.000Z</time>
      </trkpt>
      <trkpt lat="47.57901" lon="6.73095">
        <ele>381</ele>
        <time>2016-04-10T07:53:29.000Z</time>
      </trkpt>
      <trkpt lat="47.57903" lon="6.73097">
        <ele>381</ele>
        <time>2016-04-10T07:53:30.000Z</time>
      </trkpt>
      <trkpt lat="47.57906" lon="6.73098">
        <ele>381</ele>
        <time>2016-04-10T07:53:31.000Z</time>
      </trkpt>
      <trkpt lat="47.57909" lon="6.73099">
        <ele>381</ele>
        <time>2016-04-10T07:53:32.000Z</time>
      </trkpt>
      <trkpt lat="47.57912" lon="6.731">
        <ele>381</ele>
        <time>2016-04-10T07:53:33.000Z</time>
      </trkpt>
      <trkpt lat="47.57914" lon="6.73101">
        <ele>381</ele>
        <time>2016-04-10T07:53:34.000Z</time>
      </trkpt>
      <trkpt lat="47.57917" lon="6.73103">
        <ele>381</ele>
        <time>2016-04-10T07:53:35.000Z</time>
      </trkpt>
      <trkpt lat="47.57919" lon="6.73105">
        <ele>381</ele>
        <time>2016-04-10T07:53:36.000Z</time>
      </trkpt>
      <trkpt lat="47.57922" lon="6.73107">
        <ele>381</ele>
        <time>2016-04-10T07:53:37.000Z</time>
      </trkpt>
      <trkpt lat="47.57924" lon="6.7311">
        <ele>380</ele>
        <time>2016-04-10T07:53:38.000Z</time>
      </trkpt>
      <trkpt lat="47.57926" lon="6.73113">
        <ele>380</ele>
        <time>2016-04-10T07:53:39.000Z</time>
      </trkpt>
      <trkpt lat="47.57929" lon="6.73116">
        <ele>380</ele>
        <time>2016-04-10T07:53:40.000Z</time>
      </trkpt>
      <trkpt lat="47.57931" lon="6.73119">
        <ele>380</ele>
        <time>2016-04-10T07:53:41.000Z</time>
      </trkpt>
      <trkpt lat="47.57934" lon="6.73122">
        <ele>380</ele>
        <time>2016-04-10T07:53:42.000Z</time>
      </trkpt>
      <trkpt lat="47.57937" lon="6.73125">
        <ele>379</ele>
        <time>2016-04-10T07:53:43.000Z</time>
      </trkpt>
      <trkpt lat="47.57941" lon="6.73129">
        <ele>379</ele>
        <time>2016-04-10T07:53:44.000Z</time>
      </trkpt>
      <trkpt lat="47.57944" lon="6.73132">
        <ele>379</ele>
        <time>2016-04-10T07:53:45.000Z</time>
      </trkpt>
      <trkpt lat="47.57948" lon="6.73136">
        <ele>379</ele>
        <time>2016-04-10T07:53:46.000Z</time>
      </trkpt>
      <trkpt lat="47.57952" lon="6.73139">
        <ele>379</ele>
        <time>2016-04-10T07:53:47.000Z</time>
      </trkpt>
      <trkpt lat="47.57957" lon="6.73141">
        <ele>379</ele>
        <time>2016-04-10T07:53:48.000Z</time>
      </trkpt>
      <trkpt lat="47.57962" lon="6.73143">
        <ele>379</ele>
        <time>2016-04-10T07:53:49.000Z</time>
      </trkpt>
      <trkpt lat="47.57975" lon="6.73143">
        <ele>378</ele>
        <time>2016-04-10T07:53:50.000Z</time>
      </trkpt>
      <trkpt lat="47.57983" lon="6.73143">
        <ele>378</ele>
        <time>2016-04-10T07:53:51.000Z</time>
      </trkpt>
      <trkpt lat="47.57992" lon="6.73144">
        <ele>378</ele>
        <time>2016-04-10T07:53:52.000Z</time>
      </trkpt>
      <trkpt lat="47.58" lon="6.73143">
        <ele>378</ele>
        <time>2016-04-10T07:53:53.000Z</time>
      </trkpt>
      <trkpt lat="47.58009" lon="6.73145">
        <ele>378</ele>
        <time>2016-04-10T07:53:54.000Z</time>
      </trkpt>
      <trkpt lat="47.58016" lon="6.73145">
        <ele>378</ele>
        <time>2016-04-10T07:53:55.000Z</time>
      </trkpt>
      <trkpt lat="47.58023" lon="6.73147">
        <ele>378</ele>
        <time>2016-04-10T07:53:56.000Z</time>
      </trkpt>
      <trkpt lat="47.58031" lon="6.73148">
        <ele>378</ele>
        <time>2016-04-10T07:53:57.000Z</time>
      </trkpt>
      <trkpt lat="47.58039" lon="6.7315">
        <ele>378</ele>
        <time>2016-04-10T07:53:58.000Z</time>
      </trkpt>
      <trkpt lat="47.58044" lon="6.7315">
        <ele>378</ele>
        <time>2016-04-10T07:53:59.000Z</time>
      </trkpt>
      <trkpt lat="47.58048" lon="6.7315">
        <ele>378</ele>
        <time>2016-04-10T07:54:00.000Z</time>
      </trkpt>
      <trkpt lat="47.58053" lon="6.73155">
        <ele>378</ele>
        <time>2016-04-10T07:54:01.000Z</time>
      </trkpt>
      <trkpt lat="47.58055" lon="6.73159">
        <ele>378</ele>
        <time>2016-04-10T07:54:02.000Z</time>
      </trkpt>
      <trkpt lat="47.58056" lon="6.73166">
        <ele>378</ele>
        <time>2016-04-10T07:54:03.000Z</time>
      </trkpt>
      <trkpt lat="47.58058" lon="6.73171">
        <ele>377</ele>
        <time>2016-04-10T07:54:04.000Z</time>
      </trkpt>
      <trkpt lat="47.58061" lon="6.73177">
        <ele>377</ele>
        <time>2016-04-10T07:54:05.000Z</time>
      </trkpt>
      <trkpt lat="47.58064" lon="6.73181">
        <ele>377</ele>
        <time>2016-04-10T07:54:06.000Z</time>
      </trkpt>
      <trkpt lat="47.58065" lon="6.73185">
        <ele>377</ele>
        <time>2016-04-10T07:54:07.000Z</time>
      </trkpt>
      <trkpt lat="47.58068" lon="6.73191">
        <ele>376</ele>
        <time>2016-04-10T07:54:08.000Z</time>
      </trkpt>
      <trkpt lat="47.58071" lon="6.73197">
        <ele>376</ele>
        <time>2016-04-10T07:54:09.000Z</time>
      </trkpt>
      <trkpt lat="47.58073" lon="6.73202">
        <ele>376</ele>
        <time>2016-04-10T07:54:10.000Z</time>
      </trkpt>
      <trkpt lat="47.58075" lon="6.73208">
        <ele>376</ele>
        <time>2016-04-10T07:54:11.000Z</time>
      </trkpt>
      <trkpt lat="47.58077" lon="6.73213">
        <ele>376</ele>
        <time>2016-04-10T07:54:12.000Z</time>
      </trkpt>
      <trkpt lat="47.5808" lon="6.73219">
        <ele>375</ele>
        <time>2016-04-10T07:54:13.000Z</time>
      </trkpt>
      <trkpt lat="47.58082" lon="6.73225">
        <ele>375</ele>
        <time>2016-04-10T07:54:14.000Z</time>
      </trkpt>
      <trkpt lat="47.58087" lon="6.73229">
        <ele>376</ele>
        <time>2016-04-10T07:54:15.000Z</time>
      </trkpt>
      <trkpt lat="47.58091" lon="6.73231">
        <ele>376</ele>
        <time>2016-04-10T07:54:16.000Z</time>
      </trkpt>
      <trkpt lat="47.58097" lon="6.73233">
        <ele>377</ele>
        <time>2016-04-10T07:54:17.000Z</time>
      </trkpt>
      <trkpt lat="47.58102" lon="6.73234">
        <ele>377</ele>
        <time>2016-04-10T07:54:18.000Z</time>
      </trkpt>
      <trkpt lat="47.58107" lon="6.73235">
        <ele>377</ele>
        <time>2016-04-10T07:54:19.000Z</time>
      </trkpt>
      <trkpt lat="47.58111" lon="6.73235">
        <ele>377</ele>
        <time>2016-04-10T07:54:20.000Z</time>
      </trkpt>
      <trkpt lat="47.58115" lon="6.73236">
        <ele>377</ele>
        <time>2016-04-10T07:54:21.000Z</time>
      </trkpt>
      <trkpt lat="47.58118" lon="6.73237">
        <ele>377</ele>
        <time>2016-04-10T07:54:22.000Z</time>
      </trkpt>
      <trkpt lat="47.58121" lon="6.73238">
        <ele>377</ele>
        <time>2016-04-10T07:54:23.000Z</time>
      </trkpt>
      <trkpt lat="47.58123" lon="6.73238">
        <ele>377</ele>
        <time>2016-04-10T07:54:24.000Z</time>
      </trkpt>
      <trkpt lat="47.58125" lon="6.73239">
        <ele>378</ele>
        <time>2016-04-10T07:54:25.000Z</time>
      </trkpt>
      <trkpt lat="47.58129" lon="6.73241">
        <ele>378</ele>
        <time>2016-04-10T07:54:27.000Z</time>
      </trkpt>
      <trkpt lat="47.58131" lon="6.73241">
        <ele>378</ele>
        <time>2016-04-10T07:54:28.000Z</time>
      </trkpt>
      <trkpt lat="47.58134" lon="6.73243">
        <ele>378</ele>
        <time>2016-04-10T07:54:30.000Z</time>
      </trkpt>
      <trkpt lat="47.58135" lon="6.73244">
        <ele>378</ele>
        <time>2016-04-10T07:54:31.000Z</time>
      </trkpt>
      <trkpt lat="47.58139" lon="6.73247">
        <ele>378</ele>
        <time>2016-04-10T07:54:33.000Z</time>
      </trkpt>
      <trkpt lat="47.58141" lon="6.73248">
        <ele>378</ele>
        <time>2016-04-10T07:54:34.000Z</time>
      </trkpt>
      <trkpt lat="47.58143" lon="6.73249">
        <ele>378</ele>
        <time>2016-04-10T07:54:35.000Z</time>
      </trkpt>
      <trkpt lat="47.58146" lon="6.7325">
        <ele>374</ele>
        <time>2016-04-10T07:54:36.000Z</time>
      </trkpt>
      <trkpt lat="47.58148" lon="6.73251">
        <ele>374</ele>
        <time>2016-04-10T07:54:37.000Z</time>
      </trkpt>
      <trkpt lat="47.58151" lon="6.73252">
        <ele>374</ele>
        <time>2016-04-10T07:54:38.000Z</time>
      </trkpt>
      <trkpt lat="47.58154" lon="6.73252">
        <ele>375</ele>
        <time>2016-04-10T07:54:39.000Z</time>
      </trkpt>
      <trkpt lat="47.58156" lon="6.73252">
        <ele>375</ele>
        <time>2016-04-10T07:54:40.000Z</time>
      </trkpt>
      <trkpt lat="47.58159" lon="6.73252">
        <ele>375</ele>
        <time>2016-04-10T07:54:41.000Z</time>
      </trkpt>
      <trkpt lat="47.58161" lon="6.73252">
        <ele>376</ele>
        <time>2016-04-10T07:54:42.000Z</time>
      </trkpt>
      <trkpt lat="47.58164" lon="6.73252">
        <ele>376</ele>
        <time>2016-04-10T07:54:43.000Z</time>
      </trkpt>
      <trkpt lat="47.58167" lon="6.73252">
        <ele>377</ele>
        <time>2016-04-10T07:54:44.000Z</time>
      </trkpt>
      <trkpt lat="47.5817" lon="6.73252">
        <ele>377</ele>
        <time>2016-04-10T07:54:45.000Z</time>
      </trkpt>
      <trkpt lat="47.58172" lon="6.73253">
        <ele>377</ele>
        <time>2016-04-10T07:54:46.000Z</time>
      </trkpt>
      <trkpt lat="47.58175" lon="6.73254">
        <ele>377</ele>
        <time>2016-04-10T07:54:47.000Z</time>
      </trkpt>
      <trkpt lat="47.58178" lon="6.73255">
        <ele>377</ele>
        <time>2016-04-10T07:54:48.000Z</time>
      </trkpt>
      <trkpt lat="47.58181" lon="6.73257">
        <ele>377</ele>
        <time>2016-04-10T07:54:49.000Z</time>
      </trkpt>
      <trkpt lat="47.58183" lon="6.73259">
        <ele>377</ele>
        <time>2016-04-10T07:54:50.000Z</time>
      </trkpt>
      <trkpt lat="47.58186" lon="6.73262">
        <ele>377</ele>
        <time>2016-04-10T07:54:51.000Z</time>
      </trkpt>
      <trkpt lat="47.58188" lon="6.73264">
        <ele>377</ele>
        <time>2016-04-10T07:54:52.000Z</time>
      </trkpt>
      <trkpt lat="47.58191" lon="6.73266">
        <ele>377</ele>
        <time>2016-04-10T07:54:53.000Z</time>
      </trkpt>
      <trkpt lat="47.58193" lon="6.73267">
        <ele>377</ele>
        <time>2016-04-10T07:54:54.000Z</time>
      </trkpt>
      <trkpt lat="47.58195" lon="6.73268">
        <ele>377</ele>
        <time>2016-04-10T07:54:55.000Z</time>
      </trkpt>
      <trkpt lat="47.58198" lon="6.73269">
        <ele>377</ele>
        <time>2016-04-10T07:54:56.000Z</time>
      </trkpt>
      <trkpt lat="47.58201" lon="6.7327">
        <ele>377</ele>
        <time>2016-04-10T07:54:57.000Z</time>
      </trkpt>
      <trkpt lat="47.58204" lon="6.73272">
        <ele>377</ele>
        <time>2016-04-10T07:54:58.000Z</time>
      </trkpt>
      <trkpt lat="47.58207" lon="6.73273">
        <ele>377</ele>
        <time>2016-04-10T07:54:59.000Z</time>
      </trkpt>
      <trkpt lat="47.5821" lon="6.73274">
        <ele>377</ele>
        <time>2016-04-10T07:55:00.000Z</time>
      </trkpt>
      <trkpt lat="47.58214" lon="6.73275">
        <ele>378</ele>
        <time>2016-04-10T07:55:01.000Z</time>
      </trkpt>
      <trkpt lat="47.58217" lon="6.73276">
        <ele>378</ele>
        <time>2016-04-10T07:55:02.000Z</time>
      </trkpt>
      <trkpt lat="47.58221" lon="6.73277">
        <ele>378</ele>
        <time>2016-04-10T07:55:03.000Z</time>
      </trkpt>
      <trkpt lat="47.58224" lon="6.73279">
        <ele>378</ele>
        <time>2016-04-10T07:55:04.000Z</time>
      </trkpt>
      <trkpt lat="47.58227" lon="6.73281">
        <ele>378</ele>
        <time>2016-04-10T07:55:05.000Z</time>
      </trkpt>
      <trkpt lat="47.5823" lon="6.73283">
        <ele>378</ele>
        <time>2016-04-10T07:55:06.000Z</time>
      </trkpt>
      <trkpt lat="47.58233" lon="6.73284">
        <ele>378</ele>
        <time>2016-04-10T07:55:07.000Z</time>
      </trkpt>
      <trkpt lat="47.58235" lon="6.73286">
        <ele>378</ele>
        <time>2016-04-10T07:55:08.000Z</time>
      </trkpt>
      <trkpt lat="47.58237" lon="6.73287">
        <ele>378</ele>
        <time>2016-04-10T07:55:09.000Z</time>
      </trkpt>
      <trkpt lat="47.5824" lon="6.73289">
        <ele>378</ele>
        <time>2016-04-10T07:55:10.000Z</time>
      </trkpt>
      <trkpt lat="47.58242" lon="6.73291">
        <ele>378</ele>
        <time>2016-04-10T07:55:11.000Z</time>
      </trkpt>
      <trkpt lat="47.58244" lon="6.73294">
        <ele>378</ele>
        <time>2016-04-10T07:55:12.000Z</time>
      </trkpt>
      <trkpt lat="47.58246" lon="6.73297">
        <ele>377</ele>
        <time>2016-04-10T07:55:13.000Z</time>
      </trkpt>
      <trkpt lat="47.58248" lon="6.73302">
        <ele>377</ele>
        <time>2016-04-10T07:55:14.000Z</time>
      </trkpt>
      <trkpt lat="47.5825" lon="6.73308">
        <ele>381</ele>
        <time>2016-04-10T07:55:15.000Z</time>
      </trkpt>
      <trkpt lat="47.58252" lon="6.73315">
        <ele>380</ele>
        <time>2016-04-10T07:55:16.000Z</time>
      </trkpt>
      <trkpt lat="47.58254" lon="6.73322">
        <ele>379</ele>
        <time>2016-04-10T07:55:17.000Z</time>
      </trkpt>
      <trkpt lat="47.58256" lon="6.7333">
        <ele>377</ele>
        <time>2016-04-10T07:55:18.000Z</time>
      </trkpt>
      <trkpt lat="47.58262" lon="6.73344">
        <ele>376</ele>
        <time>2016-04-10T07:55:19.000Z</time>
      </trkpt>
      <trkpt lat="47.58267" lon="6.73352">
        <ele>376</ele>
        <time>2016-04-10T07:55:20.000Z</time>
      </trkpt>
      <trkpt lat="47.5827" lon="6.73359">
        <ele>376</ele>
        <time>2016-04-10T07:55:21.000Z</time>
      </trkpt>
      <trkpt lat="47.58273" lon="6.73366">
        <ele>376</ele>
        <time>2016-04-10T07:55:22.000Z</time>
      </trkpt>
      <trkpt lat="47.58276" lon="6.7338">
        <ele>375</ele>
        <time>2016-04-10T07:55:23.000Z</time>
      </trkpt>
      <trkpt lat="47.58278" lon="6.7339">
        <ele>374</ele>
        <time>2016-04-10T07:55:24.000Z</time>
      </trkpt>
      <trkpt lat="47.58279" lon="6.73397">
        <ele>374</ele>
        <time>2016-04-10T07:55:25.000Z</time>
      </trkpt>
      <trkpt lat="47.58281" lon="6.73406">
        <ele>374</ele>
        <time>2016-04-10T07:55:26.000Z</time>
      </trkpt>
      <trkpt lat="47.58281" lon="6.73414">
        <ele>373</ele>
        <time>2016-04-10T07:55:27.000Z</time>
      </trkpt>
      <trkpt lat="47.58282" lon="6.73422">
        <ele>368</ele>
        <time>2016-04-10T07:55:28.000Z</time>
      </trkpt>
      <trkpt lat="47.58283" lon="6.73431">
        <ele>368</ele>
        <time>2016-04-10T07:55:29.000Z</time>
      </trkpt>
      <trkpt lat="47.58283" lon="6.73439">
        <ele>368</ele>
        <time>2016-04-10T07:55:30.000Z</time>
      </trkpt>
      <trkpt lat="47.58284" lon="6.73448">
        <ele>368</ele>
        <time>2016-04-10T07:55:31.000Z</time>
      </trkpt>
      <trkpt lat="47.58284" lon="6.73457">
        <ele>368</ele>
        <time>2016-04-10T07:55:32.000Z</time>
      </trkpt>
      <trkpt lat="47.58285" lon="6.73465">
        <ele>367</ele>
        <time>2016-04-10T07:55:33.000Z</time>
      </trkpt>
      <trkpt lat="47.58285" lon="6.73473">
        <ele>367</ele>
        <time>2016-04-10T07:55:34.000Z</time>
      </trkpt>
      <trkpt lat="47.58284" lon="6.73482">
        <ele>366</ele>
        <time>2016-04-10T07:55:35.000Z</time>
      </trkpt>
      <trkpt lat="47.58283" lon="6.7349">
        <ele>366</ele>
        <time>2016-04-10T07:55:36.000Z</time>
      </trkpt>
      <trkpt lat="47.58282" lon="6.73499">
        <ele>365</ele>
        <time>2016-04-10T07:55:37.000Z</time>
      </trkpt>
      <trkpt lat="47.58283" lon="6.73508">
        <ele>362</ele>
        <time>2016-04-10T07:55:38.000Z</time>
      </trkpt>
      <trkpt lat="47.58283" lon="6.73515">
        <ele>362</ele>
        <time>2016-04-10T07:55:39.000Z</time>
      </trkpt>
      <trkpt lat="47.58284" lon="6.73521">
        <ele>362</ele>
        <time>2016-04-10T07:55:40.000Z</time>
      </trkpt>
      <trkpt lat="47.58285" lon="6.73529">
        <ele>362</ele>
        <time>2016-04-10T07:55:41.000Z</time>
      </trkpt>
      <trkpt lat="47.58286" lon="6.73536">
        <ele>362</ele>
        <time>2016-04-10T07:55:42.000Z</time>
      </trkpt>
      <trkpt lat="47.58287" lon="6.73542">
        <ele>362</ele>
        <time>2016-04-10T07:55:43.000Z</time>
      </trkpt>
      <trkpt lat="47.58289" lon="6.73548">
        <ele>362</ele>
        <time>2016-04-10T07:55:44.000Z</time>
      </trkpt>
      <trkpt lat="47.5829" lon="6.73554">
        <ele>362</ele>
        <time>2016-04-10T07:55:45.000Z</time>
      </trkpt>
      <trkpt lat="47.58291" lon="6.73559">
        <ele>362</ele>
        <time>2016-04-10T07:55:46.000Z</time>
      </trkpt>
      <trkpt lat="47.58292" lon="6.73563">
        <ele>362</ele>
        <time>2016-04-10T07:55:47.000Z</time>
      </trkpt>
      <trkpt lat="47.58293" lon="6.73566">
        <ele>362</ele>
        <time>2016-04-10T07:55:50.000Z</time>
      </trkpt>
      <trkpt lat="47.58296" lon="6.73566">
        <ele>362</ele>
        <time>2016-04-10T07:55:51.000Z</time>
      </trkpt>
      <trkpt lat="47.58299" lon="6.73565">
        <ele>362</ele>
        <time>2016-04-10T07:55:53.000Z</time>
      </trkpt>
      <trkpt lat="47.58302" lon="6.73563">
        <ele>362</ele>
        <time>2016-04-10T07:55:54.000Z</time>
      </trkpt>
      <trkpt lat="47.58305" lon="6.73561">
        <ele>362</ele>
        <time>2016-04-10T07:55:56.000Z</time>
      </trkpt>
      <trkpt lat="47.58307" lon="6.73562">
        <ele>362</ele>
        <time>2016-04-10T07:55:57.000Z</time>
      </trkpt>
      <trkpt lat="47.58307" lon="6.73568">
        <ele>362</ele>
        <time>2016-04-10T07:55:59.000Z</time>
      </trkpt>
      <trkpt lat="47.58307" lon="6.73573">
        <ele>362</ele>
        <time>2016-04-10T07:56:00.000Z</time>
      </trkpt>
      <trkpt lat="47.58307" lon="6.73578">
        <ele>362</ele>
        <time>2016-04-10T07:56:01.000Z</time>
      </trkpt>
      <trkpt lat="47.58308" lon="6.73584">
        <ele>358</ele>
        <time>2016-04-10T07:56:02.000Z</time>
      </trkpt>
      <trkpt lat="47.58309" lon="6.7359">
        <ele>358</ele>
        <time>2016-04-10T07:56:03.000Z</time>
      </trkpt>
      <trkpt lat="47.58315" lon="6.73601">
        <ele>358</ele>
        <time>2016-04-10T07:56:04.000Z</time>
      </trkpt>
      <trkpt lat="47.58319" lon="6.73607">
        <ele>358</ele>
        <time>2016-04-10T07:56:05.000Z</time>
      </trkpt>
      <trkpt lat="47.58322" lon="6.73611">
        <ele>358</ele>
        <time>2016-04-10T07:56:06.000Z</time>
      </trkpt>
      <trkpt lat="47.58325" lon="6.73614">
        <ele>358</ele>
        <time>2016-04-10T07:56:07.000Z</time>
      </trkpt>
      <trkpt lat="47.58328" lon="6.73616">
        <ele>357</ele>
        <time>2016-04-10T07:56:08.000Z</time>
      </trkpt>
      <trkpt lat="47.58332" lon="6.73618">
        <ele>357</ele>
        <time>2016-04-10T07:56:09.000Z</time>
      </trkpt>
      <trkpt lat="47.58336" lon="6.7362">
        <ele>353</ele>
        <time>2016-04-10T07:56:10.000Z</time>
      </trkpt>
      <trkpt lat="47.5834" lon="6.73622">
        <ele>353</ele>
        <time>2016-04-10T07:56:11.000Z</time>
      </trkpt>
      <trkpt lat="47.58345" lon="6.73621">
        <ele>353</ele>
        <time>2016-04-10T07:56:12.000Z</time>
      </trkpt>
      <trkpt lat="47.58351" lon="6.73619">
        <ele>353</ele>
        <time>2016-04-10T07:56:13.000Z</time>
      </trkpt>
      <trkpt lat="47.58354" lon="6.73617">
        <ele>352</ele>
        <time>2016-04-10T07:56:14.000Z</time>
      </trkpt>
      <trkpt lat="47.58356" lon="6.73614">
        <ele>352</ele>
        <time>2016-04-10T07:56:15.000Z</time>
      </trkpt>
      <trkpt lat="47.58358" lon="6.73616">
        <ele>352</ele>
        <time>2016-04-10T07:56:16.000Z</time>
      </trkpt>
      <trkpt lat="47.5836" lon="6.73618">
        <ele>352</ele>
        <time>2016-04-10T07:56:17.000Z</time>
      </trkpt>
      <trkpt lat="47.58363" lon="6.73622">
        <ele>351</ele>
        <time>2016-04-10T07:56:18.000Z</time>
      </trkpt>
      <trkpt lat="47.58365" lon="6.73626">
        <ele>351</ele>
        <time>2016-04-10T07:56:19.000Z</time>
      </trkpt>
      <trkpt lat="47.58367" lon="6.73631">
        <ele>351</ele>
        <time>2016-04-10T07:56:20.000Z</time>
      </trkpt>
      <trkpt lat="47.58369" lon="6.73636">
        <ele>351</ele>
        <time>2016-04-10T07:56:21.000Z</time>
      </trkpt>
      <trkpt lat="47.5837" lon="6.73641">
        <ele>350</ele>
        <time>2016-04-10T07:56:22.000Z</time>
      </trkpt>
      <trkpt lat="47.58371" lon="6.73645">
        <ele>350</ele>
        <time>2016-04-10T07:56:23.000Z</time>
      </trkpt>
      <trkpt lat="47.58372" lon="6.7365">
        <ele>350</ele>
        <time>2016-04-10T07:56:24.000Z</time>
      </trkpt>
      <trkpt lat="47.58373" lon="6.73654">
        <ele>350</ele>
        <time>2016-04-10T07:56:25.000Z</time>
      </trkpt>
      <trkpt lat="47.58373" lon="6.73658">
        <ele>350</ele>
        <time>2016-04-10T07:56:26.000Z</time>
      </trkpt>
      <trkpt lat="47.58373" lon="6.73663">
        <ele>350</ele>
        <time>2016-04-10T07:56:27.000Z</time>
      </trkpt>
      <trkpt lat="47.58373" lon="6.73667">
        <ele>350</ele>
        <time>2016-04-10T07:56:28.000Z</time>
      </trkpt>
      <trkpt lat="47.58372" lon="6.73671">
        <ele>350</ele>
        <time>2016-04-10T07:56:29.000Z</time>
      </trkpt>
      <trkpt lat="47.58371" lon="6.73675">
        <ele>350</ele>
        <time>2016-04-10T07:56:30.000Z</time>
      </trkpt>
      <trkpt lat="47.5837" lon="6.73679">
        <ele>350</ele>
        <time>2016-04-10T07:56:31.000Z</time>
      </trkpt>
      <trkpt lat="47.58369" lon="6.73683">
        <ele>350</ele>
        <time>2016-04-10T07:56:32.000Z</time>
      </trkpt>
      <trkpt lat="47.58369" lon="6.73687">
        <ele>350</ele>
        <time>2016-04-10T07:56:33.000Z</time>
      </trkpt>
      <trkpt lat="47.5837" lon="6.73692">
        <ele>350</ele>
        <time>2016-04-10T07:56:35.000Z</time>
      </trkpt>
      <trkpt lat="47.5837" lon="6.73696">
        <ele>350</ele>
        <time>2016-04-10T07:56:36.000Z</time>
      </trkpt>
      <trkpt lat="47.5837" lon="6.73699">
        <ele>350</ele>
        <time>2016-04-10T07:56:37.000Z</time>
      </trkpt>
      <trkpt lat="47.58369" lon="6.73702">
        <ele>350</ele>
        <time>2016-04-10T07:56:38.000Z</time>
      </trkpt>
      <trkpt lat="47.58367" lon="6.73708">
        <ele>350</ele>
        <time>2016-04-10T07:56:40.000Z</time>
      </trkpt>
      <trkpt lat="47.58366" lon="6.73711">
        <ele>350</ele>
        <time>2016-04-10T07:56:41.000Z</time>
      </trkpt>
      <trkpt lat="47.58365" lon="6.73714">
        <ele>350</ele>
        <time>2016-04-10T07:56:42.000Z</time>
      </trkpt>
      <trkpt lat="47.58364" lon="6.73717">
        <ele>350</ele>
        <time>2016-04-10T07:56:43.000Z</time>
      </trkpt>
      <trkpt lat="47.58362" lon="6.73723">
        <ele>351</ele>
        <time>2016-04-10T07:56:45.000Z</time>
      </trkpt>
      <trkpt lat="47.58361" lon="6.73726">
        <ele>351</ele>
        <time>2016-04-10T07:56:46.000Z</time>
      </trkpt>
      <trkpt lat="47.58359" lon="6.73731">
        <ele>351</ele>
        <time>2016-04-10T07:56:48.000Z</time>
      </trkpt>
      <trkpt lat="47.58358" lon="6.73734">
        <ele>351</ele>
        <time>2016-04-10T07:56:49.000Z</time>
      </trkpt>
      <trkpt lat="47.58356" lon="6.73738">
        <ele>351</ele>
        <time>2016-04-10T07:56:51.000Z</time>
      </trkpt>
      <trkpt lat="47.58354" lon="6.73741">
        <ele>351</ele>
        <time>2016-04-10T07:56:52.000Z</time>
      </trkpt>
      <trkpt lat="47.58352" lon="6.73745">
        <ele>352</ele>
        <time>2016-04-10T07:56:54.000Z</time>
      </trkpt>
      <trkpt lat="47.5835" lon="6.73747">
        <ele>352</ele>
        <time>2016-04-10T07:56:55.000Z</time>
      </trkpt>
      <trkpt lat="47.58348" lon="6.7375">
        <ele>352</ele>
        <time>2016-04-10T07:56:56.000Z</time>
      </trkpt>
      <trkpt lat="47.58347" lon="6.73752">
        <ele>354</ele>
        <time>2016-04-10T07:56:57.000Z</time>
      </trkpt>
      <trkpt lat="47.58345" lon="6.73755">
        <ele>354</ele>
        <time>2016-04-10T07:56:58.000Z</time>
      </trkpt>
      <trkpt lat="47.58343" lon="6.73757">
        <ele>354</ele>
        <time>2016-04-10T07:56:59.000Z</time>
      </trkpt>
      <trkpt lat="47.58342" lon="6.7376">
        <ele>354</ele>
        <time>2016-04-10T07:57:00.000Z</time>
      </trkpt>
      <trkpt lat="47.5834" lon="6.73763">
        <ele>354</ele>
        <time>2016-04-10T07:57:01.000Z</time>
      </trkpt>
      <trkpt lat="47.58338" lon="6.73766">
        <ele>354</ele>
        <time>2016-04-10T07:57:02.000Z</time>
      </trkpt>
      <trkpt lat="47.58337" lon="6.73769">
        <ele>354</ele>
        <time>2016-04-10T07:57:03.000Z</time>
      </trkpt>
      <trkpt lat="47.58335" lon="6.73772">
        <ele>354</ele>
        <time>2016-04-10T07:57:04.000Z</time>
      </trkpt>
      <trkpt lat="47.58333" lon="6.73775">
        <ele>353</ele>
        <time>2016-04-10T07:57:05.000Z</time>
      </trkpt>
      <trkpt lat="47.58332" lon="6.73778">
        <ele>352</ele>
        <time>2016-04-10T07:57:06.000Z</time>
      </trkpt>
      <trkpt lat="47.5833" lon="6.73781">
        <ele>352</ele>
        <time>2016-04-10T07:57:07.000Z</time>
      </trkpt>
      <trkpt lat="47.58328" lon="6.73785">
        <ele>352</ele>
        <time>2016-04-10T07:57:08.000Z</time>
      </trkpt>
      <trkpt lat="47.58326" lon="6.73788">
        <ele>352</ele>
        <time>2016-04-10T07:57:09.000Z</time>
      </trkpt>
      <trkpt lat="47.58323" lon="6.73792">
        <ele>352</ele>
        <time>2016-04-10T07:57:10.000Z</time>
      </trkpt>
      <trkpt lat="47.58322" lon="6.73796">
        <ele>353</ele>
        <time>2016-04-10T07:57:11.000Z</time>
      </trkpt>
      <trkpt lat="47.5832" lon="6.738">
        <ele>353</ele>
        <time>2016-04-10T07:57:12.000Z</time>
      </trkpt>
      <trkpt lat="47.58319" lon="6.73804">
        <ele>353</ele>
        <time>2016-04-10T07:57:13.000Z</time>
      </trkpt>
      <trkpt lat="47.58318" lon="6.73808">
        <ele>353</ele>
        <time>2016-04-10T07:57:14.000Z</time>
      </trkpt>
      <trkpt lat="47.58317" lon="6.73812">
        <ele>353</ele>
        <time>2016-04-10T07:57:15.000Z</time>
      </trkpt>
      <trkpt lat="47.58316" lon="6.73815">
        <ele>353</ele>
        <time>2016-04-10T07:57:16.000Z</time>
      </trkpt>
      <trkpt lat="47.58314" lon="6.73819">
        <ele>353</ele>
        <time>2016-04-10T07:57:17.000Z</time>
      </trkpt>
      <trkpt lat="47.58314" lon="6.73823">
        <ele>354</ele>
        <time>2016-04-10T07:57:18.000Z</time>
      </trkpt>
      <trkpt lat="47.58313" lon="6.73826">
        <ele>354</ele>
        <time>2016-04-10T07:57:19.000Z</time>
      </trkpt>
      <trkpt lat="47.58312" lon="6.7383">
        <ele>354</ele>
        <time>2016-04-10T07:57:20.000Z</time>
      </trkpt>
      <trkpt lat="47.58311" lon="6.73833">
        <ele>354</ele>
        <time>2016-04-10T07:57:21.000Z</time>
      </trkpt>
      <trkpt lat="47.5831" lon="6.73837">
        <ele>355</ele>
        <time>2016-04-10T07:57:22.000Z</time>
      </trkpt>
      <trkpt lat="47.58309" lon="6.73842">
        <ele>355</ele>
        <time>2016-04-10T07:57:23.000Z</time>
      </trkpt>
      <trkpt lat="47.58309" lon="6.73845">
        <ele>355</ele>
        <time>2016-04-10T07:57:24.000Z</time>
      </trkpt>
      <trkpt lat="47.58308" lon="6.73849">
        <ele>354</ele>
        <time>2016-04-10T07:57:25.000Z</time>
      </trkpt>
      <trkpt lat="47.58308" lon="6.73855">
        <ele>354</ele>
        <time>2016-04-10T07:57:27.000Z</time>
      </trkpt>
      <trkpt lat="47.58307" lon="6.73858">
        <ele>354</ele>
        <time>2016-04-10T07:57:28.000Z</time>
      </trkpt>
      <trkpt lat="47.58307" lon="6.73864">
        <ele>354</ele>
        <time>2016-04-10T07:57:30.000Z</time>
      </trkpt>
      <trkpt lat="47.58307" lon="6.73867">
        <ele>354</ele>
        <time>2016-04-10T07:57:31.000Z</time>
      </trkpt>
      <trkpt lat="47.58306" lon="6.73873">
        <ele>354</ele>
        <time>2016-04-10T07:57:32.998Z</time>
      </trkpt>
      <trkpt lat="47.58307" lon="6.73878">
        <ele>354</ele>
        <time>2016-04-10T07:57:34.000Z</time>
      </trkpt>
      <trkpt lat="47.58307" lon="6.73882">
        <ele>355</ele>
        <time>2016-04-10T07:57:35.000Z</time>
      </trkpt>
      <trkpt lat="47.58307" lon="6.73886">
        <ele>355</ele>
        <time>2016-04-10T07:57:36.000Z</time>
      </trkpt>
      <trkpt lat="47.58308" lon="6.7389">
        <ele>355</ele>
        <time>2016-04-10T07:57:37.000Z</time>
      </trkpt>
      <trkpt lat="47.58308" lon="6.73894">
        <ele>355</ele>
        <time>2016-04-10T07:57:38.000Z</time>
      </trkpt>
      <trkpt lat="47.58308" lon="6.73898">
        <ele>355</ele>
        <time>2016-04-10T07:57:39.000Z</time>
      </trkpt>
      <trkpt lat="47.58308" lon="6.73901">
        <ele>356</ele>
        <time>2016-04-10T07:57:40.000Z</time>
      </trkpt>
      <trkpt lat="47.58308" lon="6.73906">
        <ele>356</ele>
        <time>2016-04-10T07:57:41.000Z</time>
      </trkpt>
      <trkpt lat="47.58309" lon="6.73912">
        <ele>356</ele>
        <time>2016-04-10T07:57:42.000Z</time>
      </trkpt>
      <trkpt lat="47.58309" lon="6.73917">
        <ele>357</ele>
        <time>2016-04-10T07:57:43.000Z</time>
      </trkpt>
      <trkpt lat="47.5831" lon="6.73923">
        <ele>357</ele>
        <time>2016-04-10T07:57:44.000Z</time>
      </trkpt>
      <trkpt lat="47.5831" lon="6.73928">
        <ele>357</ele>
        <time>2016-04-10T07:57:45.000Z</time>
      </trkpt>
      <trkpt lat="47.58311" lon="6.73932">
        <ele>357</ele>
        <time>2016-04-10T07:57:46.000Z</time>
      </trkpt>
      <trkpt lat="47.58312" lon="6.73937">
        <ele>357</ele>
        <time>2016-04-10T07:57:47.000Z</time>
      </trkpt>
      <trkpt lat="47.58313" lon="6.73941">
        <ele>357</ele>
        <time>2016-04-10T07:57:48.000Z</time>
      </trkpt>
      <trkpt lat="47.58315" lon="6.73945">
        <ele>356</ele>
        <time>2016-04-10T07:57:49.000Z</time>
      </trkpt>
      <trkpt lat="47.58316" lon="6.7395">
        <ele>356</ele>
        <time>2016-04-10T07:57:50.000Z</time>
      </trkpt>
      <trkpt lat="47.58317" lon="6.73955">
        <ele>356</ele>
        <time>2016-04-10T07:57:51.000Z</time>
      </trkpt>
      <trkpt lat="47.58318" lon="6.7396">
        <ele>356</ele>
        <time>2016-04-10T07:57:52.000Z</time>
      </trkpt>
      <trkpt lat="47.58319" lon="6.73965">
        <ele>356</ele>
        <time>2016-04-10T07:57:53.000Z</time>
      </trkpt>
      <trkpt lat="47.58321" lon="6.7397">
        <ele>357</ele>
        <time>2016-04-10T07:57:54.000Z</time>
      </trkpt>
      <trkpt lat="47.58323" lon="6.73975">
        <ele>357</ele>
        <time>2016-04-10T07:57:55.000Z</time>
      </trkpt>
      <trkpt lat="47.58326" lon="6.73978">
        <ele>357</ele>
        <time>2016-04-10T07:57:56.000Z</time>
      </trkpt>
      <trkpt lat="47.58329" lon="6.73981">
        <ele>357</ele>
        <time>2016-04-10T07:57:57.000Z</time>
      </trkpt>
      <trkpt lat="47.58332" lon="6.73981">
        <ele>358</ele>
        <time>2016-04-10T07:57:58.000Z</time>
      </trkpt>
      <trkpt lat="47.58335" lon="6.73981">
        <ele>360</ele>
        <time>2016-04-10T07:57:59.000Z</time>
      </trkpt>
      <trkpt lat="47.58338" lon="6.7398">
        <ele>360</ele>
        <time>2016-04-10T07:58:00.000Z</time>
      </trkpt>
      <trkpt lat="47.58341" lon="6.73978">
        <ele>360</ele>
        <time>2016-04-10T07:58:01.000Z</time>
      </trkpt>
      <trkpt lat="47.58343" lon="6.73975">
        <ele>360</ele>
        <time>2016-04-10T07:58:02.000Z</time>
      </trkpt>
      <trkpt lat="47.58346" lon="6.73973">
        <ele>360</ele>
        <time>2016-04-10T07:58:03.000Z</time>
      </trkpt>
      <trkpt lat="47.58349" lon="6.73972">
        <ele>360</ele>
        <time>2016-04-10T07:58:04.000Z</time>
      </trkpt>
      <trkpt lat="47.58352" lon="6.7397">
        <ele>360</ele>
        <time>2016-04-10T07:58:05.000Z</time>
      </trkpt>
      <trkpt lat="47.58355" lon="6.73968">
        <ele>360</ele>
        <time>2016-04-10T07:58:06.000Z</time>
      </trkpt>
      <trkpt lat="47.58358" lon="6.73966">
        <ele>360</ele>
        <time>2016-04-10T07:58:07.000Z</time>
      </trkpt>
      <trkpt lat="47.5836" lon="6.73965">
        <ele>360</ele>
        <time>2016-04-10T07:58:08.000Z</time>
      </trkpt>
      <trkpt lat="47.58363" lon="6.73963">
        <ele>360</ele>
        <time>2016-04-10T07:58:09.000Z</time>
      </trkpt>
      <trkpt lat="47.58367" lon="6.73962">
        <ele>360</ele>
        <time>2016-04-10T07:58:10.000Z</time>
      </trkpt>
      <trkpt lat="47.5837" lon="6.7396">
        <ele>360</ele>
        <time>2016-04-10T07:58:11.000Z</time>
      </trkpt>
      <trkpt lat="47.58373" lon="6.73959">
        <ele>360</ele>
        <time>2016-04-10T07:58:12.000Z</time>
      </trkpt>
      <trkpt lat="47.58376" lon="6.73957">
        <ele>360</ele>
        <time>2016-04-10T07:58:13.000Z</time>
      </trkpt>
      <trkpt lat="47.58379" lon="6.73955">
        <ele>360</ele>
        <time>2016-04-10T07:58:14.000Z</time>
      </trkpt>
      <trkpt lat="47.58382" lon="6.73953">
        <ele>360</ele>
        <time>2016-04-10T07:58:15.000Z</time>
      </trkpt>
      <trkpt lat="47.58385" lon="6.7395">
        <ele>360</ele>
        <time>2016-04-10T07:58:16.000Z</time>
      </trkpt>
      <trkpt lat="47.58387" lon="6.73947">
        <ele>360</ele>
        <time>2016-04-10T07:58:17.000Z</time>
      </trkpt>
      <trkpt lat="47.5839" lon="6.73943">
        <ele>360</ele>
        <time>2016-04-10T07:58:18.000Z</time>
      </trkpt>
      <trkpt lat="47.58392" lon="6.73939">
        <ele>360</ele>
        <time>2016-04-10T07:58:19.000Z</time>
      </trkpt>
      <trkpt lat="47.58394" lon="6.73935">
        <ele>360</ele>
        <time>2016-04-10T07:58:20.000Z</time>
      </trkpt>
      <trkpt lat="47.58396" lon="6.73931">
        <ele>360</ele>
        <time>2016-04-10T07:58:21.000Z</time>
      </trkpt>
      <trkpt lat="47.58397" lon="6.73926">
        <ele>360</ele>
        <time>2016-04-10T07:58:22.000Z</time>
      </trkpt>
      <trkpt lat="47.58399" lon="6.73921">
        <ele>360</ele>
        <time>2016-04-10T07:58:23.000Z</time>
      </trkpt>
      <trkpt lat="47.58401" lon="6.73917">
        <ele>360</ele>
        <time>2016-04-10T07:58:24.000Z</time>
      </trkpt>
      <trkpt lat="47.58404" lon="6.73914">
        <ele>360</ele>
        <time>2016-04-10T07:58:25.000Z</time>
      </trkpt>
      <trkpt lat="47.58406" lon="6.73914">
        <ele>360</ele>
        <time>2016-04-10T07:58:26.000Z</time>
      </trkpt>
      <trkpt lat="47.58408" lon="6.73915">
        <ele>360</ele>
        <time>2016-04-10T07:58:27.000Z</time>
      </trkpt>
      <trkpt lat="47.5841" lon="6.73917">
        <ele>360</ele>
        <time>2016-04-10T07:58:28.000Z</time>
      </trkpt>
      <trkpt lat="47.58412" lon="6.73919">
        <ele>360</ele>
        <time>2016-04-10T07:58:29.000Z</time>
      </trkpt>
      <trkpt lat="47.58414" lon="6.73921">
        <ele>360</ele>
        <time>2016-04-10T07:58:30.000Z</time>
      </trkpt>
      <trkpt lat="47.58417" lon="6.73923">
        <ele>357</ele>
        <time>2016-04-10T07:58:31.000Z</time>
      </trkpt>
      <trkpt lat="47.5842" lon="6.73926">
        <ele>356</ele>
        <time>2016-04-10T07:58:32.000Z</time>
      </trkpt>
      <trkpt lat="47.58422" lon="6.73929">
        <ele>355</ele>
        <time>2016-04-10T07:58:33.000Z</time>
      </trkpt>
      <trkpt lat="47.58425" lon="6.73933">
        <ele>354</ele>
        <time>2016-04-10T07:58:34.000Z</time>
      </trkpt>
      <trkpt lat="47.58427" lon="6.73936">
        <ele>353</ele>
        <time>2016-04-10T07:58:35.000Z</time>
      </trkpt>
      <trkpt lat="47.58429" lon="6.7394">
        <ele>352</ele>
        <time>2016-04-10T07:58:36.000Z</time>
      </trkpt>
      <trkpt lat="47.58434" lon="6.73954">
        <ele>350</ele>
        <time>2016-04-10T07:58:37.000Z</time>
      </trkpt>
      <trkpt lat="47.58436" lon="6.73958">
        <ele>350</ele>
        <time>2016-04-10T07:58:38.000Z</time>
      </trkpt>
      <trkpt lat="47.58438" lon="6.73963">
        <ele>350</ele>
        <time>2016-04-10T07:58:39.000Z</time>
      </trkpt>
      <trkpt lat="47.5844" lon="6.73967">
        <ele>350</ele>
        <time>2016-04-10T07:58:40.000Z</time>
      </trkpt>
      <trkpt lat="47.58443" lon="6.73969">
        <ele>349</ele>
        <time>2016-04-10T07:58:41.000Z</time>
      </trkpt>
      <trkpt lat="47.58447" lon="6.73974">
        <ele>349</ele>
        <time>2016-04-10T07:58:42.000Z</time>
      </trkpt>
      <trkpt lat="47.5845" lon="6.73979">
        <ele>348</ele>
        <time>2016-04-10T07:58:43.000Z</time>
      </trkpt>
      <trkpt lat="47.58453" lon="6.73983">
        <ele>348</ele>
        <time>2016-04-10T07:58:44.000Z</time>
      </trkpt>
      <trkpt lat="47.58456" lon="6.73987">
        <ele>347</ele>
        <time>2016-04-10T07:58:45.000Z</time>
      </trkpt>
      <trkpt lat="47.58459" lon="6.73991">
        <ele>347</ele>
        <time>2016-04-10T07:58:46.000Z</time>
      </trkpt>
      <trkpt lat="47.58461" lon="6.73994">
        <ele>346</ele>
        <time>2016-04-10T07:58:47.000Z</time>
      </trkpt>
      <trkpt lat="47.58463" lon="6.73996">
        <ele>346</ele>
        <time>2016-04-10T07:58:48.000Z</time>
      </trkpt>
      <trkpt lat="47.58466" lon="6.73997">
        <ele>345</ele>
        <time>2016-04-10T07:58:49.000Z</time>
      </trkpt>
      <trkpt lat="47.58469" lon="6.73997">
        <ele>345</ele>
        <time>2016-04-10T07:58:50.000Z</time>
      </trkpt>
      <trkpt lat="47.58471" lon="6.73997">
        <ele>344</ele>
        <time>2016-04-10T07:58:51.000Z</time>
      </trkpt>
      <trkpt lat="47.58475" lon="6.73994">
        <ele>344</ele>
        <time>2016-04-10T07:58:53.000Z</time>
      </trkpt>
      <trkpt lat="47.58475" lon="6.73991">
        <ele>344</ele>
        <time>2016-04-10T07:58:54.000Z</time>
      </trkpt>
      <trkpt lat="47.58474" lon="6.73985">
        <ele>344</ele>
        <time>2016-04-10T07:58:56.000Z</time>
      </trkpt>
      <trkpt lat="47.58474" lon="6.73981">
        <ele>344</ele>
        <time>2016-04-10T07:58:57.000Z</time>
      </trkpt>
      <trkpt lat="47.58474" lon="6.73978">
        <ele>344</ele>
        <time>2016-04-10T07:58:58.000Z</time>
      </trkpt>
      <trkpt lat="47.58474" lon="6.73974">
        <ele>345</ele>
        <time>2016-04-10T07:58:59.000Z</time>
      </trkpt>
      <trkpt lat="47.58475" lon="6.7397">
        <ele>345</ele>
        <time>2016-04-10T07:59:00.000Z</time>
      </trkpt>
      <trkpt lat="47.58475" lon="6.73966">
        <ele>345</ele>
        <time>2016-04-10T07:59:01.000Z</time>
      </trkpt>
      <trkpt lat="47.58476" lon="6.73961">
        <ele>345</ele>
        <time>2016-04-10T07:59:02.000Z</time>
      </trkpt>
      <trkpt lat="47.58476" lon="6.73956">
        <ele>345</ele>
        <time>2016-04-10T07:59:03.000Z</time>
      </trkpt>
      <trkpt lat="47.58477" lon="6.73951">
        <ele>345</ele>
        <time>2016-04-10T07:59:04.000Z</time>
      </trkpt>
      <trkpt lat="47.58477" lon="6.73945">
        <ele>345</ele>
        <time>2016-04-10T07:59:05.000Z</time>
      </trkpt>
      <trkpt lat="47.58478" lon="6.7394">
        <ele>344</ele>
        <time>2016-04-10T07:59:06.000Z</time>
      </trkpt>
      <trkpt lat="47.58478" lon="6.73934">
        <ele>344</ele>
        <time>2016-04-10T07:59:07.000Z</time>
      </trkpt>
      <trkpt lat="47.58478" lon="6.73929">
        <ele>344</ele>
        <time>2016-04-10T07:59:08.000Z</time>
      </trkpt>
      <trkpt lat="47.58479" lon="6.73924">
        <ele>343</ele>
        <time>2016-04-10T07:59:09.000Z</time>
      </trkpt>
      <trkpt lat="47.58479" lon="6.73919">
        <ele>343</ele>
        <time>2016-04-10T07:59:10.000Z</time>
      </trkpt>
      <trkpt lat="47.5848" lon="6.73914">
        <ele>342</ele>
        <time>2016-04-10T07:59:11.000Z</time>
      </trkpt>
      <trkpt lat="47.58481" lon="6.73909">
        <ele>343</ele>
        <time>2016-04-10T07:59:12.000Z</time>
      </trkpt>
      <trkpt lat="47.58481" lon="6.73904">
        <ele>343</ele>
        <time>2016-04-10T07:59:13.000Z</time>
      </trkpt>
      <trkpt lat="47.58482" lon="6.73899">
        <ele>343</ele>
        <time>2016-04-10T07:59:14.000Z</time>
      </trkpt>
      <trkpt lat="47.58483" lon="6.73894">
        <ele>343</ele>
        <time>2016-04-10T07:59:15.000Z</time>
      </trkpt>
      <trkpt lat="47.58484" lon="6.73889">
        <ele>343</ele>
        <time>2016-04-10T07:59:16.000Z</time>
      </trkpt>
      <trkpt lat="47.58484" lon="6.73884">
        <ele>344</ele>
        <time>2016-04-10T07:59:17.000Z</time>
      </trkpt>
      <trkpt lat="47.58484" lon="6.73879">
        <ele>344</ele>
        <time>2016-04-10T07:59:18.000Z</time>
      </trkpt>
      <trkpt lat="47.58485" lon="6.73874">
        <ele>344</ele>
        <time>2016-04-10T07:59:19.000Z</time>
      </trkpt>
      <trkpt lat="47.58485" lon="6.73868">
        <ele>344</ele>
        <time>2016-04-10T07:59:20.000Z</time>
      </trkpt>
      <trkpt lat="47.58485" lon="6.73863">
        <ele>343</ele>
        <time>2016-04-10T07:59:21.000Z</time>
      </trkpt>
      <trkpt lat="47.58484" lon="6.73857">
        <ele>343</ele>
        <time>2016-04-10T07:59:22.000Z</time>
      </trkpt>
      <trkpt lat="47.58484" lon="6.73851">
        <ele>343</ele>
        <time>2016-04-10T07:59:23.000Z</time>
      </trkpt>
      <trkpt lat="47.58483" lon="6.73846">
        <ele>342</ele>
        <time>2016-04-10T07:59:24.000Z</time>
      </trkpt>
      <trkpt lat="47.58481" lon="6.7384">
        <ele>342</ele>
        <time>2016-04-10T07:59:25.000Z</time>
      </trkpt>
      <trkpt lat="47.5848" lon="6.73834">
        <ele>342</ele>
        <time>2016-04-10T07:59:26.000Z</time>
      </trkpt>
      <trkpt lat="47.5848" lon="6.73828">
        <ele>341</ele>
        <time>2016-04-10T07:59:27.000Z</time>
      </trkpt>
      <trkpt lat="47.5848" lon="6.73822">
        <ele>341</ele>
        <time>2016-04-10T07:59:28.000Z</time>
      </trkpt>
      <trkpt lat="47.5848" lon="6.73816">
        <ele>341</ele>
        <time>2016-04-10T07:59:29.000Z</time>
      </trkpt>
      <trkpt lat="47.58481" lon="6.73809">
        <ele>342</ele>
        <time>2016-04-10T07:59:30.000Z</time>
      </trkpt>
      <trkpt lat="47.58482" lon="6.73803">
        <ele>342</ele>
        <time>2016-04-10T07:59:31.000Z</time>
      </trkpt>
      <trkpt lat="47.58484" lon="6.73797">
        <ele>342</ele>
        <time>2016-04-10T07:59:32.000Z</time>
      </trkpt>
      <trkpt lat="47.58485" lon="6.73791">
        <ele>342</ele>
        <time>2016-04-10T07:59:33.000Z</time>
      </trkpt>
      <trkpt lat="47.58486" lon="6.73785">
        <ele>341</ele>
        <time>2016-04-10T07:59:34.000Z</time>
      </trkpt>
      <trkpt lat="47.58486" lon="6.7378">
        <ele>341</ele>
        <time>2016-04-10T07:59:35.000Z</time>
      </trkpt>
      <trkpt lat="47.58488" lon="6.73774">
        <ele>341</ele>
        <time>2016-04-10T07:59:36.000Z</time>
      </trkpt>
      <trkpt lat="47.58489" lon="6.73768">
        <ele>340</ele>
        <time>2016-04-10T07:59:37.000Z</time>
      </trkpt>
      <trkpt lat="47.58492" lon="6.73761">
        <ele>339</ele>
        <time>2016-04-10T07:59:38.000Z</time>
      </trkpt>
      <trkpt lat="47.58494" lon="6.73754">
        <ele>338</ele>
        <time>2016-04-10T07:59:39.000Z</time>
      </trkpt>
      <trkpt lat="47.58496" lon="6.73748">
        <ele>337</ele>
        <time>2016-04-10T07:59:40.000Z</time>
      </trkpt>
      <trkpt lat="47.58498" lon="6.73741">
        <ele>337</ele>
        <time>2016-04-10T07:59:41.000Z</time>
      </trkpt>
      <trkpt lat="47.585" lon="6.73735">
        <ele>338</ele>
        <time>2016-04-10T07:59:42.000Z</time>
      </trkpt>
      <trkpt lat="47.58502" lon="6.73729">
        <ele>334</ele>
        <time>2016-04-10T07:59:43.000Z</time>
      </trkpt>
      <trkpt lat="47.58504" lon="6.73723">
        <ele>334</ele>
        <time>2016-04-10T07:59:44.000Z</time>
      </trkpt>
      <trkpt lat="47.58505" lon="6.73718">
        <ele>334</ele>
        <time>2016-04-10T07:59:45.000Z</time>
      </trkpt>
      <trkpt lat="47.58507" lon="6.73712">
        <ele>334</ele>
        <time>2016-04-10T07:59:46.000Z</time>
      </trkpt>
      <trkpt lat="47.58508" lon="6.73706">
        <ele>334</ele>
        <time>2016-04-10T07:59:47.000Z</time>
      </trkpt>
      <trkpt lat="47.58509" lon="6.73701">
        <ele>334</ele>
        <time>2016-04-10T07:59:48.000Z</time>
      </trkpt>
      <trkpt lat="47.58511" lon="6.73697">
        <ele>334</ele>
        <time>2016-04-10T07:59:49.000Z</time>
      </trkpt>
      <trkpt lat="47.58515" lon="6.73693">
        <ele>334</ele>
        <time>2016-04-10T07:59:50.000Z</time>
      </trkpt>
      <trkpt lat="47.58518" lon="6.73691">
        <ele>334</ele>
        <time>2016-04-10T07:59:51.000Z</time>
      </trkpt>
      <trkpt lat="47.58521" lon="6.73688">
        <ele>334</ele>
        <time>2016-04-10T07:59:52.000Z</time>
      </trkpt>
      <trkpt lat="47.58524" lon="6.73686">
        <ele>334</ele>
        <time>2016-04-10T07:59:53.000Z</time>
      </trkpt>
      <trkpt lat="47.58524" lon="6.73681">
        <ele>334</ele>
        <time>2016-04-10T07:59:56.000Z</time>
      </trkpt>
      <trkpt lat="47.58522" lon="6.7368">
        <ele>334</ele>
        <time>2016-04-10T07:59:57.000Z</time>
      </trkpt>
      <trkpt lat="47.58518" lon="6.7368">
        <ele>334</ele>
        <time>2016-04-10T07:59:58.000Z</time>
      </trkpt>
      <trkpt lat="47.58515" lon="6.73678">
        <ele>334</ele>
        <time>2016-04-10T07:59:59.000Z</time>
      </trkpt>
      <trkpt lat="47.58513" lon="6.73675">
        <ele>334</ele>
        <time>2016-04-10T08:00:00.000Z</time>
      </trkpt>
      <trkpt lat="47.58513" lon="6.73671">
        <ele>334</ele>
        <time>2016-04-10T08:00:01.000Z</time>
      </trkpt>
      <trkpt lat="47.58514" lon="6.73666">
        <ele>334</ele>
        <time>2016-04-10T08:00:02.000Z</time>
      </trkpt>
      <trkpt lat="47.58516" lon="6.73663">
        <ele>334</ele>
        <time>2016-04-10T08:00:03.000Z</time>
      </trkpt>
      <trkpt lat="47.58519" lon="6.73665">
        <ele>334</ele>
        <time>2016-04-10T08:00:12.000Z</time>
      </trkpt>
      <trkpt lat="47.5852" lon="6.73665">
        <ele>334</ele>
        <time>2016-04-10T08:00:13.000Z</time>
      </trkpt>
      <trkpt lat="47.58523" lon="6.73663">
        <ele>334</ele>
        <time>2016-04-10T08:00:49.000Z</time>
      </trkpt>
      <trkpt lat="47.58524" lon="6.73663">
        <ele>334</ele>
        <time>2016-04-10T08:00:50.000Z</time>
      </trkpt>
      <trkpt lat="47.5852" lon="6.73665">
        <ele>334</ele>
        <time>2016-04-10T08:05:06.000Z</time>
      </trkpt>
      <trkpt lat="47.58519" lon="6.73665">
        <ele>334</ele>
        <time>2016-04-10T08:05:07.000Z</time>
      </trkpt>
      <trkpt lat="47.5852" lon="6.7366">
        <ele>334</ele>
        <time>2016-04-10T08:06:16.000Z</time>
      </trkpt>
      <trkpt lat="47.58519" lon="6.73658">
        <ele>334</ele>
        <time>2016-04-10T08:06:17.000Z</time>
      </trkpt>
      <trkpt lat="47.58519" lon="6.73653">
        <ele>334</ele>
        <time>2016-04-10T08:06:19.000Z</time>
      </trkpt>
      <trkpt lat="47.58521" lon="6.73651">
        <ele>334</ele>
        <time>2016-04-10T08:06:20.000Z</time>
      </trkpt>
      <trkpt lat="47.58524" lon="6.73649">
        <ele>334</ele>
        <time>2016-04-10T08:06:22.000Z</time>
      </trkpt>
      <trkpt lat="47.58525" lon="6.73649">
        <ele>334</ele>
        <time>2016-04-10T08:06:23.000Z</time>
      </trkpt>
      <trkpt lat="47.58528" lon="6.73648">
        <ele>333</ele>
        <time>2016-04-10T08:06:25.000Z</time>
      </trkpt>
      <trkpt lat="47.5853" lon="6.73647">
        <ele>333</ele>
        <time>2016-04-10T08:06:26.000Z</time>
      </trkpt>
      <trkpt lat="47.58534" lon="6.73646">
        <ele>333</ele>
        <time>2016-04-10T08:06:27.000Z</time>
      </trkpt>
      <trkpt lat="47.58542" lon="6.73644">
        <ele>333</ele>
        <time>2016-04-10T08:06:28.000Z</time>
      </trkpt>
      <trkpt lat="47.58547" lon="6.73642">
        <ele>333</ele>
        <time>2016-04-10T08:06:29.000Z</time>
      </trkpt>
      <trkpt lat="47.58551" lon="6.73639">
        <ele>333</ele>
        <time>2016-04-10T08:06:30.000Z</time>
      </trkpt>
      <trkpt lat="47.58556" lon="6.73638">
        <ele>333</ele>
        <time>2016-04-10T08:06:31.000Z</time>
      </trkpt>
      <trkpt lat="47.5856" lon="6.73637">
        <ele>333</ele>
        <time>2016-04-10T08:06:32.000Z</time>
      </trkpt>
      <trkpt lat="47.58563" lon="6.73636">
        <ele>332</ele>
        <time>2016-04-10T08:06:33.000Z</time>
      </trkpt>
      <trkpt lat="47.58566" lon="6.73636">
        <ele>332</ele>
        <time>2016-04-10T08:06:34.000Z</time>
      </trkpt>
      <trkpt lat="47.58569" lon="6.73636">
        <ele>332</ele>
        <time>2016-04-10T08:06:35.000Z</time>
      </trkpt>
      <trkpt lat="47.58572" lon="6.73636">
        <ele>332</ele>
        <time>2016-04-10T08:06:36.000Z</time>
      </trkpt>
      <trkpt lat="47.58574" lon="6.73635">
        <ele>332</ele>
        <time>2016-04-10T08:06:37.000Z</time>
      </trkpt>
      <trkpt lat="47.58577" lon="6.73634">
        <ele>332</ele>
        <time>2016-04-10T08:06:38.000Z</time>
      </trkpt>
      <trkpt lat="47.58579" lon="6.73633">
        <ele>332</ele>
        <time>2016-04-10T08:06:39.000Z</time>
      </trkpt>
      <trkpt lat="47.58582" lon="6.73632">
        <ele>332</ele>
        <time>2016-04-10T08:06:40.000Z</time>
      </trkpt>
      <trkpt lat="47.58584" lon="6.73632">
        <ele>331</ele>
        <time>2016-04-10T08:06:41.000Z</time>
      </trkpt>
      <trkpt lat="47.58588" lon="6.73631">
        <ele>331</ele>
        <time>2016-04-10T08:06:42.000Z</time>
      </trkpt>
      <trkpt lat="47.58591" lon="6.73631">
        <ele>331</ele>
        <time>2016-04-10T08:06:43.000Z</time>
      </trkpt>
      <trkpt lat="47.58596" lon="6.7363">
        <ele>331</ele>
        <time>2016-04-10T08:06:44.000Z</time>
      </trkpt>
      <trkpt lat="47.586" lon="6.73629">
        <ele>331</ele>
        <time>2016-04-10T08:06:45.000Z</time>
      </trkpt>
      <trkpt lat="47.58605" lon="6.73629">
        <ele>331</ele>
        <time>2016-04-10T08:06:46.000Z</time>
      </trkpt>
      <trkpt lat="47.58609" lon="6.73628">
        <ele>331</ele>
        <time>2016-04-10T08:06:47.000Z</time>
      </trkpt>
      <trkpt lat="47.58615" lon="6.73627">
        <ele>331</ele>
        <time>2016-04-10T08:06:48.000Z</time>
      </trkpt>
      <trkpt lat="47.58619" lon="6.73626">
        <ele>331</ele>
        <time>2016-04-10T08:06:49.000Z</time>
      </trkpt>
      <trkpt lat="47.58624" lon="6.73625">
        <ele>331</ele>
        <time>2016-04-10T08:06:50.000Z</time>
      </trkpt>
      <trkpt lat="47.58629" lon="6.73624">
        <ele>331</ele>
        <time>2016-04-10T08:06:51.000Z</time>
      </trkpt>
      <trkpt lat="47.58634" lon="6.73623">
        <ele>331</ele>
        <time>2016-04-10T08:06:52.000Z</time>
      </trkpt>
      <trkpt lat="47.58639" lon="6.73623">
        <ele>331</ele>
        <time>2016-04-10T08:06:53.000Z</time>
      </trkpt>
      <trkpt lat="47.58643" lon="6.73622">
        <ele>331</ele>
        <time>2016-04-10T08:06:54.000Z</time>
      </trkpt>
      <trkpt lat="47.58648" lon="6.7362">
        <ele>331</ele>
        <time>2016-04-10T08:06:55.000Z</time>
      </trkpt>
      <trkpt lat="47.58653" lon="6.73618">
        <ele>331</ele>
        <time>2016-04-10T08:06:56.000Z</time>
      </trkpt>
      <trkpt lat="47.58657" lon="6.73617">
        <ele>331</ele>
        <time>2016-04-10T08:06:57.000Z</time>
      </trkpt>
      <trkpt lat="47.58662" lon="6.73616">
        <ele>331</ele>
        <time>2016-04-10T08:06:58.000Z</time>
      </trkpt>
      <trkpt lat="47.58666" lon="6.73615">
        <ele>331</ele>
        <time>2016-04-10T08:06:59.000Z</time>
      </trkpt>
      <trkpt lat="47.58671" lon="6.73613">
        <ele>331</ele>
        <time>2016-04-10T08:07:00.000Z</time>
      </trkpt>
      <trkpt lat="47.58675" lon="6.73612">
        <ele>331</ele>
        <time>2016-04-10T08:07:01.000Z</time>
      </trkpt>
      <trkpt lat="47.5868" lon="6.73611">
        <ele>331</ele>
        <time>2016-04-10T08:07:02.000Z</time>
      </trkpt>
      <trkpt lat="47.58685" lon="6.73611">
        <ele>331</ele>
        <time>2016-04-10T08:07:03.000Z</time>
      </trkpt>
      <trkpt lat="47.58689" lon="6.73611">
        <ele>331</ele>
        <time>2016-04-10T08:07:04.000Z</time>
      </trkpt>
      <trkpt lat="47.58694" lon="6.73611">
        <ele>331</ele>
        <time>2016-04-10T08:07:05.000Z</time>
      </trkpt>
      <trkpt lat="47.58698" lon="6.73613">
        <ele>331</ele>
        <time>2016-04-10T08:07:06.000Z</time>
      </trkpt>
      <trkpt lat="47.58701" lon="6.73618">
        <ele>331</ele>
        <time>2016-04-10T08:07:07.000Z</time>
      </trkpt>
      <trkpt lat="47.58702" lon="6.73624">
        <ele>331</ele>
        <time>2016-04-10T08:07:08.000Z</time>
      </trkpt>
      <trkpt lat="47.587" lon="6.73631">
        <ele>331</ele>
        <time>2016-04-10T08:07:09.000Z</time>
      </trkpt>
      <trkpt lat="47.58698" lon="6.73637">
        <ele>331</ele>
        <time>2016-04-10T08:07:10.000Z</time>
      </trkpt>
      <trkpt lat="47.58694" lon="6.73643">
        <ele>331</ele>
        <time>2016-04-10T08:07:11.000Z</time>
      </trkpt>
      <trkpt lat="47.58691" lon="6.73649">
        <ele>331</ele>
        <time>2016-04-10T08:07:12.000Z</time>
      </trkpt>
      <trkpt lat="47.58687" lon="6.73656">
        <ele>331</ele>
        <time>2016-04-10T08:07:13.000Z</time>
      </trkpt>
      <trkpt lat="47.58684" lon="6.73662">
        <ele>331</ele>
        <time>2016-04-10T08:07:14.000Z</time>
      </trkpt>
      <trkpt lat="47.58681" lon="6.73668">
        <ele>331</ele>
        <time>2016-04-10T08:07:15.000Z</time>
      </trkpt>
      <trkpt lat="47.58677" lon="6.73674">
        <ele>331</ele>
        <time>2016-04-10T08:07:16.000Z</time>
      </trkpt>
      <trkpt lat="47.58674" lon="6.7368">
        <ele>331</ele>
        <time>2016-04-10T08:07:17.000Z</time>
      </trkpt>
      <trkpt lat="47.58671" lon="6.73687">
        <ele>331</ele>
        <time>2016-04-10T08:07:18.000Z</time>
      </trkpt>
      <trkpt lat="47.58668" lon="6.73693">
        <ele>331</ele>
        <time>2016-04-10T08:07:19.000Z</time>
      </trkpt>
      <trkpt lat="47.58664" lon="6.73698">
        <ele>331</ele>
        <time>2016-04-10T08:07:20.000Z</time>
      </trkpt>
      <trkpt lat="47.58662" lon="6.73705">
        <ele>331</ele>
        <time>2016-04-10T08:07:21.000Z</time>
      </trkpt>
      <trkpt lat="47.58659" lon="6.73711">
        <ele>331</ele>
        <time>2016-04-10T08:07:22.000Z</time>
      </trkpt>
      <trkpt lat="47.58656" lon="6.73718">
        <ele>331</ele>
        <time>2016-04-10T08:07:23.000Z</time>
      </trkpt>
      <trkpt lat="47.58654" lon="6.73725">
        <ele>331</ele>
        <time>2016-04-10T08:07:24.000Z</time>
      </trkpt>
      <trkpt lat="47.58652" lon="6.73732">
        <ele>330</ele>
        <time>2016-04-10T08:07:25.000Z</time>
      </trkpt>
      <trkpt lat="47.5865" lon="6.73738">
        <ele>330</ele>
        <time>2016-04-10T08:07:26.000Z</time>
      </trkpt>
      <trkpt lat="47.58649" lon="6.73744">
        <ele>330</ele>
        <time>2016-04-10T08:07:27.000Z</time>
      </trkpt>
      <trkpt lat="47.58648" lon="6.7375">
        <ele>330</ele>
        <time>2016-04-10T08:07:28.000Z</time>
      </trkpt>
      <trkpt lat="47.58646" lon="6.73755">
        <ele>330</ele>
        <time>2016-04-10T08:07:29.000Z</time>
      </trkpt>
      <trkpt lat="47.58645" lon="6.73761">
        <ele>330</ele>
        <time>2016-04-10T08:07:30.000Z</time>
      </trkpt>
      <trkpt lat="47.58644" lon="6.73766">
        <ele>330</ele>
        <time>2016-04-10T08:07:31.000Z</time>
      </trkpt>
      <trkpt lat="47.58642" lon="6.73772">
        <ele>330</ele>
        <time>2016-04-10T08:07:32.000Z</time>
      </trkpt>
      <trkpt lat="47.5864" lon="6.73777">
        <ele>330</ele>
        <time>2016-04-10T08:07:33.000Z</time>
      </trkpt>
      <trkpt lat="47.58639" lon="6.73782">
        <ele>330</ele>
        <time>2016-04-10T08:07:34.000Z</time>
      </trkpt>
      <trkpt lat="47.58637" lon="6.73788">
        <ele>329</ele>
        <time>2016-04-10T08:07:35.000Z</time>
      </trkpt>
      <trkpt lat="47.58636" lon="6.73794">
        <ele>329</ele>
        <time>2016-04-10T08:07:36.000Z</time>
      </trkpt>
      <trkpt lat="47.58634" lon="6.73799">
        <ele>329</ele>
        <time>2016-04-10T08:07:37.000Z</time>
      </trkpt>
      <trkpt lat="47.58632" lon="6.73804">
        <ele>329</ele>
        <time>2016-04-10T08:07:38.000Z</time>
      </trkpt>
      <trkpt lat="47.5863" lon="6.7381">
        <ele>329</ele>
        <time>2016-04-10T08:07:39.000Z</time>
      </trkpt>
      <trkpt lat="47.58629" lon="6.73815">
        <ele>329</ele>
        <time>2016-04-10T08:07:40.000Z</time>
      </trkpt>
      <trkpt lat="47.58627" lon="6.7382">
        <ele>329</ele>
        <time>2016-04-10T08:07:41.000Z</time>
      </trkpt>
      <trkpt lat="47.58626" lon="6.73825">
        <ele>329</ele>
        <time>2016-04-10T08:07:42.000Z</time>
      </trkpt>
      <trkpt lat="47.58624" lon="6.7383">
        <ele>329</ele>
        <time>2016-04-10T08:07:43.000Z</time>
      </trkpt>
      <trkpt lat="47.58623" lon="6.73835">
        <ele>329</ele>
        <time>2016-04-10T08:07:44.000Z</time>
      </trkpt>
      <trkpt lat="47.58622" lon="6.7384">
        <ele>329</ele>
        <time>2016-04-10T08:07:45.000Z</time>
      </trkpt>
      <trkpt lat="47.5862" lon="6.73845">
        <ele>329</ele>
        <time>2016-04-10T08:07:46.000Z</time>
      </trkpt>
      <trkpt lat="47.58619" lon="6.7385">
        <ele>329</ele>
        <time>2016-04-10T08:07:47.000Z</time>
      </trkpt>
      <trkpt lat="47.58618" lon="6.73855">
        <ele>329</ele>
        <time>2016-04-10T08:07:48.000Z</time>
      </trkpt>
      <trkpt lat="47.58617" lon="6.7386">
        <ele>329</ele>
        <time>2016-04-10T08:07:49.000Z</time>
      </trkpt>
      <trkpt lat="47.58616" lon="6.73865">
        <ele>329</ele>
        <time>2016-04-10T08:07:50.000Z</time>
      </trkpt>
      <trkpt lat="47.58615" lon="6.7387">
        <ele>329</ele>
        <time>2016-04-10T08:07:51.000Z</time>
      </trkpt>
      <trkpt lat="47.58614" lon="6.73875">
        <ele>329</ele>
        <time>2016-04-10T08:07:52.000Z</time>
      </trkpt>
      <trkpt lat="47.58613" lon="6.7388">
        <ele>329</ele>
        <time>2016-04-10T08:07:53.000Z</time>
      </trkpt>
      <trkpt lat="47.58612" lon="6.73885">
        <ele>329</ele>
        <time>2016-04-10T08:07:54.000Z</time>
      </trkpt>
      <trkpt lat="47.5861" lon="6.7389">
        <ele>329</ele>
        <time>2016-04-10T08:07:55.000Z</time>
      </trkpt>
      <trkpt lat="47.58609" lon="6.73894">
        <ele>329</ele>
        <time>2016-04-10T08:07:56.000Z</time>
      </trkpt>
      <trkpt lat="47.58608" lon="6.73898">
        <ele>329</ele>
        <time>2016-04-10T08:07:57.000Z</time>
      </trkpt>
      <trkpt lat="47.58607" lon="6.73902">
        <ele>329</ele>
        <time>2016-04-10T08:07:58.000Z</time>
      </trkpt>
      <trkpt lat="47.58605" lon="6.73907">
        <ele>329</ele>
        <time>2016-04-10T08:07:59.000Z</time>
      </trkpt>
      <trkpt lat="47.58604" lon="6.73912">
        <ele>329</ele>
        <time>2016-04-10T08:08:00.000Z</time>
      </trkpt>
      <trkpt lat="47.58602" lon="6.73917">
        <ele>329</ele>
        <time>2016-04-10T08:08:01.000Z</time>
      </trkpt>
      <trkpt lat="47.586" lon="6.73922">
        <ele>329</ele>
        <time>2016-04-10T08:08:02.000Z</time>
      </trkpt>
      <trkpt lat="47.58598" lon="6.73927">
        <ele>329</ele>
        <time>2016-04-10T08:08:03.000Z</time>
      </trkpt>
      <trkpt lat="47.58596" lon="6.73932">
        <ele>329</ele>
        <time>2016-04-10T08:08:04.000Z</time>
      </trkpt>
      <trkpt lat="47.58594" lon="6.73938">
        <ele>329</ele>
        <time>2016-04-10T08:08:05.000Z</time>
      </trkpt>
      <trkpt lat="47.58593" lon="6.73943">
        <ele>329</ele>
        <time>2016-04-10T08:08:06.000Z</time>
      </trkpt>
      <trkpt lat="47.58591" lon="6.73948">
        <ele>329</ele>
        <time>2016-04-10T08:08:07.000Z</time>
      </trkpt>
      <trkpt lat="47.58589" lon="6.73953">
        <ele>329</ele>
        <time>2016-04-10T08:08:08.000Z</time>
      </trkpt>
      <trkpt lat="47.58587" lon="6.73958">
        <ele>329</ele>
        <time>2016-04-10T08:08:09.000Z</time>
      </trkpt>
      <trkpt lat="47.58585" lon="6.73963">
        <ele>329</ele>
        <time>2016-04-10T08:08:10.000Z</time>
      </trkpt>
      <trkpt lat="47.58583" lon="6.73968">
        <ele>331</ele>
        <time>2016-04-10T08:08:11.000Z</time>
      </trkpt>
      <trkpt lat="47.58581" lon="6.73972">
        <ele>331</ele>
        <time>2016-04-10T08:08:12.000Z</time>
      </trkpt>
      <trkpt lat="47.58579" lon="6.73977">
        <ele>331</ele>
        <time>2016-04-10T08:08:13.000Z</time>
      </trkpt>
      <trkpt lat="47.58577" lon="6.73981">
        <ele>331</ele>
        <time>2016-04-10T08:08:14.000Z</time>
      </trkpt>
      <trkpt lat="47.58575" lon="6.73985">
        <ele>331</ele>
        <time>2016-04-10T08:08:15.000Z</time>
      </trkpt>
      <trkpt lat="47.58573" lon="6.7399">
        <ele>330</ele>
        <time>2016-04-10T08:08:16.000Z</time>
      </trkpt>
      <trkpt lat="47.58572" lon="6.73995">
        <ele>330</ele>
        <time>2016-04-10T08:08:17.000Z</time>
      </trkpt>
      <trkpt lat="47.5857" lon="6.74">
        <ele>330</ele>
        <time>2016-04-10T08:08:18.000Z</time>
      </trkpt>
      <trkpt lat="47.58568" lon="6.74005">
        <ele>330</ele>
        <time>2016-04-10T08:08:19.000Z</time>
      </trkpt>
      <trkpt lat="47.58566" lon="6.74009">
        <ele>330</ele>
        <time>2016-04-10T08:08:20.000Z</time>
      </trkpt>
      <trkpt lat="47.58564" lon="6.74013">
        <ele>330</ele>
        <time>2016-04-10T08:08:21.000Z</time>
      </trkpt>
      <trkpt lat="47.58562" lon="6.74016">
        <ele>330</ele>
        <time>2016-04-10T08:08:22.000Z</time>
      </trkpt>
      <trkpt lat="47.5856" lon="6.74018">
        <ele>330</ele>
        <time>2016-04-10T08:08:34.000Z</time>
      </trkpt>
      <trkpt lat="47.58558" lon="6.74018">
        <ele>330</ele>
        <time>2016-04-10T08:08:35.000Z</time>
      </trkpt>
      <trkpt lat="47.58555" lon="6.74017">
        <ele>331</ele>
        <time>2016-04-10T08:08:36.000Z</time>
      </trkpt>
      <trkpt lat="47.58553" lon="6.74014">
        <ele>331</ele>
        <time>2016-04-10T08:08:37.000Z</time>
      </trkpt>
      <trkpt lat="47.58551" lon="6.7401">
        <ele>331</ele>
        <time>2016-04-10T08:08:38.000Z</time>
      </trkpt>
      <trkpt lat="47.5855" lon="6.74005">
        <ele>331</ele>
        <time>2016-04-10T08:08:39.000Z</time>
      </trkpt>
      <trkpt lat="47.58551" lon="6.73998">
        <ele>332</ele>
        <time>2016-04-10T08:08:40.000Z</time>
      </trkpt>
      <trkpt lat="47.58553" lon="6.73992">
        <ele>332</ele>
        <time>2016-04-10T08:08:41.000Z</time>
      </trkpt>
      <trkpt lat="47.58556" lon="6.73986">
        <ele>331</ele>
        <time>2016-04-10T08:08:42.000Z</time>
      </trkpt>
      <trkpt lat="47.58559" lon="6.7398">
        <ele>331</ele>
        <time>2016-04-10T08:08:43.000Z</time>
      </trkpt>
      <trkpt lat="47.58562" lon="6.73974">
        <ele>331</ele>
        <time>2016-04-10T08:08:44.000Z</time>
      </trkpt>
      <trkpt lat="47.58565" lon="6.73968">
        <ele>331</ele>
        <time>2016-04-10T08:08:45.000Z</time>
      </trkpt>
      <trkpt lat="47.58568" lon="6.73962">
        <ele>331</ele>
        <time>2016-04-10T08:08:46.000Z</time>
      </trkpt>
      <trkpt lat="47.58571" lon="6.73957">
        <ele>331</ele>
        <time>2016-04-10T08:08:47.000Z</time>
      </trkpt>
      <trkpt lat="47.58576" lon="6.7395">
        <ele>331</ele>
        <time>2016-04-10T08:08:48.000Z</time>
      </trkpt>
      <trkpt lat="47.5858" lon="6.73946">
        <ele>331</ele>
        <time>2016-04-10T08:08:49.000Z</time>
      </trkpt>
      <trkpt lat="47.58584" lon="6.73943">
        <ele>329</ele>
        <time>2016-04-10T08:08:50.000Z</time>
      </trkpt>
      <trkpt lat="47.58588" lon="6.7394">
        <ele>329</ele>
        <time>2016-04-10T08:08:51.000Z</time>
      </trkpt>
      <trkpt lat="47.58593" lon="6.7394">
        <ele>329</ele>
        <time>2016-04-10T08:08:52.000Z</time>
      </trkpt>
      <trkpt lat="47.58597" lon="6.73939">
        <ele>329</ele>
        <time>2016-04-10T08:08:53.000Z</time>
      </trkpt>
      <trkpt lat="47.58601" lon="6.73939">
        <ele>329</ele>
        <time>2016-04-10T08:08:54.000Z</time>
      </trkpt>
      <trkpt lat="47.58605" lon="6.73939">
        <ele>329</ele>
        <time>2016-04-10T08:08:55.000Z</time>
      </trkpt>
      <trkpt lat="47.58609" lon="6.73939">
        <ele>329</ele>
        <time>2016-04-10T08:08:56.000Z</time>
      </trkpt>
      <trkpt lat="47.58612" lon="6.73939">
        <ele>329</ele>
        <time>2016-04-10T08:08:57.000Z</time>
      </trkpt>
      <trkpt lat="47.58616" lon="6.73941">
        <ele>329</ele>
        <time>2016-04-10T08:08:58.000Z</time>
      </trkpt>
      <trkpt lat="47.5862" lon="6.73943">
        <ele>329</ele>
        <time>2016-04-10T08:08:59.000Z</time>
      </trkpt>
      <trkpt lat="47.58622" lon="6.73954">
        <ele>329</ele>
        <time>2016-04-10T08:09:00.000Z</time>
      </trkpt>
      <trkpt lat="47.58623" lon="6.73959">
        <ele>329</ele>
        <time>2016-04-10T08:09:01.000Z</time>
      </trkpt>
      <trkpt lat="47.58626" lon="6.73963">
        <ele>329</ele>
        <time>2016-04-10T08:09:02.000Z</time>
      </trkpt>
      <trkpt lat="47.58627" lon="6.73969">
        <ele>329</ele>
        <time>2016-04-10T08:09:03.000Z</time>
      </trkpt>
      <trkpt lat="47.58628" lon="6.73976">
        <ele>329</ele>
        <time>2016-04-10T08:09:04.000Z</time>
      </trkpt>
      <trkpt lat="47.58629" lon="6.73982">
        <ele>329</ele>
        <time>2016-04-10T08:09:05.000Z</time>
      </trkpt>
      <trkpt lat="47.58629" lon="6.73989">
        <ele>329</ele>
        <time>2016-04-10T08:09:06.000Z</time>
      </trkpt>
      <trkpt lat="47.5863" lon="6.73995">
        <ele>329</ele>
        <time>2016-04-10T08:09:07.000Z</time>
      </trkpt>
      <trkpt lat="47.5863" lon="6.74002">
        <ele>329</ele>
        <time>2016-04-10T08:09:08.000Z</time>
      </trkpt>
      <trkpt lat="47.58631" lon="6.74008">
        <ele>329</ele>
        <time>2016-04-10T08:09:09.000Z</time>
      </trkpt>
      <trkpt lat="47.58632" lon="6.74014">
        <ele>329</ele>
        <time>2016-04-10T08:09:10.000Z</time>
      </trkpt>
      <trkpt lat="47.58633" lon="6.7402">
        <ele>329</ele>
        <time>2016-04-10T08:09:11.000Z</time>
      </trkpt>
      <trkpt lat="47.58633" lon="6.74026">
        <ele>329</ele>
        <time>2016-04-10T08:09:12.000Z</time>
      </trkpt>
      <trkpt lat="47.58633" lon="6.74033">
        <ele>329</ele>
        <time>2016-04-10T08:09:13.000Z</time>
      </trkpt>
      <trkpt lat="47.58633" lon="6.7404">
        <ele>329</ele>
        <time>2016-04-10T08:09:14.000Z</time>
      </trkpt>
      <trkpt lat="47.58632" lon="6.74046">
        <ele>329</ele>
        <time>2016-04-10T08:09:15.000Z</time>
      </trkpt>
      <trkpt lat="47.5863" lon="6.74052">
        <ele>329</ele>
        <time>2016-04-10T08:09:16.000Z</time>
      </trkpt>
      <trkpt lat="47.58629" lon="6.74058">
        <ele>329</ele>
        <time>2016-04-10T08:09:17.000Z</time>
      </trkpt>
      <trkpt lat="47.58628" lon="6.74065">
        <ele>329</ele>
        <time>2016-04-10T08:09:18.000Z</time>
      </trkpt>
      <trkpt lat="47.58627" lon="6.74071">
        <ele>329</ele>
        <time>2016-04-10T08:09:19.000Z</time>
      </trkpt>
      <trkpt lat="47.58626" lon="6.74077">
        <ele>329</ele>
        <time>2016-04-10T08:09:20.000Z</time>
      </trkpt>
      <trkpt lat="47.58624" lon="6.74083">
        <ele>329</ele>
        <time>2016-04-10T08:09:21.000Z</time>
      </trkpt>
      <trkpt lat="47.58623" lon="6.74089">
        <ele>329</ele>
        <time>2016-04-10T08:09:22.000Z</time>
      </trkpt>
      <trkpt lat="47.58621" lon="6.74096">
        <ele>329</ele>
        <time>2016-04-10T08:09:23.000Z</time>
      </trkpt>
      <trkpt lat="47.5862" lon="6.74102">
        <ele>329</ele>
        <time>2016-04-10T08:09:24.000Z</time>
      </trkpt>
      <trkpt lat="47.58618" lon="6.74109">
        <ele>329</ele>
        <time>2016-04-10T08:09:25.000Z</time>
      </trkpt>
      <trkpt lat="47.58616" lon="6.74116">
        <ele>329</ele>
        <time>2016-04-10T08:09:26.000Z</time>
      </trkpt>
      <trkpt lat="47.58614" lon="6.74122">
        <ele>329</ele>
        <time>2016-04-10T08:09:27.000Z</time>
      </trkpt>
      <trkpt lat="47.58612" lon="6.74129">
        <ele>329</ele>
        <time>2016-04-10T08:09:28.000Z</time>
      </trkpt>
      <trkpt lat="47.58608" lon="6.74135">
        <ele>329</ele>
        <time>2016-04-10T08:09:29.000Z</time>
      </trkpt>
      <trkpt lat="47.58606" lon="6.74142">
        <ele>329</ele>
        <time>2016-04-10T08:09:30.000Z</time>
      </trkpt>
      <trkpt lat="47.58603" lon="6.74148">
        <ele>329</ele>
        <time>2016-04-10T08:09:31.000Z</time>
      </trkpt>
      <trkpt lat="47.586" lon="6.74155">
        <ele>329</ele>
        <time>2016-04-10T08:09:32.000Z</time>
      </trkpt>
      <trkpt lat="47.58597" lon="6.74161">
        <ele>329</ele>
        <time>2016-04-10T08:09:33.000Z</time>
      </trkpt>
      <trkpt lat="47.58594" lon="6.74168">
        <ele>329</ele>
        <time>2016-04-10T08:09:34.000Z</time>
      </trkpt>
      <trkpt lat="47.58591" lon="6.74174">
        <ele>329</ele>
        <time>2016-04-10T08:09:35.000Z</time>
      </trkpt>
      <trkpt lat="47.58588" lon="6.74181">
        <ele>329</ele>
        <time>2016-04-10T08:09:36.000Z</time>
      </trkpt>
      <trkpt lat="47.58585" lon="6.74187">
        <ele>330</ele>
        <time>2016-04-10T08:09:37.000Z</time>
      </trkpt>
      <trkpt lat="47.58582" lon="6.74194">
        <ele>330</ele>
        <time>2016-04-10T08:09:38.000Z</time>
      </trkpt>
      <trkpt lat="47.58581" lon="6.74202">
        <ele>330</ele>
        <time>2016-04-10T08:09:39.000Z</time>
      </trkpt>
      <trkpt lat="47.5858" lon="6.7421">
        <ele>330</ele>
        <time>2016-04-10T08:09:40.000Z</time>
      </trkpt>
      <trkpt lat="47.58579" lon="6.74218">
        <ele>330</ele>
        <time>2016-04-10T08:09:41.000Z</time>
      </trkpt>
      <trkpt lat="47.58578" lon="6.74226">
        <ele>330</ele>
        <time>2016-04-10T08:09:42.000Z</time>
      </trkpt>
      <trkpt lat="47.58576" lon="6.74233">
        <ele>330</ele>
        <time>2016-04-10T08:09:43.000Z</time>
      </trkpt>
      <trkpt lat="47.58575" lon="6.74241">
        <ele>330</ele>
        <time>2016-04-10T08:09:44.000Z</time>
      </trkpt>
      <trkpt lat="47.58574" lon="6.74249">
        <ele>330</ele>
        <time>2016-04-10T08:09:45.000Z</time>
      </trkpt>
      <trkpt lat="47.58572" lon="6.74256">
        <ele>331</ele>
        <time>2016-04-10T08:09:46.000Z</time>
      </trkpt>
      <trkpt lat="47.5857" lon="6.74264">
        <ele>332</ele>
        <time>2016-04-10T08:09:47.000Z</time>
      </trkpt>
      <trkpt lat="47.58568" lon="6.74271">
        <ele>333</ele>
        <time>2016-04-10T08:09:48.000Z</time>
      </trkpt>
      <trkpt lat="47.58566" lon="6.74277">
        <ele>333</ele>
        <time>2016-04-10T08:09:49.000Z</time>
      </trkpt>
      <trkpt lat="47.58565" lon="6.74283">
        <ele>334</ele>
        <time>2016-04-10T08:09:50.000Z</time>
      </trkpt>
      <trkpt lat="47.58564" lon="6.74289">
        <ele>334</ele>
        <time>2016-04-10T08:09:51.000Z</time>
      </trkpt>
      <trkpt lat="47.58563" lon="6.74294">
        <ele>334</ele>
        <time>2016-04-10T08:09:52.000Z</time>
      </trkpt>
      <trkpt lat="47.58562" lon="6.74299">
        <ele>335</ele>
        <time>2016-04-10T08:09:53.000Z</time>
      </trkpt>
      <trkpt lat="47.58561" lon="6.74304">
        <ele>335</ele>
        <time>2016-04-10T08:09:54.000Z</time>
      </trkpt>
      <trkpt lat="47.58559" lon="6.74308">
        <ele>335</ele>
        <time>2016-04-10T08:09:55.000Z</time>
      </trkpt>
      <trkpt lat="47.58558" lon="6.74312">
        <ele>335</ele>
        <time>2016-04-10T08:09:56.000Z</time>
      </trkpt>
      <trkpt lat="47.58557" lon="6.74317">
        <ele>335</ele>
        <time>2016-04-10T08:09:57.000Z</time>
      </trkpt>
      <trkpt lat="47.58557" lon="6.74321">
        <ele>335</ele>
        <time>2016-04-10T08:09:58.000Z</time>
      </trkpt>
      <trkpt lat="47.58555" lon="6.74326">
        <ele>336</ele>
        <time>2016-04-10T08:09:59.000Z</time>
      </trkpt>
      <trkpt lat="47.58554" lon="6.7433">
        <ele>336</ele>
        <time>2016-04-10T08:10:00.000Z</time>
      </trkpt>
      <trkpt lat="47.58554" lon="6.74334">
        <ele>340</ele>
        <time>2016-04-10T08:10:01.000Z</time>
      </trkpt>
      <trkpt lat="47.58553" lon="6.74339">
        <ele>340</ele>
        <time>2016-04-10T08:10:02.000Z</time>
      </trkpt>
      <trkpt lat="47.58552" lon="6.74343">
        <ele>340</ele>
        <time>2016-04-10T08:10:03.000Z</time>
      </trkpt>
      <trkpt lat="47.58551" lon="6.74347">
        <ele>340</ele>
        <time>2016-04-10T08:10:04.000Z</time>
      </trkpt>
      <trkpt lat="47.5855" lon="6.74352">
        <ele>341</ele>
        <time>2016-04-10T08:10:05.000Z</time>
      </trkpt>
      <trkpt lat="47.58549" lon="6.74356">
        <ele>341</ele>
        <time>2016-04-10T08:10:06.000Z</time>
      </trkpt>
      <trkpt lat="47.58549" lon="6.7436">
        <ele>341</ele>
        <time>2016-04-10T08:10:07.000Z</time>
      </trkpt>
      <trkpt lat="47.58548" lon="6.74364">
        <ele>341</ele>
        <time>2016-04-10T08:10:08.000Z</time>
      </trkpt>
      <trkpt lat="47.58548" lon="6.74368">
        <ele>341</ele>
        <time>2016-04-10T08:10:09.000Z</time>
      </trkpt>
      <trkpt lat="47.58547" lon="6.74371">
        <ele>342</ele>
        <time>2016-04-10T08:10:10.000Z</time>
      </trkpt>
      <trkpt lat="47.58546" lon="6.74375">
        <ele>342</ele>
        <time>2016-04-10T08:10:11.000Z</time>
      </trkpt>
      <trkpt lat="47.58545" lon="6.74378">
        <ele>342</ele>
        <time>2016-04-10T08:10:12.000Z</time>
      </trkpt>
      <trkpt lat="47.58545" lon="6.74382">
        <ele>342</ele>
        <time>2016-04-10T08:10:13.000Z</time>
      </trkpt>
      <trkpt lat="47.58544" lon="6.74385">
        <ele>342</ele>
        <time>2016-04-10T08:10:14.000Z</time>
      </trkpt>
      <trkpt lat="47.58543" lon="6.74389">
        <ele>342</ele>
        <time>2016-04-10T08:10:15.000Z</time>
      </trkpt>
      <trkpt lat="47.58542" lon="6.74395">
        <ele>343</ele>
        <time>2016-04-10T08:10:17.000Z</time>
      </trkpt>
      <trkpt lat="47.58542" lon="6.74398">
        <ele>343</ele>
        <time>2016-04-10T08:10:18.000Z</time>
      </trkpt>
      <trkpt lat="47.58541" lon="6.74405">
        <ele>343</ele>
        <time>2016-04-10T08:10:20.000Z</time>
      </trkpt>
      <trkpt lat="47.5854" lon="6.74408">
        <ele>343</ele>
        <time>2016-04-10T08:10:21.000Z</time>
      </trkpt>
      <trkpt lat="47.5854" lon="6.74411">
        <ele>343</ele>
        <time>2016-04-10T08:10:22.000Z</time>
      </trkpt>
      <trkpt lat="47.5854" lon="6.74415">
        <ele>343</ele>
        <time>2016-04-10T08:10:23.000Z</time>
      </trkpt>
      <trkpt lat="47.58539" lon="6.74418">
        <ele>347</ele>
        <time>2016-04-10T08:10:24.000Z</time>
      </trkpt>
      <trkpt lat="47.58539" lon="6.74422">
        <ele>347</ele>
        <time>2016-04-10T08:10:25.000Z</time>
      </trkpt>
      <trkpt lat="47.58538" lon="6.74425">
        <ele>347</ele>
        <time>2016-04-10T08:10:26.000Z</time>
      </trkpt>
      <trkpt lat="47.58538" lon="6.74429">
        <ele>347</ele>
        <time>2016-04-10T08:10:27.000Z</time>
      </trkpt>
      <trkpt lat="47.58538" lon="6.74432">
        <ele>347</ele>
        <time>2016-04-10T08:10:28.000Z</time>
      </trkpt>
      <trkpt lat="47.58538" lon="6.74436">
        <ele>347</ele>
        <time>2016-04-10T08:10:29.000Z</time>
      </trkpt>
      <trkpt lat="47.58537" lon="6.7444">
        <ele>347</ele>
        <time>2016-04-10T08:10:30.000Z</time>
      </trkpt>
      <trkpt lat="47.58537" lon="6.74443">
        <ele>347</ele>
        <time>2016-04-10T08:10:31.000Z</time>
      </trkpt>
      <trkpt lat="47.58537" lon="6.74447">
        <ele>348</ele>
        <time>2016-04-10T08:10:32.000Z</time>
      </trkpt>
      <trkpt lat="47.58536" lon="6.7445">
        <ele>348</ele>
        <time>2016-04-10T08:10:33.000Z</time>
      </trkpt>
      <trkpt lat="47.58536" lon="6.74453">
        <ele>348</ele>
        <time>2016-04-10T08:10:34.000Z</time>
      </trkpt>
      <trkpt lat="47.58535" lon="6.74457">
        <ele>348</ele>
        <time>2016-04-10T08:10:35.000Z</time>
      </trkpt>
      <trkpt lat="47.58534" lon="6.7446">
        <ele>348</ele>
        <time>2016-04-10T08:10:36.000Z</time>
      </trkpt>
      <trkpt lat="47.58534" lon="6.74464">
        <ele>348</ele>
        <time>2016-04-10T08:10:37.000Z</time>
      </trkpt>
      <trkpt lat="47.58533" lon="6.74467">
        <ele>348</ele>
        <time>2016-04-10T08:10:38.000Z</time>
      </trkpt>
      <trkpt lat="47.58533" lon="6.74471">
        <ele>348</ele>
        <time>2016-04-10T08:10:39.000Z</time>
      </trkpt>
      <trkpt lat="47.58533" lon="6.74474">
        <ele>349</ele>
        <time>2016-04-10T08:10:40.000Z</time>
      </trkpt>
      <trkpt lat="47.58533" lon="6.74478">
        <ele>349</ele>
        <time>2016-04-10T08:10:41.000Z</time>
      </trkpt>
      <trkpt lat="47.58533" lon="6.74482">
        <ele>349</ele>
        <time>2016-04-10T08:10:42.000Z</time>
      </trkpt>
      <trkpt lat="47.58533" lon="6.74485">
        <ele>349</ele>
        <time>2016-04-10T08:10:43.000Z</time>
      </trkpt>
      <trkpt lat="47.58533" lon="6.74488">
        <ele>349</ele>
        <time>2016-04-10T08:10:44.000Z</time>
      </trkpt>
      <trkpt lat="47.58533" lon="6.74492">
        <ele>349</ele>
        <time>2016-04-10T08:10:45.000Z</time>
      </trkpt>
      <trkpt lat="47.58532" lon="6.74495">
        <ele>349</ele>
        <time>2016-04-10T08:10:46.000Z</time>
      </trkpt>
      <trkpt lat="47.58532" lon="6.74499">
        <ele>349</ele>
        <time>2016-04-10T08:10:47.000Z</time>
      </trkpt>
      <trkpt lat="47.58532" lon="6.74502">
        <ele>352</ele>
        <time>2016-04-10T08:10:48.000Z</time>
      </trkpt>
      <trkpt lat="47.58532" lon="6.74506">
        <ele>352</ele>
        <time>2016-04-10T08:10:49.000Z</time>
      </trkpt>
      <trkpt lat="47.58532" lon="6.74509">
        <ele>352</ele>
        <time>2016-04-10T08:10:50.000Z</time>
      </trkpt>
      <trkpt lat="47.58532" lon="6.74512">
        <ele>352</ele>
        <time>2016-04-10T08:10:51.000Z</time>
      </trkpt>
      <trkpt lat="47.58531" lon="6.74516">
        <ele>352</ele>
        <time>2016-04-10T08:10:52.000Z</time>
      </trkpt>
      <trkpt lat="47.58531" lon="6.74519">
        <ele>352</ele>
        <time>2016-04-10T08:10:53.000Z</time>
      </trkpt>
      <trkpt lat="47.58531" lon="6.74522">
        <ele>353</ele>
        <time>2016-04-10T08:10:54.000Z</time>
      </trkpt>
      <trkpt lat="47.58531" lon="6.74526">
        <ele>353</ele>
        <time>2016-04-10T08:10:54.998Z</time>
      </trkpt>
      <trkpt lat="47.58532" lon="6.74529">
        <ele>353</ele>
        <time>2016-04-10T08:10:56.000Z</time>
      </trkpt>
      <trkpt lat="47.58532" lon="6.74533">
        <ele>353</ele>
        <time>2016-04-10T08:10:57.000Z</time>
      </trkpt>
      <trkpt lat="47.58532" lon="6.74537">
        <ele>353</ele>
        <time>2016-04-10T08:10:58.000Z</time>
      </trkpt>
      <trkpt lat="47.58533" lon="6.74541">
        <ele>353</ele>
        <time>2016-04-10T08:10:59.000Z</time>
      </trkpt>
      <trkpt lat="47.58533" lon="6.74545">
        <ele>353</ele>
        <time>2016-04-10T08:11:00.000Z</time>
      </trkpt>
      <trkpt lat="47.58534" lon="6.74549">
        <ele>353</ele>
        <time>2016-04-10T08:11:01.000Z</time>
      </trkpt>
      <trkpt lat="47.58533" lon="6.74553">
        <ele>353</ele>
        <time>2016-04-10T08:11:02.000Z</time>
      </trkpt>
      <trkpt lat="47.58533" lon="6.74556">
        <ele>353</ele>
        <time>2016-04-10T08:11:03.000Z</time>
      </trkpt>
      <trkpt lat="47.58532" lon="6.74562">
        <ele>353</ele>
        <time>2016-04-10T08:11:05.000Z</time>
      </trkpt>
      <trkpt lat="47.58532" lon="6.74565">
        <ele>353</ele>
        <time>2016-04-10T08:11:06.000Z</time>
      </trkpt>
      <trkpt lat="47.58532" lon="6.74572">
        <ele>354</ele>
        <time>2016-04-10T08:11:08.000Z</time>
      </trkpt>
      <trkpt lat="47.58532" lon="6.74575">
        <ele>354</ele>
        <time>2016-04-10T08:11:09.000Z</time>
      </trkpt>
      <trkpt lat="47.58532" lon="6.74582">
        <ele>354</ele>
        <time>2016-04-10T08:11:11.000Z</time>
      </trkpt>
      <trkpt lat="47.58532" lon="6.74585">
        <ele>356</ele>
        <time>2016-04-10T08:11:12.000Z</time>
      </trkpt>
      <trkpt lat="47.58532" lon="6.74591">
        <ele>356</ele>
        <time>2016-04-10T08:11:14.000Z</time>
      </trkpt>
      <trkpt lat="47.58532" lon="6.74594">
        <ele>356</ele>
        <time>2016-04-10T08:11:15.000Z</time>
      </trkpt>
      <trkpt lat="47.58532" lon="6.74599">
        <ele>356</ele>
        <time>2016-04-10T08:11:17.000Z</time>
      </trkpt>
      <trkpt lat="47.58531" lon="6.74603">
        <ele>356</ele>
        <time>2016-04-10T08:11:18.000Z</time>
      </trkpt>
      <trkpt lat="47.58531" lon="6.74609">
        <ele>356</ele>
        <time>2016-04-10T08:11:20.000Z</time>
      </trkpt>
      <trkpt lat="47.5853" lon="6.74612">
        <ele>356</ele>
        <time>2016-04-10T08:11:21.000Z</time>
      </trkpt>
      <trkpt lat="47.5853" lon="6.74619">
        <ele>356</ele>
        <time>2016-04-10T08:11:23.000Z</time>
      </trkpt>
      <trkpt lat="47.5853" lon="6.74622">
        <ele>356</ele>
        <time>2016-04-10T08:11:24.000Z</time>
      </trkpt>
      <trkpt lat="47.5853" lon="6.74626">
        <ele>357</ele>
        <time>2016-04-10T08:11:25.000Z</time>
      </trkpt>
      <trkpt lat="47.5853" lon="6.74629">
        <ele>357</ele>
        <time>2016-04-10T08:11:26.000Z</time>
      </trkpt>
      <trkpt lat="47.5853" lon="6.74633">
        <ele>357</ele>
        <time>2016-04-10T08:11:27.000Z</time>
      </trkpt>
      <trkpt lat="47.5853" lon="6.74637">
        <ele>357</ele>
        <time>2016-04-10T08:11:28.000Z</time>
      </trkpt>
      <trkpt lat="47.5853" lon="6.7464">
        <ele>357</ele>
        <time>2016-04-10T08:11:29.000Z</time>
      </trkpt>
      <trkpt lat="47.5853" lon="6.74644">
        <ele>357</ele>
        <time>2016-04-10T08:11:30.000Z</time>
      </trkpt>
      <trkpt lat="47.5853" lon="6.74648">
        <ele>357</ele>
        <time>2016-04-10T08:11:31.000Z</time>
      </trkpt>
      <trkpt lat="47.5853" lon="6.74651">
        <ele>357</ele>
        <time>2016-04-10T08:11:32.000Z</time>
      </trkpt>
      <trkpt lat="47.5853" lon="6.74655">
        <ele>357</ele>
        <time>2016-04-10T08:11:33.000Z</time>
      </trkpt>
      <trkpt lat="47.5853" lon="6.74659">
        <ele>357</ele>
        <time>2016-04-10T08:11:34.000Z</time>
      </trkpt>
      <trkpt lat="47.5853" lon="6.74662">
        <ele>357</ele>
        <time>2016-04-10T08:11:35.000Z</time>
      </trkpt>
      <trkpt lat="47.5853" lon="6.74666">
        <ele>357</ele>
        <time>2016-04-10T08:11:36.000Z</time>
      </trkpt>
      <trkpt lat="47.5853" lon="6.74669">
        <ele>359</ele>
        <time>2016-04-10T08:11:37.000Z</time>
      </trkpt>
      <trkpt lat="47.5853" lon="6.74673">
        <ele>359</ele>
        <time>2016-04-10T08:11:38.000Z</time>
      </trkpt>
      <trkpt lat="47.5853" lon="6.74679">
        <ele>359</ele>
        <time>2016-04-10T08:11:40.000Z</time>
      </trkpt>
      <trkpt lat="47.5853" lon="6.74682">
        <ele>359</ele>
        <time>2016-04-10T08:11:41.000Z</time>
      </trkpt>
      <trkpt lat="47.58529" lon="6.74688">
        <ele>359</ele>
        <time>2016-04-10T08:11:43.000Z</time>
      </trkpt>
      <trkpt lat="47.58529" lon="6.74691">
        <ele>359</ele>
        <time>2016-04-10T08:11:44.000Z</time>
      </trkpt>
      <trkpt lat="47.58528" lon="6.74697">
        <ele>359</ele>
        <time>2016-04-10T08:11:46.000Z</time>
      </trkpt>
      <trkpt lat="47.58528" lon="6.747">
        <ele>360</ele>
        <time>2016-04-10T08:11:47.000Z</time>
      </trkpt>
      <trkpt lat="47.58528" lon="6.74706">
        <ele>360</ele>
        <time>2016-04-10T08:11:49.000Z</time>
      </trkpt>
      <trkpt lat="47.58529" lon="6.74708">
        <ele>360</ele>
        <time>2016-04-10T08:11:50.000Z</time>
      </trkpt>
      <trkpt lat="47.5853" lon="6.74714">
        <ele>360</ele>
        <time>2016-04-10T08:11:52.000Z</time>
      </trkpt>
      <trkpt lat="47.58531" lon="6.74716">
        <ele>360</ele>
        <time>2016-04-10T08:11:53.000Z</time>
      </trkpt>
      <trkpt lat="47.58532" lon="6.74719">
        <ele>360</ele>
        <time>2016-04-10T08:11:54.000Z</time>
      </trkpt>
      <trkpt lat="47.58533" lon="6.74722">
        <ele>360</ele>
        <time>2016-04-10T08:11:55.000Z</time>
      </trkpt>
      <trkpt lat="47.58535" lon="6.74724">
        <ele>360</ele>
        <time>2016-04-10T08:11:56.000Z</time>
      </trkpt>
      <trkpt lat="47.58537" lon="6.74726">
        <ele>361</ele>
        <time>2016-04-10T08:11:57.000Z</time>
      </trkpt>
      <trkpt lat="47.5854" lon="6.74727">
        <ele>361</ele>
        <time>2016-04-10T08:11:58.000Z</time>
      </trkpt>
      <trkpt lat="47.58542" lon="6.74729">
        <ele>361</ele>
        <time>2016-04-10T08:11:59.000Z</time>
      </trkpt>
      <trkpt lat="47.58544" lon="6.7473">
        <ele>361</ele>
        <time>2016-04-10T08:12:00.000Z</time>
      </trkpt>
      <trkpt lat="47.58547" lon="6.74732">
        <ele>361</ele>
        <time>2016-04-10T08:12:01.000Z</time>
      </trkpt>
      <trkpt lat="47.58549" lon="6.74734">
        <ele>362</ele>
        <time>2016-04-10T08:12:02.000Z</time>
      </trkpt>
      <trkpt lat="47.58552" lon="6.74736">
        <ele>362</ele>
        <time>2016-04-10T08:12:03.000Z</time>
      </trkpt>
      <trkpt lat="47.58555" lon="6.74739">
        <ele>363</ele>
        <time>2016-04-10T08:12:04.000Z</time>
      </trkpt>
      <trkpt lat="47.58558" lon="6.74742">
        <ele>363</ele>
        <time>2016-04-10T08:12:05.000Z</time>
      </trkpt>
      <trkpt lat="47.5856" lon="6.74746">
        <ele>364</ele>
        <time>2016-04-10T08:12:06.000Z</time>
      </trkpt>
      <trkpt lat="47.58562" lon="6.74748">
        <ele>364</ele>
        <time>2016-04-10T08:12:07.000Z</time>
      </trkpt>
      <trkpt lat="47.58564" lon="6.74753">
        <ele>366</ele>
        <time>2016-04-10T08:12:12.000Z</time>
      </trkpt>
      <trkpt lat="47.58566" lon="6.74756">
        <ele>366</ele>
        <time>2016-04-10T08:12:13.000Z</time>
      </trkpt>
      <trkpt lat="47.58568" lon="6.74759">
        <ele>366</ele>
        <time>2016-04-10T08:12:14.000Z</time>
      </trkpt>
      <trkpt lat="47.5857" lon="6.74764">
        <ele>366</ele>
        <time>2016-04-10T08:12:15.000Z</time>
      </trkpt>
      <trkpt lat="47.58572" lon="6.74768">
        <ele>366</ele>
        <time>2016-04-10T08:12:16.000Z</time>
      </trkpt>
      <trkpt lat="47.58574" lon="6.74774">
        <ele>366</ele>
        <time>2016-04-10T08:12:17.000Z</time>
      </trkpt>
      <trkpt lat="47.58575" lon="6.74779">
        <ele>366</ele>
        <time>2016-04-10T08:12:18.000Z</time>
      </trkpt>
      <trkpt lat="47.58577" lon="6.74785">
        <ele>366</ele>
        <time>2016-04-10T08:12:19.000Z</time>
      </trkpt>
      <trkpt lat="47.58577" lon="6.7479">
        <ele>366</ele>
        <time>2016-04-10T08:12:20.000Z</time>
      </trkpt>
      <trkpt lat="47.58576" lon="6.74796">
        <ele>366</ele>
        <time>2016-04-10T08:12:21.000Z</time>
      </trkpt>
      <trkpt lat="47.58575" lon="6.74801">
        <ele>367</ele>
        <time>2016-04-10T08:12:22.000Z</time>
      </trkpt>
      <trkpt lat="47.58573" lon="6.74806">
        <ele>367</ele>
        <time>2016-04-10T08:12:23.000Z</time>
      </trkpt>
      <trkpt lat="47.58571" lon="6.74812">
        <ele>367</ele>
        <time>2016-04-10T08:12:24.000Z</time>
      </trkpt>
      <trkpt lat="47.58569" lon="6.74817">
        <ele>368</ele>
        <time>2016-04-10T08:12:25.000Z</time>
      </trkpt>
      <trkpt lat="47.58568" lon="6.74823">
        <ele>368</ele>
        <time>2016-04-10T08:12:26.000Z</time>
      </trkpt>
      <trkpt lat="47.58567" lon="6.74829">
        <ele>368</ele>
        <time>2016-04-10T08:12:27.000Z</time>
      </trkpt>
      <trkpt lat="47.58567" lon="6.74835">
        <ele>369</ele>
        <time>2016-04-10T08:12:28.000Z</time>
      </trkpt>
      <trkpt lat="47.58568" lon="6.74841">
        <ele>368</ele>
        <time>2016-04-10T08:12:29.000Z</time>
      </trkpt>
      <trkpt lat="47.58569" lon="6.74846">
        <ele>368</ele>
        <time>2016-04-10T08:12:30.000Z</time>
      </trkpt>
      <trkpt lat="47.58569" lon="6.74852">
        <ele>368</ele>
        <time>2016-04-10T08:12:31.000Z</time>
      </trkpt>
      <trkpt lat="47.5857" lon="6.74857">
        <ele>367</ele>
        <time>2016-04-10T08:12:32.000Z</time>
      </trkpt>
      <trkpt lat="47.58571" lon="6.74862">
        <ele>367</ele>
        <time>2016-04-10T08:12:33.000Z</time>
      </trkpt>
      <trkpt lat="47.58571" lon="6.74867">
        <ele>367</ele>
        <time>2016-04-10T08:12:34.000Z</time>
      </trkpt>
      <trkpt lat="47.58572" lon="6.74871">
        <ele>366</ele>
        <time>2016-04-10T08:12:35.000Z</time>
      </trkpt>
      <trkpt lat="47.58572" lon="6.74876">
        <ele>366</ele>
        <time>2016-04-10T08:12:36.000Z</time>
      </trkpt>
      <trkpt lat="47.58572" lon="6.74881">
        <ele>366</ele>
        <time>2016-04-10T08:12:37.000Z</time>
      </trkpt>
      <trkpt lat="47.58573" lon="6.74886">
        <ele>366</ele>
        <time>2016-04-10T08:12:38.000Z</time>
      </trkpt>
      <trkpt lat="47.58574" lon="6.74891">
        <ele>366</ele>
        <time>2016-04-10T08:12:39.000Z</time>
      </trkpt>
      <trkpt lat="47.58575" lon="6.74896">
        <ele>366</ele>
        <time>2016-04-10T08:12:40.000Z</time>
      </trkpt>
      <trkpt lat="47.58575" lon="6.74902">
        <ele>366</ele>
        <time>2016-04-10T08:12:41.000Z</time>
      </trkpt>
      <trkpt lat="47.58576" lon="6.74907">
        <ele>367</ele>
        <time>2016-04-10T08:12:42.000Z</time>
      </trkpt>
      <trkpt lat="47.58576" lon="6.74912">
        <ele>367</ele>
        <time>2016-04-10T08:12:43.000Z</time>
      </trkpt>
      <trkpt lat="47.58577" lon="6.74917">
        <ele>367</ele>
        <time>2016-04-10T08:12:44.000Z</time>
      </trkpt>
      <trkpt lat="47.58577" lon="6.74923">
        <ele>367</ele>
        <time>2016-04-10T08:12:45.000Z</time>
      </trkpt>
      <trkpt lat="47.58577" lon="6.74928">
        <ele>367</ele>
        <time>2016-04-10T08:12:46.000Z</time>
      </trkpt>
      <trkpt lat="47.58578" lon="6.74934">
        <ele>366</ele>
        <time>2016-04-10T08:12:47.000Z</time>
      </trkpt>
      <trkpt lat="47.58579" lon="6.7494">
        <ele>366</ele>
        <time>2016-04-10T08:12:48.000Z</time>
      </trkpt>
      <trkpt lat="47.58579" lon="6.74946">
        <ele>366</ele>
        <time>2016-04-10T08:12:49.000Z</time>
      </trkpt>
      <trkpt lat="47.5858" lon="6.74952">
        <ele>366</ele>
        <time>2016-04-10T08:12:50.000Z</time>
      </trkpt>
      <trkpt lat="47.5858" lon="6.74957">
        <ele>366</ele>
        <time>2016-04-10T08:12:51.000Z</time>
      </trkpt>
      <trkpt lat="47.58581" lon="6.74963">
        <ele>367</ele>
        <time>2016-04-10T08:12:52.000Z</time>
      </trkpt>
      <trkpt lat="47.58582" lon="6.74969">
        <ele>367</ele>
        <time>2016-04-10T08:12:53.000Z</time>
      </trkpt>
      <trkpt lat="47.58582" lon="6.74974">
        <ele>367</ele>
        <time>2016-04-10T08:12:54.000Z</time>
      </trkpt>
      <trkpt lat="47.58582" lon="6.7498">
        <ele>368</ele>
        <time>2016-04-10T08:12:55.000Z</time>
      </trkpt>
      <trkpt lat="47.58582" lon="6.74985">
        <ele>369</ele>
        <time>2016-04-10T08:12:56.000Z</time>
      </trkpt>
      <trkpt lat="47.58582" lon="6.74991">
        <ele>370</ele>
        <time>2016-04-10T08:12:57.000Z</time>
      </trkpt>
      <trkpt lat="47.58582" lon="6.74996">
        <ele>371</ele>
        <time>2016-04-10T08:12:58.000Z</time>
      </trkpt>
      <trkpt lat="47.58581" lon="6.75001">
        <ele>371</ele>
        <time>2016-04-10T08:12:59.000Z</time>
      </trkpt>
      <trkpt lat="47.58579" lon="6.75006">
        <ele>371</ele>
        <time>2016-04-10T08:13:00.000Z</time>
      </trkpt>
      <trkpt lat="47.58578" lon="6.75011">
        <ele>370</ele>
        <time>2016-04-10T08:13:01.000Z</time>
      </trkpt>
      <trkpt lat="47.58577" lon="6.75016">
        <ele>369</ele>
        <time>2016-04-10T08:13:02.000Z</time>
      </trkpt>
      <trkpt lat="47.58575" lon="6.7502">
        <ele>369</ele>
        <time>2016-04-10T08:13:03.000Z</time>
      </trkpt>
      <trkpt lat="47.58574" lon="6.75025">
        <ele>369</ele>
        <time>2016-04-10T08:13:04.000Z</time>
      </trkpt>
      <trkpt lat="47.58572" lon="6.7503">
        <ele>368</ele>
        <time>2016-04-10T08:13:05.000Z</time>
      </trkpt>
      <trkpt lat="47.58571" lon="6.75035">
        <ele>368</ele>
        <time>2016-04-10T08:13:06.000Z</time>
      </trkpt>
      <trkpt lat="47.5857" lon="6.75041">
        <ele>368</ele>
        <time>2016-04-10T08:13:07.000Z</time>
      </trkpt>
      <trkpt lat="47.5857" lon="6.75046">
        <ele>369</ele>
        <time>2016-04-10T08:13:08.000Z</time>
      </trkpt>
      <trkpt lat="47.58571" lon="6.75052">
        <ele>369</ele>
        <time>2016-04-10T08:13:09.000Z</time>
      </trkpt>
      <trkpt lat="47.58572" lon="6.75057">
        <ele>369</ele>
        <time>2016-04-10T08:13:10.000Z</time>
      </trkpt>
      <trkpt lat="47.58573" lon="6.75062">
        <ele>370</ele>
        <time>2016-04-10T08:13:11.000Z</time>
      </trkpt>
      <trkpt lat="47.58575" lon="6.75066">
        <ele>371</ele>
        <time>2016-04-10T08:13:12.000Z</time>
      </trkpt>
      <trkpt lat="47.58577" lon="6.7507">
        <ele>372</ele>
        <time>2016-04-10T08:13:13.000Z</time>
      </trkpt>
      <trkpt lat="47.58578" lon="6.75074">
        <ele>372</ele>
        <time>2016-04-10T08:13:14.000Z</time>
      </trkpt>
      <trkpt lat="47.5858" lon="6.75078">
        <ele>374</ele>
        <time>2016-04-10T08:13:15.000Z</time>
      </trkpt>
      <trkpt lat="47.58581" lon="6.75082">
        <ele>375</ele>
        <time>2016-04-10T08:13:16.000Z</time>
      </trkpt>
      <trkpt lat="47.58582" lon="6.75085">
        <ele>375</ele>
        <time>2016-04-10T08:13:17.000Z</time>
      </trkpt>
      <trkpt lat="47.58583" lon="6.75089">
        <ele>374</ele>
        <time>2016-04-10T08:13:18.000Z</time>
      </trkpt>
      <trkpt lat="47.58584" lon="6.75092">
        <ele>379</ele>
        <time>2016-04-10T08:13:19.000Z</time>
      </trkpt>
      <trkpt lat="47.58585" lon="6.75097">
        <ele>380</ele>
        <time>2016-04-10T08:13:20.000Z</time>
      </trkpt>
      <trkpt lat="47.58587" lon="6.75101">
        <ele>381</ele>
        <time>2016-04-10T08:13:21.000Z</time>
      </trkpt>
      <trkpt lat="47.58588" lon="6.75106">
        <ele>381</ele>
        <time>2016-04-10T08:13:22.000Z</time>
      </trkpt>
      <trkpt lat="47.5859" lon="6.7511">
        <ele>382</ele>
        <time>2016-04-10T08:13:23.000Z</time>
      </trkpt>
      <trkpt lat="47.58592" lon="6.75115">
        <ele>382</ele>
        <time>2016-04-10T08:13:24.000Z</time>
      </trkpt>
      <trkpt lat="47.58593" lon="6.75119">
        <ele>382</ele>
        <time>2016-04-10T08:13:25.000Z</time>
      </trkpt>
      <trkpt lat="47.58595" lon="6.75123">
        <ele>382</ele>
        <time>2016-04-10T08:13:26.000Z</time>
      </trkpt>
      <trkpt lat="47.58596" lon="6.75128">
        <ele>382</ele>
        <time>2016-04-10T08:13:27.000Z</time>
      </trkpt>
      <trkpt lat="47.58598" lon="6.75133">
        <ele>382</ele>
        <time>2016-04-10T08:13:28.000Z</time>
      </trkpt>
      <trkpt lat="47.58599" lon="6.75137">
        <ele>382</ele>
        <time>2016-04-10T08:13:29.000Z</time>
      </trkpt>
      <trkpt lat="47.586" lon="6.75141">
        <ele>382</ele>
        <time>2016-04-10T08:13:30.000Z</time>
      </trkpt>
      <trkpt lat="47.58601" lon="6.75145">
        <ele>382</ele>
        <time>2016-04-10T08:13:31.000Z</time>
      </trkpt>
      <trkpt lat="47.58602" lon="6.75148">
        <ele>381</ele>
        <time>2016-04-10T08:13:32.000Z</time>
      </trkpt>
      <trkpt lat="47.58604" lon="6.75151">
        <ele>381</ele>
        <time>2016-04-10T08:13:33.000Z</time>
      </trkpt>
      <trkpt lat="47.58605" lon="6.75155">
        <ele>381</ele>
        <time>2016-04-10T08:13:34.000Z</time>
      </trkpt>
      <trkpt lat="47.58606" lon="6.75158">
        <ele>381</ele>
        <time>2016-04-10T08:13:35.000Z</time>
      </trkpt>
      <trkpt lat="47.58607" lon="6.75161">
        <ele>381</ele>
        <time>2016-04-10T08:13:36.000Z</time>
      </trkpt>
      <trkpt lat="47.58608" lon="6.75164">
        <ele>382</ele>
        <time>2016-04-10T08:13:37.000Z</time>
      </trkpt>
      <trkpt lat="47.58609" lon="6.75168">
        <ele>379</ele>
        <time>2016-04-10T08:13:38.000Z</time>
      </trkpt>
      <trkpt lat="47.58609" lon="6.75172">
        <ele>379</ele>
        <time>2016-04-10T08:13:39.000Z</time>
      </trkpt>
      <trkpt lat="47.58609" lon="6.75177">
        <ele>379</ele>
        <time>2016-04-10T08:13:40.000Z</time>
      </trkpt>
      <trkpt lat="47.58608" lon="6.75181">
        <ele>380</ele>
        <time>2016-04-10T08:13:41.000Z</time>
      </trkpt>
      <trkpt lat="47.58608" lon="6.75185">
        <ele>380</ele>
        <time>2016-04-10T08:13:42.000Z</time>
      </trkpt>
      <trkpt lat="47.58609" lon="6.75189">
        <ele>380</ele>
        <time>2016-04-10T08:13:43.000Z</time>
      </trkpt>
      <trkpt lat="47.5861" lon="6.75193">
        <ele>380</ele>
        <time>2016-04-10T08:13:44.000Z</time>
      </trkpt>
      <trkpt lat="47.58612" lon="6.75196">
        <ele>380</ele>
        <time>2016-04-10T08:13:45.000Z</time>
      </trkpt>
      <trkpt lat="47.58614" lon="6.752">
        <ele>380</ele>
        <time>2016-04-10T08:13:46.000Z</time>
      </trkpt>
      <trkpt lat="47.58616" lon="6.75203">
        <ele>381</ele>
        <time>2016-04-10T08:13:47.000Z</time>
      </trkpt>
      <trkpt lat="47.58617" lon="6.75206">
        <ele>381</ele>
        <time>2016-04-10T08:13:48.000Z</time>
      </trkpt>
      <trkpt lat="47.58618" lon="6.75209">
        <ele>381</ele>
        <time>2016-04-10T08:13:49.000Z</time>
      </trkpt>
      <trkpt lat="47.58618" lon="6.75215">
        <ele>381</ele>
        <time>2016-04-10T08:13:51.000Z</time>
      </trkpt>
      <trkpt lat="47.58619" lon="6.75218">
        <ele>381</ele>
        <time>2016-04-10T08:13:52.000Z</time>
      </trkpt>
      <trkpt lat="47.5862" lon="6.75222">
        <ele>381</ele>
        <time>2016-04-10T08:13:53.000Z</time>
      </trkpt>
      <trkpt lat="47.58621" lon="6.75225">
        <ele>381</ele>
        <time>2016-04-10T08:13:54.000Z</time>
      </trkpt>
      <trkpt lat="47.58622" lon="6.75228">
        <ele>381</ele>
        <time>2016-04-10T08:13:55.000Z</time>
      </trkpt>
      <trkpt lat="47.58624" lon="6.75231">
        <ele>381</ele>
        <time>2016-04-10T08:13:56.000Z</time>
      </trkpt>
      <trkpt lat="47.58625" lon="6.75235">
        <ele>381</ele>
        <time>2016-04-10T08:13:57.000Z</time>
      </trkpt>
      <trkpt lat="47.58627" lon="6.75237">
        <ele>381</ele>
        <time>2016-04-10T08:13:58.000Z</time>
      </trkpt>
      <trkpt lat="47.58629" lon="6.7524">
        <ele>381</ele>
        <time>2016-04-10T08:13:59.000Z</time>
      </trkpt>
      <trkpt lat="47.58631" lon="6.75242">
        <ele>381</ele>
        <time>2016-04-10T08:14:00.000Z</time>
      </trkpt>
      <trkpt lat="47.58633" lon="6.75244">
        <ele>382</ele>
        <time>2016-04-10T08:14:01.000Z</time>
      </trkpt>
      <trkpt lat="47.58635" lon="6.75246">
        <ele>382</ele>
        <time>2016-04-10T08:14:02.000Z</time>
      </trkpt>
      <trkpt lat="47.58639" lon="6.75248">
        <ele>382</ele>
        <time>2016-04-10T08:14:04.000Z</time>
      </trkpt>
      <trkpt lat="47.58641" lon="6.75248">
        <ele>383</ele>
        <time>2016-04-10T08:14:05.000Z</time>
      </trkpt>
      <trkpt lat="47.58643" lon="6.75247">
        <ele>383</ele>
        <time>2016-04-10T08:14:06.000Z</time>
      </trkpt>
      <trkpt lat="47.58646" lon="6.75246">
        <ele>383</ele>
        <time>2016-04-10T08:14:07.000Z</time>
      </trkpt>
      <trkpt lat="47.58648" lon="6.75245">
        <ele>383</ele>
        <time>2016-04-10T08:14:08.000Z</time>
      </trkpt>
      <trkpt lat="47.58651" lon="6.75244">
        <ele>384</ele>
        <time>2016-04-10T08:14:09.000Z</time>
      </trkpt>
      <trkpt lat="47.58654" lon="6.75241">
        <ele>384</ele>
        <time>2016-04-10T08:14:11.000Z</time>
      </trkpt>
      <trkpt lat="47.58655" lon="6.75239">
        <ele>384</ele>
        <time>2016-04-10T08:14:12.000Z</time>
      </trkpt>
      <trkpt lat="47.58657" lon="6.75235">
        <ele>384</ele>
        <time>2016-04-10T08:14:14.000Z</time>
      </trkpt>
      <trkpt lat="47.58658" lon="6.75232">
        <ele>384</ele>
        <time>2016-04-10T08:14:15.000Z</time>
      </trkpt>
      <trkpt lat="47.58659" lon="6.75226">
        <ele>384</ele>
        <time>2016-04-10T08:14:17.000Z</time>
      </trkpt>
      <trkpt lat="47.58659" lon="6.75222">
        <ele>384</ele>
        <time>2016-04-10T08:14:18.000Z</time>
      </trkpt>
      <trkpt lat="47.58659" lon="6.75219">
        <ele>384</ele>
        <time>2016-04-10T08:14:19.000Z</time>
      </trkpt>
      <trkpt lat="47.58659" lon="6.75215">
        <ele>384</ele>
        <time>2016-04-10T08:14:20.000Z</time>
      </trkpt>
      <trkpt lat="47.58658" lon="6.75208">
        <ele>385</ele>
        <time>2016-04-10T08:14:22.000Z</time>
      </trkpt>
      <trkpt lat="47.58657" lon="6.75206">
        <ele>385</ele>
        <time>2016-04-10T08:14:23.000Z</time>
      </trkpt>
      <trkpt lat="47.58656" lon="6.75203">
        <ele>385</ele>
        <time>2016-04-10T08:14:24.000Z</time>
      </trkpt>
      <trkpt lat="47.58654" lon="6.75201">
        <ele>385</ele>
        <time>2016-04-10T08:14:25.000Z</time>
      </trkpt>
      <trkpt lat="47.58652" lon="6.75198">
        <ele>385</ele>
        <time>2016-04-10T08:14:26.000Z</time>
      </trkpt>
      <trkpt lat="47.5865" lon="6.75195">
        <ele>385</ele>
        <time>2016-04-10T08:14:27.000Z</time>
      </trkpt>
      <trkpt lat="47.58649" lon="6.75193">
        <ele>385</ele>
        <time>2016-04-10T08:14:28.000Z</time>
      </trkpt>
      <trkpt lat="47.58647" lon="6.7519">
        <ele>385</ele>
        <time>2016-04-10T08:14:29.000Z</time>
      </trkpt>
      <trkpt lat="47.58646" lon="6.75187">
        <ele>385</ele>
        <time>2016-04-10T08:14:30.000Z</time>
      </trkpt>
      <trkpt lat="47.58644" lon="6.75184">
        <ele>385</ele>
        <time>2016-04-10T08:14:31.000Z</time>
      </trkpt>
      <trkpt lat="47.58643" lon="6.75181">
        <ele>385</ele>
        <time>2016-04-10T08:14:32.000Z</time>
      </trkpt>
      <trkpt lat="47.58642" lon="6.75178">
        <ele>385</ele>
        <time>2016-04-10T08:14:33.000Z</time>
      </trkpt>
      <trkpt lat="47.58641" lon="6.75175">
        <ele>386</ele>
        <time>2016-04-10T08:14:34.000Z</time>
      </trkpt>
      <trkpt lat="47.58641" lon="6.75172">
        <ele>386</ele>
        <time>2016-04-10T08:14:35.000Z</time>
      </trkpt>
      <trkpt lat="47.5864" lon="6.75168">
        <ele>386</ele>
        <time>2016-04-10T08:14:36.000Z</time>
      </trkpt>
      <trkpt lat="47.5864" lon="6.75165">
        <ele>388</ele>
        <time>2016-04-10T08:14:37.000Z</time>
      </trkpt>
      <trkpt lat="47.58639" lon="6.75161">
        <ele>388</ele>
        <time>2016-04-10T08:14:38.000Z</time>
      </trkpt>
      <trkpt lat="47.58638" lon="6.75158">
        <ele>388</ele>
        <time>2016-04-10T08:14:39.000Z</time>
      </trkpt>
      <trkpt lat="47.58637" lon="6.75154">
        <ele>387</ele>
        <time>2016-04-10T08:14:40.000Z</time>
      </trkpt>
      <trkpt lat="47.58636" lon="6.7515">
        <ele>387</ele>
        <time>2016-04-10T08:14:41.000Z</time>
      </trkpt>
      <trkpt lat="47.58636" lon="6.75147">
        <ele>387</ele>
        <time>2016-04-10T08:14:42.000Z</time>
      </trkpt>
      <trkpt lat="47.58635" lon="6.75144">
        <ele>387</ele>
        <time>2016-04-10T08:14:43.000Z</time>
      </trkpt>
      <trkpt lat="47.58634" lon="6.7514">
        <ele>387</ele>
        <time>2016-04-10T08:14:44.000Z</time>
      </trkpt>
      <trkpt lat="47.58634" lon="6.75137">
        <ele>387</ele>
        <time>2016-04-10T08:14:45.000Z</time>
      </trkpt>
      <trkpt lat="47.58633" lon="6.75133">
        <ele>387</ele>
        <time>2016-04-10T08:14:46.000Z</time>
      </trkpt>
      <trkpt lat="47.58633" lon="6.75129">
        <ele>387</ele>
        <time>2016-04-10T08:14:47.000Z</time>
      </trkpt>
      <trkpt lat="47.58632" lon="6.75125">
        <ele>387</ele>
        <time>2016-04-10T08:14:48.000Z</time>
      </trkpt>
      <trkpt lat="47.58632" lon="6.75122">
        <ele>387</ele>
        <time>2016-04-10T08:14:49.000Z</time>
      </trkpt>
      <trkpt lat="47.58631" lon="6.75118">
        <ele>387</ele>
        <time>2016-04-10T08:14:50.000Z</time>
      </trkpt>
      <trkpt lat="47.58631" lon="6.75114">
        <ele>387</ele>
        <time>2016-04-10T08:14:51.000Z</time>
      </trkpt>
      <trkpt lat="47.58631" lon="6.7511">
        <ele>387</ele>
        <time>2016-04-10T08:14:52.000Z</time>
      </trkpt>
      <trkpt lat="47.58631" lon="6.75106">
        <ele>387</ele>
        <time>2016-04-10T08:14:53.000Z</time>
      </trkpt>
      <trkpt lat="47.58631" lon="6.75101">
        <ele>387</ele>
        <time>2016-04-10T08:14:54.000Z</time>
      </trkpt>
      <trkpt lat="47.58631" lon="6.75097">
        <ele>387</ele>
        <time>2016-04-10T08:14:55.000Z</time>
      </trkpt>
      <trkpt lat="47.58631" lon="6.75093">
        <ele>388</ele>
        <time>2016-04-10T08:14:56.000Z</time>
      </trkpt>
      <trkpt lat="47.58631" lon="6.75088">
        <ele>388</ele>
        <time>2016-04-10T08:14:57.000Z</time>
      </trkpt>
      <trkpt lat="47.58631" lon="6.75084">
        <ele>388</ele>
        <time>2016-04-10T08:14:58.000Z</time>
      </trkpt>
      <trkpt lat="47.58632" lon="6.7508">
        <ele>388</ele>
        <time>2016-04-10T08:14:59.000Z</time>
      </trkpt>
      <trkpt lat="47.58632" lon="6.75075">
        <ele>388</ele>
        <time>2016-04-10T08:15:00.000Z</time>
      </trkpt>
      <trkpt lat="47.58633" lon="6.75071">
        <ele>388</ele>
        <time>2016-04-10T08:15:01.000Z</time>
      </trkpt>
      <trkpt lat="47.58633" lon="6.75066">
        <ele>388</ele>
        <time>2016-04-10T08:15:02.000Z</time>
      </trkpt>
      <trkpt lat="47.58633" lon="6.75062">
        <ele>388</ele>
        <time>2016-04-10T08:15:03.000Z</time>
      </trkpt>
      <trkpt lat="47.58634" lon="6.75058">
        <ele>388</ele>
        <time>2016-04-10T08:15:04.000Z</time>
      </trkpt>
      <trkpt lat="47.58634" lon="6.75054">
        <ele>388</ele>
        <time>2016-04-10T08:15:05.000Z</time>
      </trkpt>
      <trkpt lat="47.58634" lon="6.7505">
        <ele>388</ele>
        <time>2016-04-10T08:15:06.000Z</time>
      </trkpt>
      <trkpt lat="47.58635" lon="6.75046">
        <ele>388</ele>
        <time>2016-04-10T08:15:07.000Z</time>
      </trkpt>
      <trkpt lat="47.58635" lon="6.75042">
        <ele>388</ele>
        <time>2016-04-10T08:15:08.000Z</time>
      </trkpt>
      <trkpt lat="47.58635" lon="6.75038">
        <ele>388</ele>
        <time>2016-04-10T08:15:09.000Z</time>
      </trkpt>
      <trkpt lat="47.58636" lon="6.75034">
        <ele>388</ele>
        <time>2016-04-10T08:15:10.000Z</time>
      </trkpt>
      <trkpt lat="47.58637" lon="6.75031">
        <ele>388</ele>
        <time>2016-04-10T08:15:11.000Z</time>
      </trkpt>
      <trkpt lat="47.58638" lon="6.75027">
        <ele>389</ele>
        <time>2016-04-10T08:15:12.000Z</time>
      </trkpt>
      <trkpt lat="47.58639" lon="6.75023">
        <ele>389</ele>
        <time>2016-04-10T08:15:13.000Z</time>
      </trkpt>
      <trkpt lat="47.58639" lon="6.75019">
        <ele>389</ele>
        <time>2016-04-10T08:15:14.000Z</time>
      </trkpt>
      <trkpt lat="47.5864" lon="6.75015">
        <ele>389</ele>
        <time>2016-04-10T08:15:15.000Z</time>
      </trkpt>
      <trkpt lat="47.58641" lon="6.75011">
        <ele>390</ele>
        <time>2016-04-10T08:15:16.000Z</time>
      </trkpt>
      <trkpt lat="47.58642" lon="6.75007">
        <ele>390</ele>
        <time>2016-04-10T08:15:17.000Z</time>
      </trkpt>
      <trkpt lat="47.58643" lon="6.75003">
        <ele>391</ele>
        <time>2016-04-10T08:15:18.000Z</time>
      </trkpt>
      <trkpt lat="47.58644" lon="6.74999">
        <ele>390</ele>
        <time>2016-04-10T08:15:19.000Z</time>
      </trkpt>
      <trkpt lat="47.58645" lon="6.74995">
        <ele>390</ele>
        <time>2016-04-10T08:15:20.000Z</time>
      </trkpt>
      <trkpt lat="47.58646" lon="6.74992">
        <ele>390</ele>
        <time>2016-04-10T08:15:21.000Z</time>
      </trkpt>
      <trkpt lat="47.58648" lon="6.74988">
        <ele>390</ele>
        <time>2016-04-10T08:15:22.000Z</time>
      </trkpt>
      <trkpt lat="47.58649" lon="6.74985">
        <ele>390</ele>
        <time>2016-04-10T08:15:23.000Z</time>
      </trkpt>
      <trkpt lat="47.5865" lon="6.74981">
        <ele>389</ele>
        <time>2016-04-10T08:15:24.000Z</time>
      </trkpt>
      <trkpt lat="47.58651" lon="6.74978">
        <ele>389</ele>
        <time>2016-04-10T08:15:25.000Z</time>
      </trkpt>
      <trkpt lat="47.58652" lon="6.74974">
        <ele>389</ele>
        <time>2016-04-10T08:15:26.000Z</time>
      </trkpt>
      <trkpt lat="47.58653" lon="6.7497">
        <ele>389</ele>
        <time>2016-04-10T08:15:27.000Z</time>
      </trkpt>
      <trkpt lat="47.58654" lon="6.74967">
        <ele>388</ele>
        <time>2016-04-10T08:15:28.000Z</time>
      </trkpt>
      <trkpt lat="47.58655" lon="6.74963">
        <ele>388</ele>
        <time>2016-04-10T08:15:29.000Z</time>
      </trkpt>
      <trkpt lat="47.58656" lon="6.7496">
        <ele>388</ele>
        <time>2016-04-10T08:15:30.000Z</time>
      </trkpt>
      <trkpt lat="47.58657" lon="6.74956">
        <ele>388</ele>
        <time>2016-04-10T08:15:31.000Z</time>
      </trkpt>
      <trkpt lat="47.58658" lon="6.74953">
        <ele>388</ele>
        <time>2016-04-10T08:15:32.000Z</time>
      </trkpt>
      <trkpt lat="47.5866" lon="6.7495">
        <ele>389</ele>
        <time>2016-04-10T08:15:33.000Z</time>
      </trkpt>
      <trkpt lat="47.58661" lon="6.74946">
        <ele>389</ele>
        <time>2016-04-10T08:15:34.000Z</time>
      </trkpt>
      <trkpt lat="47.58662" lon="6.74943">
        <ele>389</ele>
        <time>2016-04-10T08:15:35.000Z</time>
      </trkpt>
      <trkpt lat="47.58663" lon="6.7494">
        <ele>390</ele>
        <time>2016-04-10T08:15:36.000Z</time>
      </trkpt>
      <trkpt lat="47.58664" lon="6.74936">
        <ele>390</ele>
        <time>2016-04-10T08:15:37.000Z</time>
      </trkpt>
      <trkpt lat="47.58666" lon="6.74933">
        <ele>391</ele>
        <time>2016-04-10T08:15:38.000Z</time>
      </trkpt>
      <trkpt lat="47.58667" lon="6.74929">
        <ele>400</ele>
        <time>2016-04-10T08:15:39.000Z</time>
      </trkpt>
      <trkpt lat="47.58668" lon="6.74926">
        <ele>399</ele>
        <time>2016-04-10T08:15:40.000Z</time>
      </trkpt>
      <trkpt lat="47.58669" lon="6.74922">
        <ele>398</ele>
        <time>2016-04-10T08:15:41.000Z</time>
      </trkpt>
      <trkpt lat="47.5867" lon="6.74918">
        <ele>397</ele>
        <time>2016-04-10T08:15:42.000Z</time>
      </trkpt>
      <trkpt lat="47.58671" lon="6.74914">
        <ele>397</ele>
        <time>2016-04-10T08:15:43.000Z</time>
      </trkpt>
      <trkpt lat="47.58672" lon="6.74911">
        <ele>398</ele>
        <time>2016-04-10T08:15:44.000Z</time>
      </trkpt>
      <trkpt lat="47.58674" lon="6.74907">
        <ele>399</ele>
        <time>2016-04-10T08:15:45.000Z</time>
      </trkpt>
      <trkpt lat="47.58674" lon="6.74903">
        <ele>399</ele>
        <time>2016-04-10T08:15:46.000Z</time>
      </trkpt>
      <trkpt lat="47.58675" lon="6.749">
        <ele>400</ele>
        <time>2016-04-10T08:15:47.000Z</time>
      </trkpt>
      <trkpt lat="47.58677" lon="6.74896">
        <ele>400</ele>
        <time>2016-04-10T08:15:48.000Z</time>
      </trkpt>
      <trkpt lat="47.58678" lon="6.74892">
        <ele>400</ele>
        <time>2016-04-10T08:15:49.000Z</time>
      </trkpt>
      <trkpt lat="47.58679" lon="6.74888">
        <ele>400</ele>
        <time>2016-04-10T08:15:50.000Z</time>
      </trkpt>
      <trkpt lat="47.5868" lon="6.74884">
        <ele>401</ele>
        <time>2016-04-10T08:15:51.000Z</time>
      </trkpt>
      <trkpt lat="47.58681" lon="6.7488">
        <ele>401</ele>
        <time>2016-04-10T08:15:52.000Z</time>
      </trkpt>
      <trkpt lat="47.58682" lon="6.74877">
        <ele>401</ele>
        <time>2016-04-10T08:15:53.000Z</time>
      </trkpt>
      <trkpt lat="47.58683" lon="6.74873">
        <ele>401</ele>
        <time>2016-04-10T08:15:54.000Z</time>
      </trkpt>
      <trkpt lat="47.58684" lon="6.7487">
        <ele>401</ele>
        <time>2016-04-10T08:15:55.000Z</time>
      </trkpt>
      <trkpt lat="47.58686" lon="6.74867">
        <ele>401</ele>
        <time>2016-04-10T08:15:56.000Z</time>
      </trkpt>
      <trkpt lat="47.58688" lon="6.74863">
        <ele>401</ele>
        <time>2016-04-10T08:15:57.000Z</time>
      </trkpt>
      <trkpt lat="47.5869" lon="6.7486">
        <ele>401</ele>
        <time>2016-04-10T08:15:58.000Z</time>
      </trkpt>
      <trkpt lat="47.58692" lon="6.74857">
        <ele>401</ele>
        <time>2016-04-10T08:15:59.000Z</time>
      </trkpt>
      <trkpt lat="47.58694" lon="6.74854">
        <ele>401</ele>
        <time>2016-04-10T08:16:00.000Z</time>
      </trkpt>
      <trkpt lat="47.58697" lon="6.74852">
        <ele>401</ele>
        <time>2016-04-10T08:16:01.000Z</time>
      </trkpt>
      <trkpt lat="47.587" lon="6.7485">
        <ele>401</ele>
        <time>2016-04-10T08:16:02.000Z</time>
      </trkpt>
      <trkpt lat="47.58703" lon="6.74848">
        <ele>402</ele>
        <time>2016-04-10T08:16:03.000Z</time>
      </trkpt>
      <trkpt lat="47.58706" lon="6.74848">
        <ele>402</ele>
        <time>2016-04-10T08:16:04.000Z</time>
      </trkpt>
      <trkpt lat="47.58709" lon="6.74847">
        <ele>402</ele>
        <time>2016-04-10T08:16:05.000Z</time>
      </trkpt>
      <trkpt lat="47.58711" lon="6.74847">
        <ele>402</ele>
        <time>2016-04-10T08:16:06.000Z</time>
      </trkpt>
      <trkpt lat="47.58714" lon="6.74846">
        <ele>403</ele>
        <time>2016-04-10T08:16:07.000Z</time>
      </trkpt>
      <trkpt lat="47.58717" lon="6.74846">
        <ele>403</ele>
        <time>2016-04-10T08:16:08.000Z</time>
      </trkpt>
      <trkpt lat="47.58719" lon="6.74846">
        <ele>403</ele>
        <time>2016-04-10T08:16:09.000Z</time>
      </trkpt>
      <trkpt lat="47.58722" lon="6.74847">
        <ele>403</ele>
        <time>2016-04-10T08:16:11.000Z</time>
      </trkpt>
      <trkpt lat="47.58724" lon="6.74849">
        <ele>403</ele>
        <time>2016-04-10T08:16:12.000Z</time>
      </trkpt>
      <trkpt lat="47.58726" lon="6.74852">
        <ele>404</ele>
        <time>2016-04-10T08:16:14.000Z</time>
      </trkpt>
      <trkpt lat="47.58727" lon="6.74854">
        <ele>404</ele>
        <time>2016-04-10T08:16:15.000Z</time>
      </trkpt>
      <trkpt lat="47.58729" lon="6.7486">
        <ele>404</ele>
        <time>2016-04-10T08:16:17.000Z</time>
      </trkpt>
      <trkpt lat="47.58729" lon="6.74863">
        <ele>404</ele>
        <time>2016-04-10T08:16:18.000Z</time>
      </trkpt>
      <trkpt lat="47.58729" lon="6.74866">
        <ele>404</ele>
        <time>2016-04-10T08:16:19.000Z</time>
      </trkpt>
      <trkpt lat="47.58729" lon="6.7487">
        <ele>404</ele>
        <time>2016-04-10T08:16:20.000Z</time>
      </trkpt>
      <trkpt lat="47.58728" lon="6.74874">
        <ele>404</ele>
        <time>2016-04-10T08:16:21.000Z</time>
      </trkpt>
      <trkpt lat="47.58727" lon="6.74878">
        <ele>404</ele>
        <time>2016-04-10T08:16:22.000Z</time>
      </trkpt>
      <trkpt lat="47.58727" lon="6.74882">
        <ele>405</ele>
        <time>2016-04-10T08:16:23.000Z</time>
      </trkpt>
      <trkpt lat="47.58726" lon="6.74886">
        <ele>405</ele>
        <time>2016-04-10T08:16:24.000Z</time>
      </trkpt>
      <trkpt lat="47.58725" lon="6.74889">
        <ele>405</ele>
        <time>2016-04-10T08:16:25.000Z</time>
      </trkpt>
      <trkpt lat="47.58724" lon="6.74893">
        <ele>405</ele>
        <time>2016-04-10T08:16:26.000Z</time>
      </trkpt>
      <trkpt lat="47.58723" lon="6.74897">
        <ele>405</ele>
        <time>2016-04-10T08:16:27.000Z</time>
      </trkpt>
      <trkpt lat="47.58723" lon="6.74901">
        <ele>405</ele>
        <time>2016-04-10T08:16:28.000Z</time>
      </trkpt>
      <trkpt lat="47.58722" lon="6.74906">
        <ele>406</ele>
        <time>2016-04-10T08:16:29.000Z</time>
      </trkpt>
      <trkpt lat="47.58721" lon="6.7491">
        <ele>406</ele>
        <time>2016-04-10T08:16:30.000Z</time>
      </trkpt>
      <trkpt lat="47.58721" lon="6.74914">
        <ele>406</ele>
        <time>2016-04-10T08:16:31.000Z</time>
      </trkpt>
      <trkpt lat="47.5872" lon="6.74917">
        <ele>408</ele>
        <time>2016-04-10T08:16:32.000Z</time>
      </trkpt>
      <trkpt lat="47.5872" lon="6.74921">
        <ele>408</ele>
        <time>2016-04-10T08:16:33.000Z</time>
      </trkpt>
      <trkpt lat="47.58719" lon="6.74925">
        <ele>408</ele>
        <time>2016-04-10T08:16:34.000Z</time>
      </trkpt>
      <trkpt lat="47.58718" lon="6.74929">
        <ele>408</ele>
        <time>2016-04-10T08:16:35.000Z</time>
      </trkpt>
      <trkpt lat="47.58717" lon="6.74933">
        <ele>408</ele>
        <time>2016-04-10T08:16:36.000Z</time>
      </trkpt>
      <trkpt lat="47.58716" lon="6.74937">
        <ele>408</ele>
        <time>2016-04-10T08:16:37.000Z</time>
      </trkpt>
      <trkpt lat="47.58716" lon="6.74941">
        <ele>408</ele>
        <time>2016-04-10T08:16:38.000Z</time>
      </trkpt>
      <trkpt lat="47.58716" lon="6.74945">
        <ele>408</ele>
        <time>2016-04-10T08:16:39.000Z</time>
      </trkpt>
      <trkpt lat="47.58717" lon="6.74949">
        <ele>408</ele>
        <time>2016-04-10T08:16:40.000Z</time>
      </trkpt>
      <trkpt lat="47.58718" lon="6.74953">
        <ele>408</ele>
        <time>2016-04-10T08:16:41.000Z</time>
      </trkpt>
      <trkpt lat="47.5872" lon="6.74957">
        <ele>408</ele>
        <time>2016-04-10T08:16:42.000Z</time>
      </trkpt>
      <trkpt lat="47.58721" lon="6.74961">
        <ele>409</ele>
        <time>2016-04-10T08:16:43.000Z</time>
      </trkpt>
      <trkpt lat="47.58722" lon="6.74965">
        <ele>409</ele>
        <time>2016-04-10T08:16:44.000Z</time>
      </trkpt>
      <trkpt lat="47.58722" lon="6.74969">
        <ele>409</ele>
        <time>2016-04-10T08:16:45.000Z</time>
      </trkpt>
      <trkpt lat="47.58722" lon="6.74973">
        <ele>409</ele>
        <time>2016-04-10T08:16:46.000Z</time>
      </trkpt>
      <trkpt lat="47.58723" lon="6.74976">
        <ele>409</ele>
        <time>2016-04-10T08:16:47.000Z</time>
      </trkpt>
      <trkpt lat="47.58723" lon="6.7498">
        <ele>410</ele>
        <time>2016-04-10T08:16:48.000Z</time>
      </trkpt>
      <trkpt lat="47.58723" lon="6.74984">
        <ele>410</ele>
        <time>2016-04-10T08:16:49.000Z</time>
      </trkpt>
      <trkpt lat="47.58724" lon="6.74986">
        <ele>410</ele>
        <time>2016-04-10T08:16:50.000Z</time>
      </trkpt>
      <trkpt lat="47.58725" lon="6.74991">
        <ele>411</ele>
        <time>2016-04-10T08:16:52.000Z</time>
      </trkpt>
      <trkpt lat="47.58726" lon="6.74994">
        <ele>411</ele>
        <time>2016-04-10T08:16:53.000Z</time>
      </trkpt>
      <trkpt lat="47.58727" lon="6.74996">
        <ele>411</ele>
        <time>2016-04-10T08:16:54.000Z</time>
      </trkpt>
      <trkpt lat="47.58728" lon="6.74999">
        <ele>412</ele>
        <time>2016-04-10T08:16:55.000Z</time>
      </trkpt>
      <trkpt lat="47.5873" lon="6.75003">
        <ele>413</ele>
        <time>2016-04-10T08:16:56.000Z</time>
      </trkpt>
      <trkpt lat="47.58731" lon="6.75006">
        <ele>413</ele>
        <time>2016-04-10T08:16:57.000Z</time>
      </trkpt>
      <trkpt lat="47.58733" lon="6.7501">
        <ele>413</ele>
        <time>2016-04-10T08:16:58.000Z</time>
      </trkpt>
      <trkpt lat="47.58734" lon="6.75014">
        <ele>413</ele>
        <time>2016-04-10T08:16:59.000Z</time>
      </trkpt>
      <trkpt lat="47.58736" lon="6.75017">
        <ele>413</ele>
        <time>2016-04-10T08:17:00.000Z</time>
      </trkpt>
      <trkpt lat="47.58738" lon="6.7502">
        <ele>413</ele>
        <time>2016-04-10T08:17:01.000Z</time>
      </trkpt>
      <trkpt lat="47.58739" lon="6.75023">
        <ele>413</ele>
        <time>2016-04-10T08:17:02.000Z</time>
      </trkpt>
      <trkpt lat="47.5874" lon="6.75026">
        <ele>413</ele>
        <time>2016-04-10T08:17:03.000Z</time>
      </trkpt>
      <trkpt lat="47.58741" lon="6.75029">
        <ele>413</ele>
        <time>2016-04-10T08:17:04.000Z</time>
      </trkpt>
      <trkpt lat="47.58742" lon="6.75033">
        <ele>413</ele>
        <time>2016-04-10T08:17:05.000Z</time>
      </trkpt>
      <trkpt lat="47.58743" lon="6.75038">
        <ele>412</ele>
        <time>2016-04-10T08:17:06.000Z</time>
      </trkpt>
      <trkpt lat="47.58743" lon="6.75042">
        <ele>412</ele>
        <time>2016-04-10T08:17:07.000Z</time>
      </trkpt>
      <trkpt lat="47.58743" lon="6.75046">
        <ele>413</ele>
        <time>2016-04-10T08:17:08.000Z</time>
      </trkpt>
      <trkpt lat="47.58744" lon="6.75049">
        <ele>413</ele>
        <time>2016-04-10T08:17:09.000Z</time>
      </trkpt>
      <trkpt lat="47.58747" lon="6.75054">
        <ele>413</ele>
        <time>2016-04-10T08:17:11.000Z</time>
      </trkpt>
      <trkpt lat="47.58748" lon="6.75057">
        <ele>413</ele>
        <time>2016-04-10T08:17:12.000Z</time>
      </trkpt>
      <trkpt lat="47.58749" lon="6.7506">
        <ele>414</ele>
        <time>2016-04-10T08:17:13.000Z</time>
      </trkpt>
      <trkpt lat="47.5875" lon="6.75063">
        <ele>423</ele>
        <time>2016-04-10T08:17:14.000Z</time>
      </trkpt>
      <trkpt lat="47.58751" lon="6.75066">
        <ele>422</ele>
        <time>2016-04-10T08:17:15.000Z</time>
      </trkpt>
      <trkpt lat="47.58753" lon="6.75069">
        <ele>422</ele>
        <time>2016-04-10T08:17:16.000Z</time>
      </trkpt>
      <trkpt lat="47.58755" lon="6.75073">
        <ele>422</ele>
        <time>2016-04-10T08:17:18.000Z</time>
      </trkpt>
      <trkpt lat="47.58757" lon="6.75076">
        <ele>421</ele>
        <time>2016-04-10T08:17:19.000Z</time>
      </trkpt>
      <trkpt lat="47.58759" lon="6.75081">
        <ele>421</ele>
        <time>2016-04-10T08:17:21.000Z</time>
      </trkpt>
      <trkpt lat="47.5876" lon="6.75083">
        <ele>421</ele>
        <time>2016-04-10T08:17:22.000Z</time>
      </trkpt>
      <trkpt lat="47.58762" lon="6.75085">
        <ele>421</ele>
        <time>2016-04-10T08:17:23.000Z</time>
      </trkpt>
      <trkpt lat="47.58764" lon="6.75088">
        <ele>421</ele>
        <time>2016-04-10T08:17:24.000Z</time>
      </trkpt>
      <trkpt lat="47.58766" lon="6.75091">
        <ele>421</ele>
        <time>2016-04-10T08:17:25.000Z</time>
      </trkpt>
      <trkpt lat="47.58768" lon="6.75093">
        <ele>422</ele>
        <time>2016-04-10T08:17:26.000Z</time>
      </trkpt>
      <trkpt lat="47.5877" lon="6.75096">
        <ele>422</ele>
        <time>2016-04-10T08:17:27.000Z</time>
      </trkpt>
      <trkpt lat="47.58772" lon="6.75098">
        <ele>422</ele>
        <time>2016-04-10T08:17:28.000Z</time>
      </trkpt>
      <trkpt lat="47.58775" lon="6.75102">
        <ele>422</ele>
        <time>2016-04-10T08:17:30.000Z</time>
      </trkpt>
      <trkpt lat="47.58776" lon="6.75105">
        <ele>423</ele>
        <time>2016-04-10T08:17:31.000Z</time>
      </trkpt>
      <trkpt lat="47.58778" lon="6.7511">
        <ele>423</ele>
        <time>2016-04-10T08:17:33.000Z</time>
      </trkpt>
      <trkpt lat="47.5878" lon="6.75113">
        <ele>423</ele>
        <time>2016-04-10T08:17:34.000Z</time>
      </trkpt>
      <trkpt lat="47.58781" lon="6.75116">
        <ele>423</ele>
        <time>2016-04-10T08:17:35.000Z</time>
      </trkpt>
      <trkpt lat="47.58782" lon="6.75119">
        <ele>423</ele>
        <time>2016-04-10T08:17:36.000Z</time>
      </trkpt>
      <trkpt lat="47.58783" lon="6.75122">
        <ele>423</ele>
        <time>2016-04-10T08:17:37.000Z</time>
      </trkpt>
      <trkpt lat="47.58784" lon="6.75125">
        <ele>423</ele>
        <time>2016-04-10T08:17:38.000Z</time>
      </trkpt>
      <trkpt lat="47.58786" lon="6.7513">
        <ele>423</ele>
        <time>2016-04-10T08:17:40.000Z</time>
      </trkpt>
      <trkpt lat="47.58788" lon="6.75133">
        <ele>423</ele>
        <time>2016-04-10T08:17:41.000Z</time>
      </trkpt>
      <trkpt lat="47.58789" lon="6.75136">
        <ele>423</ele>
        <time>2016-04-10T08:17:42.000Z</time>
      </trkpt>
      <trkpt lat="47.5879" lon="6.75139">
        <ele>423</ele>
        <time>2016-04-10T08:17:43.000Z</time>
      </trkpt>
      <trkpt lat="47.58792" lon="6.75142">
        <ele>423</ele>
        <time>2016-04-10T08:17:44.000Z</time>
      </trkpt>
      <trkpt lat="47.58794" lon="6.75144">
        <ele>423</ele>
        <time>2016-04-10T08:17:45.000Z</time>
      </trkpt>
      <trkpt lat="47.58795" lon="6.75147">
        <ele>423</ele>
        <time>2016-04-10T08:17:46.000Z</time>
      </trkpt>
      <trkpt lat="47.58797" lon="6.7515">
        <ele>423</ele>
        <time>2016-04-10T08:17:47.000Z</time>
      </trkpt>
      <trkpt lat="47.58799" lon="6.75152">
        <ele>424</ele>
        <time>2016-04-10T08:17:48.000Z</time>
      </trkpt>
      <trkpt lat="47.58801" lon="6.75154">
        <ele>424</ele>
        <time>2016-04-10T08:17:49.000Z</time>
      </trkpt>
      <trkpt lat="47.58803" lon="6.75157">
        <ele>424</ele>
        <time>2016-04-10T08:17:50.000Z</time>
      </trkpt>
      <trkpt lat="47.58805" lon="6.75159">
        <ele>424</ele>
        <time>2016-04-10T08:17:51.000Z</time>
      </trkpt>
      <trkpt lat="47.58806" lon="6.75161">
        <ele>424</ele>
        <time>2016-04-10T08:17:52.000Z</time>
      </trkpt>
      <trkpt lat="47.58808" lon="6.75164">
        <ele>425</ele>
        <time>2016-04-10T08:17:53.000Z</time>
      </trkpt>
      <trkpt lat="47.58811" lon="6.75168">
        <ele>422</ele>
        <time>2016-04-10T08:17:55.000Z</time>
      </trkpt>
      <trkpt lat="47.58813" lon="6.7517">
        <ele>422</ele>
        <time>2016-04-10T08:17:56.000Z</time>
      </trkpt>
      <trkpt lat="47.58815" lon="6.75172">
        <ele>422</ele>
        <time>2016-04-10T08:17:57.000Z</time>
      </trkpt>
      <trkpt lat="47.58817" lon="6.75173">
        <ele>423</ele>
        <time>2016-04-10T08:17:58.000Z</time>
      </trkpt>
      <trkpt lat="47.5882" lon="6.75174">
        <ele>423</ele>
        <time>2016-04-10T08:17:59.000Z</time>
      </trkpt>
      <trkpt lat="47.58823" lon="6.75175">
        <ele>424</ele>
        <time>2016-04-10T08:18:00.000Z</time>
      </trkpt>
      <trkpt lat="47.58827" lon="6.75177">
        <ele>424</ele>
        <time>2016-04-10T08:18:02.000Z</time>
      </trkpt>
      <trkpt lat="47.58828" lon="6.75179">
        <ele>424</ele>
        <time>2016-04-10T08:18:03.000Z</time>
      </trkpt>
      <trkpt lat="47.5883" lon="6.75182">
        <ele>423</ele>
        <time>2016-04-10T08:18:05.000Z</time>
      </trkpt>
      <trkpt lat="47.58831" lon="6.75184">
        <ele>423</ele>
        <time>2016-04-10T08:18:06.000Z</time>
      </trkpt>
      <trkpt lat="47.58833" lon="6.75187">
        <ele>423</ele>
        <time>2016-04-10T08:18:08.000Z</time>
      </trkpt>
      <trkpt lat="47.58835" lon="6.75189">
        <ele>431</ele>
        <time>2016-04-10T08:18:09.000Z</time>
      </trkpt>
      <trkpt lat="47.58837" lon="6.75193">
        <ele>431</ele>
        <time>2016-04-10T08:18:11.000Z</time>
      </trkpt>
      <trkpt lat="47.58839" lon="6.75195">
        <ele>432</ele>
        <time>2016-04-10T08:18:12.000Z</time>
      </trkpt>
      <trkpt lat="47.5884" lon="6.75197">
        <ele>432</ele>
        <time>2016-04-10T08:18:13.000Z</time>
      </trkpt>
      <trkpt lat="47.58842" lon="6.752">
        <ele>432</ele>
        <time>2016-04-10T08:18:14.000Z</time>
      </trkpt>
      <trkpt lat="47.58844" lon="6.75203">
        <ele>432</ele>
        <time>2016-04-10T08:18:15.000Z</time>
      </trkpt>
      <trkpt lat="47.58846" lon="6.75206">
        <ele>432</ele>
        <time>2016-04-10T08:18:16.000Z</time>
      </trkpt>
      <trkpt lat="47.58848" lon="6.75209">
        <ele>432</ele>
        <time>2016-04-10T08:18:17.000Z</time>
      </trkpt>
      <trkpt lat="47.5885" lon="6.75213">
        <ele>432</ele>
        <time>2016-04-10T08:18:18.000Z</time>
      </trkpt>
      <trkpt lat="47.58853" lon="6.75216">
        <ele>432</ele>
        <time>2016-04-10T08:18:19.000Z</time>
      </trkpt>
      <trkpt lat="47.58855" lon="6.75219">
        <ele>432</ele>
        <time>2016-04-10T08:18:20.000Z</time>
      </trkpt>
      <trkpt lat="47.58857" lon="6.75221">
        <ele>432</ele>
        <time>2016-04-10T08:18:21.000Z</time>
      </trkpt>
      <trkpt lat="47.58859" lon="6.75223">
        <ele>432</ele>
        <time>2016-04-10T08:18:22.000Z</time>
      </trkpt>
      <trkpt lat="47.58861" lon="6.75225">
        <ele>432</ele>
        <time>2016-04-10T08:18:23.000Z</time>
      </trkpt>
      <trkpt lat="47.58862" lon="6.75228">
        <ele>432</ele>
        <time>2016-04-10T08:18:24.000Z</time>
      </trkpt>
      <trkpt lat="47.58866" lon="6.75232">
        <ele>433</ele>
        <time>2016-04-10T08:18:26.000Z</time>
      </trkpt>
      <trkpt lat="47.58867" lon="6.75234">
        <ele>433</ele>
        <time>2016-04-10T08:18:27.000Z</time>
      </trkpt>
      <trkpt lat="47.58869" lon="6.75238">
        <ele>433</ele>
        <time>2016-04-10T08:18:29.000Z</time>
      </trkpt>
      <trkpt lat="47.5887" lon="6.7524">
        <ele>433</ele>
        <time>2016-04-10T08:18:30.000Z</time>
      </trkpt>
      <trkpt lat="47.58872" lon="6.75243">
        <ele>433</ele>
        <time>2016-04-10T08:18:32.000Z</time>
      </trkpt>
      <trkpt lat="47.58873" lon="6.75245">
        <ele>434</ele>
        <time>2016-04-10T08:18:33.000Z</time>
      </trkpt>
      <trkpt lat="47.58875" lon="6.75249">
        <ele>434</ele>
        <time>2016-04-10T08:18:35.000Z</time>
      </trkpt>
      <trkpt lat="47.58876" lon="6.75251">
        <ele>431</ele>
        <time>2016-04-10T08:18:36.000Z</time>
      </trkpt>
      <trkpt lat="47.58879" lon="6.75256">
        <ele>431</ele>
        <time>2016-04-10T08:18:38.000Z</time>
      </trkpt>
      <trkpt lat="47.58881" lon="6.75259">
        <ele>431</ele>
        <time>2016-04-10T08:18:39.000Z</time>
      </trkpt>
      <trkpt lat="47.58883" lon="6.75262">
        <ele>432</ele>
        <time>2016-04-10T08:18:40.000Z</time>
      </trkpt>
      <trkpt lat="47.58885" lon="6.75265">
        <ele>432</ele>
        <time>2016-04-10T08:18:41.000Z</time>
      </trkpt>
      <trkpt lat="47.58887" lon="6.75269">
        <ele>432</ele>
        <time>2016-04-10T08:18:42.000Z</time>
      </trkpt>
      <trkpt lat="47.58889" lon="6.75273">
        <ele>432</ele>
        <time>2016-04-10T08:18:43.000Z</time>
      </trkpt>
      <trkpt lat="47.58891" lon="6.75277">
        <ele>432</ele>
        <time>2016-04-10T08:18:44.000Z</time>
      </trkpt>
      <trkpt lat="47.58893" lon="6.75281">
        <ele>432</ele>
        <time>2016-04-10T08:18:45.000Z</time>
      </trkpt>
      <trkpt lat="47.58894" lon="6.75284">
        <ele>432</ele>
        <time>2016-04-10T08:18:46.000Z</time>
      </trkpt>
      <trkpt lat="47.58896" lon="6.75288">
        <ele>432</ele>
        <time>2016-04-10T08:18:47.000Z</time>
      </trkpt>
      <trkpt lat="47.58898" lon="6.75292">
        <ele>432</ele>
        <time>2016-04-10T08:18:48.000Z</time>
      </trkpt>
      <trkpt lat="47.58899" lon="6.75296">
        <ele>432</ele>
        <time>2016-04-10T08:18:49.000Z</time>
      </trkpt>
      <trkpt lat="47.58901" lon="6.753">
        <ele>432</ele>
        <time>2016-04-10T08:18:50.000Z</time>
      </trkpt>
      <trkpt lat="47.58902" lon="6.75304">
        <ele>432</ele>
        <time>2016-04-10T08:18:51.000Z</time>
      </trkpt>
      <trkpt lat="47.58904" lon="6.75307">
        <ele>432</ele>
        <time>2016-04-10T08:18:52.000Z</time>
      </trkpt>
      <trkpt lat="47.58905" lon="6.7531">
        <ele>432</ele>
        <time>2016-04-10T08:18:53.000Z</time>
      </trkpt>
      <trkpt lat="47.58906" lon="6.75313">
        <ele>432</ele>
        <time>2016-04-10T08:18:54.000Z</time>
      </trkpt>
      <trkpt lat="47.58907" lon="6.75316">
        <ele>433</ele>
        <time>2016-04-10T08:18:55.000Z</time>
      </trkpt>
      <trkpt lat="47.58908" lon="6.75319">
        <ele>433</ele>
        <time>2016-04-10T08:18:56.000Z</time>
      </trkpt>
      <trkpt lat="47.58909" lon="6.75322">
        <ele>433</ele>
        <time>2016-04-10T08:18:57.000Z</time>
      </trkpt>
      <trkpt lat="47.58911" lon="6.75328">
        <ele>434</ele>
        <time>2016-04-10T08:18:59.000Z</time>
      </trkpt>
      <trkpt lat="47.58913" lon="6.7533">
        <ele>435</ele>
        <time>2016-04-10T08:19:00.000Z</time>
      </trkpt>
      <trkpt lat="47.58914" lon="6.75333">
        <ele>435</ele>
        <time>2016-04-10T08:19:01.000Z</time>
      </trkpt>
      <trkpt lat="47.58915" lon="6.75336">
        <ele>435</ele>
        <time>2016-04-10T08:19:02.000Z</time>
      </trkpt>
      <trkpt lat="47.58916" lon="6.7534">
        <ele>434</ele>
        <time>2016-04-10T08:19:03.000Z</time>
      </trkpt>
      <trkpt lat="47.58917" lon="6.75343">
        <ele>439</ele>
        <time>2016-04-10T08:19:04.000Z</time>
      </trkpt>
      <trkpt lat="47.58919" lon="6.75348">
        <ele>440</ele>
        <time>2016-04-10T08:19:06.000Z</time>
      </trkpt>
      <trkpt lat="47.5892" lon="6.75351">
        <ele>441</ele>
        <time>2016-04-10T08:19:07.000Z</time>
      </trkpt>
      <trkpt lat="47.58921" lon="6.75354">
        <ele>442</ele>
        <time>2016-04-10T08:19:08.000Z</time>
      </trkpt>
      <trkpt lat="47.58922" lon="6.75357">
        <ele>442</ele>
        <time>2016-04-10T08:19:09.000Z</time>
      </trkpt>
      <trkpt lat="47.58924" lon="6.7536">
        <ele>442</ele>
        <time>2016-04-10T08:19:10.000Z</time>
      </trkpt>
      <trkpt lat="47.58925" lon="6.75363">
        <ele>443</ele>
        <time>2016-04-10T08:19:11.000Z</time>
      </trkpt>
      <trkpt lat="47.58927" lon="6.75369">
        <ele>443</ele>
        <time>2016-04-10T08:19:13.000Z</time>
      </trkpt>
      <trkpt lat="47.58928" lon="6.75371">
        <ele>443</ele>
        <time>2016-04-10T08:19:14.000Z</time>
      </trkpt>
      <trkpt lat="47.58931" lon="6.75376">
        <ele>443</ele>
        <time>2016-04-10T08:19:16.000Z</time>
      </trkpt>
      <trkpt lat="47.58933" lon="6.75378">
        <ele>444</ele>
        <time>2016-04-10T08:19:17.000Z</time>
      </trkpt>
      <trkpt lat="47.58935" lon="6.75383">
        <ele>444</ele>
        <time>2016-04-10T08:19:19.000Z</time>
      </trkpt>
      <trkpt lat="47.58935" lon="6.75386">
        <ele>444</ele>
        <time>2016-04-10T08:19:20.000Z</time>
      </trkpt>
      <trkpt lat="47.58936" lon="6.75392">
        <ele>443</ele>
        <time>2016-04-10T08:19:22.000Z</time>
      </trkpt>
      <trkpt lat="47.58937" lon="6.75395">
        <ele>443</ele>
        <time>2016-04-10T08:19:23.000Z</time>
      </trkpt>
      <trkpt lat="47.58937" lon="6.75399">
        <ele>443</ele>
        <time>2016-04-10T08:19:24.000Z</time>
      </trkpt>
      <trkpt lat="47.58938" lon="6.75402">
        <ele>443</ele>
        <time>2016-04-10T08:19:25.000Z</time>
      </trkpt>
      <trkpt lat="47.58939" lon="6.75405">
        <ele>443</ele>
        <time>2016-04-10T08:19:26.000Z</time>
      </trkpt>
      <trkpt lat="47.5894" lon="6.75409">
        <ele>443</ele>
        <time>2016-04-10T08:19:27.000Z</time>
      </trkpt>
      <trkpt lat="47.58941" lon="6.75412">
        <ele>443</ele>
        <time>2016-04-10T08:19:28.000Z</time>
      </trkpt>
      <trkpt lat="47.58942" lon="6.75414">
        <ele>443</ele>
        <time>2016-04-10T08:19:29.000Z</time>
      </trkpt>
      <trkpt lat="47.58945" lon="6.7542">
        <ele>443</ele>
        <time>2016-04-10T08:19:31.000Z</time>
      </trkpt>
      <trkpt lat="47.58946" lon="6.75422">
        <ele>443</ele>
        <time>2016-04-10T08:19:32.000Z</time>
      </trkpt>
      <trkpt lat="47.58948" lon="6.75427">
        <ele>443</ele>
        <time>2016-04-10T08:19:34.000Z</time>
      </trkpt>
      <trkpt lat="47.58949" lon="6.7543">
        <ele>444</ele>
        <time>2016-04-10T08:19:35.000Z</time>
      </trkpt>
      <trkpt lat="47.5895" lon="6.75436">
        <ele>444</ele>
        <time>2016-04-10T08:19:37.000Z</time>
      </trkpt>
      <trkpt lat="47.58951" lon="6.75439">
        <ele>444</ele>
        <time>2016-04-10T08:19:38.000Z</time>
      </trkpt>
      <trkpt lat="47.58953" lon="6.75444">
        <ele>444</ele>
        <time>2016-04-10T08:19:40.000Z</time>
      </trkpt>
      <trkpt lat="47.58954" lon="6.75448">
        <ele>444</ele>
        <time>2016-04-10T08:19:41.000Z</time>
      </trkpt>
      <trkpt lat="47.58955" lon="6.75454">
        <ele>445</ele>
        <time>2016-04-10T08:19:43.000Z</time>
      </trkpt>
      <trkpt lat="47.58956" lon="6.75457">
        <ele>445</ele>
        <time>2016-04-10T08:19:44.000Z</time>
      </trkpt>
      <trkpt lat="47.58956" lon="6.7546">
        <ele>445</ele>
        <time>2016-04-10T08:19:45.000Z</time>
      </trkpt>
      <trkpt lat="47.58957" lon="6.75464">
        <ele>445</ele>
        <time>2016-04-10T08:19:46.000Z</time>
      </trkpt>
      <trkpt lat="47.58958" lon="6.75467">
        <ele>445</ele>
        <time>2016-04-10T08:19:47.000Z</time>
      </trkpt>
      <trkpt lat="47.58959" lon="6.75471">
        <ele>445</ele>
        <time>2016-04-10T08:19:48.000Z</time>
      </trkpt>
      <trkpt lat="47.58959" lon="6.75474">
        <ele>445</ele>
        <time>2016-04-10T08:19:49.000Z</time>
      </trkpt>
      <trkpt lat="47.5896" lon="6.75478">
        <ele>445</ele>
        <time>2016-04-10T08:19:50.000Z</time>
      </trkpt>
      <trkpt lat="47.58961" lon="6.75481">
        <ele>445</ele>
        <time>2016-04-10T08:19:51.000Z</time>
      </trkpt>
      <trkpt lat="47.58961" lon="6.75484">
        <ele>445</ele>
        <time>2016-04-10T08:19:52.000Z</time>
      </trkpt>
      <trkpt lat="47.58962" lon="6.75488">
        <ele>445</ele>
        <time>2016-04-10T08:19:53.000Z</time>
      </trkpt>
      <trkpt lat="47.58963" lon="6.75492">
        <ele>445</ele>
        <time>2016-04-10T08:19:54.000Z</time>
      </trkpt>
      <trkpt lat="47.58964" lon="6.75496">
        <ele>446</ele>
        <time>2016-04-10T08:19:55.000Z</time>
      </trkpt>
      <trkpt lat="47.58965" lon="6.755">
        <ele>446</ele>
        <time>2016-04-10T08:19:56.000Z</time>
      </trkpt>
      <trkpt lat="47.58966" lon="6.75503">
        <ele>446</ele>
        <time>2016-04-10T08:19:57.000Z</time>
      </trkpt>
      <trkpt lat="47.58968" lon="6.75507">
        <ele>446</ele>
        <time>2016-04-10T08:19:58.000Z</time>
      </trkpt>
      <trkpt lat="47.58969" lon="6.7551">
        <ele>446</ele>
        <time>2016-04-10T08:19:59.000Z</time>
      </trkpt>
      <trkpt lat="47.5897" lon="6.75514">
        <ele>446</ele>
        <time>2016-04-10T08:20:00.000Z</time>
      </trkpt>
      <trkpt lat="47.58971" lon="6.75518">
        <ele>446</ele>
        <time>2016-04-10T08:20:01.000Z</time>
      </trkpt>
      <trkpt lat="47.58972" lon="6.75521">
        <ele>446</ele>
        <time>2016-04-10T08:20:02.000Z</time>
      </trkpt>
      <trkpt lat="47.58973" lon="6.75525">
        <ele>446</ele>
        <time>2016-04-10T08:20:03.000Z</time>
      </trkpt>
      <trkpt lat="47.58973" lon="6.75528">
        <ele>446</ele>
        <time>2016-04-10T08:20:04.000Z</time>
      </trkpt>
      <trkpt lat="47.58973" lon="6.75534">
        <ele>446</ele>
        <time>2016-04-10T08:20:06.000Z</time>
      </trkpt>
      <trkpt lat="47.58974" lon="6.75537">
        <ele>446</ele>
        <time>2016-04-10T08:20:07.000Z</time>
      </trkpt>
      <trkpt lat="47.58975" lon="6.7554">
        <ele>446</ele>
        <time>2016-04-10T08:20:08.000Z</time>
      </trkpt>
      <trkpt lat="47.58976" lon="6.75544">
        <ele>446</ele>
        <time>2016-04-10T08:20:09.000Z</time>
      </trkpt>
      <trkpt lat="47.58977" lon="6.75547">
        <ele>446</ele>
        <time>2016-04-10T08:20:10.000Z</time>
      </trkpt>
      <trkpt lat="47.58978" lon="6.7555">
        <ele>446</ele>
        <time>2016-04-10T08:20:11.000Z</time>
      </trkpt>
      <trkpt lat="47.58979" lon="6.75554">
        <ele>447</ele>
        <time>2016-04-10T08:20:12.000Z</time>
      </trkpt>
      <trkpt lat="47.5898" lon="6.75557">
        <ele>447</ele>
        <time>2016-04-10T08:20:13.000Z</time>
      </trkpt>
      <trkpt lat="47.58981" lon="6.75561">
        <ele>447</ele>
        <time>2016-04-10T08:20:14.000Z</time>
      </trkpt>
      <trkpt lat="47.58983" lon="6.75564">
        <ele>447</ele>
        <time>2016-04-10T08:20:15.000Z</time>
      </trkpt>
      <trkpt lat="47.58984" lon="6.75567">
        <ele>448</ele>
        <time>2016-04-10T08:20:16.000Z</time>
      </trkpt>
      <trkpt lat="47.58985" lon="6.7557">
        <ele>448</ele>
        <time>2016-04-10T08:20:17.000Z</time>
      </trkpt>
      <trkpt lat="47.58986" lon="6.75573">
        <ele>449</ele>
        <time>2016-04-10T08:20:18.000Z</time>
      </trkpt>
      <trkpt lat="47.58986" lon="6.75577">
        <ele>449</ele>
        <time>2016-04-10T08:20:19.000Z</time>
      </trkpt>
      <trkpt lat="47.58987" lon="6.75583">
        <ele>449</ele>
        <time>2016-04-10T08:20:21.000Z</time>
      </trkpt>
      <trkpt lat="47.58988" lon="6.75586">
        <ele>450</ele>
        <time>2016-04-10T08:20:22.000Z</time>
      </trkpt>
      <trkpt lat="47.58988" lon="6.7559">
        <ele>450</ele>
        <time>2016-04-10T08:20:23.000Z</time>
      </trkpt>
      <trkpt lat="47.58989" lon="6.75593">
        <ele>449</ele>
        <time>2016-04-10T08:20:24.000Z</time>
      </trkpt>
      <trkpt lat="47.5899" lon="6.75596">
        <ele>449</ele>
        <time>2016-04-10T08:20:25.000Z</time>
      </trkpt>
      <trkpt lat="47.5899" lon="6.75599">
        <ele>449</ele>
        <time>2016-04-10T08:20:26.000Z</time>
      </trkpt>
      <trkpt lat="47.58991" lon="6.75603">
        <ele>449</ele>
        <time>2016-04-10T08:20:27.000Z</time>
      </trkpt>
      <trkpt lat="47.58992" lon="6.75606">
        <ele>448</ele>
        <time>2016-04-10T08:20:28.000Z</time>
      </trkpt>
      <trkpt lat="47.58993" lon="6.7561">
        <ele>448</ele>
        <time>2016-04-10T08:20:29.000Z</time>
      </trkpt>
      <trkpt lat="47.58993" lon="6.75613">
        <ele>448</ele>
        <time>2016-04-10T08:20:30.000Z</time>
      </trkpt>
      <trkpt lat="47.58994" lon="6.75616">
        <ele>448</ele>
        <time>2016-04-10T08:20:31.000Z</time>
      </trkpt>
      <trkpt lat="47.58994" lon="6.7562">
        <ele>448</ele>
        <time>2016-04-10T08:20:32.000Z</time>
      </trkpt>
      <trkpt lat="47.58995" lon="6.75623">
        <ele>448</ele>
        <time>2016-04-10T08:20:33.000Z</time>
      </trkpt>
      <trkpt lat="47.58996" lon="6.75626">
        <ele>448</ele>
        <time>2016-04-10T08:20:34.000Z</time>
      </trkpt>
      <trkpt lat="47.58997" lon="6.7563">
        <ele>448</ele>
        <time>2016-04-10T08:20:35.000Z</time>
      </trkpt>
      <trkpt lat="47.58997" lon="6.75633">
        <ele>448</ele>
        <time>2016-04-10T08:20:36.000Z</time>
      </trkpt>
      <trkpt lat="47.58999" lon="6.75638">
        <ele>448</ele>
        <time>2016-04-10T08:20:38.000Z</time>
      </trkpt>
      <trkpt lat="47.59" lon="6.75641">
        <ele>449</ele>
        <time>2016-04-10T08:20:39.000Z</time>
      </trkpt>
      <trkpt lat="47.59001" lon="6.75646">
        <ele>456</ele>
        <time>2016-04-10T08:20:41.000Z</time>
      </trkpt>
      <trkpt lat="47.59002" lon="6.7565">
        <ele>456</ele>
        <time>2016-04-10T08:20:42.000Z</time>
      </trkpt>
      <trkpt lat="47.59003" lon="6.75653">
        <ele>456</ele>
        <time>2016-04-10T08:20:43.000Z</time>
      </trkpt>
      <trkpt lat="47.59003" lon="6.75656">
        <ele>455</ele>
        <time>2016-04-10T08:20:44.000Z</time>
      </trkpt>
      <trkpt lat="47.59005" lon="6.75661">
        <ele>455</ele>
        <time>2016-04-10T08:20:46.000Z</time>
      </trkpt>
      <trkpt lat="47.59006" lon="6.75664">
        <ele>455</ele>
        <time>2016-04-10T08:20:47.000Z</time>
      </trkpt>
      <trkpt lat="47.59008" lon="6.75669">
        <ele>455</ele>
        <time>2016-04-10T08:20:49.000Z</time>
      </trkpt>
      <trkpt lat="47.59009" lon="6.75672">
        <ele>455</ele>
        <time>2016-04-10T08:20:50.000Z</time>
      </trkpt>
      <trkpt lat="47.5901" lon="6.75675">
        <ele>455</ele>
        <time>2016-04-10T08:20:51.000Z</time>
      </trkpt>
      <trkpt lat="47.59011" lon="6.75678">
        <ele>455</ele>
        <time>2016-04-10T08:20:52.000Z</time>
      </trkpt>
      <trkpt lat="47.59013" lon="6.75684">
        <ele>456</ele>
        <time>2016-04-10T08:20:54.000Z</time>
      </trkpt>
      <trkpt lat="47.59014" lon="6.75687">
        <ele>456</ele>
        <time>2016-04-10T08:20:55.000Z</time>
      </trkpt>
      <trkpt lat="47.59016" lon="6.75691">
        <ele>456</ele>
        <time>2016-04-10T08:20:57.000Z</time>
      </trkpt>
      <trkpt lat="47.59017" lon="6.75693">
        <ele>456</ele>
        <time>2016-04-10T08:20:58.000Z</time>
      </trkpt>
      <trkpt lat="47.59019" lon="6.75698">
        <ele>457</ele>
        <time>2016-04-10T08:21:00.000Z</time>
      </trkpt>
      <trkpt lat="47.5902" lon="6.757">
        <ele>457</ele>
        <time>2016-04-10T08:21:01.000Z</time>
      </trkpt>
      <trkpt lat="47.59021" lon="6.75703">
        <ele>457</ele>
        <time>2016-04-10T08:21:02.000Z</time>
      </trkpt>
      <trkpt lat="47.59022" lon="6.75706">
        <ele>457</ele>
        <time>2016-04-10T08:21:03.000Z</time>
      </trkpt>
      <trkpt lat="47.59024" lon="6.75708">
        <ele>457</ele>
        <time>2016-04-10T08:21:04.000Z</time>
      </trkpt>
      <trkpt lat="47.59025" lon="6.75711">
        <ele>457</ele>
        <time>2016-04-10T08:21:05.000Z</time>
      </trkpt>
      <trkpt lat="47.59027" lon="6.75716">
        <ele>457</ele>
        <time>2016-04-10T08:21:07.000Z</time>
      </trkpt>
      <trkpt lat="47.59028" lon="6.75719">
        <ele>457</ele>
        <time>2016-04-10T08:21:08.000Z</time>
      </trkpt>
      <trkpt lat="47.59029" lon="6.75722">
        <ele>457</ele>
        <time>2016-04-10T08:21:10.000Z</time>
      </trkpt>
      <trkpt lat="47.5903" lon="6.75725">
        <ele>457</ele>
        <time>2016-04-10T08:21:11.000Z</time>
      </trkpt>
      <trkpt lat="47.59031" lon="6.75727">
        <ele>457</ele>
        <time>2016-04-10T08:21:12.000Z</time>
      </trkpt>
      <trkpt lat="47.59033" lon="6.7573">
        <ele>457</ele>
        <time>2016-04-10T08:21:13.000Z</time>
      </trkpt>
      <trkpt lat="47.59035" lon="6.75733">
        <ele>457</ele>
        <time>2016-04-10T08:21:14.000Z</time>
      </trkpt>
      <trkpt lat="47.59036" lon="6.75736">
        <ele>457</ele>
        <time>2016-04-10T08:21:15.000Z</time>
      </trkpt>
      <trkpt lat="47.59038" lon="6.75739">
        <ele>458</ele>
        <time>2016-04-10T08:21:16.000Z</time>
      </trkpt>
      <trkpt lat="47.5904" lon="6.75742">
        <ele>458</ele>
        <time>2016-04-10T08:21:17.000Z</time>
      </trkpt>
      <trkpt lat="47.59041" lon="6.75745">
        <ele>458</ele>
        <time>2016-04-10T08:21:18.000Z</time>
      </trkpt>
      <trkpt lat="47.59043" lon="6.75748">
        <ele>458</ele>
        <time>2016-04-10T08:21:19.000Z</time>
      </trkpt>
      <trkpt lat="47.59045" lon="6.75751">
        <ele>456</ele>
        <time>2016-04-10T08:21:20.000Z</time>
      </trkpt>
      <trkpt lat="47.59047" lon="6.75754">
        <ele>456</ele>
        <time>2016-04-10T08:21:21.000Z</time>
      </trkpt>
      <trkpt lat="47.59048" lon="6.75758">
        <ele>456</ele>
        <time>2016-04-10T08:21:22.000Z</time>
      </trkpt>
      <trkpt lat="47.5905" lon="6.75761">
        <ele>457</ele>
        <time>2016-04-10T08:21:23.000Z</time>
      </trkpt>
      <trkpt lat="47.59051" lon="6.75764">
        <ele>457</ele>
        <time>2016-04-10T08:21:24.000Z</time>
      </trkpt>
      <trkpt lat="47.59053" lon="6.75767">
        <ele>457</ele>
        <time>2016-04-10T08:21:25.000Z</time>
      </trkpt>
      <trkpt lat="47.59055" lon="6.7577">
        <ele>457</ele>
        <time>2016-04-10T08:21:26.000Z</time>
      </trkpt>
      <trkpt lat="47.59056" lon="6.75773">
        <ele>457</ele>
        <time>2016-04-10T08:21:27.000Z</time>
      </trkpt>
      <trkpt lat="47.59058" lon="6.75776">
        <ele>457</ele>
        <time>2016-04-10T08:21:28.000Z</time>
      </trkpt>
      <trkpt lat="47.5906" lon="6.75779">
        <ele>457</ele>
        <time>2016-04-10T08:21:29.000Z</time>
      </trkpt>
      <trkpt lat="47.59063" lon="6.75783">
        <ele>457</ele>
        <time>2016-04-10T08:21:31.000Z</time>
      </trkpt>
      <trkpt lat="47.59064" lon="6.75785">
        <ele>457</ele>
        <time>2016-04-10T08:21:32.000Z</time>
      </trkpt>
      <trkpt lat="47.59065" lon="6.75789">
        <ele>457</ele>
        <time>2016-04-10T08:21:34.000Z</time>
      </trkpt>
      <trkpt lat="47.59067" lon="6.75792">
        <ele>457</ele>
        <time>2016-04-10T08:21:35.000Z</time>
      </trkpt>
      <trkpt lat="47.59068" lon="6.75796">
        <ele>457</ele>
        <time>2016-04-10T08:21:36.000Z</time>
      </trkpt>
      <trkpt lat="47.59069" lon="6.75799">
        <ele>457</ele>
        <time>2016-04-10T08:21:37.000Z</time>
      </trkpt>
      <trkpt lat="47.59071" lon="6.75803">
        <ele>457</ele>
        <time>2016-04-10T08:21:38.000Z</time>
      </trkpt>
      <trkpt lat="47.59072" lon="6.75806">
        <ele>457</ele>
        <time>2016-04-10T08:21:39.000Z</time>
      </trkpt>
      <trkpt lat="47.59074" lon="6.75811">
        <ele>457</ele>
        <time>2016-04-10T08:21:41.000Z</time>
      </trkpt>
      <trkpt lat="47.59076" lon="6.75814">
        <ele>458</ele>
        <time>2016-04-10T08:21:42.000Z</time>
      </trkpt>
      <trkpt lat="47.59078" lon="6.75819">
        <ele>458</ele>
        <time>2016-04-10T08:21:44.000Z</time>
      </trkpt>
      <trkpt lat="47.59079" lon="6.75822">
        <ele>459</ele>
        <time>2016-04-10T08:21:45.000Z</time>
      </trkpt>
      <trkpt lat="47.5908" lon="6.75825">
        <ele>459</ele>
        <time>2016-04-10T08:21:46.000Z</time>
      </trkpt>
      <trkpt lat="47.59082" lon="6.75828">
        <ele>460</ele>
        <time>2016-04-10T08:21:47.000Z</time>
      </trkpt>
      <trkpt lat="47.59084" lon="6.75831">
        <ele>462</ele>
        <time>2016-04-10T08:21:48.000Z</time>
      </trkpt>
      <trkpt lat="47.59085" lon="6.75835">
        <ele>462</ele>
        <time>2016-04-10T08:21:49.000Z</time>
      </trkpt>
      <trkpt lat="47.59087" lon="6.75838">
        <ele>462</ele>
        <time>2016-04-10T08:21:50.000Z</time>
      </trkpt>
      <trkpt lat="47.59088" lon="6.75841">
        <ele>463</ele>
        <time>2016-04-10T08:21:51.000Z</time>
      </trkpt>
      <trkpt lat="47.5909" lon="6.75844">
        <ele>464</ele>
        <time>2016-04-10T08:21:52.000Z</time>
      </trkpt>
      <trkpt lat="47.59091" lon="6.75847">
        <ele>464</ele>
        <time>2016-04-10T08:21:53.000Z</time>
      </trkpt>
      <trkpt lat="47.59092" lon="6.7585">
        <ele>464</ele>
        <time>2016-04-10T08:21:54.000Z</time>
      </trkpt>
      <trkpt lat="47.59093" lon="6.75853">
        <ele>465</ele>
        <time>2016-04-10T08:21:55.000Z</time>
      </trkpt>
      <trkpt lat="47.59094" lon="6.75857">
        <ele>465</ele>
        <time>2016-04-10T08:21:56.000Z</time>
      </trkpt>
      <trkpt lat="47.59095" lon="6.7586">
        <ele>465</ele>
        <time>2016-04-10T08:21:57.000Z</time>
      </trkpt>
      <trkpt lat="47.59097" lon="6.75863">
        <ele>465</ele>
        <time>2016-04-10T08:21:58.000Z</time>
      </trkpt>
      <trkpt lat="47.59098" lon="6.75866">
        <ele>465</ele>
        <time>2016-04-10T08:21:59.000Z</time>
      </trkpt>
      <trkpt lat="47.591" lon="6.75869">
        <ele>466</ele>
        <time>2016-04-10T08:22:00.000Z</time>
      </trkpt>
      <trkpt lat="47.59102" lon="6.75872">
        <ele>466</ele>
        <time>2016-04-10T08:22:01.000Z</time>
      </trkpt>
      <trkpt lat="47.59103" lon="6.75874">
        <ele>466</ele>
        <time>2016-04-10T08:22:02.000Z</time>
      </trkpt>
      <trkpt lat="47.59105" lon="6.75877">
        <ele>466</ele>
        <time>2016-04-10T08:22:03.000Z</time>
      </trkpt>
      <trkpt lat="47.59108" lon="6.75882">
        <ele>466</ele>
        <time>2016-04-10T08:22:05.000Z</time>
      </trkpt>
      <trkpt lat="47.59109" lon="6.75884">
        <ele>466</ele>
        <time>2016-04-10T08:22:06.000Z</time>
      </trkpt>
      <trkpt lat="47.59112" lon="6.75889">
        <ele>466</ele>
        <time>2016-04-10T08:22:08.000Z</time>
      </trkpt>
      <trkpt lat="47.59113" lon="6.75891">
        <ele>466</ele>
        <time>2016-04-10T08:22:09.000Z</time>
      </trkpt>
      <trkpt lat="47.59115" lon="6.75897">
        <ele>466</ele>
        <time>2016-04-10T08:22:11.000Z</time>
      </trkpt>
      <trkpt lat="47.59116" lon="6.759">
        <ele>466</ele>
        <time>2016-04-10T08:22:12.000Z</time>
      </trkpt>
      <trkpt lat="47.59118" lon="6.75905">
        <ele>466</ele>
        <time>2016-04-10T08:22:14.000Z</time>
      </trkpt>
      <trkpt lat="47.59119" lon="6.75907">
        <ele>466</ele>
        <time>2016-04-10T08:22:15.000Z</time>
      </trkpt>
      <trkpt lat="47.5912" lon="6.7591">
        <ele>466</ele>
        <time>2016-04-10T08:22:16.000Z</time>
      </trkpt>
      <trkpt lat="47.59122" lon="6.75913">
        <ele>467</ele>
        <time>2016-04-10T08:22:17.000Z</time>
      </trkpt>
      <trkpt lat="47.59123" lon="6.75916">
        <ele>467</ele>
        <time>2016-04-10T08:22:18.000Z</time>
      </trkpt>
      <trkpt lat="47.59124" lon="6.75919">
        <ele>464</ele>
        <time>2016-04-10T08:22:19.000Z</time>
      </trkpt>
      <trkpt lat="47.59126" lon="6.75923">
        <ele>464</ele>
        <time>2016-04-10T08:22:20.000Z</time>
      </trkpt>
      <trkpt lat="47.59127" lon="6.75926">
        <ele>465</ele>
        <time>2016-04-10T08:22:21.000Z</time>
      </trkpt>
      <trkpt lat="47.59129" lon="6.7593">
        <ele>465</ele>
        <time>2016-04-10T08:22:22.000Z</time>
      </trkpt>
      <trkpt lat="47.5913" lon="6.75933">
        <ele>465</ele>
        <time>2016-04-10T08:22:23.000Z</time>
      </trkpt>
      <trkpt lat="47.59131" lon="6.75939">
        <ele>465</ele>
        <time>2016-04-10T08:22:25.000Z</time>
      </trkpt>
      <trkpt lat="47.59131" lon="6.75941">
        <ele>465</ele>
        <time>2016-04-10T08:22:26.000Z</time>
      </trkpt>
      <trkpt lat="47.59133" lon="6.75944">
        <ele>465</ele>
        <time>2016-04-10T08:22:27.000Z</time>
      </trkpt>
      <trkpt lat="47.59134" lon="6.75947">
        <ele>465</ele>
        <time>2016-04-10T08:22:28.000Z</time>
      </trkpt>
      <trkpt lat="47.59136" lon="6.75951">
        <ele>465</ele>
        <time>2016-04-10T08:22:29.000Z</time>
      </trkpt>
      <trkpt lat="47.59138" lon="6.75954">
        <ele>465</ele>
        <time>2016-04-10T08:22:30.000Z</time>
      </trkpt>
      <trkpt lat="47.5914" lon="6.75958">
        <ele>465</ele>
        <time>2016-04-10T08:22:31.000Z</time>
      </trkpt>
      <trkpt lat="47.59141" lon="6.75961">
        <ele>466</ele>
        <time>2016-04-10T08:22:32.000Z</time>
      </trkpt>
      <trkpt lat="47.59143" lon="6.75964">
        <ele>466</ele>
        <time>2016-04-10T08:22:33.000Z</time>
      </trkpt>
      <trkpt lat="47.59144" lon="6.75967">
        <ele>466</ele>
        <time>2016-04-10T08:22:34.000Z</time>
      </trkpt>
      <trkpt lat="47.59146" lon="6.7597">
        <ele>466</ele>
        <time>2016-04-10T08:22:35.000Z</time>
      </trkpt>
      <trkpt lat="47.59147" lon="6.75973">
        <ele>466</ele>
        <time>2016-04-10T08:22:36.000Z</time>
      </trkpt>
      <trkpt lat="47.59149" lon="6.75976">
        <ele>466</ele>
        <time>2016-04-10T08:22:37.000Z</time>
      </trkpt>
      <trkpt lat="47.59151" lon="6.75978">
        <ele>467</ele>
        <time>2016-04-10T08:22:38.000Z</time>
      </trkpt>
      <trkpt lat="47.59152" lon="6.75981">
        <ele>467</ele>
        <time>2016-04-10T08:22:39.000Z</time>
      </trkpt>
      <trkpt lat="47.59154" lon="6.75984">
        <ele>468</ele>
        <time>2016-04-10T08:22:40.000Z</time>
      </trkpt>
      <trkpt lat="47.59156" lon="6.75989">
        <ele>469</ele>
        <time>2016-04-10T08:22:42.000Z</time>
      </trkpt>
      <trkpt lat="47.59157" lon="6.75992">
        <ele>469</ele>
        <time>2016-04-10T08:22:43.000Z</time>
      </trkpt>
      <trkpt lat="47.59159" lon="6.75997">
        <ele>470</ele>
        <time>2016-04-10T08:22:45.000Z</time>
      </trkpt>
      <trkpt lat="47.5916" lon="6.75999">
        <ele>471</ele>
        <time>2016-04-10T08:22:46.000Z</time>
      </trkpt>
      <trkpt lat="47.59162" lon="6.76004">
        <ele>470</ele>
        <time>2016-04-10T08:22:48.000Z</time>
      </trkpt>
      <trkpt lat="47.59164" lon="6.76007">
        <ele>469</ele>
        <time>2016-04-10T08:22:49.000Z</time>
      </trkpt>
      <trkpt lat="47.59165" lon="6.7601">
        <ele>468</ele>
        <time>2016-04-10T08:22:50.000Z</time>
      </trkpt>
      <trkpt lat="47.59166" lon="6.76013">
        <ele>468</ele>
        <time>2016-04-10T08:22:51.000Z</time>
      </trkpt>
      <trkpt lat="47.59168" lon="6.76016">
        <ele>475</ele>
        <time>2016-04-10T08:22:52.000Z</time>
      </trkpt>
      <trkpt lat="47.59169" lon="6.76019">
        <ele>476</ele>
        <time>2016-04-10T08:22:53.000Z</time>
      </trkpt>
      <trkpt lat="47.5917" lon="6.76022">
        <ele>476</ele>
        <time>2016-04-10T08:22:54.000Z</time>
      </trkpt>
      <trkpt lat="47.59172" lon="6.76025">
        <ele>476</ele>
        <time>2016-04-10T08:22:55.000Z</time>
      </trkpt>
      <trkpt lat="47.59174" lon="6.7603">
        <ele>476</ele>
        <time>2016-04-10T08:22:57.000Z</time>
      </trkpt>
      <trkpt lat="47.59175" lon="6.76033">
        <ele>476</ele>
        <time>2016-04-10T08:22:58.000Z</time>
      </trkpt>
      <trkpt lat="47.59177" lon="6.76038">
        <ele>476</ele>
        <time>2016-04-10T08:23:00.000Z</time>
      </trkpt>
      <trkpt lat="47.59178" lon="6.7604">
        <ele>476</ele>
        <time>2016-04-10T08:23:01.000Z</time>
      </trkpt>
      <trkpt lat="47.59179" lon="6.76043">
        <ele>476</ele>
        <time>2016-04-10T08:23:02.000Z</time>
      </trkpt>
      <trkpt lat="47.59181" lon="6.76046">
        <ele>476</ele>
        <time>2016-04-10T08:23:03.000Z</time>
      </trkpt>
      <trkpt lat="47.59183" lon="6.7605">
        <ele>476</ele>
        <time>2016-04-10T08:23:04.000Z</time>
      </trkpt>
      <trkpt lat="47.59184" lon="6.76053">
        <ele>476</ele>
        <time>2016-04-10T08:23:05.000Z</time>
      </trkpt>
      <trkpt lat="47.59186" lon="6.76058">
        <ele>476</ele>
        <time>2016-04-10T08:23:07.000Z</time>
      </trkpt>
      <trkpt lat="47.59187" lon="6.76061">
        <ele>476</ele>
        <time>2016-04-10T08:23:08.000Z</time>
      </trkpt>
      <trkpt lat="47.59189" lon="6.76066">
        <ele>476</ele>
        <time>2016-04-10T08:23:10.000Z</time>
      </trkpt>
      <trkpt lat="47.5919" lon="6.76068">
        <ele>476</ele>
        <time>2016-04-10T08:23:11.000Z</time>
      </trkpt>
      <trkpt lat="47.59191" lon="6.76071">
        <ele>476</ele>
        <time>2016-04-10T08:23:12.000Z</time>
      </trkpt>
      <trkpt lat="47.59192" lon="6.76074">
        <ele>476</ele>
        <time>2016-04-10T08:23:13.000Z</time>
      </trkpt>
      <trkpt lat="47.59194" lon="6.76078">
        <ele>476</ele>
        <time>2016-04-10T08:23:14.000Z</time>
      </trkpt>
      <trkpt lat="47.59195" lon="6.76081">
        <ele>476</ele>
        <time>2016-04-10T08:23:15.000Z</time>
      </trkpt>
      <trkpt lat="47.59196" lon="6.76084">
        <ele>474</ele>
        <time>2016-04-10T08:23:16.000Z</time>
      </trkpt>
      <trkpt lat="47.59197" lon="6.76088">
        <ele>474</ele>
        <time>2016-04-10T08:23:17.000Z</time>
      </trkpt>
      <trkpt lat="47.59199" lon="6.76091">
        <ele>475</ele>
        <time>2016-04-10T08:23:18.000Z</time>
      </trkpt>
      <trkpt lat="47.592" lon="6.76094">
        <ele>475</ele>
        <time>2016-04-10T08:23:19.000Z</time>
      </trkpt>
      <trkpt lat="47.59202" lon="6.76099">
        <ele>475</ele>
        <time>2016-04-10T08:23:21.000Z</time>
      </trkpt>
      <trkpt lat="47.59203" lon="6.76102">
        <ele>475</ele>
        <time>2016-04-10T08:23:22.000Z</time>
      </trkpt>
      <trkpt lat="47.59205" lon="6.76108">
        <ele>475</ele>
        <time>2016-04-10T08:23:24.000Z</time>
      </trkpt>
      <trkpt lat="47.59206" lon="6.76111">
        <ele>475</ele>
        <time>2016-04-10T08:23:25.000Z</time>
      </trkpt>
      <trkpt lat="47.59207" lon="6.76116">
        <ele>476</ele>
        <time>2016-04-10T08:23:27.000Z</time>
      </trkpt>
      <trkpt lat="47.59208" lon="6.76118">
        <ele>476</ele>
        <time>2016-04-10T08:23:28.000Z</time>
      </trkpt>
      <trkpt lat="47.59211" lon="6.76122">
        <ele>476</ele>
        <time>2016-04-10T08:23:30.000Z</time>
      </trkpt>
      <trkpt lat="47.59213" lon="6.76124">
        <ele>476</ele>
        <time>2016-04-10T08:23:31.000Z</time>
      </trkpt>
      <trkpt lat="47.59216" lon="6.76128">
        <ele>476</ele>
        <time>2016-04-10T08:23:33.000Z</time>
      </trkpt>
      <trkpt lat="47.59218" lon="6.7613">
        <ele>476</ele>
        <time>2016-04-10T08:23:34.000Z</time>
      </trkpt>
      <trkpt lat="47.59221" lon="6.76133">
        <ele>477</ele>
        <time>2016-04-10T08:23:36.000Z</time>
      </trkpt>
      <trkpt lat="47.59223" lon="6.76135">
        <ele>477</ele>
        <time>2016-04-10T08:23:37.000Z</time>
      </trkpt>
      <trkpt lat="47.59227" lon="6.76136">
        <ele>478</ele>
        <time>2016-04-10T08:23:39.000Z</time>
      </trkpt>
      <trkpt lat="47.59229" lon="6.76135">
        <ele>478</ele>
        <time>2016-04-10T08:23:40.000Z</time>
      </trkpt>
      <trkpt lat="47.59233" lon="6.76134">
        <ele>478</ele>
        <time>2016-04-10T08:23:42.000Z</time>
      </trkpt>
      <trkpt lat="47.59235" lon="6.76133">
        <ele>478</ele>
        <time>2016-04-10T08:23:43.000Z</time>
      </trkpt>
      <trkpt lat="47.59238" lon="6.7613">
        <ele>478</ele>
        <time>2016-04-10T08:23:45.000Z</time>
      </trkpt>
      <trkpt lat="47.5924" lon="6.76129">
        <ele>479</ele>
        <time>2016-04-10T08:23:46.000Z</time>
      </trkpt>
      <trkpt lat="47.59243" lon="6.76125">
        <ele>479</ele>
        <time>2016-04-10T08:23:48.000Z</time>
      </trkpt>
      <trkpt lat="47.59244" lon="6.76124">
        <ele>479</ele>
        <time>2016-04-10T08:23:49.000Z</time>
      </trkpt>
      <trkpt lat="47.59247" lon="6.76119">
        <ele>479</ele>
        <time>2016-04-10T08:23:51.000Z</time>
      </trkpt>
      <trkpt lat="47.59248" lon="6.76117">
        <ele>479</ele>
        <time>2016-04-10T08:23:52.000Z</time>
      </trkpt>
      <trkpt lat="47.59249" lon="6.76112">
        <ele>480</ele>
        <time>2016-04-10T08:23:54.000Z</time>
      </trkpt>
      <trkpt lat="47.5925" lon="6.76109">
        <ele>480</ele>
        <time>2016-04-10T08:23:55.000Z</time>
      </trkpt>
      <trkpt lat="47.59251" lon="6.76104">
        <ele>489</ele>
        <time>2016-04-10T08:23:57.000Z</time>
      </trkpt>
      <trkpt lat="47.59251" lon="6.76101">
        <ele>489</ele>
        <time>2016-04-10T08:23:58.000Z</time>
      </trkpt>
      <trkpt lat="47.59251" lon="6.76096">
        <ele>488</ele>
        <time>2016-04-10T08:24:00.000Z</time>
      </trkpt>
      <trkpt lat="47.5925" lon="6.76093">
        <ele>483</ele>
        <time>2016-04-10T08:24:01.000Z</time>
      </trkpt>
      <trkpt lat="47.59248" lon="6.76089">
        <ele>484</ele>
        <time>2016-04-10T08:24:03.000Z</time>
      </trkpt>
      <trkpt lat="47.59248" lon="6.76086">
        <ele>485</ele>
        <time>2016-04-10T08:24:04.000Z</time>
      </trkpt>
      <trkpt lat="47.59245" lon="6.76081">
        <ele>485</ele>
        <time>2016-04-10T08:24:06.000Z</time>
      </trkpt>
      <trkpt lat="47.59244" lon="6.76079">
        <ele>484</ele>
        <time>2016-04-10T08:24:07.000Z</time>
      </trkpt>
      <trkpt lat="47.59242" lon="6.76074">
        <ele>483</ele>
        <time>2016-04-10T08:24:09.000Z</time>
      </trkpt>
      <trkpt lat="47.59241" lon="6.76071">
        <ele>483</ele>
        <time>2016-04-10T08:24:10.000Z</time>
      </trkpt>
      <trkpt lat="47.59239" lon="6.76066">
        <ele>482</ele>
        <time>2016-04-10T08:24:12.000Z</time>
      </trkpt>
      <trkpt lat="47.59238" lon="6.76063">
        <ele>482</ele>
        <time>2016-04-10T08:24:13.000Z</time>
      </trkpt>
      <trkpt lat="47.59236" lon="6.76059">
        <ele>481</ele>
        <time>2016-04-10T08:24:15.000Z</time>
      </trkpt>
      <trkpt lat="47.59236" lon="6.76056">
        <ele>481</ele>
        <time>2016-04-10T08:24:16.000Z</time>
      </trkpt>
      <trkpt lat="47.59234" lon="6.76051">
        <ele>481</ele>
        <time>2016-04-10T08:24:18.000Z</time>
      </trkpt>
      <trkpt lat="47.59234" lon="6.76048">
        <ele>481</ele>
        <time>2016-04-10T08:24:19.000Z</time>
      </trkpt>
      <trkpt lat="47.59234" lon="6.76041">
        <ele>481</ele>
        <time>2016-04-10T08:24:21.000Z</time>
      </trkpt>
      <trkpt lat="47.59234" lon="6.76038">
        <ele>481</ele>
        <time>2016-04-10T08:24:22.000Z</time>
      </trkpt>
      <trkpt lat="47.59234" lon="6.76031">
        <ele>481</ele>
        <time>2016-04-10T08:24:24.000Z</time>
      </trkpt>
      <trkpt lat="47.59234" lon="6.76028">
        <ele>482</ele>
        <time>2016-04-10T08:24:25.000Z</time>
      </trkpt>
      <trkpt lat="47.59234" lon="6.76022">
        <ele>482</ele>
        <time>2016-04-10T08:24:27.000Z</time>
      </trkpt>
      <trkpt lat="47.59234" lon="6.76019">
        <ele>482</ele>
        <time>2016-04-10T08:24:28.000Z</time>
      </trkpt>
      <trkpt lat="47.59234" lon="6.76013">
        <ele>483</ele>
        <time>2016-04-10T08:24:30.000Z</time>
      </trkpt>
      <trkpt lat="47.59234" lon="6.7601">
        <ele>483</ele>
        <time>2016-04-10T08:24:31.000Z</time>
      </trkpt>
      <trkpt lat="47.59234" lon="6.76004">
        <ele>483</ele>
        <time>2016-04-10T08:24:33.000Z</time>
      </trkpt>
      <trkpt lat="47.59234" lon="6.76001">
        <ele>484</ele>
        <time>2016-04-10T08:24:34.000Z</time>
      </trkpt>
      <trkpt lat="47.59235" lon="6.75995">
        <ele>485</ele>
        <time>2016-04-10T08:24:36.000Z</time>
      </trkpt>
      <trkpt lat="47.59235" lon="6.75992">
        <ele>485</ele>
        <time>2016-04-10T08:24:37.000Z</time>
      </trkpt>
      <trkpt lat="47.59235" lon="6.75986">
        <ele>485</ele>
        <time>2016-04-10T08:24:39.000Z</time>
      </trkpt>
      <trkpt lat="47.59235" lon="6.75983">
        <ele>484</ele>
        <time>2016-04-10T08:24:40.000Z</time>
      </trkpt>
      <trkpt lat="47.59236" lon="6.75977">
        <ele>484</ele>
        <time>2016-04-10T08:24:42.000Z</time>
      </trkpt>
      <trkpt lat="47.59236" lon="6.75974">
        <ele>484</ele>
        <time>2016-04-10T08:24:43.000Z</time>
      </trkpt>
      <trkpt lat="47.59237" lon="6.75968">
        <ele>484</ele>
        <time>2016-04-10T08:24:45.000Z</time>
      </trkpt>
      <trkpt lat="47.59238" lon="6.75965">
        <ele>484</ele>
        <time>2016-04-10T08:24:46.000Z</time>
      </trkpt>
      <trkpt lat="47.59238" lon="6.75959">
        <ele>484</ele>
        <time>2016-04-10T08:24:48.000Z</time>
      </trkpt>
      <trkpt lat="47.59238" lon="6.75956">
        <ele>484</ele>
        <time>2016-04-10T08:24:49.000Z</time>
      </trkpt>
      <trkpt lat="47.59239" lon="6.75953">
        <ele>485</ele>
        <time>2016-04-10T08:24:50.000Z</time>
      </trkpt>
      <trkpt lat="47.59239" lon="6.7595">
        <ele>485</ele>
        <time>2016-04-10T08:24:51.000Z</time>
      </trkpt>
      <trkpt lat="47.5924" lon="6.75946">
        <ele>485</ele>
        <time>2016-04-10T08:24:52.000Z</time>
      </trkpt>
      <trkpt lat="47.59241" lon="6.75943">
        <ele>485</ele>
        <time>2016-04-10T08:24:53.000Z</time>
      </trkpt>
      <trkpt lat="47.59242" lon="6.75939">
        <ele>486</ele>
        <time>2016-04-10T08:24:54.000Z</time>
      </trkpt>
      <trkpt lat="47.59244" lon="6.75935">
        <ele>486</ele>
        <time>2016-04-10T08:24:55.000Z</time>
      </trkpt>
      <trkpt lat="47.59245" lon="6.75932">
        <ele>487</ele>
        <time>2016-04-10T08:24:56.000Z</time>
      </trkpt>
      <trkpt lat="47.59247" lon="6.75929">
        <ele>488</ele>
        <time>2016-04-10T08:24:57.000Z</time>
      </trkpt>
      <trkpt lat="47.59249" lon="6.75926">
        <ele>488</ele>
        <time>2016-04-10T08:24:58.000Z</time>
      </trkpt>
      <trkpt lat="47.5925" lon="6.75923">
        <ele>492</ele>
        <time>2016-04-10T08:24:59.000Z</time>
      </trkpt>
      <trkpt lat="47.59252" lon="6.75918">
        <ele>491</ele>
        <time>2016-04-10T08:25:01.000Z</time>
      </trkpt>
      <trkpt lat="47.59253" lon="6.75916">
        <ele>491</ele>
        <time>2016-04-10T08:25:02.000Z</time>
      </trkpt>
      <trkpt lat="47.59255" lon="6.75911">
        <ele>492</ele>
        <time>2016-04-10T08:25:04.000Z</time>
      </trkpt>
      <trkpt lat="47.59256" lon="6.75908">
        <ele>493</ele>
        <time>2016-04-10T08:25:05.000Z</time>
      </trkpt>
      <trkpt lat="47.59258" lon="6.75903">
        <ele>493</ele>
        <time>2016-04-10T08:25:07.000Z</time>
      </trkpt>
      <trkpt lat="47.5926" lon="6.759">
        <ele>493</ele>
        <time>2016-04-10T08:25:08.000Z</time>
      </trkpt>
      <trkpt lat="47.59261" lon="6.75896">
        <ele>494</ele>
        <time>2016-04-10T08:25:09.000Z</time>
      </trkpt>
      <trkpt lat="47.59263" lon="6.75893">
        <ele>494</ele>
        <time>2016-04-10T08:25:10.000Z</time>
      </trkpt>
      <trkpt lat="47.59264" lon="6.7589">
        <ele>494</ele>
        <time>2016-04-10T08:25:11.000Z</time>
      </trkpt>
      <trkpt lat="47.59266" lon="6.75886">
        <ele>494</ele>
        <time>2016-04-10T08:25:12.000Z</time>
      </trkpt>
      <trkpt lat="47.59268" lon="6.75883">
        <ele>494</ele>
        <time>2016-04-10T08:25:13.000Z</time>
      </trkpt>
      <trkpt lat="47.5927" lon="6.7588">
        <ele>495</ele>
        <time>2016-04-10T08:25:14.000Z</time>
      </trkpt>
      <trkpt lat="47.59272" lon="6.75877">
        <ele>495</ele>
        <time>2016-04-10T08:25:15.000Z</time>
      </trkpt>
      <trkpt lat="47.59274" lon="6.75874">
        <ele>495</ele>
        <time>2016-04-10T08:25:16.000Z</time>
      </trkpt>
      <trkpt lat="47.59275" lon="6.75871">
        <ele>495</ele>
        <time>2016-04-10T08:25:17.000Z</time>
      </trkpt>
      <trkpt lat="47.59277" lon="6.75868">
        <ele>495</ele>
        <time>2016-04-10T08:25:18.000Z</time>
      </trkpt>
      <trkpt lat="47.59278" lon="6.75865">
        <ele>495</ele>
        <time>2016-04-10T08:25:19.000Z</time>
      </trkpt>
      <trkpt lat="47.5928" lon="6.75863">
        <ele>495</ele>
        <time>2016-04-10T08:25:20.000Z</time>
      </trkpt>
      <trkpt lat="47.59281" lon="6.7586">
        <ele>495</ele>
        <time>2016-04-10T08:25:21.000Z</time>
      </trkpt>
      <trkpt lat="47.59283" lon="6.75857">
        <ele>495</ele>
        <time>2016-04-10T08:25:22.000Z</time>
      </trkpt>
      <trkpt lat="47.59284" lon="6.75855">
        <ele>495</ele>
        <time>2016-04-10T08:25:23.000Z</time>
      </trkpt>
      <trkpt lat="47.59285" lon="6.75852">
        <ele>495</ele>
        <time>2016-04-10T08:25:24.000Z</time>
      </trkpt>
      <trkpt lat="47.59287" lon="6.75849">
        <ele>495</ele>
        <time>2016-04-10T08:25:25.000Z</time>
      </trkpt>
      <trkpt lat="47.59288" lon="6.75847">
        <ele>495</ele>
        <time>2016-04-10T08:25:26.000Z</time>
      </trkpt>
      <trkpt lat="47.59289" lon="6.75844">
        <ele>495</ele>
        <time>2016-04-10T08:25:27.000Z</time>
      </trkpt>
      <trkpt lat="47.59291" lon="6.75841">
        <ele>495</ele>
        <time>2016-04-10T08:25:28.000Z</time>
      </trkpt>
      <trkpt lat="47.59292" lon="6.75838">
        <ele>496</ele>
        <time>2016-04-10T08:25:29.000Z</time>
      </trkpt>
      <trkpt lat="47.59293" lon="6.75835">
        <ele>496</ele>
        <time>2016-04-10T08:25:30.000Z</time>
      </trkpt>
      <trkpt lat="47.59295" lon="6.7583">
        <ele>496</ele>
        <time>2016-04-10T08:25:32.000Z</time>
      </trkpt>
      <trkpt lat="47.59296" lon="6.75827">
        <ele>496</ele>
        <time>2016-04-10T08:25:33.000Z</time>
      </trkpt>
      <trkpt lat="47.59297" lon="6.75824">
        <ele>496</ele>
        <time>2016-04-10T08:25:34.000Z</time>
      </trkpt>
      <trkpt lat="47.59298" lon="6.75821">
        <ele>496</ele>
        <time>2016-04-10T08:25:35.000Z</time>
      </trkpt>
      <trkpt lat="47.593" lon="6.75818">
        <ele>496</ele>
        <time>2016-04-10T08:25:36.000Z</time>
      </trkpt>
      <trkpt lat="47.59301" lon="6.75814">
        <ele>496</ele>
        <time>2016-04-10T08:25:37.000Z</time>
      </trkpt>
      <trkpt lat="47.59302" lon="6.75811">
        <ele>496</ele>
        <time>2016-04-10T08:25:38.000Z</time>
      </trkpt>
      <trkpt lat="47.59303" lon="6.75808">
        <ele>496</ele>
        <time>2016-04-10T08:25:39.000Z</time>
      </trkpt>
      <trkpt lat="47.59303" lon="6.75804">
        <ele>496</ele>
        <time>2016-04-10T08:25:40.000Z</time>
      </trkpt>
      <trkpt lat="47.59304" lon="6.75801">
        <ele>497</ele>
        <time>2016-04-10T08:25:41.000Z</time>
      </trkpt>
      <trkpt lat="47.59304" lon="6.75797">
        <ele>497</ele>
        <time>2016-04-10T08:25:42.000Z</time>
      </trkpt>
      <trkpt lat="47.59305" lon="6.75794">
        <ele>497</ele>
        <time>2016-04-10T08:25:43.000Z</time>
      </trkpt>
      <trkpt lat="47.59305" lon="6.7579">
        <ele>497</ele>
        <time>2016-04-10T08:25:44.000Z</time>
      </trkpt>
      <trkpt lat="47.59306" lon="6.75787">
        <ele>497</ele>
        <time>2016-04-10T08:25:45.000Z</time>
      </trkpt>
      <trkpt lat="47.59306" lon="6.75784">
        <ele>497</ele>
        <time>2016-04-10T08:25:46.000Z</time>
      </trkpt>
      <trkpt lat="47.59307" lon="6.7578">
        <ele>497</ele>
        <time>2016-04-10T08:25:47.000Z</time>
      </trkpt>
      <trkpt lat="47.59308" lon="6.75777">
        <ele>497</ele>
        <time>2016-04-10T08:25:48.000Z</time>
      </trkpt>
      <trkpt lat="47.59308" lon="6.75774">
        <ele>497</ele>
        <time>2016-04-10T08:25:49.000Z</time>
      </trkpt>
      <trkpt lat="47.59309" lon="6.7577">
        <ele>497</ele>
        <time>2016-04-10T08:25:50.000Z</time>
      </trkpt>
      <trkpt lat="47.5931" lon="6.75767">
        <ele>497</ele>
        <time>2016-04-10T08:25:51.000Z</time>
      </trkpt>
      <trkpt lat="47.5931" lon="6.75763">
        <ele>498</ele>
        <time>2016-04-10T08:25:52.000Z</time>
      </trkpt>
      <trkpt lat="47.5931" lon="6.7576">
        <ele>498</ele>
        <time>2016-04-10T08:25:53.000Z</time>
      </trkpt>
      <trkpt lat="47.59311" lon="6.75757">
        <ele>498</ele>
        <time>2016-04-10T08:25:54.000Z</time>
      </trkpt>
      <trkpt lat="47.59311" lon="6.75753">
        <ele>498</ele>
        <time>2016-04-10T08:25:55.000Z</time>
      </trkpt>
      <trkpt lat="47.59312" lon="6.75747">
        <ele>499</ele>
        <time>2016-04-10T08:25:57.000Z</time>
      </trkpt>
      <trkpt lat="47.59312" lon="6.75744">
        <ele>499</ele>
        <time>2016-04-10T08:25:58.000Z</time>
      </trkpt>
      <trkpt lat="47.59313" lon="6.75739">
        <ele>499</ele>
        <time>2016-04-10T08:26:00.000Z</time>
      </trkpt>
      <trkpt lat="47.59313" lon="6.75736">
        <ele>499</ele>
        <time>2016-04-10T08:26:01.000Z</time>
      </trkpt>
      <trkpt lat="47.59313" lon="6.75732">
        <ele>499</ele>
        <time>2016-04-10T08:26:02.000Z</time>
      </trkpt>
      <trkpt lat="47.59313" lon="6.75729">
        <ele>499</ele>
        <time>2016-04-10T08:26:03.000Z</time>
      </trkpt>
      <trkpt lat="47.59313" lon="6.75722">
        <ele>499</ele>
        <time>2016-04-10T08:26:05.000Z</time>
      </trkpt>
      <trkpt lat="47.59313" lon="6.75719">
        <ele>499</ele>
        <time>2016-04-10T08:26:06.000Z</time>
      </trkpt>
      <trkpt lat="47.59314" lon="6.75713">
        <ele>499</ele>
        <time>2016-04-10T08:26:08.000Z</time>
      </trkpt>
      <trkpt lat="47.59315" lon="6.7571">
        <ele>499</ele>
        <time>2016-04-10T08:26:09.000Z</time>
      </trkpt>
      <trkpt lat="47.59316" lon="6.75707">
        <ele>499</ele>
        <time>2016-04-10T08:26:10.000Z</time>
      </trkpt>
      <trkpt lat="47.59316" lon="6.75703">
        <ele>500</ele>
        <time>2016-04-10T08:26:11.000Z</time>
      </trkpt>
      <trkpt lat="47.59317" lon="6.757">
        <ele>500</ele>
        <time>2016-04-10T08:26:12.000Z</time>
      </trkpt>
      <trkpt lat="47.59317" lon="6.75697">
        <ele>500</ele>
        <time>2016-04-10T08:26:13.000Z</time>
      </trkpt>
      <trkpt lat="47.59318" lon="6.75691">
        <ele>500</ele>
        <time>2016-04-10T08:26:15.000Z</time>
      </trkpt>
      <trkpt lat="47.59318" lon="6.75688">
        <ele>500</ele>
        <time>2016-04-10T08:26:16.000Z</time>
      </trkpt>
      <trkpt lat="47.59318" lon="6.75683">
        <ele>501</ele>
        <time>2016-04-10T08:26:18.000Z</time>
      </trkpt>
      <trkpt lat="47.59319" lon="6.7568">
        <ele>501</ele>
        <time>2016-04-10T08:26:19.000Z</time>
      </trkpt>
      <trkpt lat="47.59319" lon="6.75674">
        <ele>502</ele>
        <time>2016-04-10T08:26:21.000Z</time>
      </trkpt>
      <trkpt lat="47.5932" lon="6.75671">
        <ele>502</ele>
        <time>2016-04-10T08:26:22.000Z</time>
      </trkpt>
      <trkpt lat="47.5932" lon="6.75665">
        <ele>503</ele>
        <time>2016-04-10T08:26:24.000Z</time>
      </trkpt>
      <trkpt lat="47.59321" lon="6.75663">
        <ele>503</ele>
        <time>2016-04-10T08:26:25.000Z</time>
      </trkpt>
      <trkpt lat="47.59321" lon="6.75657">
        <ele>503</ele>
        <time>2016-04-10T08:26:27.000Z</time>
      </trkpt>
      <trkpt lat="47.59321" lon="6.75654">
        <ele>503</ele>
        <time>2016-04-10T08:26:28.000Z</time>
      </trkpt>
      <trkpt lat="47.5932" lon="6.75651">
        <ele>503</ele>
        <time>2016-04-10T08:26:29.000Z</time>
      </trkpt>
      <trkpt lat="47.59321" lon="6.75647">
        <ele>503</ele>
        <time>2016-04-10T08:26:30.000Z</time>
      </trkpt>
      <trkpt lat="47.59321" lon="6.75644">
        <ele>503</ele>
        <time>2016-04-10T08:26:31.000Z</time>
      </trkpt>
      <trkpt lat="47.59321" lon="6.7564">
        <ele>503</ele>
        <time>2016-04-10T08:26:32.000Z</time>
      </trkpt>
      <trkpt lat="47.59322" lon="6.75637">
        <ele>503</ele>
        <time>2016-04-10T08:26:33.000Z</time>
      </trkpt>
      <trkpt lat="47.59322" lon="6.75634">
        <ele>503</ele>
        <time>2016-04-10T08:26:34.000Z</time>
      </trkpt>
      <trkpt lat="47.59323" lon="6.75627">
        <ele>503</ele>
        <time>2016-04-10T08:26:36.000Z</time>
      </trkpt>
      <trkpt lat="47.59324" lon="6.75624">
        <ele>503</ele>
        <time>2016-04-10T08:26:37.000Z</time>
      </trkpt>
      <trkpt lat="47.59325" lon="6.75618">
        <ele>503</ele>
        <time>2016-04-10T08:26:39.000Z</time>
      </trkpt>
      <trkpt lat="47.59325" lon="6.75615">
        <ele>503</ele>
        <time>2016-04-10T08:26:40.000Z</time>
      </trkpt>
      <trkpt lat="47.59326" lon="6.75609">
        <ele>504</ele>
        <time>2016-04-10T08:26:42.000Z</time>
      </trkpt>
      <trkpt lat="47.59326" lon="6.75607">
        <ele>504</ele>
        <time>2016-04-10T08:26:43.000Z</time>
      </trkpt>
      <trkpt lat="47.59326" lon="6.75601">
        <ele>505</ele>
        <time>2016-04-10T08:26:45.000Z</time>
      </trkpt>
      <trkpt lat="47.59327" lon="6.75598">
        <ele>505</ele>
        <time>2016-04-10T08:26:46.000Z</time>
      </trkpt>
      <trkpt lat="47.59327" lon="6.75592">
        <ele>506</ele>
        <time>2016-04-10T08:26:48.000Z</time>
      </trkpt>
      <trkpt lat="47.59328" lon="6.75589">
        <ele>507</ele>
        <time>2016-04-10T08:26:49.000Z</time>
      </trkpt>
      <trkpt lat="47.59327" lon="6.75583">
        <ele>508</ele>
        <time>2016-04-10T08:26:51.000Z</time>
      </trkpt>
      <trkpt lat="47.59327" lon="6.7558">
        <ele>508</ele>
        <time>2016-04-10T08:26:52.000Z</time>
      </trkpt>
      <trkpt lat="47.59327" lon="6.75576">
        <ele>507</ele>
        <time>2016-04-10T08:26:53.000Z</time>
      </trkpt>
      <trkpt lat="47.59327" lon="6.75573">
        <ele>507</ele>
        <time>2016-04-10T08:26:54.000Z</time>
      </trkpt>
      <trkpt lat="47.59327" lon="6.75566">
        <ele>507</ele>
        <time>2016-04-10T08:26:56.000Z</time>
      </trkpt>
      <trkpt lat="47.59327" lon="6.75564">
        <ele>506</ele>
        <time>2016-04-10T08:26:57.000Z</time>
      </trkpt>
      <trkpt lat="47.59327" lon="6.75558">
        <ele>506</ele>
        <time>2016-04-10T08:26:59.000Z</time>
      </trkpt>
      <trkpt lat="47.59327" lon="6.75554">
        <ele>506</ele>
        <time>2016-04-10T08:27:00.000Z</time>
      </trkpt>
      <trkpt lat="47.59327" lon="6.75548">
        <ele>506</ele>
        <time>2016-04-10T08:27:02.000Z</time>
      </trkpt>
      <trkpt lat="47.59327" lon="6.75545">
        <ele>506</ele>
        <time>2016-04-10T08:27:03.000Z</time>
      </trkpt>
      <trkpt lat="47.59328" lon="6.75539">
        <ele>506</ele>
        <time>2016-04-10T08:27:05.000Z</time>
      </trkpt>
      <trkpt lat="47.59328" lon="6.75536">
        <ele>506</ele>
        <time>2016-04-10T08:27:06.000Z</time>
      </trkpt>
      <trkpt lat="47.59328" lon="6.7553">
        <ele>507</ele>
        <time>2016-04-10T08:27:08.000Z</time>
      </trkpt>
      <trkpt lat="47.59328" lon="6.75527">
        <ele>507</ele>
        <time>2016-04-10T08:27:09.000Z</time>
      </trkpt>
      <trkpt lat="47.59328" lon="6.75521">
        <ele>507</ele>
        <time>2016-04-10T08:27:11.000Z</time>
      </trkpt>
      <trkpt lat="47.59328" lon="6.75518">
        <ele>507</ele>
        <time>2016-04-10T08:27:12.000Z</time>
      </trkpt>
      <trkpt lat="47.59328" lon="6.75512">
        <ele>508</ele>
        <time>2016-04-10T08:27:14.000Z</time>
      </trkpt>
      <trkpt lat="47.59329" lon="6.75509">
        <ele>509</ele>
        <time>2016-04-10T08:27:15.000Z</time>
      </trkpt>
      <trkpt lat="47.59329" lon="6.75502">
        <ele>510</ele>
        <time>2016-04-10T08:27:17.000Z</time>
      </trkpt>
      <trkpt lat="47.59329" lon="6.75499">
        <ele>510</ele>
        <time>2016-04-10T08:27:18.000Z</time>
      </trkpt>
      <trkpt lat="47.5933" lon="6.75495">
        <ele>510</ele>
        <time>2016-04-10T08:27:19.000Z</time>
      </trkpt>
      <trkpt lat="47.5933" lon="6.75491">
        <ele>510</ele>
        <time>2016-04-10T08:27:20.000Z</time>
      </trkpt>
      <trkpt lat="47.59331" lon="6.75487">
        <ele>509</ele>
        <time>2016-04-10T08:27:21.000Z</time>
      </trkpt>
      <trkpt lat="47.59331" lon="6.75484">
        <ele>509</ele>
        <time>2016-04-10T08:27:22.000Z</time>
      </trkpt>
      <trkpt lat="47.59332" lon="6.7548">
        <ele>509</ele>
        <time>2016-04-10T08:27:23.000Z</time>
      </trkpt>
      <trkpt lat="47.59333" lon="6.75477">
        <ele>509</ele>
        <time>2016-04-10T08:27:24.000Z</time>
      </trkpt>
      <trkpt lat="47.59335" lon="6.75473">
        <ele>513</ele>
        <time>2016-04-10T08:27:25.000Z</time>
      </trkpt>
      <trkpt lat="47.59336" lon="6.7547">
        <ele>514</ele>
        <time>2016-04-10T08:27:26.000Z</time>
      </trkpt>
      <trkpt lat="47.59337" lon="6.75467">
        <ele>514</ele>
        <time>2016-04-10T08:27:27.000Z</time>
      </trkpt>
      <trkpt lat="47.59338" lon="6.75464">
        <ele>514</ele>
        <time>2016-04-10T08:27:28.000Z</time>
      </trkpt>
      <trkpt lat="47.5934" lon="6.75461">
        <ele>514</ele>
        <time>2016-04-10T08:27:29.000Z</time>
      </trkpt>
      <trkpt lat="47.59341" lon="6.75458">
        <ele>514</ele>
        <time>2016-04-10T08:27:30.000Z</time>
      </trkpt>
      <trkpt lat="47.59343" lon="6.75456">
        <ele>514</ele>
        <time>2016-04-10T08:27:31.000Z</time>
      </trkpt>
      <trkpt lat="47.59345" lon="6.75454">
        <ele>514</ele>
        <time>2016-04-10T08:27:32.000Z</time>
      </trkpt>
      <trkpt lat="47.59348" lon="6.75451">
        <ele>514</ele>
        <time>2016-04-10T08:27:34.000Z</time>
      </trkpt>
      <trkpt lat="47.5935" lon="6.7545">
        <ele>514</ele>
        <time>2016-04-10T08:27:35.000Z</time>
      </trkpt>
      <trkpt lat="47.59354" lon="6.75449">
        <ele>514</ele>
        <time>2016-04-10T08:27:37.000Z</time>
      </trkpt>
      <trkpt lat="47.59357" lon="6.75449">
        <ele>514</ele>
        <time>2016-04-10T08:27:38.000Z</time>
      </trkpt>
      <trkpt lat="47.59359" lon="6.75449">
        <ele>515</ele>
        <time>2016-04-10T08:27:39.000Z</time>
      </trkpt>
      <trkpt lat="47.59361" lon="6.75449">
        <ele>515</ele>
        <time>2016-04-10T08:27:40.000Z</time>
      </trkpt>
      <trkpt lat="47.59366" lon="6.7545">
        <ele>515</ele>
        <time>2016-04-10T08:27:42.000Z</time>
      </trkpt>
      <trkpt lat="47.59368" lon="6.75451">
        <ele>515</ele>
        <time>2016-04-10T08:27:43.000Z</time>
      </trkpt>
      <trkpt lat="47.59371" lon="6.75452">
        <ele>515</ele>
        <time>2016-04-10T08:27:45.000Z</time>
      </trkpt>
      <trkpt lat="47.59373" lon="6.75453">
        <ele>515</ele>
        <time>2016-04-10T08:27:46.000Z</time>
      </trkpt>
      <trkpt lat="47.59376" lon="6.75457">
        <ele>515</ele>
        <time>2016-04-10T08:27:48.000Z</time>
      </trkpt>
      <trkpt lat="47.59377" lon="6.75459">
        <ele>515</ele>
        <time>2016-04-10T08:27:49.000Z</time>
      </trkpt>
      <trkpt lat="47.59379" lon="6.75461">
        <ele>515</ele>
        <time>2016-04-10T08:27:50.000Z</time>
      </trkpt>
      <trkpt lat="47.59381" lon="6.75464">
        <ele>515</ele>
        <time>2016-04-10T08:27:51.000Z</time>
      </trkpt>
      <trkpt lat="47.59383" lon="6.75468">
        <ele>515</ele>
        <time>2016-04-10T08:27:53.000Z</time>
      </trkpt>
      <trkpt lat="47.59382" lon="6.75471">
        <ele>515</ele>
        <time>2016-04-10T08:27:54.000Z</time>
      </trkpt>
      <trkpt lat="47.59381" lon="6.75476">
        <ele>515</ele>
        <time>2016-04-10T08:27:56.000Z</time>
      </trkpt>
      <trkpt lat="47.59381" lon="6.75478">
        <ele>515</ele>
        <time>2016-04-10T08:27:57.000Z</time>
      </trkpt>
      <trkpt lat="47.59384" lon="6.75482">
        <ele>515</ele>
        <time>2016-04-10T08:27:59.000Z</time>
      </trkpt>
      <trkpt lat="47.59385" lon="6.75483">
        <ele>515</ele>
        <time>2016-04-10T08:28:00.000Z</time>
      </trkpt>
      <trkpt lat="47.59387" lon="6.75485">
        <ele>516</ele>
        <time>2016-04-10T08:28:01.000Z</time>
      </trkpt>
      <trkpt lat="47.59389" lon="6.75488">
        <ele>516</ele>
        <time>2016-04-10T08:28:02.000Z</time>
      </trkpt>
      <trkpt lat="47.59391" lon="6.75491">
        <ele>516</ele>
        <time>2016-04-10T08:28:03.000Z</time>
      </trkpt>
      <trkpt lat="47.59394" lon="6.75493">
        <ele>516</ele>
        <time>2016-04-10T08:28:04.000Z</time>
      </trkpt>
      <trkpt lat="47.59396" lon="6.75496">
        <ele>516</ele>
        <time>2016-04-10T08:28:05.000Z</time>
      </trkpt>
      <trkpt lat="47.59397" lon="6.75498">
        <ele>516</ele>
        <time>2016-04-10T08:28:06.000Z</time>
      </trkpt>
      <trkpt lat="47.59399" lon="6.755">
        <ele>516</ele>
        <time>2016-04-10T08:28:07.000Z</time>
      </trkpt>
      <trkpt lat="47.59401" lon="6.75502">
        <ele>516</ele>
        <time>2016-04-10T08:28:08.000Z</time>
      </trkpt>
      <trkpt lat="47.59403" lon="6.75505">
        <ele>516</ele>
        <time>2016-04-10T08:28:09.000Z</time>
      </trkpt>
      <trkpt lat="47.59405" lon="6.75508">
        <ele>516</ele>
        <time>2016-04-10T08:28:10.000Z</time>
      </trkpt>
      <trkpt lat="47.59407" lon="6.75512">
        <ele>516</ele>
        <time>2016-04-10T08:28:11.000Z</time>
      </trkpt>
      <trkpt lat="47.59409" lon="6.75515">
        <ele>516</ele>
        <time>2016-04-10T08:28:12.000Z</time>
      </trkpt>
      <trkpt lat="47.59411" lon="6.75519">
        <ele>515</ele>
        <time>2016-04-10T08:28:13.000Z</time>
      </trkpt>
      <trkpt lat="47.59413" lon="6.75522">
        <ele>515</ele>
        <time>2016-04-10T08:28:14.000Z</time>
      </trkpt>
      <trkpt lat="47.59415" lon="6.75525">
        <ele>515</ele>
        <time>2016-04-10T08:28:15.000Z</time>
      </trkpt>
      <trkpt lat="47.59416" lon="6.75528">
        <ele>515</ele>
        <time>2016-04-10T08:28:16.000Z</time>
      </trkpt>
      <trkpt lat="47.59418" lon="6.75531">
        <ele>519</ele>
        <time>2016-04-10T08:28:17.000Z</time>
      </trkpt>
      <trkpt lat="47.5942" lon="6.75534">
        <ele>519</ele>
        <time>2016-04-10T08:28:18.000Z</time>
      </trkpt>
      <trkpt lat="47.59422" lon="6.75537">
        <ele>519</ele>
        <time>2016-04-10T08:28:19.000Z</time>
      </trkpt>
      <trkpt lat="47.59424" lon="6.7554">
        <ele>519</ele>
        <time>2016-04-10T08:28:20.000Z</time>
      </trkpt>
      <trkpt lat="47.59426" lon="6.75543">
        <ele>519</ele>
        <time>2016-04-10T08:28:21.000Z</time>
      </trkpt>
      <trkpt lat="47.59428" lon="6.75546">
        <ele>519</ele>
        <time>2016-04-10T08:28:22.000Z</time>
      </trkpt>
      <trkpt lat="47.59429" lon="6.75549">
        <ele>519</ele>
        <time>2016-04-10T08:28:23.000Z</time>
      </trkpt>
      <trkpt lat="47.59431" lon="6.75552">
        <ele>519</ele>
        <time>2016-04-10T08:28:24.000Z</time>
      </trkpt>
      <trkpt lat="47.59433" lon="6.75557">
        <ele>519</ele>
        <time>2016-04-10T08:28:26.000Z</time>
      </trkpt>
      <trkpt lat="47.59433" lon="6.75559">
        <ele>519</ele>
        <time>2016-04-10T08:28:27.000Z</time>
      </trkpt>
      <trkpt lat="47.59435" lon="6.75564">
        <ele>519</ele>
        <time>2016-04-10T08:28:29.000Z</time>
      </trkpt>
      <trkpt lat="47.59436" lon="6.75567">
        <ele>519</ele>
        <time>2016-04-10T08:28:30.000Z</time>
      </trkpt>
      <trkpt lat="47.59438" lon="6.75569">
        <ele>519</ele>
        <time>2016-04-10T08:28:31.000Z</time>
      </trkpt>
      <trkpt lat="47.5944" lon="6.75573">
        <ele>519</ele>
        <time>2016-04-10T08:28:32.000Z</time>
      </trkpt>
      <trkpt lat="47.59441" lon="6.75576">
        <ele>519</ele>
        <time>2016-04-10T08:28:33.000Z</time>
      </trkpt>
      <trkpt lat="47.59443" lon="6.75579">
        <ele>519</ele>
        <time>2016-04-10T08:28:34.000Z</time>
      </trkpt>
      <trkpt lat="47.59445" lon="6.75582">
        <ele>519</ele>
        <time>2016-04-10T08:28:35.000Z</time>
      </trkpt>
      <trkpt lat="47.59447" lon="6.75586">
        <ele>518</ele>
        <time>2016-04-10T08:28:36.000Z</time>
      </trkpt>
      <trkpt lat="47.59449" lon="6.75589">
        <ele>518</ele>
        <time>2016-04-10T08:28:37.000Z</time>
      </trkpt>
      <trkpt lat="47.59451" lon="6.75592">
        <ele>519</ele>
        <time>2016-04-10T08:28:38.000Z</time>
      </trkpt>
      <trkpt lat="47.59452" lon="6.75595">
        <ele>519</ele>
        <time>2016-04-10T08:28:39.000Z</time>
      </trkpt>
      <trkpt lat="47.59454" lon="6.75598">
        <ele>519</ele>
        <time>2016-04-10T08:28:40.000Z</time>
      </trkpt>
      <trkpt lat="47.59456" lon="6.756">
        <ele>519</ele>
        <time>2016-04-10T08:28:41.000Z</time>
      </trkpt>
      <trkpt lat="47.59457" lon="6.75603">
        <ele>519</ele>
        <time>2016-04-10T08:28:42.000Z</time>
      </trkpt>
      <trkpt lat="47.59458" lon="6.75606">
        <ele>519</ele>
        <time>2016-04-10T08:28:43.000Z</time>
      </trkpt>
      <trkpt lat="47.5946" lon="6.75609">
        <ele>519</ele>
        <time>2016-04-10T08:28:44.000Z</time>
      </trkpt>
      <trkpt lat="47.59461" lon="6.75612">
        <ele>519</ele>
        <time>2016-04-10T08:28:45.000Z</time>
      </trkpt>
      <trkpt lat="47.59463" lon="6.75615">
        <ele>519</ele>
        <time>2016-04-10T08:28:46.000Z</time>
      </trkpt>
      <trkpt lat="47.59465" lon="6.75618">
        <ele>519</ele>
        <time>2016-04-10T08:28:47.000Z</time>
      </trkpt>
      <trkpt lat="47.59466" lon="6.75621">
        <ele>519</ele>
        <time>2016-04-10T08:28:48.000Z</time>
      </trkpt>
      <trkpt lat="47.59467" lon="6.75624">
        <ele>519</ele>
        <time>2016-04-10T08:28:49.000Z</time>
      </trkpt>
      <trkpt lat="47.59469" lon="6.75627">
        <ele>519</ele>
        <time>2016-04-10T08:28:50.000Z</time>
      </trkpt>
      <trkpt lat="47.5947" lon="6.7563">
        <ele>519</ele>
        <time>2016-04-10T08:28:51.000Z</time>
      </trkpt>
      <trkpt lat="47.59472" lon="6.75633">
        <ele>519</ele>
        <time>2016-04-10T08:28:52.000Z</time>
      </trkpt>
      <trkpt lat="47.59473" lon="6.75636">
        <ele>519</ele>
        <time>2016-04-10T08:28:53.000Z</time>
      </trkpt>
      <trkpt lat="47.59475" lon="6.75639">
        <ele>519</ele>
        <time>2016-04-10T08:28:54.000Z</time>
      </trkpt>
      <trkpt lat="47.59476" lon="6.75642">
        <ele>520</ele>
        <time>2016-04-10T08:28:55.000Z</time>
      </trkpt>
      <trkpt lat="47.59478" lon="6.75645">
        <ele>520</ele>
        <time>2016-04-10T08:28:56.000Z</time>
      </trkpt>
      <trkpt lat="47.5948" lon="6.75648">
        <ele>520</ele>
        <time>2016-04-10T08:28:57.000Z</time>
      </trkpt>
      <trkpt lat="47.59481" lon="6.75651">
        <ele>520</ele>
        <time>2016-04-10T08:28:58.000Z</time>
      </trkpt>
      <trkpt lat="47.59483" lon="6.75654">
        <ele>520</ele>
        <time>2016-04-10T08:28:59.000Z</time>
      </trkpt>
      <trkpt lat="47.59485" lon="6.75658">
        <ele>520</ele>
        <time>2016-04-10T08:29:00.000Z</time>
      </trkpt>
      <trkpt lat="47.59487" lon="6.75661">
        <ele>521</ele>
        <time>2016-04-10T08:29:01.000Z</time>
      </trkpt>
      <trkpt lat="47.59488" lon="6.75665">
        <ele>521</ele>
        <time>2016-04-10T08:29:02.000Z</time>
      </trkpt>
      <trkpt lat="47.5949" lon="6.75668">
        <ele>520</ele>
        <time>2016-04-10T08:29:03.000Z</time>
      </trkpt>
      <trkpt lat="47.59492" lon="6.75671">
        <ele>520</ele>
        <time>2016-04-10T08:29:04.000Z</time>
      </trkpt>
      <trkpt lat="47.59493" lon="6.75674">
        <ele>520</ele>
        <time>2016-04-10T08:29:05.000Z</time>
      </trkpt>
      <trkpt lat="47.59495" lon="6.75678">
        <ele>520</ele>
        <time>2016-04-10T08:29:06.000Z</time>
      </trkpt>
      <trkpt lat="47.59496" lon="6.75681">
        <ele>520</ele>
        <time>2016-04-10T08:29:07.000Z</time>
      </trkpt>
      <trkpt lat="47.59498" lon="6.75684">
        <ele>519</ele>
        <time>2016-04-10T08:29:08.000Z</time>
      </trkpt>
      <trkpt lat="47.59499" lon="6.75687">
        <ele>519</ele>
        <time>2016-04-10T08:29:09.000Z</time>
      </trkpt>
      <trkpt lat="47.59501" lon="6.7569">
        <ele>523</ele>
        <time>2016-04-10T08:29:10.000Z</time>
      </trkpt>
      <trkpt lat="47.59502" lon="6.75693">
        <ele>523</ele>
        <time>2016-04-10T08:29:11.000Z</time>
      </trkpt>
      <trkpt lat="47.59504" lon="6.75696">
        <ele>523</ele>
        <time>2016-04-10T08:29:12.000Z</time>
      </trkpt>
      <trkpt lat="47.59505" lon="6.75699">
        <ele>523</ele>
        <time>2016-04-10T08:29:13.000Z</time>
      </trkpt>
      <trkpt lat="47.59507" lon="6.75702">
        <ele>523</ele>
        <time>2016-04-10T08:29:14.000Z</time>
      </trkpt>
      <trkpt lat="47.59508" lon="6.75705">
        <ele>523</ele>
        <time>2016-04-10T08:29:15.000Z</time>
      </trkpt>
      <trkpt lat="47.59509" lon="6.75708">
        <ele>523</ele>
        <time>2016-04-10T08:29:16.000Z</time>
      </trkpt>
      <trkpt lat="47.59511" lon="6.75711">
        <ele>523</ele>
        <time>2016-04-10T08:29:17.000Z</time>
      </trkpt>
      <trkpt lat="47.59512" lon="6.75715">
        <ele>523</ele>
        <time>2016-04-10T08:29:18.000Z</time>
      </trkpt>
      <trkpt lat="47.59513" lon="6.75719">
        <ele>523</ele>
        <time>2016-04-10T08:29:19.000Z</time>
      </trkpt>
      <trkpt lat="47.59515" lon="6.75722">
        <ele>523</ele>
        <time>2016-04-10T08:29:20.000Z</time>
      </trkpt>
      <trkpt lat="47.59516" lon="6.75725">
        <ele>523</ele>
        <time>2016-04-10T08:29:21.000Z</time>
      </trkpt>
      <trkpt lat="47.59518" lon="6.75728">
        <ele>523</ele>
        <time>2016-04-10T08:29:22.000Z</time>
      </trkpt>
      <trkpt lat="47.5952" lon="6.7573">
        <ele>523</ele>
        <time>2016-04-10T08:29:23.000Z</time>
      </trkpt>
      <trkpt lat="47.59521" lon="6.75733">
        <ele>523</ele>
        <time>2016-04-10T08:29:24.000Z</time>
      </trkpt>
      <trkpt lat="47.59523" lon="6.75736">
        <ele>523</ele>
        <time>2016-04-10T08:29:25.000Z</time>
      </trkpt>
      <trkpt lat="47.59525" lon="6.75738">
        <ele>523</ele>
        <time>2016-04-10T08:29:26.000Z</time>
      </trkpt>
      <trkpt lat="47.59528" lon="6.75742">
        <ele>523</ele>
        <time>2016-04-10T08:29:34.000Z</time>
      </trkpt>
      <trkpt lat="47.59528" lon="6.75744">
        <ele>523</ele>
        <time>2016-04-10T08:29:35.000Z</time>
      </trkpt>
      <trkpt lat="47.59528" lon="6.7575">
        <ele>522</ele>
        <time>2016-04-10T08:29:37.000Z</time>
      </trkpt>
      <trkpt lat="47.59527" lon="6.75753">
        <ele>522</ele>
        <time>2016-04-10T08:29:38.000Z</time>
      </trkpt>
      <trkpt lat="47.59523" lon="6.75756">
        <ele>522</ele>
        <time>2016-04-10T08:29:40.000Z</time>
      </trkpt>
      <trkpt lat="47.59521" lon="6.75757">
        <ele>522</ele>
        <time>2016-04-10T08:29:41.000Z</time>
      </trkpt>
      <trkpt lat="47.59518" lon="6.7576">
        <ele>522</ele>
        <time>2016-04-10T08:29:42.000Z</time>
      </trkpt>
      <trkpt lat="47.59515" lon="6.75762">
        <ele>522</ele>
        <time>2016-04-10T08:29:43.000Z</time>
      </trkpt>
      <trkpt lat="47.59513" lon="6.75762">
        <ele>522</ele>
        <time>2016-04-10T08:29:44.000Z</time>
      </trkpt>
      <trkpt lat="47.59509" lon="6.75762">
        <ele>521</ele>
        <time>2016-04-10T08:29:45.000Z</time>
      </trkpt>
      <trkpt lat="47.59506" lon="6.7576">
        <ele>521</ele>
        <time>2016-04-10T08:29:46.000Z</time>
      </trkpt>
      <trkpt lat="47.59503" lon="6.75758">
        <ele>521</ele>
        <time>2016-04-10T08:29:47.000Z</time>
      </trkpt>
      <trkpt lat="47.59501" lon="6.75757">
        <ele>521</ele>
        <time>2016-04-10T08:29:48.000Z</time>
      </trkpt>
      <trkpt lat="47.59498" lon="6.75756">
        <ele>519</ele>
        <time>2016-04-10T08:29:49.000Z</time>
      </trkpt>
      <trkpt lat="47.59496" lon="6.75756">
        <ele>519</ele>
        <time>2016-04-10T08:29:50.000Z</time>
      </trkpt>
      <trkpt lat="47.59494" lon="6.75758">
        <ele>518</ele>
        <time>2016-04-10T08:29:51.000Z</time>
      </trkpt>
      <trkpt lat="47.59492" lon="6.75761">
        <ele>518</ele>
        <time>2016-04-10T08:29:52.000Z</time>
      </trkpt>
      <trkpt lat="47.5949" lon="6.75766">
        <ele>518</ele>
        <time>2016-04-10T08:29:53.000Z</time>
      </trkpt>
      <trkpt lat="47.59488" lon="6.75771">
        <ele>517</ele>
        <time>2016-04-10T08:29:54.000Z</time>
      </trkpt>
      <trkpt lat="47.59487" lon="6.75775">
        <ele>517</ele>
        <time>2016-04-10T08:29:55.000Z</time>
      </trkpt>
      <trkpt lat="47.59484" lon="6.75781">
        <ele>517</ele>
        <time>2016-04-10T08:29:56.000Z</time>
      </trkpt>
      <trkpt lat="47.59482" lon="6.75785">
        <ele>517</ele>
        <time>2016-04-10T08:29:57.000Z</time>
      </trkpt>
      <trkpt lat="47.59481" lon="6.7579">
        <ele>517</ele>
        <time>2016-04-10T08:29:58.000Z</time>
      </trkpt>
      <trkpt lat="47.59479" lon="6.75795">
        <ele>517</ele>
        <time>2016-04-10T08:29:59.000Z</time>
      </trkpt>
      <trkpt lat="47.59477" lon="6.758">
        <ele>517</ele>
        <time>2016-04-10T08:30:00.000Z</time>
      </trkpt>
      <trkpt lat="47.59476" lon="6.75804">
        <ele>516</ele>
        <time>2016-04-10T08:30:01.000Z</time>
      </trkpt>
      <trkpt lat="47.59474" lon="6.75808">
        <ele>516</ele>
        <time>2016-04-10T08:30:02.000Z</time>
      </trkpt>
      <trkpt lat="47.59471" lon="6.7581">
        <ele>516</ele>
        <time>2016-04-10T08:30:03.000Z</time>
      </trkpt>
      <trkpt lat="47.59468" lon="6.75812">
        <ele>516</ele>
        <time>2016-04-10T08:30:04.000Z</time>
      </trkpt>
      <trkpt lat="47.59456" lon="6.75817">
        <ele>515</ele>
        <time>2016-04-10T08:30:05.000Z</time>
      </trkpt>
      <trkpt lat="47.59451" lon="6.7582">
        <ele>515</ele>
        <time>2016-04-10T08:30:06.000Z</time>
      </trkpt>
      <trkpt lat="47.59451" lon="6.75824">
        <ele>515</ele>
        <time>2016-04-10T08:30:07.000Z</time>
      </trkpt>
      <trkpt lat="47.5945" lon="6.75829">
        <ele>515</ele>
        <time>2016-04-10T08:30:08.000Z</time>
      </trkpt>
      <trkpt lat="47.5945" lon="6.75833">
        <ele>515</ele>
        <time>2016-04-10T08:30:09.000Z</time>
      </trkpt>
      <trkpt lat="47.5945" lon="6.75837">
        <ele>514</ele>
        <time>2016-04-10T08:30:10.000Z</time>
      </trkpt>
      <trkpt lat="47.5945" lon="6.75843">
        <ele>514</ele>
        <time>2016-04-10T08:30:12.000Z</time>
      </trkpt>
      <trkpt lat="47.59449" lon="6.75845">
        <ele>514</ele>
        <time>2016-04-10T08:30:13.000Z</time>
      </trkpt>
      <trkpt lat="47.59446" lon="6.75849">
        <ele>514</ele>
        <time>2016-04-10T08:30:15.000Z</time>
      </trkpt>
      <trkpt lat="47.59445" lon="6.75852">
        <ele>514</ele>
        <time>2016-04-10T08:30:16.000Z</time>
      </trkpt>
      <trkpt lat="47.59443" lon="6.75854">
        <ele>514</ele>
        <time>2016-04-10T08:30:17.000Z</time>
      </trkpt>
      <trkpt lat="47.59442" lon="6.75857">
        <ele>514</ele>
        <time>2016-04-10T08:30:18.000Z</time>
      </trkpt>
      <trkpt lat="47.5944" lon="6.7586">
        <ele>514</ele>
        <time>2016-04-10T08:30:19.000Z</time>
      </trkpt>
      <trkpt lat="47.59439" lon="6.75862">
        <ele>514</ele>
        <time>2016-04-10T08:30:19.998Z</time>
      </trkpt>
      <trkpt lat="47.5944" lon="6.75867">
        <ele>514</ele>
        <time>2016-04-10T08:30:21.000Z</time>
      </trkpt>
      <trkpt lat="47.59442" lon="6.7587">
        <ele>514</ele>
        <time>2016-04-10T08:30:22.000Z</time>
      </trkpt>
      <trkpt lat="47.59445" lon="6.75873">
        <ele>514</ele>
        <time>2016-04-10T08:30:23.000Z</time>
      </trkpt>
      <trkpt lat="47.59449" lon="6.75876">
        <ele>514</ele>
        <time>2016-04-10T08:30:24.000Z</time>
      </trkpt>
      <trkpt lat="47.59451" lon="6.75879">
        <ele>514</ele>
        <time>2016-04-10T08:30:25.000Z</time>
      </trkpt>
      <trkpt lat="47.59453" lon="6.75883">
        <ele>514</ele>
        <time>2016-04-10T08:30:26.000Z</time>
      </trkpt>
      <trkpt lat="47.59454" lon="6.75887">
        <ele>514</ele>
        <time>2016-04-10T08:30:27.000Z</time>
      </trkpt>
      <trkpt lat="47.59456" lon="6.75893">
        <ele>514</ele>
        <time>2016-04-10T08:30:28.000Z</time>
      </trkpt>
      <trkpt lat="47.59457" lon="6.75898">
        <ele>514</ele>
        <time>2016-04-10T08:30:29.000Z</time>
      </trkpt>
      <trkpt lat="47.59458" lon="6.75903">
        <ele>514</ele>
        <time>2016-04-10T08:30:30.000Z</time>
      </trkpt>
      <trkpt lat="47.59459" lon="6.75909">
        <ele>514</ele>
        <time>2016-04-10T08:30:31.000Z</time>
      </trkpt>
      <trkpt lat="47.5946" lon="6.75914">
        <ele>514</ele>
        <time>2016-04-10T08:30:32.000Z</time>
      </trkpt>
      <trkpt lat="47.59462" lon="6.75918">
        <ele>514</ele>
        <time>2016-04-10T08:30:33.000Z</time>
      </trkpt>
      <trkpt lat="47.59463" lon="6.75923">
        <ele>514</ele>
        <time>2016-04-10T08:30:34.000Z</time>
      </trkpt>
      <trkpt lat="47.59464" lon="6.75927">
        <ele>514</ele>
        <time>2016-04-10T08:30:35.000Z</time>
      </trkpt>
      <trkpt lat="47.59465" lon="6.75931">
        <ele>514</ele>
        <time>2016-04-10T08:30:36.000Z</time>
      </trkpt>
      <trkpt lat="47.59466" lon="6.75936">
        <ele>514</ele>
        <time>2016-04-10T08:30:37.000Z</time>
      </trkpt>
      <trkpt lat="47.59467" lon="6.7594">
        <ele>514</ele>
        <time>2016-04-10T08:30:38.000Z</time>
      </trkpt>
      <trkpt lat="47.59468" lon="6.75943">
        <ele>514</ele>
        <time>2016-04-10T08:30:39.000Z</time>
      </trkpt>
      <trkpt lat="47.59469" lon="6.75947">
        <ele>514</ele>
        <time>2016-04-10T08:30:40.000Z</time>
      </trkpt>
      <trkpt lat="47.59471" lon="6.75951">
        <ele>514</ele>
        <time>2016-04-10T08:30:41.000Z</time>
      </trkpt>
      <trkpt lat="47.59472" lon="6.75955">
        <ele>514</ele>
        <time>2016-04-10T08:30:42.000Z</time>
      </trkpt>
      <trkpt lat="47.59474" lon="6.75959">
        <ele>514</ele>
        <time>2016-04-10T08:30:43.000Z</time>
      </trkpt>
      <trkpt lat="47.59475" lon="6.75964">
        <ele>514</ele>
        <time>2016-04-10T08:30:44.000Z</time>
      </trkpt>
      <trkpt lat="47.59476" lon="6.75969">
        <ele>514</ele>
        <time>2016-04-10T08:30:45.000Z</time>
      </trkpt>
      <trkpt lat="47.59477" lon="6.75973">
        <ele>514</ele>
        <time>2016-04-10T08:30:46.000Z</time>
      </trkpt>
      <trkpt lat="47.59478" lon="6.75978">
        <ele>515</ele>
        <time>2016-04-10T08:30:47.000Z</time>
      </trkpt>
      <trkpt lat="47.59479" lon="6.75982">
        <ele>515</ele>
        <time>2016-04-10T08:30:48.000Z</time>
      </trkpt>
      <trkpt lat="47.5948" lon="6.75986">
        <ele>515</ele>
        <time>2016-04-10T08:30:49.000Z</time>
      </trkpt>
      <trkpt lat="47.59481" lon="6.7599">
        <ele>515</ele>
        <time>2016-04-10T08:30:50.000Z</time>
      </trkpt>
      <trkpt lat="47.59483" lon="6.75995">
        <ele>515</ele>
        <time>2016-04-10T08:30:51.000Z</time>
      </trkpt>
      <trkpt lat="47.59485" lon="6.76">
        <ele>515</ele>
        <time>2016-04-10T08:30:52.000Z</time>
      </trkpt>
      <trkpt lat="47.59486" lon="6.76005">
        <ele>515</ele>
        <time>2016-04-10T08:30:53.000Z</time>
      </trkpt>
      <trkpt lat="47.59487" lon="6.7601">
        <ele>515</ele>
        <time>2016-04-10T08:30:54.000Z</time>
      </trkpt>
      <trkpt lat="47.59486" lon="6.76016">
        <ele>514</ele>
        <time>2016-04-10T08:30:55.000Z</time>
      </trkpt>
      <trkpt lat="47.59486" lon="6.76022">
        <ele>514</ele>
        <time>2016-04-10T08:30:56.000Z</time>
      </trkpt>
      <trkpt lat="47.59485" lon="6.76028">
        <ele>514</ele>
        <time>2016-04-10T08:30:57.000Z</time>
      </trkpt>
      <trkpt lat="47.59485" lon="6.76035">
        <ele>514</ele>
        <time>2016-04-10T08:30:58.000Z</time>
      </trkpt>
      <trkpt lat="47.59485" lon="6.76041">
        <ele>514</ele>
        <time>2016-04-10T08:30:59.000Z</time>
      </trkpt>
      <trkpt lat="47.59486" lon="6.76048">
        <ele>513</ele>
        <time>2016-04-10T08:31:00.000Z</time>
      </trkpt>
      <trkpt lat="47.59489" lon="6.76065">
        <ele>514</ele>
        <time>2016-04-10T08:31:01.000Z</time>
      </trkpt>
      <trkpt lat="47.59491" lon="6.76074">
        <ele>514</ele>
        <time>2016-04-10T08:31:02.000Z</time>
      </trkpt>
      <trkpt lat="47.59493" lon="6.76082">
        <ele>514</ele>
        <time>2016-04-10T08:31:03.000Z</time>
      </trkpt>
      <trkpt lat="47.59494" lon="6.76088">
        <ele>514</ele>
        <time>2016-04-10T08:31:04.000Z</time>
      </trkpt>
      <trkpt lat="47.59494" lon="6.76092">
        <ele>514</ele>
        <time>2016-04-10T08:31:05.000Z</time>
      </trkpt>
      <trkpt lat="47.59495" lon="6.76098">
        <ele>513</ele>
        <time>2016-04-10T08:31:06.000Z</time>
      </trkpt>
      <trkpt lat="47.59495" lon="6.76108">
        <ele>513</ele>
        <time>2016-04-10T08:31:07.000Z</time>
      </trkpt>
      <trkpt lat="47.59495" lon="6.76115">
        <ele>512</ele>
        <time>2016-04-10T08:31:08.000Z</time>
      </trkpt>
      <trkpt lat="47.59496" lon="6.76121">
        <ele>512</ele>
        <time>2016-04-10T08:31:09.000Z</time>
      </trkpt>
      <trkpt lat="47.59497" lon="6.76126">
        <ele>512</ele>
        <time>2016-04-10T08:31:10.000Z</time>
      </trkpt>
      <trkpt lat="47.59498" lon="6.76133">
        <ele>512</ele>
        <time>2016-04-10T08:31:11.000Z</time>
      </trkpt>
      <trkpt lat="47.59499" lon="6.76139">
        <ele>512</ele>
        <time>2016-04-10T08:31:12.000Z</time>
      </trkpt>
      <trkpt lat="47.595" lon="6.76145">
        <ele>512</ele>
        <time>2016-04-10T08:31:13.000Z</time>
      </trkpt>
      <trkpt lat="47.59501" lon="6.76151">
        <ele>516</ele>
        <time>2016-04-10T08:31:14.000Z</time>
      </trkpt>
      <trkpt lat="47.59502" lon="6.76157">
        <ele>516</ele>
        <time>2016-04-10T08:31:15.000Z</time>
      </trkpt>
      <trkpt lat="47.59504" lon="6.76164">
        <ele>515</ele>
        <time>2016-04-10T08:31:16.000Z</time>
      </trkpt>
      <trkpt lat="47.59505" lon="6.7617">
        <ele>515</ele>
        <time>2016-04-10T08:31:17.000Z</time>
      </trkpt>
      <trkpt lat="47.59507" lon="6.76176">
        <ele>515</ele>
        <time>2016-04-10T08:31:18.000Z</time>
      </trkpt>
      <trkpt lat="47.59508" lon="6.76182">
        <ele>516</ele>
        <time>2016-04-10T08:31:19.000Z</time>
      </trkpt>
      <trkpt lat="47.5951" lon="6.76187">
        <ele>516</ele>
        <time>2016-04-10T08:31:20.000Z</time>
      </trkpt>
      <trkpt lat="47.59511" lon="6.76193">
        <ele>516</ele>
        <time>2016-04-10T08:31:21.000Z</time>
      </trkpt>
      <trkpt lat="47.59512" lon="6.76198">
        <ele>516</ele>
        <time>2016-04-10T08:31:22.000Z</time>
      </trkpt>
      <trkpt lat="47.59514" lon="6.76203">
        <ele>516</ele>
        <time>2016-04-10T08:31:23.000Z</time>
      </trkpt>
      <trkpt lat="47.59516" lon="6.76209">
        <ele>516</ele>
        <time>2016-04-10T08:31:24.000Z</time>
      </trkpt>
      <trkpt lat="47.59517" lon="6.76214">
        <ele>516</ele>
        <time>2016-04-10T08:31:25.000Z</time>
      </trkpt>
      <trkpt lat="47.59519" lon="6.76219">
        <ele>516</ele>
        <time>2016-04-10T08:31:26.000Z</time>
      </trkpt>
      <trkpt lat="47.59521" lon="6.76224">
        <ele>516</ele>
        <time>2016-04-10T08:31:27.000Z</time>
      </trkpt>
      <trkpt lat="47.59522" lon="6.76229">
        <ele>516</ele>
        <time>2016-04-10T08:31:28.000Z</time>
      </trkpt>
      <trkpt lat="47.59524" lon="6.76234">
        <ele>516</ele>
        <time>2016-04-10T08:31:29.000Z</time>
      </trkpt>
      <trkpt lat="47.59526" lon="6.76239">
        <ele>516</ele>
        <time>2016-04-10T08:31:30.000Z</time>
      </trkpt>
      <trkpt lat="47.59528" lon="6.76245">
        <ele>516</ele>
        <time>2016-04-10T08:31:31.000Z</time>
      </trkpt>
      <trkpt lat="47.59531" lon="6.76251">
        <ele>515</ele>
        <time>2016-04-10T08:31:32.000Z</time>
      </trkpt>
      <trkpt lat="47.59533" lon="6.76256">
        <ele>516</ele>
        <time>2016-04-10T08:31:33.000Z</time>
      </trkpt>
      <trkpt lat="47.59535" lon="6.76262">
        <ele>516</ele>
        <time>2016-04-10T08:31:34.000Z</time>
      </trkpt>
      <trkpt lat="47.59537" lon="6.76269">
        <ele>516</ele>
        <time>2016-04-10T08:31:35.000Z</time>
      </trkpt>
      <trkpt lat="47.59538" lon="6.76276">
        <ele>516</ele>
        <time>2016-04-10T08:31:36.000Z</time>
      </trkpt>
      <trkpt lat="47.59539" lon="6.76283">
        <ele>516</ele>
        <time>2016-04-10T08:31:37.000Z</time>
      </trkpt>
      <trkpt lat="47.5954" lon="6.76291">
        <ele>516</ele>
        <time>2016-04-10T08:31:38.000Z</time>
      </trkpt>
      <trkpt lat="47.59542" lon="6.76298">
        <ele>516</ele>
        <time>2016-04-10T08:31:39.000Z</time>
      </trkpt>
      <trkpt lat="47.59544" lon="6.76306">
        <ele>516</ele>
        <time>2016-04-10T08:31:40.000Z</time>
      </trkpt>
      <trkpt lat="47.59546" lon="6.76312">
        <ele>516</ele>
        <time>2016-04-10T08:31:41.000Z</time>
      </trkpt>
      <trkpt lat="47.59548" lon="6.76319">
        <ele>516</ele>
        <time>2016-04-10T08:31:42.000Z</time>
      </trkpt>
      <trkpt lat="47.59551" lon="6.76326">
        <ele>516</ele>
        <time>2016-04-10T08:31:43.000Z</time>
      </trkpt>
      <trkpt lat="47.59553" lon="6.76332">
        <ele>516</ele>
        <time>2016-04-10T08:31:44.000Z</time>
      </trkpt>
      <trkpt lat="47.59555" lon="6.76339">
        <ele>515</ele>
        <time>2016-04-10T08:31:45.000Z</time>
      </trkpt>
      <trkpt lat="47.59557" lon="6.76346">
        <ele>515</ele>
        <time>2016-04-10T08:31:46.000Z</time>
      </trkpt>
      <trkpt lat="47.59566" lon="6.76366">
        <ele>514</ele>
        <time>2016-04-10T08:31:47.000Z</time>
      </trkpt>
      <trkpt lat="47.5957" lon="6.76375">
        <ele>514</ele>
        <time>2016-04-10T08:31:48.000Z</time>
      </trkpt>
      <trkpt lat="47.59573" lon="6.76382">
        <ele>514</ele>
        <time>2016-04-10T08:31:49.000Z</time>
      </trkpt>
      <trkpt lat="47.59576" lon="6.76387">
        <ele>514</ele>
        <time>2016-04-10T08:31:50.000Z</time>
      </trkpt>
      <trkpt lat="47.5958" lon="6.76392">
        <ele>514</ele>
        <time>2016-04-10T08:31:51.000Z</time>
      </trkpt>
      <trkpt lat="47.59583" lon="6.76397">
        <ele>514</ele>
        <time>2016-04-10T08:31:52.000Z</time>
      </trkpt>
      <trkpt lat="47.59586" lon="6.76401">
        <ele>517</ele>
        <time>2016-04-10T08:31:53.000Z</time>
      </trkpt>
      <trkpt lat="47.59589" lon="6.76406">
        <ele>517</ele>
        <time>2016-04-10T08:31:54.000Z</time>
      </trkpt>
      <trkpt lat="47.59592" lon="6.76412">
        <ele>517</ele>
        <time>2016-04-10T08:31:55.000Z</time>
      </trkpt>
      <trkpt lat="47.59595" lon="6.76415">
        <ele>517</ele>
        <time>2016-04-10T08:31:56.000Z</time>
      </trkpt>
      <trkpt lat="47.59597" lon="6.76417">
        <ele>516</ele>
        <time>2016-04-10T08:31:57.000Z</time>
      </trkpt>
      <trkpt lat="47.596" lon="6.7642">
        <ele>516</ele>
        <time>2016-04-10T08:31:58.000Z</time>
      </trkpt>
      <trkpt lat="47.59603" lon="6.76424">
        <ele>516</ele>
        <time>2016-04-10T08:31:59.000Z</time>
      </trkpt>
      <trkpt lat="47.59605" lon="6.76427">
        <ele>516</ele>
        <time>2016-04-10T08:32:00.000Z</time>
      </trkpt>
      <trkpt lat="47.59608" lon="6.76431">
        <ele>517</ele>
        <time>2016-04-10T08:32:01.000Z</time>
      </trkpt>
      <trkpt lat="47.59611" lon="6.76435">
        <ele>517</ele>
        <time>2016-04-10T08:32:02.000Z</time>
      </trkpt>
      <trkpt lat="47.59614" lon="6.7644">
        <ele>517</ele>
        <time>2016-04-10T08:32:03.000Z</time>
      </trkpt>
      <trkpt lat="47.59616" lon="6.76444">
        <ele>517</ele>
        <time>2016-04-10T08:32:04.000Z</time>
      </trkpt>
      <trkpt lat="47.59619" lon="6.76449">
        <ele>517</ele>
        <time>2016-04-10T08:32:05.000Z</time>
      </trkpt>
      <trkpt lat="47.59622" lon="6.76453">
        <ele>517</ele>
        <time>2016-04-10T08:32:06.000Z</time>
      </trkpt>
      <trkpt lat="47.59625" lon="6.76458">
        <ele>517</ele>
        <time>2016-04-10T08:32:07.000Z</time>
      </trkpt>
      <trkpt lat="47.59627" lon="6.76462">
        <ele>517</ele>
        <time>2016-04-10T08:32:08.000Z</time>
      </trkpt>
      <trkpt lat="47.5963" lon="6.76467">
        <ele>517</ele>
        <time>2016-04-10T08:32:09.000Z</time>
      </trkpt>
      <trkpt lat="47.59632" lon="6.76471">
        <ele>517</ele>
        <time>2016-04-10T08:32:10.000Z</time>
      </trkpt>
      <trkpt lat="47.59636" lon="6.76476">
        <ele>517</ele>
        <time>2016-04-10T08:32:11.000Z</time>
      </trkpt>
      <trkpt lat="47.59639" lon="6.76481">
        <ele>517</ele>
        <time>2016-04-10T08:32:12.000Z</time>
      </trkpt>
      <trkpt lat="47.59643" lon="6.76485">
        <ele>517</ele>
        <time>2016-04-10T08:32:13.000Z</time>
      </trkpt>
      <trkpt lat="47.59646" lon="6.76489">
        <ele>517</ele>
        <time>2016-04-10T08:32:14.000Z</time>
      </trkpt>
      <trkpt lat="47.5965" lon="6.76493">
        <ele>517</ele>
        <time>2016-04-10T08:32:15.000Z</time>
      </trkpt>
      <trkpt lat="47.59653" lon="6.76497">
        <ele>518</ele>
        <time>2016-04-10T08:32:16.000Z</time>
      </trkpt>
      <trkpt lat="47.59657" lon="6.76501">
        <ele>517</ele>
        <time>2016-04-10T08:32:17.000Z</time>
      </trkpt>
      <trkpt lat="47.5966" lon="6.76505">
        <ele>517</ele>
        <time>2016-04-10T08:32:18.000Z</time>
      </trkpt>
      <trkpt lat="47.59664" lon="6.76509">
        <ele>517</ele>
        <time>2016-04-10T08:32:19.000Z</time>
      </trkpt>
      <trkpt lat="47.59668" lon="6.76515">
        <ele>518</ele>
        <time>2016-04-10T08:32:20.000Z</time>
      </trkpt>
      <trkpt lat="47.59669" lon="6.76523">
        <ele>517</ele>
        <time>2016-04-10T08:32:21.000Z</time>
      </trkpt>
      <trkpt lat="47.59665" lon="6.76546">
        <ele>515</ele>
        <time>2016-04-10T08:32:22.000Z</time>
      </trkpt>
      <trkpt lat="47.59663" lon="6.76551">
        <ele>515</ele>
        <time>2016-04-10T08:32:23.000Z</time>
      </trkpt>
      <trkpt lat="47.5966" lon="6.76556">
        <ele>515</ele>
        <time>2016-04-10T08:32:24.000Z</time>
      </trkpt>
      <trkpt lat="47.59658" lon="6.7656">
        <ele>515</ele>
        <time>2016-04-10T08:32:25.000Z</time>
      </trkpt>
      <trkpt lat="47.59656" lon="6.76565">
        <ele>515</ele>
        <time>2016-04-10T08:32:26.000Z</time>
      </trkpt>
      <trkpt lat="47.59655" lon="6.76572">
        <ele>515</ele>
        <time>2016-04-10T08:32:27.000Z</time>
      </trkpt>
      <trkpt lat="47.59654" lon="6.76578">
        <ele>515</ele>
        <time>2016-04-10T08:32:28.000Z</time>
      </trkpt>
      <trkpt lat="47.59655" lon="6.76587">
        <ele>514</ele>
        <time>2016-04-10T08:32:29.000Z</time>
      </trkpt>
      <trkpt lat="47.59655" lon="6.76594">
        <ele>513</ele>
        <time>2016-04-10T08:32:30.000Z</time>
      </trkpt>
      <trkpt lat="47.59658" lon="6.76606">
        <ele>513</ele>
        <time>2016-04-10T08:32:31.000Z</time>
      </trkpt>
      <trkpt lat="47.59659" lon="6.76617">
        <ele>512</ele>
        <time>2016-04-10T08:32:32.000Z</time>
      </trkpt>
      <trkpt lat="47.5966" lon="6.76625">
        <ele>512</ele>
        <time>2016-04-10T08:32:33.000Z</time>
      </trkpt>
      <trkpt lat="47.59661" lon="6.76637">
        <ele>512</ele>
        <time>2016-04-10T08:32:34.000Z</time>
      </trkpt>
      <trkpt lat="47.59661" lon="6.76648">
        <ele>511</ele>
        <time>2016-04-10T08:32:35.000Z</time>
      </trkpt>
      <trkpt lat="47.59662" lon="6.76658">
        <ele>511</ele>
        <time>2016-04-10T08:32:36.000Z</time>
      </trkpt>
      <trkpt lat="47.59661" lon="6.76666">
        <ele>511</ele>
        <time>2016-04-10T08:32:37.000Z</time>
      </trkpt>
      <trkpt lat="47.59661" lon="6.76674">
        <ele>510</ele>
        <time>2016-04-10T08:32:38.000Z</time>
      </trkpt>
      <trkpt lat="47.59659" lon="6.76682">
        <ele>509</ele>
        <time>2016-04-10T08:32:39.000Z</time>
      </trkpt>
      <trkpt lat="47.59659" lon="6.76692">
        <ele>508</ele>
        <time>2016-04-10T08:32:40.000Z</time>
      </trkpt>
      <trkpt lat="47.59664" lon="6.76706">
        <ele>508</ele>
        <time>2016-04-10T08:32:41.000Z</time>
      </trkpt>
      <trkpt lat="47.59664" lon="6.76716">
        <ele>507</ele>
        <time>2016-04-10T08:32:42.000Z</time>
      </trkpt>
      <trkpt lat="47.59665" lon="6.76724">
        <ele>507</ele>
        <time>2016-04-10T08:32:43.000Z</time>
      </trkpt>
      <trkpt lat="47.59665" lon="6.76733">
        <ele>507</ele>
        <time>2016-04-10T08:32:44.000Z</time>
      </trkpt>
      <trkpt lat="47.59667" lon="6.7674">
        <ele>507</ele>
        <time>2016-04-10T08:32:45.000Z</time>
      </trkpt>
      <trkpt lat="47.59669" lon="6.76746">
        <ele>507</ele>
        <time>2016-04-10T08:32:46.000Z</time>
      </trkpt>
      <trkpt lat="47.5967" lon="6.76753">
        <ele>506</ele>
        <time>2016-04-10T08:32:47.000Z</time>
      </trkpt>
      <trkpt lat="47.59674" lon="6.76761">
        <ele>505</ele>
        <time>2016-04-10T08:32:48.000Z</time>
      </trkpt>
      <trkpt lat="47.59675" lon="6.76768">
        <ele>505</ele>
        <time>2016-04-10T08:32:49.000Z</time>
      </trkpt>
      <trkpt lat="47.59675" lon="6.76778">
        <ele>504</ele>
        <time>2016-04-10T08:32:50.000Z</time>
      </trkpt>
      <trkpt lat="47.59677" lon="6.76788">
        <ele>503</ele>
        <time>2016-04-10T08:32:51.000Z</time>
      </trkpt>
      <trkpt lat="47.59676" lon="6.76794">
        <ele>503</ele>
        <time>2016-04-10T08:32:52.000Z</time>
      </trkpt>
      <trkpt lat="47.59677" lon="6.768">
        <ele>503</ele>
        <time>2016-04-10T08:32:53.000Z</time>
      </trkpt>
      <trkpt lat="47.59678" lon="6.76803">
        <ele>503</ele>
        <time>2016-04-10T08:32:54.000Z</time>
      </trkpt>
      <trkpt lat="47.59677" lon="6.76809">
        <ele>503</ele>
        <time>2016-04-10T08:33:02.000Z</time>
      </trkpt>
      <trkpt lat="47.59677" lon="6.7681">
        <ele>503</ele>
        <time>2016-04-10T08:33:03.000Z</time>
      </trkpt>
      <trkpt lat="47.59673" lon="6.76807">
        <ele>503</ele>
        <time>2016-04-10T08:33:13.000Z</time>
      </trkpt>
      <trkpt lat="47.59672" lon="6.76806">
        <ele>503</ele>
        <time>2016-04-10T08:33:14.000Z</time>
      </trkpt>
      <trkpt lat="47.59671" lon="6.76802">
        <ele>503</ele>
        <time>2016-04-10T08:33:16.000Z</time>
      </trkpt>
      <trkpt lat="47.5967" lon="6.768">
        <ele>503</ele>
        <time>2016-04-10T08:33:17.000Z</time>
      </trkpt>
      <trkpt lat="47.59667" lon="6.76796">
        <ele>503</ele>
        <time>2016-04-10T08:33:19.000Z</time>
      </trkpt>
      <trkpt lat="47.59665" lon="6.76795">
        <ele>502</ele>
        <time>2016-04-10T08:33:20.000Z</time>
      </trkpt>
      <trkpt lat="47.59663" lon="6.76794">
        <ele>502</ele>
        <time>2016-04-10T08:33:21.000Z</time>
      </trkpt>
      <trkpt lat="47.5966" lon="6.76793">
        <ele>502</ele>
        <time>2016-04-10T08:33:22.000Z</time>
      </trkpt>
      <trkpt lat="47.59657" lon="6.76793">
        <ele>502</ele>
        <time>2016-04-10T08:33:23.000Z</time>
      </trkpt>
      <trkpt lat="47.59654" lon="6.76792">
        <ele>502</ele>
        <time>2016-04-10T08:33:24.000Z</time>
      </trkpt>
      <trkpt lat="47.59651" lon="6.76792">
        <ele>502</ele>
        <time>2016-04-10T08:33:25.000Z</time>
      </trkpt>
      <trkpt lat="47.59648" lon="6.76791">
        <ele>502</ele>
        <time>2016-04-10T08:33:26.000Z</time>
      </trkpt>
      <trkpt lat="47.59645" lon="6.76791">
        <ele>502</ele>
        <time>2016-04-10T08:33:27.000Z</time>
      </trkpt>
      <trkpt lat="47.59642" lon="6.76791">
        <ele>502</ele>
        <time>2016-04-10T08:33:28.000Z</time>
      </trkpt>
      <trkpt lat="47.5964" lon="6.76791">
        <ele>502</ele>
        <time>2016-04-10T08:33:29.000Z</time>
      </trkpt>
      <trkpt lat="47.59638" lon="6.76792">
        <ele>502</ele>
        <time>2016-04-10T08:33:30.000Z</time>
      </trkpt>
      <trkpt lat="47.59634" lon="6.76795">
        <ele>502</ele>
        <time>2016-04-10T08:33:32.000Z</time>
      </trkpt>
      <trkpt lat="47.59631" lon="6.76797">
        <ele>502</ele>
        <time>2016-04-10T08:33:33.000Z</time>
      </trkpt>
      <trkpt lat="47.59629" lon="6.76798">
        <ele>501</ele>
        <time>2016-04-10T08:33:34.000Z</time>
      </trkpt>
      <trkpt lat="47.59626" lon="6.76802">
        <ele>501</ele>
        <time>2016-04-10T08:33:35.000Z</time>
      </trkpt>
      <trkpt lat="47.59622" lon="6.76806">
        <ele>501</ele>
        <time>2016-04-10T08:33:36.000Z</time>
      </trkpt>
      <trkpt lat="47.59619" lon="6.7681">
        <ele>501</ele>
        <time>2016-04-10T08:33:37.000Z</time>
      </trkpt>
      <trkpt lat="47.59616" lon="6.76815">
        <ele>500</ele>
        <time>2016-04-10T08:33:38.000Z</time>
      </trkpt>
      <trkpt lat="47.59614" lon="6.76818">
        <ele>500</ele>
        <time>2016-04-10T08:33:39.000Z</time>
      </trkpt>
      <trkpt lat="47.59613" lon="6.76824">
        <ele>500</ele>
        <time>2016-04-10T08:33:41.000Z</time>
      </trkpt>
      <trkpt lat="47.59614" lon="6.76827">
        <ele>500</ele>
        <time>2016-04-10T08:33:42.000Z</time>
      </trkpt>
      <trkpt lat="47.59615" lon="6.7683">
        <ele>500</ele>
        <time>2016-04-10T08:33:43.000Z</time>
      </trkpt>
      <trkpt lat="47.59616" lon="6.76833">
        <ele>500</ele>
        <time>2016-04-10T08:33:44.000Z</time>
      </trkpt>
      <trkpt lat="47.59618" lon="6.76836">
        <ele>497</ele>
        <time>2016-04-10T08:33:45.000Z</time>
      </trkpt>
      <trkpt lat="47.5962" lon="6.7684">
        <ele>497</ele>
        <time>2016-04-10T08:33:46.000Z</time>
      </trkpt>
      <trkpt lat="47.59622" lon="6.76844">
        <ele>497</ele>
        <time>2016-04-10T08:33:47.000Z</time>
      </trkpt>
      <trkpt lat="47.59623" lon="6.76849">
        <ele>497</ele>
        <time>2016-04-10T08:33:48.000Z</time>
      </trkpt>
      <trkpt lat="47.59624" lon="6.76855">
        <ele>497</ele>
        <time>2016-04-10T08:33:49.000Z</time>
      </trkpt>
      <trkpt lat="47.59614" lon="6.76873">
        <ele>496</ele>
        <time>2016-04-10T08:33:50.000Z</time>
      </trkpt>
      <trkpt lat="47.59611" lon="6.7688">
        <ele>496</ele>
        <time>2016-04-10T08:33:51.000Z</time>
      </trkpt>
      <trkpt lat="47.59612" lon="6.76885">
        <ele>496</ele>
        <time>2016-04-10T08:33:52.000Z</time>
      </trkpt>
      <trkpt lat="47.59612" lon="6.76891">
        <ele>496</ele>
        <time>2016-04-10T08:33:53.000Z</time>
      </trkpt>
      <trkpt lat="47.59615" lon="6.76896">
        <ele>496</ele>
        <time>2016-04-10T08:33:54.000Z</time>
      </trkpt>
      <trkpt lat="47.59617" lon="6.76903">
        <ele>496</ele>
        <time>2016-04-10T08:33:55.000Z</time>
      </trkpt>
      <trkpt lat="47.59618" lon="6.7691">
        <ele>496</ele>
        <time>2016-04-10T08:33:56.000Z</time>
      </trkpt>
      <trkpt lat="47.59619" lon="6.76918">
        <ele>492</ele>
        <time>2016-04-10T08:33:57.000Z</time>
      </trkpt>
      <trkpt lat="47.59621" lon="6.76929">
        <ele>492</ele>
        <time>2016-04-10T08:33:58.000Z</time>
      </trkpt>
      <trkpt lat="47.59619" lon="6.76939">
        <ele>492</ele>
        <time>2016-04-10T08:33:59.000Z</time>
      </trkpt>
      <trkpt lat="47.5962" lon="6.76947">
        <ele>492</ele>
        <time>2016-04-10T08:34:00.000Z</time>
      </trkpt>
      <trkpt lat="47.59619" lon="6.76953">
        <ele>491</ele>
        <time>2016-04-10T08:34:02.000Z</time>
      </trkpt>
      <trkpt lat="47.59619" lon="6.76955">
        <ele>491</ele>
        <time>2016-04-10T08:34:03.000Z</time>
      </trkpt>
      <trkpt lat="47.5962" lon="6.7696">
        <ele>491</ele>
        <time>2016-04-10T08:34:04.000Z</time>
      </trkpt>
      <trkpt lat="47.5962" lon="6.76964">
        <ele>491</ele>
        <time>2016-04-10T08:34:05.000Z</time>
      </trkpt>
      <trkpt lat="47.59623" lon="6.76967">
        <ele>491</ele>
        <time>2016-04-10T08:34:06.000Z</time>
      </trkpt>
      <trkpt lat="47.59624" lon="6.76974">
        <ele>491</ele>
        <time>2016-04-10T08:34:07.000Z</time>
      </trkpt>
      <trkpt lat="47.59627" lon="6.76981">
        <ele>491</ele>
        <time>2016-04-10T08:34:08.000Z</time>
      </trkpt>
      <trkpt lat="47.59627" lon="6.76985">
        <ele>491</ele>
        <time>2016-04-10T08:34:09.000Z</time>
      </trkpt>
      <trkpt lat="47.59628" lon="6.76989">
        <ele>491</ele>
        <time>2016-04-10T08:34:10.000Z</time>
      </trkpt>
      <trkpt lat="47.59628" lon="6.76994">
        <ele>491</ele>
        <time>2016-04-10T08:34:12.000Z</time>
      </trkpt>
      <trkpt lat="47.59628" lon="6.76996">
        <ele>491</ele>
        <time>2016-04-10T08:34:13.000Z</time>
      </trkpt>
      <trkpt lat="47.5963" lon="6.77">
        <ele>486</ele>
        <time>2016-04-10T08:34:15.000Z</time>
      </trkpt>
      <trkpt lat="47.5963" lon="6.77004">
        <ele>486</ele>
        <time>2016-04-10T08:34:16.000Z</time>
      </trkpt>
      <trkpt lat="47.59631" lon="6.77009">
        <ele>486</ele>
        <time>2016-04-10T08:34:17.000Z</time>
      </trkpt>
      <trkpt lat="47.59631" lon="6.77014">
        <ele>486</ele>
        <time>2016-04-10T08:34:18.000Z</time>
      </trkpt>
      <trkpt lat="47.59629" lon="6.77019">
        <ele>486</ele>
        <time>2016-04-10T08:34:19.000Z</time>
      </trkpt>
      <trkpt lat="47.59627" lon="6.77022">
        <ele>485</ele>
        <time>2016-04-10T08:34:20.000Z</time>
      </trkpt>
      <trkpt lat="47.59624" lon="6.77025">
        <ele>485</ele>
        <time>2016-04-10T08:34:21.000Z</time>
      </trkpt>
      <trkpt lat="47.5962" lon="6.77027">
        <ele>485</ele>
        <time>2016-04-10T08:34:22.000Z</time>
      </trkpt>
      <trkpt lat="47.59617" lon="6.77029">
        <ele>485</ele>
        <time>2016-04-10T08:34:23.000Z</time>
      </trkpt>
      <trkpt lat="47.59615" lon="6.77031">
        <ele>485</ele>
        <time>2016-04-10T08:34:24.000Z</time>
      </trkpt>
      <trkpt lat="47.59611" lon="6.77035">
        <ele>485</ele>
        <time>2016-04-10T08:34:26.000Z</time>
      </trkpt>
      <trkpt lat="47.5961" lon="6.77036">
        <ele>485</ele>
        <time>2016-04-10T08:34:27.000Z</time>
      </trkpt>
      <trkpt lat="47.59609" lon="6.77042">
        <ele>484</ele>
        <time>2016-04-10T08:34:36.000Z</time>
      </trkpt>
      <trkpt lat="47.5961" lon="6.77042">
        <ele>484</ele>
        <time>2016-04-10T08:34:37.000Z</time>
      </trkpt>
      <trkpt lat="47.59609" lon="6.77049">
        <ele>484</ele>
        <time>2016-04-10T08:34:49.000Z</time>
      </trkpt>
      <trkpt lat="47.59609" lon="6.77051">
        <ele>484</ele>
        <time>2016-04-10T08:34:50.000Z</time>
      </trkpt>
      <trkpt lat="47.5961" lon="6.77054">
        <ele>484</ele>
        <time>2016-04-10T08:34:51.000Z</time>
      </trkpt>
      <trkpt lat="47.59611" lon="6.77057">
        <ele>484</ele>
        <time>2016-04-10T08:34:52.000Z</time>
      </trkpt>
      <trkpt lat="47.59612" lon="6.77061">
        <ele>483</ele>
        <time>2016-04-10T08:34:53.000Z</time>
      </trkpt>
      <trkpt lat="47.59613" lon="6.77065">
        <ele>483</ele>
        <time>2016-04-10T08:34:54.000Z</time>
      </trkpt>
      <trkpt lat="47.59614" lon="6.77071">
        <ele>483</ele>
        <time>2016-04-10T08:34:55.000Z</time>
      </trkpt>
      <trkpt lat="47.59614" lon="6.77078">
        <ele>483</ele>
        <time>2016-04-10T08:34:56.000Z</time>
      </trkpt>
      <trkpt lat="47.59614" lon="6.77086">
        <ele>478</ele>
        <time>2016-04-10T08:34:57.000Z</time>
      </trkpt>
      <trkpt lat="47.59614" lon="6.77095">
        <ele>478</ele>
        <time>2016-04-10T08:34:58.000Z</time>
      </trkpt>
      <trkpt lat="47.59614" lon="6.77103">
        <ele>477</ele>
        <time>2016-04-10T08:34:59.000Z</time>
      </trkpt>
      <trkpt lat="47.59615" lon="6.77111">
        <ele>477</ele>
        <time>2016-04-10T08:35:00.000Z</time>
      </trkpt>
      <trkpt lat="47.59615" lon="6.77118">
        <ele>477</ele>
        <time>2016-04-10T08:35:01.000Z</time>
      </trkpt>
      <trkpt lat="47.59615" lon="6.77125">
        <ele>476</ele>
        <time>2016-04-10T08:35:02.000Z</time>
      </trkpt>
      <trkpt lat="47.59613" lon="6.77131">
        <ele>476</ele>
        <time>2016-04-10T08:35:03.000Z</time>
      </trkpt>
      <trkpt lat="47.5961" lon="6.77137">
        <ele>476</ele>
        <time>2016-04-10T08:35:04.000Z</time>
      </trkpt>
      <trkpt lat="47.59605" lon="6.77141">
        <ele>475</ele>
        <time>2016-04-10T08:35:05.000Z</time>
      </trkpt>
      <trkpt lat="47.596" lon="6.77144">
        <ele>475</ele>
        <time>2016-04-10T08:35:06.000Z</time>
      </trkpt>
      <trkpt lat="47.59596" lon="6.77144">
        <ele>475</ele>
        <time>2016-04-10T08:35:07.000Z</time>
      </trkpt>
      <trkpt lat="47.59592" lon="6.77144">
        <ele>475</ele>
        <time>2016-04-10T08:35:08.000Z</time>
      </trkpt>
      <trkpt lat="47.59588" lon="6.77145">
        <ele>475</ele>
        <time>2016-04-10T08:35:11.000Z</time>
      </trkpt>
      <trkpt lat="47.59587" lon="6.77145">
        <ele>475</ele>
        <time>2016-04-10T08:35:12.000Z</time>
      </trkpt>
      <trkpt lat="47.59583" lon="6.77146">
        <ele>473</ele>
        <time>2016-04-10T08:35:24.000Z</time>
      </trkpt>
      <trkpt lat="47.59581" lon="6.77145">
        <ele>473</ele>
        <time>2016-04-10T08:35:25.000Z</time>
      </trkpt>
      <trkpt lat="47.59577" lon="6.77143">
        <ele>473</ele>
        <time>2016-04-10T08:35:27.000Z</time>
      </trkpt>
      <trkpt lat="47.59575" lon="6.77142">
        <ele>473</ele>
        <time>2016-04-10T08:35:28.000Z</time>
      </trkpt>
      <trkpt lat="47.59573" lon="6.7714">
        <ele>473</ele>
        <time>2016-04-10T08:35:29.000Z</time>
      </trkpt>
      <trkpt lat="47.5957" lon="6.77137">
        <ele>473</ele>
        <time>2016-04-10T08:35:30.000Z</time>
      </trkpt>
      <trkpt lat="47.59567" lon="6.77134">
        <ele>473</ele>
        <time>2016-04-10T08:35:31.000Z</time>
      </trkpt>
      <trkpt lat="47.59565" lon="6.77131">
        <ele>473</ele>
        <time>2016-04-10T08:35:32.000Z</time>
      </trkpt>
      <trkpt lat="47.59562" lon="6.77129">
        <ele>473</ele>
        <time>2016-04-10T08:35:33.000Z</time>
      </trkpt>
      <trkpt lat="47.59559" lon="6.77126">
        <ele>473</ele>
        <time>2016-04-10T08:35:34.000Z</time>
      </trkpt>
      <trkpt lat="47.59557" lon="6.77123">
        <ele>473</ele>
        <time>2016-04-10T08:35:35.000Z</time>
      </trkpt>
      <trkpt lat="47.59554" lon="6.77121">
        <ele>473</ele>
        <time>2016-04-10T08:35:36.000Z</time>
      </trkpt>
      <trkpt lat="47.59552" lon="6.77118">
        <ele>473</ele>
        <time>2016-04-10T08:35:37.000Z</time>
      </trkpt>
      <trkpt lat="47.5955" lon="6.77115">
        <ele>473</ele>
        <time>2016-04-10T08:35:38.000Z</time>
      </trkpt>
      <trkpt lat="47.59548" lon="6.77112">
        <ele>473</ele>
        <time>2016-04-10T08:35:39.000Z</time>
      </trkpt>
      <trkpt lat="47.59546" lon="6.77109">
        <ele>473</ele>
        <time>2016-04-10T08:35:40.000Z</time>
      </trkpt>
      <trkpt lat="47.59545" lon="6.77106">
        <ele>473</ele>
        <time>2016-04-10T08:35:41.000Z</time>
      </trkpt>
      <trkpt lat="47.59543" lon="6.77102">
        <ele>473</ele>
        <time>2016-04-10T08:35:42.000Z</time>
      </trkpt>
      <trkpt lat="47.59541" lon="6.77098">
        <ele>473</ele>
        <time>2016-04-10T08:35:43.000Z</time>
      </trkpt>
      <trkpt lat="47.5954" lon="6.77095">
        <ele>473</ele>
        <time>2016-04-10T08:35:44.000Z</time>
      </trkpt>
      <trkpt lat="47.59538" lon="6.77091">
        <ele>473</ele>
        <time>2016-04-10T08:35:45.000Z</time>
      </trkpt>
      <trkpt lat="47.59537" lon="6.77088">
        <ele>473</ele>
        <time>2016-04-10T08:35:46.000Z</time>
      </trkpt>
      <trkpt lat="47.59536" lon="6.77083">
        <ele>477</ele>
        <time>2016-04-10T08:35:48.000Z</time>
      </trkpt>
      <trkpt lat="47.59535" lon="6.77081">
        <ele>477</ele>
        <time>2016-04-10T08:35:49.000Z</time>
      </trkpt>
      <trkpt lat="47.59533" lon="6.77078">
        <ele>477</ele>
        <time>2016-04-10T08:35:50.000Z</time>
      </trkpt>
      <trkpt lat="47.59531" lon="6.77075">
        <ele>477</ele>
        <time>2016-04-10T08:35:51.000Z</time>
      </trkpt>
      <trkpt lat="47.59529" lon="6.77072">
        <ele>477</ele>
        <time>2016-04-10T08:35:52.000Z</time>
      </trkpt>
      <trkpt lat="47.59526" lon="6.77069">
        <ele>477</ele>
        <time>2016-04-10T08:35:53.000Z</time>
      </trkpt>
      <trkpt lat="47.59523" lon="6.77066">
        <ele>477</ele>
        <time>2016-04-10T08:35:54.000Z</time>
      </trkpt>
      <trkpt lat="47.5952" lon="6.77064">
        <ele>477</ele>
        <time>2016-04-10T08:35:55.000Z</time>
      </trkpt>
      <trkpt lat="47.59517" lon="6.77062">
        <ele>477</ele>
        <time>2016-04-10T08:35:56.000Z</time>
      </trkpt>
      <trkpt lat="47.59513" lon="6.7706">
        <ele>477</ele>
        <time>2016-04-10T08:35:57.000Z</time>
      </trkpt>
      <trkpt lat="47.5951" lon="6.77057">
        <ele>477</ele>
        <time>2016-04-10T08:35:58.000Z</time>
      </trkpt>
      <trkpt lat="47.59507" lon="6.77054">
        <ele>477</ele>
        <time>2016-04-10T08:35:59.000Z</time>
      </trkpt>
      <trkpt lat="47.59503" lon="6.7705">
        <ele>477</ele>
        <time>2016-04-10T08:36:00.000Z</time>
      </trkpt>
      <trkpt lat="47.59499" lon="6.77047">
        <ele>470</ele>
        <time>2016-04-10T08:36:01.000Z</time>
      </trkpt>
      <trkpt lat="47.59496" lon="6.77043">
        <ele>470</ele>
        <time>2016-04-10T08:36:02.000Z</time>
      </trkpt>
      <trkpt lat="47.59492" lon="6.77038">
        <ele>470</ele>
        <time>2016-04-10T08:36:03.000Z</time>
      </trkpt>
      <trkpt lat="47.5949" lon="6.77033">
        <ele>470</ele>
        <time>2016-04-10T08:36:04.000Z</time>
      </trkpt>
      <trkpt lat="47.59488" lon="6.77027">
        <ele>471</ele>
        <time>2016-04-10T08:36:05.000Z</time>
      </trkpt>
      <trkpt lat="47.59487" lon="6.77021">
        <ele>471</ele>
        <time>2016-04-10T08:36:06.000Z</time>
      </trkpt>
      <trkpt lat="47.59485" lon="6.77015">
        <ele>472</ele>
        <time>2016-04-10T08:36:07.000Z</time>
      </trkpt>
      <trkpt lat="47.59484" lon="6.77011">
        <ele>472</ele>
        <time>2016-04-10T08:36:08.000Z</time>
      </trkpt>
      <trkpt lat="47.59481" lon="6.77006">
        <ele>472</ele>
        <time>2016-04-10T08:36:09.000Z</time>
      </trkpt>
      <trkpt lat="47.59478" lon="6.77003">
        <ele>471</ele>
        <time>2016-04-10T08:36:10.000Z</time>
      </trkpt>
      <trkpt lat="47.59474" lon="6.77">
        <ele>473</ele>
        <time>2016-04-10T08:36:11.000Z</time>
      </trkpt>
      <trkpt lat="47.59469" lon="6.76997">
        <ele>473</ele>
        <time>2016-04-10T08:36:12.000Z</time>
      </trkpt>
      <trkpt lat="47.59465" lon="6.76994">
        <ele>472</ele>
        <time>2016-04-10T08:36:13.000Z</time>
      </trkpt>
      <trkpt lat="47.59462" lon="6.76993">
        <ele>472</ele>
        <time>2016-04-10T08:36:14.000Z</time>
      </trkpt>
      <trkpt lat="47.5946" lon="6.76992">
        <ele>471</ele>
        <time>2016-04-10T08:36:15.000Z</time>
      </trkpt>
      <trkpt lat="47.59457" lon="6.7699">
        <ele>471</ele>
        <time>2016-04-10T08:36:17.000Z</time>
      </trkpt>
      <trkpt lat="47.59455" lon="6.76989">
        <ele>471</ele>
        <time>2016-04-10T08:36:18.000Z</time>
      </trkpt>
      <trkpt lat="47.59452" lon="6.76984">
        <ele>470</ele>
        <time>2016-04-10T08:36:21.000Z</time>
      </trkpt>
      <trkpt lat="47.59451" lon="6.76982">
        <ele>470</ele>
        <time>2016-04-10T08:36:22.000Z</time>
      </trkpt>
      <trkpt lat="47.59449" lon="6.76976">
        <ele>470</ele>
        <time>2016-04-10T08:36:25.000Z</time>
      </trkpt>
      <trkpt lat="47.59449" lon="6.76974">
        <ele>470</ele>
        <time>2016-04-10T08:36:26.000Z</time>
      </trkpt>
      <trkpt lat="47.59447" lon="6.76969">
        <ele>470</ele>
        <time>2016-04-10T08:36:28.000Z</time>
      </trkpt>
      <trkpt lat="47.59446" lon="6.76968">
        <ele>470</ele>
        <time>2016-04-10T08:36:29.000Z</time>
      </trkpt>
      <trkpt lat="47.59444" lon="6.76967">
        <ele>470</ele>
        <time>2016-04-10T08:36:30.000Z</time>
      </trkpt>
      <trkpt lat="47.59441" lon="6.76966">
        <ele>470</ele>
        <time>2016-04-10T08:36:31.000Z</time>
      </trkpt>
      <trkpt lat="47.59438" lon="6.76965">
        <ele>470</ele>
        <time>2016-04-10T08:36:32.000Z</time>
      </trkpt>
      <trkpt lat="47.59435" lon="6.76964">
        <ele>470</ele>
        <time>2016-04-10T08:36:33.000Z</time>
      </trkpt>
      <trkpt lat="47.59432" lon="6.76963">
        <ele>469</ele>
        <time>2016-04-10T08:36:34.000Z</time>
      </trkpt>
      <trkpt lat="47.59429" lon="6.76963">
        <ele>469</ele>
        <time>2016-04-10T08:36:35.000Z</time>
      </trkpt>
      <trkpt lat="47.59426" lon="6.76963">
        <ele>469</ele>
        <time>2016-04-10T08:36:36.000Z</time>
      </trkpt>
      <trkpt lat="47.59424" lon="6.76964">
        <ele>469</ele>
        <time>2016-04-10T08:36:37.000Z</time>
      </trkpt>
      <trkpt lat="47.59421" lon="6.76965">
        <ele>469</ele>
        <time>2016-04-10T08:36:38.000Z</time>
      </trkpt>
      <trkpt lat="47.59418" lon="6.76966">
        <ele>469</ele>
        <time>2016-04-10T08:36:39.000Z</time>
      </trkpt>
      <trkpt lat="47.59415" lon="6.76967">
        <ele>460</ele>
        <time>2016-04-10T08:36:40.000Z</time>
      </trkpt>
      <trkpt lat="47.59412" lon="6.76968">
        <ele>460</ele>
        <time>2016-04-10T08:36:41.000Z</time>
      </trkpt>
      <trkpt lat="47.59408" lon="6.76968">
        <ele>460</ele>
        <time>2016-04-10T08:36:42.000Z</time>
      </trkpt>
      <trkpt lat="47.59405" lon="6.76969">
        <ele>460</ele>
        <time>2016-04-10T08:36:43.000Z</time>
      </trkpt>
      <trkpt lat="47.59402" lon="6.76967">
        <ele>460</ele>
        <time>2016-04-10T08:36:44.000Z</time>
      </trkpt>
      <trkpt lat="47.594" lon="6.76964">
        <ele>460</ele>
        <time>2016-04-10T08:36:45.000Z</time>
      </trkpt>
      <trkpt lat="47.59398" lon="6.76961">
        <ele>460</ele>
        <time>2016-04-10T08:36:46.000Z</time>
      </trkpt>
      <trkpt lat="47.59396" lon="6.76959">
        <ele>460</ele>
        <time>2016-04-10T08:36:47.000Z</time>
      </trkpt>
      <trkpt lat="47.59394" lon="6.76956">
        <ele>460</ele>
        <time>2016-04-10T08:36:48.000Z</time>
      </trkpt>
      <trkpt lat="47.59391" lon="6.76954">
        <ele>460</ele>
        <time>2016-04-10T08:36:49.000Z</time>
      </trkpt>
      <trkpt lat="47.59388" lon="6.76952">
        <ele>459</ele>
        <time>2016-04-10T08:36:50.000Z</time>
      </trkpt>
      <trkpt lat="47.59385" lon="6.76951">
        <ele>459</ele>
        <time>2016-04-10T08:36:51.000Z</time>
      </trkpt>
      <trkpt lat="47.59382" lon="6.76949">
        <ele>459</ele>
        <time>2016-04-10T08:36:52.000Z</time>
      </trkpt>
      <trkpt lat="47.5938" lon="6.76949">
        <ele>459</ele>
        <time>2016-04-10T08:36:53.000Z</time>
      </trkpt>
      <trkpt lat="47.59377" lon="6.76953">
        <ele>459</ele>
        <time>2016-04-10T08:36:56.000Z</time>
      </trkpt>
      <trkpt lat="47.59377" lon="6.76955">
        <ele>458</ele>
        <time>2016-04-10T08:36:57.000Z</time>
      </trkpt>
      <trkpt lat="47.59377" lon="6.76961">
        <ele>458</ele>
        <time>2016-04-10T08:36:59.000Z</time>
      </trkpt>
      <trkpt lat="47.59375" lon="6.76963">
        <ele>458</ele>
        <time>2016-04-10T08:37:00.000Z</time>
      </trkpt>
      <trkpt lat="47.59373" lon="6.76966">
        <ele>458</ele>
        <time>2016-04-10T08:37:01.000Z</time>
      </trkpt>
      <trkpt lat="47.59371" lon="6.76967">
        <ele>458</ele>
        <time>2016-04-10T08:37:02.000Z</time>
      </trkpt>
      <trkpt lat="47.59367" lon="6.76968">
        <ele>457</ele>
        <time>2016-04-10T08:37:03.000Z</time>
      </trkpt>
      <trkpt lat="47.59363" lon="6.76969">
        <ele>457</ele>
        <time>2016-04-10T08:37:04.000Z</time>
      </trkpt>
      <trkpt lat="47.59359" lon="6.76969">
        <ele>457</ele>
        <time>2016-04-10T08:37:05.000Z</time>
      </trkpt>
      <trkpt lat="47.59354" lon="6.76969">
        <ele>456</ele>
        <time>2016-04-10T08:37:06.000Z</time>
      </trkpt>
      <trkpt lat="47.59339" lon="6.76969">
        <ele>456</ele>
        <time>2016-04-10T08:37:07.000Z</time>
      </trkpt>
      <trkpt lat="47.59333" lon="6.76971">
        <ele>449</ele>
        <time>2016-04-10T08:37:08.000Z</time>
      </trkpt>
      <trkpt lat="47.59328" lon="6.76971">
        <ele>449</ele>
        <time>2016-04-10T08:37:09.000Z</time>
      </trkpt>
      <trkpt lat="47.59322" lon="6.76972">
        <ele>449</ele>
        <time>2016-04-10T08:37:10.000Z</time>
      </trkpt>
      <trkpt lat="47.59315" lon="6.76971">
        <ele>449</ele>
        <time>2016-04-10T08:37:11.000Z</time>
      </trkpt>
      <trkpt lat="47.59309" lon="6.76972">
        <ele>449</ele>
        <time>2016-04-10T08:37:12.000Z</time>
      </trkpt>
      <trkpt lat="47.593" lon="6.76972">
        <ele>448</ele>
        <time>2016-04-10T08:37:13.000Z</time>
      </trkpt>
      <trkpt lat="47.59291" lon="6.76972">
        <ele>448</ele>
        <time>2016-04-10T08:37:14.000Z</time>
      </trkpt>
      <trkpt lat="47.59282" lon="6.76974">
        <ele>447</ele>
        <time>2016-04-10T08:37:15.000Z</time>
      </trkpt>
      <trkpt lat="47.59273" lon="6.76975">
        <ele>447</ele>
        <time>2016-04-10T08:37:16.000Z</time>
      </trkpt>
      <trkpt lat="47.59265" lon="6.76975">
        <ele>446</ele>
        <time>2016-04-10T08:37:17.000Z</time>
      </trkpt>
      <trkpt lat="47.59259" lon="6.76974">
        <ele>446</ele>
        <time>2016-04-10T08:37:18.000Z</time>
      </trkpt>
      <trkpt lat="47.59253" lon="6.76973">
        <ele>446</ele>
        <time>2016-04-10T08:37:19.000Z</time>
      </trkpt>
      <trkpt lat="47.59247" lon="6.76973">
        <ele>440</ele>
        <time>2016-04-10T08:37:20.000Z</time>
      </trkpt>
      <trkpt lat="47.59243" lon="6.76972">
        <ele>440</ele>
        <time>2016-04-10T08:37:21.000Z</time>
      </trkpt>
      <trkpt lat="47.59241" lon="6.7697">
        <ele>440</ele>
        <time>2016-04-10T08:37:22.000Z</time>
      </trkpt>
      <trkpt lat="47.59238" lon="6.76969">
        <ele>440</ele>
        <time>2016-04-10T08:37:23.000Z</time>
      </trkpt>
      <trkpt lat="47.59234" lon="6.76968">
        <ele>440</ele>
        <time>2016-04-10T08:37:25.000Z</time>
      </trkpt>
      <trkpt lat="47.59232" lon="6.76967">
        <ele>440</ele>
        <time>2016-04-10T08:37:26.000Z</time>
      </trkpt>
      <trkpt lat="47.59229" lon="6.76966">
        <ele>440</ele>
        <time>2016-04-10T08:37:29.000Z</time>
      </trkpt>
      <trkpt lat="47.59222" lon="6.76972">
        <ele>439</ele>
        <time>2016-04-10T08:37:30.000Z</time>
      </trkpt>
      <trkpt lat="47.5922" lon="6.76972">
        <ele>439</ele>
        <time>2016-04-10T08:37:31.000Z</time>
      </trkpt>
      <trkpt lat="47.59217" lon="6.76974">
        <ele>439</ele>
        <time>2016-04-10T08:37:32.000Z</time>
      </trkpt>
      <trkpt lat="47.59213" lon="6.76975">
        <ele>439</ele>
        <time>2016-04-10T08:37:33.000Z</time>
      </trkpt>
      <trkpt lat="47.59209" lon="6.76976">
        <ele>438</ele>
        <time>2016-04-10T08:37:34.000Z</time>
      </trkpt>
      <trkpt lat="47.59206" lon="6.76976">
        <ele>438</ele>
        <time>2016-04-10T08:37:35.000Z</time>
      </trkpt>
      <trkpt lat="47.59202" lon="6.76977">
        <ele>438</ele>
        <time>2016-04-10T08:37:36.000Z</time>
      </trkpt>
      <trkpt lat="47.59197" lon="6.76978">
        <ele>438</ele>
        <time>2016-04-10T08:37:37.000Z</time>
      </trkpt>
      <trkpt lat="47.59192" lon="6.76978">
        <ele>437</ele>
        <time>2016-04-10T08:37:38.000Z</time>
      </trkpt>
      <trkpt lat="47.59187" lon="6.76978">
        <ele>437</ele>
        <time>2016-04-10T08:37:39.000Z</time>
      </trkpt>
      <trkpt lat="47.59175" lon="6.76977">
        <ele>436</ele>
        <time>2016-04-10T08:37:40.000Z</time>
      </trkpt>
      <trkpt lat="47.59164" lon="6.76977">
        <ele>430</ele>
        <time>2016-04-10T08:37:41.000Z</time>
      </trkpt>
      <trkpt lat="47.59155" lon="6.76976">
        <ele>430</ele>
        <time>2016-04-10T08:37:42.000Z</time>
      </trkpt>
      <trkpt lat="47.59149" lon="6.76975">
        <ele>429</ele>
        <time>2016-04-10T08:37:43.000Z</time>
      </trkpt>
      <trkpt lat="47.59145" lon="6.76979">
        <ele>429</ele>
        <time>2016-04-10T08:37:44.000Z</time>
      </trkpt>
      <trkpt lat="47.59149" lon="6.76977">
        <ele>429</ele>
        <time>2016-04-10T08:37:50.000Z</time>
      </trkpt>
      <trkpt lat="47.5915" lon="6.7698">
        <ele>429</ele>
        <time>2016-04-10T08:37:51.000Z</time>
      </trkpt>
      <trkpt lat="47.59152" lon="6.76983">
        <ele>430</ele>
        <time>2016-04-10T08:37:52.000Z</time>
      </trkpt>
      <trkpt lat="47.59153" lon="6.76987">
        <ele>430</ele>
        <time>2016-04-10T08:37:53.000Z</time>
      </trkpt>
      <trkpt lat="47.59154" lon="6.76992">
        <ele>430</ele>
        <time>2016-04-10T08:37:54.000Z</time>
      </trkpt>
      <trkpt lat="47.59154" lon="6.76997">
        <ele>430</ele>
        <time>2016-04-10T08:37:55.000Z</time>
      </trkpt>
      <trkpt lat="47.59154" lon="6.77002">
        <ele>429</ele>
        <time>2016-04-10T08:37:56.000Z</time>
      </trkpt>
      <trkpt lat="47.59153" lon="6.77007">
        <ele>428</ele>
        <time>2016-04-10T08:37:57.000Z</time>
      </trkpt>
      <trkpt lat="47.59153" lon="6.77011">
        <ele>428</ele>
        <time>2016-04-10T08:37:58.000Z</time>
      </trkpt>
      <trkpt lat="47.59154" lon="6.77017">
        <ele>427</ele>
        <time>2016-04-10T08:37:59.000Z</time>
      </trkpt>
      <trkpt lat="47.59155" lon="6.77022">
        <ele>427</ele>
        <time>2016-04-10T08:38:00.000Z</time>
      </trkpt>
      <trkpt lat="47.59156" lon="6.77028">
        <ele>426</ele>
        <time>2016-04-10T08:38:01.000Z</time>
      </trkpt>
      <trkpt lat="47.59157" lon="6.77034">
        <ele>426</ele>
        <time>2016-04-10T08:38:02.000Z</time>
      </trkpt>
      <trkpt lat="47.59159" lon="6.77039">
        <ele>426</ele>
        <time>2016-04-10T08:38:03.000Z</time>
      </trkpt>
      <trkpt lat="47.59161" lon="6.77044">
        <ele>426</ele>
        <time>2016-04-10T08:38:04.000Z</time>
      </trkpt>
      <trkpt lat="47.59166" lon="6.7705">
        <ele>426</ele>
        <time>2016-04-10T08:38:05.000Z</time>
      </trkpt>
      <trkpt lat="47.59168" lon="6.77056">
        <ele>432</ele>
        <time>2016-04-10T08:38:06.000Z</time>
      </trkpt>
      <trkpt lat="47.59169" lon="6.7706">
        <ele>431</ele>
        <time>2016-04-10T08:38:07.000Z</time>
      </trkpt>
      <trkpt lat="47.59168" lon="6.77065">
        <ele>431</ele>
        <time>2016-04-10T08:38:09.000Z</time>
      </trkpt>
      <trkpt lat="47.59166" lon="6.77068">
        <ele>426</ele>
        <time>2016-04-10T08:38:10.000Z</time>
      </trkpt>
      <trkpt lat="47.59164" lon="6.77071">
        <ele>426</ele>
        <time>2016-04-10T08:38:11.000Z</time>
      </trkpt>
      <trkpt lat="47.59162" lon="6.77075">
        <ele>426</ele>
        <time>2016-04-10T08:38:12.000Z</time>
      </trkpt>
      <trkpt lat="47.5916" lon="6.77078">
        <ele>426</ele>
        <time>2016-04-10T08:38:13.000Z</time>
      </trkpt>
      <trkpt lat="47.59158" lon="6.77082">
        <ele>426</ele>
        <time>2016-04-10T08:38:14.000Z</time>
      </trkpt>
      <trkpt lat="47.59157" lon="6.77085">
        <ele>425</ele>
        <time>2016-04-10T08:38:15.000Z</time>
      </trkpt>
      <trkpt lat="47.59155" lon="6.77089">
        <ele>424</ele>
        <time>2016-04-10T08:38:16.000Z</time>
      </trkpt>
      <trkpt lat="47.59155" lon="6.77094">
        <ele>424</ele>
        <time>2016-04-10T08:38:17.000Z</time>
      </trkpt>
      <trkpt lat="47.59154" lon="6.771">
        <ele>423</ele>
        <time>2016-04-10T08:38:18.000Z</time>
      </trkpt>
      <trkpt lat="47.59154" lon="6.77105">
        <ele>423</ele>
        <time>2016-04-10T08:38:19.000Z</time>
      </trkpt>
      <trkpt lat="47.59154" lon="6.7711">
        <ele>422</ele>
        <time>2016-04-10T08:38:20.000Z</time>
      </trkpt>
      <trkpt lat="47.59154" lon="6.77115">
        <ele>422</ele>
        <time>2016-04-10T08:38:21.000Z</time>
      </trkpt>
      <trkpt lat="47.59154" lon="6.77118">
        <ele>422</ele>
        <time>2016-04-10T08:38:22.000Z</time>
      </trkpt>
      <trkpt lat="47.59153" lon="6.77124">
        <ele>422</ele>
        <time>2016-04-10T08:38:24.000Z</time>
      </trkpt>
      <trkpt lat="47.59153" lon="6.77126">
        <ele>421</ele>
        <time>2016-04-10T08:38:25.000Z</time>
      </trkpt>
      <trkpt lat="47.59151" lon="6.77129">
        <ele>421</ele>
        <time>2016-04-10T08:38:27.000Z</time>
      </trkpt>
      <trkpt lat="47.59149" lon="6.7713">
        <ele>421</ele>
        <time>2016-04-10T08:38:28.000Z</time>
      </trkpt>
      <trkpt lat="47.59146" lon="6.77132">
        <ele>421</ele>
        <time>2016-04-10T08:38:29.000Z</time>
      </trkpt>
      <trkpt lat="47.59142" lon="6.77134">
        <ele>421</ele>
        <time>2016-04-10T08:38:30.000Z</time>
      </trkpt>
      <trkpt lat="47.59137" lon="6.77135">
        <ele>420</ele>
        <time>2016-04-10T08:38:31.000Z</time>
      </trkpt>
      <trkpt lat="47.59133" lon="6.77137">
        <ele>420</ele>
        <time>2016-04-10T08:38:32.000Z</time>
      </trkpt>
      <trkpt lat="47.59128" lon="6.77139">
        <ele>420</ele>
        <time>2016-04-10T08:38:33.000Z</time>
      </trkpt>
      <trkpt lat="47.59124" lon="6.77142">
        <ele>419</ele>
        <time>2016-04-10T08:38:34.000Z</time>
      </trkpt>
      <trkpt lat="47.5912" lon="6.77145">
        <ele>419</ele>
        <time>2016-04-10T08:38:35.000Z</time>
      </trkpt>
      <trkpt lat="47.59116" lon="6.77148">
        <ele>419</ele>
        <time>2016-04-10T08:38:36.000Z</time>
      </trkpt>
      <trkpt lat="47.59113" lon="6.77152">
        <ele>418</ele>
        <time>2016-04-10T08:38:37.000Z</time>
      </trkpt>
      <trkpt lat="47.59109" lon="6.77155">
        <ele>418</ele>
        <time>2016-04-10T08:38:38.000Z</time>
      </trkpt>
      <trkpt lat="47.59106" lon="6.77158">
        <ele>417</ele>
        <time>2016-04-10T08:38:39.000Z</time>
      </trkpt>
      <trkpt lat="47.59105" lon="6.7716">
        <ele>417</ele>
        <time>2016-04-10T08:38:40.000Z</time>
      </trkpt>
      <trkpt lat="47.59102" lon="6.77165">
        <ele>417</ele>
        <time>2016-04-10T08:38:45.000Z</time>
      </trkpt>
      <trkpt lat="47.59103" lon="6.77167">
        <ele>415</ele>
        <time>2016-04-10T08:38:46.000Z</time>
      </trkpt>
      <trkpt lat="47.59106" lon="6.77172">
        <ele>415</ele>
        <time>2016-04-10T08:38:48.000Z</time>
      </trkpt>
      <trkpt lat="47.59107" lon="6.77176">
        <ele>415</ele>
        <time>2016-04-10T08:38:49.000Z</time>
      </trkpt>
      <trkpt lat="47.59108" lon="6.77179">
        <ele>415</ele>
        <time>2016-04-10T08:38:50.000Z</time>
      </trkpt>
      <trkpt lat="47.59109" lon="6.77183">
        <ele>415</ele>
        <time>2016-04-10T08:38:51.000Z</time>
      </trkpt>
      <trkpt lat="47.59111" lon="6.77187">
        <ele>415</ele>
        <time>2016-04-10T08:38:52.000Z</time>
      </trkpt>
      <trkpt lat="47.59113" lon="6.77191">
        <ele>415</ele>
        <time>2016-04-10T08:38:53.000Z</time>
      </trkpt>
      <trkpt lat="47.59116" lon="6.77195">
        <ele>416</ele>
        <time>2016-04-10T08:38:54.000Z</time>
      </trkpt>
      <trkpt lat="47.59119" lon="6.77198">
        <ele>416</ele>
        <time>2016-04-10T08:38:55.000Z</time>
      </trkpt>
      <trkpt lat="47.59121" lon="6.77202">
        <ele>416</ele>
        <time>2016-04-10T08:38:56.000Z</time>
      </trkpt>
      <trkpt lat="47.59123" lon="6.77205">
        <ele>416</ele>
        <time>2016-04-10T08:38:57.000Z</time>
      </trkpt>
      <trkpt lat="47.59125" lon="6.77209">
        <ele>416</ele>
        <time>2016-04-10T08:38:58.000Z</time>
      </trkpt>
      <trkpt lat="47.59127" lon="6.77212">
        <ele>416</ele>
        <time>2016-04-10T08:38:59.000Z</time>
      </trkpt>
      <trkpt lat="47.59129" lon="6.77216">
        <ele>416</ele>
        <time>2016-04-10T08:39:00.000Z</time>
      </trkpt>
      <trkpt lat="47.59131" lon="6.77219">
        <ele>416</ele>
        <time>2016-04-10T08:39:01.000Z</time>
      </trkpt>
      <trkpt lat="47.59133" lon="6.77223">
        <ele>416</ele>
        <time>2016-04-10T08:39:02.000Z</time>
      </trkpt>
      <trkpt lat="47.59136" lon="6.77226">
        <ele>416</ele>
        <time>2016-04-10T08:39:03.000Z</time>
      </trkpt>
      <trkpt lat="47.59138" lon="6.7723">
        <ele>416</ele>
        <time>2016-04-10T08:39:04.000Z</time>
      </trkpt>
      <trkpt lat="47.59141" lon="6.77233">
        <ele>416</ele>
        <time>2016-04-10T08:39:05.000Z</time>
      </trkpt>
      <trkpt lat="47.59143" lon="6.77237">
        <ele>416</ele>
        <time>2016-04-10T08:39:06.000Z</time>
      </trkpt>
      <trkpt lat="47.59145" lon="6.7724">
        <ele>416</ele>
        <time>2016-04-10T08:39:07.000Z</time>
      </trkpt>
      <trkpt lat="47.59146" lon="6.77243">
        <ele>416</ele>
        <time>2016-04-10T08:39:08.000Z</time>
      </trkpt>
      <trkpt lat="47.59147" lon="6.77246">
        <ele>416</ele>
        <time>2016-04-10T08:39:09.000Z</time>
      </trkpt>
      <trkpt lat="47.59148" lon="6.7725">
        <ele>416</ele>
        <time>2016-04-10T08:39:10.000Z</time>
      </trkpt>
      <trkpt lat="47.59148" lon="6.77254">
        <ele>413</ele>
        <time>2016-04-10T08:39:11.000Z</time>
      </trkpt>
      <trkpt lat="47.59149" lon="6.77258">
        <ele>412</ele>
        <time>2016-04-10T08:39:12.000Z</time>
      </trkpt>
      <trkpt lat="47.59151" lon="6.77263">
        <ele>412</ele>
        <time>2016-04-10T08:39:13.000Z</time>
      </trkpt>
      <trkpt lat="47.59153" lon="6.77267">
        <ele>412</ele>
        <time>2016-04-10T08:39:14.000Z</time>
      </trkpt>
      <trkpt lat="47.59156" lon="6.77272">
        <ele>412</ele>
        <time>2016-04-10T08:39:15.000Z</time>
      </trkpt>
      <trkpt lat="47.59158" lon="6.77277">
        <ele>411</ele>
        <time>2016-04-10T08:39:16.000Z</time>
      </trkpt>
      <trkpt lat="47.59161" lon="6.77282">
        <ele>411</ele>
        <time>2016-04-10T08:39:17.000Z</time>
      </trkpt>
      <trkpt lat="47.59163" lon="6.77287">
        <ele>410</ele>
        <time>2016-04-10T08:39:18.000Z</time>
      </trkpt>
      <trkpt lat="47.59165" lon="6.7729">
        <ele>410</ele>
        <time>2016-04-10T08:39:19.000Z</time>
      </trkpt>
      <trkpt lat="47.59167" lon="6.77293">
        <ele>412</ele>
        <time>2016-04-10T08:39:20.000Z</time>
      </trkpt>
      <trkpt lat="47.59169" lon="6.77295">
        <ele>412</ele>
        <time>2016-04-10T08:39:21.000Z</time>
      </trkpt>
      <trkpt lat="47.59171" lon="6.77297">
        <ele>411</ele>
        <time>2016-04-10T08:39:22.000Z</time>
      </trkpt>
      <trkpt lat="47.59174" lon="6.77298">
        <ele>411</ele>
        <time>2016-04-10T08:39:23.000Z</time>
      </trkpt>
      <trkpt lat="47.59177" lon="6.773">
        <ele>411</ele>
        <time>2016-04-10T08:39:24.000Z</time>
      </trkpt>
      <trkpt lat="47.59181" lon="6.77302">
        <ele>411</ele>
        <time>2016-04-10T08:39:25.000Z</time>
      </trkpt>
      <trkpt lat="47.59184" lon="6.77306">
        <ele>411</ele>
        <time>2016-04-10T08:39:26.000Z</time>
      </trkpt>
      <trkpt lat="47.59188" lon="6.7731">
        <ele>411</ele>
        <time>2016-04-10T08:39:27.000Z</time>
      </trkpt>
      <trkpt lat="47.59191" lon="6.77313">
        <ele>411</ele>
        <time>2016-04-10T08:39:28.000Z</time>
      </trkpt>
      <trkpt lat="47.59194" lon="6.77317">
        <ele>410</ele>
        <time>2016-04-10T08:39:29.000Z</time>
      </trkpt>
      <trkpt lat="47.59197" lon="6.7732">
        <ele>410</ele>
        <time>2016-04-10T08:39:30.000Z</time>
      </trkpt>
      <trkpt lat="47.59199" lon="6.77322">
        <ele>410</ele>
        <time>2016-04-10T08:39:31.000Z</time>
      </trkpt>
      <trkpt lat="47.59201" lon="6.77324">
        <ele>410</ele>
        <time>2016-04-10T08:39:32.000Z</time>
      </trkpt>
      <trkpt lat="47.59204" lon="6.77325">
        <ele>411</ele>
        <time>2016-04-10T08:39:33.000Z</time>
      </trkpt>
      <trkpt lat="47.59207" lon="6.77326">
        <ele>411</ele>
        <time>2016-04-10T08:39:35.000Z</time>
      </trkpt>
      <trkpt lat="47.59209" lon="6.77326">
        <ele>411</ele>
        <time>2016-04-10T08:39:36.000Z</time>
      </trkpt>
      <trkpt lat="47.59212" lon="6.77329">
        <ele>411</ele>
        <time>2016-04-10T08:39:38.000Z</time>
      </trkpt>
      <trkpt lat="47.59214" lon="6.7733">
        <ele>411</ele>
        <time>2016-04-10T08:39:39.000Z</time>
      </trkpt>
      <trkpt lat="47.59218" lon="6.77331">
        <ele>411</ele>
        <time>2016-04-10T08:39:41.000Z</time>
      </trkpt>
      <trkpt lat="47.5922" lon="6.77333">
        <ele>411</ele>
        <time>2016-04-10T08:39:42.000Z</time>
      </trkpt>
      <trkpt lat="47.59222" lon="6.77335">
        <ele>406</ele>
        <time>2016-04-10T08:39:43.000Z</time>
      </trkpt>
      <trkpt lat="47.59225" lon="6.77337">
        <ele>406</ele>
        <time>2016-04-10T08:39:44.000Z</time>
      </trkpt>
      <trkpt lat="47.59227" lon="6.7734">
        <ele>406</ele>
        <time>2016-04-10T08:39:45.000Z</time>
      </trkpt>
      <trkpt lat="47.59229" lon="6.77343">
        <ele>406</ele>
        <time>2016-04-10T08:39:46.000Z</time>
      </trkpt>
      <trkpt lat="47.59231" lon="6.77345">
        <ele>406</ele>
        <time>2016-04-10T08:39:47.000Z</time>
      </trkpt>
      <trkpt lat="47.59233" lon="6.77348">
        <ele>406</ele>
        <time>2016-04-10T08:39:48.000Z</time>
      </trkpt>
      <trkpt lat="47.59235" lon="6.77351">
        <ele>406</ele>
        <time>2016-04-10T08:39:49.000Z</time>
      </trkpt>
      <trkpt lat="47.59237" lon="6.77354">
        <ele>406</ele>
        <time>2016-04-10T08:39:50.000Z</time>
      </trkpt>
      <trkpt lat="47.59239" lon="6.77358">
        <ele>406</ele>
        <time>2016-04-10T08:39:51.000Z</time>
      </trkpt>
      <trkpt lat="47.59242" lon="6.77362">
        <ele>406</ele>
        <time>2016-04-10T08:39:52.000Z</time>
      </trkpt>
      <trkpt lat="47.59244" lon="6.77366">
        <ele>406</ele>
        <time>2016-04-10T08:39:53.000Z</time>
      </trkpt>
      <trkpt lat="47.59246" lon="6.7737">
        <ele>405</ele>
        <time>2016-04-10T08:39:54.000Z</time>
      </trkpt>
      <trkpt lat="47.59248" lon="6.77373">
        <ele>405</ele>
        <time>2016-04-10T08:39:55.000Z</time>
      </trkpt>
      <trkpt lat="47.5925" lon="6.77377">
        <ele>405</ele>
        <time>2016-04-10T08:39:56.000Z</time>
      </trkpt>
      <trkpt lat="47.59252" lon="6.77379">
        <ele>411</ele>
        <time>2016-04-10T08:39:57.000Z</time>
      </trkpt>
      <trkpt lat="47.59253" lon="6.77382">
        <ele>411</ele>
        <time>2016-04-10T08:39:58.000Z</time>
      </trkpt>
      <trkpt lat="47.59255" lon="6.77385">
        <ele>411</ele>
        <time>2016-04-10T08:39:59.000Z</time>
      </trkpt>
      <trkpt lat="47.59257" lon="6.77388">
        <ele>411</ele>
        <time>2016-04-10T08:40:00.000Z</time>
      </trkpt>
      <trkpt lat="47.59259" lon="6.77391">
        <ele>411</ele>
        <time>2016-04-10T08:40:01.000Z</time>
      </trkpt>
      <trkpt lat="47.5926" lon="6.77393">
        <ele>411</ele>
        <time>2016-04-10T08:40:02.000Z</time>
      </trkpt>
      <trkpt lat="47.59263" lon="6.77398">
        <ele>411</ele>
        <time>2016-04-10T08:40:04.000Z</time>
      </trkpt>
      <trkpt lat="47.59265" lon="6.774">
        <ele>411</ele>
        <time>2016-04-10T08:40:05.000Z</time>
      </trkpt>
      <trkpt lat="47.59268" lon="6.77402">
        <ele>411</ele>
        <time>2016-04-10T08:40:07.000Z</time>
      </trkpt>
      <trkpt lat="47.59269" lon="6.77403">
        <ele>411</ele>
        <time>2016-04-10T08:40:08.000Z</time>
      </trkpt>
      <trkpt lat="47.59272" lon="6.77406">
        <ele>411</ele>
        <time>2016-04-10T08:40:10.000Z</time>
      </trkpt>
      <trkpt lat="47.59273" lon="6.77408">
        <ele>411</ele>
        <time>2016-04-10T08:40:11.000Z</time>
      </trkpt>
      <trkpt lat="47.59275" lon="6.77411">
        <ele>411</ele>
        <time>2016-04-10T08:40:12.000Z</time>
      </trkpt>
      <trkpt lat="47.59277" lon="6.77413">
        <ele>412</ele>
        <time>2016-04-10T08:40:13.000Z</time>
      </trkpt>
      <trkpt lat="47.59279" lon="6.77416">
        <ele>412</ele>
        <time>2016-04-10T08:40:14.000Z</time>
      </trkpt>
      <trkpt lat="47.5928" lon="6.7742">
        <ele>411</ele>
        <time>2016-04-10T08:40:15.000Z</time>
      </trkpt>
      <trkpt lat="47.59282" lon="6.77423">
        <ele>412</ele>
        <time>2016-04-10T08:40:16.000Z</time>
      </trkpt>
      <trkpt lat="47.59284" lon="6.77427">
        <ele>412</ele>
        <time>2016-04-10T08:40:17.000Z</time>
      </trkpt>
      <trkpt lat="47.59285" lon="6.7743">
        <ele>412</ele>
        <time>2016-04-10T08:40:18.000Z</time>
      </trkpt>
      <trkpt lat="47.59286" lon="6.77433">
        <ele>412</ele>
        <time>2016-04-10T08:40:19.000Z</time>
      </trkpt>
      <trkpt lat="47.59289" lon="6.77439">
        <ele>413</ele>
        <time>2016-04-10T08:40:21.000Z</time>
      </trkpt>
      <trkpt lat="47.5929" lon="6.77441">
        <ele>413</ele>
        <time>2016-04-10T08:40:22.000Z</time>
      </trkpt>
      <trkpt lat="47.59291" lon="6.77446">
        <ele>413</ele>
        <time>2016-04-10T08:40:24.000Z</time>
      </trkpt>
      <trkpt lat="47.59292" lon="6.77449">
        <ele>413</ele>
        <time>2016-04-10T08:40:25.000Z</time>
      </trkpt>
      <trkpt lat="47.59293" lon="6.77455">
        <ele>413</ele>
        <time>2016-04-10T08:40:27.000Z</time>
      </trkpt>
      <trkpt lat="47.59294" lon="6.77458">
        <ele>413</ele>
        <time>2016-04-10T08:40:28.000Z</time>
      </trkpt>
      <trkpt lat="47.59295" lon="6.77464">
        <ele>413</ele>
        <time>2016-04-10T08:40:30.000Z</time>
      </trkpt>
      <trkpt lat="47.59296" lon="6.77466">
        <ele>413</ele>
        <time>2016-04-10T08:40:31.000Z</time>
      </trkpt>
      <trkpt lat="47.59297" lon="6.77471">
        <ele>413</ele>
        <time>2016-04-10T08:40:33.000Z</time>
      </trkpt>
      <trkpt lat="47.59298" lon="6.77473">
        <ele>413</ele>
        <time>2016-04-10T08:40:34.000Z</time>
      </trkpt>
      <trkpt lat="47.593" lon="6.77476">
        <ele>413</ele>
        <time>2016-04-10T08:40:35.000Z</time>
      </trkpt>
      <trkpt lat="47.59302" lon="6.77479">
        <ele>414</ele>
        <time>2016-04-10T08:40:36.000Z</time>
      </trkpt>
      <trkpt lat="47.59303" lon="6.77482">
        <ele>414</ele>
        <time>2016-04-10T08:40:37.000Z</time>
      </trkpt>
      <trkpt lat="47.59304" lon="6.77485">
        <ele>414</ele>
        <time>2016-04-10T08:40:38.000Z</time>
      </trkpt>
      <trkpt lat="47.59307" lon="6.7749">
        <ele>414</ele>
        <time>2016-04-10T08:40:40.000Z</time>
      </trkpt>
      <trkpt lat="47.59308" lon="6.77493">
        <ele>415</ele>
        <time>2016-04-10T08:40:41.000Z</time>
      </trkpt>
      <trkpt lat="47.5931" lon="6.77496">
        <ele>415</ele>
        <time>2016-04-10T08:40:42.000Z</time>
      </trkpt>
      <trkpt lat="47.59311" lon="6.77499">
        <ele>415</ele>
        <time>2016-04-10T08:40:43.000Z</time>
      </trkpt>
      <trkpt lat="47.59313" lon="6.77502">
        <ele>414</ele>
        <time>2016-04-10T08:40:44.000Z</time>
      </trkpt>
      <trkpt lat="47.59315" lon="6.77506">
        <ele>414</ele>
        <time>2016-04-10T08:40:45.000Z</time>
      </trkpt>
      <trkpt lat="47.59317" lon="6.77509">
        <ele>414</ele>
        <time>2016-04-10T08:40:46.000Z</time>
      </trkpt>
      <trkpt lat="47.59319" lon="6.77513">
        <ele>414</ele>
        <time>2016-04-10T08:40:47.000Z</time>
      </trkpt>
      <trkpt lat="47.59321" lon="6.77518">
        <ele>414</ele>
        <time>2016-04-10T08:40:48.000Z</time>
      </trkpt>
      <trkpt lat="47.59323" lon="6.77522">
        <ele>414</ele>
        <time>2016-04-10T08:40:49.000Z</time>
      </trkpt>
      <trkpt lat="47.59325" lon="6.77527">
        <ele>414</ele>
        <time>2016-04-10T08:40:50.000Z</time>
      </trkpt>
      <trkpt lat="47.59327" lon="6.77532">
        <ele>413</ele>
        <time>2016-04-10T08:40:51.000Z</time>
      </trkpt>
      <trkpt lat="47.59329" lon="6.77536">
        <ele>413</ele>
        <time>2016-04-10T08:40:52.000Z</time>
      </trkpt>
      <trkpt lat="47.5933" lon="6.77541">
        <ele>413</ele>
        <time>2016-04-10T08:40:53.000Z</time>
      </trkpt>
      <trkpt lat="47.59332" lon="6.77544">
        <ele>413</ele>
        <time>2016-04-10T08:40:54.000Z</time>
      </trkpt>
      <trkpt lat="47.59333" lon="6.77548">
        <ele>413</ele>
        <time>2016-04-10T08:40:55.000Z</time>
      </trkpt>
      <trkpt lat="47.59335" lon="6.77551">
        <ele>420</ele>
        <time>2016-04-10T08:40:56.000Z</time>
      </trkpt>
      <trkpt lat="47.59336" lon="6.77554">
        <ele>420</ele>
        <time>2016-04-10T08:40:57.000Z</time>
      </trkpt>
      <trkpt lat="47.59339" lon="6.77559">
        <ele>420</ele>
        <time>2016-04-10T08:40:59.000Z</time>
      </trkpt>
      <trkpt lat="47.5934" lon="6.77561">
        <ele>419</ele>
        <time>2016-04-10T08:41:00.000Z</time>
      </trkpt>
      <trkpt lat="47.59342" lon="6.77565">
        <ele>419</ele>
        <time>2016-04-10T08:41:02.000Z</time>
      </trkpt>
      <trkpt lat="47.59344" lon="6.77567">
        <ele>419</ele>
        <time>2016-04-10T08:41:03.000Z</time>
      </trkpt>
      <trkpt lat="47.59346" lon="6.7757">
        <ele>419</ele>
        <time>2016-04-10T08:41:04.000Z</time>
      </trkpt>
      <trkpt lat="47.59348" lon="6.77572">
        <ele>419</ele>
        <time>2016-04-10T08:41:05.000Z</time>
      </trkpt>
      <trkpt lat="47.5935" lon="6.77575">
        <ele>419</ele>
        <time>2016-04-10T08:41:06.000Z</time>
      </trkpt>
      <trkpt lat="47.59351" lon="6.77578">
        <ele>419</ele>
        <time>2016-04-10T08:41:07.000Z</time>
      </trkpt>
      <trkpt lat="47.59352" lon="6.77582">
        <ele>419</ele>
        <time>2016-04-10T08:41:08.000Z</time>
      </trkpt>
      <trkpt lat="47.59354" lon="6.77586">
        <ele>416</ele>
        <time>2016-04-10T08:41:09.000Z</time>
      </trkpt>
      <trkpt lat="47.59355" lon="6.7759">
        <ele>416</ele>
        <time>2016-04-10T08:41:10.000Z</time>
      </trkpt>
      <trkpt lat="47.59356" lon="6.77595">
        <ele>416</ele>
        <time>2016-04-10T08:41:11.000Z</time>
      </trkpt>
      <trkpt lat="47.59358" lon="6.776">
        <ele>415</ele>
        <time>2016-04-10T08:41:12.000Z</time>
      </trkpt>
      <trkpt lat="47.5936" lon="6.77605">
        <ele>415</ele>
        <time>2016-04-10T08:41:13.000Z</time>
      </trkpt>
      <trkpt lat="47.59361" lon="6.77609">
        <ele>415</ele>
        <time>2016-04-10T08:41:14.000Z</time>
      </trkpt>
      <trkpt lat="47.59363" lon="6.77614">
        <ele>415</ele>
        <time>2016-04-10T08:41:15.000Z</time>
      </trkpt>
      <trkpt lat="47.59366" lon="6.77619">
        <ele>415</ele>
        <time>2016-04-10T08:41:16.000Z</time>
      </trkpt>
      <trkpt lat="47.59368" lon="6.77623">
        <ele>415</ele>
        <time>2016-04-10T08:41:17.000Z</time>
      </trkpt>
      <trkpt lat="47.5937" lon="6.77626">
        <ele>415</ele>
        <time>2016-04-10T08:41:18.000Z</time>
      </trkpt>
      <trkpt lat="47.59372" lon="6.77629">
        <ele>415</ele>
        <time>2016-04-10T08:41:19.000Z</time>
      </trkpt>
      <trkpt lat="47.59373" lon="6.77632">
        <ele>415</ele>
        <time>2016-04-10T08:41:20.000Z</time>
      </trkpt>
      <trkpt lat="47.59375" lon="6.77634">
        <ele>415</ele>
        <time>2016-04-10T08:41:21.000Z</time>
      </trkpt>
      <trkpt lat="47.59377" lon="6.77636">
        <ele>415</ele>
        <time>2016-04-10T08:41:22.000Z</time>
      </trkpt>
      <trkpt lat="47.5938" lon="6.77639">
        <ele>415</ele>
        <time>2016-04-10T08:41:23.000Z</time>
      </trkpt>
      <trkpt lat="47.59382" lon="6.77642">
        <ele>415</ele>
        <time>2016-04-10T08:41:24.000Z</time>
      </trkpt>
      <trkpt lat="47.59384" lon="6.77645">
        <ele>415</ele>
        <time>2016-04-10T08:41:25.000Z</time>
      </trkpt>
      <trkpt lat="47.59387" lon="6.77648">
        <ele>415</ele>
        <time>2016-04-10T08:41:26.000Z</time>
      </trkpt>
      <trkpt lat="47.59389" lon="6.77651">
        <ele>415</ele>
        <time>2016-04-10T08:41:27.000Z</time>
      </trkpt>
      <trkpt lat="47.59392" lon="6.77654">
        <ele>415</ele>
        <time>2016-04-10T08:41:28.000Z</time>
      </trkpt>
      <trkpt lat="47.59394" lon="6.77657">
        <ele>415</ele>
        <time>2016-04-10T08:41:29.000Z</time>
      </trkpt>
      <trkpt lat="47.59397" lon="6.77661">
        <ele>415</ele>
        <time>2016-04-10T08:41:30.000Z</time>
      </trkpt>
      <trkpt lat="47.59399" lon="6.77664">
        <ele>415</ele>
        <time>2016-04-10T08:41:31.000Z</time>
      </trkpt>
      <trkpt lat="47.59402" lon="6.77666">
        <ele>415</ele>
        <time>2016-04-10T08:41:32.000Z</time>
      </trkpt>
      <trkpt lat="47.59404" lon="6.77669">
        <ele>412</ele>
        <time>2016-04-10T08:41:33.000Z</time>
      </trkpt>
      <trkpt lat="47.59406" lon="6.77673">
        <ele>412</ele>
        <time>2016-04-10T08:41:34.000Z</time>
      </trkpt>
      <trkpt lat="47.59409" lon="6.77676">
        <ele>412</ele>
        <time>2016-04-10T08:41:35.000Z</time>
      </trkpt>
      <trkpt lat="47.59411" lon="6.77678">
        <ele>412</ele>
        <time>2016-04-10T08:41:36.000Z</time>
      </trkpt>
      <trkpt lat="47.59414" lon="6.77682">
        <ele>411</ele>
        <time>2016-04-10T08:41:37.000Z</time>
      </trkpt>
      <trkpt lat="47.59417" lon="6.77684">
        <ele>414</ele>
        <time>2016-04-10T08:41:38.000Z</time>
      </trkpt>
      <trkpt lat="47.5942" lon="6.77687">
        <ele>414</ele>
        <time>2016-04-10T08:41:39.000Z</time>
      </trkpt>
      <trkpt lat="47.59423" lon="6.77689">
        <ele>414</ele>
        <time>2016-04-10T08:41:40.000Z</time>
      </trkpt>
      <trkpt lat="47.59426" lon="6.77692">
        <ele>414</ele>
        <time>2016-04-10T08:41:41.000Z</time>
      </trkpt>
      <trkpt lat="47.59429" lon="6.77694">
        <ele>413</ele>
        <time>2016-04-10T08:41:42.000Z</time>
      </trkpt>
      <trkpt lat="47.59432" lon="6.77698">
        <ele>413</ele>
        <time>2016-04-10T08:41:43.000Z</time>
      </trkpt>
      <trkpt lat="47.59435" lon="6.77701">
        <ele>413</ele>
        <time>2016-04-10T08:41:44.000Z</time>
      </trkpt>
      <trkpt lat="47.59439" lon="6.77705">
        <ele>413</ele>
        <time>2016-04-10T08:41:45.000Z</time>
      </trkpt>
      <trkpt lat="47.59442" lon="6.77709">
        <ele>413</ele>
        <time>2016-04-10T08:41:46.000Z</time>
      </trkpt>
      <trkpt lat="47.59446" lon="6.77711">
        <ele>413</ele>
        <time>2016-04-10T08:41:47.000Z</time>
      </trkpt>
      <trkpt lat="47.59449" lon="6.77712">
        <ele>413</ele>
        <time>2016-04-10T08:41:48.000Z</time>
      </trkpt>
      <trkpt lat="47.59452" lon="6.77713">
        <ele>413</ele>
        <time>2016-04-10T08:41:49.000Z</time>
      </trkpt>
      <trkpt lat="47.59454" lon="6.77713">
        <ele>413</ele>
        <time>2016-04-10T08:41:50.000Z</time>
      </trkpt>
      <trkpt lat="47.59457" lon="6.77714">
        <ele>413</ele>
        <time>2016-04-10T08:41:51.000Z</time>
      </trkpt>
      <trkpt lat="47.5946" lon="6.77716">
        <ele>413</ele>
        <time>2016-04-10T08:41:52.000Z</time>
      </trkpt>
      <trkpt lat="47.59469" lon="6.77735">
        <ele>412</ele>
        <time>2016-04-10T08:41:53.000Z</time>
      </trkpt>
      <trkpt lat="47.59472" lon="6.77741">
        <ele>412</ele>
        <time>2016-04-10T08:41:54.000Z</time>
      </trkpt>
      <trkpt lat="47.59474" lon="6.77748">
        <ele>412</ele>
        <time>2016-04-10T08:41:55.000Z</time>
      </trkpt>
      <trkpt lat="47.59483" lon="6.77756">
        <ele>409</ele>
        <time>2016-04-10T08:41:56.000Z</time>
      </trkpt>
      <trkpt lat="47.59486" lon="6.77762">
        <ele>409</ele>
        <time>2016-04-10T08:41:57.000Z</time>
      </trkpt>
      <trkpt lat="47.59489" lon="6.77769">
        <ele>409</ele>
        <time>2016-04-10T08:41:58.000Z</time>
      </trkpt>
      <trkpt lat="47.59493" lon="6.77776">
        <ele>409</ele>
        <time>2016-04-10T08:41:59.000Z</time>
      </trkpt>
      <trkpt lat="47.59498" lon="6.77781">
        <ele>408</ele>
        <time>2016-04-10T08:42:00.000Z</time>
      </trkpt>
      <trkpt lat="47.59505" lon="6.77786">
        <ele>410</ele>
        <time>2016-04-10T08:42:01.000Z</time>
      </trkpt>
      <trkpt lat="47.59509" lon="6.77793">
        <ele>409</ele>
        <time>2016-04-10T08:42:02.000Z</time>
      </trkpt>
      <trkpt lat="47.59512" lon="6.77801">
        <ele>409</ele>
        <time>2016-04-10T08:42:03.000Z</time>
      </trkpt>
      <trkpt lat="47.59514" lon="6.77808">
        <ele>409</ele>
        <time>2016-04-10T08:42:04.000Z</time>
      </trkpt>
      <trkpt lat="47.59516" lon="6.77814">
        <ele>409</ele>
        <time>2016-04-10T08:42:05.000Z</time>
      </trkpt>
      <trkpt lat="47.59518" lon="6.77819">
        <ele>409</ele>
        <time>2016-04-10T08:42:06.000Z</time>
      </trkpt>
      <trkpt lat="47.59518" lon="6.77826">
        <ele>409</ele>
        <time>2016-04-10T08:42:07.000Z</time>
      </trkpt>
      <trkpt lat="47.59519" lon="6.7783">
        <ele>409</ele>
        <time>2016-04-10T08:42:08.000Z</time>
      </trkpt>
      <trkpt lat="47.5952" lon="6.77834">
        <ele>406</ele>
        <time>2016-04-10T08:42:09.000Z</time>
      </trkpt>
      <trkpt lat="47.59519" lon="6.77839">
        <ele>406</ele>
        <time>2016-04-10T08:42:10.000Z</time>
      </trkpt>
      <trkpt lat="47.59518" lon="6.77843">
        <ele>406</ele>
        <time>2016-04-10T08:42:11.000Z</time>
      </trkpt>
      <trkpt lat="47.59517" lon="6.77847">
        <ele>406</ele>
        <time>2016-04-10T08:42:12.000Z</time>
      </trkpt>
      <trkpt lat="47.59516" lon="6.77852">
        <ele>406</ele>
        <time>2016-04-10T08:42:13.000Z</time>
      </trkpt>
      <trkpt lat="47.59516" lon="6.77857">
        <ele>406</ele>
        <time>2016-04-10T08:42:14.000Z</time>
      </trkpt>
      <trkpt lat="47.59517" lon="6.77864">
        <ele>405</ele>
        <time>2016-04-10T08:42:15.000Z</time>
      </trkpt>
      <trkpt lat="47.59518" lon="6.7787">
        <ele>405</ele>
        <time>2016-04-10T08:42:16.000Z</time>
      </trkpt>
      <trkpt lat="47.5952" lon="6.77877">
        <ele>405</ele>
        <time>2016-04-10T08:42:17.000Z</time>
      </trkpt>
      <trkpt lat="47.5952" lon="6.77889">
        <ele>404</ele>
        <time>2016-04-10T08:42:18.000Z</time>
      </trkpt>
      <trkpt lat="47.5952" lon="6.77898">
        <ele>404</ele>
        <time>2016-04-10T08:42:19.000Z</time>
      </trkpt>
      <trkpt lat="47.5952" lon="6.77906">
        <ele>404</ele>
        <time>2016-04-10T08:42:20.000Z</time>
      </trkpt>
      <trkpt lat="47.5952" lon="6.77913">
        <ele>404</ele>
        <time>2016-04-10T08:42:21.000Z</time>
      </trkpt>
      <trkpt lat="47.59521" lon="6.77919">
        <ele>402</ele>
        <time>2016-04-10T08:42:22.000Z</time>
      </trkpt>
      <trkpt lat="47.59521" lon="6.77925">
        <ele>402</ele>
        <time>2016-04-10T08:42:23.000Z</time>
      </trkpt>
      <trkpt lat="47.59519" lon="6.77932">
        <ele>402</ele>
        <time>2016-04-10T08:42:24.000Z</time>
      </trkpt>
      <trkpt lat="47.59515" lon="6.77936">
        <ele>402</ele>
        <time>2016-04-10T08:42:25.000Z</time>
      </trkpt>
      <trkpt lat="47.5951" lon="6.77939">
        <ele>402</ele>
        <time>2016-04-10T08:42:26.000Z</time>
      </trkpt>
      <trkpt lat="47.59505" lon="6.77943">
        <ele>402</ele>
        <time>2016-04-10T08:42:27.000Z</time>
      </trkpt>
      <trkpt lat="47.59501" lon="6.77947">
        <ele>402</ele>
        <time>2016-04-10T08:42:28.000Z</time>
      </trkpt>
      <trkpt lat="47.59496" lon="6.7795">
        <ele>400</ele>
        <time>2016-04-10T08:42:29.000Z</time>
      </trkpt>
      <trkpt lat="47.59489" lon="6.77953">
        <ele>400</ele>
        <time>2016-04-10T08:42:30.000Z</time>
      </trkpt>
      <trkpt lat="47.59483" lon="6.77956">
        <ele>400</ele>
        <time>2016-04-10T08:42:31.000Z</time>
      </trkpt>
      <trkpt lat="47.59476" lon="6.77959">
        <ele>399</ele>
        <time>2016-04-10T08:42:32.000Z</time>
      </trkpt>
      <trkpt lat="47.59469" lon="6.77962">
        <ele>399</ele>
        <time>2016-04-10T08:42:33.000Z</time>
      </trkpt>
      <trkpt lat="47.59462" lon="6.77965">
        <ele>399</ele>
        <time>2016-04-10T08:42:34.000Z</time>
      </trkpt>
      <trkpt lat="47.59454" lon="6.77967">
        <ele>398</ele>
        <time>2016-04-10T08:42:35.000Z</time>
      </trkpt>
      <trkpt lat="47.59447" lon="6.7797">
        <ele>398</ele>
        <time>2016-04-10T08:42:36.000Z</time>
      </trkpt>
      <trkpt lat="47.59438" lon="6.77972">
        <ele>398</ele>
        <time>2016-04-10T08:42:37.000Z</time>
      </trkpt>
      <trkpt lat="47.5943" lon="6.77974">
        <ele>397</ele>
        <time>2016-04-10T08:42:38.000Z</time>
      </trkpt>
      <trkpt lat="47.59421" lon="6.77977">
        <ele>397</ele>
        <time>2016-04-10T08:42:39.000Z</time>
      </trkpt>
      <trkpt lat="47.59412" lon="6.77979">
        <ele>392</ele>
        <time>2016-04-10T08:42:40.000Z</time>
      </trkpt>
      <trkpt lat="47.59403" lon="6.77982">
        <ele>392</ele>
        <time>2016-04-10T08:42:41.000Z</time>
      </trkpt>
      <trkpt lat="47.59394" lon="6.77985">
        <ele>391</ele>
        <time>2016-04-10T08:42:42.000Z</time>
      </trkpt>
      <trkpt lat="47.59384" lon="6.77989">
        <ele>391</ele>
        <time>2016-04-10T08:42:43.000Z</time>
      </trkpt>
      <trkpt lat="47.59374" lon="6.77991">
        <ele>390</ele>
        <time>2016-04-10T08:42:44.000Z</time>
      </trkpt>
      <trkpt lat="47.59364" lon="6.77994">
        <ele>389</ele>
        <time>2016-04-10T08:42:45.000Z</time>
      </trkpt>
      <trkpt lat="47.59354" lon="6.77998">
        <ele>387</ele>
        <time>2016-04-10T08:42:46.000Z</time>
      </trkpt>
      <trkpt lat="47.59344" lon="6.78">
        <ele>384</ele>
        <time>2016-04-10T08:42:47.000Z</time>
      </trkpt>
      <trkpt lat="47.59333" lon="6.78002">
        <ele>383</ele>
        <time>2016-04-10T08:42:48.000Z</time>
      </trkpt>
      <trkpt lat="47.59323" lon="6.78005">
        <ele>381</ele>
        <time>2016-04-10T08:42:49.000Z</time>
      </trkpt>
      <trkpt lat="47.59313" lon="6.78007">
        <ele>380</ele>
        <time>2016-04-10T08:42:50.000Z</time>
      </trkpt>
      <trkpt lat="47.59304" lon="6.7801">
        <ele>379</ele>
        <time>2016-04-10T08:42:51.000Z</time>
      </trkpt>
      <trkpt lat="47.59295" lon="6.78014">
        <ele>378</ele>
        <time>2016-04-10T08:42:52.000Z</time>
      </trkpt>
      <trkpt lat="47.59285" lon="6.78018">
        <ele>378</ele>
        <time>2016-04-10T08:42:53.000Z</time>
      </trkpt>
      <trkpt lat="47.59277" lon="6.78024">
        <ele>377</ele>
        <time>2016-04-10T08:42:54.000Z</time>
      </trkpt>
      <trkpt lat="47.59269" lon="6.78031">
        <ele>377</ele>
        <time>2016-04-10T08:42:55.000Z</time>
      </trkpt>
      <trkpt lat="47.59261" lon="6.78039">
        <ele>377</ele>
        <time>2016-04-10T08:42:56.000Z</time>
      </trkpt>
      <trkpt lat="47.59253" lon="6.78047">
        <ele>376</ele>
        <time>2016-04-10T08:42:57.000Z</time>
      </trkpt>
      <trkpt lat="47.59246" lon="6.78056">
        <ele>373</ele>
        <time>2016-04-10T08:42:58.000Z</time>
      </trkpt>
      <trkpt lat="47.59238" lon="6.78064">
        <ele>373</ele>
        <time>2016-04-10T08:42:59.000Z</time>
      </trkpt>
      <trkpt lat="47.5923" lon="6.78072">
        <ele>373</ele>
        <time>2016-04-10T08:43:00.000Z</time>
      </trkpt>
      <trkpt lat="47.59222" lon="6.7808">
        <ele>373</ele>
        <time>2016-04-10T08:43:01.000Z</time>
      </trkpt>
      <trkpt lat="47.59214" lon="6.78088">
        <ele>372</ele>
        <time>2016-04-10T08:43:02.000Z</time>
      </trkpt>
      <trkpt lat="47.59207" lon="6.78095">
        <ele>372</ele>
        <time>2016-04-10T08:43:03.000Z</time>
      </trkpt>
      <trkpt lat="47.59199" lon="6.78103">
        <ele>371</ele>
        <time>2016-04-10T08:43:04.000Z</time>
      </trkpt>
      <trkpt lat="47.59192" lon="6.7811">
        <ele>371</ele>
        <time>2016-04-10T08:43:05.000Z</time>
      </trkpt>
      <trkpt lat="47.59184" lon="6.78118">
        <ele>371</ele>
        <time>2016-04-10T08:43:06.000Z</time>
      </trkpt>
      <trkpt lat="47.59177" lon="6.78126">
        <ele>371</ele>
        <time>2016-04-10T08:43:07.000Z</time>
      </trkpt>
      <trkpt lat="47.59169" lon="6.78133">
        <ele>371</ele>
        <time>2016-04-10T08:43:08.000Z</time>
      </trkpt>
      <trkpt lat="47.59161" lon="6.78138">
        <ele>368</ele>
        <time>2016-04-10T08:43:09.000Z</time>
      </trkpt>
      <trkpt lat="47.59152" lon="6.78139">
        <ele>368</ele>
        <time>2016-04-10T08:43:10.000Z</time>
      </trkpt>
      <trkpt lat="47.59144" lon="6.78138">
        <ele>368</ele>
        <time>2016-04-10T08:43:11.000Z</time>
      </trkpt>
      <trkpt lat="47.59135" lon="6.78141">
        <ele>367</ele>
        <time>2016-04-10T08:43:12.000Z</time>
      </trkpt>
      <trkpt lat="47.59129" lon="6.78148">
        <ele>367</ele>
        <time>2016-04-10T08:43:13.000Z</time>
      </trkpt>
      <trkpt lat="47.59124" lon="6.78158">
        <ele>367</ele>
        <time>2016-04-10T08:43:14.000Z</time>
      </trkpt>
      <trkpt lat="47.5912" lon="6.78168">
        <ele>366</ele>
        <time>2016-04-10T08:43:15.000Z</time>
      </trkpt>
      <trkpt lat="47.59115" lon="6.78178">
        <ele>366</ele>
        <time>2016-04-10T08:43:16.000Z</time>
      </trkpt>
      <trkpt lat="47.5911" lon="6.78187">
        <ele>365</ele>
        <time>2016-04-10T08:43:17.000Z</time>
      </trkpt>
      <trkpt lat="47.59104" lon="6.78194">
        <ele>365</ele>
        <time>2016-04-10T08:43:18.000Z</time>
      </trkpt>
      <trkpt lat="47.59098" lon="6.78201">
        <ele>365</ele>
        <time>2016-04-10T08:43:19.000Z</time>
      </trkpt>
      <trkpt lat="47.59091" lon="6.78208">
        <ele>365</ele>
        <time>2016-04-10T08:43:20.000Z</time>
      </trkpt>
      <trkpt lat="47.59084" lon="6.78215">
        <ele>364</ele>
        <time>2016-04-10T08:43:21.000Z</time>
      </trkpt>
      <trkpt lat="47.59077" lon="6.78222">
        <ele>361</ele>
        <time>2016-04-10T08:43:22.000Z</time>
      </trkpt>
      <trkpt lat="47.5907" lon="6.78228">
        <ele>361</ele>
        <time>2016-04-10T08:43:23.000Z</time>
      </trkpt>
      <trkpt lat="47.59063" lon="6.78235">
        <ele>361</ele>
        <time>2016-04-10T08:43:24.000Z</time>
      </trkpt>
      <trkpt lat="47.59057" lon="6.78243">
        <ele>361</ele>
        <time>2016-04-10T08:43:25.000Z</time>
      </trkpt>
      <trkpt lat="47.5905" lon="6.78249">
        <ele>361</ele>
        <time>2016-04-10T08:43:26.000Z</time>
      </trkpt>
      <trkpt lat="47.59043" lon="6.78254">
        <ele>359</ele>
        <time>2016-04-10T08:43:27.000Z</time>
      </trkpt>
      <trkpt lat="47.59038" lon="6.78258">
        <ele>359</ele>
        <time>2016-04-10T08:43:28.000Z</time>
      </trkpt>
      <trkpt lat="47.59034" lon="6.78262">
        <ele>359</ele>
        <time>2016-04-10T08:43:29.000Z</time>
      </trkpt>
      <trkpt lat="47.5903" lon="6.78266">
        <ele>359</ele>
        <time>2016-04-10T08:43:30.000Z</time>
      </trkpt>
      <trkpt lat="47.59026" lon="6.7827">
        <ele>359</ele>
        <time>2016-04-10T08:43:31.000Z</time>
      </trkpt>
      <trkpt lat="47.59022" lon="6.78273">
        <ele>359</ele>
        <time>2016-04-10T08:43:32.000Z</time>
      </trkpt>
      <trkpt lat="47.59019" lon="6.78277">
        <ele>359</ele>
        <time>2016-04-10T08:43:33.000Z</time>
      </trkpt>
      <trkpt lat="47.59018" lon="6.78281">
        <ele>359</ele>
        <time>2016-04-10T08:43:34.000Z</time>
      </trkpt>
      <trkpt lat="47.59017" lon="6.78286">
        <ele>359</ele>
        <time>2016-04-10T08:43:36.000Z</time>
      </trkpt>
      <trkpt lat="47.59019" lon="6.7829">
        <ele>359</ele>
        <time>2016-04-10T08:43:37.000Z</time>
      </trkpt>
      <trkpt lat="47.59021" lon="6.78291">
        <ele>359</ele>
        <time>2016-04-10T08:43:38.000Z</time>
      </trkpt>
      <trkpt lat="47.59024" lon="6.78291">
        <ele>359</ele>
        <time>2016-04-10T08:43:39.000Z</time>
      </trkpt>
      <trkpt lat="47.59027" lon="6.78289">
        <ele>359</ele>
        <time>2016-04-10T08:43:40.000Z</time>
      </trkpt>
      <trkpt lat="47.59031" lon="6.78289">
        <ele>359</ele>
        <time>2016-04-10T08:43:41.000Z</time>
      </trkpt>
      <trkpt lat="47.59034" lon="6.78289">
        <ele>359</ele>
        <time>2016-04-10T08:43:42.000Z</time>
      </trkpt>
      <trkpt lat="47.59037" lon="6.78289">
        <ele>359</ele>
        <time>2016-04-10T08:43:43.000Z</time>
      </trkpt>
      <trkpt lat="47.5904" lon="6.78291">
        <ele>359</ele>
        <time>2016-04-10T08:43:44.000Z</time>
      </trkpt>
      <trkpt lat="47.59042" lon="6.78293">
        <ele>359</ele>
        <time>2016-04-10T08:43:45.000Z</time>
      </trkpt>
      <trkpt lat="47.59043" lon="6.78298">
        <ele>359</ele>
        <time>2016-04-10T08:43:47.000Z</time>
      </trkpt>
      <trkpt lat="47.59042" lon="6.783">
        <ele>359</ele>
        <time>2016-04-10T08:43:48.000Z</time>
      </trkpt>
      <trkpt lat="47.59042" lon="6.78306">
        <ele>359</ele>
        <time>2016-04-10T08:43:50.000Z</time>
      </trkpt>
      <trkpt lat="47.59041" lon="6.78319">
        <ele>358</ele>
        <time>2016-04-10T08:43:51.000Z</time>
      </trkpt>
      <trkpt lat="47.59041" lon="6.7833">
        <ele>358</ele>
        <time>2016-04-10T08:43:52.000Z</time>
      </trkpt>
      <trkpt lat="47.59041" lon="6.78342">
        <ele>355</ele>
        <time>2016-04-10T08:43:53.000Z</time>
      </trkpt>
      <trkpt lat="47.59043" lon="6.78352">
        <ele>355</ele>
        <time>2016-04-10T08:43:54.000Z</time>
      </trkpt>
      <trkpt lat="47.59045" lon="6.78361">
        <ele>354</ele>
        <time>2016-04-10T08:43:55.000Z</time>
      </trkpt>
      <trkpt lat="47.59048" lon="6.7837">
        <ele>354</ele>
        <time>2016-04-10T08:43:56.000Z</time>
      </trkpt>
      <trkpt lat="47.59048" lon="6.78378">
        <ele>353</ele>
        <time>2016-04-10T08:43:57.000Z</time>
      </trkpt>
      <trkpt lat="47.59048" lon="6.78386">
        <ele>353</ele>
        <time>2016-04-10T08:43:58.000Z</time>
      </trkpt>
      <trkpt lat="47.59049" lon="6.78394">
        <ele>353</ele>
        <time>2016-04-10T08:43:59.000Z</time>
      </trkpt>
      <trkpt lat="47.59049" lon="6.78402">
        <ele>353</ele>
        <time>2016-04-10T08:44:00.000Z</time>
      </trkpt>
      <trkpt lat="47.5905" lon="6.78409">
        <ele>352</ele>
        <time>2016-04-10T08:44:01.000Z</time>
      </trkpt>
      <trkpt lat="47.5905" lon="6.78417">
        <ele>352</ele>
        <time>2016-04-10T08:44:02.000Z</time>
      </trkpt>
      <trkpt lat="47.5905" lon="6.78424">
        <ele>350</ele>
        <time>2016-04-10T08:44:03.000Z</time>
      </trkpt>
      <trkpt lat="47.59049" lon="6.78431">
        <ele>350</ele>
        <time>2016-04-10T08:44:04.000Z</time>
      </trkpt>
      <trkpt lat="47.59049" lon="6.78439">
        <ele>350</ele>
        <time>2016-04-10T08:44:05.000Z</time>
      </trkpt>
      <trkpt lat="47.59049" lon="6.78446">
        <ele>350</ele>
        <time>2016-04-10T08:44:06.000Z</time>
      </trkpt>
      <trkpt lat="47.59049" lon="6.78455">
        <ele>350</ele>
        <time>2016-04-10T08:44:07.000Z</time>
      </trkpt>
      <trkpt lat="47.59048" lon="6.78463">
        <ele>350</ele>
        <time>2016-04-10T08:44:08.000Z</time>
      </trkpt>
      <trkpt lat="47.59047" lon="6.78472">
        <ele>350</ele>
        <time>2016-04-10T08:44:09.000Z</time>
      </trkpt>
      <trkpt lat="47.59044" lon="6.7848">
        <ele>350</ele>
        <time>2016-04-10T08:44:10.000Z</time>
      </trkpt>
      <trkpt lat="47.59041" lon="6.78488">
        <ele>349</ele>
        <time>2016-04-10T08:44:11.000Z</time>
      </trkpt>
      <trkpt lat="47.59038" lon="6.78495">
        <ele>349</ele>
        <time>2016-04-10T08:44:12.000Z</time>
      </trkpt>
      <trkpt lat="47.59035" lon="6.78501">
        <ele>349</ele>
        <time>2016-04-10T08:44:13.000Z</time>
      </trkpt>
      <trkpt lat="47.59032" lon="6.78508">
        <ele>349</ele>
        <time>2016-04-10T08:44:14.000Z</time>
      </trkpt>
      <trkpt lat="47.59029" lon="6.78515">
        <ele>349</ele>
        <time>2016-04-10T08:44:15.000Z</time>
      </trkpt>
      <trkpt lat="47.59026" lon="6.78523">
        <ele>349</ele>
        <time>2016-04-10T08:44:16.000Z</time>
      </trkpt>
      <trkpt lat="47.59023" lon="6.78529">
        <ele>349</ele>
        <time>2016-04-10T08:44:17.000Z</time>
      </trkpt>
      <trkpt lat="47.5902" lon="6.78536">
        <ele>349</ele>
        <time>2016-04-10T08:44:18.000Z</time>
      </trkpt>
      <trkpt lat="47.59016" lon="6.78542">
        <ele>349</ele>
        <time>2016-04-10T08:44:19.000Z</time>
      </trkpt>
      <trkpt lat="47.59011" lon="6.78548">
        <ele>349</ele>
        <time>2016-04-10T08:44:20.000Z</time>
      </trkpt>
      <trkpt lat="47.59006" lon="6.78554">
        <ele>349</ele>
        <time>2016-04-10T08:44:21.000Z</time>
      </trkpt>
      <trkpt lat="47.59001" lon="6.78559">
        <ele>348</ele>
        <time>2016-04-10T08:44:22.000Z</time>
      </trkpt>
      <trkpt lat="47.58996" lon="6.78564">
        <ele>346</ele>
        <time>2016-04-10T08:44:23.000Z</time>
      </trkpt>
      <trkpt lat="47.5899" lon="6.78568">
        <ele>346</ele>
        <time>2016-04-10T08:44:24.000Z</time>
      </trkpt>
      <trkpt lat="47.58986" lon="6.78574">
        <ele>346</ele>
        <time>2016-04-10T08:44:25.000Z</time>
      </trkpt>
      <trkpt lat="47.58982" lon="6.78581">
        <ele>346</ele>
        <time>2016-04-10T08:44:26.000Z</time>
      </trkpt>
      <trkpt lat="47.58978" lon="6.78588">
        <ele>349</ele>
        <time>2016-04-10T08:44:27.000Z</time>
      </trkpt>
      <trkpt lat="47.58973" lon="6.78592">
        <ele>349</ele>
        <time>2016-04-10T08:44:28.000Z</time>
      </trkpt>
      <trkpt lat="47.58967" lon="6.78596">
        <ele>349</ele>
        <time>2016-04-10T08:44:29.000Z</time>
      </trkpt>
      <trkpt lat="47.58961" lon="6.78599">
        <ele>349</ele>
        <time>2016-04-10T08:44:30.000Z</time>
      </trkpt>
      <trkpt lat="47.58955" lon="6.78601">
        <ele>349</ele>
        <time>2016-04-10T08:44:31.000Z</time>
      </trkpt>
      <trkpt lat="47.58951" lon="6.78599">
        <ele>349</ele>
        <time>2016-04-10T08:44:32.000Z</time>
      </trkpt>
      <trkpt lat="47.58946" lon="6.78599">
        <ele>349</ele>
        <time>2016-04-10T08:44:33.000Z</time>
      </trkpt>
      <trkpt lat="47.58942" lon="6.78599">
        <ele>349</ele>
        <time>2016-04-10T08:44:34.000Z</time>
      </trkpt>
      <trkpt lat="47.58937" lon="6.78598">
        <ele>349</ele>
        <time>2016-04-10T08:44:35.000Z</time>
      </trkpt>
      <trkpt lat="47.58932" lon="6.78598">
        <ele>349</ele>
        <time>2016-04-10T08:44:36.000Z</time>
      </trkpt>
      <trkpt lat="47.58928" lon="6.78599">
        <ele>349</ele>
        <time>2016-04-10T08:44:37.000Z</time>
      </trkpt>
      <trkpt lat="47.58924" lon="6.786">
        <ele>349</ele>
        <time>2016-04-10T08:44:38.000Z</time>
      </trkpt>
      <trkpt lat="47.5892" lon="6.78601">
        <ele>349</ele>
        <time>2016-04-10T08:44:39.000Z</time>
      </trkpt>
      <trkpt lat="47.58916" lon="6.78602">
        <ele>349</ele>
        <time>2016-04-10T08:44:40.000Z</time>
      </trkpt>
      <trkpt lat="47.5891" lon="6.78602">
        <ele>349</ele>
        <time>2016-04-10T08:44:41.000Z</time>
      </trkpt>
      <trkpt lat="47.58904" lon="6.78602">
        <ele>349</ele>
        <time>2016-04-10T08:44:42.000Z</time>
      </trkpt>
      <trkpt lat="47.58898" lon="6.78599">
        <ele>349</ele>
        <time>2016-04-10T08:44:43.000Z</time>
      </trkpt>
      <trkpt lat="47.58891" lon="6.78598">
        <ele>350</ele>
        <time>2016-04-10T08:44:44.000Z</time>
      </trkpt>
      <trkpt lat="47.58885" lon="6.78598">
        <ele>350</ele>
        <time>2016-04-10T08:44:45.000Z</time>
      </trkpt>
      <trkpt lat="47.58878" lon="6.78596">
        <ele>350</ele>
        <time>2016-04-10T08:44:46.000Z</time>
      </trkpt>
      <trkpt lat="47.58873" lon="6.78593">
        <ele>350</ele>
        <time>2016-04-10T08:44:47.000Z</time>
      </trkpt>
      <trkpt lat="47.58863" lon="6.78587">
        <ele>350</ele>
        <time>2016-04-10T08:44:48.000Z</time>
      </trkpt>
      <trkpt lat="47.58854" lon="6.78584">
        <ele>350</ele>
        <time>2016-04-10T08:44:49.000Z</time>
      </trkpt>
      <trkpt lat="47.58847" lon="6.78583">
        <ele>349</ele>
        <time>2016-04-10T08:44:50.000Z</time>
      </trkpt>
      <trkpt lat="47.58838" lon="6.78582">
        <ele>348</ele>
        <time>2016-04-10T08:44:51.000Z</time>
      </trkpt>
      <trkpt lat="47.5883" lon="6.7858">
        <ele>348</ele>
        <time>2016-04-10T08:44:52.000Z</time>
      </trkpt>
      <trkpt lat="47.58824" lon="6.78578">
        <ele>348</ele>
        <time>2016-04-10T08:44:53.000Z</time>
      </trkpt>
      <trkpt lat="47.58818" lon="6.78575">
        <ele>347</ele>
        <time>2016-04-10T08:44:54.000Z</time>
      </trkpt>
      <trkpt lat="47.58813" lon="6.78573">
        <ele>347</ele>
        <time>2016-04-10T08:44:55.000Z</time>
      </trkpt>
      <trkpt lat="47.58809" lon="6.78571">
        <ele>347</ele>
        <time>2016-04-10T08:44:56.000Z</time>
      </trkpt>
      <trkpt lat="47.58804" lon="6.7857">
        <ele>347</ele>
        <time>2016-04-10T08:44:57.000Z</time>
      </trkpt>
      <trkpt lat="47.58799" lon="6.7857">
        <ele>347</ele>
        <time>2016-04-10T08:44:58.000Z</time>
      </trkpt>
      <trkpt lat="47.58795" lon="6.7857">
        <ele>347</ele>
        <time>2016-04-10T08:44:59.000Z</time>
      </trkpt>
      <trkpt lat="47.58792" lon="6.78571">
        <ele>347</ele>
        <time>2016-04-10T08:45:00.000Z</time>
      </trkpt>
      <trkpt lat="47.58788" lon="6.78574">
        <ele>347</ele>
        <time>2016-04-10T08:45:01.000Z</time>
      </trkpt>
      <trkpt lat="47.58783" lon="6.78574">
        <ele>347</ele>
        <time>2016-04-10T08:45:02.000Z</time>
      </trkpt>
      <trkpt lat="47.58779" lon="6.78576">
        <ele>348</ele>
        <time>2016-04-10T08:45:03.000Z</time>
      </trkpt>
      <trkpt lat="47.58775" lon="6.78579">
        <ele>348</ele>
        <time>2016-04-10T08:45:04.000Z</time>
      </trkpt>
      <trkpt lat="47.58769" lon="6.7858">
        <ele>348</ele>
        <time>2016-04-10T08:45:05.000Z</time>
      </trkpt>
      <trkpt lat="47.58764" lon="6.78581">
        <ele>348</ele>
        <time>2016-04-10T08:45:06.000Z</time>
      </trkpt>
      <trkpt lat="47.5876" lon="6.78583">
        <ele>348</ele>
        <time>2016-04-10T08:45:07.000Z</time>
      </trkpt>
      <trkpt lat="47.58754" lon="6.78584">
        <ele>349</ele>
        <time>2016-04-10T08:45:08.000Z</time>
      </trkpt>
      <trkpt lat="47.58751" lon="6.78586">
        <ele>349</ele>
        <time>2016-04-10T08:45:09.000Z</time>
      </trkpt>
      <trkpt lat="47.58744" lon="6.78588">
        <ele>349</ele>
        <time>2016-04-10T08:45:10.000Z</time>
      </trkpt>
      <trkpt lat="47.58739" lon="6.78589">
        <ele>349</ele>
        <time>2016-04-10T08:45:11.000Z</time>
      </trkpt>
      <trkpt lat="47.58734" lon="6.7859">
        <ele>349</ele>
        <time>2016-04-10T08:45:12.000Z</time>
      </trkpt>
      <trkpt lat="47.5873" lon="6.78592">
        <ele>349</ele>
        <time>2016-04-10T08:45:13.000Z</time>
      </trkpt>
      <trkpt lat="47.58724" lon="6.78593">
        <ele>349</ele>
        <time>2016-04-10T08:45:14.000Z</time>
      </trkpt>
      <trkpt lat="47.5872" lon="6.78595">
        <ele>349</ele>
        <time>2016-04-10T08:45:15.000Z</time>
      </trkpt>
      <trkpt lat="47.58715" lon="6.78598">
        <ele>349</ele>
        <time>2016-04-10T08:45:16.000Z</time>
      </trkpt>
      <trkpt lat="47.58709" lon="6.786">
        <ele>349</ele>
        <time>2016-04-10T08:45:17.000Z</time>
      </trkpt>
      <trkpt lat="47.58705" lon="6.78602">
        <ele>349</ele>
        <time>2016-04-10T08:45:18.000Z</time>
      </trkpt>
      <trkpt lat="47.587" lon="6.78604">
        <ele>349</ele>
        <time>2016-04-10T08:45:19.000Z</time>
      </trkpt>
      <trkpt lat="47.58696" lon="6.78606">
        <ele>349</ele>
        <time>2016-04-10T08:45:20.000Z</time>
      </trkpt>
      <trkpt lat="47.58692" lon="6.78608">
        <ele>349</ele>
        <time>2016-04-10T08:45:21.000Z</time>
      </trkpt>
      <trkpt lat="47.58688" lon="6.78609">
        <ele>348</ele>
        <time>2016-04-10T08:45:22.000Z</time>
      </trkpt>
      <trkpt lat="47.58684" lon="6.78611">
        <ele>348</ele>
        <time>2016-04-10T08:45:23.000Z</time>
      </trkpt>
      <trkpt lat="47.5868" lon="6.78612">
        <ele>348</ele>
        <time>2016-04-10T08:45:24.000Z</time>
      </trkpt>
      <trkpt lat="47.58676" lon="6.78613">
        <ele>348</ele>
        <time>2016-04-10T08:45:25.000Z</time>
      </trkpt>
      <trkpt lat="47.58672" lon="6.78615">
        <ele>348</ele>
        <time>2016-04-10T08:45:26.000Z</time>
      </trkpt>
      <trkpt lat="47.58668" lon="6.78617">
        <ele>348</ele>
        <time>2016-04-10T08:45:27.000Z</time>
      </trkpt>
      <trkpt lat="47.58665" lon="6.78619">
        <ele>347</ele>
        <time>2016-04-10T08:45:28.000Z</time>
      </trkpt>
      <trkpt lat="47.58661" lon="6.78621">
        <ele>347</ele>
        <time>2016-04-10T08:45:29.000Z</time>
      </trkpt>
      <trkpt lat="47.58658" lon="6.78623">
        <ele>347</ele>
        <time>2016-04-10T08:45:30.000Z</time>
      </trkpt>
      <trkpt lat="47.58654" lon="6.78625">
        <ele>347</ele>
        <time>2016-04-10T08:45:31.000Z</time>
      </trkpt>
      <trkpt lat="47.58651" lon="6.78627">
        <ele>347</ele>
        <time>2016-04-10T08:45:32.000Z</time>
      </trkpt>
      <trkpt lat="47.58648" lon="6.7863">
        <ele>347</ele>
        <time>2016-04-10T08:45:33.000Z</time>
      </trkpt>
      <trkpt lat="47.58644" lon="6.78633">
        <ele>347</ele>
        <time>2016-04-10T08:45:34.000Z</time>
      </trkpt>
      <trkpt lat="47.58641" lon="6.78636">
        <ele>347</ele>
        <time>2016-04-10T08:45:35.000Z</time>
      </trkpt>
      <trkpt lat="47.58638" lon="6.7864">
        <ele>347</ele>
        <time>2016-04-10T08:45:36.000Z</time>
      </trkpt>
      <trkpt lat="47.58635" lon="6.78643">
        <ele>347</ele>
        <time>2016-04-10T08:45:37.000Z</time>
      </trkpt>
      <trkpt lat="47.58632" lon="6.78647">
        <ele>347</ele>
        <time>2016-04-10T08:45:38.000Z</time>
      </trkpt>
      <trkpt lat="47.58628" lon="6.7865">
        <ele>347</ele>
        <time>2016-04-10T08:45:39.000Z</time>
      </trkpt>
      <trkpt lat="47.58625" lon="6.78654">
        <ele>347</ele>
        <time>2016-04-10T08:45:40.000Z</time>
      </trkpt>
      <trkpt lat="47.58622" lon="6.78658">
        <ele>347</ele>
        <time>2016-04-10T08:45:41.000Z</time>
      </trkpt>
      <trkpt lat="47.58619" lon="6.78662">
        <ele>347</ele>
        <time>2016-04-10T08:45:42.000Z</time>
      </trkpt>
      <trkpt lat="47.58615" lon="6.78665">
        <ele>347</ele>
        <time>2016-04-10T08:45:43.000Z</time>
      </trkpt>
      <trkpt lat="47.58613" lon="6.78669">
        <ele>350</ele>
        <time>2016-04-10T08:45:44.000Z</time>
      </trkpt>
      <trkpt lat="47.5861" lon="6.78672">
        <ele>350</ele>
        <time>2016-04-10T08:45:45.000Z</time>
      </trkpt>
      <trkpt lat="47.58607" lon="6.78676">
        <ele>350</ele>
        <time>2016-04-10T08:45:46.000Z</time>
      </trkpt>
      <trkpt lat="47.58605" lon="6.7868">
        <ele>350</ele>
        <time>2016-04-10T08:45:47.000Z</time>
      </trkpt>
      <trkpt lat="47.58603" lon="6.78684">
        <ele>350</ele>
        <time>2016-04-10T08:45:48.000Z</time>
      </trkpt>
      <trkpt lat="47.58601" lon="6.78688">
        <ele>350</ele>
        <time>2016-04-10T08:45:49.000Z</time>
      </trkpt>
      <trkpt lat="47.586" lon="6.78693">
        <ele>350</ele>
        <time>2016-04-10T08:45:50.000Z</time>
      </trkpt>
      <trkpt lat="47.58598" lon="6.78698">
        <ele>350</ele>
        <time>2016-04-10T08:45:51.000Z</time>
      </trkpt>
      <trkpt lat="47.58596" lon="6.78703">
        <ele>350</ele>
        <time>2016-04-10T08:45:52.000Z</time>
      </trkpt>
      <trkpt lat="47.58594" lon="6.78707">
        <ele>350</ele>
        <time>2016-04-10T08:45:53.000Z</time>
      </trkpt>
      <trkpt lat="47.58592" lon="6.78712">
        <ele>350</ele>
        <time>2016-04-10T08:45:54.000Z</time>
      </trkpt>
      <trkpt lat="47.58591" lon="6.78717">
        <ele>351</ele>
        <time>2016-04-10T08:45:55.000Z</time>
      </trkpt>
      <trkpt lat="47.5859" lon="6.78723">
        <ele>351</ele>
        <time>2016-04-10T08:45:56.000Z</time>
      </trkpt>
      <trkpt lat="47.5859" lon="6.78729">
        <ele>351</ele>
        <time>2016-04-10T08:45:57.000Z</time>
      </trkpt>
      <trkpt lat="47.58589" lon="6.78735">
        <ele>351</ele>
        <time>2016-04-10T08:45:58.000Z</time>
      </trkpt>
      <trkpt lat="47.58588" lon="6.7874">
        <ele>351</ele>
        <time>2016-04-10T08:45:59.000Z</time>
      </trkpt>
      <trkpt lat="47.58587" lon="6.78746">
        <ele>351</ele>
        <time>2016-04-10T08:46:00.000Z</time>
      </trkpt>
      <trkpt lat="47.58586" lon="6.78751">
        <ele>351</ele>
        <time>2016-04-10T08:46:01.000Z</time>
      </trkpt>
      <trkpt lat="47.58586" lon="6.78756">
        <ele>351</ele>
        <time>2016-04-10T08:46:02.000Z</time>
      </trkpt>
      <trkpt lat="47.58585" lon="6.78762">
        <ele>352</ele>
        <time>2016-04-10T08:46:03.000Z</time>
      </trkpt>
      <trkpt lat="47.58584" lon="6.78767">
        <ele>352</ele>
        <time>2016-04-10T08:46:04.000Z</time>
      </trkpt>
      <trkpt lat="47.58582" lon="6.78772">
        <ele>350</ele>
        <time>2016-04-10T08:46:05.000Z</time>
      </trkpt>
      <trkpt lat="47.58579" lon="6.78776">
        <ele>350</ele>
        <time>2016-04-10T08:46:06.000Z</time>
      </trkpt>
      <trkpt lat="47.58577" lon="6.78779">
        <ele>350</ele>
        <time>2016-04-10T08:46:07.000Z</time>
      </trkpt>
      <trkpt lat="47.58574" lon="6.7878">
        <ele>350</ele>
        <time>2016-04-10T08:46:08.000Z</time>
      </trkpt>
      <trkpt lat="47.58571" lon="6.78779">
        <ele>350</ele>
        <time>2016-04-10T08:46:09.000Z</time>
      </trkpt>
      <trkpt lat="47.58567" lon="6.78777">
        <ele>350</ele>
        <time>2016-04-10T08:46:10.000Z</time>
      </trkpt>
      <trkpt lat="47.58563" lon="6.78775">
        <ele>350</ele>
        <time>2016-04-10T08:46:11.000Z</time>
      </trkpt>
      <trkpt lat="47.5856" lon="6.78773">
        <ele>350</ele>
        <time>2016-04-10T08:46:12.000Z</time>
      </trkpt>
      <trkpt lat="47.58555" lon="6.78773">
        <ele>350</ele>
        <time>2016-04-10T08:46:13.000Z</time>
      </trkpt>
      <trkpt lat="47.58551" lon="6.78775">
        <ele>349</ele>
        <time>2016-04-10T08:46:14.000Z</time>
      </trkpt>
      <trkpt lat="47.58545" lon="6.78782">
        <ele>349</ele>
        <time>2016-04-10T08:46:15.000Z</time>
      </trkpt>
      <trkpt lat="47.5854" lon="6.78787">
        <ele>349</ele>
        <time>2016-04-10T08:46:16.000Z</time>
      </trkpt>
      <trkpt lat="47.58536" lon="6.78792">
        <ele>349</ele>
        <time>2016-04-10T08:46:17.000Z</time>
      </trkpt>
      <trkpt lat="47.58532" lon="6.78797">
        <ele>349</ele>
        <time>2016-04-10T08:46:18.000Z</time>
      </trkpt>
      <trkpt lat="47.58528" lon="6.78801">
        <ele>349</ele>
        <time>2016-04-10T08:46:19.000Z</time>
      </trkpt>
      <trkpt lat="47.58524" lon="6.78806">
        <ele>349</ele>
        <time>2016-04-10T08:46:20.000Z</time>
      </trkpt>
      <trkpt lat="47.58519" lon="6.7881">
        <ele>349</ele>
        <time>2016-04-10T08:46:21.000Z</time>
      </trkpt>
      <trkpt lat="47.58515" lon="6.78815">
        <ele>349</ele>
        <time>2016-04-10T08:46:22.000Z</time>
      </trkpt>
      <trkpt lat="47.58511" lon="6.78819">
        <ele>349</ele>
        <time>2016-04-10T08:46:23.000Z</time>
      </trkpt>
      <trkpt lat="47.58506" lon="6.78823">
        <ele>348</ele>
        <time>2016-04-10T08:46:24.000Z</time>
      </trkpt>
      <trkpt lat="47.58501" lon="6.78828">
        <ele>348</ele>
        <time>2016-04-10T08:46:25.000Z</time>
      </trkpt>
      <trkpt lat="47.58495" lon="6.78833">
        <ele>347</ele>
        <time>2016-04-10T08:46:26.000Z</time>
      </trkpt>
      <trkpt lat="47.58491" lon="6.78837">
        <ele>348</ele>
        <time>2016-04-10T08:46:27.000Z</time>
      </trkpt>
      <trkpt lat="47.58486" lon="6.78842">
        <ele>347</ele>
        <time>2016-04-10T08:46:28.000Z</time>
      </trkpt>
      <trkpt lat="47.5848" lon="6.78846">
        <ele>347</ele>
        <time>2016-04-10T08:46:29.000Z</time>
      </trkpt>
      <trkpt lat="47.58475" lon="6.78848">
        <ele>347</ele>
        <time>2016-04-10T08:46:30.000Z</time>
      </trkpt>
      <trkpt lat="47.58468" lon="6.78848">
        <ele>347</ele>
        <time>2016-04-10T08:46:31.000Z</time>
      </trkpt>
      <trkpt lat="47.58462" lon="6.78844">
        <ele>347</ele>
        <time>2016-04-10T08:46:32.000Z</time>
      </trkpt>
      <trkpt lat="47.58459" lon="6.78839">
        <ele>347</ele>
        <time>2016-04-10T08:46:33.000Z</time>
      </trkpt>
      <trkpt lat="47.58458" lon="6.7883">
        <ele>345</ele>
        <time>2016-04-10T08:46:34.000Z</time>
      </trkpt>
      <trkpt lat="47.58457" lon="6.78823">
        <ele>345</ele>
        <time>2016-04-10T08:46:35.000Z</time>
      </trkpt>
      <trkpt lat="47.58455" lon="6.78816">
        <ele>345</ele>
        <time>2016-04-10T08:46:36.000Z</time>
      </trkpt>
      <trkpt lat="47.58454" lon="6.78807">
        <ele>345</ele>
        <time>2016-04-10T08:46:37.000Z</time>
      </trkpt>
      <trkpt lat="47.58454" lon="6.78799">
        <ele>345</ele>
        <time>2016-04-10T08:46:38.000Z</time>
      </trkpt>
      <trkpt lat="47.58454" lon="6.78791">
        <ele>345</ele>
        <time>2016-04-10T08:46:39.000Z</time>
      </trkpt>
      <trkpt lat="47.58453" lon="6.78782">
        <ele>345</ele>
        <time>2016-04-10T08:46:40.000Z</time>
      </trkpt>
      <trkpt lat="47.58453" lon="6.78774">
        <ele>345</ele>
        <time>2016-04-10T08:46:41.000Z</time>
      </trkpt>
      <trkpt lat="47.58452" lon="6.78764">
        <ele>344</ele>
        <time>2016-04-10T08:46:42.000Z</time>
      </trkpt>
      <trkpt lat="47.58451" lon="6.78756">
        <ele>344</ele>
        <time>2016-04-10T08:46:43.000Z</time>
      </trkpt>
      <trkpt lat="47.58451" lon="6.78747">
        <ele>344</ele>
        <time>2016-04-10T08:46:44.000Z</time>
      </trkpt>
      <trkpt lat="47.5845" lon="6.78738">
        <ele>344</ele>
        <time>2016-04-10T08:46:45.000Z</time>
      </trkpt>
      <trkpt lat="47.5845" lon="6.7873">
        <ele>344</ele>
        <time>2016-04-10T08:46:46.000Z</time>
      </trkpt>
      <trkpt lat="47.58451" lon="6.7872">
        <ele>344</ele>
        <time>2016-04-10T08:46:47.000Z</time>
      </trkpt>
      <trkpt lat="47.58451" lon="6.7871">
        <ele>344</ele>
        <time>2016-04-10T08:46:48.000Z</time>
      </trkpt>
      <trkpt lat="47.58452" lon="6.787">
        <ele>344</ele>
        <time>2016-04-10T08:46:49.000Z</time>
      </trkpt>
      <trkpt lat="47.58451" lon="6.78689">
        <ele>343</ele>
        <time>2016-04-10T08:46:50.000Z</time>
      </trkpt>
      <trkpt lat="47.58449" lon="6.78678">
        <ele>343</ele>
        <time>2016-04-10T08:46:51.000Z</time>
      </trkpt>
      <trkpt lat="47.58445" lon="6.78667">
        <ele>343</ele>
        <time>2016-04-10T08:46:52.000Z</time>
      </trkpt>
      <trkpt lat="47.58441" lon="6.78657">
        <ele>342</ele>
        <time>2016-04-10T08:46:53.000Z</time>
      </trkpt>
      <trkpt lat="47.58438" lon="6.78647">
        <ele>342</ele>
        <time>2016-04-10T08:46:54.000Z</time>
      </trkpt>
      <trkpt lat="47.58434" lon="6.78638">
        <ele>342</ele>
        <time>2016-04-10T08:46:55.000Z</time>
      </trkpt>
      <trkpt lat="47.58431" lon="6.7863">
        <ele>342</ele>
        <time>2016-04-10T08:46:56.000Z</time>
      </trkpt>
      <trkpt lat="47.58426" lon="6.78624">
        <ele>342</ele>
        <time>2016-04-10T08:46:57.000Z</time>
      </trkpt>
      <trkpt lat="47.58421" lon="6.7862">
        <ele>342</ele>
        <time>2016-04-10T08:46:58.000Z</time>
      </trkpt>
      <trkpt lat="47.58415" lon="6.78615">
        <ele>341</ele>
        <time>2016-04-10T08:46:59.000Z</time>
      </trkpt>
      <trkpt lat="47.5841" lon="6.78613">
        <ele>341</ele>
        <time>2016-04-10T08:47:00.000Z</time>
      </trkpt>
      <trkpt lat="47.58405" lon="6.78612">
        <ele>341</ele>
        <time>2016-04-10T08:47:01.000Z</time>
      </trkpt>
      <trkpt lat="47.58402" lon="6.78611">
        <ele>341</ele>
        <time>2016-04-10T08:47:02.000Z</time>
      </trkpt>
      <trkpt lat="47.58399" lon="6.78608">
        <ele>341</ele>
        <time>2016-04-10T08:47:03.000Z</time>
      </trkpt>
      <trkpt lat="47.58397" lon="6.78602">
        <ele>341</ele>
        <time>2016-04-10T08:47:04.000Z</time>
      </trkpt>
      <trkpt lat="47.58397" lon="6.78596">
        <ele>341</ele>
        <time>2016-04-10T08:47:05.000Z</time>
      </trkpt>
      <trkpt lat="47.58396" lon="6.7859">
        <ele>341</ele>
        <time>2016-04-10T08:47:06.000Z</time>
      </trkpt>
      <trkpt lat="47.58395" lon="6.78585">
        <ele>341</ele>
        <time>2016-04-10T08:47:07.000Z</time>
      </trkpt>
      <trkpt lat="47.58394" lon="6.78578">
        <ele>340</ele>
        <time>2016-04-10T08:47:08.000Z</time>
      </trkpt>
      <trkpt lat="47.58393" lon="6.78572">
        <ele>340</ele>
        <time>2016-04-10T08:47:09.000Z</time>
      </trkpt>
      <trkpt lat="47.58393" lon="6.78566">
        <ele>340</ele>
        <time>2016-04-10T08:47:10.000Z</time>
      </trkpt>
      <trkpt lat="47.58392" lon="6.7856">
        <ele>340</ele>
        <time>2016-04-10T08:47:11.000Z</time>
      </trkpt>
      <trkpt lat="47.58391" lon="6.78554">
        <ele>340</ele>
        <time>2016-04-10T08:47:12.000Z</time>
      </trkpt>
      <trkpt lat="47.5839" lon="6.78548">
        <ele>340</ele>
        <time>2016-04-10T08:47:13.000Z</time>
      </trkpt>
      <trkpt lat="47.58388" lon="6.78543">
        <ele>340</ele>
        <time>2016-04-10T08:47:14.000Z</time>
      </trkpt>
      <trkpt lat="47.58386" lon="6.78538">
        <ele>340</ele>
        <time>2016-04-10T08:47:15.000Z</time>
      </trkpt>
      <trkpt lat="47.58384" lon="6.78533">
        <ele>340</ele>
        <time>2016-04-10T08:47:16.000Z</time>
      </trkpt>
      <trkpt lat="47.58382" lon="6.7853">
        <ele>340</ele>
        <time>2016-04-10T08:47:17.000Z</time>
      </trkpt>
      <trkpt lat="47.58375" lon="6.78529">
        <ele>340</ele>
        <time>2016-04-10T08:47:18.000Z</time>
      </trkpt>
      <trkpt lat="47.58371" lon="6.78526">
        <ele>340</ele>
        <time>2016-04-10T08:47:19.000Z</time>
      </trkpt>
      <trkpt lat="47.58367" lon="6.78524">
        <ele>340</ele>
        <time>2016-04-10T08:47:20.000Z</time>
      </trkpt>
      <trkpt lat="47.58362" lon="6.78521">
        <ele>340</ele>
        <time>2016-04-10T08:47:21.000Z</time>
      </trkpt>
      <trkpt lat="47.58358" lon="6.78518">
        <ele>340</ele>
        <time>2016-04-10T08:47:22.000Z</time>
      </trkpt>
      <trkpt lat="47.58353" lon="6.78513">
        <ele>340</ele>
        <time>2016-04-10T08:47:23.000Z</time>
      </trkpt>
      <trkpt lat="47.58349" lon="6.7851">
        <ele>340</ele>
        <time>2016-04-10T08:47:24.000Z</time>
      </trkpt>
      <trkpt lat="47.58344" lon="6.78508">
        <ele>340</ele>
        <time>2016-04-10T08:47:25.000Z</time>
      </trkpt>
      <trkpt lat="47.5834" lon="6.78505">
        <ele>339</ele>
        <time>2016-04-10T08:47:26.000Z</time>
      </trkpt>
      <trkpt lat="47.58335" lon="6.78503">
        <ele>339</ele>
        <time>2016-04-10T08:47:27.000Z</time>
      </trkpt>
      <trkpt lat="47.58331" lon="6.78501">
        <ele>339</ele>
        <time>2016-04-10T08:47:28.000Z</time>
      </trkpt>
      <trkpt lat="47.58326" lon="6.78497">
        <ele>338</ele>
        <time>2016-04-10T08:47:29.000Z</time>
      </trkpt>
      <trkpt lat="47.58322" lon="6.78494">
        <ele>338</ele>
        <time>2016-04-10T08:47:30.000Z</time>
      </trkpt>
      <trkpt lat="47.58317" lon="6.78491">
        <ele>338</ele>
        <time>2016-04-10T08:47:31.000Z</time>
      </trkpt>
      <trkpt lat="47.58313" lon="6.78489">
        <ele>338</ele>
        <time>2016-04-10T08:47:32.000Z</time>
      </trkpt>
      <trkpt lat="47.58309" lon="6.78487">
        <ele>337</ele>
        <time>2016-04-10T08:47:33.000Z</time>
      </trkpt>
      <trkpt lat="47.58305" lon="6.78486">
        <ele>337</ele>
        <time>2016-04-10T08:47:34.000Z</time>
      </trkpt>
      <trkpt lat="47.58301" lon="6.78485">
        <ele>337</ele>
        <time>2016-04-10T08:47:35.000Z</time>
      </trkpt>
      <trkpt lat="47.58298" lon="6.78483">
        <ele>337</ele>
        <time>2016-04-10T08:47:36.000Z</time>
      </trkpt>
      <trkpt lat="47.58295" lon="6.78481">
        <ele>337</ele>
        <time>2016-04-10T08:47:37.000Z</time>
      </trkpt>
      <trkpt lat="47.58293" lon="6.78477">
        <ele>337</ele>
        <time>2016-04-10T08:47:38.000Z</time>
      </trkpt>
      <trkpt lat="47.5829" lon="6.78474">
        <ele>337</ele>
        <time>2016-04-10T08:47:39.000Z</time>
      </trkpt>
      <trkpt lat="47.58287" lon="6.78472">
        <ele>337</ele>
        <time>2016-04-10T08:47:40.000Z</time>
      </trkpt>
      <trkpt lat="47.58284" lon="6.78473">
        <ele>337</ele>
        <time>2016-04-10T08:47:41.000Z</time>
      </trkpt>
      <trkpt lat="47.5828" lon="6.78471">
        <ele>337</ele>
        <time>2016-04-10T08:47:42.000Z</time>
      </trkpt>
      <trkpt lat="47.58274" lon="6.7847">
        <ele>337</ele>
        <time>2016-04-10T08:47:43.000Z</time>
      </trkpt>
      <trkpt lat="47.58269" lon="6.78468">
        <ele>337</ele>
        <time>2016-04-10T08:47:44.000Z</time>
      </trkpt>
      <trkpt lat="47.58265" lon="6.78465">
        <ele>337</ele>
        <time>2016-04-10T08:47:45.000Z</time>
      </trkpt>
      <trkpt lat="47.5826" lon="6.78463">
        <ele>337</ele>
        <time>2016-04-10T08:47:46.000Z</time>
      </trkpt>
      <trkpt lat="47.58254" lon="6.7846">
        <ele>336</ele>
        <time>2016-04-10T08:47:47.000Z</time>
      </trkpt>
      <trkpt lat="47.58249" lon="6.78457">
        <ele>336</ele>
        <time>2016-04-10T08:47:48.000Z</time>
      </trkpt>
      <trkpt lat="47.58244" lon="6.78454">
        <ele>336</ele>
        <time>2016-04-10T08:47:49.000Z</time>
      </trkpt>
      <trkpt lat="47.58239" lon="6.78451">
        <ele>336</ele>
        <time>2016-04-10T08:47:50.000Z</time>
      </trkpt>
      <trkpt lat="47.58234" lon="6.78448">
        <ele>337</ele>
        <time>2016-04-10T08:47:51.000Z</time>
      </trkpt>
      <trkpt lat="47.58229" lon="6.78446">
        <ele>337</ele>
        <time>2016-04-10T08:47:52.000Z</time>
      </trkpt>
      <trkpt lat="47.58225" lon="6.78443">
        <ele>337</ele>
        <time>2016-04-10T08:47:53.000Z</time>
      </trkpt>
      <trkpt lat="47.5822" lon="6.7844">
        <ele>337</ele>
        <time>2016-04-10T08:47:54.000Z</time>
      </trkpt>
      <trkpt lat="47.58215" lon="6.78438">
        <ele>337</ele>
        <time>2016-04-10T08:47:55.000Z</time>
      </trkpt>
      <trkpt lat="47.58211" lon="6.78434">
        <ele>337</ele>
        <time>2016-04-10T08:47:56.000Z</time>
      </trkpt>
      <trkpt lat="47.58207" lon="6.78431">
        <ele>337</ele>
        <time>2016-04-10T08:47:57.000Z</time>
      </trkpt>
      <trkpt lat="47.58202" lon="6.78429">
        <ele>337</ele>
        <time>2016-04-10T08:47:58.000Z</time>
      </trkpt>
      <trkpt lat="47.58197" lon="6.78426">
        <ele>337</ele>
        <time>2016-04-10T08:47:59.000Z</time>
      </trkpt>
      <trkpt lat="47.58193" lon="6.78424">
        <ele>337</ele>
        <time>2016-04-10T08:48:00.000Z</time>
      </trkpt>
      <trkpt lat="47.58188" lon="6.78421">
        <ele>337</ele>
        <time>2016-04-10T08:48:01.000Z</time>
      </trkpt>
      <trkpt lat="47.58184" lon="6.78418">
        <ele>337</ele>
        <time>2016-04-10T08:48:02.000Z</time>
      </trkpt>
      <trkpt lat="47.58179" lon="6.78416">
        <ele>337</ele>
        <time>2016-04-10T08:48:03.000Z</time>
      </trkpt>
      <trkpt lat="47.58175" lon="6.78417">
        <ele>337</ele>
        <time>2016-04-10T08:48:04.000Z</time>
      </trkpt>
      <trkpt lat="47.58171" lon="6.7842">
        <ele>337</ele>
        <time>2016-04-10T08:48:05.000Z</time>
      </trkpt>
      <trkpt lat="47.58167" lon="6.78423">
        <ele>337</ele>
        <time>2016-04-10T08:48:06.000Z</time>
      </trkpt>
      <trkpt lat="47.58165" lon="6.78429">
        <ele>338</ele>
        <time>2016-04-10T08:48:07.000Z</time>
      </trkpt>
      <trkpt lat="47.58162" lon="6.78433">
        <ele>339</ele>
        <time>2016-04-10T08:48:08.000Z</time>
      </trkpt>
      <trkpt lat="47.58158" lon="6.78439">
        <ele>339</ele>
        <time>2016-04-10T08:48:09.000Z</time>
      </trkpt>
      <trkpt lat="47.58155" lon="6.78444">
        <ele>339</ele>
        <time>2016-04-10T08:48:10.000Z</time>
      </trkpt>
      <trkpt lat="47.58152" lon="6.78449">
        <ele>339</ele>
        <time>2016-04-10T08:48:11.000Z</time>
      </trkpt>
      <trkpt lat="47.58149" lon="6.78454">
        <ele>340</ele>
        <time>2016-04-10T08:48:12.000Z</time>
      </trkpt>
      <trkpt lat="47.58146" lon="6.78459">
        <ele>340</ele>
        <time>2016-04-10T08:48:13.000Z</time>
      </trkpt>
      <trkpt lat="47.58143" lon="6.78464">
        <ele>340</ele>
        <time>2016-04-10T08:48:14.000Z</time>
      </trkpt>
      <trkpt lat="47.5814" lon="6.78468">
        <ele>340</ele>
        <time>2016-04-10T08:48:15.000Z</time>
      </trkpt>
      <trkpt lat="47.58137" lon="6.78472">
        <ele>340</ele>
        <time>2016-04-10T08:48:16.000Z</time>
      </trkpt>
      <trkpt lat="47.58134" lon="6.78475">
        <ele>340</ele>
        <time>2016-04-10T08:48:17.000Z</time>
      </trkpt>
      <trkpt lat="47.5813" lon="6.78476">
        <ele>341</ele>
        <time>2016-04-10T08:48:18.000Z</time>
      </trkpt>
      <trkpt lat="47.58126" lon="6.78474">
        <ele>341</ele>
        <time>2016-04-10T08:48:19.000Z</time>
      </trkpt>
      <trkpt lat="47.58122" lon="6.7847">
        <ele>341</ele>
        <time>2016-04-10T08:48:20.000Z</time>
      </trkpt>
      <trkpt lat="47.58119" lon="6.78464">
        <ele>341</ele>
        <time>2016-04-10T08:48:21.000Z</time>
      </trkpt>
      <trkpt lat="47.58115" lon="6.78458">
        <ele>341</ele>
        <time>2016-04-10T08:48:22.000Z</time>
      </trkpt>
      <trkpt lat="47.58112" lon="6.78454">
        <ele>341</ele>
        <time>2016-04-10T08:48:23.000Z</time>
      </trkpt>
      <trkpt lat="47.58108" lon="6.78448">
        <ele>341</ele>
        <time>2016-04-10T08:48:24.000Z</time>
      </trkpt>
      <trkpt lat="47.58105" lon="6.78443">
        <ele>341</ele>
        <time>2016-04-10T08:48:25.000Z</time>
      </trkpt>
      <trkpt lat="47.58101" lon="6.78438">
        <ele>341</ele>
        <time>2016-04-10T08:48:26.000Z</time>
      </trkpt>
      <trkpt lat="47.58097" lon="6.78434">
        <ele>341</ele>
        <time>2016-04-10T08:48:27.000Z</time>
      </trkpt>
      <trkpt lat="47.58094" lon="6.7843">
        <ele>341</ele>
        <time>2016-04-10T08:48:28.000Z</time>
      </trkpt>
      <trkpt lat="47.5809" lon="6.78427">
        <ele>341</ele>
        <time>2016-04-10T08:48:29.000Z</time>
      </trkpt>
      <trkpt lat="47.58086" lon="6.78422">
        <ele>341</ele>
        <time>2016-04-10T08:48:30.000Z</time>
      </trkpt>
      <trkpt lat="47.58082" lon="6.78417">
        <ele>341</ele>
        <time>2016-04-10T08:48:31.000Z</time>
      </trkpt>
      <trkpt lat="47.58079" lon="6.78412">
        <ele>342</ele>
        <time>2016-04-10T08:48:32.000Z</time>
      </trkpt>
      <trkpt lat="47.58075" lon="6.78405">
        <ele>342</ele>
        <time>2016-04-10T08:48:33.000Z</time>
      </trkpt>
      <trkpt lat="47.58071" lon="6.78399">
        <ele>342</ele>
        <time>2016-04-10T08:48:34.000Z</time>
      </trkpt>
      <trkpt lat="47.58068" lon="6.78394">
        <ele>343</ele>
        <time>2016-04-10T08:48:35.000Z</time>
      </trkpt>
      <trkpt lat="47.58064" lon="6.78389">
        <ele>343</ele>
        <time>2016-04-10T08:48:36.000Z</time>
      </trkpt>
      <trkpt lat="47.58059" lon="6.78385">
        <ele>343</ele>
        <time>2016-04-10T08:48:37.000Z</time>
      </trkpt>
      <trkpt lat="47.58055" lon="6.78379">
        <ele>343</ele>
        <time>2016-04-10T08:48:38.000Z</time>
      </trkpt>
      <trkpt lat="47.58051" lon="6.78375">
        <ele>343</ele>
        <time>2016-04-10T08:48:39.000Z</time>
      </trkpt>
      <trkpt lat="47.58047" lon="6.78371">
        <ele>343</ele>
        <time>2016-04-10T08:48:40.000Z</time>
      </trkpt>
      <trkpt lat="47.58043" lon="6.78366">
        <ele>343</ele>
        <time>2016-04-10T08:48:41.000Z</time>
      </trkpt>
      <trkpt lat="47.58038" lon="6.78362">
        <ele>343</ele>
        <time>2016-04-10T08:48:42.000Z</time>
      </trkpt>
      <trkpt lat="47.58033" lon="6.78357">
        <ele>343</ele>
        <time>2016-04-10T08:48:43.000Z</time>
      </trkpt>
      <trkpt lat="47.58028" lon="6.78353">
        <ele>343</ele>
        <time>2016-04-10T08:48:44.000Z</time>
      </trkpt>
      <trkpt lat="47.58024" lon="6.78349">
        <ele>342</ele>
        <time>2016-04-10T08:48:45.000Z</time>
      </trkpt>
      <trkpt lat="47.5802" lon="6.78345">
        <ele>342</ele>
        <time>2016-04-10T08:48:46.000Z</time>
      </trkpt>
      <trkpt lat="47.58015" lon="6.78339">
        <ele>342</ele>
        <time>2016-04-10T08:48:47.000Z</time>
      </trkpt>
      <trkpt lat="47.58011" lon="6.78335">
        <ele>341</ele>
        <time>2016-04-10T08:48:48.000Z</time>
      </trkpt>
      <trkpt lat="47.58006" lon="6.78331">
        <ele>340</ele>
        <time>2016-04-10T08:48:49.000Z</time>
      </trkpt>
      <trkpt lat="47.58001" lon="6.78327">
        <ele>340</ele>
        <time>2016-04-10T08:48:50.000Z</time>
      </trkpt>
      <trkpt lat="47.57996" lon="6.78323">
        <ele>341</ele>
        <time>2016-04-10T08:48:51.000Z</time>
      </trkpt>
      <trkpt lat="47.57991" lon="6.78318">
        <ele>342</ele>
        <time>2016-04-10T08:48:52.000Z</time>
      </trkpt>
      <trkpt lat="47.57987" lon="6.78313">
        <ele>342</ele>
        <time>2016-04-10T08:48:53.000Z</time>
      </trkpt>
      <trkpt lat="47.57982" lon="6.78308">
        <ele>342</ele>
        <time>2016-04-10T08:48:54.000Z</time>
      </trkpt>
      <trkpt lat="47.57977" lon="6.78303">
        <ele>343</ele>
        <time>2016-04-10T08:48:55.000Z</time>
      </trkpt>
      <trkpt lat="47.57972" lon="6.78299">
        <ele>343</ele>
        <time>2016-04-10T08:48:56.000Z</time>
      </trkpt>
      <trkpt lat="47.57968" lon="6.78294">
        <ele>343</ele>
        <time>2016-04-10T08:48:57.000Z</time>
      </trkpt>
      <trkpt lat="47.57963" lon="6.78289">
        <ele>343</ele>
        <time>2016-04-10T08:48:58.000Z</time>
      </trkpt>
      <trkpt lat="47.57958" lon="6.78285">
        <ele>343</ele>
        <time>2016-04-10T08:48:59.000Z</time>
      </trkpt>
      <trkpt lat="47.57953" lon="6.78281">
        <ele>343</ele>
        <time>2016-04-10T08:49:00.000Z</time>
      </trkpt>
      <trkpt lat="47.57948" lon="6.78277">
        <ele>343</ele>
        <time>2016-04-10T08:49:01.000Z</time>
      </trkpt>
      <trkpt lat="47.57943" lon="6.78273">
        <ele>343</ele>
        <time>2016-04-10T08:49:02.000Z</time>
      </trkpt>
      <trkpt lat="47.57938" lon="6.78269">
        <ele>343</ele>
        <time>2016-04-10T08:49:03.000Z</time>
      </trkpt>
      <trkpt lat="47.57934" lon="6.78265">
        <ele>343</ele>
        <time>2016-04-10T08:49:04.000Z</time>
      </trkpt>
      <trkpt lat="47.5793" lon="6.78261">
        <ele>342</ele>
        <time>2016-04-10T08:49:05.000Z</time>
      </trkpt>
      <trkpt lat="47.57925" lon="6.78257">
        <ele>342</ele>
        <time>2016-04-10T08:49:06.000Z</time>
      </trkpt>
      <trkpt lat="47.57922" lon="6.78254">
        <ele>342</ele>
        <time>2016-04-10T08:49:07.000Z</time>
      </trkpt>
      <trkpt lat="47.57919" lon="6.78253">
        <ele>341</ele>
        <time>2016-04-10T08:49:08.000Z</time>
      </trkpt>
      <trkpt lat="47.57916" lon="6.78253">
        <ele>342</ele>
        <time>2016-04-10T08:49:09.000Z</time>
      </trkpt>
      <trkpt lat="47.57914" lon="6.78255">
        <ele>343</ele>
        <time>2016-04-10T08:49:10.000Z</time>
      </trkpt>
      <trkpt lat="47.57913" lon="6.78261">
        <ele>345</ele>
        <time>2016-04-10T08:49:17.000Z</time>
      </trkpt>
      <trkpt lat="47.57912" lon="6.78262">
        <ele>346</ele>
        <time>2016-04-10T08:49:18.000Z</time>
      </trkpt>
      <trkpt lat="47.57909" lon="6.78264">
        <ele>347</ele>
        <time>2016-04-10T08:49:20.000Z</time>
      </trkpt>
      <trkpt lat="47.57909" lon="6.78267">
        <ele>347</ele>
        <time>2016-04-10T08:49:21.000Z</time>
      </trkpt>
      <trkpt lat="47.57907" lon="6.78272">
        <ele>348</ele>
        <time>2016-04-10T08:49:23.000Z</time>
      </trkpt>
      <trkpt lat="47.57907" lon="6.78274">
        <ele>349</ele>
        <time>2016-04-10T08:49:24.000Z</time>
      </trkpt>
      <trkpt lat="47.57907" lon="6.7828">
        <ele>350</ele>
        <time>2016-04-10T08:49:27.000Z</time>
      </trkpt>
      <trkpt lat="47.57907" lon="6.78282">
        <ele>350</ele>
        <time>2016-04-10T08:49:28.000Z</time>
      </trkpt>
      <trkpt lat="47.57907" lon="6.78288">
        <ele>351</ele>
        <time>2016-04-10T08:49:31.000Z</time>
      </trkpt>
      <trkpt lat="47.57907" lon="6.7829">
        <ele>351</ele>
        <time>2016-04-10T08:49:32.000Z</time>
      </trkpt>
      <trkpt lat="47.57908" lon="6.78295">
        <ele>352</ele>
        <time>2016-04-10T08:49:35.000Z</time>
      </trkpt>
      <trkpt lat="47.57908" lon="6.78297">
        <ele>352</ele>
        <time>2016-04-10T08:49:36.000Z</time>
      </trkpt>
      <trkpt lat="47.57907" lon="6.78303">
        <ele>352</ele>
        <time>2016-04-10T08:49:40.000Z</time>
      </trkpt>
      <trkpt lat="47.57905" lon="6.78304">
        <ele>352</ele>
        <time>2016-04-10T08:49:41.000Z</time>
      </trkpt>
      <trkpt lat="47.57901" lon="6.78304">
        <ele>353</ele>
        <time>2016-04-10T08:49:43.000Z</time>
      </trkpt>
      <trkpt lat="47.57899" lon="6.78303">
        <ele>353</ele>
        <time>2016-04-10T08:49:44.000Z</time>
      </trkpt>
      <trkpt lat="47.57897" lon="6.78301">
        <ele>352</ele>
        <time>2016-04-10T08:49:45.000Z</time>
      </trkpt>
      <trkpt lat="47.57895" lon="6.78298">
        <ele>352</ele>
        <time>2016-04-10T08:49:46.000Z</time>
      </trkpt>
      <trkpt lat="47.57892" lon="6.78295">
        <ele>352</ele>
        <time>2016-04-10T08:49:47.000Z</time>
      </trkpt>
      <trkpt lat="47.5789" lon="6.78293">
        <ele>352</ele>
        <time>2016-04-10T08:49:48.000Z</time>
      </trkpt>
      <trkpt lat="47.57887" lon="6.78291">
        <ele>352</ele>
        <time>2016-04-10T08:49:49.000Z</time>
      </trkpt>
      <trkpt lat="47.57884" lon="6.7829">
        <ele>352</ele>
        <time>2016-04-10T08:49:50.000Z</time>
      </trkpt>
      <trkpt lat="47.57881" lon="6.78288">
        <ele>352</ele>
        <time>2016-04-10T08:49:51.000Z</time>
      </trkpt>
      <trkpt lat="47.57877" lon="6.78285">
        <ele>352</ele>
        <time>2016-04-10T08:49:52.000Z</time>
      </trkpt>
      <trkpt lat="47.57873" lon="6.78282">
        <ele>352</ele>
        <time>2016-04-10T08:49:53.000Z</time>
      </trkpt>
      <trkpt lat="47.57866" lon="6.78278">
        <ele>352</ele>
        <time>2016-04-10T08:49:54.000Z</time>
      </trkpt>
      <trkpt lat="47.57861" lon="6.78275">
        <ele>352</ele>
        <time>2016-04-10T08:49:55.000Z</time>
      </trkpt>
      <trkpt lat="47.57857" lon="6.78272">
        <ele>352</ele>
        <time>2016-04-10T08:49:56.000Z</time>
      </trkpt>
      <trkpt lat="47.57853" lon="6.78269">
        <ele>352</ele>
        <time>2016-04-10T08:49:57.000Z</time>
      </trkpt>
      <trkpt lat="47.57849" lon="6.78266">
        <ele>352</ele>
        <time>2016-04-10T08:49:58.000Z</time>
      </trkpt>
      <trkpt lat="47.57845" lon="6.78262">
        <ele>352</ele>
        <time>2016-04-10T08:49:59.000Z</time>
      </trkpt>
      <trkpt lat="47.5784" lon="6.78258">
        <ele>351</ele>
        <time>2016-04-10T08:50:00.000Z</time>
      </trkpt>
      <trkpt lat="47.57835" lon="6.78256">
        <ele>351</ele>
        <time>2016-04-10T08:50:01.000Z</time>
      </trkpt>
      <trkpt lat="47.5783" lon="6.78253">
        <ele>352</ele>
        <time>2016-04-10T08:50:02.000Z</time>
      </trkpt>
      <trkpt lat="47.57825" lon="6.78251">
        <ele>354</ele>
        <time>2016-04-10T08:50:03.000Z</time>
      </trkpt>
      <trkpt lat="47.57819" lon="6.78249">
        <ele>350</ele>
        <time>2016-04-10T08:50:04.000Z</time>
      </trkpt>
      <trkpt lat="47.57814" lon="6.78245">
        <ele>350</ele>
        <time>2016-04-10T08:50:05.000Z</time>
      </trkpt>
      <trkpt lat="47.57809" lon="6.78243">
        <ele>350</ele>
        <time>2016-04-10T08:50:06.000Z</time>
      </trkpt>
      <trkpt lat="47.57804" lon="6.78239">
        <ele>350</ele>
        <time>2016-04-10T08:50:07.000Z</time>
      </trkpt>
      <trkpt lat="47.57799" lon="6.78235">
        <ele>350</ele>
        <time>2016-04-10T08:50:08.000Z</time>
      </trkpt>
      <trkpt lat="47.57794" lon="6.78231">
        <ele>350</ele>
        <time>2016-04-10T08:50:09.000Z</time>
      </trkpt>
      <trkpt lat="47.57788" lon="6.78227">
        <ele>350</ele>
        <time>2016-04-10T08:50:10.000Z</time>
      </trkpt>
      <trkpt lat="47.57782" lon="6.78224">
        <ele>350</ele>
        <time>2016-04-10T08:50:11.000Z</time>
      </trkpt>
      <trkpt lat="47.57776" lon="6.7822">
        <ele>350</ele>
        <time>2016-04-10T08:50:12.000Z</time>
      </trkpt>
      <trkpt lat="47.5777" lon="6.78216">
        <ele>350</ele>
        <time>2016-04-10T08:50:13.000Z</time>
      </trkpt>
      <trkpt lat="47.57764" lon="6.78212">
        <ele>350</ele>
        <time>2016-04-10T08:50:14.000Z</time>
      </trkpt>
      <trkpt lat="47.57759" lon="6.78207">
        <ele>349</ele>
        <time>2016-04-10T08:50:15.000Z</time>
      </trkpt>
      <trkpt lat="47.57753" lon="6.78203">
        <ele>349</ele>
        <time>2016-04-10T08:50:16.000Z</time>
      </trkpt>
      <trkpt lat="47.57747" lon="6.78198">
        <ele>350</ele>
        <time>2016-04-10T08:50:17.000Z</time>
      </trkpt>
      <trkpt lat="47.57741" lon="6.78194">
        <ele>349</ele>
        <time>2016-04-10T08:50:18.000Z</time>
      </trkpt>
      <trkpt lat="47.57735" lon="6.78189">
        <ele>349</ele>
        <time>2016-04-10T08:50:19.000Z</time>
      </trkpt>
      <trkpt lat="47.57728" lon="6.78184">
        <ele>349</ele>
        <time>2016-04-10T08:50:20.000Z</time>
      </trkpt>
      <trkpt lat="47.57722" lon="6.78179">
        <ele>348</ele>
        <time>2016-04-10T08:50:21.000Z</time>
      </trkpt>
      <trkpt lat="47.57715" lon="6.78174">
        <ele>348</ele>
        <time>2016-04-10T08:50:22.000Z</time>
      </trkpt>
      <trkpt lat="47.57709" lon="6.78168">
        <ele>348</ele>
        <time>2016-04-10T08:50:23.000Z</time>
      </trkpt>
      <trkpt lat="47.57702" lon="6.78164">
        <ele>341</ele>
        <time>2016-04-10T08:50:24.000Z</time>
      </trkpt>
      <trkpt lat="47.57696" lon="6.7816">
        <ele>340</ele>
        <time>2016-04-10T08:50:25.000Z</time>
      </trkpt>
      <trkpt lat="47.57691" lon="6.78155">
        <ele>340</ele>
        <time>2016-04-10T08:50:26.000Z</time>
      </trkpt>
      <trkpt lat="47.57685" lon="6.7815">
        <ele>340</ele>
        <time>2016-04-10T08:50:27.000Z</time>
      </trkpt>
      <trkpt lat="47.57679" lon="6.78144">
        <ele>340</ele>
        <time>2016-04-10T08:50:28.000Z</time>
      </trkpt>
      <trkpt lat="47.57672" lon="6.78139">
        <ele>340</ele>
        <time>2016-04-10T08:50:29.000Z</time>
      </trkpt>
      <trkpt lat="47.57667" lon="6.78135">
        <ele>343</ele>
        <time>2016-04-10T08:50:30.000Z</time>
      </trkpt>
      <trkpt lat="47.57661" lon="6.78131">
        <ele>343</ele>
        <time>2016-04-10T08:50:31.000Z</time>
      </trkpt>
      <trkpt lat="47.57655" lon="6.78127">
        <ele>343</ele>
        <time>2016-04-10T08:50:32.000Z</time>
      </trkpt>
      <trkpt lat="47.5765" lon="6.78124">
        <ele>343</ele>
        <time>2016-04-10T08:50:33.000Z</time>
      </trkpt>
      <trkpt lat="47.57645" lon="6.78122">
        <ele>343</ele>
        <time>2016-04-10T08:50:34.000Z</time>
      </trkpt>
      <trkpt lat="47.57641" lon="6.78124">
        <ele>343</ele>
        <time>2016-04-10T08:50:35.000Z</time>
      </trkpt>
      <trkpt lat="47.57636" lon="6.78127">
        <ele>344</ele>
        <time>2016-04-10T08:50:36.000Z</time>
      </trkpt>
      <trkpt lat="47.57633" lon="6.78131">
        <ele>344</ele>
        <time>2016-04-10T08:50:37.000Z</time>
      </trkpt>
      <trkpt lat="47.5763" lon="6.78134">
        <ele>345</ele>
        <time>2016-04-10T08:50:38.000Z</time>
      </trkpt>
      <trkpt lat="47.57628" lon="6.78137">
        <ele>345</ele>
        <time>2016-04-10T08:50:39.000Z</time>
      </trkpt>
      <trkpt lat="47.57627" lon="6.7814">
        <ele>345</ele>
        <time>2016-04-10T08:50:40.000Z</time>
      </trkpt>
      <trkpt lat="47.57623" lon="6.78141">
        <ele>346</ele>
        <time>2016-04-10T08:50:42.000Z</time>
      </trkpt>
      <trkpt lat="47.57622" lon="6.78142">
        <ele>346</ele>
        <time>2016-04-10T08:50:43.000Z</time>
      </trkpt>
      <trkpt lat="47.57618" lon="6.78143">
        <ele>346</ele>
        <time>2016-04-10T08:50:45.000Z</time>
      </trkpt>
      <trkpt lat="47.57616" lon="6.78144">
        <ele>346</ele>
        <time>2016-04-10T08:50:46.000Z</time>
      </trkpt>
      <trkpt lat="47.57612" lon="6.78144">
        <ele>347</ele>
        <time>2016-04-10T08:50:48.000Z</time>
      </trkpt>
      <trkpt lat="47.5761" lon="6.78144">
        <ele>347</ele>
        <time>2016-04-10T08:50:49.000Z</time>
      </trkpt>
      <trkpt lat="47.57606" lon="6.78144">
        <ele>348</ele>
        <time>2016-04-10T08:50:51.000Z</time>
      </trkpt>
      <trkpt lat="47.57604" lon="6.78145">
        <ele>348</ele>
        <time>2016-04-10T08:50:52.000Z</time>
      </trkpt>
      <trkpt lat="47.57599" lon="6.78145">
        <ele>349</ele>
        <time>2016-04-10T08:50:54.000Z</time>
      </trkpt>
      <trkpt lat="47.57597" lon="6.78146">
        <ele>349</ele>
        <time>2016-04-10T08:50:55.000Z</time>
      </trkpt>
      <trkpt lat="47.57593" lon="6.78147">
        <ele>350</ele>
        <time>2016-04-10T08:50:57.000Z</time>
      </trkpt>
      <trkpt lat="47.57591" lon="6.78147">
        <ele>350</ele>
        <time>2016-04-10T08:50:58.000Z</time>
      </trkpt>
      <trkpt lat="47.57587" lon="6.78148">
        <ele>350</ele>
        <time>2016-04-10T08:51:00.000Z</time>
      </trkpt>
      <trkpt lat="47.57586" lon="6.78148">
        <ele>351</ele>
        <time>2016-04-10T08:51:01.000Z</time>
      </trkpt>
      <trkpt lat="47.57582" lon="6.78149">
        <ele>356</ele>
        <time>2016-04-10T08:51:03.000Z</time>
      </trkpt>
      <trkpt lat="47.5758" lon="6.78148">
        <ele>356</ele>
        <time>2016-04-10T08:51:04.000Z</time>
      </trkpt>
      <trkpt lat="47.57576" lon="6.78147">
        <ele>356</ele>
        <time>2016-04-10T08:51:06.000Z</time>
      </trkpt>
      <trkpt lat="47.57574" lon="6.78147">
        <ele>356</ele>
        <time>2016-04-10T08:51:07.000Z</time>
      </trkpt>
      <trkpt lat="47.57571" lon="6.78146">
        <ele>356</ele>
        <time>2016-04-10T08:51:08.000Z</time>
      </trkpt>
      <trkpt lat="47.57569" lon="6.78146">
        <ele>356</ele>
        <time>2016-04-10T08:51:09.000Z</time>
      </trkpt>
      <trkpt lat="47.57566" lon="6.78145">
        <ele>356</ele>
        <time>2016-04-10T08:51:10.000Z</time>
      </trkpt>
      <trkpt lat="47.57563" lon="6.78145">
        <ele>356</ele>
        <time>2016-04-10T08:51:11.000Z</time>
      </trkpt>
      <trkpt lat="47.57561" lon="6.78145">
        <ele>356</ele>
        <time>2016-04-10T08:51:12.000Z</time>
      </trkpt>
      <trkpt lat="47.57558" lon="6.78145">
        <ele>356</ele>
        <time>2016-04-10T08:51:13.000Z</time>
      </trkpt>
      <trkpt lat="47.57556" lon="6.78145">
        <ele>356</ele>
        <time>2016-04-10T08:51:14.000Z</time>
      </trkpt>
      <trkpt lat="47.57554" lon="6.78145">
        <ele>357</ele>
        <time>2016-04-10T08:51:15.000Z</time>
      </trkpt>
      <trkpt lat="47.57551" lon="6.78145">
        <ele>357</ele>
        <time>2016-04-10T08:51:16.000Z</time>
      </trkpt>
      <trkpt lat="47.57549" lon="6.78146">
        <ele>357</ele>
        <time>2016-04-10T08:51:17.000Z</time>
      </trkpt>
      <trkpt lat="47.57545" lon="6.78146">
        <ele>357</ele>
        <time>2016-04-10T08:51:19.000Z</time>
      </trkpt>
      <trkpt lat="47.57543" lon="6.78146">
        <ele>357</ele>
        <time>2016-04-10T08:51:20.000Z</time>
      </trkpt>
      <trkpt lat="47.57539" lon="6.78146">
        <ele>358</ele>
        <time>2016-04-10T08:51:22.000Z</time>
      </trkpt>
      <trkpt lat="47.57536" lon="6.78145">
        <ele>358</ele>
        <time>2016-04-10T08:51:23.000Z</time>
      </trkpt>
      <trkpt lat="47.57534" lon="6.78144">
        <ele>358</ele>
        <time>2016-04-10T08:51:24.000Z</time>
      </trkpt>
      <trkpt lat="47.57531" lon="6.78144">
        <ele>358</ele>
        <time>2016-04-10T08:51:25.000Z</time>
      </trkpt>
      <trkpt lat="47.57528" lon="6.78143">
        <ele>358</ele>
        <time>2016-04-10T08:51:26.000Z</time>
      </trkpt>
      <trkpt lat="47.57525" lon="6.78143">
        <ele>359</ele>
        <time>2016-04-10T08:51:27.000Z</time>
      </trkpt>
      <trkpt lat="47.57522" lon="6.78142">
        <ele>359</ele>
        <time>2016-04-10T08:51:28.000Z</time>
      </trkpt>
      <trkpt lat="47.57519" lon="6.78142">
        <ele>359</ele>
        <time>2016-04-10T08:51:29.000Z</time>
      </trkpt>
      <trkpt lat="47.57516" lon="6.78141">
        <ele>359</ele>
        <time>2016-04-10T08:51:30.000Z</time>
      </trkpt>
      <trkpt lat="47.57513" lon="6.7814">
        <ele>359</ele>
        <time>2016-04-10T08:51:31.000Z</time>
      </trkpt>
      <trkpt lat="47.5751" lon="6.78139">
        <ele>359</ele>
        <time>2016-04-10T08:51:32.000Z</time>
      </trkpt>
      <trkpt lat="47.57508" lon="6.78137">
        <ele>359</ele>
        <time>2016-04-10T08:51:33.000Z</time>
      </trkpt>
      <trkpt lat="47.57505" lon="6.78137">
        <ele>359</ele>
        <time>2016-04-10T08:51:34.000Z</time>
      </trkpt>
      <trkpt lat="47.57503" lon="6.78136">
        <ele>359</ele>
        <time>2016-04-10T08:51:35.000Z</time>
      </trkpt>
      <trkpt lat="47.57499" lon="6.78135">
        <ele>362</ele>
        <time>2016-04-10T08:51:37.000Z</time>
      </trkpt>
      <trkpt lat="47.57497" lon="6.78134">
        <ele>362</ele>
        <time>2016-04-10T08:51:38.000Z</time>
      </trkpt>
      <trkpt lat="47.57493" lon="6.78134">
        <ele>362</ele>
        <time>2016-04-10T08:51:40.000Z</time>
      </trkpt>
      <trkpt lat="47.57492" lon="6.78134">
        <ele>362</ele>
        <time>2016-04-10T08:51:41.000Z</time>
      </trkpt>
      <trkpt lat="47.57488" lon="6.78134">
        <ele>362</ele>
        <time>2016-04-10T08:51:43.000Z</time>
      </trkpt>
      <trkpt lat="47.57486" lon="6.78134">
        <ele>362</ele>
        <time>2016-04-10T08:51:44.000Z</time>
      </trkpt>
      <trkpt lat="47.57483" lon="6.78133">
        <ele>362</ele>
        <time>2016-04-10T08:51:46.000Z</time>
      </trkpt>
      <trkpt lat="47.57481" lon="6.78132">
        <ele>362</ele>
        <time>2016-04-10T08:51:47.000Z</time>
      </trkpt>
      <trkpt lat="47.57478" lon="6.78131">
        <ele>362</ele>
        <time>2016-04-10T08:51:48.000Z</time>
      </trkpt>
      <trkpt lat="47.57476" lon="6.7813">
        <ele>362</ele>
        <time>2016-04-10T08:51:49.000Z</time>
      </trkpt>
      <trkpt lat="47.57474" lon="6.78129">
        <ele>361</ele>
        <time>2016-04-10T08:51:50.000Z</time>
      </trkpt>
      <trkpt lat="47.57471" lon="6.78128">
        <ele>361</ele>
        <time>2016-04-10T08:51:51.000Z</time>
      </trkpt>
      <trkpt lat="47.57469" lon="6.78127">
        <ele>361</ele>
        <time>2016-04-10T08:51:52.000Z</time>
      </trkpt>
      <trkpt lat="47.57467" lon="6.78126">
        <ele>361</ele>
        <time>2016-04-10T08:51:53.000Z</time>
      </trkpt>
      <trkpt lat="47.57464" lon="6.78125">
        <ele>361</ele>
        <time>2016-04-10T08:51:54.000Z</time>
      </trkpt>
      <trkpt lat="47.57462" lon="6.78123">
        <ele>361</ele>
        <time>2016-04-10T08:51:55.000Z</time>
      </trkpt>
      <trkpt lat="47.57459" lon="6.78122">
        <ele>361</ele>
        <time>2016-04-10T08:51:56.000Z</time>
      </trkpt>
      <trkpt lat="47.57456" lon="6.7812">
        <ele>361</ele>
        <time>2016-04-10T08:51:57.000Z</time>
      </trkpt>
      <trkpt lat="47.57453" lon="6.78119">
        <ele>361</ele>
        <time>2016-04-10T08:51:58.000Z</time>
      </trkpt>
      <trkpt lat="47.5745" lon="6.78118">
        <ele>360</ele>
        <time>2016-04-10T08:51:59.000Z</time>
      </trkpt>
      <trkpt lat="47.57446" lon="6.78117">
        <ele>360</ele>
        <time>2016-04-10T08:52:00.000Z</time>
      </trkpt>
      <trkpt lat="47.57443" lon="6.78116">
        <ele>360</ele>
        <time>2016-04-10T08:52:01.000Z</time>
      </trkpt>
      <trkpt lat="47.57441" lon="6.78115">
        <ele>360</ele>
        <time>2016-04-10T08:52:02.000Z</time>
      </trkpt>
      <trkpt lat="47.57438" lon="6.78114">
        <ele>360</ele>
        <time>2016-04-10T08:52:03.000Z</time>
      </trkpt>
      <trkpt lat="47.57435" lon="6.78114">
        <ele>360</ele>
        <time>2016-04-10T08:52:04.000Z</time>
      </trkpt>
      <trkpt lat="47.57432" lon="6.78114">
        <ele>360</ele>
        <time>2016-04-10T08:52:05.000Z</time>
      </trkpt>
      <trkpt lat="47.57428" lon="6.78114">
        <ele>360</ele>
        <time>2016-04-10T08:52:07.000Z</time>
      </trkpt>
      <trkpt lat="47.57426" lon="6.78113">
        <ele>360</ele>
        <time>2016-04-10T08:52:08.000Z</time>
      </trkpt>
      <trkpt lat="47.57422" lon="6.78112">
        <ele>360</ele>
        <time>2016-04-10T08:52:10.000Z</time>
      </trkpt>
      <trkpt lat="47.5742" lon="6.78112">
        <ele>359</ele>
        <time>2016-04-10T08:52:11.000Z</time>
      </trkpt>
      <trkpt lat="47.57416" lon="6.7811">
        <ele>363</ele>
        <time>2016-04-10T08:52:13.000Z</time>
      </trkpt>
      <trkpt lat="47.57415" lon="6.78109">
        <ele>362</ele>
        <time>2016-04-10T08:52:14.000Z</time>
      </trkpt>
      <trkpt lat="47.57412" lon="6.78106">
        <ele>362</ele>
        <time>2016-04-10T08:52:16.000Z</time>
      </trkpt>
      <trkpt lat="47.5741" lon="6.78106">
        <ele>362</ele>
        <time>2016-04-10T08:52:17.000Z</time>
      </trkpt>
      <trkpt lat="47.57407" lon="6.78105">
        <ele>362</ele>
        <time>2016-04-10T08:52:19.000Z</time>
      </trkpt>
      <trkpt lat="47.57405" lon="6.78105">
        <ele>362</ele>
        <time>2016-04-10T08:52:20.000Z</time>
      </trkpt>
      <trkpt lat="47.57402" lon="6.78103">
        <ele>362</ele>
        <time>2016-04-10T08:52:23.000Z</time>
      </trkpt>
      <trkpt lat="47.57401" lon="6.78103">
        <ele>363</ele>
        <time>2016-04-10T08:52:24.000Z</time>
      </trkpt>
      <trkpt lat="47.57397" lon="6.78102">
        <ele>363</ele>
        <time>2016-04-10T08:52:27.000Z</time>
      </trkpt>
      <trkpt lat="47.57395" lon="6.78102">
        <ele>363</ele>
        <time>2016-04-10T08:52:28.000Z</time>
      </trkpt>
      <trkpt lat="47.57392" lon="6.78104">
        <ele>364</ele>
        <time>2016-04-10T08:52:31.000Z</time>
      </trkpt>
      <trkpt lat="47.57391" lon="6.78105">
        <ele>364</ele>
        <time>2016-04-10T08:52:32.000Z</time>
      </trkpt>
      <trkpt lat="47.57387" lon="6.78109">
        <ele>365</ele>
        <time>2016-04-10T08:52:35.000Z</time>
      </trkpt>
      <trkpt lat="47.57386" lon="6.7811">
        <ele>365</ele>
        <time>2016-04-10T08:52:36.000Z</time>
      </trkpt>
      <trkpt lat="47.57383" lon="6.78113">
        <ele>365</ele>
        <time>2016-04-10T08:52:39.000Z</time>
      </trkpt>
      <trkpt lat="47.57381" lon="6.78113">
        <ele>366</ele>
        <time>2016-04-10T08:52:40.000Z</time>
      </trkpt>
      <trkpt lat="47.57378" lon="6.78115">
        <ele>366</ele>
        <time>2016-04-10T08:52:42.000Z</time>
      </trkpt>
      <trkpt lat="47.57376" lon="6.78116">
        <ele>366</ele>
        <time>2016-04-10T08:52:43.000Z</time>
      </trkpt>
      <trkpt lat="47.57373" lon="6.78118">
        <ele>367</ele>
        <time>2016-04-10T08:52:45.000Z</time>
      </trkpt>
      <trkpt lat="47.57372" lon="6.7812">
        <ele>367</ele>
        <time>2016-04-10T08:52:46.000Z</time>
      </trkpt>
      <trkpt lat="47.57369" lon="6.78124">
        <ele>367</ele>
        <time>2016-04-10T08:52:48.000Z</time>
      </trkpt>
      <trkpt lat="47.57368" lon="6.78127">
        <ele>367</ele>
        <time>2016-04-10T08:52:49.000Z</time>
      </trkpt>
      <trkpt lat="47.57366" lon="6.78131">
        <ele>368</ele>
        <time>2016-04-10T08:52:51.000Z</time>
      </trkpt>
      <trkpt lat="47.57366" lon="6.78133">
        <ele>368</ele>
        <time>2016-04-10T08:52:52.000Z</time>
      </trkpt>
      <trkpt lat="47.57364" lon="6.78139">
        <ele>368</ele>
        <time>2016-04-10T08:52:55.000Z</time>
      </trkpt>
      <trkpt lat="47.57364" lon="6.7814">
        <ele>369</ele>
        <time>2016-04-10T08:52:56.000Z</time>
      </trkpt>
      <trkpt lat="47.57363" lon="6.78145">
        <ele>369</ele>
        <time>2016-04-10T08:53:00.000Z</time>
      </trkpt>
      <trkpt lat="47.57362" lon="6.78146">
        <ele>369</ele>
        <time>2016-04-10T08:53:01.000Z</time>
      </trkpt>
      <trkpt lat="47.57361" lon="6.78152">
        <ele>370</ele>
        <time>2016-04-10T08:53:05.000Z</time>
      </trkpt>
      <trkpt lat="47.5736" lon="6.78155">
        <ele>370</ele>
        <time>2016-04-10T08:53:06.000Z</time>
      </trkpt>
      <trkpt lat="47.57359" lon="6.78159">
        <ele>370</ele>
        <time>2016-04-10T08:53:08.000Z</time>
      </trkpt>
      <trkpt lat="47.57358" lon="6.78161">
        <ele>371</ele>
        <time>2016-04-10T08:53:09.000Z</time>
      </trkpt>
      <trkpt lat="47.57356" lon="6.78167">
        <ele>371</ele>
        <time>2016-04-10T08:53:12.000Z</time>
      </trkpt>
      <trkpt lat="47.57356" lon="6.78168">
        <ele>375</ele>
        <time>2016-04-10T08:53:13.000Z</time>
      </trkpt>
      <trkpt lat="47.57355" lon="6.78174">
        <ele>375</ele>
        <time>2016-04-10T08:53:16.000Z</time>
      </trkpt>
      <trkpt lat="47.57354" lon="6.78175">
        <ele>375</ele>
        <time>2016-04-10T08:53:17.000Z</time>
      </trkpt>
      <trkpt lat="47.57352" lon="6.7818">
        <ele>375</ele>
        <time>2016-04-10T08:53:20.000Z</time>
      </trkpt>
      <trkpt lat="47.57351" lon="6.78182">
        <ele>375</ele>
        <time>2016-04-10T08:53:21.000Z</time>
      </trkpt>
      <trkpt lat="47.57348" lon="6.78185">
        <ele>375</ele>
        <time>2016-04-10T08:53:23.000Z</time>
      </trkpt>
      <trkpt lat="47.57347" lon="6.78186">
        <ele>375</ele>
        <time>2016-04-10T08:53:24.000Z</time>
      </trkpt>
      <trkpt lat="47.57345" lon="6.7819">
        <ele>376</ele>
        <time>2016-04-10T08:53:26.000Z</time>
      </trkpt>
      <trkpt lat="47.57344" lon="6.78193">
        <ele>376</ele>
        <time>2016-04-10T08:53:27.000Z</time>
      </trkpt>
      <trkpt lat="47.57342" lon="6.78197">
        <ele>376</ele>
        <time>2016-04-10T08:53:29.000Z</time>
      </trkpt>
      <trkpt lat="47.57341" lon="6.78199">
        <ele>376</ele>
        <time>2016-04-10T08:53:30.000Z</time>
      </trkpt>
      <trkpt lat="47.57338" lon="6.78203">
        <ele>376</ele>
        <time>2016-04-10T08:53:32.000Z</time>
      </trkpt>
      <trkpt lat="47.57337" lon="6.78205">
        <ele>376</ele>
        <time>2016-04-10T08:53:33.000Z</time>
      </trkpt>
      <trkpt lat="47.57335" lon="6.78211">
        <ele>377</ele>
        <time>2016-04-10T08:53:35.000Z</time>
      </trkpt>
      <trkpt lat="47.57334" lon="6.78213">
        <ele>377</ele>
        <time>2016-04-10T08:53:36.000Z</time>
      </trkpt>
      <trkpt lat="47.57332" lon="6.78219">
        <ele>383</ele>
        <time>2016-04-10T08:53:38.000Z</time>
      </trkpt>
      <trkpt lat="47.57332" lon="6.78222">
        <ele>383</ele>
        <time>2016-04-10T08:53:39.000Z</time>
      </trkpt>
      <trkpt lat="47.57331" lon="6.78227">
        <ele>383</ele>
        <time>2016-04-10T08:53:41.000Z</time>
      </trkpt>
      <trkpt lat="47.5733" lon="6.7823">
        <ele>383</ele>
        <time>2016-04-10T08:53:42.000Z</time>
      </trkpt>
      <trkpt lat="47.57328" lon="6.78234">
        <ele>383</ele>
        <time>2016-04-10T08:53:44.000Z</time>
      </trkpt>
      <trkpt lat="47.57327" lon="6.78237">
        <ele>383</ele>
        <time>2016-04-10T08:53:45.000Z</time>
      </trkpt>
      <trkpt lat="47.57325" lon="6.78242">
        <ele>383</ele>
        <time>2016-04-10T08:53:48.000Z</time>
      </trkpt>
      <trkpt lat="47.57324" lon="6.78244">
        <ele>383</ele>
        <time>2016-04-10T08:53:49.000Z</time>
      </trkpt>
      <trkpt lat="47.57322" lon="6.78249">
        <ele>383</ele>
        <time>2016-04-10T08:53:52.000Z</time>
      </trkpt>
      <trkpt lat="47.57321" lon="6.78251">
        <ele>386</ele>
        <time>2016-04-10T08:53:53.000Z</time>
      </trkpt>
      <trkpt lat="47.57318" lon="6.78256">
        <ele>387</ele>
        <time>2016-04-10T08:53:55.000Z</time>
      </trkpt>
      <trkpt lat="47.57317" lon="6.78258">
        <ele>387</ele>
        <time>2016-04-10T08:53:56.000Z</time>
      </trkpt>
      <trkpt lat="47.57315" lon="6.78263">
        <ele>388</ele>
        <time>2016-04-10T08:53:58.000Z</time>
      </trkpt>
      <trkpt lat="47.57313" lon="6.78266">
        <ele>388</ele>
        <time>2016-04-10T08:53:59.000Z</time>
      </trkpt>
      <trkpt lat="47.57311" lon="6.78271">
        <ele>389</ele>
        <time>2016-04-10T08:54:01.000Z</time>
      </trkpt>
      <trkpt lat="47.5731" lon="6.78273">
        <ele>389</ele>
        <time>2016-04-10T08:54:02.000Z</time>
      </trkpt>
      <trkpt lat="47.57309" lon="6.78278">
        <ele>390</ele>
        <time>2016-04-10T08:54:04.000Z</time>
      </trkpt>
      <trkpt lat="47.57307" lon="6.78279">
        <ele>390</ele>
        <time>2016-04-10T08:54:05.000Z</time>
      </trkpt>
      <trkpt lat="47.57304" lon="6.78283">
        <ele>390</ele>
        <time>2016-04-10T08:54:07.000Z</time>
      </trkpt>
      <trkpt lat="47.57303" lon="6.78284">
        <ele>391</ele>
        <time>2016-04-10T08:54:08.000Z</time>
      </trkpt>
      <trkpt lat="47.57301" lon="6.78289">
        <ele>391</ele>
        <time>2016-04-10T08:54:11.000Z</time>
      </trkpt>
      <trkpt lat="47.57301" lon="6.78291">
        <ele>391</ele>
        <time>2016-04-10T08:54:12.000Z</time>
      </trkpt>
      <trkpt lat="47.57301" lon="6.78296">
        <ele>391</ele>
        <time>2016-04-10T08:54:14.000Z</time>
      </trkpt>
      <trkpt lat="47.57301" lon="6.78299">
        <ele>391</ele>
        <time>2016-04-10T08:54:15.000Z</time>
      </trkpt>
      <trkpt lat="47.573" lon="6.78304">
        <ele>392</ele>
        <time>2016-04-10T08:54:17.000Z</time>
      </trkpt>
      <trkpt lat="47.573" lon="6.78306">
        <ele>392</ele>
        <time>2016-04-10T08:54:18.000Z</time>
      </trkpt>
      <trkpt lat="47.57298" lon="6.78311">
        <ele>392</ele>
        <time>2016-04-10T08:54:20.000Z</time>
      </trkpt>
      <trkpt lat="47.57297" lon="6.78313">
        <ele>392</ele>
        <time>2016-04-10T08:54:21.000Z</time>
      </trkpt>
      <trkpt lat="47.57296" lon="6.78317">
        <ele>392</ele>
        <time>2016-04-10T08:54:23.000Z</time>
      </trkpt>
      <trkpt lat="47.57295" lon="6.78319">
        <ele>393</ele>
        <time>2016-04-10T08:54:24.000Z</time>
      </trkpt>
      <trkpt lat="47.57293" lon="6.78323">
        <ele>393</ele>
        <time>2016-04-10T08:54:26.000Z</time>
      </trkpt>
      <trkpt lat="47.57292" lon="6.78325">
        <ele>393</ele>
        <time>2016-04-10T08:54:27.000Z</time>
      </trkpt>
      <trkpt lat="47.5729" lon="6.7833">
        <ele>393</ele>
        <time>2016-04-10T08:54:30.000Z</time>
      </trkpt>
      <trkpt lat="47.57289" lon="6.78332">
        <ele>393</ele>
        <time>2016-04-10T08:54:31.000Z</time>
      </trkpt>
      <trkpt lat="47.57287" lon="6.78335">
        <ele>399</ele>
        <time>2016-04-10T08:54:33.000Z</time>
      </trkpt>
      <trkpt lat="47.57286" lon="6.78337">
        <ele>399</ele>
        <time>2016-04-10T08:54:34.000Z</time>
      </trkpt>
      <trkpt lat="47.57284" lon="6.78341">
        <ele>399</ele>
        <time>2016-04-10T08:54:36.000Z</time>
      </trkpt>
      <trkpt lat="47.57283" lon="6.78342">
        <ele>399</ele>
        <time>2016-04-10T08:54:37.000Z</time>
      </trkpt>
      <trkpt lat="47.5728" lon="6.78347">
        <ele>400</ele>
        <time>2016-04-10T08:54:40.000Z</time>
      </trkpt>
      <trkpt lat="47.57279" lon="6.78349">
        <ele>400</ele>
        <time>2016-04-10T08:54:41.000Z</time>
      </trkpt>
      <trkpt lat="47.57277" lon="6.78354">
        <ele>400</ele>
        <time>2016-04-10T08:54:45.000Z</time>
      </trkpt>
      <trkpt lat="47.57277" lon="6.78356">
        <ele>400</ele>
        <time>2016-04-10T08:54:46.000Z</time>
      </trkpt>
      <trkpt lat="47.57276" lon="6.78361">
        <ele>400</ele>
        <time>2016-04-10T08:54:49.000Z</time>
      </trkpt>
      <trkpt lat="47.57275" lon="6.78362">
        <ele>400</ele>
        <time>2016-04-10T08:54:50.000Z</time>
      </trkpt>
      <trkpt lat="47.57274" lon="6.78367">
        <ele>401</ele>
        <time>2016-04-10T08:54:53.000Z</time>
      </trkpt>
      <trkpt lat="47.57274" lon="6.78369">
        <ele>401</ele>
        <time>2016-04-10T08:54:54.000Z</time>
      </trkpt>
      <trkpt lat="47.57272" lon="6.78374">
        <ele>401</ele>
        <time>2016-04-10T08:54:57.000Z</time>
      </trkpt>
      <trkpt lat="47.57272" lon="6.78376">
        <ele>401</ele>
        <time>2016-04-10T08:54:58.000Z</time>
      </trkpt>
      <trkpt lat="47.57271" lon="6.78382">
        <ele>401</ele>
        <time>2016-04-10T08:55:02.000Z</time>
      </trkpt>
      <trkpt lat="47.5727" lon="6.78384">
        <ele>402</ele>
        <time>2016-04-10T08:55:03.000Z</time>
      </trkpt>
      <trkpt lat="47.57269" lon="6.78389">
        <ele>402</ele>
        <time>2016-04-10T08:55:06.000Z</time>
      </trkpt>
      <trkpt lat="47.57268" lon="6.78391">
        <ele>402</ele>
        <time>2016-04-10T08:55:07.000Z</time>
      </trkpt>
      <trkpt lat="47.57266" lon="6.78396">
        <ele>403</ele>
        <time>2016-04-10T08:55:10.000Z</time>
      </trkpt>
      <trkpt lat="47.57266" lon="6.78398">
        <ele>403</ele>
        <time>2016-04-10T08:55:11.000Z</time>
      </trkpt>
      <trkpt lat="47.57265" lon="6.78403">
        <ele>403</ele>
        <time>2016-04-10T08:55:14.000Z</time>
      </trkpt>
      <trkpt lat="47.57264" lon="6.78405">
        <ele>404</ele>
        <time>2016-04-10T08:55:15.000Z</time>
      </trkpt>
      <trkpt lat="47.57264" lon="6.7841">
        <ele>404</ele>
        <time>2016-04-10T08:55:18.000Z</time>
      </trkpt>
      <trkpt lat="47.57264" lon="6.78412">
        <ele>404</ele>
        <time>2016-04-10T08:55:19.000Z</time>
      </trkpt>
      <trkpt lat="47.57263" lon="6.78416">
        <ele>404</ele>
        <time>2016-04-10T08:55:22.000Z</time>
      </trkpt>
      <trkpt lat="47.57263" lon="6.78418">
        <ele>407</ele>
        <time>2016-04-10T08:55:23.000Z</time>
      </trkpt>
      <trkpt lat="47.57262" lon="6.78425">
        <ele>407</ele>
        <time>2016-04-10T08:55:27.000Z</time>
      </trkpt>
      <trkpt lat="47.57262" lon="6.78426">
        <ele>407</ele>
        <time>2016-04-10T08:55:28.000Z</time>
      </trkpt>
      <trkpt lat="47.57262" lon="6.78433">
        <ele>408</ele>
        <time>2016-04-10T08:55:32.000Z</time>
      </trkpt>
      <trkpt lat="47.57262" lon="6.78434">
        <ele>408</ele>
        <time>2016-04-10T08:55:33.000Z</time>
      </trkpt>
      <trkpt lat="47.57261" lon="6.78441">
        <ele>408</ele>
        <time>2016-04-10T08:55:37.000Z</time>
      </trkpt>
      <trkpt lat="47.57261" lon="6.78443">
        <ele>408</ele>
        <time>2016-04-10T08:55:38.000Z</time>
      </trkpt>
      <trkpt lat="47.5726" lon="6.78448">
        <ele>408</ele>
        <time>2016-04-10T08:55:41.000Z</time>
      </trkpt>
      <trkpt lat="47.5726" lon="6.78449">
        <ele>408</ele>
        <time>2016-04-10T08:55:42.000Z</time>
      </trkpt>
      <trkpt lat="47.5726" lon="6.78455">
        <ele>408</ele>
        <time>2016-04-10T08:55:45.000Z</time>
      </trkpt>
      <trkpt lat="47.5726" lon="6.78457">
        <ele>409</ele>
        <time>2016-04-10T08:55:46.000Z</time>
      </trkpt>
      <trkpt lat="47.5726" lon="6.78462">
        <ele>409</ele>
        <time>2016-04-10T08:55:49.000Z</time>
      </trkpt>
      <trkpt lat="47.5726" lon="6.78464">
        <ele>409</ele>
        <time>2016-04-10T08:55:49.999Z</time>
      </trkpt>
      <trkpt lat="47.5726" lon="6.7847">
        <ele>409</ele>
        <time>2016-04-10T08:55:54.000Z</time>
      </trkpt>
      <trkpt lat="47.5726" lon="6.78472">
        <ele>409</ele>
        <time>2016-04-10T08:55:55.000Z</time>
      </trkpt>
      <trkpt lat="47.5726" lon="6.78478">
        <ele>410</ele>
        <time>2016-04-10T08:55:59.000Z</time>
      </trkpt>
      <trkpt lat="47.57261" lon="6.78479">
        <ele>410</ele>
        <time>2016-04-10T08:56:00.000Z</time>
      </trkpt>
      <trkpt lat="47.57261" lon="6.78485">
        <ele>410</ele>
        <time>2016-04-10T08:56:04.000Z</time>
      </trkpt>
      <trkpt lat="47.57261" lon="6.78487">
        <ele>411</ele>
        <time>2016-04-10T08:56:05.000Z</time>
      </trkpt>
      <trkpt lat="47.57259" lon="6.78492">
        <ele>411</ele>
        <time>2016-04-10T08:56:08.000Z</time>
      </trkpt>
      <trkpt lat="47.57258" lon="6.78494">
        <ele>411</ele>
        <time>2016-04-10T08:56:09.000Z</time>
      </trkpt>
      <trkpt lat="47.57257" lon="6.78499">
        <ele>412</ele>
        <time>2016-04-10T08:56:12.000Z</time>
      </trkpt>
      <trkpt lat="47.57257" lon="6.78501">
        <ele>414</ele>
        <time>2016-04-10T08:56:13.000Z</time>
      </trkpt>
      <trkpt lat="47.57256" lon="6.78506">
        <ele>414</ele>
        <time>2016-04-10T08:56:16.000Z</time>
      </trkpt>
      <trkpt lat="47.57255" lon="6.78508">
        <ele>414</ele>
        <time>2016-04-10T08:56:17.000Z</time>
      </trkpt>
      <trkpt lat="47.57255" lon="6.78512">
        <ele>414</ele>
        <time>2016-04-10T08:56:20.000Z</time>
      </trkpt>
      <trkpt lat="47.57254" lon="6.78514">
        <ele>414</ele>
        <time>2016-04-10T08:56:21.000Z</time>
      </trkpt>
      <trkpt lat="47.57253" lon="6.78519">
        <ele>415</ele>
        <time>2016-04-10T08:56:24.000Z</time>
      </trkpt>
      <trkpt lat="47.57252" lon="6.7852">
        <ele>415</ele>
        <time>2016-04-10T08:56:25.000Z</time>
      </trkpt>
      <trkpt lat="47.5725" lon="6.78525">
        <ele>419</ele>
        <time>2016-04-10T08:56:29.000Z</time>
      </trkpt>
      <trkpt lat="47.57249" lon="6.78527">
        <ele>419</ele>
        <time>2016-04-10T08:56:30.000Z</time>
      </trkpt>
      <trkpt lat="47.57248" lon="6.78533">
        <ele>420</ele>
        <time>2016-04-10T08:56:34.000Z</time>
      </trkpt>
      <trkpt lat="47.57247" lon="6.78534">
        <ele>420</ele>
        <time>2016-04-10T08:56:35.000Z</time>
      </trkpt>
      <trkpt lat="47.57246" lon="6.78539">
        <ele>420</ele>
        <time>2016-04-10T08:56:38.000Z</time>
      </trkpt>
      <trkpt lat="47.57245" lon="6.78541">
        <ele>420</ele>
        <time>2016-04-10T08:56:39.000Z</time>
      </trkpt>
      <trkpt lat="47.57244" lon="6.78547">
        <ele>421</ele>
        <time>2016-04-10T08:56:44.000Z</time>
      </trkpt>
      <trkpt lat="47.57244" lon="6.78547">
        <ele>421</ele>
        <time>2016-04-10T08:56:45.000Z</time>
      </trkpt>
      <trkpt lat="47.57244" lon="6.78553">
        <ele>421</ele>
        <time>2016-04-10T08:56:53.000Z</time>
      </trkpt>
      <trkpt lat="47.57244" lon="6.78554">
        <ele>421</ele>
        <time>2016-04-10T08:56:54.000Z</time>
      </trkpt>
      <trkpt lat="47.57244" lon="6.7856">
        <ele>421</ele>
        <time>2016-04-10T08:56:59.000Z</time>
      </trkpt>
      <trkpt lat="47.57244" lon="6.78562">
        <ele>422</ele>
        <time>2016-04-10T08:57:00.000Z</time>
      </trkpt>
      <trkpt lat="47.57244" lon="6.78567">
        <ele>422</ele>
        <time>2016-04-10T08:57:08.000Z</time>
      </trkpt>
      <trkpt lat="47.57244" lon="6.78569">
        <ele>422</ele>
        <time>2016-04-10T08:57:09.000Z</time>
      </trkpt>
      <trkpt lat="47.57245" lon="6.78574">
        <ele>422</ele>
        <time>2016-04-10T08:57:12.000Z</time>
      </trkpt>
      <trkpt lat="47.57245" lon="6.78577">
        <ele>422</ele>
        <time>2016-04-10T08:57:13.000Z</time>
      </trkpt>
      <trkpt lat="47.57246" lon="6.78582">
        <ele>422</ele>
        <time>2016-04-10T08:57:16.000Z</time>
      </trkpt>
      <trkpt lat="47.57247" lon="6.78583">
        <ele>422</ele>
        <time>2016-04-10T08:57:17.000Z</time>
      </trkpt>
      <trkpt lat="47.5725" lon="6.78587">
        <ele>423</ele>
        <time>2016-04-10T08:57:21.000Z</time>
      </trkpt>
      <trkpt lat="47.5725" lon="6.78588">
        <ele>422</ele>
        <time>2016-04-10T08:57:22.000Z</time>
      </trkpt>
      <trkpt lat="47.57252" lon="6.78592">
        <ele>423</ele>
        <time>2016-04-10T08:57:25.000Z</time>
      </trkpt>
      <trkpt lat="47.57253" lon="6.78594">
        <ele>423</ele>
        <time>2016-04-10T08:57:26.000Z</time>
      </trkpt>
      <trkpt lat="47.57256" lon="6.78597">
        <ele>423</ele>
        <time>2016-04-10T08:57:29.000Z</time>
      </trkpt>
      <trkpt lat="47.57257" lon="6.78598">
        <ele>423</ele>
        <time>2016-04-10T08:57:30.000Z</time>
      </trkpt>
      <trkpt lat="47.5726" lon="6.78603">
        <ele>423</ele>
        <time>2016-04-10T08:57:33.000Z</time>
      </trkpt>
      <trkpt lat="47.57261" lon="6.78604">
        <ele>423</ele>
        <time>2016-04-10T08:57:34.000Z</time>
      </trkpt>
      <trkpt lat="47.57263" lon="6.78609">
        <ele>423</ele>
        <time>2016-04-10T08:57:38.000Z</time>
      </trkpt>
      <trkpt lat="47.57263" lon="6.78611">
        <ele>423</ele>
        <time>2016-04-10T08:57:39.000Z</time>
      </trkpt>
      <trkpt lat="47.57259" lon="6.78612">
        <ele>424</ele>
        <time>2016-04-10T08:57:44.000Z</time>
      </trkpt>
      <trkpt lat="47.57257" lon="6.78611">
        <ele>424</ele>
        <time>2016-04-10T08:57:45.000Z</time>
      </trkpt>
      <trkpt lat="47.57253" lon="6.78611">
        <ele>424</ele>
        <time>2016-04-10T08:57:47.000Z</time>
      </trkpt>
      <trkpt lat="47.57251" lon="6.78612">
        <ele>424</ele>
        <time>2016-04-10T08:57:48.000Z</time>
      </trkpt>
      <trkpt lat="47.57247" lon="6.78613">
        <ele>427</ele>
        <time>2016-04-10T08:57:51.000Z</time>
      </trkpt>
      <trkpt lat="47.57246" lon="6.78614">
        <ele>427</ele>
        <time>2016-04-10T08:57:52.000Z</time>
      </trkpt>
      <trkpt lat="47.57241" lon="6.78615">
        <ele>427</ele>
        <time>2016-04-10T08:57:55.000Z</time>
      </trkpt>
      <trkpt lat="47.5724" lon="6.78616">
        <ele>427</ele>
        <time>2016-04-10T08:57:56.000Z</time>
      </trkpt>
      <trkpt lat="47.57236" lon="6.78616">
        <ele>428</ele>
        <time>2016-04-10T08:57:59.000Z</time>
      </trkpt>
      <trkpt lat="47.57235" lon="6.78617">
        <ele>428</ele>
        <time>2016-04-10T08:58:00.000Z</time>
      </trkpt>
      <trkpt lat="47.57232" lon="6.78619">
        <ele>428</ele>
        <time>2016-04-10T08:58:03.000Z</time>
      </trkpt>
      <trkpt lat="47.57231" lon="6.78621">
        <ele>428</ele>
        <time>2016-04-10T08:58:04.000Z</time>
      </trkpt>
      <trkpt lat="47.57228" lon="6.78625">
        <ele>428</ele>
        <time>2016-04-10T08:58:07.000Z</time>
      </trkpt>
      <trkpt lat="47.57227" lon="6.78625">
        <ele>428</ele>
        <time>2016-04-10T08:58:08.000Z</time>
      </trkpt>
      <trkpt lat="47.57224" lon="6.78629">
        <ele>429</ele>
        <time>2016-04-10T08:58:13.000Z</time>
      </trkpt>
      <trkpt lat="47.57223" lon="6.7863">
        <ele>429</ele>
        <time>2016-04-10T08:58:14.000Z</time>
      </trkpt>
      <trkpt lat="47.5722" lon="6.78635">
        <ele>429</ele>
        <time>2016-04-10T08:58:19.000Z</time>
      </trkpt>
      <trkpt lat="47.5722" lon="6.78635">
        <ele>429</ele>
        <time>2016-04-10T08:58:20.000Z</time>
      </trkpt>
      <trkpt lat="47.57216" lon="6.78635">
        <ele>429</ele>
        <time>2016-04-10T08:58:23.000Z</time>
      </trkpt>
      <trkpt lat="47.57214" lon="6.78636">
        <ele>429</ele>
        <time>2016-04-10T08:58:24.000Z</time>
      </trkpt>
      <trkpt lat="47.57209" lon="6.78638">
        <ele>430</ele>
        <time>2016-04-10T08:58:26.000Z</time>
      </trkpt>
      <trkpt lat="47.57208" lon="6.78639">
        <ele>430</ele>
        <time>2016-04-10T08:58:27.000Z</time>
      </trkpt>
      <trkpt lat="47.57205" lon="6.78641">
        <ele>430</ele>
        <time>2016-04-10T08:58:29.000Z</time>
      </trkpt>
      <trkpt lat="47.57203" lon="6.78642">
        <ele>430</ele>
        <time>2016-04-10T08:58:30.000Z</time>
      </trkpt>
      <trkpt lat="47.572" lon="6.78644">
        <ele>431</ele>
        <time>2016-04-10T08:58:32.000Z</time>
      </trkpt>
      <trkpt lat="47.57198" lon="6.78644">
        <ele>431</ele>
        <time>2016-04-10T08:58:33.000Z</time>
      </trkpt>
      <trkpt lat="47.57195" lon="6.78645">
        <ele>431</ele>
        <time>2016-04-10T08:58:35.000Z</time>
      </trkpt>
      <trkpt lat="47.57193" lon="6.78645">
        <ele>431</ele>
        <time>2016-04-10T08:58:36.000Z</time>
      </trkpt>
      <trkpt lat="47.57189" lon="6.78645">
        <ele>431</ele>
        <time>2016-04-10T08:58:40.000Z</time>
      </trkpt>
      <trkpt lat="47.57187" lon="6.78645">
        <ele>431</ele>
        <time>2016-04-10T08:58:41.000Z</time>
      </trkpt>
      <trkpt lat="47.57183" lon="6.78645">
        <ele>432</ele>
        <time>2016-04-10T08:58:50.000Z</time>
      </trkpt>
      <trkpt lat="47.57183" lon="6.78645">
        <ele>432</ele>
        <time>2016-04-10T08:58:51.000Z</time>
      </trkpt>
      <trkpt lat="47.57178" lon="6.78647">
        <ele>432</ele>
        <time>2016-04-10T08:59:09.000Z</time>
      </trkpt>
      <trkpt lat="47.57177" lon="6.78647">
        <ele>432</ele>
        <time>2016-04-10T08:59:10.000Z</time>
      </trkpt>
      <trkpt lat="47.57174" lon="6.78647">
        <ele>433</ele>
        <time>2016-04-10T08:59:13.000Z</time>
      </trkpt>
      <trkpt lat="47.57172" lon="6.78647">
        <ele>433</ele>
        <time>2016-04-10T08:59:14.000Z</time>
      </trkpt>
      <trkpt lat="47.57169" lon="6.78646">
        <ele>433</ele>
        <time>2016-04-10T08:59:16.000Z</time>
      </trkpt>
      <trkpt lat="47.57167" lon="6.78647">
        <ele>433</ele>
        <time>2016-04-10T08:59:17.000Z</time>
      </trkpt>
      <trkpt lat="47.57164" lon="6.78647">
        <ele>437</ele>
        <time>2016-04-10T08:59:19.000Z</time>
      </trkpt>
      <trkpt lat="47.57162" lon="6.78647">
        <ele>437</ele>
        <time>2016-04-10T08:59:20.000Z</time>
      </trkpt>
      <trkpt lat="47.57159" lon="6.78648">
        <ele>437</ele>
        <time>2016-04-10T08:59:22.000Z</time>
      </trkpt>
      <trkpt lat="47.57157" lon="6.78648">
        <ele>437</ele>
        <time>2016-04-10T08:59:23.000Z</time>
      </trkpt>
      <trkpt lat="47.57154" lon="6.78648">
        <ele>437</ele>
        <time>2016-04-10T08:59:26.000Z</time>
      </trkpt>
      <trkpt lat="47.57153" lon="6.78648">
        <ele>437</ele>
        <time>2016-04-10T08:59:27.000Z</time>
      </trkpt>
      <trkpt lat="47.5715" lon="6.78647">
        <ele>437</ele>
        <time>2016-04-10T08:59:29.000Z</time>
      </trkpt>
      <trkpt lat="47.57148" lon="6.78647">
        <ele>437</ele>
        <time>2016-04-10T08:59:30.000Z</time>
      </trkpt>
      <trkpt lat="47.57145" lon="6.78648">
        <ele>437</ele>
        <time>2016-04-10T08:59:32.000Z</time>
      </trkpt>
      <trkpt lat="47.57143" lon="6.78649">
        <ele>437</ele>
        <time>2016-04-10T08:59:33.000Z</time>
      </trkpt>
      <trkpt lat="47.5714" lon="6.78649">
        <ele>437</ele>
        <time>2016-04-10T08:59:35.000Z</time>
      </trkpt>
      <trkpt lat="47.57139" lon="6.7865">
        <ele>437</ele>
        <time>2016-04-10T08:59:36.000Z</time>
      </trkpt>
      <trkpt lat="47.57135" lon="6.78651">
        <ele>438</ele>
        <time>2016-04-10T08:59:38.000Z</time>
      </trkpt>
      <trkpt lat="47.57134" lon="6.78651">
        <ele>438</ele>
        <time>2016-04-10T08:59:39.000Z</time>
      </trkpt>
      <trkpt lat="47.5713" lon="6.78652">
        <ele>438</ele>
        <time>2016-04-10T08:59:41.000Z</time>
      </trkpt>
      <trkpt lat="47.57128" lon="6.78653">
        <ele>438</ele>
        <time>2016-04-10T08:59:42.000Z</time>
      </trkpt>
      <trkpt lat="47.57125" lon="6.78654">
        <ele>438</ele>
        <time>2016-04-10T08:59:44.000Z</time>
      </trkpt>
      <trkpt lat="47.57123" lon="6.78654">
        <ele>438</ele>
        <time>2016-04-10T08:59:45.000Z</time>
      </trkpt>
      <trkpt lat="47.57119" lon="6.78657">
        <ele>439</ele>
        <time>2016-04-10T08:59:48.000Z</time>
      </trkpt>
      <trkpt lat="47.57118" lon="6.78658">
        <ele>439</ele>
        <time>2016-04-10T08:59:49.000Z</time>
      </trkpt>
      <trkpt lat="47.57114" lon="6.78661">
        <ele>439</ele>
        <time>2016-04-10T08:59:52.000Z</time>
      </trkpt>
      <trkpt lat="47.57112" lon="6.78662">
        <ele>439</ele>
        <time>2016-04-10T08:59:53.000Z</time>
      </trkpt>
      <trkpt lat="47.57108" lon="6.78663">
        <ele>440</ele>
        <time>2016-04-10T08:59:55.000Z</time>
      </trkpt>
      <trkpt lat="47.57105" lon="6.78663">
        <ele>440</ele>
        <time>2016-04-10T08:59:56.000Z</time>
      </trkpt>
      <trkpt lat="47.57103" lon="6.78663">
        <ele>440</ele>
        <time>2016-04-10T08:59:57.000Z</time>
      </trkpt>
      <trkpt lat="47.571" lon="6.78663">
        <ele>441</ele>
        <time>2016-04-10T08:59:58.000Z</time>
      </trkpt>
      <trkpt lat="47.57097" lon="6.78664">
        <ele>441</ele>
        <time>2016-04-10T08:59:59.000Z</time>
      </trkpt>
      <trkpt lat="47.57095" lon="6.78664">
        <ele>442</ele>
        <time>2016-04-10T09:00:00.000Z</time>
      </trkpt>
      <trkpt lat="47.57092" lon="6.78665">
        <ele>442</ele>
        <time>2016-04-10T09:00:01.000Z</time>
      </trkpt>
      <trkpt lat="47.5709" lon="6.78666">
        <ele>443</ele>
        <time>2016-04-10T09:00:02.000Z</time>
      </trkpt>
      <trkpt lat="47.57087" lon="6.78666">
        <ele>443</ele>
        <time>2016-04-10T09:00:03.000Z</time>
      </trkpt>
      <trkpt lat="47.57084" lon="6.78667">
        <ele>444</ele>
        <time>2016-04-10T09:00:04.000Z</time>
      </trkpt>
      <trkpt lat="47.57082" lon="6.78668">
        <ele>444</ele>
        <time>2016-04-10T09:00:05.000Z</time>
      </trkpt>
      <trkpt lat="47.5708" lon="6.78668">
        <ele>444</ele>
        <time>2016-04-10T09:00:06.000Z</time>
      </trkpt>
      <trkpt lat="47.57076" lon="6.78669">
        <ele>443</ele>
        <time>2016-04-10T09:00:08.000Z</time>
      </trkpt>
      <trkpt lat="47.57074" lon="6.7867">
        <ele>443</ele>
        <time>2016-04-10T09:00:09.000Z</time>
      </trkpt>
      <trkpt lat="47.57071" lon="6.78671">
        <ele>443</ele>
        <time>2016-04-10T09:00:11.000Z</time>
      </trkpt>
      <trkpt lat="47.57068" lon="6.78671">
        <ele>443</ele>
        <time>2016-04-10T09:00:12.000Z</time>
      </trkpt>
      <trkpt lat="47.57064" lon="6.78671">
        <ele>443</ele>
        <time>2016-04-10T09:00:14.000Z</time>
      </trkpt>
      <trkpt lat="47.57062" lon="6.78671">
        <ele>443</ele>
        <time>2016-04-10T09:00:15.000Z</time>
      </trkpt>
      <trkpt lat="47.57058" lon="6.78671">
        <ele>443</ele>
        <time>2016-04-10T09:00:17.000Z</time>
      </trkpt>
      <trkpt lat="47.57056" lon="6.78671">
        <ele>442</ele>
        <time>2016-04-10T09:00:18.000Z</time>
      </trkpt>
      <trkpt lat="47.57053" lon="6.78672">
        <ele>442</ele>
        <time>2016-04-10T09:00:19.000Z</time>
      </trkpt>
      <trkpt lat="47.57051" lon="6.78673">
        <ele>442</ele>
        <time>2016-04-10T09:00:20.000Z</time>
      </trkpt>
      <trkpt lat="47.57049" lon="6.78673">
        <ele>442</ele>
        <time>2016-04-10T09:00:21.000Z</time>
      </trkpt>
      <trkpt lat="47.57046" lon="6.78674">
        <ele>442</ele>
        <time>2016-04-10T09:00:22.000Z</time>
      </trkpt>
      <trkpt lat="47.57044" lon="6.78675">
        <ele>442</ele>
        <time>2016-04-10T09:00:23.000Z</time>
      </trkpt>
      <trkpt lat="47.57041" lon="6.78676">
        <ele>442</ele>
        <time>2016-04-10T09:00:24.000Z</time>
      </trkpt>
      <trkpt lat="47.57038" lon="6.78677">
        <ele>442</ele>
        <time>2016-04-10T09:00:25.000Z</time>
      </trkpt>
      <trkpt lat="47.57035" lon="6.78678">
        <ele>442</ele>
        <time>2016-04-10T09:00:26.000Z</time>
      </trkpt>
      <trkpt lat="47.57032" lon="6.7868">
        <ele>441</ele>
        <time>2016-04-10T09:00:27.000Z</time>
      </trkpt>
      <trkpt lat="47.57029" lon="6.78681">
        <ele>441</ele>
        <time>2016-04-10T09:00:28.000Z</time>
      </trkpt>
      <trkpt lat="47.57026" lon="6.78682">
        <ele>441</ele>
        <time>2016-04-10T09:00:29.000Z</time>
      </trkpt>
      <trkpt lat="47.57023" lon="6.78682">
        <ele>441</ele>
        <time>2016-04-10T09:00:30.000Z</time>
      </trkpt>
      <trkpt lat="47.5702" lon="6.78683">
        <ele>441</ele>
        <time>2016-04-10T09:00:31.000Z</time>
      </trkpt>
      <trkpt lat="47.57017" lon="6.78684">
        <ele>441</ele>
        <time>2016-04-10T09:00:32.000Z</time>
      </trkpt>
      <trkpt lat="47.57014" lon="6.78684">
        <ele>441</ele>
        <time>2016-04-10T09:00:33.000Z</time>
      </trkpt>
      <trkpt lat="47.57011" lon="6.78685">
        <ele>441</ele>
        <time>2016-04-10T09:00:34.000Z</time>
      </trkpt>
      <trkpt lat="47.57008" lon="6.78685">
        <ele>441</ele>
        <time>2016-04-10T09:00:35.000Z</time>
      </trkpt>
      <trkpt lat="47.57006" lon="6.78684">
        <ele>441</ele>
        <time>2016-04-10T09:00:36.000Z</time>
      </trkpt>
      <trkpt lat="47.57004" lon="6.78681">
        <ele>441</ele>
        <time>2016-04-10T09:00:37.000Z</time>
      </trkpt>
      <trkpt lat="47.57003" lon="6.78678">
        <ele>441</ele>
        <time>2016-04-10T09:00:38.000Z</time>
      </trkpt>
      <trkpt lat="47.57002" lon="6.78674">
        <ele>440</ele>
        <time>2016-04-10T09:00:39.000Z</time>
      </trkpt>
      <trkpt lat="47.57002" lon="6.7867">
        <ele>440</ele>
        <time>2016-04-10T09:00:40.000Z</time>
      </trkpt>
      <trkpt lat="47.57001" lon="6.78666">
        <ele>440</ele>
        <time>2016-04-10T09:00:41.000Z</time>
      </trkpt>
      <trkpt lat="47.57001" lon="6.78661">
        <ele>440</ele>
        <time>2016-04-10T09:00:42.000Z</time>
      </trkpt>
      <trkpt lat="47.57002" lon="6.78656">
        <ele>440</ele>
        <time>2016-04-10T09:00:43.000Z</time>
      </trkpt>
      <trkpt lat="47.57003" lon="6.78651">
        <ele>440</ele>
        <time>2016-04-10T09:00:44.000Z</time>
      </trkpt>
      <trkpt lat="47.57005" lon="6.78646">
        <ele>440</ele>
        <time>2016-04-10T09:00:45.000Z</time>
      </trkpt>
      <trkpt lat="47.57008" lon="6.78641">
        <ele>440</ele>
        <time>2016-04-10T09:00:46.000Z</time>
      </trkpt>
      <trkpt lat="47.57012" lon="6.78635">
        <ele>440</ele>
        <time>2016-04-10T09:00:47.000Z</time>
      </trkpt>
      <trkpt lat="47.57015" lon="6.78629">
        <ele>440</ele>
        <time>2016-04-10T09:00:48.000Z</time>
      </trkpt>
      <trkpt lat="47.57017" lon="6.78622">
        <ele>440</ele>
        <time>2016-04-10T09:00:49.000Z</time>
      </trkpt>
      <trkpt lat="47.57019" lon="6.78615">
        <ele>440</ele>
        <time>2016-04-10T09:00:50.000Z</time>
      </trkpt>
      <trkpt lat="47.5702" lon="6.78608">
        <ele>440</ele>
        <time>2016-04-10T09:00:51.000Z</time>
      </trkpt>
      <trkpt lat="47.5702" lon="6.78602">
        <ele>439</ele>
        <time>2016-04-10T09:00:52.000Z</time>
      </trkpt>
      <trkpt lat="47.57021" lon="6.78596">
        <ele>439</ele>
        <time>2016-04-10T09:00:53.000Z</time>
      </trkpt>
      <trkpt lat="47.57023" lon="6.78591">
        <ele>439</ele>
        <time>2016-04-10T09:00:54.000Z</time>
      </trkpt>
      <trkpt lat="47.57024" lon="6.78587">
        <ele>439</ele>
        <time>2016-04-10T09:00:55.000Z</time>
      </trkpt>
      <trkpt lat="47.57022" lon="6.78581">
        <ele>437</ele>
        <time>2016-04-10T09:00:59.000Z</time>
      </trkpt>
      <trkpt lat="47.5702" lon="6.7858">
        <ele>437</ele>
        <time>2016-04-10T09:01:00.000Z</time>
      </trkpt>
      <trkpt lat="47.57018" lon="6.7858">
        <ele>438</ele>
        <time>2016-04-10T09:01:01.000Z</time>
      </trkpt>
      <trkpt lat="47.57015" lon="6.7858">
        <ele>438</ele>
        <time>2016-04-10T09:01:02.000Z</time>
      </trkpt>
      <trkpt lat="47.57012" lon="6.7858">
        <ele>438</ele>
        <time>2016-04-10T09:01:03.000Z</time>
      </trkpt>
      <trkpt lat="47.57008" lon="6.78578">
        <ele>438</ele>
        <time>2016-04-10T09:01:04.000Z</time>
      </trkpt>
      <trkpt lat="47.57003" lon="6.78577">
        <ele>438</ele>
        <time>2016-04-10T09:01:05.000Z</time>
      </trkpt>
      <trkpt lat="47.56998" lon="6.78575">
        <ele>438</ele>
        <time>2016-04-10T09:01:06.000Z</time>
      </trkpt>
      <trkpt lat="47.56994" lon="6.78573">
        <ele>438</ele>
        <time>2016-04-10T09:01:07.000Z</time>
      </trkpt>
      <trkpt lat="47.5699" lon="6.78572">
        <ele>438</ele>
        <time>2016-04-10T09:01:08.000Z</time>
      </trkpt>
      <trkpt lat="47.56986" lon="6.78572">
        <ele>438</ele>
        <time>2016-04-10T09:01:09.000Z</time>
      </trkpt>
      <trkpt lat="47.56982" lon="6.78572">
        <ele>438</ele>
        <time>2016-04-10T09:01:10.000Z</time>
      </trkpt>
      <trkpt lat="47.56978" lon="6.78573">
        <ele>438</ele>
        <time>2016-04-10T09:01:11.000Z</time>
      </trkpt>
      <trkpt lat="47.56974" lon="6.78573">
        <ele>438</ele>
        <time>2016-04-10T09:01:12.000Z</time>
      </trkpt>
      <trkpt lat="47.5697" lon="6.78573">
        <ele>438</ele>
        <time>2016-04-10T09:01:13.000Z</time>
      </trkpt>
      <trkpt lat="47.56966" lon="6.78573">
        <ele>438</ele>
        <time>2016-04-10T09:01:14.000Z</time>
      </trkpt>
      <trkpt lat="47.56962" lon="6.78573">
        <ele>438</ele>
        <time>2016-04-10T09:01:15.000Z</time>
      </trkpt>
      <trkpt lat="47.56958" lon="6.78573">
        <ele>439</ele>
        <time>2016-04-10T09:01:16.000Z</time>
      </trkpt>
      <trkpt lat="47.56953" lon="6.78572">
        <ele>439</ele>
        <time>2016-04-10T09:01:17.000Z</time>
      </trkpt>
      <trkpt lat="47.56949" lon="6.78571">
        <ele>439</ele>
        <time>2016-04-10T09:01:18.000Z</time>
      </trkpt>
      <trkpt lat="47.56945" lon="6.78569">
        <ele>439</ele>
        <time>2016-04-10T09:01:19.000Z</time>
      </trkpt>
      <trkpt lat="47.56941" lon="6.78568">
        <ele>439</ele>
        <time>2016-04-10T09:01:20.000Z</time>
      </trkpt>
      <trkpt lat="47.56937" lon="6.78568">
        <ele>439</ele>
        <time>2016-04-10T09:01:21.000Z</time>
      </trkpt>
      <trkpt lat="47.56933" lon="6.78568">
        <ele>439</ele>
        <time>2016-04-10T09:01:22.000Z</time>
      </trkpt>
      <trkpt lat="47.56929" lon="6.78567">
        <ele>439</ele>
        <time>2016-04-10T09:01:23.000Z</time>
      </trkpt>
      <trkpt lat="47.56924" lon="6.78567">
        <ele>439</ele>
        <time>2016-04-10T09:01:24.000Z</time>
      </trkpt>
      <trkpt lat="47.5692" lon="6.78567">
        <ele>439</ele>
        <time>2016-04-10T09:01:25.000Z</time>
      </trkpt>
      <trkpt lat="47.56916" lon="6.78567">
        <ele>439</ele>
        <time>2016-04-10T09:01:26.000Z</time>
      </trkpt>
      <trkpt lat="47.56912" lon="6.78566">
        <ele>439</ele>
        <time>2016-04-10T09:01:27.000Z</time>
      </trkpt>
      <trkpt lat="47.56908" lon="6.78565">
        <ele>439</ele>
        <time>2016-04-10T09:01:28.000Z</time>
      </trkpt>
      <trkpt lat="47.56903" lon="6.78563">
        <ele>439</ele>
        <time>2016-04-10T09:01:29.000Z</time>
      </trkpt>
      <trkpt lat="47.56898" lon="6.78562">
        <ele>439</ele>
        <time>2016-04-10T09:01:30.000Z</time>
      </trkpt>
      <trkpt lat="47.56891" lon="6.78565">
        <ele>439</ele>
        <time>2016-04-10T09:01:31.000Z</time>
      </trkpt>
      <trkpt lat="47.56887" lon="6.78564">
        <ele>439</ele>
        <time>2016-04-10T09:01:32.000Z</time>
      </trkpt>
      <trkpt lat="47.56882" lon="6.78563">
        <ele>439</ele>
        <time>2016-04-10T09:01:33.000Z</time>
      </trkpt>
      <trkpt lat="47.56877" lon="6.78564">
        <ele>438</ele>
        <time>2016-04-10T09:01:34.000Z</time>
      </trkpt>
      <trkpt lat="47.56873" lon="6.78564">
        <ele>438</ele>
        <time>2016-04-10T09:01:35.000Z</time>
      </trkpt>
      <trkpt lat="47.56867" lon="6.78562">
        <ele>438</ele>
        <time>2016-04-10T09:01:36.000Z</time>
      </trkpt>
      <trkpt lat="47.56862" lon="6.78561">
        <ele>438</ele>
        <time>2016-04-10T09:01:37.000Z</time>
      </trkpt>
      <trkpt lat="47.56857" lon="6.78562">
        <ele>438</ele>
        <time>2016-04-10T09:01:38.000Z</time>
      </trkpt>
      <trkpt lat="47.56853" lon="6.78563">
        <ele>438</ele>
        <time>2016-04-10T09:01:39.000Z</time>
      </trkpt>
      <trkpt lat="47.56849" lon="6.78563">
        <ele>438</ele>
        <time>2016-04-10T09:01:40.000Z</time>
      </trkpt>
      <trkpt lat="47.56845" lon="6.78564">
        <ele>438</ele>
        <time>2016-04-10T09:01:41.000Z</time>
      </trkpt>
      <trkpt lat="47.56836" lon="6.78562">
        <ele>438</ele>
        <time>2016-04-10T09:01:42.000Z</time>
      </trkpt>
      <trkpt lat="47.56828" lon="6.78562">
        <ele>436</ele>
        <time>2016-04-10T09:01:43.000Z</time>
      </trkpt>
      <trkpt lat="47.56823" lon="6.7856">
        <ele>436</ele>
        <time>2016-04-10T09:01:44.000Z</time>
      </trkpt>
      <trkpt lat="47.56817" lon="6.78558">
        <ele>436</ele>
        <time>2016-04-10T09:01:45.000Z</time>
      </trkpt>
      <trkpt lat="47.56809" lon="6.78557">
        <ele>436</ele>
        <time>2016-04-10T09:01:46.000Z</time>
      </trkpt>
      <trkpt lat="47.56802" lon="6.78557">
        <ele>435</ele>
        <time>2016-04-10T09:01:47.000Z</time>
      </trkpt>
      <trkpt lat="47.56797" lon="6.78557">
        <ele>435</ele>
        <time>2016-04-10T09:01:48.000Z</time>
      </trkpt>
      <trkpt lat="47.56791" lon="6.78557">
        <ele>435</ele>
        <time>2016-04-10T09:01:49.000Z</time>
      </trkpt>
      <trkpt lat="47.56785" lon="6.78555">
        <ele>435</ele>
        <time>2016-04-10T09:01:50.000Z</time>
      </trkpt>
      <trkpt lat="47.56779" lon="6.78554">
        <ele>435</ele>
        <time>2016-04-10T09:01:51.000Z</time>
      </trkpt>
      <trkpt lat="47.56773" lon="6.78556">
        <ele>434</ele>
        <time>2016-04-10T09:01:52.000Z</time>
      </trkpt>
      <trkpt lat="47.56768" lon="6.78558">
        <ele>434</ele>
        <time>2016-04-10T09:01:53.000Z</time>
      </trkpt>
      <trkpt lat="47.56761" lon="6.78558">
        <ele>434</ele>
        <time>2016-04-10T09:01:54.000Z</time>
      </trkpt>
      <trkpt lat="47.56753" lon="6.78558">
        <ele>434</ele>
        <time>2016-04-10T09:01:55.000Z</time>
      </trkpt>
      <trkpt lat="47.56743" lon="6.78556">
        <ele>430</ele>
        <time>2016-04-10T09:01:56.000Z</time>
      </trkpt>
      <trkpt lat="47.56732" lon="6.78554">
        <ele>430</ele>
        <time>2016-04-10T09:01:57.000Z</time>
      </trkpt>
      <trkpt lat="47.56722" lon="6.78554">
        <ele>429</ele>
        <time>2016-04-10T09:01:58.000Z</time>
      </trkpt>
      <trkpt lat="47.56714" lon="6.78553">
        <ele>429</ele>
        <time>2016-04-10T09:01:59.000Z</time>
      </trkpt>
      <trkpt lat="47.56708" lon="6.7855">
        <ele>429</ele>
        <time>2016-04-10T09:02:00.000Z</time>
      </trkpt>
      <trkpt lat="47.56702" lon="6.7855">
        <ele>429</ele>
        <time>2016-04-10T09:02:01.000Z</time>
      </trkpt>
      <trkpt lat="47.56696" lon="6.78552">
        <ele>428</ele>
        <time>2016-04-10T09:02:02.000Z</time>
      </trkpt>
      <trkpt lat="47.56691" lon="6.78552">
        <ele>428</ele>
        <time>2016-04-10T09:02:03.000Z</time>
      </trkpt>
      <trkpt lat="47.56686" lon="6.78554">
        <ele>428</ele>
        <time>2016-04-10T09:02:04.000Z</time>
      </trkpt>
      <trkpt lat="47.5668" lon="6.78555">
        <ele>427</ele>
        <time>2016-04-10T09:02:05.000Z</time>
      </trkpt>
      <trkpt lat="47.56676" lon="6.78555">
        <ele>427</ele>
        <time>2016-04-10T09:02:06.000Z</time>
      </trkpt>
      <trkpt lat="47.56671" lon="6.78553">
        <ele>427</ele>
        <time>2016-04-10T09:02:07.000Z</time>
      </trkpt>
      <trkpt lat="47.56667" lon="6.78552">
        <ele>427</ele>
        <time>2016-04-10T09:02:08.000Z</time>
      </trkpt>
      <trkpt lat="47.56665" lon="6.7855">
        <ele>423</ele>
        <time>2016-04-10T09:02:09.000Z</time>
      </trkpt>
      <trkpt lat="47.56662" lon="6.78549">
        <ele>423</ele>
        <time>2016-04-10T09:02:10.000Z</time>
      </trkpt>
      <trkpt lat="47.5666" lon="6.78548">
        <ele>423</ele>
        <time>2016-04-10T09:02:11.000Z</time>
      </trkpt>
      <trkpt lat="47.56662" lon="6.78544">
        <ele>423</ele>
        <time>2016-04-10T09:02:17.000Z</time>
      </trkpt>
      <trkpt lat="47.56663" lon="6.78543">
        <ele>423</ele>
        <time>2016-04-10T09:02:18.000Z</time>
      </trkpt>
      <trkpt lat="47.56666" lon="6.78539">
        <ele>423</ele>
        <time>2016-04-10T09:02:21.000Z</time>
      </trkpt>
      <trkpt lat="47.56666" lon="6.78538">
        <ele>423</ele>
        <time>2016-04-10T09:02:22.000Z</time>
      </trkpt>
      <trkpt lat="47.56662" lon="6.78535">
        <ele>423</ele>
        <time>2016-04-10T09:03:56.000Z</time>
      </trkpt>
      <trkpt lat="47.56662" lon="6.78535">
        <ele>423</ele>
        <time>2016-04-10T09:03:57.000Z</time>
      </trkpt>
      <trkpt lat="47.56659" lon="6.78539">
        <ele>423</ele>
        <time>2016-04-10T09:04:11.000Z</time>
      </trkpt>
      <trkpt lat="47.56659" lon="6.7854">
        <ele>423</ele>
        <time>2016-04-10T09:04:12.000Z</time>
      </trkpt>
      <trkpt lat="47.56656" lon="6.78544">
        <ele>423</ele>
        <time>2016-04-10T09:04:20.000Z</time>
      </trkpt>
      <trkpt lat="47.56657" lon="6.78547">
        <ele>423</ele>
        <time>2016-04-10T09:04:21.000Z</time>
      </trkpt>
      <trkpt lat="47.56658" lon="6.78551">
        <ele>423</ele>
        <time>2016-04-10T09:04:22.000Z</time>
      </trkpt>
      <trkpt lat="47.5666" lon="6.78554">
        <ele>423</ele>
        <time>2016-04-10T09:04:23.000Z</time>
      </trkpt>
      <trkpt lat="47.56662" lon="6.78557">
        <ele>423</ele>
        <time>2016-04-10T09:04:24.000Z</time>
      </trkpt>
      <trkpt lat="47.56664" lon="6.7856">
        <ele>423</ele>
        <time>2016-04-10T09:04:25.000Z</time>
      </trkpt>
      <trkpt lat="47.56666" lon="6.78562">
        <ele>423</ele>
        <time>2016-04-10T09:04:26.000Z</time>
      </trkpt>
      <trkpt lat="47.56667" lon="6.78565">
        <ele>426</ele>
        <time>2016-04-10T09:04:27.000Z</time>
      </trkpt>
      <trkpt lat="47.56667" lon="6.7857">
        <ele>426</ele>
        <time>2016-04-10T09:04:28.000Z</time>
      </trkpt>
      <trkpt lat="47.56667" lon="6.78574">
        <ele>425</ele>
        <time>2016-04-10T09:04:29.000Z</time>
      </trkpt>
      <trkpt lat="47.56667" lon="6.7858">
        <ele>424</ele>
        <time>2016-04-10T09:04:30.000Z</time>
      </trkpt>
      <trkpt lat="47.56668" lon="6.78586">
        <ele>423</ele>
        <time>2016-04-10T09:04:31.000Z</time>
      </trkpt>
      <trkpt lat="47.56668" lon="6.78591">
        <ele>424</ele>
        <time>2016-04-10T09:04:32.000Z</time>
      </trkpt>
      <trkpt lat="47.56669" lon="6.78598">
        <ele>424</ele>
        <time>2016-04-10T09:04:33.000Z</time>
      </trkpt>
      <trkpt lat="47.5667" lon="6.78604">
        <ele>424</ele>
        <time>2016-04-10T09:04:34.000Z</time>
      </trkpt>
      <trkpt lat="47.56671" lon="6.7861">
        <ele>424</ele>
        <time>2016-04-10T09:04:35.000Z</time>
      </trkpt>
      <trkpt lat="47.56672" lon="6.78617">
        <ele>424</ele>
        <time>2016-04-10T09:04:36.000Z</time>
      </trkpt>
      <trkpt lat="47.56674" lon="6.78624">
        <ele>424</ele>
        <time>2016-04-10T09:04:37.000Z</time>
      </trkpt>
      <trkpt lat="47.56675" lon="6.7863">
        <ele>424</ele>
        <time>2016-04-10T09:04:38.000Z</time>
      </trkpt>
      <trkpt lat="47.56677" lon="6.78636">
        <ele>424</ele>
        <time>2016-04-10T09:04:39.000Z</time>
      </trkpt>
      <trkpt lat="47.56679" lon="6.78642">
        <ele>424</ele>
        <time>2016-04-10T09:04:40.000Z</time>
      </trkpt>
      <trkpt lat="47.56681" lon="6.78648">
        <ele>424</ele>
        <time>2016-04-10T09:04:41.000Z</time>
      </trkpt>
      <trkpt lat="47.56683" lon="6.78653">
        <ele>424</ele>
        <time>2016-04-10T09:04:42.000Z</time>
      </trkpt>
      <trkpt lat="47.56685" lon="6.78659">
        <ele>424</ele>
        <time>2016-04-10T09:04:43.000Z</time>
      </trkpt>
      <trkpt lat="47.56687" lon="6.78664">
        <ele>424</ele>
        <time>2016-04-10T09:04:44.000Z</time>
      </trkpt>
      <trkpt lat="47.56689" lon="6.78669">
        <ele>423</ele>
        <time>2016-04-10T09:04:45.000Z</time>
      </trkpt>
      <trkpt lat="47.56691" lon="6.78675">
        <ele>423</ele>
        <time>2016-04-10T09:04:46.000Z</time>
      </trkpt>
      <trkpt lat="47.56693" lon="6.7868">
        <ele>423</ele>
        <time>2016-04-10T09:04:47.000Z</time>
      </trkpt>
      <trkpt lat="47.56695" lon="6.78686">
        <ele>423</ele>
        <time>2016-04-10T09:04:48.000Z</time>
      </trkpt>
      <trkpt lat="47.56697" lon="6.78692">
        <ele>423</ele>
        <time>2016-04-10T09:04:49.000Z</time>
      </trkpt>
      <trkpt lat="47.56698" lon="6.78698">
        <ele>423</ele>
        <time>2016-04-10T09:04:50.000Z</time>
      </trkpt>
      <trkpt lat="47.567" lon="6.78704">
        <ele>423</ele>
        <time>2016-04-10T09:04:51.000Z</time>
      </trkpt>
      <trkpt lat="47.56702" lon="6.78709">
        <ele>423</ele>
        <time>2016-04-10T09:04:52.000Z</time>
      </trkpt>
      <trkpt lat="47.56703" lon="6.78714">
        <ele>423</ele>
        <time>2016-04-10T09:04:53.000Z</time>
      </trkpt>
      <trkpt lat="47.56705" lon="6.78719">
        <ele>423</ele>
        <time>2016-04-10T09:04:54.000Z</time>
      </trkpt>
      <trkpt lat="47.56707" lon="6.78724">
        <ele>423</ele>
        <time>2016-04-10T09:04:55.000Z</time>
      </trkpt>
      <trkpt lat="47.56709" lon="6.78729">
        <ele>423</ele>
        <time>2016-04-10T09:04:56.000Z</time>
      </trkpt>
      <trkpt lat="47.56712" lon="6.78734">
        <ele>423</ele>
        <time>2016-04-10T09:04:57.000Z</time>
      </trkpt>
      <trkpt lat="47.56714" lon="6.78739">
        <ele>423</ele>
        <time>2016-04-10T09:04:58.000Z</time>
      </trkpt>
      <trkpt lat="47.56718" lon="6.78746">
        <ele>423</ele>
        <time>2016-04-10T09:04:59.000Z</time>
      </trkpt>
      <trkpt lat="47.56721" lon="6.78752">
        <ele>421</ele>
        <time>2016-04-10T09:05:00.000Z</time>
      </trkpt>
      <trkpt lat="47.56724" lon="6.78758">
        <ele>421</ele>
        <time>2016-04-10T09:05:01.000Z</time>
      </trkpt>
      <trkpt lat="47.56726" lon="6.78764">
        <ele>421</ele>
        <time>2016-04-10T09:05:02.000Z</time>
      </trkpt>
      <trkpt lat="47.56728" lon="6.7877">
        <ele>421</ele>
        <time>2016-04-10T09:05:03.000Z</time>
      </trkpt>
      <trkpt lat="47.56731" lon="6.78779">
        <ele>420</ele>
        <time>2016-04-10T09:05:04.000Z</time>
      </trkpt>
      <trkpt lat="47.56734" lon="6.78787">
        <ele>420</ele>
        <time>2016-04-10T09:05:05.000Z</time>
      </trkpt>
      <trkpt lat="47.56736" lon="6.78793">
        <ele>420</ele>
        <time>2016-04-10T09:05:06.000Z</time>
      </trkpt>
      <trkpt lat="47.56738" lon="6.78803">
        <ele>419</ele>
        <time>2016-04-10T09:05:07.000Z</time>
      </trkpt>
      <trkpt lat="47.56739" lon="6.78813">
        <ele>419</ele>
        <time>2016-04-10T09:05:08.000Z</time>
      </trkpt>
      <trkpt lat="47.56742" lon="6.7882">
        <ele>418</ele>
        <time>2016-04-10T09:05:09.000Z</time>
      </trkpt>
      <trkpt lat="47.56744" lon="6.78827">
        <ele>418</ele>
        <time>2016-04-10T09:05:10.000Z</time>
      </trkpt>
      <trkpt lat="47.56746" lon="6.78834">
        <ele>417</ele>
        <time>2016-04-10T09:05:11.000Z</time>
      </trkpt>
      <trkpt lat="47.56749" lon="6.78841">
        <ele>416</ele>
        <time>2016-04-10T09:05:12.000Z</time>
      </trkpt>
      <trkpt lat="47.56752" lon="6.7885">
        <ele>416</ele>
        <time>2016-04-10T09:05:13.000Z</time>
      </trkpt>
      <trkpt lat="47.56756" lon="6.78857">
        <ele>416</ele>
        <time>2016-04-10T09:05:14.000Z</time>
      </trkpt>
      <trkpt lat="47.56759" lon="6.78866">
        <ele>416</ele>
        <time>2016-04-10T09:05:15.000Z</time>
      </trkpt>
      <trkpt lat="47.56762" lon="6.78873">
        <ele>416</ele>
        <time>2016-04-10T09:05:16.000Z</time>
      </trkpt>
      <trkpt lat="47.56764" lon="6.78878">
        <ele>415</ele>
        <time>2016-04-10T09:05:17.000Z</time>
      </trkpt>
      <trkpt lat="47.56769" lon="6.78888">
        <ele>415</ele>
        <time>2016-04-10T09:05:18.000Z</time>
      </trkpt>
      <trkpt lat="47.56772" lon="6.78895">
        <ele>415</ele>
        <time>2016-04-10T09:05:19.000Z</time>
      </trkpt>
      <trkpt lat="47.56776" lon="6.78905">
        <ele>415</ele>
        <time>2016-04-10T09:05:20.000Z</time>
      </trkpt>
      <trkpt lat="47.56779" lon="6.78916">
        <ele>415</ele>
        <time>2016-04-10T09:05:21.000Z</time>
      </trkpt>
      <trkpt lat="47.56782" lon="6.78925">
        <ele>411</ele>
        <time>2016-04-10T09:05:22.000Z</time>
      </trkpt>
      <trkpt lat="47.56786" lon="6.78934">
        <ele>411</ele>
        <time>2016-04-10T09:05:23.000Z</time>
      </trkpt>
      <trkpt lat="47.56788" lon="6.78943">
        <ele>411</ele>
        <time>2016-04-10T09:05:24.000Z</time>
      </trkpt>
      <trkpt lat="47.5679" lon="6.78956">
        <ele>411</ele>
        <time>2016-04-10T09:05:25.000Z</time>
      </trkpt>
      <trkpt lat="47.5679" lon="6.7897">
        <ele>410</ele>
        <time>2016-04-10T09:05:26.000Z</time>
      </trkpt>
      <trkpt lat="47.56789" lon="6.78985">
        <ele>410</ele>
        <time>2016-04-10T09:05:27.000Z</time>
      </trkpt>
      <trkpt lat="47.56787" lon="6.78998">
        <ele>409</ele>
        <time>2016-04-10T09:05:28.000Z</time>
      </trkpt>
      <trkpt lat="47.56784" lon="6.7901">
        <ele>407</ele>
        <time>2016-04-10T09:05:29.000Z</time>
      </trkpt>
      <trkpt lat="47.56783" lon="6.79023">
        <ele>407</ele>
        <time>2016-04-10T09:05:30.000Z</time>
      </trkpt>
      <trkpt lat="47.5678" lon="6.79035">
        <ele>407</ele>
        <time>2016-04-10T09:05:31.000Z</time>
      </trkpt>
      <trkpt lat="47.56776" lon="6.79046">
        <ele>406</ele>
        <time>2016-04-10T09:05:32.000Z</time>
      </trkpt>
      <trkpt lat="47.5677" lon="6.79055">
        <ele>406</ele>
        <time>2016-04-10T09:05:33.000Z</time>
      </trkpt>
      <trkpt lat="47.56764" lon="6.79064">
        <ele>405</ele>
        <time>2016-04-10T09:05:34.000Z</time>
      </trkpt>
      <trkpt lat="47.56757" lon="6.79073">
        <ele>405</ele>
        <time>2016-04-10T09:05:35.000Z</time>
      </trkpt>
      <trkpt lat="47.56752" lon="6.79082">
        <ele>403</ele>
        <time>2016-04-10T09:05:36.000Z</time>
      </trkpt>
      <trkpt lat="47.56747" lon="6.79092">
        <ele>403</ele>
        <time>2016-04-10T09:05:37.000Z</time>
      </trkpt>
      <trkpt lat="47.56741" lon="6.79101">
        <ele>402</ele>
        <time>2016-04-10T09:05:38.000Z</time>
      </trkpt>
      <trkpt lat="47.56736" lon="6.79111">
        <ele>402</ele>
        <time>2016-04-10T09:05:39.000Z</time>
      </trkpt>
      <trkpt lat="47.56732" lon="6.79121">
        <ele>402</ele>
        <time>2016-04-10T09:05:40.000Z</time>
      </trkpt>
      <trkpt lat="47.56728" lon="6.79129">
        <ele>402</ele>
        <time>2016-04-10T09:05:41.000Z</time>
      </trkpt>
      <trkpt lat="47.56723" lon="6.79137">
        <ele>402</ele>
        <time>2016-04-10T09:05:42.000Z</time>
      </trkpt>
      <trkpt lat="47.56718" lon="6.79146">
        <ele>401</ele>
        <time>2016-04-10T09:05:43.000Z</time>
      </trkpt>
      <trkpt lat="47.56714" lon="6.79155">
        <ele>401</ele>
        <time>2016-04-10T09:05:44.000Z</time>
      </trkpt>
      <trkpt lat="47.56705" lon="6.79164">
        <ele>401</ele>
        <time>2016-04-10T09:05:45.000Z</time>
      </trkpt>
      <trkpt lat="47.56698" lon="6.79171">
        <ele>400</ele>
        <time>2016-04-10T09:05:46.000Z</time>
      </trkpt>
      <trkpt lat="47.56691" lon="6.79177">
        <ele>400</ele>
        <time>2016-04-10T09:05:47.000Z</time>
      </trkpt>
      <trkpt lat="47.56685" lon="6.79182">
        <ele>400</ele>
        <time>2016-04-10T09:05:48.000Z</time>
      </trkpt>
      <trkpt lat="47.5668" lon="6.79188">
        <ele>400</ele>
        <time>2016-04-10T09:05:49.000Z</time>
      </trkpt>
      <trkpt lat="47.56674" lon="6.79194">
        <ele>400</ele>
        <time>2016-04-10T09:05:50.000Z</time>
      </trkpt>
      <trkpt lat="47.56668" lon="6.79199">
        <ele>400</ele>
        <time>2016-04-10T09:05:51.000Z</time>
      </trkpt>
      <trkpt lat="47.56661" lon="6.79203">
        <ele>398</ele>
        <time>2016-04-10T09:05:52.000Z</time>
      </trkpt>
      <trkpt lat="47.56655" lon="6.79201">
        <ele>398</ele>
        <time>2016-04-10T09:05:53.000Z</time>
      </trkpt>
      <trkpt lat="47.56651" lon="6.792">
        <ele>398</ele>
        <time>2016-04-10T09:05:54.000Z</time>
      </trkpt>
      <trkpt lat="47.56647" lon="6.79201">
        <ele>398</ele>
        <time>2016-04-10T09:05:55.000Z</time>
      </trkpt>
      <trkpt lat="47.56644" lon="6.792">
        <ele>398</ele>
        <time>2016-04-10T09:05:56.000Z</time>
      </trkpt>
      <trkpt lat="47.5664" lon="6.79199">
        <ele>398</ele>
        <time>2016-04-10T09:05:57.000Z</time>
      </trkpt>
      <trkpt lat="47.56633" lon="6.79199">
        <ele>398</ele>
        <time>2016-04-10T09:05:58.000Z</time>
      </trkpt>
      <trkpt lat="47.56629" lon="6.79199">
        <ele>398</ele>
        <time>2016-04-10T09:05:59.000Z</time>
      </trkpt>
      <trkpt lat="47.56625" lon="6.792">
        <ele>398</ele>
        <time>2016-04-10T09:06:00.000Z</time>
      </trkpt>
      <trkpt lat="47.56622" lon="6.792">
        <ele>398</ele>
        <time>2016-04-10T09:06:01.000Z</time>
      </trkpt>
      <trkpt lat="47.56617" lon="6.79199">
        <ele>398</ele>
        <time>2016-04-10T09:06:02.000Z</time>
      </trkpt>
      <trkpt lat="47.56614" lon="6.79198">
        <ele>398</ele>
        <time>2016-04-10T09:06:03.000Z</time>
      </trkpt>
      <trkpt lat="47.5661" lon="6.79197">
        <ele>398</ele>
        <time>2016-04-10T09:06:04.000Z</time>
      </trkpt>
      <trkpt lat="47.56605" lon="6.79196">
        <ele>399</ele>
        <time>2016-04-10T09:06:05.000Z</time>
      </trkpt>
      <trkpt lat="47.56601" lon="6.79194">
        <ele>399</ele>
        <time>2016-04-10T09:06:06.000Z</time>
      </trkpt>
      <trkpt lat="47.56598" lon="6.79193">
        <ele>399</ele>
        <time>2016-04-10T09:06:07.000Z</time>
      </trkpt>
      <trkpt lat="47.56594" lon="6.79192">
        <ele>399</ele>
        <time>2016-04-10T09:06:08.000Z</time>
      </trkpt>
      <trkpt lat="47.5659" lon="6.79191">
        <ele>399</ele>
        <time>2016-04-10T09:06:09.000Z</time>
      </trkpt>
      <trkpt lat="47.56587" lon="6.7919">
        <ele>399</ele>
        <time>2016-04-10T09:06:10.000Z</time>
      </trkpt>
      <trkpt lat="47.56583" lon="6.7919">
        <ele>399</ele>
        <time>2016-04-10T09:06:11.000Z</time>
      </trkpt>
      <trkpt lat="47.56579" lon="6.79189">
        <ele>399</ele>
        <time>2016-04-10T09:06:12.000Z</time>
      </trkpt>
      <trkpt lat="47.56574" lon="6.79188">
        <ele>399</ele>
        <time>2016-04-10T09:06:13.000Z</time>
      </trkpt>
      <trkpt lat="47.56569" lon="6.79186">
        <ele>399</ele>
        <time>2016-04-10T09:06:14.000Z</time>
      </trkpt>
      <trkpt lat="47.56564" lon="6.79184">
        <ele>399</ele>
        <time>2016-04-10T09:06:15.000Z</time>
      </trkpt>
      <trkpt lat="47.56559" lon="6.79183">
        <ele>398</ele>
        <time>2016-04-10T09:06:16.000Z</time>
      </trkpt>
      <trkpt lat="47.56554" lon="6.79181">
        <ele>398</ele>
        <time>2016-04-10T09:06:17.000Z</time>
      </trkpt>
      <trkpt lat="47.56544" lon="6.79178">
        <ele>398</ele>
        <time>2016-04-10T09:06:18.000Z</time>
      </trkpt>
      <trkpt lat="47.56539" lon="6.79176">
        <ele>398</ele>
        <time>2016-04-10T09:06:19.000Z</time>
      </trkpt>
      <trkpt lat="47.56534" lon="6.79173">
        <ele>398</ele>
        <time>2016-04-10T09:06:20.000Z</time>
      </trkpt>
      <trkpt lat="47.56528" lon="6.7917">
        <ele>398</ele>
        <time>2016-04-10T09:06:21.000Z</time>
      </trkpt>
      <trkpt lat="47.56523" lon="6.79168">
        <ele>398</ele>
        <time>2016-04-10T09:06:22.000Z</time>
      </trkpt>
      <trkpt lat="47.56516" lon="6.79169">
        <ele>398</ele>
        <time>2016-04-10T09:06:23.000Z</time>
      </trkpt>
      <trkpt lat="47.56509" lon="6.79166">
        <ele>400</ele>
        <time>2016-04-10T09:06:24.000Z</time>
      </trkpt>
      <trkpt lat="47.56501" lon="6.7916">
        <ele>400</ele>
        <time>2016-04-10T09:06:25.000Z</time>
      </trkpt>
      <trkpt lat="47.56494" lon="6.79158">
        <ele>400</ele>
        <time>2016-04-10T09:06:26.000Z</time>
      </trkpt>
      <trkpt lat="47.56489" lon="6.79156">
        <ele>400</ele>
        <time>2016-04-10T09:06:27.000Z</time>
      </trkpt>
      <trkpt lat="47.56483" lon="6.79153">
        <ele>400</ele>
        <time>2016-04-10T09:06:28.000Z</time>
      </trkpt>
      <trkpt lat="47.56476" lon="6.79152">
        <ele>400</ele>
        <time>2016-04-10T09:06:29.000Z</time>
      </trkpt>
      <trkpt lat="47.5647" lon="6.7915">
        <ele>400</ele>
        <time>2016-04-10T09:06:30.000Z</time>
      </trkpt>
      <trkpt lat="47.56462" lon="6.7915">
        <ele>400</ele>
        <time>2016-04-10T09:06:31.000Z</time>
      </trkpt>
      <trkpt lat="47.56455" lon="6.79147">
        <ele>400</ele>
        <time>2016-04-10T09:06:32.000Z</time>
      </trkpt>
      <trkpt lat="47.56444" lon="6.79146">
        <ele>399</ele>
        <time>2016-04-10T09:06:33.000Z</time>
      </trkpt>
      <trkpt lat="47.5644" lon="6.79146">
        <ele>399</ele>
        <time>2016-04-10T09:06:34.000Z</time>
      </trkpt>
      <trkpt lat="47.56438" lon="6.79151">
        <ele>399</ele>
        <time>2016-04-10T09:06:35.000Z</time>
      </trkpt>
      <trkpt lat="47.56435" lon="6.79154">
        <ele>399</ele>
        <time>2016-04-10T09:06:36.000Z</time>
      </trkpt>
      <trkpt lat="47.56432" lon="6.79156">
        <ele>399</ele>
        <time>2016-04-10T09:06:37.000Z</time>
      </trkpt>
      <trkpt lat="47.56431" lon="6.79158">
        <ele>399</ele>
        <time>2016-04-10T09:06:38.000Z</time>
      </trkpt>
      <trkpt lat="47.5643" lon="6.79165">
        <ele>398</ele>
        <time>2016-04-10T09:06:39.000Z</time>
      </trkpt>
      <trkpt lat="47.5643" lon="6.7917">
        <ele>397</ele>
        <time>2016-04-10T09:06:40.000Z</time>
      </trkpt>
      <trkpt lat="47.5643" lon="6.79177">
        <ele>397</ele>
        <time>2016-04-10T09:06:41.000Z</time>
      </trkpt>
      <trkpt lat="47.5643" lon="6.79183">
        <ele>397</ele>
        <time>2016-04-10T09:06:42.000Z</time>
      </trkpt>
      <trkpt lat="47.56428" lon="6.7919">
        <ele>397</ele>
        <time>2016-04-10T09:06:43.000Z</time>
      </trkpt>
      <trkpt lat="47.56428" lon="6.79196">
        <ele>397</ele>
        <time>2016-04-10T09:06:44.000Z</time>
      </trkpt>
      <trkpt lat="47.56427" lon="6.79202">
        <ele>396</ele>
        <time>2016-04-10T09:06:45.000Z</time>
      </trkpt>
      <trkpt lat="47.56426" lon="6.79208">
        <ele>396</ele>
        <time>2016-04-10T09:06:46.000Z</time>
      </trkpt>
      <trkpt lat="47.56425" lon="6.79215">
        <ele>396</ele>
        <time>2016-04-10T09:06:47.000Z</time>
      </trkpt>
      <trkpt lat="47.56426" lon="6.79228">
        <ele>396</ele>
        <time>2016-04-10T09:06:48.000Z</time>
      </trkpt>
      <trkpt lat="47.56427" lon="6.79235">
        <ele>396</ele>
        <time>2016-04-10T09:06:49.000Z</time>
      </trkpt>
      <trkpt lat="47.56428" lon="6.7924">
        <ele>396</ele>
        <time>2016-04-10T09:06:50.000Z</time>
      </trkpt>
      <trkpt lat="47.56429" lon="6.79248">
        <ele>396</ele>
        <time>2016-04-10T09:06:51.000Z</time>
      </trkpt>
      <trkpt lat="47.56429" lon="6.79257">
        <ele>394</ele>
        <time>2016-04-10T09:06:52.000Z</time>
      </trkpt>
      <trkpt lat="47.5643" lon="6.79266">
        <ele>394</ele>
        <time>2016-04-10T09:06:53.000Z</time>
      </trkpt>
      <trkpt lat="47.56432" lon="6.79276">
        <ele>394</ele>
        <time>2016-04-10T09:06:54.000Z</time>
      </trkpt>
      <trkpt lat="47.56432" lon="6.79287">
        <ele>393</ele>
        <time>2016-04-10T09:06:55.000Z</time>
      </trkpt>
      <trkpt lat="47.56432" lon="6.79299">
        <ele>393</ele>
        <time>2016-04-10T09:06:56.000Z</time>
      </trkpt>
      <trkpt lat="47.56431" lon="6.79309">
        <ele>393</ele>
        <time>2016-04-10T09:06:57.000Z</time>
      </trkpt>
      <trkpt lat="47.56433" lon="6.7932">
        <ele>392</ele>
        <time>2016-04-10T09:06:58.000Z</time>
      </trkpt>
      <trkpt lat="47.56434" lon="6.7933">
        <ele>392</ele>
        <time>2016-04-10T09:06:59.000Z</time>
      </trkpt>
      <trkpt lat="47.56433" lon="6.79341">
        <ele>390</ele>
        <time>2016-04-10T09:07:00.000Z</time>
      </trkpt>
      <trkpt lat="47.56433" lon="6.7935">
        <ele>390</ele>
        <time>2016-04-10T09:07:01.000Z</time>
      </trkpt>
      <trkpt lat="47.56434" lon="6.79361">
        <ele>390</ele>
        <time>2016-04-10T09:07:02.000Z</time>
      </trkpt>
      <trkpt lat="47.56435" lon="6.79371">
        <ele>390</ele>
        <time>2016-04-10T09:07:03.000Z</time>
      </trkpt>
      <trkpt lat="47.56434" lon="6.7938">
        <ele>389</ele>
        <time>2016-04-10T09:07:04.000Z</time>
      </trkpt>
      <trkpt lat="47.56434" lon="6.79389">
        <ele>389</ele>
        <time>2016-04-10T09:07:05.000Z</time>
      </trkpt>
      <trkpt lat="47.56435" lon="6.79401">
        <ele>389</ele>
        <time>2016-04-10T09:07:06.000Z</time>
      </trkpt>
      <trkpt lat="47.56433" lon="6.79412">
        <ele>388</ele>
        <time>2016-04-10T09:07:07.000Z</time>
      </trkpt>
      <trkpt lat="47.56431" lon="6.79423">
        <ele>386</ele>
        <time>2016-04-10T09:07:08.000Z</time>
      </trkpt>
      <trkpt lat="47.56428" lon="6.79433">
        <ele>386</ele>
        <time>2016-04-10T09:07:09.000Z</time>
      </trkpt>
      <trkpt lat="47.56427" lon="6.79444">
        <ele>386</ele>
        <time>2016-04-10T09:07:10.000Z</time>
      </trkpt>
      <trkpt lat="47.56426" lon="6.79452">
        <ele>386</ele>
        <time>2016-04-10T09:07:11.000Z</time>
      </trkpt>
      <trkpt lat="47.56425" lon="6.7946">
        <ele>385</ele>
        <time>2016-04-10T09:07:12.000Z</time>
      </trkpt>
      <trkpt lat="47.56425" lon="6.79469">
        <ele>385</ele>
        <time>2016-04-10T09:07:13.000Z</time>
      </trkpt>
      <trkpt lat="47.56424" lon="6.79479">
        <ele>385</ele>
        <time>2016-04-10T09:07:14.000Z</time>
      </trkpt>
      <trkpt lat="47.56424" lon="6.79485">
        <ele>384</ele>
        <time>2016-04-10T09:07:15.000Z</time>
      </trkpt>
      <trkpt lat="47.56423" lon="6.79494">
        <ele>384</ele>
        <time>2016-04-10T09:07:16.000Z</time>
      </trkpt>
      <trkpt lat="47.56423" lon="6.79502">
        <ele>383</ele>
        <time>2016-04-10T09:07:17.000Z</time>
      </trkpt>
      <trkpt lat="47.56425" lon="6.79512">
        <ele>383</ele>
        <time>2016-04-10T09:07:18.000Z</time>
      </trkpt>
      <trkpt lat="47.56426" lon="6.79519">
        <ele>383</ele>
        <time>2016-04-10T09:07:19.000Z</time>
      </trkpt>
      <trkpt lat="47.56427" lon="6.79526">
        <ele>383</ele>
        <time>2016-04-10T09:07:20.000Z</time>
      </trkpt>
      <trkpt lat="47.56427" lon="6.79532">
        <ele>383</ele>
        <time>2016-04-10T09:07:21.000Z</time>
      </trkpt>
      <trkpt lat="47.56428" lon="6.79541">
        <ele>383</ele>
        <time>2016-04-10T09:07:22.000Z</time>
      </trkpt>
      <trkpt lat="47.5643" lon="6.79554">
        <ele>384</ele>
        <time>2016-04-10T09:07:23.000Z</time>
      </trkpt>
      <trkpt lat="47.56429" lon="6.79564">
        <ele>384</ele>
        <time>2016-04-10T09:07:24.000Z</time>
      </trkpt>
      <trkpt lat="47.56427" lon="6.79573">
        <ele>384</ele>
        <time>2016-04-10T09:07:25.000Z</time>
      </trkpt>
      <trkpt lat="47.56424" lon="6.79579">
        <ele>384</ele>
        <time>2016-04-10T09:07:26.000Z</time>
      </trkpt>
      <trkpt lat="47.56422" lon="6.79585">
        <ele>384</ele>
        <time>2016-04-10T09:07:27.000Z</time>
      </trkpt>
      <trkpt lat="47.56419" lon="6.79592">
        <ele>384</ele>
        <time>2016-04-10T09:07:28.000Z</time>
      </trkpt>
      <trkpt lat="47.56417" lon="6.79595">
        <ele>384</ele>
        <time>2016-04-10T09:07:29.000Z</time>
      </trkpt>
      <trkpt lat="47.56415" lon="6.79599">
        <ele>385</ele>
        <time>2016-04-10T09:07:30.000Z</time>
      </trkpt>
      <trkpt lat="47.56412" lon="6.79602">
        <ele>386</ele>
        <time>2016-04-10T09:07:31.000Z</time>
      </trkpt>
      <trkpt lat="47.56406" lon="6.79604">
        <ele>386</ele>
        <time>2016-04-10T09:07:32.000Z</time>
      </trkpt>
      <trkpt lat="47.56401" lon="6.79604">
        <ele>386</ele>
        <time>2016-04-10T09:07:33.000Z</time>
      </trkpt>
      <trkpt lat="47.56396" lon="6.79606">
        <ele>386</ele>
        <time>2016-04-10T09:07:34.000Z</time>
      </trkpt>
      <trkpt lat="47.56393" lon="6.79607">
        <ele>386</ele>
        <time>2016-04-10T09:07:35.000Z</time>
      </trkpt>
      <trkpt lat="47.5639" lon="6.79608">
        <ele>386</ele>
        <time>2016-04-10T09:07:36.000Z</time>
      </trkpt>
      <trkpt lat="47.56387" lon="6.79608">
        <ele>387</ele>
        <time>2016-04-10T09:07:37.000Z</time>
      </trkpt>
      <trkpt lat="47.56384" lon="6.79609">
        <ele>387</ele>
        <time>2016-04-10T09:07:38.000Z</time>
      </trkpt>
      <trkpt lat="47.56382" lon="6.79609">
        <ele>387</ele>
        <time>2016-04-10T09:07:39.000Z</time>
      </trkpt>
      <trkpt lat="47.56379" lon="6.79609">
        <ele>387</ele>
        <time>2016-04-10T09:07:40.000Z</time>
      </trkpt>
      <trkpt lat="47.56375" lon="6.79609">
        <ele>387</ele>
        <time>2016-04-10T09:07:42.000Z</time>
      </trkpt>
      <trkpt lat="47.56373" lon="6.79609">
        <ele>387</ele>
        <time>2016-04-10T09:07:43.000Z</time>
      </trkpt>
      <trkpt lat="47.56369" lon="6.7961">
        <ele>387</ele>
        <time>2016-04-10T09:07:45.000Z</time>
      </trkpt>
      <trkpt lat="47.56366" lon="6.79611">
        <ele>387</ele>
        <time>2016-04-10T09:07:46.000Z</time>
      </trkpt>
      <trkpt lat="47.56363" lon="6.79611">
        <ele>388</ele>
        <time>2016-04-10T09:07:47.000Z</time>
      </trkpt>
      <trkpt lat="47.56361" lon="6.79612">
        <ele>388</ele>
        <time>2016-04-10T09:07:48.000Z</time>
      </trkpt>
      <trkpt lat="47.56358" lon="6.79613">
        <ele>388</ele>
        <time>2016-04-10T09:07:49.000Z</time>
      </trkpt>
      <trkpt lat="47.56356" lon="6.79613">
        <ele>388</ele>
        <time>2016-04-10T09:07:50.000Z</time>
      </trkpt>
      <trkpt lat="47.56351" lon="6.79614">
        <ele>388</ele>
        <time>2016-04-10T09:07:52.000Z</time>
      </trkpt>
      <trkpt lat="47.56349" lon="6.79614">
        <ele>388</ele>
        <time>2016-04-10T09:07:53.000Z</time>
      </trkpt>
      <trkpt lat="47.56346" lon="6.79615">
        <ele>388</ele>
        <time>2016-04-10T09:07:54.000Z</time>
      </trkpt>
      <trkpt lat="47.56343" lon="6.79616">
        <ele>388</ele>
        <time>2016-04-10T09:07:55.000Z</time>
      </trkpt>
      <trkpt lat="47.5634" lon="6.79617">
        <ele>388</ele>
        <time>2016-04-10T09:07:56.000Z</time>
      </trkpt>
      <trkpt lat="47.56337" lon="6.79617">
        <ele>388</ele>
        <time>2016-04-10T09:07:57.000Z</time>
      </trkpt>
      <trkpt lat="47.56334" lon="6.79618">
        <ele>388</ele>
        <time>2016-04-10T09:07:58.000Z</time>
      </trkpt>
      <trkpt lat="47.56331" lon="6.79618">
        <ele>390</ele>
        <time>2016-04-10T09:07:59.000Z</time>
      </trkpt>
      <trkpt lat="47.56328" lon="6.79618">
        <ele>390</ele>
        <time>2016-04-10T09:08:00.000Z</time>
      </trkpt>
      <trkpt lat="47.56325" lon="6.79619">
        <ele>390</ele>
        <time>2016-04-10T09:08:01.000Z</time>
      </trkpt>
      <trkpt lat="47.56322" lon="6.7962">
        <ele>390</ele>
        <time>2016-04-10T09:08:02.000Z</time>
      </trkpt>
      <trkpt lat="47.56319" lon="6.7962">
        <ele>390</ele>
        <time>2016-04-10T09:08:03.000Z</time>
      </trkpt>
      <trkpt lat="47.56317" lon="6.7962">
        <ele>390</ele>
        <time>2016-04-10T09:08:04.000Z</time>
      </trkpt>
      <trkpt lat="47.56314" lon="6.79621">
        <ele>390</ele>
        <time>2016-04-10T09:08:05.000Z</time>
      </trkpt>
      <trkpt lat="47.56311" lon="6.79621">
        <ele>390</ele>
        <time>2016-04-10T09:08:06.000Z</time>
      </trkpt>
      <trkpt lat="47.56307" lon="6.79621">
        <ele>390</ele>
        <time>2016-04-10T09:08:07.000Z</time>
      </trkpt>
      <trkpt lat="47.56302" lon="6.79621">
        <ele>391</ele>
        <time>2016-04-10T09:08:08.000Z</time>
      </trkpt>
      <trkpt lat="47.56298" lon="6.7962">
        <ele>391</ele>
        <time>2016-04-10T09:08:09.000Z</time>
      </trkpt>
      <trkpt lat="47.56294" lon="6.7962">
        <ele>391</ele>
        <time>2016-04-10T09:08:10.000Z</time>
      </trkpt>
      <trkpt lat="47.56291" lon="6.7962">
        <ele>391</ele>
        <time>2016-04-10T09:08:11.000Z</time>
      </trkpt>
      <trkpt lat="47.56287" lon="6.79623">
        <ele>391</ele>
        <time>2016-04-10T09:08:13.000Z</time>
      </trkpt>
      <trkpt lat="47.56286" lon="6.79627">
        <ele>390</ele>
        <time>2016-04-10T09:08:14.000Z</time>
      </trkpt>
      <trkpt lat="47.56285" lon="6.79633">
        <ele>390</ele>
        <time>2016-04-10T09:08:15.000Z</time>
      </trkpt>
      <trkpt lat="47.56285" lon="6.7964">
        <ele>390</ele>
        <time>2016-04-10T09:08:16.000Z</time>
      </trkpt>
      <trkpt lat="47.56285" lon="6.79648">
        <ele>390</ele>
        <time>2016-04-10T09:08:17.000Z</time>
      </trkpt>
      <trkpt lat="47.56287" lon="6.79668">
        <ele>388</ele>
        <time>2016-04-10T09:08:18.000Z</time>
      </trkpt>
      <trkpt lat="47.56286" lon="6.79676">
        <ele>388</ele>
        <time>2016-04-10T09:08:19.000Z</time>
      </trkpt>
      <trkpt lat="47.56287" lon="6.79683">
        <ele>388</ele>
        <time>2016-04-10T09:08:20.000Z</time>
      </trkpt>
      <trkpt lat="47.56286" lon="6.79692">
        <ele>388</ele>
        <time>2016-04-10T09:08:21.000Z</time>
      </trkpt>
      <trkpt lat="47.56285" lon="6.79699">
        <ele>388</ele>
        <time>2016-04-10T09:08:22.000Z</time>
      </trkpt>
      <trkpt lat="47.56285" lon="6.79707">
        <ele>388</ele>
        <time>2016-04-10T09:08:23.000Z</time>
      </trkpt>
      <trkpt lat="47.56285" lon="6.79714">
        <ele>387</ele>
        <time>2016-04-10T09:08:24.000Z</time>
      </trkpt>
      <trkpt lat="47.56285" lon="6.79724">
        <ele>387</ele>
        <time>2016-04-10T09:08:25.000Z</time>
      </trkpt>
      <trkpt lat="47.56284" lon="6.79734">
        <ele>387</ele>
        <time>2016-04-10T09:08:26.000Z</time>
      </trkpt>
      <trkpt lat="47.56284" lon="6.79741">
        <ele>387</ele>
        <time>2016-04-10T09:08:27.000Z</time>
      </trkpt>
      <trkpt lat="47.56283" lon="6.79747">
        <ele>387</ele>
        <time>2016-04-10T09:08:28.000Z</time>
      </trkpt>
      <trkpt lat="47.56282" lon="6.79755">
        <ele>386</ele>
        <time>2016-04-10T09:08:29.000Z</time>
      </trkpt>
      <trkpt lat="47.5628" lon="6.79762">
        <ele>386</ele>
        <time>2016-04-10T09:08:30.000Z</time>
      </trkpt>
      <trkpt lat="47.56278" lon="6.7977">
        <ele>386</ele>
        <time>2016-04-10T09:08:31.000Z</time>
      </trkpt>
      <trkpt lat="47.56276" lon="6.79777">
        <ele>385</ele>
        <time>2016-04-10T09:08:32.000Z</time>
      </trkpt>
      <trkpt lat="47.56276" lon="6.79791">
        <ele>385</ele>
        <time>2016-04-10T09:08:33.000Z</time>
      </trkpt>
      <trkpt lat="47.56274" lon="6.798">
        <ele>385</ele>
        <time>2016-04-10T09:08:34.000Z</time>
      </trkpt>
      <trkpt lat="47.56274" lon="6.79808">
        <ele>385</ele>
        <time>2016-04-10T09:08:35.000Z</time>
      </trkpt>
      <trkpt lat="47.56273" lon="6.79813">
        <ele>385</ele>
        <time>2016-04-10T09:08:36.000Z</time>
      </trkpt>
      <trkpt lat="47.56273" lon="6.7982">
        <ele>385</ele>
        <time>2016-04-10T09:08:37.000Z</time>
      </trkpt>
      <trkpt lat="47.56272" lon="6.79828">
        <ele>385</ele>
        <time>2016-04-10T09:08:38.000Z</time>
      </trkpt>
      <trkpt lat="47.56272" lon="6.79836">
        <ele>384</ele>
        <time>2016-04-10T09:08:39.000Z</time>
      </trkpt>
      <trkpt lat="47.56274" lon="6.79843">
        <ele>384</ele>
        <time>2016-04-10T09:08:40.000Z</time>
      </trkpt>
      <trkpt lat="47.56274" lon="6.79852">
        <ele>384</ele>
        <time>2016-04-10T09:08:41.000Z</time>
      </trkpt>
      <trkpt lat="47.5627" lon="6.79861">
        <ele>384</ele>
        <time>2016-04-10T09:08:42.000Z</time>
      </trkpt>
      <trkpt lat="47.56267" lon="6.79869">
        <ele>383</ele>
        <time>2016-04-10T09:08:43.000Z</time>
      </trkpt>
      <trkpt lat="47.56266" lon="6.79876">
        <ele>383</ele>
        <time>2016-04-10T09:08:44.000Z</time>
      </trkpt>
      <trkpt lat="47.56267" lon="6.79884">
        <ele>383</ele>
        <time>2016-04-10T09:08:45.000Z</time>
      </trkpt>
      <trkpt lat="47.56267" lon="6.79891">
        <ele>383</ele>
        <time>2016-04-10T09:08:46.000Z</time>
      </trkpt>
      <trkpt lat="47.56266" lon="6.79898">
        <ele>383</ele>
        <time>2016-04-10T09:08:47.000Z</time>
      </trkpt>
      <trkpt lat="47.56266" lon="6.79905">
        <ele>383</ele>
        <time>2016-04-10T09:08:48.000Z</time>
      </trkpt>
      <trkpt lat="47.56266" lon="6.79913">
        <ele>383</ele>
        <time>2016-04-10T09:08:49.000Z</time>
      </trkpt>
      <trkpt lat="47.56265" lon="6.7992">
        <ele>382</ele>
        <time>2016-04-10T09:08:50.000Z</time>
      </trkpt>
      <trkpt lat="47.56264" lon="6.79928">
        <ele>382</ele>
        <time>2016-04-10T09:08:51.000Z</time>
      </trkpt>
      <trkpt lat="47.56264" lon="6.79935">
        <ele>381</ele>
        <time>2016-04-10T09:08:52.000Z</time>
      </trkpt>
      <trkpt lat="47.56263" lon="6.79942">
        <ele>381</ele>
        <time>2016-04-10T09:08:53.000Z</time>
      </trkpt>
      <trkpt lat="47.56264" lon="6.79956">
        <ele>380</ele>
        <time>2016-04-10T09:08:54.000Z</time>
      </trkpt>
      <trkpt lat="47.56263" lon="6.79964">
        <ele>380</ele>
        <time>2016-04-10T09:08:55.000Z</time>
      </trkpt>
      <trkpt lat="47.56262" lon="6.7997">
        <ele>380</ele>
        <time>2016-04-10T09:08:56.000Z</time>
      </trkpt>
      <trkpt lat="47.56262" lon="6.79975">
        <ele>380</ele>
        <time>2016-04-10T09:08:57.000Z</time>
      </trkpt>
      <trkpt lat="47.56262" lon="6.79983">
        <ele>380</ele>
        <time>2016-04-10T09:08:58.000Z</time>
      </trkpt>
      <trkpt lat="47.56261" lon="6.79988">
        <ele>380</ele>
        <time>2016-04-10T09:08:59.000Z</time>
      </trkpt>
      <trkpt lat="47.5626" lon="6.79996">
        <ele>380</ele>
        <time>2016-04-10T09:09:00.000Z</time>
      </trkpt>
      <trkpt lat="47.56258" lon="6.79999">
        <ele>380</ele>
        <time>2016-04-10T09:09:01.000Z</time>
      </trkpt>
      <trkpt lat="47.56255" lon="6.80004">
        <ele>380</ele>
        <time>2016-04-10T09:09:02.000Z</time>
      </trkpt>
      <trkpt lat="47.56254" lon="6.80009">
        <ele>380</ele>
        <time>2016-04-10T09:09:03.000Z</time>
      </trkpt>
      <trkpt lat="47.56249" lon="6.8002">
        <ele>380</ele>
        <time>2016-04-10T09:09:04.000Z</time>
      </trkpt>
      <trkpt lat="47.56248" lon="6.80026">
        <ele>380</ele>
        <time>2016-04-10T09:09:05.000Z</time>
      </trkpt>
      <trkpt lat="47.56247" lon="6.80033">
        <ele>380</ele>
        <time>2016-04-10T09:09:06.000Z</time>
      </trkpt>
      <trkpt lat="47.56247" lon="6.8004">
        <ele>380</ele>
        <time>2016-04-10T09:09:07.000Z</time>
      </trkpt>
      <trkpt lat="47.56246" lon="6.80048">
        <ele>379</ele>
        <time>2016-04-10T09:09:08.000Z</time>
      </trkpt>
      <trkpt lat="47.56247" lon="6.80055">
        <ele>379</ele>
        <time>2016-04-10T09:09:09.000Z</time>
      </trkpt>
      <trkpt lat="47.56245" lon="6.80062">
        <ele>379</ele>
        <time>2016-04-10T09:09:10.000Z</time>
      </trkpt>
      <trkpt lat="47.56246" lon="6.80068">
        <ele>379</ele>
        <time>2016-04-10T09:09:11.000Z</time>
      </trkpt>
      <trkpt lat="47.56247" lon="6.80077">
        <ele>379</ele>
        <time>2016-04-10T09:09:12.000Z</time>
      </trkpt>
      <trkpt lat="47.56246" lon="6.80085">
        <ele>379</ele>
        <time>2016-04-10T09:09:13.000Z</time>
      </trkpt>
      <trkpt lat="47.56246" lon="6.80094">
        <ele>379</ele>
        <time>2016-04-10T09:09:14.000Z</time>
      </trkpt>
      <trkpt lat="47.56245" lon="6.801">
        <ele>379</ele>
        <time>2016-04-10T09:09:15.000Z</time>
      </trkpt>
      <trkpt lat="47.56247" lon="6.80106">
        <ele>379</ele>
        <time>2016-04-10T09:09:16.000Z</time>
      </trkpt>
      <trkpt lat="47.56247" lon="6.8011">
        <ele>379</ele>
        <time>2016-04-10T09:09:18.000Z</time>
      </trkpt>
      <trkpt lat="47.56249" lon="6.80112">
        <ele>379</ele>
        <time>2016-04-10T09:09:19.000Z</time>
      </trkpt>
      <trkpt lat="47.56251" lon="6.80116">
        <ele>379</ele>
        <time>2016-04-10T09:09:20.000Z</time>
      </trkpt>
      <trkpt lat="47.56253" lon="6.80118">
        <ele>379</ele>
        <time>2016-04-10T09:09:21.000Z</time>
      </trkpt>
      <trkpt lat="47.56257" lon="6.8012">
        <ele>379</ele>
        <time>2016-04-10T09:09:23.000Z</time>
      </trkpt>
      <trkpt lat="47.5626" lon="6.80121">
        <ele>379</ele>
        <time>2016-04-10T09:09:24.000Z</time>
      </trkpt>
      <trkpt lat="47.56262" lon="6.80122">
        <ele>379</ele>
        <time>2016-04-10T09:09:25.000Z</time>
      </trkpt>
      <trkpt lat="47.56265" lon="6.80123">
        <ele>379</ele>
        <time>2016-04-10T09:09:26.000Z</time>
      </trkpt>
      <trkpt lat="47.56268" lon="6.80122">
        <ele>379</ele>
        <time>2016-04-10T09:09:27.000Z</time>
      </trkpt>
      <trkpt lat="47.56271" lon="6.8012">
        <ele>379</ele>
        <time>2016-04-10T09:09:28.000Z</time>
      </trkpt>
      <trkpt lat="47.56274" lon="6.80117">
        <ele>379</ele>
        <time>2016-04-10T09:09:29.000Z</time>
      </trkpt>
      <trkpt lat="47.56279" lon="6.80117">
        <ele>379</ele>
        <time>2016-04-10T09:09:30.000Z</time>
      </trkpt>
      <trkpt lat="47.56281" lon="6.80118">
        <ele>379</ele>
        <time>2016-04-10T09:09:31.000Z</time>
      </trkpt>
      <trkpt lat="47.56286" lon="6.80118">
        <ele>379</ele>
        <time>2016-04-10T09:09:32.000Z</time>
      </trkpt>
      <trkpt lat="47.56289" lon="6.80117">
        <ele>379</ele>
        <time>2016-04-10T09:09:33.000Z</time>
      </trkpt>
      <trkpt lat="47.56293" lon="6.80116">
        <ele>379</ele>
        <time>2016-04-10T09:09:34.000Z</time>
      </trkpt>
      <trkpt lat="47.56296" lon="6.80114">
        <ele>379</ele>
        <time>2016-04-10T09:09:35.000Z</time>
      </trkpt>
      <trkpt lat="47.563" lon="6.80112">
        <ele>379</ele>
        <time>2016-04-10T09:09:36.000Z</time>
      </trkpt>
      <trkpt lat="47.56302" lon="6.80111">
        <ele>379</ele>
        <time>2016-04-10T09:09:37.000Z</time>
      </trkpt>
      <trkpt lat="47.56305" lon="6.80108">
        <ele>378</ele>
        <time>2016-04-10T09:09:38.000Z</time>
      </trkpt>
      <trkpt lat="47.56308" lon="6.80107">
        <ele>378</ele>
        <time>2016-04-10T09:09:39.000Z</time>
      </trkpt>
      <trkpt lat="47.56311" lon="6.80106">
        <ele>378</ele>
        <time>2016-04-10T09:09:40.000Z</time>
      </trkpt>
      <trkpt lat="47.56313" lon="6.80105">
        <ele>378</ele>
        <time>2016-04-10T09:09:41.000Z</time>
      </trkpt>
      <trkpt lat="47.56316" lon="6.80104">
        <ele>378</ele>
        <time>2016-04-10T09:09:42.000Z</time>
      </trkpt>
      <trkpt lat="47.56318" lon="6.80102">
        <ele>378</ele>
        <time>2016-04-10T09:09:43.000Z</time>
      </trkpt>
      <trkpt lat="47.5632" lon="6.80101">
        <ele>378</ele>
        <time>2016-04-10T09:09:44.000Z</time>
      </trkpt>
      <trkpt lat="47.56324" lon="6.80099">
        <ele>378</ele>
        <time>2016-04-10T09:09:46.000Z</time>
      </trkpt>
      <trkpt lat="47.56326" lon="6.80099">
        <ele>378</ele>
        <time>2016-04-10T09:09:47.000Z</time>
      </trkpt>
      <trkpt lat="47.56329" lon="6.80098">
        <ele>377</ele>
        <time>2016-04-10T09:09:48.000Z</time>
      </trkpt>
      <trkpt lat="47.56332" lon="6.80099">
        <ele>377</ele>
        <time>2016-04-10T09:09:49.000Z</time>
      </trkpt>
      <trkpt lat="47.56336" lon="6.80101">
        <ele>377</ele>
        <time>2016-04-10T09:09:50.000Z</time>
      </trkpt>
      <trkpt lat="47.56339" lon="6.80103">
        <ele>377</ele>
        <time>2016-04-10T09:09:51.000Z</time>
      </trkpt>
      <trkpt lat="47.56342" lon="6.80105">
        <ele>377</ele>
        <time>2016-04-10T09:09:52.000Z</time>
      </trkpt>
      <trkpt lat="47.56345" lon="6.80106">
        <ele>377</ele>
        <time>2016-04-10T09:09:53.000Z</time>
      </trkpt>
      <trkpt lat="47.56348" lon="6.80106">
        <ele>377</ele>
        <time>2016-04-10T09:09:54.000Z</time>
      </trkpt>
      <trkpt lat="47.56351" lon="6.80107">
        <ele>377</ele>
        <time>2016-04-10T09:09:55.000Z</time>
      </trkpt>
      <trkpt lat="47.56354" lon="6.80108">
        <ele>377</ele>
        <time>2016-04-10T09:09:56.000Z</time>
      </trkpt>
      <trkpt lat="47.56358" lon="6.80109">
        <ele>377</ele>
        <time>2016-04-10T09:09:57.000Z</time>
      </trkpt>
      <trkpt lat="47.56361" lon="6.8011">
        <ele>377</ele>
        <time>2016-04-10T09:09:58.000Z</time>
      </trkpt>
      <trkpt lat="47.56365" lon="6.8011">
        <ele>377</ele>
        <time>2016-04-10T09:09:59.000Z</time>
      </trkpt>
      <trkpt lat="47.56368" lon="6.80111">
        <ele>377</ele>
        <time>2016-04-10T09:10:00.000Z</time>
      </trkpt>
      <trkpt lat="47.56372" lon="6.80112">
        <ele>377</ele>
        <time>2016-04-10T09:10:01.000Z</time>
      </trkpt>
      <trkpt lat="47.56375" lon="6.80113">
        <ele>377</ele>
        <time>2016-04-10T09:10:02.000Z</time>
      </trkpt>
      <trkpt lat="47.56378" lon="6.80114">
        <ele>377</ele>
        <time>2016-04-10T09:10:03.000Z</time>
      </trkpt>
      <trkpt lat="47.56382" lon="6.80114">
        <ele>377</ele>
        <time>2016-04-10T09:10:04.000Z</time>
      </trkpt>
      <trkpt lat="47.56385" lon="6.80115">
        <ele>377</ele>
        <time>2016-04-10T09:10:05.000Z</time>
      </trkpt>
      <trkpt lat="47.56388" lon="6.80116">
        <ele>377</ele>
        <time>2016-04-10T09:10:06.000Z</time>
      </trkpt>
      <trkpt lat="47.56392" lon="6.80117">
        <ele>377</ele>
        <time>2016-04-10T09:10:07.000Z</time>
      </trkpt>
      <trkpt lat="47.56395" lon="6.80117">
        <ele>377</ele>
        <time>2016-04-10T09:10:08.000Z</time>
      </trkpt>
      <trkpt lat="47.56398" lon="6.80118">
        <ele>377</ele>
        <time>2016-04-10T09:10:09.000Z</time>
      </trkpt>
      <trkpt lat="47.56402" lon="6.80119">
        <ele>377</ele>
        <time>2016-04-10T09:10:10.000Z</time>
      </trkpt>
      <trkpt lat="47.56405" lon="6.8012">
        <ele>377</ele>
        <time>2016-04-10T09:10:11.000Z</time>
      </trkpt>
      <trkpt lat="47.56408" lon="6.80121">
        <ele>377</ele>
        <time>2016-04-10T09:10:12.000Z</time>
      </trkpt>
      <trkpt lat="47.56412" lon="6.80122">
        <ele>377</ele>
        <time>2016-04-10T09:10:13.000Z</time>
      </trkpt>
      <trkpt lat="47.56415" lon="6.80122">
        <ele>377</ele>
        <time>2016-04-10T09:10:14.000Z</time>
      </trkpt>
      <trkpt lat="47.56418" lon="6.80123">
        <ele>377</ele>
        <time>2016-04-10T09:10:15.000Z</time>
      </trkpt>
      <trkpt lat="47.56422" lon="6.80123">
        <ele>377</ele>
        <time>2016-04-10T09:10:16.000Z</time>
      </trkpt>
      <trkpt lat="47.56425" lon="6.80124">
        <ele>377</ele>
        <time>2016-04-10T09:10:17.000Z</time>
      </trkpt>
      <trkpt lat="47.56429" lon="6.80124">
        <ele>377</ele>
        <time>2016-04-10T09:10:18.000Z</time>
      </trkpt>
      <trkpt lat="47.56432" lon="6.80124">
        <ele>377</ele>
        <time>2016-04-10T09:10:19.000Z</time>
      </trkpt>
      <trkpt lat="47.56436" lon="6.80124">
        <ele>377</ele>
        <time>2016-04-10T09:10:20.000Z</time>
      </trkpt>
      <trkpt lat="47.56439" lon="6.80124">
        <ele>377</ele>
        <time>2016-04-10T09:10:21.000Z</time>
      </trkpt>
      <trkpt lat="47.56443" lon="6.80124">
        <ele>377</ele>
        <time>2016-04-10T09:10:22.000Z</time>
      </trkpt>
      <trkpt lat="47.56446" lon="6.80123">
        <ele>377</ele>
        <time>2016-04-10T09:10:23.000Z</time>
      </trkpt>
      <trkpt lat="47.5645" lon="6.80122">
        <ele>377</ele>
        <time>2016-04-10T09:10:24.000Z</time>
      </trkpt>
      <trkpt lat="47.56453" lon="6.80122">
        <ele>377</ele>
        <time>2016-04-10T09:10:25.000Z</time>
      </trkpt>
      <trkpt lat="47.56457" lon="6.80121">
        <ele>377</ele>
        <time>2016-04-10T09:10:26.000Z</time>
      </trkpt>
      <trkpt lat="47.5646" lon="6.8012">
        <ele>377</ele>
        <time>2016-04-10T09:10:27.000Z</time>
      </trkpt>
      <trkpt lat="47.56464" lon="6.80119">
        <ele>377</ele>
        <time>2016-04-10T09:10:28.000Z</time>
      </trkpt>
      <trkpt lat="47.56467" lon="6.80118">
        <ele>377</ele>
        <time>2016-04-10T09:10:29.000Z</time>
      </trkpt>
      <trkpt lat="47.56471" lon="6.80117">
        <ele>377</ele>
        <time>2016-04-10T09:10:30.000Z</time>
      </trkpt>
      <trkpt lat="47.56474" lon="6.80117">
        <ele>377</ele>
        <time>2016-04-10T09:10:31.000Z</time>
      </trkpt>
      <trkpt lat="47.56477" lon="6.80116">
        <ele>377</ele>
        <time>2016-04-10T09:10:32.000Z</time>
      </trkpt>
      <trkpt lat="47.56481" lon="6.80115">
        <ele>377</ele>
        <time>2016-04-10T09:10:33.000Z</time>
      </trkpt>
      <trkpt lat="47.56484" lon="6.80114">
        <ele>377</ele>
        <time>2016-04-10T09:10:34.000Z</time>
      </trkpt>
      <trkpt lat="47.56487" lon="6.80113">
        <ele>377</ele>
        <time>2016-04-10T09:10:35.000Z</time>
      </trkpt>
      <trkpt lat="47.5649" lon="6.80112">
        <ele>377</ele>
        <time>2016-04-10T09:10:36.000Z</time>
      </trkpt>
      <trkpt lat="47.56494" lon="6.80111">
        <ele>377</ele>
        <time>2016-04-10T09:10:37.000Z</time>
      </trkpt>
      <trkpt lat="47.56497" lon="6.80111">
        <ele>377</ele>
        <time>2016-04-10T09:10:38.000Z</time>
      </trkpt>
      <trkpt lat="47.565" lon="6.8011">
        <ele>379</ele>
        <time>2016-04-10T09:10:39.000Z</time>
      </trkpt>
      <trkpt lat="47.56504" lon="6.8011">
        <ele>379</ele>
        <time>2016-04-10T09:10:40.000Z</time>
      </trkpt>
      <trkpt lat="47.56507" lon="6.80109">
        <ele>379</ele>
        <time>2016-04-10T09:10:41.000Z</time>
      </trkpt>
      <trkpt lat="47.5651" lon="6.80109">
        <ele>379</ele>
        <time>2016-04-10T09:10:42.000Z</time>
      </trkpt>
      <trkpt lat="47.56513" lon="6.80109">
        <ele>379</ele>
        <time>2016-04-10T09:10:43.000Z</time>
      </trkpt>
      <trkpt lat="47.56517" lon="6.80108">
        <ele>379</ele>
        <time>2016-04-10T09:10:44.000Z</time>
      </trkpt>
      <trkpt lat="47.5652" lon="6.80107">
        <ele>379</ele>
        <time>2016-04-10T09:10:45.000Z</time>
      </trkpt>
      <trkpt lat="47.56523" lon="6.80106">
        <ele>379</ele>
        <time>2016-04-10T09:10:46.000Z</time>
      </trkpt>
      <trkpt lat="47.56527" lon="6.80106">
        <ele>379</ele>
        <time>2016-04-10T09:10:47.000Z</time>
      </trkpt>
      <trkpt lat="47.5653" lon="6.80105">
        <ele>379</ele>
        <time>2016-04-10T09:10:48.000Z</time>
      </trkpt>
      <trkpt lat="47.56533" lon="6.80104">
        <ele>379</ele>
        <time>2016-04-10T09:10:49.000Z</time>
      </trkpt>
      <trkpt lat="47.56536" lon="6.80103">
        <ele>379</ele>
        <time>2016-04-10T09:10:50.000Z</time>
      </trkpt>
      <trkpt lat="47.56539" lon="6.80102">
        <ele>379</ele>
        <time>2016-04-10T09:10:51.000Z</time>
      </trkpt>
      <trkpt lat="47.56542" lon="6.80101">
        <ele>379</ele>
        <time>2016-04-10T09:10:52.000Z</time>
      </trkpt>
      <trkpt lat="47.56545" lon="6.801">
        <ele>379</ele>
        <time>2016-04-10T09:10:53.000Z</time>
      </trkpt>
      <trkpt lat="47.56548" lon="6.801">
        <ele>379</ele>
        <time>2016-04-10T09:10:54.000Z</time>
      </trkpt>
      <trkpt lat="47.56551" lon="6.80099">
        <ele>380</ele>
        <time>2016-04-10T09:10:55.000Z</time>
      </trkpt>
      <trkpt lat="47.56554" lon="6.80098">
        <ele>380</ele>
        <time>2016-04-10T09:10:56.000Z</time>
      </trkpt>
      <trkpt lat="47.56556" lon="6.80097">
        <ele>380</ele>
        <time>2016-04-10T09:10:57.000Z</time>
      </trkpt>
      <trkpt lat="47.56559" lon="6.80096">
        <ele>380</ele>
        <time>2016-04-10T09:10:58.000Z</time>
      </trkpt>
      <trkpt lat="47.56562" lon="6.80095">
        <ele>380</ele>
        <time>2016-04-10T09:10:59.000Z</time>
      </trkpt>
      <trkpt lat="47.56565" lon="6.80095">
        <ele>380</ele>
        <time>2016-04-10T09:11:00.000Z</time>
      </trkpt>
      <trkpt lat="47.56567" lon="6.80094">
        <ele>380</ele>
        <time>2016-04-10T09:11:01.000Z</time>
      </trkpt>
      <trkpt lat="47.5657" lon="6.80094">
        <ele>380</ele>
        <time>2016-04-10T09:11:02.000Z</time>
      </trkpt>
      <trkpt lat="47.56573" lon="6.80094">
        <ele>380</ele>
        <time>2016-04-10T09:11:03.000Z</time>
      </trkpt>
      <trkpt lat="47.56576" lon="6.80093">
        <ele>380</ele>
        <time>2016-04-10T09:11:04.000Z</time>
      </trkpt>
      <trkpt lat="47.56579" lon="6.80093">
        <ele>380</ele>
        <time>2016-04-10T09:11:05.000Z</time>
      </trkpt>
      <trkpt lat="47.56581" lon="6.80093">
        <ele>380</ele>
        <time>2016-04-10T09:11:06.000Z</time>
      </trkpt>
      <trkpt lat="47.56584" lon="6.80093">
        <ele>382</ele>
        <time>2016-04-10T09:11:07.000Z</time>
      </trkpt>
      <trkpt lat="47.56587" lon="6.80094">
        <ele>382</ele>
        <time>2016-04-10T09:11:08.000Z</time>
      </trkpt>
      <trkpt lat="47.5659" lon="6.80094">
        <ele>382</ele>
        <time>2016-04-10T09:11:09.000Z</time>
      </trkpt>
      <trkpt lat="47.56592" lon="6.80095">
        <ele>382</ele>
        <time>2016-04-10T09:11:10.000Z</time>
      </trkpt>
      <trkpt lat="47.56595" lon="6.80096">
        <ele>382</ele>
        <time>2016-04-10T09:11:11.000Z</time>
      </trkpt>
      <trkpt lat="47.56598" lon="6.80097">
        <ele>382</ele>
        <time>2016-04-10T09:11:12.000Z</time>
      </trkpt>
      <trkpt lat="47.566" lon="6.80099">
        <ele>382</ele>
        <time>2016-04-10T09:11:13.000Z</time>
      </trkpt>
      <trkpt lat="47.56603" lon="6.801">
        <ele>382</ele>
        <time>2016-04-10T09:11:14.000Z</time>
      </trkpt>
      <trkpt lat="47.56606" lon="6.80101">
        <ele>382</ele>
        <time>2016-04-10T09:11:15.000Z</time>
      </trkpt>
      <trkpt lat="47.56608" lon="6.80103">
        <ele>383</ele>
        <time>2016-04-10T09:11:16.000Z</time>
      </trkpt>
      <trkpt lat="47.56611" lon="6.80105">
        <ele>383</ele>
        <time>2016-04-10T09:11:17.000Z</time>
      </trkpt>
      <trkpt lat="47.56614" lon="6.80107">
        <ele>383</ele>
        <time>2016-04-10T09:11:18.000Z</time>
      </trkpt>
      <trkpt lat="47.56616" lon="6.8011">
        <ele>383</ele>
        <time>2016-04-10T09:11:19.000Z</time>
      </trkpt>
      <trkpt lat="47.56619" lon="6.80113">
        <ele>383</ele>
        <time>2016-04-10T09:11:20.000Z</time>
      </trkpt>
      <trkpt lat="47.56622" lon="6.80116">
        <ele>383</ele>
        <time>2016-04-10T09:11:21.000Z</time>
      </trkpt>
      <trkpt lat="47.56625" lon="6.80119">
        <ele>383</ele>
        <time>2016-04-10T09:11:22.000Z</time>
      </trkpt>
      <trkpt lat="47.56628" lon="6.80122">
        <ele>383</ele>
        <time>2016-04-10T09:11:23.000Z</time>
      </trkpt>
      <trkpt lat="47.56631" lon="6.80125">
        <ele>383</ele>
        <time>2016-04-10T09:11:24.000Z</time>
      </trkpt>
      <trkpt lat="47.56634" lon="6.80128">
        <ele>383</ele>
        <time>2016-04-10T09:11:25.000Z</time>
      </trkpt>
      <trkpt lat="47.56638" lon="6.8013">
        <ele>383</ele>
        <time>2016-04-10T09:11:26.000Z</time>
      </trkpt>
      <trkpt lat="47.56641" lon="6.80132">
        <ele>383</ele>
        <time>2016-04-10T09:11:27.000Z</time>
      </trkpt>
      <trkpt lat="47.56644" lon="6.80134">
        <ele>383</ele>
        <time>2016-04-10T09:11:28.000Z</time>
      </trkpt>
      <trkpt lat="47.56647" lon="6.80136">
        <ele>383</ele>
        <time>2016-04-10T09:11:29.000Z</time>
      </trkpt>
      <trkpt lat="47.5665" lon="6.80138">
        <ele>383</ele>
        <time>2016-04-10T09:11:30.000Z</time>
      </trkpt>
      <trkpt lat="47.56653" lon="6.80139">
        <ele>383</ele>
        <time>2016-04-10T09:11:31.000Z</time>
      </trkpt>
      <trkpt lat="47.56656" lon="6.8014">
        <ele>384</ele>
        <time>2016-04-10T09:11:32.000Z</time>
      </trkpt>
      <trkpt lat="47.56658" lon="6.80142">
        <ele>384</ele>
        <time>2016-04-10T09:11:33.000Z</time>
      </trkpt>
      <trkpt lat="47.56661" lon="6.80143">
        <ele>384</ele>
        <time>2016-04-10T09:11:34.000Z</time>
      </trkpt>
      <trkpt lat="47.56663" lon="6.80144">
        <ele>384</ele>
        <time>2016-04-10T09:11:35.000Z</time>
      </trkpt>
      <trkpt lat="47.56666" lon="6.80145">
        <ele>384</ele>
        <time>2016-04-10T09:11:36.000Z</time>
      </trkpt>
      <trkpt lat="47.56668" lon="6.80146">
        <ele>386</ele>
        <time>2016-04-10T09:11:37.000Z</time>
      </trkpt>
      <trkpt lat="47.56671" lon="6.80147">
        <ele>386</ele>
        <time>2016-04-10T09:11:38.000Z</time>
      </trkpt>
      <trkpt lat="47.56673" lon="6.80148">
        <ele>386</ele>
        <time>2016-04-10T09:11:39.000Z</time>
      </trkpt>
      <trkpt lat="47.56675" lon="6.80149">
        <ele>386</ele>
        <time>2016-04-10T09:11:40.000Z</time>
      </trkpt>
      <trkpt lat="47.56677" lon="6.8015">
        <ele>386</ele>
        <time>2016-04-10T09:11:41.000Z</time>
      </trkpt>
      <trkpt lat="47.5668" lon="6.80151">
        <ele>386</ele>
        <time>2016-04-10T09:11:42.000Z</time>
      </trkpt>
      <trkpt lat="47.56682" lon="6.80153">
        <ele>386</ele>
        <time>2016-04-10T09:11:43.000Z</time>
      </trkpt>
      <trkpt lat="47.56686" lon="6.80156">
        <ele>386</ele>
        <time>2016-04-10T09:11:45.000Z</time>
      </trkpt>
      <trkpt lat="47.56688" lon="6.80158">
        <ele>387</ele>
        <time>2016-04-10T09:11:46.000Z</time>
      </trkpt>
      <trkpt lat="47.56689" lon="6.80159">
        <ele>387</ele>
        <time>2016-04-10T09:11:47.000Z</time>
      </trkpt>
      <trkpt lat="47.56692" lon="6.80161">
        <ele>387</ele>
        <time>2016-04-10T09:11:48.000Z</time>
      </trkpt>
      <trkpt lat="47.56694" lon="6.80163">
        <ele>387</ele>
        <time>2016-04-10T09:11:49.000Z</time>
      </trkpt>
      <trkpt lat="47.56696" lon="6.80165">
        <ele>387</ele>
        <time>2016-04-10T09:11:50.000Z</time>
      </trkpt>
      <trkpt lat="47.56699" lon="6.80168">
        <ele>387</ele>
        <time>2016-04-10T09:11:51.000Z</time>
      </trkpt>
      <trkpt lat="47.56701" lon="6.8017">
        <ele>388</ele>
        <time>2016-04-10T09:11:52.000Z</time>
      </trkpt>
      <trkpt lat="47.56703" lon="6.80172">
        <ele>388</ele>
        <time>2016-04-10T09:11:53.000Z</time>
      </trkpt>
      <trkpt lat="47.56705" lon="6.80175">
        <ele>388</ele>
        <time>2016-04-10T09:11:54.000Z</time>
      </trkpt>
      <trkpt lat="47.56707" lon="6.80177">
        <ele>388</ele>
        <time>2016-04-10T09:11:55.000Z</time>
      </trkpt>
      <trkpt lat="47.56708" lon="6.8018">
        <ele>388</ele>
        <time>2016-04-10T09:11:56.000Z</time>
      </trkpt>
      <trkpt lat="47.5671" lon="6.80183">
        <ele>388</ele>
        <time>2016-04-10T09:11:57.000Z</time>
      </trkpt>
      <trkpt lat="47.56712" lon="6.80185">
        <ele>388</ele>
        <time>2016-04-10T09:11:58.000Z</time>
      </trkpt>
      <trkpt lat="47.56715" lon="6.80187">
        <ele>389</ele>
        <time>2016-04-10T09:11:59.000Z</time>
      </trkpt>
      <trkpt lat="47.56717" lon="6.80188">
        <ele>389</ele>
        <time>2016-04-10T09:12:00.000Z</time>
      </trkpt>
      <trkpt lat="47.56719" lon="6.8019">
        <ele>389</ele>
        <time>2016-04-10T09:12:01.000Z</time>
      </trkpt>
      <trkpt lat="47.56721" lon="6.80191">
        <ele>389</ele>
        <time>2016-04-10T09:12:02.000Z</time>
      </trkpt>
      <trkpt lat="47.56724" lon="6.80195">
        <ele>389</ele>
        <time>2016-04-10T09:12:04.000Z</time>
      </trkpt>
      <trkpt lat="47.56726" lon="6.80197">
        <ele>389</ele>
        <time>2016-04-10T09:12:05.000Z</time>
      </trkpt>
      <trkpt lat="47.5673" lon="6.80201">
        <ele>389</ele>
        <time>2016-04-10T09:12:07.000Z</time>
      </trkpt>
      <trkpt lat="47.56732" lon="6.80202">
        <ele>389</ele>
        <time>2016-04-10T09:12:08.000Z</time>
      </trkpt>
      <trkpt lat="47.56733" lon="6.80204">
        <ele>389</ele>
        <time>2016-04-10T09:12:09.000Z</time>
      </trkpt>
      <trkpt lat="47.56735" lon="6.80207">
        <ele>389</ele>
        <time>2016-04-10T09:12:10.000Z</time>
      </trkpt>
      <trkpt lat="47.56737" lon="6.80209">
        <ele>390</ele>
        <time>2016-04-10T09:12:11.000Z</time>
      </trkpt>
      <trkpt lat="47.56739" lon="6.80211">
        <ele>390</ele>
        <time>2016-04-10T09:12:12.000Z</time>
      </trkpt>
      <trkpt lat="47.56741" lon="6.80214">
        <ele>390</ele>
        <time>2016-04-10T09:12:13.000Z</time>
      </trkpt>
      <trkpt lat="47.56743" lon="6.80215">
        <ele>390</ele>
        <time>2016-04-10T09:12:14.000Z</time>
      </trkpt>
      <trkpt lat="47.56747" lon="6.80219">
        <ele>390</ele>
        <time>2016-04-10T09:12:16.000Z</time>
      </trkpt>
      <trkpt lat="47.56749" lon="6.80221">
        <ele>390</ele>
        <time>2016-04-10T09:12:17.000Z</time>
      </trkpt>
      <trkpt lat="47.56752" lon="6.80224">
        <ele>395</ele>
        <time>2016-04-10T09:12:19.000Z</time>
      </trkpt>
      <trkpt lat="47.56754" lon="6.80226">
        <ele>395</ele>
        <time>2016-04-10T09:12:20.000Z</time>
      </trkpt>
      <trkpt lat="47.56757" lon="6.8023">
        <ele>395</ele>
        <time>2016-04-10T09:12:22.000Z</time>
      </trkpt>
      <trkpt lat="47.56759" lon="6.80231">
        <ele>395</ele>
        <time>2016-04-10T09:12:23.000Z</time>
      </trkpt>
      <trkpt lat="47.56762" lon="6.80235">
        <ele>395</ele>
        <time>2016-04-10T09:12:25.000Z</time>
      </trkpt>
      <trkpt lat="47.56764" lon="6.80236">
        <ele>395</ele>
        <time>2016-04-10T09:12:26.000Z</time>
      </trkpt>
      <trkpt lat="47.56767" lon="6.80239">
        <ele>395</ele>
        <time>2016-04-10T09:12:28.000Z</time>
      </trkpt>
      <trkpt lat="47.56768" lon="6.8024">
        <ele>395</ele>
        <time>2016-04-10T09:12:29.000Z</time>
      </trkpt>
      <trkpt lat="47.56771" lon="6.80242">
        <ele>395</ele>
        <time>2016-04-10T09:12:31.000Z</time>
      </trkpt>
      <trkpt lat="47.56773" lon="6.80243">
        <ele>395</ele>
        <time>2016-04-10T09:12:32.000Z</time>
      </trkpt>
      <trkpt lat="47.56777" lon="6.80246">
        <ele>396</ele>
        <time>2016-04-10T09:12:34.000Z</time>
      </trkpt>
      <trkpt lat="47.56778" lon="6.80247">
        <ele>396</ele>
        <time>2016-04-10T09:12:35.000Z</time>
      </trkpt>
      <trkpt lat="47.56782" lon="6.8025">
        <ele>397</ele>
        <time>2016-04-10T09:12:37.000Z</time>
      </trkpt>
      <trkpt lat="47.56783" lon="6.80252">
        <ele>397</ele>
        <time>2016-04-10T09:12:38.000Z</time>
      </trkpt>
      <trkpt lat="47.56787" lon="6.80255">
        <ele>398</ele>
        <time>2016-04-10T09:12:40.000Z</time>
      </trkpt>
      <trkpt lat="47.56788" lon="6.80256">
        <ele>398</ele>
        <time>2016-04-10T09:12:41.000Z</time>
      </trkpt>
      <trkpt lat="47.56792" lon="6.8026">
        <ele>398</ele>
        <time>2016-04-10T09:12:43.000Z</time>
      </trkpt>
      <trkpt lat="47.56793" lon="6.80261">
        <ele>398</ele>
        <time>2016-04-10T09:12:44.000Z</time>
      </trkpt>
      <trkpt lat="47.56797" lon="6.80265">
        <ele>398</ele>
        <time>2016-04-10T09:12:46.000Z</time>
      </trkpt>
      <trkpt lat="47.56798" lon="6.80267">
        <ele>398</ele>
        <time>2016-04-10T09:12:47.000Z</time>
      </trkpt>
      <trkpt lat="47.56802" lon="6.8027">
        <ele>399</ele>
        <time>2016-04-10T09:12:49.000Z</time>
      </trkpt>
      <trkpt lat="47.56804" lon="6.80272">
        <ele>399</ele>
        <time>2016-04-10T09:12:50.000Z</time>
      </trkpt>
      <trkpt lat="47.56806" lon="6.80273">
        <ele>399</ele>
        <time>2016-04-10T09:12:51.000Z</time>
      </trkpt>
      <trkpt lat="47.5681" lon="6.80276">
        <ele>399</ele>
        <time>2016-04-10T09:12:53.000Z</time>
      </trkpt>
      <trkpt lat="47.56813" lon="6.80279">
        <ele>399</ele>
        <time>2016-04-10T09:12:55.000Z</time>
      </trkpt>
      <trkpt lat="47.56815" lon="6.8028">
        <ele>399</ele>
        <time>2016-04-10T09:12:56.000Z</time>
      </trkpt>
      <trkpt lat="47.56819" lon="6.80282">
        <ele>399</ele>
        <time>2016-04-10T09:12:58.000Z</time>
      </trkpt>
      <trkpt lat="47.56821" lon="6.80282">
        <ele>400</ele>
        <time>2016-04-10T09:12:59.000Z</time>
      </trkpt>
      <trkpt lat="47.56825" lon="6.80284">
        <ele>400</ele>
        <time>2016-04-10T09:13:01.000Z</time>
      </trkpt>
      <trkpt lat="47.56827" lon="6.80285">
        <ele>400</ele>
        <time>2016-04-10T09:13:02.000Z</time>
      </trkpt>
      <trkpt lat="47.56831" lon="6.80286">
        <ele>400</ele>
        <time>2016-04-10T09:13:04.000Z</time>
      </trkpt>
      <trkpt lat="47.56832" lon="6.80287">
        <ele>400</ele>
        <time>2016-04-10T09:13:05.000Z</time>
      </trkpt>
      <trkpt lat="47.56836" lon="6.80289">
        <ele>404</ele>
        <time>2016-04-10T09:13:07.000Z</time>
      </trkpt>
      <trkpt lat="47.56838" lon="6.8029">
        <ele>404</ele>
        <time>2016-04-10T09:13:08.000Z</time>
      </trkpt>
      <trkpt lat="47.56841" lon="6.80292">
        <ele>404</ele>
        <time>2016-04-10T09:13:10.000Z</time>
      </trkpt>
      <trkpt lat="47.56843" lon="6.80294">
        <ele>404</ele>
        <time>2016-04-10T09:13:11.000Z</time>
      </trkpt>
      <trkpt lat="47.56847" lon="6.80296">
        <ele>404</ele>
        <time>2016-04-10T09:13:13.000Z</time>
      </trkpt>
      <trkpt lat="47.56849" lon="6.80297">
        <ele>404</ele>
        <time>2016-04-10T09:13:14.000Z</time>
      </trkpt>
      <trkpt lat="47.56853" lon="6.803">
        <ele>404</ele>
        <time>2016-04-10T09:13:16.000Z</time>
      </trkpt>
      <trkpt lat="47.56854" lon="6.80301">
        <ele>404</ele>
        <time>2016-04-10T09:13:17.000Z</time>
      </trkpt>
      <trkpt lat="47.56858" lon="6.80303">
        <ele>405</ele>
        <time>2016-04-10T09:13:19.000Z</time>
      </trkpt>
      <trkpt lat="47.5686" lon="6.80305">
        <ele>405</ele>
        <time>2016-04-10T09:13:20.000Z</time>
      </trkpt>
      <trkpt lat="47.56864" lon="6.80307">
        <ele>405</ele>
        <time>2016-04-10T09:13:22.000Z</time>
      </trkpt>
      <trkpt lat="47.56866" lon="6.80308">
        <ele>405</ele>
        <time>2016-04-10T09:13:23.000Z</time>
      </trkpt>
      <trkpt lat="47.56869" lon="6.8031">
        <ele>405</ele>
        <time>2016-04-10T09:13:25.000Z</time>
      </trkpt>
      <trkpt lat="47.56871" lon="6.80311">
        <ele>405</ele>
        <time>2016-04-10T09:13:26.000Z</time>
      </trkpt>
      <trkpt lat="47.56875" lon="6.80312">
        <ele>405</ele>
        <time>2016-04-10T09:13:28.000Z</time>
      </trkpt>
      <trkpt lat="47.56877" lon="6.80313">
        <ele>405</ele>
        <time>2016-04-10T09:13:29.000Z</time>
      </trkpt>
      <trkpt lat="47.5688" lon="6.80314">
        <ele>405</ele>
        <time>2016-04-10T09:13:31.000Z</time>
      </trkpt>
      <trkpt lat="47.56882" lon="6.80315">
        <ele>406</ele>
        <time>2016-04-10T09:13:32.000Z</time>
      </trkpt>
      <trkpt lat="47.56886" lon="6.80317">
        <ele>406</ele>
        <time>2016-04-10T09:13:34.000Z</time>
      </trkpt>
      <trkpt lat="47.56887" lon="6.80318">
        <ele>406</ele>
        <time>2016-04-10T09:13:35.000Z</time>
      </trkpt>
      <trkpt lat="47.56891" lon="6.80318">
        <ele>406</ele>
        <time>2016-04-10T09:13:37.000Z</time>
      </trkpt>
      <trkpt lat="47.56893" lon="6.80318">
        <ele>406</ele>
        <time>2016-04-10T09:13:38.000Z</time>
      </trkpt>
      <trkpt lat="47.56897" lon="6.80318">
        <ele>406</ele>
        <time>2016-04-10T09:13:40.000Z</time>
      </trkpt>
      <trkpt lat="47.569" lon="6.80318">
        <ele>407</ele>
        <time>2016-04-10T09:13:41.000Z</time>
      </trkpt>
      <trkpt lat="47.56904" lon="6.80317">
        <ele>407</ele>
        <time>2016-04-10T09:13:43.000Z</time>
      </trkpt>
      <trkpt lat="47.56906" lon="6.80317">
        <ele>407</ele>
        <time>2016-04-10T09:13:44.000Z</time>
      </trkpt>
      <trkpt lat="47.5691" lon="6.80317">
        <ele>407</ele>
        <time>2016-04-10T09:13:46.000Z</time>
      </trkpt>
      <trkpt lat="47.56912" lon="6.80317">
        <ele>407</ele>
        <time>2016-04-10T09:13:47.000Z</time>
      </trkpt>
      <trkpt lat="47.56917" lon="6.80316">
        <ele>407</ele>
        <time>2016-04-10T09:13:49.000Z</time>
      </trkpt>
      <trkpt lat="47.56919" lon="6.80316">
        <ele>409</ele>
        <time>2016-04-10T09:13:50.000Z</time>
      </trkpt>
      <trkpt lat="47.56923" lon="6.80316">
        <ele>409</ele>
        <time>2016-04-10T09:13:52.000Z</time>
      </trkpt>
      <trkpt lat="47.56925" lon="6.80315">
        <ele>409</ele>
        <time>2016-04-10T09:13:53.000Z</time>
      </trkpt>
      <trkpt lat="47.56927" lon="6.80315">
        <ele>409</ele>
        <time>2016-04-10T09:13:54.000Z</time>
      </trkpt>
      <trkpt lat="47.5693" lon="6.80315">
        <ele>409</ele>
        <time>2016-04-10T09:13:55.000Z</time>
      </trkpt>
      <trkpt lat="47.56932" lon="6.80315">
        <ele>409</ele>
        <time>2016-04-10T09:13:56.000Z</time>
      </trkpt>
      <trkpt lat="47.56935" lon="6.80315">
        <ele>409</ele>
        <time>2016-04-10T09:13:57.000Z</time>
      </trkpt>
      <trkpt lat="47.56937" lon="6.80314">
        <ele>409</ele>
        <time>2016-04-10T09:13:58.000Z</time>
      </trkpt>
      <trkpt lat="47.5694" lon="6.80314">
        <ele>409</ele>
        <time>2016-04-10T09:13:59.000Z</time>
      </trkpt>
      <trkpt lat="47.56942" lon="6.80314">
        <ele>409</ele>
        <time>2016-04-10T09:14:00.000Z</time>
      </trkpt>
      <trkpt lat="47.56945" lon="6.80313">
        <ele>409</ele>
        <time>2016-04-10T09:14:01.000Z</time>
      </trkpt>
      <trkpt lat="47.56947" lon="6.80313">
        <ele>409</ele>
        <time>2016-04-10T09:14:02.000Z</time>
      </trkpt>
      <trkpt lat="47.5695" lon="6.80313">
        <ele>409</ele>
        <time>2016-04-10T09:14:03.000Z</time>
      </trkpt>
      <trkpt lat="47.56953" lon="6.80313">
        <ele>410</ele>
        <time>2016-04-10T09:14:04.000Z</time>
      </trkpt>
      <trkpt lat="47.56956" lon="6.80312">
        <ele>410</ele>
        <time>2016-04-10T09:14:05.000Z</time>
      </trkpt>
      <trkpt lat="47.56959" lon="6.80312">
        <ele>410</ele>
        <time>2016-04-10T09:14:06.000Z</time>
      </trkpt>
      <trkpt lat="47.56962" lon="6.80312">
        <ele>410</ele>
        <time>2016-04-10T09:14:07.000Z</time>
      </trkpt>
      <trkpt lat="47.56966" lon="6.80312">
        <ele>410</ele>
        <time>2016-04-10T09:14:08.000Z</time>
      </trkpt>
      <trkpt lat="47.56969" lon="6.80312">
        <ele>410</ele>
        <time>2016-04-10T09:14:09.000Z</time>
      </trkpt>
      <trkpt lat="47.56972" lon="6.80313">
        <ele>410</ele>
        <time>2016-04-10T09:14:10.000Z</time>
      </trkpt>
      <trkpt lat="47.56976" lon="6.80313">
        <ele>410</ele>
        <time>2016-04-10T09:14:11.000Z</time>
      </trkpt>
      <trkpt lat="47.56979" lon="6.80314">
        <ele>410</ele>
        <time>2016-04-10T09:14:12.000Z</time>
      </trkpt>
      <trkpt lat="47.56982" lon="6.80314">
        <ele>411</ele>
        <time>2016-04-10T09:14:13.000Z</time>
      </trkpt>
      <trkpt lat="47.56985" lon="6.80314">
        <ele>411</ele>
        <time>2016-04-10T09:14:14.000Z</time>
      </trkpt>
      <trkpt lat="47.56988" lon="6.80314">
        <ele>411</ele>
        <time>2016-04-10T09:14:15.000Z</time>
      </trkpt>
      <trkpt lat="47.56991" lon="6.80313">
        <ele>411</ele>
        <time>2016-04-10T09:14:16.000Z</time>
      </trkpt>
      <trkpt lat="47.56994" lon="6.80313">
        <ele>411</ele>
        <time>2016-04-10T09:14:17.000Z</time>
      </trkpt>
      <trkpt lat="47.56997" lon="6.80312">
        <ele>411</ele>
        <time>2016-04-10T09:14:18.000Z</time>
      </trkpt>
      <trkpt lat="47.57" lon="6.80312">
        <ele>411</ele>
        <time>2016-04-10T09:14:19.000Z</time>
      </trkpt>
      <trkpt lat="47.57003" lon="6.80312">
        <ele>412</ele>
        <time>2016-04-10T09:14:20.000Z</time>
      </trkpt>
      <trkpt lat="47.57005" lon="6.80312">
        <ele>412</ele>
        <time>2016-04-10T09:14:21.000Z</time>
      </trkpt>
      <trkpt lat="47.57008" lon="6.80312">
        <ele>412</ele>
        <time>2016-04-10T09:14:22.000Z</time>
      </trkpt>
      <trkpt lat="47.57011" lon="6.80311">
        <ele>412</ele>
        <time>2016-04-10T09:14:23.000Z</time>
      </trkpt>
      <trkpt lat="47.57013" lon="6.80311">
        <ele>412</ele>
        <time>2016-04-10T09:14:24.000Z</time>
      </trkpt>
      <trkpt lat="47.57017" lon="6.8031">
        <ele>411</ele>
        <time>2016-04-10T09:14:25.000Z</time>
      </trkpt>
      <trkpt lat="47.5702" lon="6.80309">
        <ele>411</ele>
        <time>2016-04-10T09:14:26.000Z</time>
      </trkpt>
      <trkpt lat="47.57023" lon="6.80306">
        <ele>411</ele>
        <time>2016-04-10T09:14:27.000Z</time>
      </trkpt>
      <trkpt lat="47.57027" lon="6.80303">
        <ele>411</ele>
        <time>2016-04-10T09:14:28.000Z</time>
      </trkpt>
      <trkpt lat="47.5703" lon="6.80301">
        <ele>411</ele>
        <time>2016-04-10T09:14:29.000Z</time>
      </trkpt>
      <trkpt lat="47.57034" lon="6.803">
        <ele>411</ele>
        <time>2016-04-10T09:14:30.000Z</time>
      </trkpt>
      <trkpt lat="47.57037" lon="6.80301">
        <ele>411</ele>
        <time>2016-04-10T09:14:31.000Z</time>
      </trkpt>
      <trkpt lat="47.5704" lon="6.80304">
        <ele>411</ele>
        <time>2016-04-10T09:14:32.000Z</time>
      </trkpt>
      <trkpt lat="47.57041" lon="6.80308">
        <ele>411</ele>
        <time>2016-04-10T09:14:33.000Z</time>
      </trkpt>
      <trkpt lat="47.5704" lon="6.80313">
        <ele>411</ele>
        <time>2016-04-10T09:14:34.000Z</time>
      </trkpt>
      <trkpt lat="47.57039" lon="6.80319">
        <ele>411</ele>
        <time>2016-04-10T09:14:35.000Z</time>
      </trkpt>
      <trkpt lat="47.57037" lon="6.80325">
        <ele>411</ele>
        <time>2016-04-10T09:14:36.000Z</time>
      </trkpt>
      <trkpt lat="47.57035" lon="6.80331">
        <ele>411</ele>
        <time>2016-04-10T09:14:37.000Z</time>
      </trkpt>
      <trkpt lat="47.57034" lon="6.80337">
        <ele>413</ele>
        <time>2016-04-10T09:14:38.000Z</time>
      </trkpt>
      <trkpt lat="47.57033" lon="6.80343">
        <ele>413</ele>
        <time>2016-04-10T09:14:39.000Z</time>
      </trkpt>
      <trkpt lat="47.57033" lon="6.80348">
        <ele>413</ele>
        <time>2016-04-10T09:14:40.000Z</time>
      </trkpt>
      <trkpt lat="47.57034" lon="6.80354">
        <ele>413</ele>
        <time>2016-04-10T09:14:41.000Z</time>
      </trkpt>
      <trkpt lat="47.57035" lon="6.80359">
        <ele>413</ele>
        <time>2016-04-10T09:14:42.000Z</time>
      </trkpt>
      <trkpt lat="47.57035" lon="6.80364">
        <ele>413</ele>
        <time>2016-04-10T09:14:43.000Z</time>
      </trkpt>
      <trkpt lat="47.57036" lon="6.80369">
        <ele>413</ele>
        <time>2016-04-10T09:14:44.000Z</time>
      </trkpt>
      <trkpt lat="47.57037" lon="6.80374">
        <ele>413</ele>
        <time>2016-04-10T09:14:45.000Z</time>
      </trkpt>
      <trkpt lat="47.57038" lon="6.80378">
        <ele>413</ele>
        <time>2016-04-10T09:14:46.000Z</time>
      </trkpt>
      <trkpt lat="47.57039" lon="6.80383">
        <ele>413</ele>
        <time>2016-04-10T09:14:47.000Z</time>
      </trkpt>
      <trkpt lat="47.57041" lon="6.80387">
        <ele>413</ele>
        <time>2016-04-10T09:14:48.000Z</time>
      </trkpt>
      <trkpt lat="47.57043" lon="6.80392">
        <ele>413</ele>
        <time>2016-04-10T09:14:49.000Z</time>
      </trkpt>
      <trkpt lat="47.57045" lon="6.80395">
        <ele>413</ele>
        <time>2016-04-10T09:14:50.000Z</time>
      </trkpt>
      <trkpt lat="47.57048" lon="6.80399">
        <ele>413</ele>
        <time>2016-04-10T09:14:51.000Z</time>
      </trkpt>
      <trkpt lat="47.5705" lon="6.80403">
        <ele>413</ele>
        <time>2016-04-10T09:14:52.000Z</time>
      </trkpt>
      <trkpt lat="47.57051" lon="6.80407">
        <ele>413</ele>
        <time>2016-04-10T09:14:53.000Z</time>
      </trkpt>
      <trkpt lat="47.57053" lon="6.80412">
        <ele>413</ele>
        <time>2016-04-10T09:14:54.000Z</time>
      </trkpt>
      <trkpt lat="47.57055" lon="6.80416">
        <ele>413</ele>
        <time>2016-04-10T09:14:55.000Z</time>
      </trkpt>
      <trkpt lat="47.57057" lon="6.8042">
        <ele>415</ele>
        <time>2016-04-10T09:14:56.000Z</time>
      </trkpt>
      <trkpt lat="47.5706" lon="6.80423">
        <ele>415</ele>
        <time>2016-04-10T09:14:57.000Z</time>
      </trkpt>
      <trkpt lat="47.57063" lon="6.80427">
        <ele>415</ele>
        <time>2016-04-10T09:14:58.000Z</time>
      </trkpt>
      <trkpt lat="47.57066" lon="6.80431">
        <ele>415</ele>
        <time>2016-04-10T09:14:59.000Z</time>
      </trkpt>
      <trkpt lat="47.57069" lon="6.80435">
        <ele>415</ele>
        <time>2016-04-10T09:15:00.000Z</time>
      </trkpt>
      <trkpt lat="47.57072" lon="6.80439">
        <ele>415</ele>
        <time>2016-04-10T09:15:01.000Z</time>
      </trkpt>
      <trkpt lat="47.57076" lon="6.80444">
        <ele>415</ele>
        <time>2016-04-10T09:15:02.000Z</time>
      </trkpt>
      <trkpt lat="47.57079" lon="6.80448">
        <ele>415</ele>
        <time>2016-04-10T09:15:03.000Z</time>
      </trkpt>
      <trkpt lat="47.57083" lon="6.80452">
        <ele>415</ele>
        <time>2016-04-10T09:15:04.000Z</time>
      </trkpt>
      <trkpt lat="47.57086" lon="6.80457">
        <ele>413</ele>
        <time>2016-04-10T09:15:05.000Z</time>
      </trkpt>
      <trkpt lat="47.57089" lon="6.80461">
        <ele>413</ele>
        <time>2016-04-10T09:15:06.000Z</time>
      </trkpt>
      <trkpt lat="47.57091" lon="6.80465">
        <ele>413</ele>
        <time>2016-04-10T09:15:07.000Z</time>
      </trkpt>
      <trkpt lat="47.57093" lon="6.80469">
        <ele>413</ele>
        <time>2016-04-10T09:15:08.000Z</time>
      </trkpt>
      <trkpt lat="47.57095" lon="6.80473">
        <ele>413</ele>
        <time>2016-04-10T09:15:09.000Z</time>
      </trkpt>
      <trkpt lat="47.57098" lon="6.80478">
        <ele>414</ele>
        <time>2016-04-10T09:15:10.000Z</time>
      </trkpt>
      <trkpt lat="47.571" lon="6.80482">
        <ele>414</ele>
        <time>2016-04-10T09:15:11.000Z</time>
      </trkpt>
      <trkpt lat="47.57104" lon="6.80488">
        <ele>414</ele>
        <time>2016-04-10T09:15:12.000Z</time>
      </trkpt>
      <trkpt lat="47.57107" lon="6.80491">
        <ele>414</ele>
        <time>2016-04-10T09:15:13.000Z</time>
      </trkpt>
      <trkpt lat="47.57111" lon="6.80495">
        <ele>414</ele>
        <time>2016-04-10T09:15:14.000Z</time>
      </trkpt>
      <trkpt lat="47.57114" lon="6.80498">
        <ele>413</ele>
        <time>2016-04-10T09:15:15.000Z</time>
      </trkpt>
      <trkpt lat="47.57118" lon="6.805">
        <ele>413</ele>
        <time>2016-04-10T09:15:16.000Z</time>
      </trkpt>
      <trkpt lat="47.57123" lon="6.80502">
        <ele>415</ele>
        <time>2016-04-10T09:15:17.000Z</time>
      </trkpt>
      <trkpt lat="47.57127" lon="6.80504">
        <ele>415</ele>
        <time>2016-04-10T09:15:18.000Z</time>
      </trkpt>
      <trkpt lat="47.57131" lon="6.80508">
        <ele>415</ele>
        <time>2016-04-10T09:15:19.000Z</time>
      </trkpt>
      <trkpt lat="47.57134" lon="6.80513">
        <ele>415</ele>
        <time>2016-04-10T09:15:20.000Z</time>
      </trkpt>
      <trkpt lat="47.57138" lon="6.80518">
        <ele>415</ele>
        <time>2016-04-10T09:15:21.000Z</time>
      </trkpt>
      <trkpt lat="47.5714" lon="6.80522">
        <ele>415</ele>
        <time>2016-04-10T09:15:22.000Z</time>
      </trkpt>
      <trkpt lat="47.57143" lon="6.80526">
        <ele>415</ele>
        <time>2016-04-10T09:15:23.000Z</time>
      </trkpt>
      <trkpt lat="47.57144" lon="6.80531">
        <ele>415</ele>
        <time>2016-04-10T09:15:24.000Z</time>
      </trkpt>
      <trkpt lat="47.57146" lon="6.80536">
        <ele>415</ele>
        <time>2016-04-10T09:15:25.000Z</time>
      </trkpt>
      <trkpt lat="47.57147" lon="6.80541">
        <ele>415</ele>
        <time>2016-04-10T09:15:26.000Z</time>
      </trkpt>
      <trkpt lat="47.57148" lon="6.80547">
        <ele>415</ele>
        <time>2016-04-10T09:15:27.000Z</time>
      </trkpt>
      <trkpt lat="47.5715" lon="6.80552">
        <ele>415</ele>
        <time>2016-04-10T09:15:28.000Z</time>
      </trkpt>
      <trkpt lat="47.57151" lon="6.80557">
        <ele>415</ele>
        <time>2016-04-10T09:15:29.000Z</time>
      </trkpt>
      <trkpt lat="47.57153" lon="6.80561">
        <ele>415</ele>
        <time>2016-04-10T09:15:30.000Z</time>
      </trkpt>
      <trkpt lat="47.57155" lon="6.80565">
        <ele>415</ele>
        <time>2016-04-10T09:15:31.000Z</time>
      </trkpt>
      <trkpt lat="47.57157" lon="6.80569">
        <ele>415</ele>
        <time>2016-04-10T09:15:32.000Z</time>
      </trkpt>
      <trkpt lat="47.57159" lon="6.80574">
        <ele>414</ele>
        <time>2016-04-10T09:15:33.000Z</time>
      </trkpt>
      <trkpt lat="47.57161" lon="6.8058">
        <ele>414</ele>
        <time>2016-04-10T09:15:34.000Z</time>
      </trkpt>
      <trkpt lat="47.57162" lon="6.80585">
        <ele>414</ele>
        <time>2016-04-10T09:15:35.000Z</time>
      </trkpt>
      <trkpt lat="47.57164" lon="6.80591">
        <ele>414</ele>
        <time>2016-04-10T09:15:36.000Z</time>
      </trkpt>
      <trkpt lat="47.57166" lon="6.80596">
        <ele>414</ele>
        <time>2016-04-10T09:15:37.000Z</time>
      </trkpt>
      <trkpt lat="47.57168" lon="6.806">
        <ele>411</ele>
        <time>2016-04-10T09:15:38.000Z</time>
      </trkpt>
      <trkpt lat="47.5717" lon="6.80604">
        <ele>411</ele>
        <time>2016-04-10T09:15:39.000Z</time>
      </trkpt>
      <trkpt lat="47.57173" lon="6.80607">
        <ele>410</ele>
        <time>2016-04-10T09:15:40.000Z</time>
      </trkpt>
      <trkpt lat="47.57176" lon="6.80611">
        <ele>410</ele>
        <time>2016-04-10T09:15:41.000Z</time>
      </trkpt>
      <trkpt lat="47.57178" lon="6.80614">
        <ele>410</ele>
        <time>2016-04-10T09:15:42.000Z</time>
      </trkpt>
      <trkpt lat="47.57181" lon="6.80618">
        <ele>409</ele>
        <time>2016-04-10T09:15:43.000Z</time>
      </trkpt>
      <trkpt lat="47.57184" lon="6.80623">
        <ele>409</ele>
        <time>2016-04-10T09:15:44.000Z</time>
      </trkpt>
      <trkpt lat="47.57191" lon="6.80637">
        <ele>409</ele>
        <time>2016-04-10T09:15:45.000Z</time>
      </trkpt>
      <trkpt lat="47.57194" lon="6.80645">
        <ele>408</ele>
        <time>2016-04-10T09:15:46.000Z</time>
      </trkpt>
      <trkpt lat="47.57199" lon="6.80654">
        <ele>408</ele>
        <time>2016-04-10T09:15:47.000Z</time>
      </trkpt>
      <trkpt lat="47.57203" lon="6.8066">
        <ele>408</ele>
        <time>2016-04-10T09:15:48.000Z</time>
      </trkpt>
      <trkpt lat="47.57206" lon="6.80668">
        <ele>407</ele>
        <time>2016-04-10T09:15:49.000Z</time>
      </trkpt>
      <trkpt lat="47.5721" lon="6.80674">
        <ele>407</ele>
        <time>2016-04-10T09:15:50.000Z</time>
      </trkpt>
      <trkpt lat="47.57213" lon="6.8068">
        <ele>407</ele>
        <time>2016-04-10T09:15:51.000Z</time>
      </trkpt>
      <trkpt lat="47.57218" lon="6.80686">
        <ele>406</ele>
        <time>2016-04-10T09:15:52.000Z</time>
      </trkpt>
      <trkpt lat="47.57222" lon="6.80693">
        <ele>406</ele>
        <time>2016-04-10T09:15:53.000Z</time>
      </trkpt>
      <trkpt lat="47.57227" lon="6.80705">
        <ele>406</ele>
        <time>2016-04-10T09:15:54.000Z</time>
      </trkpt>
      <trkpt lat="47.57232" lon="6.80713">
        <ele>406</ele>
        <time>2016-04-10T09:15:55.000Z</time>
      </trkpt>
      <trkpt lat="47.57237" lon="6.80726">
        <ele>406</ele>
        <time>2016-04-10T09:15:56.000Z</time>
      </trkpt>
      <trkpt lat="47.5724" lon="6.80733">
        <ele>405</ele>
        <time>2016-04-10T09:15:57.000Z</time>
      </trkpt>
      <trkpt lat="47.57245" lon="6.80741">
        <ele>404</ele>
        <time>2016-04-10T09:15:58.000Z</time>
      </trkpt>
      <trkpt lat="47.57249" lon="6.80748">
        <ele>403</ele>
        <time>2016-04-10T09:15:59.000Z</time>
      </trkpt>
      <trkpt lat="47.57254" lon="6.80755">
        <ele>402</ele>
        <time>2016-04-10T09:16:00.000Z</time>
      </trkpt>
      <trkpt lat="47.5726" lon="6.80765">
        <ele>401</ele>
        <time>2016-04-10T09:16:01.000Z</time>
      </trkpt>
      <trkpt lat="47.57265" lon="6.80776">
        <ele>401</ele>
        <time>2016-04-10T09:16:02.000Z</time>
      </trkpt>
      <trkpt lat="47.57268" lon="6.80788">
        <ele>400</ele>
        <time>2016-04-10T09:16:03.000Z</time>
      </trkpt>
      <trkpt lat="47.57271" lon="6.80799">
        <ele>400</ele>
        <time>2016-04-10T09:16:04.000Z</time>
      </trkpt>
      <trkpt lat="47.57273" lon="6.8081">
        <ele>399</ele>
        <time>2016-04-10T09:16:05.000Z</time>
      </trkpt>
      <trkpt lat="47.57276" lon="6.80821">
        <ele>399</ele>
        <time>2016-04-10T09:16:06.000Z</time>
      </trkpt>
      <trkpt lat="47.57278" lon="6.80831">
        <ele>399</ele>
        <time>2016-04-10T09:16:07.000Z</time>
      </trkpt>
      <trkpt lat="47.57281" lon="6.80838">
        <ele>396</ele>
        <time>2016-04-10T09:16:08.000Z</time>
      </trkpt>
      <trkpt lat="47.57286" lon="6.80846">
        <ele>396</ele>
        <time>2016-04-10T09:16:09.000Z</time>
      </trkpt>
      <trkpt lat="47.57292" lon="6.80855">
        <ele>395</ele>
        <time>2016-04-10T09:16:10.000Z</time>
      </trkpt>
      <trkpt lat="47.57297" lon="6.80864">
        <ele>395</ele>
        <time>2016-04-10T09:16:11.000Z</time>
      </trkpt>
      <trkpt lat="47.57303" lon="6.80873">
        <ele>395</ele>
        <time>2016-04-10T09:16:12.000Z</time>
      </trkpt>
      <trkpt lat="47.57306" lon="6.80886">
        <ele>395</ele>
        <time>2016-04-10T09:16:13.000Z</time>
      </trkpt>
      <trkpt lat="47.5731" lon="6.80898">
        <ele>394</ele>
        <time>2016-04-10T09:16:14.000Z</time>
      </trkpt>
      <trkpt lat="47.57315" lon="6.80908">
        <ele>394</ele>
        <time>2016-04-10T09:16:15.000Z</time>
      </trkpt>
      <trkpt lat="47.5732" lon="6.80916">
        <ele>393</ele>
        <time>2016-04-10T09:16:16.000Z</time>
      </trkpt>
      <trkpt lat="47.57326" lon="6.80925">
        <ele>392</ele>
        <time>2016-04-10T09:16:17.000Z</time>
      </trkpt>
      <trkpt lat="47.57329" lon="6.80936">
        <ele>392</ele>
        <time>2016-04-10T09:16:18.000Z</time>
      </trkpt>
      <trkpt lat="47.57331" lon="6.80947">
        <ele>392</ele>
        <time>2016-04-10T09:16:19.000Z</time>
      </trkpt>
      <trkpt lat="47.57334" lon="6.80956">
        <ele>394</ele>
        <time>2016-04-10T09:16:20.000Z</time>
      </trkpt>
      <trkpt lat="47.57336" lon="6.80965">
        <ele>394</ele>
        <time>2016-04-10T09:16:21.000Z</time>
      </trkpt>
      <trkpt lat="47.57336" lon="6.80974">
        <ele>393</ele>
        <time>2016-04-10T09:16:22.000Z</time>
      </trkpt>
      <trkpt lat="47.57338" lon="6.80981">
        <ele>393</ele>
        <time>2016-04-10T09:16:23.000Z</time>
      </trkpt>
      <trkpt lat="47.5734" lon="6.80988">
        <ele>393</ele>
        <time>2016-04-10T09:16:24.000Z</time>
      </trkpt>
      <trkpt lat="47.57344" lon="6.80988">
        <ele>393</ele>
        <time>2016-04-10T09:16:25.000Z</time>
      </trkpt>
      <trkpt lat="47.57346" lon="6.80987">
        <ele>393</ele>
        <time>2016-04-10T09:16:26.000Z</time>
      </trkpt>
      <trkpt lat="47.57347" lon="6.80984">
        <ele>393</ele>
        <time>2016-04-10T09:16:27.000Z</time>
      </trkpt>
      <trkpt lat="47.57346" lon="6.80978">
        <ele>394</ele>
        <time>2016-04-10T09:16:28.000Z</time>
      </trkpt>
      <trkpt lat="47.57347" lon="6.80975">
        <ele>394</ele>
        <time>2016-04-10T09:16:29.000Z</time>
      </trkpt>
      <trkpt lat="47.57348" lon="6.80971">
        <ele>394</ele>
        <time>2016-04-10T09:16:30.000Z</time>
      </trkpt>
      <trkpt lat="47.57349" lon="6.80968">
        <ele>394</ele>
        <time>2016-04-10T09:16:31.000Z</time>
      </trkpt>
      <trkpt lat="47.5735" lon="6.80964">
        <ele>394</ele>
        <time>2016-04-10T09:16:32.000Z</time>
      </trkpt>
      <trkpt lat="47.57352" lon="6.8096">
        <ele>394</ele>
        <time>2016-04-10T09:16:33.000Z</time>
      </trkpt>
      <trkpt lat="47.57354" lon="6.80957">
        <ele>395</ele>
        <time>2016-04-10T09:16:34.000Z</time>
      </trkpt>
      <trkpt lat="47.57356" lon="6.80953">
        <ele>395</ele>
        <time>2016-04-10T09:16:35.000Z</time>
      </trkpt>
      <trkpt lat="47.57358" lon="6.80949">
        <ele>395</ele>
        <time>2016-04-10T09:16:36.000Z</time>
      </trkpt>
      <trkpt lat="47.5736" lon="6.80946">
        <ele>395</ele>
        <time>2016-04-10T09:16:37.000Z</time>
      </trkpt>
      <trkpt lat="47.57362" lon="6.80942">
        <ele>395</ele>
        <time>2016-04-10T09:16:38.000Z</time>
      </trkpt>
      <trkpt lat="47.57365" lon="6.80939">
        <ele>395</ele>
        <time>2016-04-10T09:16:39.000Z</time>
      </trkpt>
      <trkpt lat="47.57367" lon="6.80935">
        <ele>395</ele>
        <time>2016-04-10T09:16:40.000Z</time>
      </trkpt>
      <trkpt lat="47.57369" lon="6.80931">
        <ele>395</ele>
        <time>2016-04-10T09:16:41.000Z</time>
      </trkpt>
      <trkpt lat="47.57371" lon="6.80928">
        <ele>396</ele>
        <time>2016-04-10T09:16:42.000Z</time>
      </trkpt>
      <trkpt lat="47.57374" lon="6.80924">
        <ele>396</ele>
        <time>2016-04-10T09:16:43.000Z</time>
      </trkpt>
      <trkpt lat="47.57375" lon="6.80921">
        <ele>396</ele>
        <time>2016-04-10T09:16:44.000Z</time>
      </trkpt>
      <trkpt lat="47.57377" lon="6.80919">
        <ele>396</ele>
        <time>2016-04-10T09:16:45.000Z</time>
      </trkpt>
      <trkpt lat="47.57379" lon="6.80916">
        <ele>397</ele>
        <time>2016-04-10T09:16:46.000Z</time>
      </trkpt>
      <trkpt lat="47.5738" lon="6.80913">
        <ele>397</ele>
        <time>2016-04-10T09:16:47.000Z</time>
      </trkpt>
      <trkpt lat="47.57382" lon="6.80911">
        <ele>397</ele>
        <time>2016-04-10T09:16:48.000Z</time>
      </trkpt>
      <trkpt lat="47.57384" lon="6.80908">
        <ele>397</ele>
        <time>2016-04-10T09:16:49.000Z</time>
      </trkpt>
      <trkpt lat="47.57386" lon="6.80905">
        <ele>397</ele>
        <time>2016-04-10T09:16:50.000Z</time>
      </trkpt>
      <trkpt lat="47.57388" lon="6.80903">
        <ele>397</ele>
        <time>2016-04-10T09:16:51.000Z</time>
      </trkpt>
      <trkpt lat="47.5739" lon="6.809">
        <ele>398</ele>
        <time>2016-04-10T09:16:52.000Z</time>
      </trkpt>
      <trkpt lat="47.57392" lon="6.80897">
        <ele>398</ele>
        <time>2016-04-10T09:16:53.000Z</time>
      </trkpt>
      <trkpt lat="47.57393" lon="6.80894">
        <ele>398</ele>
        <time>2016-04-10T09:16:54.000Z</time>
      </trkpt>
      <trkpt lat="47.57395" lon="6.80892">
        <ele>398</ele>
        <time>2016-04-10T09:16:55.000Z</time>
      </trkpt>
      <trkpt lat="47.57397" lon="6.80889">
        <ele>398</ele>
        <time>2016-04-10T09:16:56.000Z</time>
      </trkpt>
      <trkpt lat="47.57399" lon="6.80886">
        <ele>398</ele>
        <time>2016-04-10T09:16:57.000Z</time>
      </trkpt>
      <trkpt lat="47.574" lon="6.80883">
        <ele>398</ele>
        <time>2016-04-10T09:16:58.000Z</time>
      </trkpt>
      <trkpt lat="47.57402" lon="6.80881">
        <ele>398</ele>
        <time>2016-04-10T09:16:59.000Z</time>
      </trkpt>
      <trkpt lat="47.57404" lon="6.80878">
        <ele>398</ele>
        <time>2016-04-10T09:17:00.000Z</time>
      </trkpt>
      <trkpt lat="47.57406" lon="6.80875">
        <ele>398</ele>
        <time>2016-04-10T09:17:01.000Z</time>
      </trkpt>
      <trkpt lat="47.57408" lon="6.80873">
        <ele>398</ele>
        <time>2016-04-10T09:17:02.000Z</time>
      </trkpt>
      <trkpt lat="47.5741" lon="6.8087">
        <ele>398</ele>
        <time>2016-04-10T09:17:03.000Z</time>
      </trkpt>
      <trkpt lat="47.57411" lon="6.80868">
        <ele>398</ele>
        <time>2016-04-10T09:17:04.000Z</time>
      </trkpt>
      <trkpt lat="47.57412" lon="6.80865">
        <ele>398</ele>
        <time>2016-04-10T09:17:05.000Z</time>
      </trkpt>
      <trkpt lat="47.57414" lon="6.80862">
        <ele>398</ele>
        <time>2016-04-10T09:17:06.000Z</time>
      </trkpt>
      <trkpt lat="47.57417" lon="6.80858">
        <ele>403</ele>
        <time>2016-04-10T09:17:08.000Z</time>
      </trkpt>
      <trkpt lat="47.57418" lon="6.80855">
        <ele>403</ele>
        <time>2016-04-10T09:17:09.000Z</time>
      </trkpt>
      <trkpt lat="47.5742" lon="6.8085">
        <ele>403</ele>
        <time>2016-04-10T09:17:11.000Z</time>
      </trkpt>
      <trkpt lat="47.57421" lon="6.80848">
        <ele>403</ele>
        <time>2016-04-10T09:17:12.000Z</time>
      </trkpt>
      <trkpt lat="47.57422" lon="6.80843">
        <ele>402</ele>
        <time>2016-04-10T09:17:14.000Z</time>
      </trkpt>
      <trkpt lat="47.57422" lon="6.80841">
        <ele>402</ele>
        <time>2016-04-10T09:17:15.000Z</time>
      </trkpt>
      <trkpt lat="47.57424" lon="6.80836">
        <ele>402</ele>
        <time>2016-04-10T09:17:17.000Z</time>
      </trkpt>
      <trkpt lat="47.57424" lon="6.80832">
        <ele>402</ele>
        <time>2016-04-10T09:17:18.000Z</time>
      </trkpt>
      <trkpt lat="47.57425" lon="6.80826">
        <ele>403</ele>
        <time>2016-04-10T09:17:20.000Z</time>
      </trkpt>
      <trkpt lat="47.57426" lon="6.80823">
        <ele>404</ele>
        <time>2016-04-10T09:17:21.000Z</time>
      </trkpt>
      <trkpt lat="47.57429" lon="6.80818">
        <ele>405</ele>
        <time>2016-04-10T09:17:23.000Z</time>
      </trkpt>
      <trkpt lat="47.5743" lon="6.80815">
        <ele>405</ele>
        <time>2016-04-10T09:17:24.000Z</time>
      </trkpt>
      <trkpt lat="47.57431" lon="6.80809">
        <ele>406</ele>
        <time>2016-04-10T09:17:26.000Z</time>
      </trkpt>
      <trkpt lat="47.57431" lon="6.80805">
        <ele>406</ele>
        <time>2016-04-10T09:17:27.000Z</time>
      </trkpt>
      <trkpt lat="47.57431" lon="6.80802">
        <ele>406</ele>
        <time>2016-04-10T09:17:28.000Z</time>
      </trkpt>
      <trkpt lat="47.57431" lon="6.80799">
        <ele>406</ele>
        <time>2016-04-10T09:17:29.000Z</time>
      </trkpt>
      <trkpt lat="47.57432" lon="6.80793">
        <ele>407</ele>
        <time>2016-04-10T09:17:31.000Z</time>
      </trkpt>
      <trkpt lat="47.57432" lon="6.8079">
        <ele>407</ele>
        <time>2016-04-10T09:17:32.000Z</time>
      </trkpt>
      <trkpt lat="47.57431" lon="6.80785">
        <ele>407</ele>
        <time>2016-04-10T09:17:34.000Z</time>
      </trkpt>
      <trkpt lat="47.5743" lon="6.80782">
        <ele>407</ele>
        <time>2016-04-10T09:17:35.000Z</time>
      </trkpt>
      <trkpt lat="47.57429" lon="6.80776">
        <ele>407</ele>
        <time>2016-04-10T09:17:37.000Z</time>
      </trkpt>
      <trkpt lat="47.57428" lon="6.80773">
        <ele>407</ele>
        <time>2016-04-10T09:17:38.000Z</time>
      </trkpt>
      <trkpt lat="47.57428" lon="6.8077">
        <ele>407</ele>
        <time>2016-04-10T09:17:39.000Z</time>
      </trkpt>
      <trkpt lat="47.57428" lon="6.80766">
        <ele>407</ele>
        <time>2016-04-10T09:17:40.000Z</time>
      </trkpt>
      <trkpt lat="47.57428" lon="6.80762">
        <ele>407</ele>
        <time>2016-04-10T09:17:41.000Z</time>
      </trkpt>
      <trkpt lat="47.57428" lon="6.80759">
        <ele>407</ele>
        <time>2016-04-10T09:17:42.000Z</time>
      </trkpt>
      <trkpt lat="47.57428" lon="6.80755">
        <ele>407</ele>
        <time>2016-04-10T09:17:43.000Z</time>
      </trkpt>
      <trkpt lat="47.57428" lon="6.80751">
        <ele>407</ele>
        <time>2016-04-10T09:17:44.000Z</time>
      </trkpt>
      <trkpt lat="47.57428" lon="6.80748">
        <ele>408</ele>
        <time>2016-04-10T09:17:45.000Z</time>
      </trkpt>
      <trkpt lat="47.57427" lon="6.80744">
        <ele>408</ele>
        <time>2016-04-10T09:17:46.000Z</time>
      </trkpt>
      <trkpt lat="47.57428" lon="6.80741">
        <ele>409</ele>
        <time>2016-04-10T09:17:47.000Z</time>
      </trkpt>
      <trkpt lat="47.57428" lon="6.80737">
        <ele>409</ele>
        <time>2016-04-10T09:17:48.000Z</time>
      </trkpt>
      <trkpt lat="47.57428" lon="6.80734">
        <ele>409</ele>
        <time>2016-04-10T09:17:49.000Z</time>
      </trkpt>
      <trkpt lat="47.57428" lon="6.8073">
        <ele>410</ele>
        <time>2016-04-10T09:17:50.000Z</time>
      </trkpt>
      <trkpt lat="47.57428" lon="6.80727">
        <ele>410</ele>
        <time>2016-04-10T09:17:51.000Z</time>
      </trkpt>
      <trkpt lat="47.57428" lon="6.80723">
        <ele>410</ele>
        <time>2016-04-10T09:17:52.000Z</time>
      </trkpt>
      <trkpt lat="47.57428" lon="6.80719">
        <ele>410</ele>
        <time>2016-04-10T09:17:53.000Z</time>
      </trkpt>
      <trkpt lat="47.57428" lon="6.80715">
        <ele>411</ele>
        <time>2016-04-10T09:17:54.000Z</time>
      </trkpt>
      <trkpt lat="47.57428" lon="6.8071">
        <ele>411</ele>
        <time>2016-04-10T09:17:55.000Z</time>
      </trkpt>
      <trkpt lat="47.57428" lon="6.80706">
        <ele>411</ele>
        <time>2016-04-10T09:17:56.000Z</time>
      </trkpt>
      <trkpt lat="47.57428" lon="6.80701">
        <ele>411</ele>
        <time>2016-04-10T09:17:57.000Z</time>
      </trkpt>
      <trkpt lat="47.57428" lon="6.80696">
        <ele>411</ele>
        <time>2016-04-10T09:17:58.000Z</time>
      </trkpt>
      <trkpt lat="47.57429" lon="6.80691">
        <ele>412</ele>
        <time>2016-04-10T09:17:59.000Z</time>
      </trkpt>
      <trkpt lat="47.5743" lon="6.80686">
        <ele>412</ele>
        <time>2016-04-10T09:18:00.000Z</time>
      </trkpt>
      <trkpt lat="47.5743" lon="6.80681">
        <ele>412</ele>
        <time>2016-04-10T09:18:01.000Z</time>
      </trkpt>
      <trkpt lat="47.57431" lon="6.80676">
        <ele>412</ele>
        <time>2016-04-10T09:18:02.000Z</time>
      </trkpt>
      <trkpt lat="47.57432" lon="6.80671">
        <ele>412</ele>
        <time>2016-04-10T09:18:03.000Z</time>
      </trkpt>
      <trkpt lat="47.57433" lon="6.80666">
        <ele>413</ele>
        <time>2016-04-10T09:18:04.000Z</time>
      </trkpt>
      <trkpt lat="47.57435" lon="6.80661">
        <ele>413</ele>
        <time>2016-04-10T09:18:05.000Z</time>
      </trkpt>
      <trkpt lat="47.57436" lon="6.80656">
        <ele>413</ele>
        <time>2016-04-10T09:18:06.000Z</time>
      </trkpt>
      <trkpt lat="47.57437" lon="6.80651">
        <ele>413</ele>
        <time>2016-04-10T09:18:07.000Z</time>
      </trkpt>
      <trkpt lat="47.57438" lon="6.80646">
        <ele>413</ele>
        <time>2016-04-10T09:18:08.000Z</time>
      </trkpt>
      <trkpt lat="47.5744" lon="6.80641">
        <ele>413</ele>
        <time>2016-04-10T09:18:09.000Z</time>
      </trkpt>
      <trkpt lat="47.57441" lon="6.80636">
        <ele>413</ele>
        <time>2016-04-10T09:18:10.000Z</time>
      </trkpt>
      <trkpt lat="47.57443" lon="6.80631">
        <ele>413</ele>
        <time>2016-04-10T09:18:11.000Z</time>
      </trkpt>
      <trkpt lat="47.57445" lon="6.80626">
        <ele>413</ele>
        <time>2016-04-10T09:18:12.000Z</time>
      </trkpt>
      <trkpt lat="47.57446" lon="6.80621">
        <ele>413</ele>
        <time>2016-04-10T09:18:13.000Z</time>
      </trkpt>
      <trkpt lat="47.57448" lon="6.80616">
        <ele>413</ele>
        <time>2016-04-10T09:18:14.000Z</time>
      </trkpt>
      <trkpt lat="47.5745" lon="6.80611">
        <ele>413</ele>
        <time>2016-04-10T09:18:15.000Z</time>
      </trkpt>
      <trkpt lat="47.57452" lon="6.80607">
        <ele>413</ele>
        <time>2016-04-10T09:18:16.000Z</time>
      </trkpt>
      <trkpt lat="47.57454" lon="6.80603">
        <ele>413</ele>
        <time>2016-04-10T09:18:17.000Z</time>
      </trkpt>
      <trkpt lat="47.57456" lon="6.80598">
        <ele>413</ele>
        <time>2016-04-10T09:18:18.000Z</time>
      </trkpt>
      <trkpt lat="47.57458" lon="6.80594">
        <ele>413</ele>
        <time>2016-04-10T09:18:19.000Z</time>
      </trkpt>
      <trkpt lat="47.5746" lon="6.80589">
        <ele>413</ele>
        <time>2016-04-10T09:18:20.000Z</time>
      </trkpt>
      <trkpt lat="47.57461" lon="6.80585">
        <ele>413</ele>
        <time>2016-04-10T09:18:21.000Z</time>
      </trkpt>
      <trkpt lat="47.57463" lon="6.8058">
        <ele>412</ele>
        <time>2016-04-10T09:18:22.000Z</time>
      </trkpt>
      <trkpt lat="47.57464" lon="6.80576">
        <ele>412</ele>
        <time>2016-04-10T09:18:23.000Z</time>
      </trkpt>
      <trkpt lat="47.57466" lon="6.80572">
        <ele>412</ele>
        <time>2016-04-10T09:18:24.000Z</time>
      </trkpt>
      <trkpt lat="47.57468" lon="6.80568">
        <ele>412</ele>
        <time>2016-04-10T09:18:25.000Z</time>
      </trkpt>
      <trkpt lat="47.57469" lon="6.80563">
        <ele>412</ele>
        <time>2016-04-10T09:18:26.000Z</time>
      </trkpt>
      <trkpt lat="47.57471" lon="6.80559">
        <ele>412</ele>
        <time>2016-04-10T09:18:27.000Z</time>
      </trkpt>
      <trkpt lat="47.57473" lon="6.80554">
        <ele>412</ele>
        <time>2016-04-10T09:18:28.000Z</time>
      </trkpt>
      <trkpt lat="47.57474" lon="6.8055">
        <ele>411</ele>
        <time>2016-04-10T09:18:29.000Z</time>
      </trkpt>
      <trkpt lat="47.57476" lon="6.80546">
        <ele>411</ele>
        <time>2016-04-10T09:18:30.000Z</time>
      </trkpt>
      <trkpt lat="47.57477" lon="6.80542">
        <ele>411</ele>
        <time>2016-04-10T09:18:31.000Z</time>
      </trkpt>
      <trkpt lat="47.57479" lon="6.80537">
        <ele>411</ele>
        <time>2016-04-10T09:18:32.000Z</time>
      </trkpt>
      <trkpt lat="47.5748" lon="6.80533">
        <ele>411</ele>
        <time>2016-04-10T09:18:33.000Z</time>
      </trkpt>
      <trkpt lat="47.57482" lon="6.80528">
        <ele>411</ele>
        <time>2016-04-10T09:18:34.000Z</time>
      </trkpt>
      <trkpt lat="47.57483" lon="6.80523">
        <ele>411</ele>
        <time>2016-04-10T09:18:35.000Z</time>
      </trkpt>
      <trkpt lat="47.57485" lon="6.80519">
        <ele>411</ele>
        <time>2016-04-10T09:18:36.000Z</time>
      </trkpt>
      <trkpt lat="47.57486" lon="6.80514">
        <ele>411</ele>
        <time>2016-04-10T09:18:37.000Z</time>
      </trkpt>
      <trkpt lat="47.57488" lon="6.8051">
        <ele>411</ele>
        <time>2016-04-10T09:18:38.000Z</time>
      </trkpt>
      <trkpt lat="47.5749" lon="6.80506">
        <ele>410</ele>
        <time>2016-04-10T09:18:39.000Z</time>
      </trkpt>
      <trkpt lat="47.57492" lon="6.80502">
        <ele>410</ele>
        <time>2016-04-10T09:18:40.000Z</time>
      </trkpt>
      <trkpt lat="47.57494" lon="6.80498">
        <ele>410</ele>
        <time>2016-04-10T09:18:41.000Z</time>
      </trkpt>
      <trkpt lat="47.57496" lon="6.80495">
        <ele>410</ele>
        <time>2016-04-10T09:18:42.000Z</time>
      </trkpt>
      <trkpt lat="47.57498" lon="6.80491">
        <ele>410</ele>
        <time>2016-04-10T09:18:43.000Z</time>
      </trkpt>
      <trkpt lat="47.575" lon="6.80488">
        <ele>410</ele>
        <time>2016-04-10T09:18:44.000Z</time>
      </trkpt>
      <trkpt lat="47.57502" lon="6.80484">
        <ele>411</ele>
        <time>2016-04-10T09:18:45.000Z</time>
      </trkpt>
      <trkpt lat="47.57505" lon="6.80481">
        <ele>411</ele>
        <time>2016-04-10T09:18:46.000Z</time>
      </trkpt>
      <trkpt lat="47.57507" lon="6.80478">
        <ele>411</ele>
        <time>2016-04-10T09:18:47.000Z</time>
      </trkpt>
      <trkpt lat="47.5751" lon="6.80475">
        <ele>411</ele>
        <time>2016-04-10T09:18:48.000Z</time>
      </trkpt>
      <trkpt lat="47.57512" lon="6.80472">
        <ele>411</ele>
        <time>2016-04-10T09:18:49.000Z</time>
      </trkpt>
      <trkpt lat="47.57514" lon="6.80469">
        <ele>411</ele>
        <time>2016-04-10T09:18:50.000Z</time>
      </trkpt>
      <trkpt lat="47.57517" lon="6.80467">
        <ele>411</ele>
        <time>2016-04-10T09:18:51.000Z</time>
      </trkpt>
      <trkpt lat="47.5752" lon="6.80464">
        <ele>411</ele>
        <time>2016-04-10T09:18:52.000Z</time>
      </trkpt>
      <trkpt lat="47.57522" lon="6.80462">
        <ele>411</ele>
        <time>2016-04-10T09:18:53.000Z</time>
      </trkpt>
      <trkpt lat="47.57525" lon="6.80459">
        <ele>411</ele>
        <time>2016-04-10T09:18:54.000Z</time>
      </trkpt>
      <trkpt lat="47.57528" lon="6.80457">
        <ele>411</ele>
        <time>2016-04-10T09:18:55.000Z</time>
      </trkpt>
      <trkpt lat="47.57531" lon="6.80455">
        <ele>412</ele>
        <time>2016-04-10T09:18:56.000Z</time>
      </trkpt>
      <trkpt lat="47.57533" lon="6.80452">
        <ele>412</ele>
        <time>2016-04-10T09:18:57.000Z</time>
      </trkpt>
      <trkpt lat="47.57536" lon="6.8045">
        <ele>412</ele>
        <time>2016-04-10T09:18:58.000Z</time>
      </trkpt>
      <trkpt lat="47.57539" lon="6.80447">
        <ele>412</ele>
        <time>2016-04-10T09:18:59.000Z</time>
      </trkpt>
      <trkpt lat="47.57541" lon="6.80444">
        <ele>412</ele>
        <time>2016-04-10T09:19:00.000Z</time>
      </trkpt>
      <trkpt lat="47.57544" lon="6.80441">
        <ele>412</ele>
        <time>2016-04-10T09:19:01.000Z</time>
      </trkpt>
      <trkpt lat="47.57546" lon="6.80439">
        <ele>412</ele>
        <time>2016-04-10T09:19:02.000Z</time>
      </trkpt>
      <trkpt lat="47.57549" lon="6.80436">
        <ele>412</ele>
        <time>2016-04-10T09:19:03.000Z</time>
      </trkpt>
      <trkpt lat="47.57552" lon="6.80434">
        <ele>412</ele>
        <time>2016-04-10T09:19:04.000Z</time>
      </trkpt>
      <trkpt lat="47.57554" lon="6.80432">
        <ele>412</ele>
        <time>2016-04-10T09:19:05.000Z</time>
      </trkpt>
      <trkpt lat="47.57557" lon="6.8043">
        <ele>412</ele>
        <time>2016-04-10T09:19:06.000Z</time>
      </trkpt>
      <trkpt lat="47.5756" lon="6.80428">
        <ele>412</ele>
        <time>2016-04-10T09:19:07.000Z</time>
      </trkpt>
      <trkpt lat="47.57563" lon="6.80427">
        <ele>412</ele>
        <time>2016-04-10T09:19:08.000Z</time>
      </trkpt>
      <trkpt lat="47.57566" lon="6.80425">
        <ele>412</ele>
        <time>2016-04-10T09:19:09.000Z</time>
      </trkpt>
      <trkpt lat="47.57569" lon="6.80423">
        <ele>412</ele>
        <time>2016-04-10T09:19:10.000Z</time>
      </trkpt>
      <trkpt lat="47.57572" lon="6.80422">
        <ele>413</ele>
        <time>2016-04-10T09:19:11.000Z</time>
      </trkpt>
      <trkpt lat="47.57575" lon="6.80422">
        <ele>413</ele>
        <time>2016-04-10T09:19:12.000Z</time>
      </trkpt>
      <trkpt lat="47.57578" lon="6.80421">
        <ele>413</ele>
        <time>2016-04-10T09:19:13.000Z</time>
      </trkpt>
      <trkpt lat="47.57581" lon="6.80421">
        <ele>413</ele>
        <time>2016-04-10T09:19:14.000Z</time>
      </trkpt>
      <trkpt lat="47.57584" lon="6.80421">
        <ele>414</ele>
        <time>2016-04-10T09:19:15.000Z</time>
      </trkpt>
      <trkpt lat="47.57587" lon="6.80421">
        <ele>414</ele>
        <time>2016-04-10T09:19:16.000Z</time>
      </trkpt>
      <trkpt lat="47.5759" lon="6.80421">
        <ele>415</ele>
        <time>2016-04-10T09:19:17.000Z</time>
      </trkpt>
      <trkpt lat="47.57593" lon="6.80422">
        <ele>415</ele>
        <time>2016-04-10T09:19:18.000Z</time>
      </trkpt>
      <trkpt lat="47.57596" lon="6.80423">
        <ele>416</ele>
        <time>2016-04-10T09:19:19.000Z</time>
      </trkpt>
      <trkpt lat="47.57599" lon="6.80424">
        <ele>416</ele>
        <time>2016-04-10T09:19:20.000Z</time>
      </trkpt>
      <trkpt lat="47.57601" lon="6.80424">
        <ele>416</ele>
        <time>2016-04-10T09:19:21.000Z</time>
      </trkpt>
      <trkpt lat="47.57603" lon="6.80425">
        <ele>416</ele>
        <time>2016-04-10T09:19:22.000Z</time>
      </trkpt>
      <trkpt lat="47.57606" lon="6.80426">
        <ele>417</ele>
        <time>2016-04-10T09:19:23.000Z</time>
      </trkpt>
      <trkpt lat="47.57608" lon="6.80427">
        <ele>417</ele>
        <time>2016-04-10T09:19:24.000Z</time>
      </trkpt>
      <trkpt lat="47.5761" lon="6.80428">
        <ele>417</ele>
        <time>2016-04-10T09:19:25.000Z</time>
      </trkpt>
      <trkpt lat="47.57613" lon="6.80429">
        <ele>417</ele>
        <time>2016-04-10T09:19:26.000Z</time>
      </trkpt>
      <trkpt lat="47.57616" lon="6.8043">
        <ele>418</ele>
        <time>2016-04-10T09:19:27.000Z</time>
      </trkpt>
      <trkpt lat="47.57619" lon="6.8043">
        <ele>418</ele>
        <time>2016-04-10T09:19:28.000Z</time>
      </trkpt>
      <trkpt lat="47.57621" lon="6.8043">
        <ele>418</ele>
        <time>2016-04-10T09:19:29.000Z</time>
      </trkpt>
      <trkpt lat="47.57624" lon="6.8043">
        <ele>418</ele>
        <time>2016-04-10T09:19:30.000Z</time>
      </trkpt>
      <trkpt lat="47.57626" lon="6.8043">
        <ele>418</ele>
        <time>2016-04-10T09:19:31.000Z</time>
      </trkpt>
      <trkpt lat="47.57629" lon="6.8043">
        <ele>419</ele>
        <time>2016-04-10T09:19:32.000Z</time>
      </trkpt>
      <trkpt lat="47.57633" lon="6.80429">
        <ele>419</ele>
        <time>2016-04-10T09:19:34.000Z</time>
      </trkpt>
      <trkpt lat="47.57635" lon="6.80429">
        <ele>419</ele>
        <time>2016-04-10T09:19:35.000Z</time>
      </trkpt>
      <trkpt lat="47.57638" lon="6.8043">
        <ele>419</ele>
        <time>2016-04-10T09:19:36.000Z</time>
      </trkpt>
      <trkpt lat="47.57642" lon="6.80431">
        <ele>419</ele>
        <time>2016-04-10T09:19:37.000Z</time>
      </trkpt>
      <trkpt lat="47.57645" lon="6.80432">
        <ele>420</ele>
        <time>2016-04-10T09:19:38.000Z</time>
      </trkpt>
      <trkpt lat="47.57648" lon="6.80432">
        <ele>420</ele>
        <time>2016-04-10T09:19:39.000Z</time>
      </trkpt>
      <trkpt lat="47.57651" lon="6.80431">
        <ele>420</ele>
        <time>2016-04-10T09:19:40.000Z</time>
      </trkpt>
      <trkpt lat="47.57654" lon="6.8043">
        <ele>420</ele>
        <time>2016-04-10T09:19:41.000Z</time>
      </trkpt>
      <trkpt lat="47.57657" lon="6.8043">
        <ele>420</ele>
        <time>2016-04-10T09:19:42.000Z</time>
      </trkpt>
      <trkpt lat="47.57659" lon="6.8043">
        <ele>421</ele>
        <time>2016-04-10T09:19:43.000Z</time>
      </trkpt>
      <trkpt lat="47.57662" lon="6.80429">
        <ele>421</ele>
        <time>2016-04-10T09:19:44.000Z</time>
      </trkpt>
      <trkpt lat="47.57665" lon="6.8043">
        <ele>421</ele>
        <time>2016-04-10T09:19:45.000Z</time>
      </trkpt>
      <trkpt lat="47.57668" lon="6.8043">
        <ele>423</ele>
        <time>2016-04-10T09:19:46.000Z</time>
      </trkpt>
      <trkpt lat="47.57671" lon="6.8043">
        <ele>423</ele>
        <time>2016-04-10T09:19:47.000Z</time>
      </trkpt>
      <trkpt lat="47.57673" lon="6.8043">
        <ele>423</ele>
        <time>2016-04-10T09:19:48.000Z</time>
      </trkpt>
      <trkpt lat="47.57676" lon="6.8043">
        <ele>423</ele>
        <time>2016-04-10T09:19:49.000Z</time>
      </trkpt>
      <trkpt lat="47.57678" lon="6.80429">
        <ele>423</ele>
        <time>2016-04-10T09:19:50.000Z</time>
      </trkpt>
      <trkpt lat="47.57681" lon="6.80429">
        <ele>423</ele>
        <time>2016-04-10T09:19:51.000Z</time>
      </trkpt>
      <trkpt lat="47.57684" lon="6.80429">
        <ele>423</ele>
        <time>2016-04-10T09:19:52.000Z</time>
      </trkpt>
      <trkpt lat="47.57687" lon="6.80429">
        <ele>423</ele>
        <time>2016-04-10T09:19:53.000Z</time>
      </trkpt>
      <trkpt lat="47.5769" lon="6.80429">
        <ele>424</ele>
        <time>2016-04-10T09:19:54.000Z</time>
      </trkpt>
      <trkpt lat="47.57693" lon="6.80429">
        <ele>424</ele>
        <time>2016-04-10T09:19:55.000Z</time>
      </trkpt>
      <trkpt lat="47.57697" lon="6.80429">
        <ele>424</ele>
        <time>2016-04-10T09:19:56.000Z</time>
      </trkpt>
      <trkpt lat="47.577" lon="6.80429">
        <ele>424</ele>
        <time>2016-04-10T09:19:57.000Z</time>
      </trkpt>
      <trkpt lat="47.57704" lon="6.80429">
        <ele>424</ele>
        <time>2016-04-10T09:19:58.000Z</time>
      </trkpt>
      <trkpt lat="47.57707" lon="6.80429">
        <ele>424</ele>
        <time>2016-04-10T09:19:59.000Z</time>
      </trkpt>
      <trkpt lat="47.57711" lon="6.80428">
        <ele>424</ele>
        <time>2016-04-10T09:20:00.000Z</time>
      </trkpt>
      <trkpt lat="47.57714" lon="6.80428">
        <ele>425</ele>
        <time>2016-04-10T09:20:01.000Z</time>
      </trkpt>
      <trkpt lat="47.57717" lon="6.80429">
        <ele>425</ele>
        <time>2016-04-10T09:20:02.000Z</time>
      </trkpt>
      <trkpt lat="47.5772" lon="6.80429">
        <ele>425</ele>
        <time>2016-04-10T09:20:03.000Z</time>
      </trkpt>
      <trkpt lat="47.57723" lon="6.80429">
        <ele>425</ele>
        <time>2016-04-10T09:20:04.000Z</time>
      </trkpt>
      <trkpt lat="47.57727" lon="6.8043">
        <ele>425</ele>
        <time>2016-04-10T09:20:05.000Z</time>
      </trkpt>
      <trkpt lat="47.5773" lon="6.8043">
        <ele>425</ele>
        <time>2016-04-10T09:20:06.000Z</time>
      </trkpt>
      <trkpt lat="47.57733" lon="6.80431">
        <ele>425</ele>
        <time>2016-04-10T09:20:07.000Z</time>
      </trkpt>
      <trkpt lat="47.57736" lon="6.80431">
        <ele>425</ele>
        <time>2016-04-10T09:20:08.000Z</time>
      </trkpt>
      <trkpt lat="47.57739" lon="6.80431">
        <ele>426</ele>
        <time>2016-04-10T09:20:09.000Z</time>
      </trkpt>
      <trkpt lat="47.57742" lon="6.80431">
        <ele>426</ele>
        <time>2016-04-10T09:20:10.000Z</time>
      </trkpt>
      <trkpt lat="47.57744" lon="6.80431">
        <ele>426</ele>
        <time>2016-04-10T09:20:11.000Z</time>
      </trkpt>
      <trkpt lat="47.57747" lon="6.80431">
        <ele>426</ele>
        <time>2016-04-10T09:20:12.000Z</time>
      </trkpt>
      <trkpt lat="47.5775" lon="6.80431">
        <ele>426</ele>
        <time>2016-04-10T09:20:13.000Z</time>
      </trkpt>
      <trkpt lat="47.57753" lon="6.80431">
        <ele>427</ele>
        <time>2016-04-10T09:20:14.000Z</time>
      </trkpt>
      <trkpt lat="47.57755" lon="6.80431">
        <ele>427</ele>
        <time>2016-04-10T09:20:15.000Z</time>
      </trkpt>
      <trkpt lat="47.57758" lon="6.80432">
        <ele>427</ele>
        <time>2016-04-10T09:20:16.000Z</time>
      </trkpt>
      <trkpt lat="47.57761" lon="6.80432">
        <ele>426</ele>
        <time>2016-04-10T09:20:17.000Z</time>
      </trkpt>
      <trkpt lat="47.57764" lon="6.80433">
        <ele>426</ele>
        <time>2016-04-10T09:20:18.000Z</time>
      </trkpt>
      <trkpt lat="47.57767" lon="6.80433">
        <ele>426</ele>
        <time>2016-04-10T09:20:19.000Z</time>
      </trkpt>
      <trkpt lat="47.5777" lon="6.80433">
        <ele>426</ele>
        <time>2016-04-10T09:20:20.000Z</time>
      </trkpt>
      <trkpt lat="47.57773" lon="6.80433">
        <ele>426</ele>
        <time>2016-04-10T09:20:21.000Z</time>
      </trkpt>
      <trkpt lat="47.57776" lon="6.80433">
        <ele>426</ele>
        <time>2016-04-10T09:20:22.000Z</time>
      </trkpt>
      <trkpt lat="47.57778" lon="6.80433">
        <ele>426</ele>
        <time>2016-04-10T09:20:23.000Z</time>
      </trkpt>
      <trkpt lat="47.57781" lon="6.80434">
        <ele>426</ele>
        <time>2016-04-10T09:20:24.000Z</time>
      </trkpt>
      <trkpt lat="47.57784" lon="6.80433">
        <ele>426</ele>
        <time>2016-04-10T09:20:25.000Z</time>
      </trkpt>
      <trkpt lat="47.57787" lon="6.80434">
        <ele>426</ele>
        <time>2016-04-10T09:20:26.000Z</time>
      </trkpt>
      <trkpt lat="47.57791" lon="6.80434">
        <ele>426</ele>
        <time>2016-04-10T09:20:27.000Z</time>
      </trkpt>
      <trkpt lat="47.57794" lon="6.80434">
        <ele>426</ele>
        <time>2016-04-10T09:20:28.000Z</time>
      </trkpt>
      <trkpt lat="47.57797" lon="6.80434">
        <ele>426</ele>
        <time>2016-04-10T09:20:29.000Z</time>
      </trkpt>
      <trkpt lat="47.578" lon="6.80434">
        <ele>426</ele>
        <time>2016-04-10T09:20:30.000Z</time>
      </trkpt>
      <trkpt lat="47.57804" lon="6.80434">
        <ele>427</ele>
        <time>2016-04-10T09:20:31.000Z</time>
      </trkpt>
      <trkpt lat="47.57807" lon="6.80433">
        <ele>427</ele>
        <time>2016-04-10T09:20:32.000Z</time>
      </trkpt>
      <trkpt lat="47.5781" lon="6.80433">
        <ele>427</ele>
        <time>2016-04-10T09:20:33.000Z</time>
      </trkpt>
      <trkpt lat="47.57813" lon="6.80433">
        <ele>427</ele>
        <time>2016-04-10T09:20:34.000Z</time>
      </trkpt>
      <trkpt lat="47.57816" lon="6.80434">
        <ele>427</ele>
        <time>2016-04-10T09:20:35.000Z</time>
      </trkpt>
      <trkpt lat="47.57819" lon="6.80434">
        <ele>427</ele>
        <time>2016-04-10T09:20:36.000Z</time>
      </trkpt>
      <trkpt lat="47.57822" lon="6.80434">
        <ele>427</ele>
        <time>2016-04-10T09:20:37.000Z</time>
      </trkpt>
      <trkpt lat="47.57825" lon="6.80435">
        <ele>427</ele>
        <time>2016-04-10T09:20:38.000Z</time>
      </trkpt>
      <trkpt lat="47.57828" lon="6.80435">
        <ele>427</ele>
        <time>2016-04-10T09:20:39.000Z</time>
      </trkpt>
      <trkpt lat="47.57831" lon="6.80436">
        <ele>427</ele>
        <time>2016-04-10T09:20:40.000Z</time>
      </trkpt>
      <trkpt lat="47.57834" lon="6.80437">
        <ele>427</ele>
        <time>2016-04-10T09:20:41.000Z</time>
      </trkpt>
      <trkpt lat="47.57838" lon="6.80437">
        <ele>427</ele>
        <time>2016-04-10T09:20:42.000Z</time>
      </trkpt>
      <trkpt lat="47.57841" lon="6.80437">
        <ele>427</ele>
        <time>2016-04-10T09:20:43.000Z</time>
      </trkpt>
      <trkpt lat="47.57844" lon="6.80437">
        <ele>427</ele>
        <time>2016-04-10T09:20:44.000Z</time>
      </trkpt>
      <trkpt lat="47.57847" lon="6.80436">
        <ele>427</ele>
        <time>2016-04-10T09:20:45.000Z</time>
      </trkpt>
      <trkpt lat="47.57849" lon="6.80436">
        <ele>427</ele>
        <time>2016-04-10T09:20:46.000Z</time>
      </trkpt>
      <trkpt lat="47.57851" lon="6.80435">
        <ele>427</ele>
        <time>2016-04-10T09:20:47.000Z</time>
      </trkpt>
      <trkpt lat="47.57854" lon="6.80434">
        <ele>427</ele>
        <time>2016-04-10T09:20:48.000Z</time>
      </trkpt>
      <trkpt lat="47.57856" lon="6.80434">
        <ele>427</ele>
        <time>2016-04-10T09:20:49.000Z</time>
      </trkpt>
      <trkpt lat="47.57859" lon="6.80433">
        <ele>427</ele>
        <time>2016-04-10T09:20:50.000Z</time>
      </trkpt>
      <trkpt lat="47.57862" lon="6.80433">
        <ele>427</ele>
        <time>2016-04-10T09:20:51.000Z</time>
      </trkpt>
      <trkpt lat="47.57864" lon="6.80433">
        <ele>427</ele>
        <time>2016-04-10T09:20:52.000Z</time>
      </trkpt>
      <trkpt lat="47.57867" lon="6.80433">
        <ele>427</ele>
        <time>2016-04-10T09:20:53.000Z</time>
      </trkpt>
      <trkpt lat="47.57869" lon="6.80434">
        <ele>427</ele>
        <time>2016-04-10T09:20:54.000Z</time>
      </trkpt>
      <trkpt lat="47.57872" lon="6.80434">
        <ele>427</ele>
        <time>2016-04-10T09:20:55.000Z</time>
      </trkpt>
      <trkpt lat="47.57874" lon="6.80435">
        <ele>427</ele>
        <time>2016-04-10T09:20:56.000Z</time>
      </trkpt>
      <trkpt lat="47.57877" lon="6.80436">
        <ele>427</ele>
        <time>2016-04-10T09:20:57.000Z</time>
      </trkpt>
      <trkpt lat="47.57879" lon="6.80437">
        <ele>427</ele>
        <time>2016-04-10T09:20:58.000Z</time>
      </trkpt>
      <trkpt lat="47.57882" lon="6.80439">
        <ele>427</ele>
        <time>2016-04-10T09:20:59.000Z</time>
      </trkpt>
      <trkpt lat="47.57885" lon="6.8044">
        <ele>427</ele>
        <time>2016-04-10T09:21:00.000Z</time>
      </trkpt>
      <trkpt lat="47.57888" lon="6.8044">
        <ele>427</ele>
        <time>2016-04-10T09:21:01.000Z</time>
      </trkpt>
      <trkpt lat="47.57891" lon="6.80441">
        <ele>427</ele>
        <time>2016-04-10T09:21:02.000Z</time>
      </trkpt>
      <trkpt lat="47.57894" lon="6.80441">
        <ele>427</ele>
        <time>2016-04-10T09:21:03.000Z</time>
      </trkpt>
      <trkpt lat="47.57897" lon="6.80441">
        <ele>427</ele>
        <time>2016-04-10T09:21:04.000Z</time>
      </trkpt>
      <trkpt lat="47.579" lon="6.8044">
        <ele>427</ele>
        <time>2016-04-10T09:21:05.000Z</time>
      </trkpt>
      <trkpt lat="47.57902" lon="6.80439">
        <ele>427</ele>
        <time>2016-04-10T09:21:05.998Z</time>
      </trkpt>
      <trkpt lat="47.57906" lon="6.80437">
        <ele>427</ele>
        <time>2016-04-10T09:21:07.000Z</time>
      </trkpt>
      <trkpt lat="47.5791" lon="6.80434">
        <ele>427</ele>
        <time>2016-04-10T09:21:08.000Z</time>
      </trkpt>
      <trkpt lat="47.57913" lon="6.80432">
        <ele>428</ele>
        <time>2016-04-10T09:21:09.000Z</time>
      </trkpt>
      <trkpt lat="47.57917" lon="6.80429">
        <ele>429</ele>
        <time>2016-04-10T09:21:10.000Z</time>
      </trkpt>
      <trkpt lat="47.57921" lon="6.80426">
        <ele>429</ele>
        <time>2016-04-10T09:21:11.000Z</time>
      </trkpt>
      <trkpt lat="47.57924" lon="6.80423">
        <ele>429</ele>
        <time>2016-04-10T09:21:12.000Z</time>
      </trkpt>
      <trkpt lat="47.57927" lon="6.8042">
        <ele>429</ele>
        <time>2016-04-10T09:21:13.000Z</time>
      </trkpt>
      <trkpt lat="47.5793" lon="6.80417">
        <ele>429</ele>
        <time>2016-04-10T09:21:14.000Z</time>
      </trkpt>
      <trkpt lat="47.57933" lon="6.80415">
        <ele>429</ele>
        <time>2016-04-10T09:21:15.000Z</time>
      </trkpt>
      <trkpt lat="47.57936" lon="6.80412">
        <ele>429</ele>
        <time>2016-04-10T09:21:16.000Z</time>
      </trkpt>
      <trkpt lat="47.57939" lon="6.80409">
        <ele>429</ele>
        <time>2016-04-10T09:21:17.000Z</time>
      </trkpt>
      <trkpt lat="47.57941" lon="6.80405">
        <ele>429</ele>
        <time>2016-04-10T09:21:18.000Z</time>
      </trkpt>
      <trkpt lat="47.57944" lon="6.804">
        <ele>429</ele>
        <time>2016-04-10T09:21:19.000Z</time>
      </trkpt>
      <trkpt lat="47.57947" lon="6.80396">
        <ele>429</ele>
        <time>2016-04-10T09:21:20.000Z</time>
      </trkpt>
      <trkpt lat="47.5795" lon="6.80392">
        <ele>429</ele>
        <time>2016-04-10T09:21:21.000Z</time>
      </trkpt>
      <trkpt lat="47.57953" lon="6.80388">
        <ele>429</ele>
        <time>2016-04-10T09:21:22.000Z</time>
      </trkpt>
      <trkpt lat="47.57957" lon="6.80384">
        <ele>429</ele>
        <time>2016-04-10T09:21:23.000Z</time>
      </trkpt>
      <trkpt lat="47.5796" lon="6.8038">
        <ele>429</ele>
        <time>2016-04-10T09:21:24.000Z</time>
      </trkpt>
      <trkpt lat="47.57964" lon="6.80375">
        <ele>429</ele>
        <time>2016-04-10T09:21:25.000Z</time>
      </trkpt>
      <trkpt lat="47.57967" lon="6.80371">
        <ele>429</ele>
        <time>2016-04-10T09:21:26.000Z</time>
      </trkpt>
      <trkpt lat="47.57971" lon="6.80364">
        <ele>429</ele>
        <time>2016-04-10T09:21:27.000Z</time>
      </trkpt>
      <trkpt lat="47.57974" lon="6.80359">
        <ele>429</ele>
        <time>2016-04-10T09:21:28.000Z</time>
      </trkpt>
      <trkpt lat="47.57976" lon="6.80354">
        <ele>429</ele>
        <time>2016-04-10T09:21:29.000Z</time>
      </trkpt>
      <trkpt lat="47.57978" lon="6.80349">
        <ele>428</ele>
        <time>2016-04-10T09:21:30.000Z</time>
      </trkpt>
      <trkpt lat="47.5798" lon="6.80345">
        <ele>428</ele>
        <time>2016-04-10T09:21:31.000Z</time>
      </trkpt>
      <trkpt lat="47.57984" lon="6.80341">
        <ele>428</ele>
        <time>2016-04-10T09:21:32.000Z</time>
      </trkpt>
      <trkpt lat="47.57987" lon="6.80328">
        <ele>426</ele>
        <time>2016-04-10T09:21:33.000Z</time>
      </trkpt>
      <trkpt lat="47.57989" lon="6.80322">
        <ele>426</ele>
        <time>2016-04-10T09:21:34.000Z</time>
      </trkpt>
      <trkpt lat="47.57993" lon="6.80314">
        <ele>425</ele>
        <time>2016-04-10T09:21:35.000Z</time>
      </trkpt>
      <trkpt lat="47.57996" lon="6.80309">
        <ele>425</ele>
        <time>2016-04-10T09:21:36.000Z</time>
      </trkpt>
      <trkpt lat="47.58" lon="6.80304">
        <ele>425</ele>
        <time>2016-04-10T09:21:37.000Z</time>
      </trkpt>
      <trkpt lat="47.58001" lon="6.80296">
        <ele>422</ele>
        <time>2016-04-10T09:21:38.000Z</time>
      </trkpt>
      <trkpt lat="47.58004" lon="6.8029">
        <ele>421</ele>
        <time>2016-04-10T09:21:39.000Z</time>
      </trkpt>
      <trkpt lat="47.58005" lon="6.80286">
        <ele>421</ele>
        <time>2016-04-10T09:21:40.000Z</time>
      </trkpt>
      <trkpt lat="47.58008" lon="6.80282">
        <ele>421</ele>
        <time>2016-04-10T09:21:41.000Z</time>
      </trkpt>
      <trkpt lat="47.58011" lon="6.80278">
        <ele>420</ele>
        <time>2016-04-10T09:21:49.000Z</time>
      </trkpt>
      <trkpt lat="47.58011" lon="6.80277">
        <ele>420</ele>
        <time>2016-04-10T09:21:50.000Z</time>
      </trkpt>
      <trkpt lat="47.58014" lon="6.80275">
        <ele>420</ele>
        <time>2016-04-10T09:22:25.000Z</time>
      </trkpt>
      <trkpt lat="47.58014" lon="6.80273">
        <ele>420</ele>
        <time>2016-04-10T09:22:26.000Z</time>
      </trkpt>
      <trkpt lat="47.58014" lon="6.80269">
        <ele>420</ele>
        <time>2016-04-10T09:22:27.000Z</time>
      </trkpt>
      <trkpt lat="47.58015" lon="6.80266">
        <ele>420</ele>
        <time>2016-04-10T09:22:28.000Z</time>
      </trkpt>
      <trkpt lat="47.58015" lon="6.80261">
        <ele>419</ele>
        <time>2016-04-10T09:22:29.000Z</time>
      </trkpt>
      <trkpt lat="47.58015" lon="6.80256">
        <ele>419</ele>
        <time>2016-04-10T09:22:30.000Z</time>
      </trkpt>
      <trkpt lat="47.58015" lon="6.80251">
        <ele>419</ele>
        <time>2016-04-10T09:22:31.000Z</time>
      </trkpt>
      <trkpt lat="47.58015" lon="6.80246">
        <ele>416</ele>
        <time>2016-04-10T09:22:32.000Z</time>
      </trkpt>
      <trkpt lat="47.58015" lon="6.8024">
        <ele>416</ele>
        <time>2016-04-10T09:22:33.000Z</time>
      </trkpt>
      <trkpt lat="47.58015" lon="6.80234">
        <ele>416</ele>
        <time>2016-04-10T09:22:34.000Z</time>
      </trkpt>
      <trkpt lat="47.58015" lon="6.80229">
        <ele>415</ele>
        <time>2016-04-10T09:22:35.000Z</time>
      </trkpt>
      <trkpt lat="47.58018" lon="6.80212">
        <ele>415</ele>
        <time>2016-04-10T09:22:36.000Z</time>
      </trkpt>
      <trkpt lat="47.58021" lon="6.80201">
        <ele>415</ele>
        <time>2016-04-10T09:22:37.000Z</time>
      </trkpt>
      <trkpt lat="47.58022" lon="6.80191">
        <ele>414</ele>
        <time>2016-04-10T09:22:38.000Z</time>
      </trkpt>
      <trkpt lat="47.58023" lon="6.80183">
        <ele>414</ele>
        <time>2016-04-10T09:22:39.000Z</time>
      </trkpt>
      <trkpt lat="47.58024" lon="6.80175">
        <ele>414</ele>
        <time>2016-04-10T09:22:40.000Z</time>
      </trkpt>
      <trkpt lat="47.58026" lon="6.80167">
        <ele>414</ele>
        <time>2016-04-10T09:22:41.000Z</time>
      </trkpt>
      <trkpt lat="47.58028" lon="6.80159">
        <ele>412</ele>
        <time>2016-04-10T09:22:42.000Z</time>
      </trkpt>
      <trkpt lat="47.5803" lon="6.80151">
        <ele>412</ele>
        <time>2016-04-10T09:22:43.000Z</time>
      </trkpt>
      <trkpt lat="47.58032" lon="6.80142">
        <ele>411</ele>
        <time>2016-04-10T09:22:44.000Z</time>
      </trkpt>
      <trkpt lat="47.58034" lon="6.80134">
        <ele>411</ele>
        <time>2016-04-10T09:22:45.000Z</time>
      </trkpt>
      <trkpt lat="47.58036" lon="6.80126">
        <ele>411</ele>
        <time>2016-04-10T09:22:46.000Z</time>
      </trkpt>
      <trkpt lat="47.58038" lon="6.80116">
        <ele>411</ele>
        <time>2016-04-10T09:22:47.000Z</time>
      </trkpt>
      <trkpt lat="47.5804" lon="6.80108">
        <ele>411</ele>
        <time>2016-04-10T09:22:48.000Z</time>
      </trkpt>
      <trkpt lat="47.58042" lon="6.80098">
        <ele>410</ele>
        <time>2016-04-10T09:22:49.000Z</time>
      </trkpt>
      <trkpt lat="47.58043" lon="6.80089">
        <ele>410</ele>
        <time>2016-04-10T09:22:50.000Z</time>
      </trkpt>
      <trkpt lat="47.58042" lon="6.80079">
        <ele>409</ele>
        <time>2016-04-10T09:22:51.000Z</time>
      </trkpt>
      <trkpt lat="47.58042" lon="6.80071">
        <ele>408</ele>
        <time>2016-04-10T09:22:52.000Z</time>
      </trkpt>
      <trkpt lat="47.58041" lon="6.80063">
        <ele>408</ele>
        <time>2016-04-10T09:22:53.000Z</time>
      </trkpt>
      <trkpt lat="47.58039" lon="6.80054">
        <ele>408</ele>
        <time>2016-04-10T09:22:54.000Z</time>
      </trkpt>
      <trkpt lat="47.58037" lon="6.80046">
        <ele>408</ele>
        <time>2016-04-10T09:22:55.000Z</time>
      </trkpt>
      <trkpt lat="47.58034" lon="6.80039">
        <ele>408</ele>
        <time>2016-04-10T09:22:56.000Z</time>
      </trkpt>
      <trkpt lat="47.58031" lon="6.80032">
        <ele>408</ele>
        <time>2016-04-10T09:22:57.000Z</time>
      </trkpt>
      <trkpt lat="47.5803" lon="6.80023">
        <ele>408</ele>
        <time>2016-04-10T09:22:58.000Z</time>
      </trkpt>
      <trkpt lat="47.58028" lon="6.80013">
        <ele>408</ele>
        <time>2016-04-10T09:22:59.000Z</time>
      </trkpt>
      <trkpt lat="47.58028" lon="6.80002">
        <ele>408</ele>
        <time>2016-04-10T09:23:00.000Z</time>
      </trkpt>
      <trkpt lat="47.58028" lon="6.79989">
        <ele>407</ele>
        <time>2016-04-10T09:23:01.000Z</time>
      </trkpt>
      <trkpt lat="47.5803" lon="6.79977">
        <ele>407</ele>
        <time>2016-04-10T09:23:02.000Z</time>
      </trkpt>
      <trkpt lat="47.58032" lon="6.79964">
        <ele>407</ele>
        <time>2016-04-10T09:23:03.000Z</time>
      </trkpt>
      <trkpt lat="47.58033" lon="6.7995">
        <ele>406</ele>
        <time>2016-04-10T09:23:04.000Z</time>
      </trkpt>
      <trkpt lat="47.58035" lon="6.79937">
        <ele>406</ele>
        <time>2016-04-10T09:23:05.000Z</time>
      </trkpt>
      <trkpt lat="47.58036" lon="6.79925">
        <ele>406</ele>
        <time>2016-04-10T09:23:06.000Z</time>
      </trkpt>
      <trkpt lat="47.58037" lon="6.79913">
        <ele>406</ele>
        <time>2016-04-10T09:23:07.000Z</time>
      </trkpt>
      <trkpt lat="47.58037" lon="6.799">
        <ele>406</ele>
        <time>2016-04-10T09:23:08.000Z</time>
      </trkpt>
      <trkpt lat="47.58038" lon="6.79887">
        <ele>405</ele>
        <time>2016-04-10T09:23:09.000Z</time>
      </trkpt>
      <trkpt lat="47.58039" lon="6.79875">
        <ele>405</ele>
        <time>2016-04-10T09:23:10.000Z</time>
      </trkpt>
      <trkpt lat="47.58039" lon="6.79864">
        <ele>405</ele>
        <time>2016-04-10T09:23:11.000Z</time>
      </trkpt>
      <trkpt lat="47.58039" lon="6.79851">
        <ele>405</ele>
        <time>2016-04-10T09:23:12.000Z</time>
      </trkpt>
      <trkpt lat="47.58039" lon="6.7984">
        <ele>405</ele>
        <time>2016-04-10T09:23:13.000Z</time>
      </trkpt>
      <trkpt lat="47.58038" lon="6.79829">
        <ele>404</ele>
        <time>2016-04-10T09:23:14.000Z</time>
      </trkpt>
      <trkpt lat="47.58038" lon="6.79818">
        <ele>404</ele>
        <time>2016-04-10T09:23:15.000Z</time>
      </trkpt>
      <trkpt lat="47.58038" lon="6.79807">
        <ele>404</ele>
        <time>2016-04-10T09:23:16.000Z</time>
      </trkpt>
      <trkpt lat="47.58038" lon="6.79797">
        <ele>404</ele>
        <time>2016-04-10T09:23:17.000Z</time>
      </trkpt>
      <trkpt lat="47.58037" lon="6.79788">
        <ele>404</ele>
        <time>2016-04-10T09:23:18.000Z</time>
      </trkpt>
      <trkpt lat="47.58037" lon="6.79778">
        <ele>404</ele>
        <time>2016-04-10T09:23:19.000Z</time>
      </trkpt>
      <trkpt lat="47.58036" lon="6.7977">
        <ele>404</ele>
        <time>2016-04-10T09:23:20.000Z</time>
      </trkpt>
      <trkpt lat="47.58034" lon="6.79763">
        <ele>404</ele>
        <time>2016-04-10T09:23:21.000Z</time>
      </trkpt>
      <trkpt lat="47.58035" lon="6.79756">
        <ele>404</ele>
        <time>2016-04-10T09:23:22.000Z</time>
      </trkpt>
      <trkpt lat="47.58037" lon="6.79751">
        <ele>404</ele>
        <time>2016-04-10T09:23:23.000Z</time>
      </trkpt>
      <trkpt lat="47.58041" lon="6.79747">
        <ele>403</ele>
        <time>2016-04-10T09:23:24.000Z</time>
      </trkpt>
      <trkpt lat="47.58044" lon="6.79745">
        <ele>404</ele>
        <time>2016-04-10T09:23:25.000Z</time>
      </trkpt>
      <trkpt lat="47.58048" lon="6.79742">
        <ele>404</ele>
        <time>2016-04-10T09:23:26.000Z</time>
      </trkpt>
      <trkpt lat="47.58049" lon="6.79738">
        <ele>404</ele>
        <time>2016-04-10T09:23:27.000Z</time>
      </trkpt>
      <trkpt lat="47.58051" lon="6.79734">
        <ele>404</ele>
        <time>2016-04-10T09:23:28.000Z</time>
      </trkpt>
      <trkpt lat="47.58053" lon="6.7973">
        <ele>404</ele>
        <time>2016-04-10T09:23:29.000Z</time>
      </trkpt>
      <trkpt lat="47.58054" lon="6.79724">
        <ele>404</ele>
        <time>2016-04-10T09:23:30.000Z</time>
      </trkpt>
      <trkpt lat="47.58056" lon="6.79719">
        <ele>404</ele>
        <time>2016-04-10T09:23:31.000Z</time>
      </trkpt>
      <trkpt lat="47.58057" lon="6.79714">
        <ele>404</ele>
        <time>2016-04-10T09:23:32.000Z</time>
      </trkpt>
      <trkpt lat="47.58058" lon="6.79709">
        <ele>404</ele>
        <time>2016-04-10T09:23:33.000Z</time>
      </trkpt>
      <trkpt lat="47.58058" lon="6.79703">
        <ele>404</ele>
        <time>2016-04-10T09:23:34.000Z</time>
      </trkpt>
      <trkpt lat="47.58059" lon="6.79698">
        <ele>404</ele>
        <time>2016-04-10T09:23:35.000Z</time>
      </trkpt>
      <trkpt lat="47.5806" lon="6.79693">
        <ele>404</ele>
        <time>2016-04-10T09:23:36.000Z</time>
      </trkpt>
      <trkpt lat="47.5806" lon="6.79688">
        <ele>404</ele>
        <time>2016-04-10T09:23:37.000Z</time>
      </trkpt>
      <trkpt lat="47.58062" lon="6.79683">
        <ele>404</ele>
        <time>2016-04-10T09:23:38.000Z</time>
      </trkpt>
      <trkpt lat="47.58063" lon="6.79679">
        <ele>404</ele>
        <time>2016-04-10T09:23:39.000Z</time>
      </trkpt>
      <trkpt lat="47.58064" lon="6.79675">
        <ele>404</ele>
        <time>2016-04-10T09:23:40.000Z</time>
      </trkpt>
      <trkpt lat="47.58065" lon="6.79671">
        <ele>405</ele>
        <time>2016-04-10T09:23:41.000Z</time>
      </trkpt>
      <trkpt lat="47.58066" lon="6.79667">
        <ele>405</ele>
        <time>2016-04-10T09:23:42.000Z</time>
      </trkpt>
      <trkpt lat="47.58067" lon="6.79663">
        <ele>405</ele>
        <time>2016-04-10T09:23:43.000Z</time>
      </trkpt>
      <trkpt lat="47.58068" lon="6.7966">
        <ele>405</ele>
        <time>2016-04-10T09:23:44.000Z</time>
      </trkpt>
      <trkpt lat="47.58068" lon="6.79657">
        <ele>405</ele>
        <time>2016-04-10T09:23:44.999Z</time>
      </trkpt>
      <trkpt lat="47.5807" lon="6.79654">
        <ele>405</ele>
        <time>2016-04-10T09:23:46.000Z</time>
      </trkpt>
      <trkpt lat="47.58071" lon="6.79651">
        <ele>404</ele>
        <time>2016-04-10T09:23:47.000Z</time>
      </trkpt>
      <trkpt lat="47.58074" lon="6.79645">
        <ele>404</ele>
        <time>2016-04-10T09:23:49.000Z</time>
      </trkpt>
      <trkpt lat="47.58075" lon="6.79643">
        <ele>404</ele>
        <time>2016-04-10T09:23:50.000Z</time>
      </trkpt>
      <trkpt lat="47.58076" lon="6.79639">
        <ele>404</ele>
        <time>2016-04-10T09:23:52.000Z</time>
      </trkpt>
      <trkpt lat="47.58077" lon="6.79637">
        <ele>404</ele>
        <time>2016-04-10T09:23:53.000Z</time>
      </trkpt>
      <trkpt lat="47.58078" lon="6.79632">
        <ele>404</ele>
        <time>2016-04-10T09:23:55.000Z</time>
      </trkpt>
      <trkpt lat="47.58079" lon="6.7963">
        <ele>404</ele>
        <time>2016-04-10T09:23:56.000Z</time>
      </trkpt>
      <trkpt lat="47.58081" lon="6.79625">
        <ele>404</ele>
        <time>2016-04-10T09:23:58.000Z</time>
      </trkpt>
      <trkpt lat="47.58081" lon="6.79622">
        <ele>404</ele>
        <time>2016-04-10T09:23:59.000Z</time>
      </trkpt>
      <trkpt lat="47.58083" lon="6.79615">
        <ele>404</ele>
        <time>2016-04-10T09:24:01.000Z</time>
      </trkpt>
      <trkpt lat="47.58083" lon="6.79612">
        <ele>404</ele>
        <time>2016-04-10T09:24:02.000Z</time>
      </trkpt>
      <trkpt lat="47.58084" lon="6.79607">
        <ele>409</ele>
        <time>2016-04-10T09:24:04.000Z</time>
      </trkpt>
      <trkpt lat="47.58085" lon="6.79605">
        <ele>408</ele>
        <time>2016-04-10T09:24:05.000Z</time>
      </trkpt>
      <trkpt lat="47.58087" lon="6.796">
        <ele>408</ele>
        <time>2016-04-10T09:24:07.000Z</time>
      </trkpt>
      <trkpt lat="47.58088" lon="6.79598">
        <ele>408</ele>
        <time>2016-04-10T09:24:08.000Z</time>
      </trkpt>
      <trkpt lat="47.5809" lon="6.79594">
        <ele>408</ele>
        <time>2016-04-10T09:24:10.000Z</time>
      </trkpt>
      <trkpt lat="47.58091" lon="6.79592">
        <ele>407</ele>
        <time>2016-04-10T09:24:11.000Z</time>
      </trkpt>
      <trkpt lat="47.58094" lon="6.79587">
        <ele>407</ele>
        <time>2016-04-10T09:24:13.000Z</time>
      </trkpt>
      <trkpt lat="47.58095" lon="6.79584">
        <ele>408</ele>
        <time>2016-04-10T09:24:14.000Z</time>
      </trkpt>
      <trkpt lat="47.58097" lon="6.7958">
        <ele>407</ele>
        <time>2016-04-10T09:24:16.000Z</time>
      </trkpt>
      <trkpt lat="47.58098" lon="6.79577">
        <ele>407</ele>
        <time>2016-04-10T09:24:17.000Z</time>
      </trkpt>
      <trkpt lat="47.58102" lon="6.79573">
        <ele>407</ele>
        <time>2016-04-10T09:24:19.000Z</time>
      </trkpt>
      <trkpt lat="47.58103" lon="6.79571">
        <ele>407</ele>
        <time>2016-04-10T09:24:20.000Z</time>
      </trkpt>
      <trkpt lat="47.58107" lon="6.79569">
        <ele>408</ele>
        <time>2016-04-10T09:24:22.000Z</time>
      </trkpt>
      <trkpt lat="47.5811" lon="6.79568">
        <ele>408</ele>
        <time>2016-04-10T09:24:23.000Z</time>
      </trkpt>
      <trkpt lat="47.58114" lon="6.79566">
        <ele>408</ele>
        <time>2016-04-10T09:24:25.000Z</time>
      </trkpt>
      <trkpt lat="47.58116" lon="6.79566">
        <ele>408</ele>
        <time>2016-04-10T09:24:26.000Z</time>
      </trkpt>
      <trkpt lat="47.5812" lon="6.79565">
        <ele>409</ele>
        <time>2016-04-10T09:24:28.000Z</time>
      </trkpt>
      <trkpt lat="47.58122" lon="6.79564">
        <ele>409</ele>
        <time>2016-04-10T09:24:29.000Z</time>
      </trkpt>
      <trkpt lat="47.58125" lon="6.79562">
        <ele>409</ele>
        <time>2016-04-10T09:24:31.000Z</time>
      </trkpt>
      <trkpt lat="47.58127" lon="6.79561">
        <ele>409</ele>
        <time>2016-04-10T09:24:32.000Z</time>
      </trkpt>
      <trkpt lat="47.5813" lon="6.7956">
        <ele>410</ele>
        <time>2016-04-10T09:24:33.000Z</time>
      </trkpt>
      <trkpt lat="47.58132" lon="6.79559">
        <ele>410</ele>
        <time>2016-04-10T09:24:34.000Z</time>
      </trkpt>
      <trkpt lat="47.58135" lon="6.79558">
        <ele>410</ele>
        <time>2016-04-10T09:24:36.000Z</time>
      </trkpt>
      <trkpt lat="47.58137" lon="6.79557">
        <ele>410</ele>
        <time>2016-04-10T09:24:37.000Z</time>
      </trkpt>
      <trkpt lat="47.5814" lon="6.79555">
        <ele>410</ele>
        <time>2016-04-10T09:24:39.000Z</time>
      </trkpt>
      <trkpt lat="47.58142" lon="6.79554">
        <ele>410</ele>
        <time>2016-04-10T09:24:40.000Z</time>
      </trkpt>
      <trkpt lat="47.58147" lon="6.79553">
        <ele>411</ele>
        <time>2016-04-10T09:24:42.000Z</time>
      </trkpt>
      <trkpt lat="47.58149" lon="6.79553">
        <ele>411</ele>
        <time>2016-04-10T09:24:43.000Z</time>
      </trkpt>
      <trkpt lat="47.58151" lon="6.79553">
        <ele>411</ele>
        <time>2016-04-10T09:24:44.000Z</time>
      </trkpt>
      <trkpt lat="47.58153" lon="6.79552">
        <ele>411</ele>
        <time>2016-04-10T09:24:45.000Z</time>
      </trkpt>
      <trkpt lat="47.58155" lon="6.79551">
        <ele>411</ele>
        <time>2016-04-10T09:24:46.000Z</time>
      </trkpt>
      <trkpt lat="47.58157" lon="6.79549">
        <ele>411</ele>
        <time>2016-04-10T09:24:47.000Z</time>
      </trkpt>
      <trkpt lat="47.58161" lon="6.79546">
        <ele>411</ele>
        <time>2016-04-10T09:24:49.000Z</time>
      </trkpt>
      <trkpt lat="47.58162" lon="6.79544">
        <ele>411</ele>
        <time>2016-04-10T09:24:50.000Z</time>
      </trkpt>
      <trkpt lat="47.58166" lon="6.79541">
        <ele>411</ele>
        <time>2016-04-10T09:24:52.000Z</time>
      </trkpt>
      <trkpt lat="47.58168" lon="6.7954">
        <ele>412</ele>
        <time>2016-04-10T09:24:53.000Z</time>
      </trkpt>
      <trkpt lat="47.58171" lon="6.7954">
        <ele>412</ele>
        <time>2016-04-10T09:24:54.000Z</time>
      </trkpt>
      <trkpt lat="47.58173" lon="6.79541">
        <ele>412</ele>
        <time>2016-04-10T09:24:55.000Z</time>
      </trkpt>
      <trkpt lat="47.58176" lon="6.79542">
        <ele>412</ele>
        <time>2016-04-10T09:24:56.000Z</time>
      </trkpt>
      <trkpt lat="47.58179" lon="6.79544">
        <ele>412</ele>
        <time>2016-04-10T09:24:57.000Z</time>
      </trkpt>
      <trkpt lat="47.58181" lon="6.79545">
        <ele>412</ele>
        <time>2016-04-10T09:24:58.000Z</time>
      </trkpt>
      <trkpt lat="47.58183" lon="6.79546">
        <ele>412</ele>
        <time>2016-04-10T09:24:59.000Z</time>
      </trkpt>
      <trkpt lat="47.58187" lon="6.79548">
        <ele>412</ele>
        <time>2016-04-10T09:25:01.000Z</time>
      </trkpt>
      <trkpt lat="47.58189" lon="6.79548">
        <ele>412</ele>
        <time>2016-04-10T09:25:02.000Z</time>
      </trkpt>
      <trkpt lat="47.58191" lon="6.79548">
        <ele>412</ele>
        <time>2016-04-10T09:25:03.000Z</time>
      </trkpt>
      <trkpt lat="47.58194" lon="6.79548">
        <ele>412</ele>
        <time>2016-04-10T09:25:04.000Z</time>
      </trkpt>
      <trkpt lat="47.58196" lon="6.79549">
        <ele>412</ele>
        <time>2016-04-10T09:25:05.000Z</time>
      </trkpt>
      <trkpt lat="47.58199" lon="6.7955">
        <ele>412</ele>
        <time>2016-04-10T09:25:06.000Z</time>
      </trkpt>
      <trkpt lat="47.58202" lon="6.79551">
        <ele>412</ele>
        <time>2016-04-10T09:25:07.000Z</time>
      </trkpt>
      <trkpt lat="47.58205" lon="6.79553">
        <ele>412</ele>
        <time>2016-04-10T09:25:08.000Z</time>
      </trkpt>
      <trkpt lat="47.58208" lon="6.79553">
        <ele>412</ele>
        <time>2016-04-10T09:25:09.000Z</time>
      </trkpt>
      <trkpt lat="47.58211" lon="6.79553">
        <ele>412</ele>
        <time>2016-04-10T09:25:10.000Z</time>
      </trkpt>
      <trkpt lat="47.58215" lon="6.79553">
        <ele>412</ele>
        <time>2016-04-10T09:25:11.000Z</time>
      </trkpt>
      <trkpt lat="47.58218" lon="6.79554">
        <ele>412</ele>
        <time>2016-04-10T09:25:12.000Z</time>
      </trkpt>
      <trkpt lat="47.58222" lon="6.79555">
        <ele>412</ele>
        <time>2016-04-10T09:25:13.000Z</time>
      </trkpt>
      <trkpt lat="47.58225" lon="6.79555">
        <ele>412</ele>
        <time>2016-04-10T09:25:14.000Z</time>
      </trkpt>
      <trkpt lat="47.58229" lon="6.79556">
        <ele>412</ele>
        <time>2016-04-10T09:25:15.000Z</time>
      </trkpt>
      <trkpt lat="47.58232" lon="6.79556">
        <ele>412</ele>
        <time>2016-04-10T09:25:16.000Z</time>
      </trkpt>
      <trkpt lat="47.58236" lon="6.79556">
        <ele>412</ele>
        <time>2016-04-10T09:25:17.000Z</time>
      </trkpt>
      <trkpt lat="47.5824" lon="6.79557">
        <ele>412</ele>
        <time>2016-04-10T09:25:18.000Z</time>
      </trkpt>
      <trkpt lat="47.58243" lon="6.79557">
        <ele>412</ele>
        <time>2016-04-10T09:25:19.000Z</time>
      </trkpt>
      <trkpt lat="47.58247" lon="6.79556">
        <ele>412</ele>
        <time>2016-04-10T09:25:20.000Z</time>
      </trkpt>
      <trkpt lat="47.5825" lon="6.79556">
        <ele>405</ele>
        <time>2016-04-10T09:25:21.000Z</time>
      </trkpt>
      <trkpt lat="47.58253" lon="6.79556">
        <ele>405</ele>
        <time>2016-04-10T09:25:22.000Z</time>
      </trkpt>
      <trkpt lat="47.58255" lon="6.79558">
        <ele>405</ele>
        <time>2016-04-10T09:25:23.000Z</time>
      </trkpt>
      <trkpt lat="47.58256" lon="6.79561">
        <ele>406</ele>
        <time>2016-04-10T09:25:24.000Z</time>
      </trkpt>
      <trkpt lat="47.58258" lon="6.79564">
        <ele>406</ele>
        <time>2016-04-10T09:25:25.000Z</time>
      </trkpt>
      <trkpt lat="47.58259" lon="6.79568">
        <ele>407</ele>
        <time>2016-04-10T09:25:26.000Z</time>
      </trkpt>
      <trkpt lat="47.5826" lon="6.79571">
        <ele>408</ele>
        <time>2016-04-10T09:25:27.000Z</time>
      </trkpt>
      <trkpt lat="47.58262" lon="6.79573">
        <ele>408</ele>
        <time>2016-04-10T09:25:28.000Z</time>
      </trkpt>
      <trkpt lat="47.58264" lon="6.79578">
        <ele>408</ele>
        <time>2016-04-10T09:25:30.000Z</time>
      </trkpt>
      <trkpt lat="47.58265" lon="6.7958">
        <ele>408</ele>
        <time>2016-04-10T09:25:31.000Z</time>
      </trkpt>
      <trkpt lat="47.58267" lon="6.79585">
        <ele>412</ele>
        <time>2016-04-10T09:25:33.000Z</time>
      </trkpt>
      <trkpt lat="47.58268" lon="6.79587">
        <ele>412</ele>
        <time>2016-04-10T09:25:34.000Z</time>
      </trkpt>
      <trkpt lat="47.5827" lon="6.79593">
        <ele>411</ele>
        <time>2016-04-10T09:25:36.000Z</time>
      </trkpt>
      <trkpt lat="47.58272" lon="6.79596">
        <ele>411</ele>
        <time>2016-04-10T09:25:37.000Z</time>
      </trkpt>
      <trkpt lat="47.58274" lon="6.79599">
        <ele>411</ele>
        <time>2016-04-10T09:25:38.000Z</time>
      </trkpt>
      <trkpt lat="47.58276" lon="6.79601">
        <ele>410</ele>
        <time>2016-04-10T09:25:39.000Z</time>
      </trkpt>
      <trkpt lat="47.58279" lon="6.79606">
        <ele>410</ele>
        <time>2016-04-10T09:25:41.000Z</time>
      </trkpt>
      <trkpt lat="47.5828" lon="6.79608">
        <ele>410</ele>
        <time>2016-04-10T09:25:42.000Z</time>
      </trkpt>
      <trkpt lat="47.58281" lon="6.79614">
        <ele>410</ele>
        <time>2016-04-10T09:25:44.000Z</time>
      </trkpt>
      <trkpt lat="47.58282" lon="6.79617">
        <ele>410</ele>
        <time>2016-04-10T09:25:45.000Z</time>
      </trkpt>
      <trkpt lat="47.58282" lon="6.79621">
        <ele>410</ele>
        <time>2016-04-10T09:25:46.000Z</time>
      </trkpt>
      <trkpt lat="47.58283" lon="6.79625">
        <ele>410</ele>
        <time>2016-04-10T09:25:47.000Z</time>
      </trkpt>
      <trkpt lat="47.58284" lon="6.79628">
        <ele>410</ele>
        <time>2016-04-10T09:25:48.000Z</time>
      </trkpt>
      <trkpt lat="47.58284" lon="6.79632">
        <ele>410</ele>
        <time>2016-04-10T09:25:49.000Z</time>
      </trkpt>
      <trkpt lat="47.58284" lon="6.79638">
        <ele>410</ele>
        <time>2016-04-10T09:25:51.000Z</time>
      </trkpt>
      <trkpt lat="47.58285" lon="6.7964">
        <ele>410</ele>
        <time>2016-04-10T09:25:52.000Z</time>
      </trkpt>
      <trkpt lat="47.58288" lon="6.79644">
        <ele>410</ele>
        <time>2016-04-10T09:25:54.000Z</time>
      </trkpt>
      <trkpt lat="47.5829" lon="6.79646">
        <ele>410</ele>
        <time>2016-04-10T09:25:55.000Z</time>
      </trkpt>
      <trkpt lat="47.58293" lon="6.79649">
        <ele>410</ele>
        <time>2016-04-10T09:25:57.000Z</time>
      </trkpt>
      <trkpt lat="47.58295" lon="6.7965">
        <ele>410</ele>
        <time>2016-04-10T09:25:58.000Z</time>
      </trkpt>
      <trkpt lat="47.58297" lon="6.79654">
        <ele>410</ele>
        <time>2016-04-10T09:26:00.000Z</time>
      </trkpt>
      <trkpt lat="47.58298" lon="6.79655">
        <ele>410</ele>
        <time>2016-04-10T09:26:01.000Z</time>
      </trkpt>
      <trkpt lat="47.58301" lon="6.79659">
        <ele>409</ele>
        <time>2016-04-10T09:26:03.000Z</time>
      </trkpt>
      <trkpt lat="47.58303" lon="6.79661">
        <ele>409</ele>
        <time>2016-04-10T09:26:04.000Z</time>
      </trkpt>
      <trkpt lat="47.58306" lon="6.79664">
        <ele>409</ele>
        <time>2016-04-10T09:26:05.000Z</time>
      </trkpt>
      <trkpt lat="47.58307" lon="6.79668">
        <ele>412</ele>
        <time>2016-04-10T09:26:06.000Z</time>
      </trkpt>
      <trkpt lat="47.58309" lon="6.79671">
        <ele>412</ele>
        <time>2016-04-10T09:26:07.000Z</time>
      </trkpt>
      <trkpt lat="47.58311" lon="6.79674">
        <ele>412</ele>
        <time>2016-04-10T09:26:08.000Z</time>
      </trkpt>
      <trkpt lat="47.58313" lon="6.79679">
        <ele>412</ele>
        <time>2016-04-10T09:26:10.000Z</time>
      </trkpt>
      <trkpt lat="47.58315" lon="6.79681">
        <ele>412</ele>
        <time>2016-04-10T09:26:11.000Z</time>
      </trkpt>
      <trkpt lat="47.58316" lon="6.79685">
        <ele>412</ele>
        <time>2016-04-10T09:26:12.000Z</time>
      </trkpt>
      <trkpt lat="47.58318" lon="6.79688">
        <ele>412</ele>
        <time>2016-04-10T09:26:13.000Z</time>
      </trkpt>
      <trkpt lat="47.58319" lon="6.79691">
        <ele>412</ele>
        <time>2016-04-10T09:26:14.000Z</time>
      </trkpt>
      <trkpt lat="47.58321" lon="6.79694">
        <ele>412</ele>
        <time>2016-04-10T09:26:15.000Z</time>
      </trkpt>
      <trkpt lat="47.58322" lon="6.79697">
        <ele>413</ele>
        <time>2016-04-10T09:26:16.000Z</time>
      </trkpt>
      <trkpt lat="47.58324" lon="6.797">
        <ele>413</ele>
        <time>2016-04-10T09:26:17.000Z</time>
      </trkpt>
      <trkpt lat="47.58326" lon="6.79704">
        <ele>413</ele>
        <time>2016-04-10T09:26:18.000Z</time>
      </trkpt>
      <trkpt lat="47.58328" lon="6.79707">
        <ele>413</ele>
        <time>2016-04-10T09:26:19.000Z</time>
      </trkpt>
      <trkpt lat="47.5833" lon="6.79711">
        <ele>413</ele>
        <time>2016-04-10T09:26:20.000Z</time>
      </trkpt>
      <trkpt lat="47.58332" lon="6.79714">
        <ele>414</ele>
        <time>2016-04-10T09:26:21.000Z</time>
      </trkpt>
      <trkpt lat="47.58334" lon="6.79716">
        <ele>408</ele>
        <time>2016-04-10T09:26:22.000Z</time>
      </trkpt>
      <trkpt lat="47.58336" lon="6.79718">
        <ele>408</ele>
        <time>2016-04-10T09:26:23.000Z</time>
      </trkpt>
      <trkpt lat="47.58338" lon="6.79721">
        <ele>408</ele>
        <time>2016-04-10T09:26:24.000Z</time>
      </trkpt>
      <trkpt lat="47.5834" lon="6.79723">
        <ele>409</ele>
        <time>2016-04-10T09:26:25.000Z</time>
      </trkpt>
      <trkpt lat="47.58342" lon="6.79726">
        <ele>409</ele>
        <time>2016-04-10T09:26:26.000Z</time>
      </trkpt>
      <trkpt lat="47.58344" lon="6.79729">
        <ele>409</ele>
        <time>2016-04-10T09:26:27.000Z</time>
      </trkpt>
      <trkpt lat="47.58346" lon="6.79732">
        <ele>410</ele>
        <time>2016-04-10T09:26:28.000Z</time>
      </trkpt>
      <trkpt lat="47.58348" lon="6.79735">
        <ele>410</ele>
        <time>2016-04-10T09:26:29.000Z</time>
      </trkpt>
      <trkpt lat="47.58349" lon="6.79738">
        <ele>410</ele>
        <time>2016-04-10T09:26:30.000Z</time>
      </trkpt>
      <trkpt lat="47.58351" lon="6.79741">
        <ele>410</ele>
        <time>2016-04-10T09:26:31.000Z</time>
      </trkpt>
      <trkpt lat="47.58353" lon="6.79743">
        <ele>410</ele>
        <time>2016-04-10T09:26:32.000Z</time>
      </trkpt>
      <trkpt lat="47.58356" lon="6.79745">
        <ele>409</ele>
        <time>2016-04-10T09:26:33.000Z</time>
      </trkpt>
      <trkpt lat="47.58358" lon="6.79749">
        <ele>409</ele>
        <time>2016-04-10T09:26:34.000Z</time>
      </trkpt>
      <trkpt lat="47.58361" lon="6.79752">
        <ele>414</ele>
        <time>2016-04-10T09:26:35.000Z</time>
      </trkpt>
      <trkpt lat="47.58363" lon="6.79756">
        <ele>414</ele>
        <time>2016-04-10T09:26:36.000Z</time>
      </trkpt>
      <trkpt lat="47.58365" lon="6.79759">
        <ele>414</ele>
        <time>2016-04-10T09:26:36.998Z</time>
      </trkpt>
      <trkpt lat="47.58368" lon="6.79763">
        <ele>414</ele>
        <time>2016-04-10T09:26:38.000Z</time>
      </trkpt>
      <trkpt lat="47.5837" lon="6.79765">
        <ele>414</ele>
        <time>2016-04-10T09:26:39.000Z</time>
      </trkpt>
      <trkpt lat="47.58372" lon="6.79768">
        <ele>414</ele>
        <time>2016-04-10T09:26:40.000Z</time>
      </trkpt>
      <trkpt lat="47.58374" lon="6.79771">
        <ele>414</ele>
        <time>2016-04-10T09:26:41.000Z</time>
      </trkpt>
      <trkpt lat="47.58376" lon="6.79774">
        <ele>414</ele>
        <time>2016-04-10T09:26:42.000Z</time>
      </trkpt>
      <trkpt lat="47.58378" lon="6.79778">
        <ele>414</ele>
        <time>2016-04-10T09:26:43.000Z</time>
      </trkpt>
      <trkpt lat="47.5838" lon="6.79782">
        <ele>414</ele>
        <time>2016-04-10T09:26:44.000Z</time>
      </trkpt>
      <trkpt lat="47.58382" lon="6.79787">
        <ele>414</ele>
        <time>2016-04-10T09:26:45.000Z</time>
      </trkpt>
      <trkpt lat="47.58384" lon="6.79791">
        <ele>415</ele>
        <time>2016-04-10T09:26:46.000Z</time>
      </trkpt>
      <trkpt lat="47.58386" lon="6.79795">
        <ele>415</ele>
        <time>2016-04-10T09:26:47.000Z</time>
      </trkpt>
      <trkpt lat="47.58389" lon="6.79798">
        <ele>415</ele>
        <time>2016-04-10T09:26:48.000Z</time>
      </trkpt>
      <trkpt lat="47.58391" lon="6.79801">
        <ele>415</ele>
        <time>2016-04-10T09:26:49.000Z</time>
      </trkpt>
      <trkpt lat="47.58393" lon="6.79804">
        <ele>415</ele>
        <time>2016-04-10T09:26:50.000Z</time>
      </trkpt>
      <trkpt lat="47.58395" lon="6.79806">
        <ele>416</ele>
        <time>2016-04-10T09:26:51.000Z</time>
      </trkpt>
      <trkpt lat="47.58396" lon="6.79809">
        <ele>416</ele>
        <time>2016-04-10T09:26:52.000Z</time>
      </trkpt>
      <trkpt lat="47.58398" lon="6.79811">
        <ele>416</ele>
        <time>2016-04-10T09:26:53.000Z</time>
      </trkpt>
      <trkpt lat="47.584" lon="6.79814">
        <ele>416</ele>
        <time>2016-04-10T09:26:54.000Z</time>
      </trkpt>
      <trkpt lat="47.58402" lon="6.79816">
        <ele>416</ele>
        <time>2016-04-10T09:26:55.000Z</time>
      </trkpt>
      <trkpt lat="47.58405" lon="6.79819">
        <ele>417</ele>
        <time>2016-04-10T09:26:57.000Z</time>
      </trkpt>
      <trkpt lat="47.58406" lon="6.7982">
        <ele>417</ele>
        <time>2016-04-10T09:26:58.000Z</time>
      </trkpt>
      <trkpt lat="47.58409" lon="6.79824">
        <ele>417</ele>
        <time>2016-04-10T09:27:00.000Z</time>
      </trkpt>
      <trkpt lat="47.5841" lon="6.79826">
        <ele>418</ele>
        <time>2016-04-10T09:27:01.000Z</time>
      </trkpt>
      <trkpt lat="47.58412" lon="6.79829">
        <ele>418</ele>
        <time>2016-04-10T09:27:02.000Z</time>
      </trkpt>
      <trkpt lat="47.58414" lon="6.79832">
        <ele>419</ele>
        <time>2016-04-10T09:27:03.000Z</time>
      </trkpt>
      <trkpt lat="47.58417" lon="6.79835">
        <ele>419</ele>
        <time>2016-04-10T09:27:04.000Z</time>
      </trkpt>
      <trkpt lat="47.58419" lon="6.79838">
        <ele>419</ele>
        <time>2016-04-10T09:27:05.000Z</time>
      </trkpt>
      <trkpt lat="47.58421" lon="6.79841">
        <ele>418</ele>
        <time>2016-04-10T09:27:06.000Z</time>
      </trkpt>
      <trkpt lat="47.58423" lon="6.79844">
        <ele>418</ele>
        <time>2016-04-10T09:27:07.000Z</time>
      </trkpt>
      <trkpt lat="47.58424" lon="6.79848">
        <ele>418</ele>
        <time>2016-04-10T09:27:08.000Z</time>
      </trkpt>
      <trkpt lat="47.58426" lon="6.79851">
        <ele>418</ele>
        <time>2016-04-10T09:27:09.000Z</time>
      </trkpt>
      <trkpt lat="47.58428" lon="6.79853">
        <ele>418</ele>
        <time>2016-04-10T09:27:10.000Z</time>
      </trkpt>
      <trkpt lat="47.5843" lon="6.79855">
        <ele>418</ele>
        <time>2016-04-10T09:27:11.000Z</time>
      </trkpt>
      <trkpt lat="47.58433" lon="6.79857">
        <ele>418</ele>
        <time>2016-04-10T09:27:12.000Z</time>
      </trkpt>
      <trkpt lat="47.58435" lon="6.79858">
        <ele>418</ele>
        <time>2016-04-10T09:27:13.000Z</time>
      </trkpt>
      <trkpt lat="47.58438" lon="6.79861">
        <ele>418</ele>
        <time>2016-04-10T09:27:15.000Z</time>
      </trkpt>
      <trkpt lat="47.58439" lon="6.79863">
        <ele>418</ele>
        <time>2016-04-10T09:27:16.000Z</time>
      </trkpt>
      <trkpt lat="47.58442" lon="6.79866">
        <ele>418</ele>
        <time>2016-04-10T09:27:18.000Z</time>
      </trkpt>
      <trkpt lat="47.58443" lon="6.79867">
        <ele>418</ele>
        <time>2016-04-10T09:27:19.000Z</time>
      </trkpt>
      <trkpt lat="47.58446" lon="6.7987">
        <ele>418</ele>
        <time>2016-04-10T09:27:21.000Z</time>
      </trkpt>
      <trkpt lat="47.58447" lon="6.79871">
        <ele>418</ele>
        <time>2016-04-10T09:27:22.000Z</time>
      </trkpt>
      <trkpt lat="47.58451" lon="6.79871">
        <ele>418</ele>
        <time>2016-04-10T09:27:24.000Z</time>
      </trkpt>
      <trkpt lat="47.58452" lon="6.79872">
        <ele>418</ele>
        <time>2016-04-10T09:27:25.000Z</time>
      </trkpt>
      <trkpt lat="47.58455" lon="6.79873">
        <ele>418</ele>
        <time>2016-04-10T09:27:26.000Z</time>
      </trkpt>
      <trkpt lat="47.58457" lon="6.79874">
        <ele>417</ele>
        <time>2016-04-10T09:27:27.000Z</time>
      </trkpt>
      <trkpt lat="47.5846" lon="6.79876">
        <ele>417</ele>
        <time>2016-04-10T09:27:28.000Z</time>
      </trkpt>
      <trkpt lat="47.58462" lon="6.79878">
        <ele>418</ele>
        <time>2016-04-10T09:27:29.000Z</time>
      </trkpt>
      <trkpt lat="47.58465" lon="6.79881">
        <ele>418</ele>
        <time>2016-04-10T09:27:30.000Z</time>
      </trkpt>
      <trkpt lat="47.58466" lon="6.79884">
        <ele>418</ele>
        <time>2016-04-10T09:27:31.000Z</time>
      </trkpt>
      <trkpt lat="47.58468" lon="6.79887">
        <ele>418</ele>
        <time>2016-04-10T09:27:32.000Z</time>
      </trkpt>
      <trkpt lat="47.5847" lon="6.79889">
        <ele>418</ele>
        <time>2016-04-10T09:27:33.000Z</time>
      </trkpt>
      <trkpt lat="47.58472" lon="6.79891">
        <ele>418</ele>
        <time>2016-04-10T09:27:34.000Z</time>
      </trkpt>
      <trkpt lat="47.58474" lon="6.79894">
        <ele>418</ele>
        <time>2016-04-10T09:27:35.000Z</time>
      </trkpt>
      <trkpt lat="47.58476" lon="6.79898">
        <ele>419</ele>
        <time>2016-04-10T09:27:37.000Z</time>
      </trkpt>
      <trkpt lat="47.58478" lon="6.79899">
        <ele>419</ele>
        <time>2016-04-10T09:27:38.000Z</time>
      </trkpt>
      <trkpt lat="47.58482" lon="6.799">
        <ele>419</ele>
        <time>2016-04-10T09:27:41.000Z</time>
      </trkpt>
      <trkpt lat="47.58484" lon="6.799">
        <ele>419</ele>
        <time>2016-04-10T09:27:42.000Z</time>
      </trkpt>
      <trkpt lat="47.58487" lon="6.79902">
        <ele>419</ele>
        <time>2016-04-10T09:27:43.000Z</time>
      </trkpt>
      <trkpt lat="47.58488" lon="6.79903">
        <ele>419</ele>
        <time>2016-04-10T09:27:44.000Z</time>
      </trkpt>
      <trkpt lat="47.58491" lon="6.79907">
        <ele>420</ele>
        <time>2016-04-10T09:27:46.000Z</time>
      </trkpt>
      <trkpt lat="47.58492" lon="6.79909">
        <ele>420</ele>
        <time>2016-04-10T09:27:47.000Z</time>
      </trkpt>
      <trkpt lat="47.58495" lon="6.79913">
        <ele>421</ele>
        <time>2016-04-10T09:27:49.000Z</time>
      </trkpt>
      <trkpt lat="47.58496" lon="6.79914">
        <ele>421</ele>
        <time>2016-04-10T09:27:50.000Z</time>
      </trkpt>
      <trkpt lat="47.58499" lon="6.79917">
        <ele>422</ele>
        <time>2016-04-10T09:27:52.000Z</time>
      </trkpt>
      <trkpt lat="47.585" lon="6.79918">
        <ele>422</ele>
        <time>2016-04-10T09:27:53.000Z</time>
      </trkpt>
      <trkpt lat="47.58501" lon="6.79921">
        <ele>422</ele>
        <time>2016-04-10T09:27:54.000Z</time>
      </trkpt>
      <trkpt lat="47.58502" lon="6.79925">
        <ele>422</ele>
        <time>2016-04-10T09:27:55.000Z</time>
      </trkpt>
      <trkpt lat="47.58502" lon="6.79928">
        <ele>422</ele>
        <time>2016-04-10T09:27:56.000Z</time>
      </trkpt>
      <trkpt lat="47.58503" lon="6.79932">
        <ele>422</ele>
        <time>2016-04-10T09:27:57.000Z</time>
      </trkpt>
      <trkpt lat="47.58504" lon="6.79935">
        <ele>422</ele>
        <time>2016-04-10T09:27:58.000Z</time>
      </trkpt>
      <trkpt lat="47.58504" lon="6.79938">
        <ele>422</ele>
        <time>2016-04-10T09:27:59.000Z</time>
      </trkpt>
      <trkpt lat="47.58506" lon="6.79944">
        <ele>422</ele>
        <time>2016-04-10T09:28:01.000Z</time>
      </trkpt>
      <trkpt lat="47.58507" lon="6.79946">
        <ele>422</ele>
        <time>2016-04-10T09:28:02.000Z</time>
      </trkpt>
      <trkpt lat="47.58509" lon="6.79949">
        <ele>423</ele>
        <time>2016-04-10T09:28:04.000Z</time>
      </trkpt>
      <trkpt lat="47.5851" lon="6.79951">
        <ele>423</ele>
        <time>2016-04-10T09:28:05.000Z</time>
      </trkpt>
      <trkpt lat="47.58511" lon="6.79954">
        <ele>423</ele>
        <time>2016-04-10T09:28:06.000Z</time>
      </trkpt>
      <trkpt lat="47.58513" lon="6.79956">
        <ele>423</ele>
        <time>2016-04-10T09:28:07.000Z</time>
      </trkpt>
      <trkpt lat="47.58515" lon="6.79958">
        <ele>423</ele>
        <time>2016-04-10T09:28:08.000Z</time>
      </trkpt>
      <trkpt lat="47.58517" lon="6.79961">
        <ele>423</ele>
        <time>2016-04-10T09:28:09.000Z</time>
      </trkpt>
      <trkpt lat="47.58519" lon="6.79964">
        <ele>423</ele>
        <time>2016-04-10T09:28:10.000Z</time>
      </trkpt>
      <trkpt lat="47.58521" lon="6.79966">
        <ele>423</ele>
        <time>2016-04-10T09:28:11.000Z</time>
      </trkpt>
      <trkpt lat="47.58523" lon="6.79968">
        <ele>423</ele>
        <time>2016-04-10T09:28:12.000Z</time>
      </trkpt>
      <trkpt lat="47.58525" lon="6.7997">
        <ele>423</ele>
        <time>2016-04-10T09:28:13.000Z</time>
      </trkpt>
      <trkpt lat="47.58529" lon="6.79974">
        <ele>424</ele>
        <time>2016-04-10T09:28:15.000Z</time>
      </trkpt>
      <trkpt lat="47.58531" lon="6.79976">
        <ele>424</ele>
        <time>2016-04-10T09:28:16.000Z</time>
      </trkpt>
      <trkpt lat="47.58533" lon="6.79979">
        <ele>424</ele>
        <time>2016-04-10T09:28:18.000Z</time>
      </trkpt>
      <trkpt lat="47.58535" lon="6.79982">
        <ele>424</ele>
        <time>2016-04-10T09:28:19.000Z</time>
      </trkpt>
      <trkpt lat="47.58537" lon="6.79984">
        <ele>424</ele>
        <time>2016-04-10T09:28:20.000Z</time>
      </trkpt>
      <trkpt lat="47.58539" lon="6.79985">
        <ele>424</ele>
        <time>2016-04-10T09:28:21.000Z</time>
      </trkpt>
      <trkpt lat="47.58543" lon="6.79988">
        <ele>424</ele>
        <time>2016-04-10T09:28:23.000Z</time>
      </trkpt>
      <trkpt lat="47.58545" lon="6.79989">
        <ele>424</ele>
        <time>2016-04-10T09:28:24.000Z</time>
      </trkpt>
      <trkpt lat="47.58548" lon="6.7999">
        <ele>424</ele>
        <time>2016-04-10T09:28:25.000Z</time>
      </trkpt>
      <trkpt lat="47.5855" lon="6.79992">
        <ele>424</ele>
        <time>2016-04-10T09:28:26.000Z</time>
      </trkpt>
      <trkpt lat="47.58553" lon="6.79993">
        <ele>424</ele>
        <time>2016-04-10T09:28:27.000Z</time>
      </trkpt>
      <trkpt lat="47.58556" lon="6.79995">
        <ele>424</ele>
        <time>2016-04-10T09:28:28.000Z</time>
      </trkpt>
      <trkpt lat="47.58559" lon="6.79996">
        <ele>424</ele>
        <time>2016-04-10T09:28:29.000Z</time>
      </trkpt>
      <trkpt lat="47.58562" lon="6.79997">
        <ele>424</ele>
        <time>2016-04-10T09:28:30.000Z</time>
      </trkpt>
      <trkpt lat="47.58564" lon="6.79998">
        <ele>424</ele>
        <time>2016-04-10T09:28:31.000Z</time>
      </trkpt>
      <trkpt lat="47.58567" lon="6.8">
        <ele>425</ele>
        <time>2016-04-10T09:28:32.000Z</time>
      </trkpt>
      <trkpt lat="47.5857" lon="6.80002">
        <ele>429</ele>
        <time>2016-04-10T09:28:33.000Z</time>
      </trkpt>
      <trkpt lat="47.58573" lon="6.80004">
        <ele>429</ele>
        <time>2016-04-10T09:28:34.000Z</time>
      </trkpt>
      <trkpt lat="47.58575" lon="6.80006">
        <ele>428</ele>
        <time>2016-04-10T09:28:35.000Z</time>
      </trkpt>
      <trkpt lat="47.58578" lon="6.80009">
        <ele>428</ele>
        <time>2016-04-10T09:28:36.000Z</time>
      </trkpt>
      <trkpt lat="47.5858" lon="6.80011">
        <ele>429</ele>
        <time>2016-04-10T09:28:37.000Z</time>
      </trkpt>
      <trkpt lat="47.58582" lon="6.80014">
        <ele>429</ele>
        <time>2016-04-10T09:28:38.000Z</time>
      </trkpt>
      <trkpt lat="47.58584" lon="6.80016">
        <ele>426</ele>
        <time>2016-04-10T09:28:39.000Z</time>
      </trkpt>
      <trkpt lat="47.58586" lon="6.80018">
        <ele>426</ele>
        <time>2016-04-10T09:28:40.000Z</time>
      </trkpt>
      <trkpt lat="47.5859" lon="6.80022">
        <ele>425</ele>
        <time>2016-04-10T09:28:42.000Z</time>
      </trkpt>
      <trkpt lat="47.58591" lon="6.80024">
        <ele>425</ele>
        <time>2016-04-10T09:28:43.000Z</time>
      </trkpt>
      <trkpt lat="47.58594" lon="6.80026">
        <ele>425</ele>
        <time>2016-04-10T09:28:44.000Z</time>
      </trkpt>
      <trkpt lat="47.58596" lon="6.80028">
        <ele>425</ele>
        <time>2016-04-10T09:28:45.000Z</time>
      </trkpt>
      <trkpt lat="47.58599" lon="6.8003">
        <ele>425</ele>
        <time>2016-04-10T09:28:46.000Z</time>
      </trkpt>
      <trkpt lat="47.58601" lon="6.80032">
        <ele>425</ele>
        <time>2016-04-10T09:28:47.000Z</time>
      </trkpt>
      <trkpt lat="47.58603" lon="6.80035">
        <ele>425</ele>
        <time>2016-04-10T09:28:48.000Z</time>
      </trkpt>
      <trkpt lat="47.58606" lon="6.80037">
        <ele>425</ele>
        <time>2016-04-10T09:28:49.000Z</time>
      </trkpt>
      <trkpt lat="47.58608" lon="6.80039">
        <ele>425</ele>
        <time>2016-04-10T09:28:50.000Z</time>
      </trkpt>
      <trkpt lat="47.58611" lon="6.80042">
        <ele>425</ele>
        <time>2016-04-10T09:28:51.000Z</time>
      </trkpt>
      <trkpt lat="47.58614" lon="6.80044">
        <ele>425</ele>
        <time>2016-04-10T09:28:52.000Z</time>
      </trkpt>
      <trkpt lat="47.58617" lon="6.80047">
        <ele>425</ele>
        <time>2016-04-10T09:28:53.000Z</time>
      </trkpt>
      <trkpt lat="47.58619" lon="6.8005">
        <ele>425</ele>
        <time>2016-04-10T09:28:54.000Z</time>
      </trkpt>
      <trkpt lat="47.58622" lon="6.80052">
        <ele>425</ele>
        <time>2016-04-10T09:28:55.000Z</time>
      </trkpt>
      <trkpt lat="47.58624" lon="6.80055">
        <ele>425</ele>
        <time>2016-04-10T09:28:56.000Z</time>
      </trkpt>
      <trkpt lat="47.58626" lon="6.80057">
        <ele>425</ele>
        <time>2016-04-10T09:28:57.000Z</time>
      </trkpt>
      <trkpt lat="47.58628" lon="6.80058">
        <ele>425</ele>
        <time>2016-04-10T09:28:58.000Z</time>
      </trkpt>
      <trkpt lat="47.5863" lon="6.80059">
        <ele>425</ele>
        <time>2016-04-10T09:28:59.000Z</time>
      </trkpt>
      <trkpt lat="47.58634" lon="6.80061">
        <ele>425</ele>
        <time>2016-04-10T09:29:01.000Z</time>
      </trkpt>
      <trkpt lat="47.58635" lon="6.80063">
        <ele>425</ele>
        <time>2016-04-10T09:29:02.000Z</time>
      </trkpt>
      <trkpt lat="47.58638" lon="6.80067">
        <ele>425</ele>
        <time>2016-04-10T09:29:04.000Z</time>
      </trkpt>
      <trkpt lat="47.58639" lon="6.80069">
        <ele>425</ele>
        <time>2016-04-10T09:29:05.000Z</time>
      </trkpt>
      <trkpt lat="47.58641" lon="6.80072">
        <ele>425</ele>
        <time>2016-04-10T09:29:06.000Z</time>
      </trkpt>
      <trkpt lat="47.58643" lon="6.80075">
        <ele>426</ele>
        <time>2016-04-10T09:29:07.000Z</time>
      </trkpt>
      <trkpt lat="47.58644" lon="6.80078">
        <ele>426</ele>
        <time>2016-04-10T09:29:08.000Z</time>
      </trkpt>
      <trkpt lat="47.58646" lon="6.80081">
        <ele>426</ele>
        <time>2016-04-10T09:29:09.000Z</time>
      </trkpt>
      <trkpt lat="47.58648" lon="6.80086">
        <ele>432</ele>
        <time>2016-04-10T09:29:11.000Z</time>
      </trkpt>
      <trkpt lat="47.58648" lon="6.80087">
        <ele>431</ele>
        <time>2016-04-10T09:29:12.000Z</time>
      </trkpt>
      <trkpt lat="47.5865" lon="6.80091">
        <ele>431</ele>
        <time>2016-04-10T09:29:14.000Z</time>
      </trkpt>
      <trkpt lat="47.58652" lon="6.80093">
        <ele>431</ele>
        <time>2016-04-10T09:29:15.000Z</time>
      </trkpt>
      <trkpt lat="47.58655" lon="6.80097">
        <ele>432</ele>
        <time>2016-04-10T09:29:17.000Z</time>
      </trkpt>
      <trkpt lat="47.58656" lon="6.80099">
        <ele>432</ele>
        <time>2016-04-10T09:29:18.000Z</time>
      </trkpt>
      <trkpt lat="47.58658" lon="6.80101">
        <ele>432</ele>
        <time>2016-04-10T09:29:19.000Z</time>
      </trkpt>
      <trkpt lat="47.5866" lon="6.80103">
        <ele>432</ele>
        <time>2016-04-10T09:29:20.000Z</time>
      </trkpt>
      <trkpt lat="47.58664" lon="6.80106">
        <ele>432</ele>
        <time>2016-04-10T09:29:22.000Z</time>
      </trkpt>
      <trkpt lat="47.58666" lon="6.80108">
        <ele>432</ele>
        <time>2016-04-10T09:29:23.000Z</time>
      </trkpt>
      <trkpt lat="47.58668" lon="6.8011">
        <ele>429</ele>
        <time>2016-04-10T09:29:24.000Z</time>
      </trkpt>
      <trkpt lat="47.5867" lon="6.80111">
        <ele>429</ele>
        <time>2016-04-10T09:29:25.000Z</time>
      </trkpt>
      <trkpt lat="47.58674" lon="6.80114">
        <ele>429</ele>
        <time>2016-04-10T09:29:27.000Z</time>
      </trkpt>
      <trkpt lat="47.58675" lon="6.80115">
        <ele>429</ele>
        <time>2016-04-10T09:29:28.000Z</time>
      </trkpt>
      <trkpt lat="47.58678" lon="6.80117">
        <ele>429</ele>
        <time>2016-04-10T09:29:30.000Z</time>
      </trkpt>
      <trkpt lat="47.5868" lon="6.80118">
        <ele>429</ele>
        <time>2016-04-10T09:29:31.000Z</time>
      </trkpt>
      <trkpt lat="47.58682" lon="6.80119">
        <ele>429</ele>
        <time>2016-04-10T09:29:32.000Z</time>
      </trkpt>
      <trkpt lat="47.58684" lon="6.8012">
        <ele>429</ele>
        <time>2016-04-10T09:29:33.000Z</time>
      </trkpt>
      <trkpt lat="47.58687" lon="6.80121">
        <ele>429</ele>
        <time>2016-04-10T09:29:34.000Z</time>
      </trkpt>
      <trkpt lat="47.58689" lon="6.80123">
        <ele>429</ele>
        <time>2016-04-10T09:29:35.000Z</time>
      </trkpt>
      <trkpt lat="47.58692" lon="6.80124">
        <ele>429</ele>
        <time>2016-04-10T09:29:36.000Z</time>
      </trkpt>
      <trkpt lat="47.58695" lon="6.80126">
        <ele>429</ele>
        <time>2016-04-10T09:29:37.000Z</time>
      </trkpt>
      <trkpt lat="47.58697" lon="6.80127">
        <ele>429</ele>
        <time>2016-04-10T09:29:38.000Z</time>
      </trkpt>
      <trkpt lat="47.58699" lon="6.80128">
        <ele>429</ele>
        <time>2016-04-10T09:29:39.000Z</time>
      </trkpt>
      <trkpt lat="47.58701" lon="6.80129">
        <ele>429</ele>
        <time>2016-04-10T09:29:40.000Z</time>
      </trkpt>
      <trkpt lat="47.58704" lon="6.8013">
        <ele>429</ele>
        <time>2016-04-10T09:29:41.000Z</time>
      </trkpt>
      <trkpt lat="47.58706" lon="6.80131">
        <ele>429</ele>
        <time>2016-04-10T09:29:42.000Z</time>
      </trkpt>
      <trkpt lat="47.58708" lon="6.80133">
        <ele>429</ele>
        <time>2016-04-10T09:29:43.000Z</time>
      </trkpt>
      <trkpt lat="47.58711" lon="6.80134">
        <ele>429</ele>
        <time>2016-04-10T09:29:44.000Z</time>
      </trkpt>
      <trkpt lat="47.58713" lon="6.80135">
        <ele>429</ele>
        <time>2016-04-10T09:29:45.000Z</time>
      </trkpt>
      <trkpt lat="47.58717" lon="6.80136">
        <ele>429</ele>
        <time>2016-04-10T09:29:47.000Z</time>
      </trkpt>
      <trkpt lat="47.58719" lon="6.80137">
        <ele>429</ele>
        <time>2016-04-10T09:29:48.000Z</time>
      </trkpt>
      <trkpt lat="47.58722" lon="6.80139">
        <ele>429</ele>
        <time>2016-04-10T09:29:49.000Z</time>
      </trkpt>
      <trkpt lat="47.58724" lon="6.80142">
        <ele>429</ele>
        <time>2016-04-10T09:29:50.000Z</time>
      </trkpt>
      <trkpt lat="47.58726" lon="6.80144">
        <ele>429</ele>
        <time>2016-04-10T09:29:51.000Z</time>
      </trkpt>
      <trkpt lat="47.58728" lon="6.80147">
        <ele>430</ele>
        <time>2016-04-10T09:29:52.000Z</time>
      </trkpt>
      <trkpt lat="47.58731" lon="6.80149">
        <ele>430</ele>
        <time>2016-04-10T09:29:53.000Z</time>
      </trkpt>
      <trkpt lat="47.58733" lon="6.80151">
        <ele>430</ele>
        <time>2016-04-10T09:29:54.000Z</time>
      </trkpt>
      <trkpt lat="47.58736" lon="6.80153">
        <ele>431</ele>
        <time>2016-04-10T09:29:56.000Z</time>
      </trkpt>
      <trkpt lat="47.58737" lon="6.80155">
        <ele>431</ele>
        <time>2016-04-10T09:29:57.000Z</time>
      </trkpt>
      <trkpt lat="47.58739" lon="6.80159">
        <ele>431</ele>
        <time>2016-04-10T09:29:59.000Z</time>
      </trkpt>
      <trkpt lat="47.58741" lon="6.80162">
        <ele>432</ele>
        <time>2016-04-10T09:30:00.000Z</time>
      </trkpt>
      <trkpt lat="47.58743" lon="6.80165">
        <ele>432</ele>
        <time>2016-04-10T09:30:01.000Z</time>
      </trkpt>
      <trkpt lat="47.58745" lon="6.80167">
        <ele>435</ele>
        <time>2016-04-10T09:30:02.000Z</time>
      </trkpt>
      <trkpt lat="47.58746" lon="6.8017">
        <ele>435</ele>
        <time>2016-04-10T09:30:03.000Z</time>
      </trkpt>
      <trkpt lat="47.58748" lon="6.80172">
        <ele>435</ele>
        <time>2016-04-10T09:30:04.000Z</time>
      </trkpt>
      <trkpt lat="47.58752" lon="6.80175">
        <ele>433</ele>
        <time>2016-04-10T09:30:06.000Z</time>
      </trkpt>
      <trkpt lat="47.58753" lon="6.80177">
        <ele>433</ele>
        <time>2016-04-10T09:30:07.000Z</time>
      </trkpt>
      <trkpt lat="47.58754" lon="6.8018">
        <ele>433</ele>
        <time>2016-04-10T09:30:08.000Z</time>
      </trkpt>
      <trkpt lat="47.58755" lon="6.80184">
        <ele>433</ele>
        <time>2016-04-10T09:30:09.000Z</time>
      </trkpt>
      <trkpt lat="47.58756" lon="6.80187">
        <ele>432</ele>
        <time>2016-04-10T09:30:10.000Z</time>
      </trkpt>
      <trkpt lat="47.58758" lon="6.80191">
        <ele>432</ele>
        <time>2016-04-10T09:30:11.000Z</time>
      </trkpt>
      <trkpt lat="47.58759" lon="6.80194">
        <ele>432</ele>
        <time>2016-04-10T09:30:12.000Z</time>
      </trkpt>
      <trkpt lat="47.5876" lon="6.80197">
        <ele>433</ele>
        <time>2016-04-10T09:30:13.000Z</time>
      </trkpt>
      <trkpt lat="47.58762" lon="6.80202">
        <ele>433</ele>
        <time>2016-04-10T09:30:14.000Z</time>
      </trkpt>
      <trkpt lat="47.58764" lon="6.80206">
        <ele>433</ele>
        <time>2016-04-10T09:30:15.000Z</time>
      </trkpt>
      <trkpt lat="47.58766" lon="6.8021">
        <ele>433</ele>
        <time>2016-04-10T09:30:16.000Z</time>
      </trkpt>
      <trkpt lat="47.58768" lon="6.80214">
        <ele>433</ele>
        <time>2016-04-10T09:30:17.000Z</time>
      </trkpt>
      <trkpt lat="47.58769" lon="6.80217">
        <ele>434</ele>
        <time>2016-04-10T09:30:18.000Z</time>
      </trkpt>
      <trkpt lat="47.58771" lon="6.8022">
        <ele>434</ele>
        <time>2016-04-10T09:30:19.000Z</time>
      </trkpt>
      <trkpt lat="47.58773" lon="6.80225">
        <ele>434</ele>
        <time>2016-04-10T09:30:21.000Z</time>
      </trkpt>
      <trkpt lat="47.58774" lon="6.80227">
        <ele>434</ele>
        <time>2016-04-10T09:30:22.000Z</time>
      </trkpt>
      <trkpt lat="47.58776" lon="6.8023">
        <ele>434</ele>
        <time>2016-04-10T09:30:23.000Z</time>
      </trkpt>
      <trkpt lat="47.58778" lon="6.80233">
        <ele>434</ele>
        <time>2016-04-10T09:30:24.000Z</time>
      </trkpt>
      <trkpt lat="47.58779" lon="6.80235">
        <ele>434</ele>
        <time>2016-04-10T09:30:25.000Z</time>
      </trkpt>
      <trkpt lat="47.58781" lon="6.80237">
        <ele>434</ele>
        <time>2016-04-10T09:30:26.000Z</time>
      </trkpt>
      <trkpt lat="47.58783" lon="6.8024">
        <ele>434</ele>
        <time>2016-04-10T09:30:27.000Z</time>
      </trkpt>
      <trkpt lat="47.58784" lon="6.80243">
        <ele>434</ele>
        <time>2016-04-10T09:30:28.000Z</time>
      </trkpt>
      <trkpt lat="47.58786" lon="6.80245">
        <ele>434</ele>
        <time>2016-04-10T09:30:29.000Z</time>
      </trkpt>
      <trkpt lat="47.58787" lon="6.80248">
        <ele>434</ele>
        <time>2016-04-10T09:30:30.000Z</time>
      </trkpt>
      <trkpt lat="47.58789" lon="6.80251">
        <ele>440</ele>
        <time>2016-04-10T09:30:31.000Z</time>
      </trkpt>
      <trkpt lat="47.5879" lon="6.80255">
        <ele>440</ele>
        <time>2016-04-10T09:30:32.000Z</time>
      </trkpt>
      <trkpt lat="47.58793" lon="6.80259">
        <ele>439</ele>
        <time>2016-04-10T09:30:33.000Z</time>
      </trkpt>
      <trkpt lat="47.58795" lon="6.80263">
        <ele>439</ele>
        <time>2016-04-10T09:30:34.000Z</time>
      </trkpt>
      <trkpt lat="47.58797" lon="6.80268">
        <ele>439</ele>
        <time>2016-04-10T09:30:35.000Z</time>
      </trkpt>
      <trkpt lat="47.588" lon="6.80273">
        <ele>439</ele>
        <time>2016-04-10T09:30:36.000Z</time>
      </trkpt>
      <trkpt lat="47.58802" lon="6.80277">
        <ele>439</ele>
        <time>2016-04-10T09:30:37.000Z</time>
      </trkpt>
      <trkpt lat="47.58804" lon="6.8028">
        <ele>439</ele>
        <time>2016-04-10T09:30:38.000Z</time>
      </trkpt>
      <trkpt lat="47.58806" lon="6.80283">
        <ele>439</ele>
        <time>2016-04-10T09:30:39.000Z</time>
      </trkpt>
      <trkpt lat="47.58808" lon="6.80285">
        <ele>439</ele>
        <time>2016-04-10T09:30:40.000Z</time>
      </trkpt>
      <trkpt lat="47.5881" lon="6.80287">
        <ele>439</ele>
        <time>2016-04-10T09:30:41.000Z</time>
      </trkpt>
      <trkpt lat="47.58812" lon="6.80289">
        <ele>439</ele>
        <time>2016-04-10T09:30:42.000Z</time>
      </trkpt>
      <trkpt lat="47.58814" lon="6.80291">
        <ele>439</ele>
        <time>2016-04-10T09:30:43.000Z</time>
      </trkpt>
      <trkpt lat="47.58816" lon="6.80294">
        <ele>439</ele>
        <time>2016-04-10T09:30:44.000Z</time>
      </trkpt>
      <trkpt lat="47.58818" lon="6.80297">
        <ele>440</ele>
        <time>2016-04-10T09:30:45.000Z</time>
      </trkpt>
      <trkpt lat="47.5882" lon="6.803">
        <ele>440</ele>
        <time>2016-04-10T09:30:46.000Z</time>
      </trkpt>
      <trkpt lat="47.58823" lon="6.80303">
        <ele>440</ele>
        <time>2016-04-10T09:30:47.000Z</time>
      </trkpt>
      <trkpt lat="47.58825" lon="6.80306">
        <ele>440</ele>
        <time>2016-04-10T09:30:48.000Z</time>
      </trkpt>
      <trkpt lat="47.58827" lon="6.80308">
        <ele>440</ele>
        <time>2016-04-10T09:30:49.000Z</time>
      </trkpt>
      <trkpt lat="47.58829" lon="6.8031">
        <ele>440</ele>
        <time>2016-04-10T09:30:50.000Z</time>
      </trkpt>
      <trkpt lat="47.58832" lon="6.80312">
        <ele>440</ele>
        <time>2016-04-10T09:30:51.000Z</time>
      </trkpt>
      <trkpt lat="47.58834" lon="6.80316">
        <ele>434</ele>
        <time>2016-04-10T09:30:52.000Z</time>
      </trkpt>
      <trkpt lat="47.58836" lon="6.80319">
        <ele>435</ele>
        <time>2016-04-10T09:30:53.000Z</time>
      </trkpt>
      <trkpt lat="47.58838" lon="6.80324">
        <ele>436</ele>
        <time>2016-04-10T09:30:54.000Z</time>
      </trkpt>
      <trkpt lat="47.5884" lon="6.80328">
        <ele>436</ele>
        <time>2016-04-10T09:30:55.000Z</time>
      </trkpt>
      <trkpt lat="47.58843" lon="6.8033">
        <ele>436</ele>
        <time>2016-04-10T09:30:56.000Z</time>
      </trkpt>
      <trkpt lat="47.58846" lon="6.80332">
        <ele>435</ele>
        <time>2016-04-10T09:30:57.000Z</time>
      </trkpt>
      <trkpt lat="47.58848" lon="6.80333">
        <ele>434</ele>
        <time>2016-04-10T09:30:58.000Z</time>
      </trkpt>
      <trkpt lat="47.58852" lon="6.80335">
        <ele>437</ele>
        <time>2016-04-10T09:31:00.000Z</time>
      </trkpt>
      <trkpt lat="47.58854" lon="6.80335">
        <ele>436</ele>
        <time>2016-04-10T09:31:01.000Z</time>
      </trkpt>
      <trkpt lat="47.58856" lon="6.80337">
        <ele>436</ele>
        <time>2016-04-10T09:31:03.000Z</time>
      </trkpt>
      <trkpt lat="47.58858" lon="6.80338">
        <ele>436</ele>
        <time>2016-04-10T09:31:04.000Z</time>
      </trkpt>
      <trkpt lat="47.58861" lon="6.80342">
        <ele>435</ele>
        <time>2016-04-10T09:31:06.000Z</time>
      </trkpt>
      <trkpt lat="47.58863" lon="6.80345">
        <ele>435</ele>
        <time>2016-04-10T09:31:07.000Z</time>
      </trkpt>
      <trkpt lat="47.58864" lon="6.80348">
        <ele>434</ele>
        <time>2016-04-10T09:31:08.000Z</time>
      </trkpt>
      <trkpt lat="47.58865" lon="6.80351">
        <ele>434</ele>
        <time>2016-04-10T09:31:09.000Z</time>
      </trkpt>
      <trkpt lat="47.58866" lon="6.80354">
        <ele>434</ele>
        <time>2016-04-10T09:31:10.000Z</time>
      </trkpt>
      <trkpt lat="47.58868" lon="6.80358">
        <ele>434</ele>
        <time>2016-04-10T09:31:11.000Z</time>
      </trkpt>
      <trkpt lat="47.58869" lon="6.80361">
        <ele>434</ele>
        <time>2016-04-10T09:31:12.000Z</time>
      </trkpt>
      <trkpt lat="47.58871" lon="6.80364">
        <ele>434</ele>
        <time>2016-04-10T09:31:13.000Z</time>
      </trkpt>
      <trkpt lat="47.58872" lon="6.80368">
        <ele>434</ele>
        <time>2016-04-10T09:31:14.000Z</time>
      </trkpt>
      <trkpt lat="47.58872" lon="6.80371">
        <ele>434</ele>
        <time>2016-04-10T09:31:15.000Z</time>
      </trkpt>
      <trkpt lat="47.58872" lon="6.80377">
        <ele>434</ele>
        <time>2016-04-10T09:31:17.000Z</time>
      </trkpt>
      <trkpt lat="47.58872" lon="6.8038">
        <ele>434</ele>
        <time>2016-04-10T09:31:18.000Z</time>
      </trkpt>
      <trkpt lat="47.58873" lon="6.80386">
        <ele>434</ele>
        <time>2016-04-10T09:31:21.000Z</time>
      </trkpt>
      <trkpt lat="47.58874" lon="6.80388">
        <ele>434</ele>
        <time>2016-04-10T09:31:22.000Z</time>
      </trkpt>
      <trkpt lat="47.58877" lon="6.80393">
        <ele>434</ele>
        <time>2016-04-10T09:31:24.000Z</time>
      </trkpt>
      <trkpt lat="47.58877" lon="6.80396">
        <ele>434</ele>
        <time>2016-04-10T09:31:25.000Z</time>
      </trkpt>
      <trkpt lat="47.58879" lon="6.804">
        <ele>434</ele>
        <time>2016-04-10T09:31:27.000Z</time>
      </trkpt>
      <trkpt lat="47.5888" lon="6.80402">
        <ele>434</ele>
        <time>2016-04-10T09:31:28.000Z</time>
      </trkpt>
      <trkpt lat="47.58883" lon="6.80407">
        <ele>434</ele>
        <time>2016-04-10T09:31:30.000Z</time>
      </trkpt>
      <trkpt lat="47.58884" lon="6.8041">
        <ele>433</ele>
        <time>2016-04-10T09:31:31.000Z</time>
      </trkpt>
      <trkpt lat="47.58885" lon="6.80414">
        <ele>433</ele>
        <time>2016-04-10T09:31:32.000Z</time>
      </trkpt>
      <trkpt lat="47.58885" lon="6.80419">
        <ele>435</ele>
        <time>2016-04-10T09:31:33.000Z</time>
      </trkpt>
      <trkpt lat="47.58884" lon="6.80423">
        <ele>435</ele>
        <time>2016-04-10T09:31:34.000Z</time>
      </trkpt>
      <trkpt lat="47.58884" lon="6.80428">
        <ele>436</ele>
        <time>2016-04-10T09:31:35.000Z</time>
      </trkpt>
      <trkpt lat="47.58884" lon="6.80432">
        <ele>436</ele>
        <time>2016-04-10T09:31:36.000Z</time>
      </trkpt>
      <trkpt lat="47.58885" lon="6.80436">
        <ele>436</ele>
        <time>2016-04-10T09:31:37.000Z</time>
      </trkpt>
      <trkpt lat="47.58886" lon="6.80439">
        <ele>436</ele>
        <time>2016-04-10T09:31:38.000Z</time>
      </trkpt>
      <trkpt lat="47.58887" lon="6.80443">
        <ele>436</ele>
        <time>2016-04-10T09:31:39.000Z</time>
      </trkpt>
      <trkpt lat="47.58888" lon="6.80446">
        <ele>436</ele>
        <time>2016-04-10T09:31:40.000Z</time>
      </trkpt>
      <trkpt lat="47.5889" lon="6.8045">
        <ele>436</ele>
        <time>2016-04-10T09:31:41.000Z</time>
      </trkpt>
      <trkpt lat="47.58892" lon="6.80453">
        <ele>436</ele>
        <time>2016-04-10T09:31:42.000Z</time>
      </trkpt>
      <trkpt lat="47.58894" lon="6.80457">
        <ele>436</ele>
        <time>2016-04-10T09:31:43.000Z</time>
      </trkpt>
      <trkpt lat="47.58895" lon="6.80461">
        <ele>436</ele>
        <time>2016-04-10T09:31:44.000Z</time>
      </trkpt>
      <trkpt lat="47.58897" lon="6.80465">
        <ele>436</ele>
        <time>2016-04-10T09:31:45.000Z</time>
      </trkpt>
      <trkpt lat="47.58898" lon="6.80468">
        <ele>436</ele>
        <time>2016-04-10T09:31:46.000Z</time>
      </trkpt>
      <trkpt lat="47.589" lon="6.8047">
        <ele>436</ele>
        <time>2016-04-10T09:31:47.000Z</time>
      </trkpt>
      <trkpt lat="47.58904" lon="6.80472">
        <ele>436</ele>
        <time>2016-04-10T09:31:49.000Z</time>
      </trkpt>
      <trkpt lat="47.58906" lon="6.80472">
        <ele>436</ele>
        <time>2016-04-10T09:31:50.000Z</time>
      </trkpt>
      <trkpt lat="47.5891" lon="6.80474">
        <ele>436</ele>
        <time>2016-04-10T09:31:53.000Z</time>
      </trkpt>
      <trkpt lat="47.58911" lon="6.80476">
        <ele>436</ele>
        <time>2016-04-10T09:31:54.000Z</time>
      </trkpt>
      <trkpt lat="47.58913" lon="6.80479">
        <ele>436</ele>
        <time>2016-04-10T09:31:56.000Z</time>
      </trkpt>
      <trkpt lat="47.58914" lon="6.80481">
        <ele>436</ele>
        <time>2016-04-10T09:31:57.000Z</time>
      </trkpt>
      <trkpt lat="47.58914" lon="6.80487">
        <ele>436</ele>
        <time>2016-04-10T09:32:02.000Z</time>
      </trkpt>
      <trkpt lat="47.58915" lon="6.80489">
        <ele>436</ele>
        <time>2016-04-10T09:32:03.000Z</time>
      </trkpt>
      <trkpt lat="47.58917" lon="6.80493">
        <ele>434</ele>
        <time>2016-04-10T09:32:05.000Z</time>
      </trkpt>
      <trkpt lat="47.58918" lon="6.80496">
        <ele>435</ele>
        <time>2016-04-10T09:32:06.000Z</time>
      </trkpt>
      <trkpt lat="47.58919" lon="6.80501">
        <ele>436</ele>
        <time>2016-04-10T09:32:08.000Z</time>
      </trkpt>
      <trkpt lat="47.5892" lon="6.80503">
        <ele>435</ele>
        <time>2016-04-10T09:32:09.000Z</time>
      </trkpt>
      <trkpt lat="47.58921" lon="6.80509">
        <ele>435</ele>
        <time>2016-04-10T09:32:11.000Z</time>
      </trkpt>
      <trkpt lat="47.58922" lon="6.80514">
        <ele>435</ele>
        <time>2016-04-10T09:32:12.000Z</time>
      </trkpt>
      <trkpt lat="47.58922" lon="6.8052">
        <ele>434</ele>
        <time>2016-04-10T09:32:13.000Z</time>
      </trkpt>
      <trkpt lat="47.58922" lon="6.80525">
        <ele>434</ele>
        <time>2016-04-10T09:32:14.000Z</time>
      </trkpt>
      <trkpt lat="47.58923" lon="6.8053">
        <ele>434</ele>
        <time>2016-04-10T09:32:15.000Z</time>
      </trkpt>
      <trkpt lat="47.58923" lon="6.80534">
        <ele>434</ele>
        <time>2016-04-10T09:32:16.000Z</time>
      </trkpt>
      <trkpt lat="47.58924" lon="6.80537">
        <ele>434</ele>
        <time>2016-04-10T09:32:17.000Z</time>
      </trkpt>
      <trkpt lat="47.58924" lon="6.80541">
        <ele>434</ele>
        <time>2016-04-10T09:32:18.000Z</time>
      </trkpt>
      <trkpt lat="47.58925" lon="6.80545">
        <ele>434</ele>
        <time>2016-04-10T09:32:19.000Z</time>
      </trkpt>
      <trkpt lat="47.58925" lon="6.80548">
        <ele>435</ele>
        <time>2016-04-10T09:32:20.000Z</time>
      </trkpt>
      <trkpt lat="47.58924" lon="6.80554">
        <ele>435</ele>
        <time>2016-04-10T09:32:23.000Z</time>
      </trkpt>
      <trkpt lat="47.58924" lon="6.80555">
        <ele>435</ele>
        <time>2016-04-10T09:32:24.000Z</time>
      </trkpt>
      <trkpt lat="47.5892" lon="6.80558">
        <ele>435</ele>
        <time>2016-04-10T09:32:29.000Z</time>
      </trkpt>
      <trkpt lat="47.5892" lon="6.80559">
        <ele>435</ele>
        <time>2016-04-10T09:32:30.000Z</time>
      </trkpt>
      <trkpt lat="47.58918" lon="6.80565">
        <ele>436</ele>
        <time>2016-04-10T09:32:34.000Z</time>
      </trkpt>
      <trkpt lat="47.58918" lon="6.80566">
        <ele>436</ele>
        <time>2016-04-10T09:32:35.000Z</time>
      </trkpt>
      <trkpt lat="47.58918" lon="6.80572">
        <ele>437</ele>
        <time>2016-04-10T09:32:39.000Z</time>
      </trkpt>
      <trkpt lat="47.58917" lon="6.80574">
        <ele>437</ele>
        <time>2016-04-10T09:32:40.000Z</time>
      </trkpt>
      <trkpt lat="47.58915" lon="6.8058">
        <ele>439</ele>
        <time>2016-04-10T09:32:45.000Z</time>
      </trkpt>
      <trkpt lat="47.58915" lon="6.80581">
        <ele>439</ele>
        <time>2016-04-10T09:32:46.000Z</time>
      </trkpt>
      <trkpt lat="47.58914" lon="6.80587">
        <ele>439</ele>
        <time>2016-04-10T09:32:50.000Z</time>
      </trkpt>
      <trkpt lat="47.58914" lon="6.8059">
        <ele>439</ele>
        <time>2016-04-10T09:32:51.000Z</time>
      </trkpt>
      <trkpt lat="47.58914" lon="6.80593">
        <ele>439</ele>
        <time>2016-04-10T09:32:52.000Z</time>
      </trkpt>
      <trkpt lat="47.58914" lon="6.80597">
        <ele>439</ele>
        <time>2016-04-10T09:32:53.000Z</time>
      </trkpt>
      <trkpt lat="47.58914" lon="6.80601">
        <ele>440</ele>
        <time>2016-04-10T09:32:54.000Z</time>
      </trkpt>
      <trkpt lat="47.58915" lon="6.80605">
        <ele>440</ele>
        <time>2016-04-10T09:32:55.000Z</time>
      </trkpt>
      <trkpt lat="47.58916" lon="6.80608">
        <ele>440</ele>
        <time>2016-04-10T09:32:56.000Z</time>
      </trkpt>
      <trkpt lat="47.58917" lon="6.80612">
        <ele>438</ele>
        <time>2016-04-10T09:32:57.000Z</time>
      </trkpt>
      <trkpt lat="47.58918" lon="6.80616">
        <ele>438</ele>
        <time>2016-04-10T09:32:58.000Z</time>
      </trkpt>
      <trkpt lat="47.58919" lon="6.8062">
        <ele>438</ele>
        <time>2016-04-10T09:32:59.000Z</time>
      </trkpt>
      <trkpt lat="47.58921" lon="6.80624">
        <ele>438</ele>
        <time>2016-04-10T09:33:00.000Z</time>
      </trkpt>
      <trkpt lat="47.58921" lon="6.80629">
        <ele>438</ele>
        <time>2016-04-10T09:33:01.000Z</time>
      </trkpt>
      <trkpt lat="47.58922" lon="6.80634">
        <ele>438</ele>
        <time>2016-04-10T09:33:02.000Z</time>
      </trkpt>
      <trkpt lat="47.58923" lon="6.80638">
        <ele>438</ele>
        <time>2016-04-10T09:33:03.000Z</time>
      </trkpt>
      <trkpt lat="47.58923" lon="6.80643">
        <ele>439</ele>
        <time>2016-04-10T09:33:04.000Z</time>
      </trkpt>
      <trkpt lat="47.58923" lon="6.80647">
        <ele>439</ele>
        <time>2016-04-10T09:33:05.000Z</time>
      </trkpt>
      <trkpt lat="47.58923" lon="6.80651">
        <ele>439</ele>
        <time>2016-04-10T09:33:06.000Z</time>
      </trkpt>
      <trkpt lat="47.58923" lon="6.80656">
        <ele>440</ele>
        <time>2016-04-10T09:33:07.000Z</time>
      </trkpt>
      <trkpt lat="47.58922" lon="6.8066">
        <ele>440</ele>
        <time>2016-04-10T09:33:08.000Z</time>
      </trkpt>
      <trkpt lat="47.58922" lon="6.80665">
        <ele>441</ele>
        <time>2016-04-10T09:33:09.000Z</time>
      </trkpt>
      <trkpt lat="47.58921" lon="6.80671">
        <ele>441</ele>
        <time>2016-04-10T09:33:10.000Z</time>
      </trkpt>
      <trkpt lat="47.58921" lon="6.80676">
        <ele>441</ele>
        <time>2016-04-10T09:33:11.000Z</time>
      </trkpt>
      <trkpt lat="47.58921" lon="6.80682">
        <ele>441</ele>
        <time>2016-04-10T09:33:12.000Z</time>
      </trkpt>
      <trkpt lat="47.5892" lon="6.80687">
        <ele>441</ele>
        <time>2016-04-10T09:33:13.000Z</time>
      </trkpt>
      <trkpt lat="47.5892" lon="6.80693">
        <ele>441</ele>
        <time>2016-04-10T09:33:14.000Z</time>
      </trkpt>
      <trkpt lat="47.5892" lon="6.80698">
        <ele>441</ele>
        <time>2016-04-10T09:33:15.000Z</time>
      </trkpt>
      <trkpt lat="47.5892" lon="6.80703">
        <ele>441</ele>
        <time>2016-04-10T09:33:16.000Z</time>
      </trkpt>
      <trkpt lat="47.58919" lon="6.80708">
        <ele>441</ele>
        <time>2016-04-10T09:33:17.000Z</time>
      </trkpt>
      <trkpt lat="47.58918" lon="6.80713">
        <ele>441</ele>
        <time>2016-04-10T09:33:18.000Z</time>
      </trkpt>
      <trkpt lat="47.58917" lon="6.80718">
        <ele>441</ele>
        <time>2016-04-10T09:33:19.000Z</time>
      </trkpt>
      <trkpt lat="47.58916" lon="6.80723">
        <ele>442</ele>
        <time>2016-04-10T09:33:20.000Z</time>
      </trkpt>
      <trkpt lat="47.58916" lon="6.80727">
        <ele>443</ele>
        <time>2016-04-10T09:33:21.000Z</time>
      </trkpt>
      <trkpt lat="47.58915" lon="6.80732">
        <ele>443</ele>
        <time>2016-04-10T09:33:22.000Z</time>
      </trkpt>
      <trkpt lat="47.58915" lon="6.80736">
        <ele>443</ele>
        <time>2016-04-10T09:33:23.000Z</time>
      </trkpt>
      <trkpt lat="47.58914" lon="6.80741">
        <ele>443</ele>
        <time>2016-04-10T09:33:24.000Z</time>
      </trkpt>
      <trkpt lat="47.58914" lon="6.80746">
        <ele>444</ele>
        <time>2016-04-10T09:33:25.000Z</time>
      </trkpt>
      <trkpt lat="47.58914" lon="6.80752">
        <ele>444</ele>
        <time>2016-04-10T09:33:26.000Z</time>
      </trkpt>
      <trkpt lat="47.58914" lon="6.80758">
        <ele>443</ele>
        <time>2016-04-10T09:33:27.000Z</time>
      </trkpt>
      <trkpt lat="47.58913" lon="6.80765">
        <ele>442</ele>
        <time>2016-04-10T09:33:28.000Z</time>
      </trkpt>
      <trkpt lat="47.58913" lon="6.80772">
        <ele>442</ele>
        <time>2016-04-10T09:33:29.000Z</time>
      </trkpt>
      <trkpt lat="47.58912" lon="6.8078">
        <ele>442</ele>
        <time>2016-04-10T09:33:30.000Z</time>
      </trkpt>
      <trkpt lat="47.58911" lon="6.80788">
        <ele>441</ele>
        <time>2016-04-10T09:33:31.000Z</time>
      </trkpt>
      <trkpt lat="47.58911" lon="6.80796">
        <ele>441</ele>
        <time>2016-04-10T09:33:32.000Z</time>
      </trkpt>
      <trkpt lat="47.58906" lon="6.80814">
        <ele>440</ele>
        <time>2016-04-10T09:33:33.000Z</time>
      </trkpt>
      <trkpt lat="47.58904" lon="6.80821">
        <ele>440</ele>
        <time>2016-04-10T09:33:34.000Z</time>
      </trkpt>
      <trkpt lat="47.58901" lon="6.80831">
        <ele>440</ele>
        <time>2016-04-10T09:33:35.000Z</time>
      </trkpt>
      <trkpt lat="47.58902" lon="6.80841">
        <ele>438</ele>
        <time>2016-04-10T09:33:36.000Z</time>
      </trkpt>
      <trkpt lat="47.58901" lon="6.8085">
        <ele>438</ele>
        <time>2016-04-10T09:33:37.000Z</time>
      </trkpt>
      <trkpt lat="47.589" lon="6.80859">
        <ele>438</ele>
        <time>2016-04-10T09:33:38.000Z</time>
      </trkpt>
      <trkpt lat="47.58901" lon="6.80868">
        <ele>437</ele>
        <time>2016-04-10T09:33:39.000Z</time>
      </trkpt>
      <trkpt lat="47.589" lon="6.80876">
        <ele>437</ele>
        <time>2016-04-10T09:33:40.000Z</time>
      </trkpt>
      <trkpt lat="47.58899" lon="6.80886">
        <ele>437</ele>
        <time>2016-04-10T09:33:41.000Z</time>
      </trkpt>
      <trkpt lat="47.58899" lon="6.80894">
        <ele>436</ele>
        <time>2016-04-10T09:33:42.000Z</time>
      </trkpt>
      <trkpt lat="47.589" lon="6.80902">
        <ele>436</ele>
        <time>2016-04-10T09:33:43.000Z</time>
      </trkpt>
      <trkpt lat="47.589" lon="6.80913">
        <ele>436</ele>
        <time>2016-04-10T09:33:44.000Z</time>
      </trkpt>
      <trkpt lat="47.58901" lon="6.80926">
        <ele>433</ele>
        <time>2016-04-10T09:33:45.000Z</time>
      </trkpt>
      <trkpt lat="47.58902" lon="6.80939">
        <ele>432</ele>
        <time>2016-04-10T09:33:46.000Z</time>
      </trkpt>
      <trkpt lat="47.58903" lon="6.80952">
        <ele>430</ele>
        <time>2016-04-10T09:33:47.000Z</time>
      </trkpt>
      <trkpt lat="47.58905" lon="6.80964">
        <ele>430</ele>
        <time>2016-04-10T09:33:48.000Z</time>
      </trkpt>
      <trkpt lat="47.58908" lon="6.80976">
        <ele>429</ele>
        <time>2016-04-10T09:33:49.000Z</time>
      </trkpt>
      <trkpt lat="47.58909" lon="6.80985">
        <ele>428</ele>
        <time>2016-04-10T09:33:50.000Z</time>
      </trkpt>
      <trkpt lat="47.58911" lon="6.80993">
        <ele>428</ele>
        <time>2016-04-10T09:33:51.000Z</time>
      </trkpt>
      <trkpt lat="47.58914" lon="6.81">
        <ele>427</ele>
        <time>2016-04-10T09:33:52.000Z</time>
      </trkpt>
      <trkpt lat="47.58918" lon="6.81006">
        <ele>426</ele>
        <time>2016-04-10T09:33:53.000Z</time>
      </trkpt>
      <trkpt lat="47.58923" lon="6.81011">
        <ele>425</ele>
        <time>2016-04-10T09:33:54.000Z</time>
      </trkpt>
      <trkpt lat="47.58927" lon="6.81014">
        <ele>424</ele>
        <time>2016-04-10T09:33:55.000Z</time>
      </trkpt>
      <trkpt lat="47.58931" lon="6.81016">
        <ele>424</ele>
        <time>2016-04-10T09:33:56.000Z</time>
      </trkpt>
      <trkpt lat="47.58938" lon="6.81017">
        <ele>424</ele>
        <time>2016-04-10T09:33:57.000Z</time>
      </trkpt>
      <trkpt lat="47.58944" lon="6.81015">
        <ele>424</ele>
        <time>2016-04-10T09:33:58.000Z</time>
      </trkpt>
      <trkpt lat="47.58949" lon="6.81012">
        <ele>424</ele>
        <time>2016-04-10T09:33:59.000Z</time>
      </trkpt>
      <trkpt lat="47.58954" lon="6.81008">
        <ele>424</ele>
        <time>2016-04-10T09:34:00.000Z</time>
      </trkpt>
      <trkpt lat="47.58959" lon="6.81006">
        <ele>424</ele>
        <time>2016-04-10T09:34:01.000Z</time>
      </trkpt>
      <trkpt lat="47.58962" lon="6.81005">
        <ele>424</ele>
        <time>2016-04-10T09:34:02.000Z</time>
      </trkpt>
      <trkpt lat="47.58966" lon="6.81007">
        <ele>425</ele>
        <time>2016-04-10T09:34:03.000Z</time>
      </trkpt>
      <trkpt lat="47.5897" lon="6.81009">
        <ele>425</ele>
        <time>2016-04-10T09:34:04.000Z</time>
      </trkpt>
      <trkpt lat="47.58974" lon="6.81011">
        <ele>425</ele>
        <time>2016-04-10T09:34:05.000Z</time>
      </trkpt>
      <trkpt lat="47.58978" lon="6.81015">
        <ele>425</ele>
        <time>2016-04-10T09:34:06.000Z</time>
      </trkpt>
      <trkpt lat="47.58981" lon="6.81018">
        <ele>425</ele>
        <time>2016-04-10T09:34:07.000Z</time>
      </trkpt>
      <trkpt lat="47.58983" lon="6.81021">
        <ele>425</ele>
        <time>2016-04-10T09:34:08.000Z</time>
      </trkpt>
      <trkpt lat="47.58985" lon="6.81027">
        <ele>424</ele>
        <time>2016-04-10T09:34:09.000Z</time>
      </trkpt>
      <trkpt lat="47.58988" lon="6.81037">
        <ele>423</ele>
        <time>2016-04-10T09:34:10.000Z</time>
      </trkpt>
      <trkpt lat="47.58988" lon="6.81043">
        <ele>423</ele>
        <time>2016-04-10T09:34:11.000Z</time>
      </trkpt>
      <trkpt lat="47.58989" lon="6.8105">
        <ele>422</ele>
        <time>2016-04-10T09:34:12.000Z</time>
      </trkpt>
      <trkpt lat="47.58989" lon="6.81057">
        <ele>421</ele>
        <time>2016-04-10T09:34:13.000Z</time>
      </trkpt>
      <trkpt lat="47.58989" lon="6.81063">
        <ele>421</ele>
        <time>2016-04-10T09:34:14.000Z</time>
      </trkpt>
      <trkpt lat="47.5899" lon="6.81067">
        <ele>421</ele>
        <time>2016-04-10T09:34:15.000Z</time>
      </trkpt>
      <trkpt lat="47.58994" lon="6.81071">
        <ele>420</ele>
        <time>2016-04-10T09:34:17.000Z</time>
      </trkpt>
      <trkpt lat="47.58996" lon="6.81069">
        <ele>420</ele>
        <time>2016-04-10T09:34:18.000Z</time>
      </trkpt>
      <trkpt lat="47.58999" lon="6.81067">
        <ele>421</ele>
        <time>2016-04-10T09:34:19.000Z</time>
      </trkpt>
      <trkpt lat="47.59008" lon="6.81056">
        <ele>421</ele>
        <time>2016-04-10T09:34:20.000Z</time>
      </trkpt>
      <trkpt lat="47.5901" lon="6.81055">
        <ele>421</ele>
        <time>2016-04-10T09:34:21.000Z</time>
      </trkpt>
      <trkpt lat="47.59013" lon="6.81052">
        <ele>421</ele>
        <time>2016-04-10T09:34:22.000Z</time>
      </trkpt>
      <trkpt lat="47.59016" lon="6.81049">
        <ele>421</ele>
        <time>2016-04-10T09:34:23.000Z</time>
      </trkpt>
      <trkpt lat="47.59021" lon="6.81047">
        <ele>421</ele>
        <time>2016-04-10T09:34:24.000Z</time>
      </trkpt>
      <trkpt lat="47.59024" lon="6.81045">
        <ele>421</ele>
        <time>2016-04-10T09:34:25.000Z</time>
      </trkpt>
      <trkpt lat="47.59028" lon="6.81046">
        <ele>421</ele>
        <time>2016-04-10T09:34:26.000Z</time>
      </trkpt>
      <trkpt lat="47.59031" lon="6.81051">
        <ele>420</ele>
        <time>2016-04-10T09:34:27.000Z</time>
      </trkpt>
      <trkpt lat="47.59034" lon="6.81053">
        <ele>420</ele>
        <time>2016-04-10T09:34:28.000Z</time>
      </trkpt>
      <trkpt lat="47.59036" lon="6.81055">
        <ele>420</ele>
        <time>2016-04-10T09:34:29.000Z</time>
      </trkpt>
      <trkpt lat="47.59044" lon="6.81054">
        <ele>420</ele>
        <time>2016-04-10T09:34:30.000Z</time>
      </trkpt>
      <trkpt lat="47.59049" lon="6.81058">
        <ele>419</ele>
        <time>2016-04-10T09:34:31.000Z</time>
      </trkpt>
      <trkpt lat="47.59052" lon="6.81061">
        <ele>419</ele>
        <time>2016-04-10T09:34:32.000Z</time>
      </trkpt>
      <trkpt lat="47.59055" lon="6.81066">
        <ele>418</ele>
        <time>2016-04-10T09:34:33.000Z</time>
      </trkpt>
      <trkpt lat="47.59059" lon="6.81074">
        <ele>417</ele>
        <time>2016-04-10T09:34:34.000Z</time>
      </trkpt>
      <trkpt lat="47.59058" lon="6.81082">
        <ele>417</ele>
        <time>2016-04-10T09:34:35.000Z</time>
      </trkpt>
      <trkpt lat="47.5906" lon="6.8109">
        <ele>408</ele>
        <time>2016-04-10T09:34:36.000Z</time>
      </trkpt>
      <trkpt lat="47.5906" lon="6.81099">
        <ele>407</ele>
        <time>2016-04-10T09:34:37.000Z</time>
      </trkpt>
      <trkpt lat="47.59062" lon="6.81107">
        <ele>406</ele>
        <time>2016-04-10T09:34:38.000Z</time>
      </trkpt>
      <trkpt lat="47.59062" lon="6.81114">
        <ele>405</ele>
        <time>2016-04-10T09:34:39.000Z</time>
      </trkpt>
      <trkpt lat="47.59065" lon="6.81119">
        <ele>404</ele>
        <time>2016-04-10T09:34:40.000Z</time>
      </trkpt>
      <trkpt lat="47.59066" lon="6.81124">
        <ele>404</ele>
        <time>2016-04-10T09:34:41.000Z</time>
      </trkpt>
      <trkpt lat="47.59068" lon="6.81126">
        <ele>403</ele>
        <time>2016-04-10T09:34:42.000Z</time>
      </trkpt>
      <trkpt lat="47.59071" lon="6.81124">
        <ele>403</ele>
        <time>2016-04-10T09:34:45.000Z</time>
      </trkpt>
      <trkpt lat="47.59072" lon="6.81123">
        <ele>404</ele>
        <time>2016-04-10T09:34:46.000Z</time>
      </trkpt>
      <trkpt lat="47.59075" lon="6.81121">
        <ele>404</ele>
        <time>2016-04-10T09:34:48.000Z</time>
      </trkpt>
      <trkpt lat="47.59078" lon="6.81121">
        <ele>404</ele>
        <time>2016-04-10T09:34:49.000Z</time>
      </trkpt>
      <trkpt lat="47.5908" lon="6.81122">
        <ele>404</ele>
        <time>2016-04-10T09:34:50.000Z</time>
      </trkpt>
      <trkpt lat="47.59083" lon="6.81125">
        <ele>403</ele>
        <time>2016-04-10T09:34:51.000Z</time>
      </trkpt>
      <trkpt lat="47.59086" lon="6.81129">
        <ele>393</ele>
        <time>2016-04-10T09:34:52.000Z</time>
      </trkpt>
      <trkpt lat="47.59088" lon="6.81134">
        <ele>392</ele>
        <time>2016-04-10T09:34:53.000Z</time>
      </trkpt>
      <trkpt lat="47.59089" lon="6.81138">
        <ele>392</ele>
        <time>2016-04-10T09:34:54.000Z</time>
      </trkpt>
      <trkpt lat="47.5909" lon="6.81142">
        <ele>391</ele>
        <time>2016-04-10T09:34:55.000Z</time>
      </trkpt>
      <trkpt lat="47.59091" lon="6.81145">
        <ele>391</ele>
        <time>2016-04-10T09:34:56.000Z</time>
      </trkpt>
      <trkpt lat="47.59092" lon="6.81148">
        <ele>391</ele>
        <time>2016-04-10T09:34:57.000Z</time>
      </trkpt>
      <trkpt lat="47.59093" lon="6.81152">
        <ele>391</ele>
        <time>2016-04-10T09:34:58.000Z</time>
      </trkpt>
      <trkpt lat="47.59094" lon="6.81156">
        <ele>390</ele>
        <time>2016-04-10T09:34:59.000Z</time>
      </trkpt>
      <trkpt lat="47.59095" lon="6.81161">
        <ele>390</ele>
        <time>2016-04-10T09:35:00.000Z</time>
      </trkpt>
      <trkpt lat="47.59096" lon="6.81165">
        <ele>390</ele>
        <time>2016-04-10T09:35:01.000Z</time>
      </trkpt>
      <trkpt lat="47.59097" lon="6.8117">
        <ele>383</ele>
        <time>2016-04-10T09:35:03.000Z</time>
      </trkpt>
      <trkpt lat="47.59098" lon="6.81172">
        <ele>382</ele>
        <time>2016-04-10T09:35:04.000Z</time>
      </trkpt>
      <trkpt lat="47.59101" lon="6.81176">
        <ele>381</ele>
        <time>2016-04-10T09:35:06.000Z</time>
      </trkpt>
      <trkpt lat="47.59102" lon="6.81178">
        <ele>380</ele>
        <time>2016-04-10T09:35:07.000Z</time>
      </trkpt>
      <trkpt lat="47.59102" lon="6.81184">
        <ele>379</ele>
        <time>2016-04-10T09:35:09.000Z</time>
      </trkpt>
      <trkpt lat="47.59101" lon="6.81189">
        <ele>378</ele>
        <time>2016-04-10T09:35:10.000Z</time>
      </trkpt>
      <trkpt lat="47.59101" lon="6.81194">
        <ele>377</ele>
        <time>2016-04-10T09:35:11.000Z</time>
      </trkpt>
      <trkpt lat="47.591" lon="6.81199">
        <ele>377</ele>
        <time>2016-04-10T09:35:12.000Z</time>
      </trkpt>
      <trkpt lat="47.591" lon="6.81203">
        <ele>376</ele>
        <time>2016-04-10T09:35:13.000Z</time>
      </trkpt>
      <trkpt lat="47.59099" lon="6.81207">
        <ele>375</ele>
        <time>2016-04-10T09:35:14.000Z</time>
      </trkpt>
      <trkpt lat="47.59096" lon="6.81212">
        <ele>375</ele>
        <time>2016-04-10T09:35:16.000Z</time>
      </trkpt>
      <trkpt lat="47.59094" lon="6.81213">
        <ele>375</ele>
        <time>2016-04-10T09:35:17.000Z</time>
      </trkpt>
      <trkpt lat="47.59091" lon="6.81212">
        <ele>375</ele>
        <time>2016-04-10T09:35:19.000Z</time>
      </trkpt>
      <trkpt lat="47.59089" lon="6.81211">
        <ele>375</ele>
        <time>2016-04-10T09:35:20.000Z</time>
      </trkpt>
      <trkpt lat="47.59087" lon="6.8121">
        <ele>375</ele>
        <time>2016-04-10T09:35:22.000Z</time>
      </trkpt>
      <trkpt lat="47.59085" lon="6.8121">
        <ele>375</ele>
        <time>2016-04-10T09:35:23.000Z</time>
      </trkpt>
      <trkpt lat="47.5908" lon="6.81211">
        <ele>382</ele>
        <time>2016-04-10T09:35:25.000Z</time>
      </trkpt>
      <trkpt lat="47.59078" lon="6.81212">
        <ele>382</ele>
        <time>2016-04-10T09:35:26.000Z</time>
      </trkpt>
      <trkpt lat="47.59074" lon="6.81213">
        <ele>382</ele>
        <time>2016-04-10T09:35:28.000Z</time>
      </trkpt>
      <trkpt lat="47.59072" lon="6.81213">
        <ele>382</ele>
        <time>2016-04-10T09:35:29.000Z</time>
      </trkpt>
      <trkpt lat="47.59069" lon="6.81213">
        <ele>382</ele>
        <time>2016-04-10T09:35:31.000Z</time>
      </trkpt>
      <trkpt lat="47.59067" lon="6.81213">
        <ele>382</ele>
        <time>2016-04-10T09:35:32.000Z</time>
      </trkpt>
      <trkpt lat="47.59063" lon="6.81211">
        <ele>382</ele>
        <time>2016-04-10T09:35:35.000Z</time>
      </trkpt>
      <trkpt lat="47.59061" lon="6.81211">
        <ele>382</ele>
        <time>2016-04-10T09:35:36.000Z</time>
      </trkpt>
      <trkpt lat="47.59057" lon="6.81211">
        <ele>383</ele>
        <time>2016-04-10T09:35:39.000Z</time>
      </trkpt>
      <trkpt lat="47.59056" lon="6.81211">
        <ele>383</ele>
        <time>2016-04-10T09:35:40.000Z</time>
      </trkpt>
      <trkpt lat="47.59051" lon="6.81212">
        <ele>383</ele>
        <time>2016-04-10T09:35:44.000Z</time>
      </trkpt>
      <trkpt lat="47.5905" lon="6.81211">
        <ele>383</ele>
        <time>2016-04-10T09:35:45.000Z</time>
      </trkpt>
      <trkpt lat="47.59046" lon="6.8121">
        <ele>383</ele>
        <time>2016-04-10T09:35:48.000Z</time>
      </trkpt>
      <trkpt lat="47.59045" lon="6.8121">
        <ele>383</ele>
        <time>2016-04-10T09:35:49.000Z</time>
      </trkpt>
      <trkpt lat="47.59041" lon="6.81208">
        <ele>384</ele>
        <time>2016-04-10T09:35:52.000Z</time>
      </trkpt>
      <trkpt lat="47.5904" lon="6.81208">
        <ele>384</ele>
        <time>2016-04-10T09:35:53.000Z</time>
      </trkpt>
      <trkpt lat="47.59036" lon="6.8121">
        <ele>384</ele>
        <time>2016-04-10T09:35:56.000Z</time>
      </trkpt>
      <trkpt lat="47.59035" lon="6.81211">
        <ele>383</ele>
        <time>2016-04-10T09:35:57.000Z</time>
      </trkpt>
      <trkpt lat="47.59031" lon="6.81212">
        <ele>383</ele>
        <time>2016-04-10T09:36:00.000Z</time>
      </trkpt>
      <trkpt lat="47.5903" lon="6.81212">
        <ele>383</ele>
        <time>2016-04-10T09:36:01.000Z</time>
      </trkpt>
      <trkpt lat="47.59026" lon="6.81213">
        <ele>383</ele>
        <time>2016-04-10T09:36:04.000Z</time>
      </trkpt>
      <trkpt lat="47.59025" lon="6.81213">
        <ele>383</ele>
        <time>2016-04-10T09:36:05.000Z</time>
      </trkpt>
      <trkpt lat="47.5902" lon="6.81212">
        <ele>384</ele>
        <time>2016-04-10T09:36:09.000Z</time>
      </trkpt>
      <trkpt lat="47.59019" lon="6.81211">
        <ele>384</ele>
        <time>2016-04-10T09:36:10.000Z</time>
      </trkpt>
      <trkpt lat="47.59015" lon="6.81212">
        <ele>384</ele>
        <time>2016-04-10T09:36:24.000Z</time>
      </trkpt>
      <trkpt lat="47.59014" lon="6.81213">
        <ele>384</ele>
        <time>2016-04-10T09:36:25.000Z</time>
      </trkpt>
      <trkpt lat="47.59011" lon="6.8121">
        <ele>384</ele>
        <time>2016-04-10T09:36:29.000Z</time>
      </trkpt>
      <trkpt lat="47.5901" lon="6.81209">
        <ele>384</ele>
        <time>2016-04-10T09:36:30.000Z</time>
      </trkpt>
      <trkpt lat="47.59008" lon="6.81204">
        <ele>385</ele>
        <time>2016-04-10T09:36:36.000Z</time>
      </trkpt>
      <trkpt lat="47.59007" lon="6.81203">
        <ele>385</ele>
        <time>2016-04-10T09:36:37.000Z</time>
      </trkpt>
      <trkpt lat="47.59003" lon="6.81204">
        <ele>385</ele>
        <time>2016-04-10T09:36:44.000Z</time>
      </trkpt>
      <trkpt lat="47.59002" lon="6.81203">
        <ele>386</ele>
        <time>2016-04-10T09:36:45.000Z</time>
      </trkpt>
      <trkpt lat="47.58999" lon="6.81202">
        <ele>387</ele>
        <time>2016-04-10T09:36:47.000Z</time>
      </trkpt>
      <trkpt lat="47.58998" lon="6.812">
        <ele>387</ele>
        <time>2016-04-10T09:36:48.000Z</time>
      </trkpt>
      <trkpt lat="47.58995" lon="6.81198">
        <ele>387</ele>
        <time>2016-04-10T09:36:50.000Z</time>
      </trkpt>
      <trkpt lat="47.58993" lon="6.81198">
        <ele>387</ele>
        <time>2016-04-10T09:36:51.000Z</time>
      </trkpt>
      <trkpt lat="47.5899" lon="6.81195">
        <ele>388</ele>
        <time>2016-04-10T09:36:53.000Z</time>
      </trkpt>
      <trkpt lat="47.58989" lon="6.81195">
        <ele>388</ele>
        <time>2016-04-10T09:36:54.000Z</time>
      </trkpt>
      <trkpt lat="47.58985" lon="6.81195">
        <ele>388</ele>
        <time>2016-04-10T09:36:56.000Z</time>
      </trkpt>
      <trkpt lat="47.58983" lon="6.81196">
        <ele>387</ele>
        <time>2016-04-10T09:36:57.000Z</time>
      </trkpt>
      <trkpt lat="47.5898" lon="6.81197">
        <ele>387</ele>
        <time>2016-04-10T09:36:58.000Z</time>
      </trkpt>
      <trkpt lat="47.58978" lon="6.81197">
        <ele>387</ele>
        <time>2016-04-10T09:36:59.000Z</time>
      </trkpt>
      <trkpt lat="47.58974" lon="6.81197">
        <ele>387</ele>
        <time>2016-04-10T09:37:01.000Z</time>
      </trkpt>
      <trkpt lat="47.58971" lon="6.81196">
        <ele>387</ele>
        <time>2016-04-10T09:37:02.000Z</time>
      </trkpt>
      <trkpt lat="47.5897" lon="6.81194">
        <ele>387</ele>
        <time>2016-04-10T09:37:03.000Z</time>
      </trkpt>
      <trkpt lat="47.58968" lon="6.81191">
        <ele>387</ele>
        <time>2016-04-10T09:37:04.000Z</time>
      </trkpt>
      <trkpt lat="47.58966" lon="6.81189">
        <ele>387</ele>
        <time>2016-04-10T09:37:05.000Z</time>
      </trkpt>
      <trkpt lat="47.58964" lon="6.81186">
        <ele>388</ele>
        <time>2016-04-10T09:37:06.000Z</time>
      </trkpt>
      <trkpt lat="47.58962" lon="6.81185">
        <ele>388</ele>
        <time>2016-04-10T09:37:07.000Z</time>
      </trkpt>
      <trkpt lat="47.5896" lon="6.81183">
        <ele>388</ele>
        <time>2016-04-10T09:37:08.000Z</time>
      </trkpt>
      <trkpt lat="47.58956" lon="6.81182">
        <ele>388</ele>
        <time>2016-04-10T09:37:10.000Z</time>
      </trkpt>
      <trkpt lat="47.58954" lon="6.81182">
        <ele>388</ele>
        <time>2016-04-10T09:37:11.000Z</time>
      </trkpt>
      <trkpt lat="47.58952" lon="6.81182">
        <ele>387</ele>
        <time>2016-04-10T09:37:12.000Z</time>
      </trkpt>
      <trkpt lat="47.58949" lon="6.81181">
        <ele>387</ele>
        <time>2016-04-10T09:37:13.000Z</time>
      </trkpt>
      <trkpt lat="47.58947" lon="6.81182">
        <ele>387</ele>
        <time>2016-04-10T09:37:14.000Z</time>
      </trkpt>
      <trkpt lat="47.58945" lon="6.81182">
        <ele>387</ele>
        <time>2016-04-10T09:37:15.000Z</time>
      </trkpt>
      <trkpt lat="47.58942" lon="6.81185">
        <ele>387</ele>
        <time>2016-04-10T09:37:17.000Z</time>
      </trkpt>
      <trkpt lat="47.58939" lon="6.81186">
        <ele>387</ele>
        <time>2016-04-10T09:37:18.000Z</time>
      </trkpt>
      <trkpt lat="47.58937" lon="6.81188">
        <ele>387</ele>
        <time>2016-04-10T09:37:19.000Z</time>
      </trkpt>
      <trkpt lat="47.58935" lon="6.81189">
        <ele>387</ele>
        <time>2016-04-10T09:37:20.000Z</time>
      </trkpt>
      <trkpt lat="47.58933" lon="6.81192">
        <ele>387</ele>
        <time>2016-04-10T09:37:21.000Z</time>
      </trkpt>
      <trkpt lat="47.58931" lon="6.81194">
        <ele>387</ele>
        <time>2016-04-10T09:37:22.000Z</time>
      </trkpt>
      <trkpt lat="47.58929" lon="6.81199">
        <ele>386</ele>
        <time>2016-04-10T09:37:23.000Z</time>
      </trkpt>
      <trkpt lat="47.58927" lon="6.81204">
        <ele>385</ele>
        <time>2016-04-10T09:37:24.000Z</time>
      </trkpt>
      <trkpt lat="47.58925" lon="6.81209">
        <ele>385</ele>
        <time>2016-04-10T09:37:25.000Z</time>
      </trkpt>
      <trkpt lat="47.58924" lon="6.81215">
        <ele>384</ele>
        <time>2016-04-10T09:37:26.000Z</time>
      </trkpt>
      <trkpt lat="47.58921" lon="6.81219">
        <ele>383</ele>
        <time>2016-04-10T09:37:27.000Z</time>
      </trkpt>
      <trkpt lat="47.58917" lon="6.81221">
        <ele>381</ele>
        <time>2016-04-10T09:37:28.000Z</time>
      </trkpt>
      <trkpt lat="47.58913" lon="6.81222">
        <ele>381</ele>
        <time>2016-04-10T09:37:29.000Z</time>
      </trkpt>
      <trkpt lat="47.58908" lon="6.8122">
        <ele>381</ele>
        <time>2016-04-10T09:37:30.000Z</time>
      </trkpt>
      <trkpt lat="47.58904" lon="6.81217">
        <ele>381</ele>
        <time>2016-04-10T09:37:31.000Z</time>
      </trkpt>
      <trkpt lat="47.58901" lon="6.81213">
        <ele>381</ele>
        <time>2016-04-10T09:37:32.000Z</time>
      </trkpt>
      <trkpt lat="47.58897" lon="6.8121">
        <ele>382</ele>
        <time>2016-04-10T09:37:33.000Z</time>
      </trkpt>
      <trkpt lat="47.58893" lon="6.81206">
        <ele>382</ele>
        <time>2016-04-10T09:37:34.000Z</time>
      </trkpt>
      <trkpt lat="47.58889" lon="6.81203">
        <ele>382</ele>
        <time>2016-04-10T09:37:35.000Z</time>
      </trkpt>
      <trkpt lat="47.58885" lon="6.812">
        <ele>382</ele>
        <time>2016-04-10T09:37:36.000Z</time>
      </trkpt>
      <trkpt lat="47.58881" lon="6.81197">
        <ele>382</ele>
        <time>2016-04-10T09:37:37.000Z</time>
      </trkpt>
      <trkpt lat="47.58877" lon="6.81195">
        <ele>382</ele>
        <time>2016-04-10T09:37:38.000Z</time>
      </trkpt>
      <trkpt lat="47.58869" lon="6.81192">
        <ele>382</ele>
        <time>2016-04-10T09:37:39.000Z</time>
      </trkpt>
      <trkpt lat="47.58865" lon="6.81191">
        <ele>382</ele>
        <time>2016-04-10T09:37:40.000Z</time>
      </trkpt>
      <trkpt lat="47.5886" lon="6.8119">
        <ele>382</ele>
        <time>2016-04-10T09:37:41.000Z</time>
      </trkpt>
      <trkpt lat="47.58855" lon="6.81188">
        <ele>382</ele>
        <time>2016-04-10T09:37:42.000Z</time>
      </trkpt>
      <trkpt lat="47.5885" lon="6.81187">
        <ele>382</ele>
        <time>2016-04-10T09:37:43.000Z</time>
      </trkpt>
      <trkpt lat="47.58846" lon="6.81187">
        <ele>383</ele>
        <time>2016-04-10T09:37:44.000Z</time>
      </trkpt>
      <trkpt lat="47.58841" lon="6.81186">
        <ele>383</ele>
        <time>2016-04-10T09:37:45.000Z</time>
      </trkpt>
      <trkpt lat="47.58837" lon="6.81183">
        <ele>383</ele>
        <time>2016-04-10T09:37:46.000Z</time>
      </trkpt>
      <trkpt lat="47.58832" lon="6.81181">
        <ele>381</ele>
        <time>2016-04-10T09:37:47.000Z</time>
      </trkpt>
      <trkpt lat="47.58827" lon="6.81179">
        <ele>381</ele>
        <time>2016-04-10T09:37:48.000Z</time>
      </trkpt>
      <trkpt lat="47.58823" lon="6.81178">
        <ele>381</ele>
        <time>2016-04-10T09:37:49.000Z</time>
      </trkpt>
      <trkpt lat="47.58818" lon="6.81176">
        <ele>380</ele>
        <time>2016-04-10T09:37:50.000Z</time>
      </trkpt>
      <trkpt lat="47.58813" lon="6.81174">
        <ele>380</ele>
        <time>2016-04-10T09:37:51.000Z</time>
      </trkpt>
      <trkpt lat="47.58809" lon="6.81172">
        <ele>379</ele>
        <time>2016-04-10T09:37:52.000Z</time>
      </trkpt>
      <trkpt lat="47.58804" lon="6.8117">
        <ele>379</ele>
        <time>2016-04-10T09:37:53.000Z</time>
      </trkpt>
      <trkpt lat="47.588" lon="6.8117">
        <ele>378</ele>
        <time>2016-04-10T09:37:54.000Z</time>
      </trkpt>
      <trkpt lat="47.58796" lon="6.81167">
        <ele>378</ele>
        <time>2016-04-10T09:37:55.000Z</time>
      </trkpt>
      <trkpt lat="47.58792" lon="6.81164">
        <ele>386</ele>
        <time>2016-04-10T09:37:56.000Z</time>
      </trkpt>
      <trkpt lat="47.58788" lon="6.81163">
        <ele>385</ele>
        <time>2016-04-10T09:37:57.000Z</time>
      </trkpt>
      <trkpt lat="47.58785" lon="6.8116">
        <ele>385</ele>
        <time>2016-04-10T09:37:58.000Z</time>
      </trkpt>
      <trkpt lat="47.5878" lon="6.81157">
        <ele>385</ele>
        <time>2016-04-10T09:37:59.000Z</time>
      </trkpt>
      <trkpt lat="47.58777" lon="6.81155">
        <ele>384</ele>
        <time>2016-04-10T09:38:00.000Z</time>
      </trkpt>
      <trkpt lat="47.58772" lon="6.81153">
        <ele>384</ele>
        <time>2016-04-10T09:38:01.000Z</time>
      </trkpt>
      <trkpt lat="47.58769" lon="6.81152">
        <ele>383</ele>
        <time>2016-04-10T09:38:02.000Z</time>
      </trkpt>
      <trkpt lat="47.58765" lon="6.8115">
        <ele>383</ele>
        <time>2016-04-10T09:38:03.000Z</time>
      </trkpt>
      <trkpt lat="47.58761" lon="6.81148">
        <ele>383</ele>
        <time>2016-04-10T09:38:04.000Z</time>
      </trkpt>
      <trkpt lat="47.58757" lon="6.81145">
        <ele>383</ele>
        <time>2016-04-10T09:38:05.000Z</time>
      </trkpt>
      <trkpt lat="47.58753" lon="6.81143">
        <ele>383</ele>
        <time>2016-04-10T09:38:06.000Z</time>
      </trkpt>
      <trkpt lat="47.5875" lon="6.81141">
        <ele>378</ele>
        <time>2016-04-10T09:38:07.000Z</time>
      </trkpt>
      <trkpt lat="47.58746" lon="6.81138">
        <ele>379</ele>
        <time>2016-04-10T09:38:08.000Z</time>
      </trkpt>
      <trkpt lat="47.58743" lon="6.81135">
        <ele>379</ele>
        <time>2016-04-10T09:38:09.000Z</time>
      </trkpt>
      <trkpt lat="47.5874" lon="6.81132">
        <ele>379</ele>
        <time>2016-04-10T09:38:10.000Z</time>
      </trkpt>
      <trkpt lat="47.58737" lon="6.81129">
        <ele>380</ele>
        <time>2016-04-10T09:38:11.000Z</time>
      </trkpt>
      <trkpt lat="47.58734" lon="6.81126">
        <ele>380</ele>
        <time>2016-04-10T09:38:12.000Z</time>
      </trkpt>
      <trkpt lat="47.58731" lon="6.81123">
        <ele>380</ele>
        <time>2016-04-10T09:38:13.000Z</time>
      </trkpt>
      <trkpt lat="47.58729" lon="6.8112">
        <ele>380</ele>
        <time>2016-04-10T09:38:14.000Z</time>
      </trkpt>
      <trkpt lat="47.58726" lon="6.81117">
        <ele>380</ele>
        <time>2016-04-10T09:38:15.000Z</time>
      </trkpt>
      <trkpt lat="47.58724" lon="6.81114">
        <ele>381</ele>
        <time>2016-04-10T09:38:16.000Z</time>
      </trkpt>
      <trkpt lat="47.58721" lon="6.81111">
        <ele>381</ele>
        <time>2016-04-10T09:38:17.000Z</time>
      </trkpt>
      <trkpt lat="47.58719" lon="6.81107">
        <ele>381</ele>
        <time>2016-04-10T09:38:18.000Z</time>
      </trkpt>
      <trkpt lat="47.58717" lon="6.81105">
        <ele>381</ele>
        <time>2016-04-10T09:38:19.000Z</time>
      </trkpt>
      <trkpt lat="47.58715" lon="6.81102">
        <ele>381</ele>
        <time>2016-04-10T09:38:20.000Z</time>
      </trkpt>
      <trkpt lat="47.58713" lon="6.81099">
        <ele>381</ele>
        <time>2016-04-10T09:38:21.000Z</time>
      </trkpt>
      <trkpt lat="47.58711" lon="6.81096">
        <ele>381</ele>
        <time>2016-04-10T09:38:22.000Z</time>
      </trkpt>
      <trkpt lat="47.58709" lon="6.81094">
        <ele>381</ele>
        <time>2016-04-10T09:38:23.000Z</time>
      </trkpt>
      <trkpt lat="47.58707" lon="6.81092">
        <ele>381</ele>
        <time>2016-04-10T09:38:24.000Z</time>
      </trkpt>
      <trkpt lat="47.58705" lon="6.81089">
        <ele>380</ele>
        <time>2016-04-10T09:38:25.000Z</time>
      </trkpt>
      <trkpt lat="47.58703" lon="6.81086">
        <ele>380</ele>
        <time>2016-04-10T09:38:26.000Z</time>
      </trkpt>
      <trkpt lat="47.58701" lon="6.81084">
        <ele>380</ele>
        <time>2016-04-10T09:38:27.000Z</time>
      </trkpt>
      <trkpt lat="47.58698" lon="6.81082">
        <ele>388</ele>
        <time>2016-04-10T09:38:28.000Z</time>
      </trkpt>
      <trkpt lat="47.58696" lon="6.8108">
        <ele>388</ele>
        <time>2016-04-10T09:38:29.000Z</time>
      </trkpt>
      <trkpt lat="47.58694" lon="6.81078">
        <ele>388</ele>
        <time>2016-04-10T09:38:30.000Z</time>
      </trkpt>
      <trkpt lat="47.58691" lon="6.81075">
        <ele>387</ele>
        <time>2016-04-10T09:38:31.000Z</time>
      </trkpt>
      <trkpt lat="47.58689" lon="6.81073">
        <ele>387</ele>
        <time>2016-04-10T09:38:32.000Z</time>
      </trkpt>
      <trkpt lat="47.58687" lon="6.81071">
        <ele>387</ele>
        <time>2016-04-10T09:38:33.000Z</time>
      </trkpt>
      <trkpt lat="47.58685" lon="6.81068">
        <ele>387</ele>
        <time>2016-04-10T09:38:34.000Z</time>
      </trkpt>
      <trkpt lat="47.58682" lon="6.81066">
        <ele>387</ele>
        <time>2016-04-10T09:38:35.000Z</time>
      </trkpt>
      <trkpt lat="47.5868" lon="6.81063">
        <ele>387</ele>
        <time>2016-04-10T09:38:36.000Z</time>
      </trkpt>
      <trkpt lat="47.58678" lon="6.8106">
        <ele>387</ele>
        <time>2016-04-10T09:38:37.000Z</time>
      </trkpt>
      <trkpt lat="47.58676" lon="6.81058">
        <ele>388</ele>
        <time>2016-04-10T09:38:38.000Z</time>
      </trkpt>
      <trkpt lat="47.58674" lon="6.81055">
        <ele>388</ele>
        <time>2016-04-10T09:38:39.000Z</time>
      </trkpt>
      <trkpt lat="47.58672" lon="6.81052">
        <ele>389</ele>
        <time>2016-04-10T09:38:40.000Z</time>
      </trkpt>
      <trkpt lat="47.58671" lon="6.81049">
        <ele>389</ele>
        <time>2016-04-10T09:38:41.000Z</time>
      </trkpt>
      <trkpt lat="47.58669" lon="6.81047">
        <ele>389</ele>
        <time>2016-04-10T09:38:42.000Z</time>
      </trkpt>
      <trkpt lat="47.58667" lon="6.81044">
        <ele>390</ele>
        <time>2016-04-10T09:38:43.000Z</time>
      </trkpt>
      <trkpt lat="47.58665" lon="6.81041">
        <ele>384</ele>
        <time>2016-04-10T09:38:44.000Z</time>
      </trkpt>
      <trkpt lat="47.58663" lon="6.81038">
        <ele>385</ele>
        <time>2016-04-10T09:38:45.000Z</time>
      </trkpt>
      <trkpt lat="47.58661" lon="6.81035">
        <ele>385</ele>
        <time>2016-04-10T09:38:46.000Z</time>
      </trkpt>
      <trkpt lat="47.58659" lon="6.81033">
        <ele>385</ele>
        <time>2016-04-10T09:38:47.000Z</time>
      </trkpt>
      <trkpt lat="47.58657" lon="6.8103">
        <ele>386</ele>
        <time>2016-04-10T09:38:48.000Z</time>
      </trkpt>
      <trkpt lat="47.58655" lon="6.81027">
        <ele>386</ele>
        <time>2016-04-10T09:38:49.000Z</time>
      </trkpt>
      <trkpt lat="47.58654" lon="6.81024">
        <ele>386</ele>
        <time>2016-04-10T09:38:50.000Z</time>
      </trkpt>
      <trkpt lat="47.58652" lon="6.81021">
        <ele>386</ele>
        <time>2016-04-10T09:38:51.000Z</time>
      </trkpt>
      <trkpt lat="47.5865" lon="6.81018">
        <ele>387</ele>
        <time>2016-04-10T09:38:52.000Z</time>
      </trkpt>
      <trkpt lat="47.58648" lon="6.81015">
        <ele>387</ele>
        <time>2016-04-10T09:38:53.000Z</time>
      </trkpt>
      <trkpt lat="47.58647" lon="6.81012">
        <ele>387</ele>
        <time>2016-04-10T09:38:54.000Z</time>
      </trkpt>
      <trkpt lat="47.58645" lon="6.81009">
        <ele>387</ele>
        <time>2016-04-10T09:38:55.000Z</time>
      </trkpt>
      <trkpt lat="47.58643" lon="6.81006">
        <ele>387</ele>
        <time>2016-04-10T09:38:56.000Z</time>
      </trkpt>
      <trkpt lat="47.58642" lon="6.81004">
        <ele>387</ele>
        <time>2016-04-10T09:38:57.000Z</time>
      </trkpt>
      <trkpt lat="47.5864" lon="6.81001">
        <ele>387</ele>
        <time>2016-04-10T09:38:58.000Z</time>
      </trkpt>
      <trkpt lat="47.58639" lon="6.80998">
        <ele>393</ele>
        <time>2016-04-10T09:38:59.000Z</time>
      </trkpt>
      <trkpt lat="47.58638" lon="6.80994">
        <ele>393</ele>
        <time>2016-04-10T09:39:00.000Z</time>
      </trkpt>
      <trkpt lat="47.58637" lon="6.80991">
        <ele>393</ele>
        <time>2016-04-10T09:39:01.000Z</time>
      </trkpt>
      <trkpt lat="47.58636" lon="6.80988">
        <ele>393</ele>
        <time>2016-04-10T09:39:02.000Z</time>
      </trkpt>
      <trkpt lat="47.58634" lon="6.80985">
        <ele>393</ele>
        <time>2016-04-10T09:39:03.000Z</time>
      </trkpt>
      <trkpt lat="47.58631" lon="6.80981">
        <ele>393</ele>
        <time>2016-04-10T09:39:05.000Z</time>
      </trkpt>
      <trkpt lat="47.58629" lon="6.80978">
        <ele>393</ele>
        <time>2016-04-10T09:39:06.000Z</time>
      </trkpt>
      <trkpt lat="47.58627" lon="6.80976">
        <ele>393</ele>
        <time>2016-04-10T09:39:07.000Z</time>
      </trkpt>
      <trkpt lat="47.58626" lon="6.80973">
        <ele>393</ele>
        <time>2016-04-10T09:39:08.000Z</time>
      </trkpt>
      <trkpt lat="47.58624" lon="6.8097">
        <ele>393</ele>
        <time>2016-04-10T09:39:09.000Z</time>
      </trkpt>
      <trkpt lat="47.58622" lon="6.80967">
        <ele>393</ele>
        <time>2016-04-10T09:39:10.000Z</time>
      </trkpt>
      <trkpt lat="47.5862" lon="6.80964">
        <ele>393</ele>
        <time>2016-04-10T09:39:11.000Z</time>
      </trkpt>
      <trkpt lat="47.58618" lon="6.80961">
        <ele>393</ele>
        <time>2016-04-10T09:39:12.000Z</time>
      </trkpt>
      <trkpt lat="47.58616" lon="6.80958">
        <ele>393</ele>
        <time>2016-04-10T09:39:13.000Z</time>
      </trkpt>
      <trkpt lat="47.58614" lon="6.80954">
        <ele>393</ele>
        <time>2016-04-10T09:39:14.000Z</time>
      </trkpt>
      <trkpt lat="47.58612" lon="6.80951">
        <ele>393</ele>
        <time>2016-04-10T09:39:15.000Z</time>
      </trkpt>
      <trkpt lat="47.58611" lon="6.80948">
        <ele>393</ele>
        <time>2016-04-10T09:39:16.000Z</time>
      </trkpt>
      <trkpt lat="47.58609" lon="6.80945">
        <ele>393</ele>
        <time>2016-04-10T09:39:17.000Z</time>
      </trkpt>
      <trkpt lat="47.58607" lon="6.80942">
        <ele>393</ele>
        <time>2016-04-10T09:39:18.000Z</time>
      </trkpt>
      <trkpt lat="47.58605" lon="6.80939">
        <ele>393</ele>
        <time>2016-04-10T09:39:19.000Z</time>
      </trkpt>
      <trkpt lat="47.58603" lon="6.80937">
        <ele>393</ele>
        <time>2016-04-10T09:39:20.000Z</time>
      </trkpt>
      <trkpt lat="47.58601" lon="6.80934">
        <ele>393</ele>
        <time>2016-04-10T09:39:21.000Z</time>
      </trkpt>
      <trkpt lat="47.586" lon="6.80932">
        <ele>392</ele>
        <time>2016-04-10T09:39:22.000Z</time>
      </trkpt>
      <trkpt lat="47.58598" lon="6.80929">
        <ele>392</ele>
        <time>2016-04-10T09:39:23.000Z</time>
      </trkpt>
      <trkpt lat="47.58596" lon="6.80927">
        <ele>392</ele>
        <time>2016-04-10T09:39:24.000Z</time>
      </trkpt>
      <trkpt lat="47.58595" lon="6.80924">
        <ele>392</ele>
        <time>2016-04-10T09:39:25.000Z</time>
      </trkpt>
      <trkpt lat="47.58593" lon="6.80922">
        <ele>392</ele>
        <time>2016-04-10T09:39:26.000Z</time>
      </trkpt>
      <trkpt lat="47.58591" lon="6.80919">
        <ele>391</ele>
        <time>2016-04-10T09:39:27.000Z</time>
      </trkpt>
      <trkpt lat="47.58589" lon="6.80916">
        <ele>394</ele>
        <time>2016-04-10T09:39:28.000Z</time>
      </trkpt>
      <trkpt lat="47.58587" lon="6.80913">
        <ele>393</ele>
        <time>2016-04-10T09:39:29.000Z</time>
      </trkpt>
      <trkpt lat="47.58586" lon="6.80911">
        <ele>394</ele>
        <time>2016-04-10T09:39:30.000Z</time>
      </trkpt>
      <trkpt lat="47.58584" lon="6.80908">
        <ele>395</ele>
        <time>2016-04-10T09:39:31.000Z</time>
      </trkpt>
      <trkpt lat="47.58582" lon="6.80905">
        <ele>391</ele>
        <time>2016-04-10T09:39:32.000Z</time>
      </trkpt>
      <trkpt lat="47.58581" lon="6.80902">
        <ele>392</ele>
        <time>2016-04-10T09:39:33.000Z</time>
      </trkpt>
      <trkpt lat="47.58579" lon="6.80899">
        <ele>392</ele>
        <time>2016-04-10T09:39:34.000Z</time>
      </trkpt>
      <trkpt lat="47.58577" lon="6.80896">
        <ele>392</ele>
        <time>2016-04-10T09:39:35.000Z</time>
      </trkpt>
      <trkpt lat="47.58575" lon="6.80894">
        <ele>393</ele>
        <time>2016-04-10T09:39:36.000Z</time>
      </trkpt>
      <trkpt lat="47.58573" lon="6.80891">
        <ele>393</ele>
        <time>2016-04-10T09:39:37.000Z</time>
      </trkpt>
      <trkpt lat="47.58571" lon="6.80888">
        <ele>393</ele>
        <time>2016-04-10T09:39:38.000Z</time>
      </trkpt>
      <trkpt lat="47.58569" lon="6.80886">
        <ele>393</ele>
        <time>2016-04-10T09:39:39.000Z</time>
      </trkpt>
      <trkpt lat="47.58568" lon="6.80883">
        <ele>394</ele>
        <time>2016-04-10T09:39:40.000Z</time>
      </trkpt>
      <trkpt lat="47.58566" lon="6.8088">
        <ele>394</ele>
        <time>2016-04-10T09:39:41.000Z</time>
      </trkpt>
      <trkpt lat="47.58564" lon="6.80876">
        <ele>394</ele>
        <time>2016-04-10T09:39:42.000Z</time>
      </trkpt>
      <trkpt lat="47.58562" lon="6.80874">
        <ele>394</ele>
        <time>2016-04-10T09:39:43.000Z</time>
      </trkpt>
      <trkpt lat="47.58561" lon="6.80871">
        <ele>395</ele>
        <time>2016-04-10T09:39:44.000Z</time>
      </trkpt>
      <trkpt lat="47.58558" lon="6.80867">
        <ele>395</ele>
        <time>2016-04-10T09:39:46.000Z</time>
      </trkpt>
      <trkpt lat="47.58556" lon="6.80865">
        <ele>395</ele>
        <time>2016-04-10T09:39:47.000Z</time>
      </trkpt>
      <trkpt lat="47.58554" lon="6.80863">
        <ele>395</ele>
        <time>2016-04-10T09:39:48.000Z</time>
      </trkpt>
      <trkpt lat="47.58553" lon="6.8086">
        <ele>395</ele>
        <time>2016-04-10T09:39:49.000Z</time>
      </trkpt>
      <trkpt lat="47.58551" lon="6.80857">
        <ele>395</ele>
        <time>2016-04-10T09:39:50.000Z</time>
      </trkpt>
      <trkpt lat="47.58549" lon="6.80854">
        <ele>395</ele>
        <time>2016-04-10T09:39:51.000Z</time>
      </trkpt>
      <trkpt lat="47.58547" lon="6.80852">
        <ele>395</ele>
        <time>2016-04-10T09:39:52.000Z</time>
      </trkpt>
      <trkpt lat="47.58545" lon="6.80849">
        <ele>395</ele>
        <time>2016-04-10T09:39:53.000Z</time>
      </trkpt>
      <trkpt lat="47.58543" lon="6.80847">
        <ele>395</ele>
        <time>2016-04-10T09:39:54.000Z</time>
      </trkpt>
      <trkpt lat="47.58541" lon="6.80844">
        <ele>395</ele>
        <time>2016-04-10T09:39:55.000Z</time>
      </trkpt>
      <trkpt lat="47.58539" lon="6.80842">
        <ele>395</ele>
        <time>2016-04-10T09:39:56.000Z</time>
      </trkpt>
      <trkpt lat="47.58537" lon="6.80839">
        <ele>395</ele>
        <time>2016-04-10T09:39:57.000Z</time>
      </trkpt>
      <trkpt lat="47.58535" lon="6.80837">
        <ele>395</ele>
        <time>2016-04-10T09:39:58.000Z</time>
      </trkpt>
      <trkpt lat="47.58533" lon="6.80835">
        <ele>395</ele>
        <time>2016-04-10T09:39:59.000Z</time>
      </trkpt>
      <trkpt lat="47.58531" lon="6.80832">
        <ele>403</ele>
        <time>2016-04-10T09:40:00.000Z</time>
      </trkpt>
      <trkpt lat="47.58529" lon="6.8083">
        <ele>402</ele>
        <time>2016-04-10T09:40:01.000Z</time>
      </trkpt>
      <trkpt lat="47.58527" lon="6.80828">
        <ele>402</ele>
        <time>2016-04-10T09:40:02.000Z</time>
      </trkpt>
      <trkpt lat="47.58525" lon="6.80825">
        <ele>402</ele>
        <time>2016-04-10T09:40:03.000Z</time>
      </trkpt>
      <trkpt lat="47.58523" lon="6.80823">
        <ele>402</ele>
        <time>2016-04-10T09:40:04.000Z</time>
      </trkpt>
      <trkpt lat="47.58522" lon="6.8082">
        <ele>402</ele>
        <time>2016-04-10T09:40:05.000Z</time>
      </trkpt>
      <trkpt lat="47.5852" lon="6.80817">
        <ele>402</ele>
        <time>2016-04-10T09:40:06.000Z</time>
      </trkpt>
      <trkpt lat="47.58518" lon="6.80814">
        <ele>402</ele>
        <time>2016-04-10T09:40:07.000Z</time>
      </trkpt>
      <trkpt lat="47.58517" lon="6.80812">
        <ele>402</ele>
        <time>2016-04-10T09:40:08.000Z</time>
      </trkpt>
      <trkpt lat="47.58515" lon="6.80809">
        <ele>403</ele>
        <time>2016-04-10T09:40:09.000Z</time>
      </trkpt>
      <trkpt lat="47.58512" lon="6.80804">
        <ele>403</ele>
        <time>2016-04-10T09:40:11.000Z</time>
      </trkpt>
      <trkpt lat="47.58511" lon="6.80802">
        <ele>403</ele>
        <time>2016-04-10T09:40:12.000Z</time>
      </trkpt>
      <trkpt lat="47.58508" lon="6.80798">
        <ele>404</ele>
        <time>2016-04-10T09:40:14.000Z</time>
      </trkpt>
      <trkpt lat="47.58507" lon="6.80797">
        <ele>404</ele>
        <time>2016-04-10T09:40:15.000Z</time>
      </trkpt>
      <trkpt lat="47.58503" lon="6.80794">
        <ele>404</ele>
        <time>2016-04-10T09:40:17.000Z</time>
      </trkpt>
      <trkpt lat="47.58502" lon="6.80793">
        <ele>404</ele>
        <time>2016-04-10T09:40:18.000Z</time>
      </trkpt>
      <trkpt lat="47.58498" lon="6.80791">
        <ele>403</ele>
        <time>2016-04-10T09:40:20.000Z</time>
      </trkpt>
      <trkpt lat="47.58497" lon="6.8079">
        <ele>404</ele>
        <time>2016-04-10T09:40:21.000Z</time>
      </trkpt>
      <trkpt lat="47.58494" lon="6.80789">
        <ele>404</ele>
        <time>2016-04-10T09:40:23.000Z</time>
      </trkpt>
      <trkpt lat="47.58492" lon="6.80789">
        <ele>404</ele>
        <time>2016-04-10T09:40:24.000Z</time>
      </trkpt>
      <trkpt lat="47.58488" lon="6.8079">
        <ele>404</ele>
        <time>2016-04-10T09:40:26.000Z</time>
      </trkpt>
      <trkpt lat="47.58486" lon="6.80791">
        <ele>404</ele>
        <time>2016-04-10T09:40:27.000Z</time>
      </trkpt>
      <trkpt lat="47.58483" lon="6.8079">
        <ele>404</ele>
        <time>2016-04-10T09:40:29.000Z</time>
      </trkpt>
      <trkpt lat="47.58481" lon="6.8079">
        <ele>404</ele>
        <time>2016-04-10T09:40:30.000Z</time>
      </trkpt>
      <trkpt lat="47.58478" lon="6.8079">
        <ele>404</ele>
        <time>2016-04-10T09:40:32.000Z</time>
      </trkpt>
      <trkpt lat="47.58476" lon="6.8079">
        <ele>404</ele>
        <time>2016-04-10T09:40:33.000Z</time>
      </trkpt>
      <trkpt lat="47.58473" lon="6.80791">
        <ele>404</ele>
        <time>2016-04-10T09:40:35.000Z</time>
      </trkpt>
      <trkpt lat="47.58472" lon="6.80791">
        <ele>404</ele>
        <time>2016-04-10T09:40:36.000Z</time>
      </trkpt>
      <trkpt lat="47.58468" lon="6.8079">
        <ele>405</ele>
        <time>2016-04-10T09:40:38.000Z</time>
      </trkpt>
      <trkpt lat="47.58467" lon="6.8079">
        <ele>405</ele>
        <time>2016-04-10T09:40:39.000Z</time>
      </trkpt>
      <trkpt lat="47.58463" lon="6.8079">
        <ele>405</ele>
        <time>2016-04-10T09:40:41.000Z</time>
      </trkpt>
      <trkpt lat="47.58462" lon="6.8079">
        <ele>405</ele>
        <time>2016-04-10T09:40:42.000Z</time>
      </trkpt>
      <trkpt lat="47.58459" lon="6.80789">
        <ele>405</ele>
        <time>2016-04-10T09:40:44.000Z</time>
      </trkpt>
      <trkpt lat="47.58457" lon="6.80788">
        <ele>405</ele>
        <time>2016-04-10T09:40:45.000Z</time>
      </trkpt>
      <trkpt lat="47.58455" lon="6.80786">
        <ele>406</ele>
        <time>2016-04-10T09:40:47.000Z</time>
      </trkpt>
      <trkpt lat="47.58453" lon="6.80785">
        <ele>406</ele>
        <time>2016-04-10T09:40:48.000Z</time>
      </trkpt>
      <trkpt lat="47.5845" lon="6.80783">
        <ele>406</ele>
        <time>2016-04-10T09:40:51.000Z</time>
      </trkpt>
      <trkpt lat="47.58448" lon="6.80783">
        <ele>406</ele>
        <time>2016-04-10T09:40:52.000Z</time>
      </trkpt>
      <trkpt lat="47.58445" lon="6.8078">
        <ele>406</ele>
        <time>2016-04-10T09:40:55.000Z</time>
      </trkpt>
      <trkpt lat="47.58444" lon="6.80779">
        <ele>406</ele>
        <time>2016-04-10T09:40:56.000Z</time>
      </trkpt>
      <trkpt lat="47.58439" lon="6.80779">
        <ele>407</ele>
        <time>2016-04-10T09:41:00.000Z</time>
      </trkpt>
      <trkpt lat="47.58438" lon="6.80778">
        <ele>407</ele>
        <time>2016-04-10T09:41:01.000Z</time>
      </trkpt>
      <trkpt lat="47.58434" lon="6.80778">
        <ele>407</ele>
        <time>2016-04-10T09:41:05.000Z</time>
      </trkpt>
      <trkpt lat="47.58433" lon="6.80777">
        <ele>407</ele>
        <time>2016-04-10T09:41:06.000Z</time>
      </trkpt>
      <trkpt lat="47.5843" lon="6.80774">
        <ele>408</ele>
        <time>2016-04-10T09:41:09.000Z</time>
      </trkpt>
      <trkpt lat="47.58429" lon="6.80772">
        <ele>408</ele>
        <time>2016-04-10T09:41:10.000Z</time>
      </trkpt>
      <trkpt lat="47.58427" lon="6.80768">
        <ele>408</ele>
        <time>2016-04-10T09:41:14.000Z</time>
      </trkpt>
      <trkpt lat="47.58426" lon="6.80768">
        <ele>408</ele>
        <time>2016-04-10T09:41:15.000Z</time>
      </trkpt>
      <trkpt lat="47.58422" lon="6.80771">
        <ele>408</ele>
        <time>2016-04-10T09:41:18.000Z</time>
      </trkpt>
      <trkpt lat="47.58421" lon="6.80772">
        <ele>408</ele>
        <time>2016-04-10T09:41:19.000Z</time>
      </trkpt>
      <trkpt lat="47.58417" lon="6.8077">
        <ele>408</ele>
        <time>2016-04-10T09:41:23.000Z</time>
      </trkpt>
      <trkpt lat="47.58416" lon="6.8077">
        <ele>413</ele>
        <time>2016-04-10T09:41:24.000Z</time>
      </trkpt>
      <trkpt lat="47.58413" lon="6.8077">
        <ele>413</ele>
        <time>2016-04-10T09:41:27.000Z</time>
      </trkpt>
      <trkpt lat="47.58411" lon="6.8077">
        <ele>413</ele>
        <time>2016-04-10T09:41:28.000Z</time>
      </trkpt>
      <trkpt lat="47.58408" lon="6.80769">
        <ele>413</ele>
        <time>2016-04-10T09:41:30.000Z</time>
      </trkpt>
      <trkpt lat="47.58407" lon="6.80769">
        <ele>413</ele>
        <time>2016-04-10T09:41:31.000Z</time>
      </trkpt>
      <trkpt lat="47.58404" lon="6.80769">
        <ele>413</ele>
        <time>2016-04-10T09:41:33.000Z</time>
      </trkpt>
      <trkpt lat="47.58402" lon="6.80769">
        <ele>413</ele>
        <time>2016-04-10T09:41:34.000Z</time>
      </trkpt>
      <trkpt lat="47.58398" lon="6.8077">
        <ele>414</ele>
        <time>2016-04-10T09:41:38.000Z</time>
      </trkpt>
      <trkpt lat="47.58397" lon="6.8077">
        <ele>414</ele>
        <time>2016-04-10T09:41:39.000Z</time>
      </trkpt>
      <trkpt lat="47.58393" lon="6.80771">
        <ele>414</ele>
        <time>2016-04-10T09:41:44.000Z</time>
      </trkpt>
      <trkpt lat="47.58392" lon="6.80772">
        <ele>414</ele>
        <time>2016-04-10T09:41:45.000Z</time>
      </trkpt>
      <trkpt lat="47.58388" lon="6.80773">
        <ele>414</ele>
        <time>2016-04-10T09:41:48.000Z</time>
      </trkpt>
      <trkpt lat="47.58387" lon="6.80773">
        <ele>414</ele>
        <time>2016-04-10T09:41:49.000Z</time>
      </trkpt>
      <trkpt lat="47.58383" lon="6.80772">
        <ele>414</ele>
        <time>2016-04-10T09:41:54.000Z</time>
      </trkpt>
      <trkpt lat="47.58382" lon="6.80772">
        <ele>414</ele>
        <time>2016-04-10T09:41:55.000Z</time>
      </trkpt>
      <trkpt lat="47.58379" lon="6.80771">
        <ele>415</ele>
        <time>2016-04-10T09:41:58.000Z</time>
      </trkpt>
      <trkpt lat="47.58377" lon="6.80771">
        <ele>415</ele>
        <time>2016-04-10T09:41:59.000Z</time>
      </trkpt>
      <trkpt lat="47.58374" lon="6.80771">
        <ele>415</ele>
        <time>2016-04-10T09:42:02.000Z</time>
      </trkpt>
      <trkpt lat="47.58372" lon="6.80772">
        <ele>415</ele>
        <time>2016-04-10T09:42:03.000Z</time>
      </trkpt>
      <trkpt lat="47.58369" lon="6.80771">
        <ele>415</ele>
        <time>2016-04-10T09:42:05.000Z</time>
      </trkpt>
      <trkpt lat="47.58367" lon="6.8077">
        <ele>415</ele>
        <time>2016-04-10T09:42:06.000Z</time>
      </trkpt>
      <trkpt lat="47.58364" lon="6.80769">
        <ele>415</ele>
        <time>2016-04-10T09:42:08.000Z</time>
      </trkpt>
      <trkpt lat="47.58362" lon="6.80767">
        <ele>416</ele>
        <time>2016-04-10T09:42:09.000Z</time>
      </trkpt>
      <trkpt lat="47.58359" lon="6.80765">
        <ele>416</ele>
        <time>2016-04-10T09:42:11.000Z</time>
      </trkpt>
      <trkpt lat="47.58357" lon="6.80763">
        <ele>416</ele>
        <time>2016-04-10T09:42:12.000Z</time>
      </trkpt>
      <trkpt lat="47.58354" lon="6.80762">
        <ele>416</ele>
        <time>2016-04-10T09:42:14.000Z</time>
      </trkpt>
      <trkpt lat="47.58352" lon="6.80761">
        <ele>416</ele>
        <time>2016-04-10T09:42:15.000Z</time>
      </trkpt>
      <trkpt lat="47.58349" lon="6.80759">
        <ele>416</ele>
        <time>2016-04-10T09:42:17.000Z</time>
      </trkpt>
      <trkpt lat="47.58348" lon="6.80758">
        <ele>417</ele>
        <time>2016-04-10T09:42:18.000Z</time>
      </trkpt>
      <trkpt lat="47.58344" lon="6.80759">
        <ele>417</ele>
        <time>2016-04-10T09:42:21.000Z</time>
      </trkpt>
      <trkpt lat="47.58343" lon="6.80761">
        <ele>417</ele>
        <time>2016-04-10T09:42:22.000Z</time>
      </trkpt>
      <trkpt lat="47.58341" lon="6.80765">
        <ele>417</ele>
        <time>2016-04-10T09:42:24.000Z</time>
      </trkpt>
      <trkpt lat="47.5834" lon="6.80767">
        <ele>417</ele>
        <time>2016-04-10T09:42:25.000Z</time>
      </trkpt>
      <trkpt lat="47.58337" lon="6.80771">
        <ele>417</ele>
        <time>2016-04-10T09:42:28.000Z</time>
      </trkpt>
      <trkpt lat="47.58336" lon="6.80773">
        <ele>417</ele>
        <time>2016-04-10T09:42:29.000Z</time>
      </trkpt>
      <trkpt lat="47.58334" lon="6.80777">
        <ele>417</ele>
        <time>2016-04-10T09:42:31.000Z</time>
      </trkpt>
      <trkpt lat="47.58333" lon="6.80779">
        <ele>421</ele>
        <time>2016-04-10T09:42:32.000Z</time>
      </trkpt>
      <trkpt lat="47.5833" lon="6.80784">
        <ele>421</ele>
        <time>2016-04-10T09:42:34.000Z</time>
      </trkpt>
      <trkpt lat="47.58329" lon="6.80786">
        <ele>422</ele>
        <time>2016-04-10T09:42:35.000Z</time>
      </trkpt>
      <trkpt lat="47.58327" lon="6.80791">
        <ele>422</ele>
        <time>2016-04-10T09:42:37.000Z</time>
      </trkpt>
      <trkpt lat="47.58326" lon="6.80794">
        <ele>422</ele>
        <time>2016-04-10T09:42:38.000Z</time>
      </trkpt>
      <trkpt lat="47.58323" lon="6.80799">
        <ele>422</ele>
        <time>2016-04-10T09:42:40.000Z</time>
      </trkpt>
      <trkpt lat="47.58322" lon="6.80801">
        <ele>422</ele>
        <time>2016-04-10T09:42:41.000Z</time>
      </trkpt>
      <trkpt lat="47.5832" lon="6.80806">
        <ele>422</ele>
        <time>2016-04-10T09:42:43.000Z</time>
      </trkpt>
      <trkpt lat="47.58319" lon="6.80809">
        <ele>422</ele>
        <time>2016-04-10T09:42:44.000Z</time>
      </trkpt>
      <trkpt lat="47.58317" lon="6.80814">
        <ele>422</ele>
        <time>2016-04-10T09:42:46.000Z</time>
      </trkpt>
      <trkpt lat="47.58316" lon="6.80817">
        <ele>422</ele>
        <time>2016-04-10T09:42:47.000Z</time>
      </trkpt>
      <trkpt lat="47.58315" lon="6.8082">
        <ele>422</ele>
        <time>2016-04-10T09:42:48.000Z</time>
      </trkpt>
      <trkpt lat="47.58315" lon="6.80824">
        <ele>423</ele>
        <time>2016-04-10T09:42:49.000Z</time>
      </trkpt>
      <trkpt lat="47.58313" lon="6.80827">
        <ele>423</ele>
        <time>2016-04-10T09:42:50.000Z</time>
      </trkpt>
      <trkpt lat="47.58313" lon="6.8083">
        <ele>423</ele>
        <time>2016-04-10T09:42:51.000Z</time>
      </trkpt>
      <trkpt lat="47.58312" lon="6.80833">
        <ele>423</ele>
        <time>2016-04-10T09:42:52.000Z</time>
      </trkpt>
      <trkpt lat="47.58311" lon="6.80839">
        <ele>424</ele>
        <time>2016-04-10T09:42:54.000Z</time>
      </trkpt>
      <trkpt lat="47.58309" lon="6.80844">
        <ele>424</ele>
        <time>2016-04-10T09:42:56.000Z</time>
      </trkpt>
      <trkpt lat="47.58308" lon="6.80846">
        <ele>424</ele>
        <time>2016-04-10T09:42:57.000Z</time>
      </trkpt>
      <trkpt lat="47.58306" lon="6.80852">
        <ele>424</ele>
        <time>2016-04-10T09:42:59.000Z</time>
      </trkpt>
      <trkpt lat="47.58306" lon="6.80854">
        <ele>424</ele>
        <time>2016-04-10T09:43:00.000Z</time>
      </trkpt>
      <trkpt lat="47.58304" lon="6.8086">
        <ele>424</ele>
        <time>2016-04-10T09:43:02.000Z</time>
      </trkpt>
      <trkpt lat="47.58304" lon="6.80863">
        <ele>424</ele>
        <time>2016-04-10T09:43:03.000Z</time>
      </trkpt>
      <trkpt lat="47.58302" lon="6.80869">
        <ele>425</ele>
        <time>2016-04-10T09:43:05.000Z</time>
      </trkpt>
      <trkpt lat="47.58302" lon="6.80872">
        <ele>425</ele>
        <time>2016-04-10T09:43:06.000Z</time>
      </trkpt>
      <trkpt lat="47.58301" lon="6.80877">
        <ele>425</ele>
        <time>2016-04-10T09:43:08.000Z</time>
      </trkpt>
      <trkpt lat="47.58301" lon="6.8088">
        <ele>425</ele>
        <time>2016-04-10T09:43:09.000Z</time>
      </trkpt>
      <trkpt lat="47.58299" lon="6.80886">
        <ele>425</ele>
        <time>2016-04-10T09:43:11.000Z</time>
      </trkpt>
      <trkpt lat="47.58298" lon="6.80889">
        <ele>425</ele>
        <time>2016-04-10T09:43:12.000Z</time>
      </trkpt>
      <trkpt lat="47.58297" lon="6.80895">
        <ele>425</ele>
        <time>2016-04-10T09:43:14.000Z</time>
      </trkpt>
      <trkpt lat="47.58296" lon="6.80898">
        <ele>425</ele>
        <time>2016-04-10T09:43:15.000Z</time>
      </trkpt>
      <trkpt lat="47.58295" lon="6.80903">
        <ele>425</ele>
        <time>2016-04-10T09:43:17.000Z</time>
      </trkpt>
      <trkpt lat="47.58294" lon="6.80906">
        <ele>425</ele>
        <time>2016-04-10T09:43:18.000Z</time>
      </trkpt>
      <trkpt lat="47.58293" lon="6.80912">
        <ele>425</ele>
        <time>2016-04-10T09:43:20.000Z</time>
      </trkpt>
      <trkpt lat="47.58292" lon="6.80914">
        <ele>425</ele>
        <time>2016-04-10T09:43:21.000Z</time>
      </trkpt>
      <trkpt lat="47.5829" lon="6.80918">
        <ele>426</ele>
        <time>2016-04-10T09:43:23.000Z</time>
      </trkpt>
      <trkpt lat="47.58289" lon="6.80921">
        <ele>426</ele>
        <time>2016-04-10T09:43:24.000Z</time>
      </trkpt>
      <trkpt lat="47.58288" lon="6.80926">
        <ele>426</ele>
        <time>2016-04-10T09:43:26.000Z</time>
      </trkpt>
      <trkpt lat="47.58287" lon="6.8093">
        <ele>426</ele>
        <time>2016-04-10T09:43:27.000Z</time>
      </trkpt>
      <trkpt lat="47.58287" lon="6.80933">
        <ele>426</ele>
        <time>2016-04-10T09:43:28.000Z</time>
      </trkpt>
      <trkpt lat="47.58287" lon="6.80937">
        <ele>426</ele>
        <time>2016-04-10T09:43:29.000Z</time>
      </trkpt>
      <trkpt lat="47.58287" lon="6.80941">
        <ele>426</ele>
        <time>2016-04-10T09:43:30.000Z</time>
      </trkpt>
      <trkpt lat="47.58287" lon="6.80945">
        <ele>426</ele>
        <time>2016-04-10T09:43:31.000Z</time>
      </trkpt>
      <trkpt lat="47.58287" lon="6.80949">
        <ele>426</ele>
        <time>2016-04-10T09:43:32.000Z</time>
      </trkpt>
      <trkpt lat="47.58286" lon="6.80952">
        <ele>426</ele>
        <time>2016-04-10T09:43:33.000Z</time>
      </trkpt>
      <trkpt lat="47.58286" lon="6.80955">
        <ele>426</ele>
        <time>2016-04-10T09:43:34.000Z</time>
      </trkpt>
      <trkpt lat="47.58286" lon="6.80959">
        <ele>426</ele>
        <time>2016-04-10T09:43:35.000Z</time>
      </trkpt>
      <trkpt lat="47.58286" lon="6.80963">
        <ele>426</ele>
        <time>2016-04-10T09:43:36.000Z</time>
      </trkpt>
      <trkpt lat="47.58286" lon="6.80967">
        <ele>426</ele>
        <time>2016-04-10T09:43:37.000Z</time>
      </trkpt>
      <trkpt lat="47.58286" lon="6.80971">
        <ele>426</ele>
        <time>2016-04-10T09:43:38.000Z</time>
      </trkpt>
      <trkpt lat="47.58286" lon="6.80975">
        <ele>426</ele>
        <time>2016-04-10T09:43:39.000Z</time>
      </trkpt>
      <trkpt lat="47.58286" lon="6.80979">
        <ele>426</ele>
        <time>2016-04-10T09:43:40.000Z</time>
      </trkpt>
      <trkpt lat="47.58286" lon="6.80984">
        <ele>426</ele>
        <time>2016-04-10T09:43:41.000Z</time>
      </trkpt>
      <trkpt lat="47.58286" lon="6.80988">
        <ele>426</ele>
        <time>2016-04-10T09:43:42.000Z</time>
      </trkpt>
      <trkpt lat="47.58286" lon="6.80992">
        <ele>426</ele>
        <time>2016-04-10T09:43:43.000Z</time>
      </trkpt>
      <trkpt lat="47.58286" lon="6.80996">
        <ele>426</ele>
        <time>2016-04-10T09:43:44.000Z</time>
      </trkpt>
      <trkpt lat="47.58285" lon="6.81">
        <ele>426</ele>
        <time>2016-04-10T09:43:45.000Z</time>
      </trkpt>
      <trkpt lat="47.58285" lon="6.81004">
        <ele>427</ele>
        <time>2016-04-10T09:43:46.000Z</time>
      </trkpt>
      <trkpt lat="47.58284" lon="6.81008">
        <ele>427</ele>
        <time>2016-04-10T09:43:47.000Z</time>
      </trkpt>
      <trkpt lat="47.58283" lon="6.81012">
        <ele>427</ele>
        <time>2016-04-10T09:43:48.000Z</time>
      </trkpt>
      <trkpt lat="47.58282" lon="6.81016">
        <ele>427</ele>
        <time>2016-04-10T09:43:49.000Z</time>
      </trkpt>
      <trkpt lat="47.58281" lon="6.81019">
        <ele>427</ele>
        <time>2016-04-10T09:43:50.000Z</time>
      </trkpt>
      <trkpt lat="47.58281" lon="6.81022">
        <ele>427</ele>
        <time>2016-04-10T09:43:51.000Z</time>
      </trkpt>
      <trkpt lat="47.5828" lon="6.81029">
        <ele>427</ele>
        <time>2016-04-10T09:43:53.000Z</time>
      </trkpt>
      <trkpt lat="47.5828" lon="6.81032">
        <ele>427</ele>
        <time>2016-04-10T09:43:54.000Z</time>
      </trkpt>
      <trkpt lat="47.58279" lon="6.81035">
        <ele>427</ele>
        <time>2016-04-10T09:43:55.000Z</time>
      </trkpt>
      <trkpt lat="47.58279" lon="6.81039">
        <ele>427</ele>
        <time>2016-04-10T09:43:56.000Z</time>
      </trkpt>
      <trkpt lat="47.58278" lon="6.81043">
        <ele>427</ele>
        <time>2016-04-10T09:43:57.000Z</time>
      </trkpt>
      <trkpt lat="47.58277" lon="6.81047">
        <ele>427</ele>
        <time>2016-04-10T09:43:58.000Z</time>
      </trkpt>
      <trkpt lat="47.58277" lon="6.81051">
        <ele>427</ele>
        <time>2016-04-10T09:43:59.000Z</time>
      </trkpt>
      <trkpt lat="47.58276" lon="6.81054">
        <ele>427</ele>
        <time>2016-04-10T09:44:00.000Z</time>
      </trkpt>
      <trkpt lat="47.58276" lon="6.81058">
        <ele>428</ele>
        <time>2016-04-10T09:44:01.000Z</time>
      </trkpt>
      <trkpt lat="47.58275" lon="6.81061">
        <ele>428</ele>
        <time>2016-04-10T09:44:02.000Z</time>
      </trkpt>
      <trkpt lat="47.58275" lon="6.81065">
        <ele>428</ele>
        <time>2016-04-10T09:44:03.000Z</time>
      </trkpt>
      <trkpt lat="47.58274" lon="6.81068">
        <ele>428</ele>
        <time>2016-04-10T09:44:04.000Z</time>
      </trkpt>
      <trkpt lat="47.58273" lon="6.81074">
        <ele>428</ele>
        <time>2016-04-10T09:44:06.000Z</time>
      </trkpt>
      <trkpt lat="47.58272" lon="6.81076">
        <ele>428</ele>
        <time>2016-04-10T09:44:07.000Z</time>
      </trkpt>
      <trkpt lat="47.58271" lon="6.81083">
        <ele>428</ele>
        <time>2016-04-10T09:44:09.000Z</time>
      </trkpt>
      <trkpt lat="47.5827" lon="6.81086">
        <ele>429</ele>
        <time>2016-04-10T09:44:10.000Z</time>
      </trkpt>
      <trkpt lat="47.5827" lon="6.8109">
        <ele>429</ele>
        <time>2016-04-10T09:44:11.000Z</time>
      </trkpt>
      <trkpt lat="47.5827" lon="6.81094">
        <ele>429</ele>
        <time>2016-04-10T09:44:12.000Z</time>
      </trkpt>
      <trkpt lat="47.5827" lon="6.81097">
        <ele>429</ele>
        <time>2016-04-10T09:44:13.000Z</time>
      </trkpt>
      <trkpt lat="47.5827" lon="6.81101">
        <ele>429</ele>
        <time>2016-04-10T09:44:14.000Z</time>
      </trkpt>
      <trkpt lat="47.58271" lon="6.81104">
        <ele>429</ele>
        <time>2016-04-10T09:44:15.000Z</time>
      </trkpt>
      <trkpt lat="47.58271" lon="6.81107">
        <ele>429</ele>
        <time>2016-04-10T09:44:16.000Z</time>
      </trkpt>
      <trkpt lat="47.58273" lon="6.81112">
        <ele>430</ele>
        <time>2016-04-10T09:44:18.000Z</time>
      </trkpt>
      <trkpt lat="47.58274" lon="6.81115">
        <ele>430</ele>
        <time>2016-04-10T09:44:19.000Z</time>
      </trkpt>
      <trkpt lat="47.58277" lon="6.81118">
        <ele>430</ele>
        <time>2016-04-10T09:44:21.000Z</time>
      </trkpt>
      <trkpt lat="47.58279" lon="6.8112">
        <ele>430</ele>
        <time>2016-04-10T09:44:22.000Z</time>
      </trkpt>
      <trkpt lat="47.58282" lon="6.81122">
        <ele>430</ele>
        <time>2016-04-10T09:44:24.000Z</time>
      </trkpt>
      <trkpt lat="47.58283" lon="6.81124">
        <ele>430</ele>
        <time>2016-04-10T09:44:25.000Z</time>
      </trkpt>
      <trkpt lat="47.58286" lon="6.81126">
        <ele>430</ele>
        <time>2016-04-10T09:44:27.000Z</time>
      </trkpt>
      <trkpt lat="47.58287" lon="6.81128">
        <ele>430</ele>
        <time>2016-04-10T09:44:28.000Z</time>
      </trkpt>
      <trkpt lat="47.58289" lon="6.8113">
        <ele>430</ele>
        <time>2016-04-10T09:44:30.000Z</time>
      </trkpt>
      <trkpt lat="47.5829" lon="6.81132">
        <ele>430</ele>
        <time>2016-04-10T09:44:31.000Z</time>
      </trkpt>
      <trkpt lat="47.58293" lon="6.81136">
        <ele>430</ele>
        <time>2016-04-10T09:44:33.000Z</time>
      </trkpt>
      <trkpt lat="47.58294" lon="6.81138">
        <ele>430</ele>
        <time>2016-04-10T09:44:34.000Z</time>
      </trkpt>
      <trkpt lat="47.58297" lon="6.81142">
        <ele>430</ele>
        <time>2016-04-10T09:44:36.000Z</time>
      </trkpt>
      <trkpt lat="47.58298" lon="6.81143">
        <ele>430</ele>
        <time>2016-04-10T09:44:37.000Z</time>
      </trkpt>
      <trkpt lat="47.58301" lon="6.81148">
        <ele>430</ele>
        <time>2016-04-10T09:44:40.000Z</time>
      </trkpt>
      <trkpt lat="47.58303" lon="6.8115">
        <ele>430</ele>
        <time>2016-04-10T09:44:41.000Z</time>
      </trkpt>
      <trkpt lat="47.58305" lon="6.81154">
        <ele>430</ele>
        <time>2016-04-10T09:44:43.000Z</time>
      </trkpt>
      <trkpt lat="47.58307" lon="6.81156">
        <ele>430</ele>
        <time>2016-04-10T09:44:44.000Z</time>
      </trkpt>
      <trkpt lat="47.58309" lon="6.81159">
        <ele>431</ele>
        <time>2016-04-10T09:44:46.000Z</time>
      </trkpt>
      <trkpt lat="47.5831" lon="6.8116">
        <ele>431</ele>
        <time>2016-04-10T09:44:47.000Z</time>
      </trkpt>
      <trkpt lat="47.58313" lon="6.81163">
        <ele>431</ele>
        <time>2016-04-10T09:44:49.000Z</time>
      </trkpt>
      <trkpt lat="47.58315" lon="6.81166">
        <ele>431</ele>
        <time>2016-04-10T09:44:50.000Z</time>
      </trkpt>
      <trkpt lat="47.58317" lon="6.81169">
        <ele>432</ele>
        <time>2016-04-10T09:44:51.000Z</time>
      </trkpt>
      <trkpt lat="47.58319" lon="6.81172">
        <ele>432</ele>
        <time>2016-04-10T09:44:52.000Z</time>
      </trkpt>
      <trkpt lat="47.58321" lon="6.81175">
        <ele>432</ele>
        <time>2016-04-10T09:44:53.000Z</time>
      </trkpt>
      <trkpt lat="47.58323" lon="6.81178">
        <ele>432</ele>
        <time>2016-04-10T09:44:54.000Z</time>
      </trkpt>
      <trkpt lat="47.58325" lon="6.81181">
        <ele>432</ele>
        <time>2016-04-10T09:44:55.000Z</time>
      </trkpt>
      <trkpt lat="47.58327" lon="6.81184">
        <ele>432</ele>
        <time>2016-04-10T09:44:56.000Z</time>
      </trkpt>
      <trkpt lat="47.58329" lon="6.81187">
        <ele>432</ele>
        <time>2016-04-10T09:44:57.000Z</time>
      </trkpt>
      <trkpt lat="47.58331" lon="6.8119">
        <ele>432</ele>
        <time>2016-04-10T09:44:58.000Z</time>
      </trkpt>
      <trkpt lat="47.58333" lon="6.81193">
        <ele>430</ele>
        <time>2016-04-10T09:44:59.000Z</time>
      </trkpt>
      <trkpt lat="47.58336" lon="6.81197">
        <ele>430</ele>
        <time>2016-04-10T09:45:00.000Z</time>
      </trkpt>
      <trkpt lat="47.58338" lon="6.81202">
        <ele>430</ele>
        <time>2016-04-10T09:45:01.000Z</time>
      </trkpt>
      <trkpt lat="47.5834" lon="6.81206">
        <ele>430</ele>
        <time>2016-04-10T09:45:02.000Z</time>
      </trkpt>
      <trkpt lat="47.58343" lon="6.8121">
        <ele>430</ele>
        <time>2016-04-10T09:45:03.000Z</time>
      </trkpt>
      <trkpt lat="47.58345" lon="6.81214">
        <ele>430</ele>
        <time>2016-04-10T09:45:04.000Z</time>
      </trkpt>
      <trkpt lat="47.58348" lon="6.81218">
        <ele>430</ele>
        <time>2016-04-10T09:45:05.000Z</time>
      </trkpt>
      <trkpt lat="47.5835" lon="6.81222">
        <ele>430</ele>
        <time>2016-04-10T09:45:06.000Z</time>
      </trkpt>
      <trkpt lat="47.58352" lon="6.81225">
        <ele>430</ele>
        <time>2016-04-10T09:45:07.000Z</time>
      </trkpt>
      <trkpt lat="47.58355" lon="6.81228">
        <ele>430</ele>
        <time>2016-04-10T09:45:08.000Z</time>
      </trkpt>
      <trkpt lat="47.58357" lon="6.81232">
        <ele>430</ele>
        <time>2016-04-10T09:45:09.000Z</time>
      </trkpt>
      <trkpt lat="47.58359" lon="6.81235">
        <ele>430</ele>
        <time>2016-04-10T09:45:10.000Z</time>
      </trkpt>
      <trkpt lat="47.5836" lon="6.81239">
        <ele>430</ele>
        <time>2016-04-10T09:45:11.000Z</time>
      </trkpt>
      <trkpt lat="47.58362" lon="6.81243">
        <ele>430</ele>
        <time>2016-04-10T09:45:12.000Z</time>
      </trkpt>
      <trkpt lat="47.58363" lon="6.81247">
        <ele>430</ele>
        <time>2016-04-10T09:45:13.000Z</time>
      </trkpt>
      <trkpt lat="47.58365" lon="6.81251">
        <ele>432</ele>
        <time>2016-04-10T09:45:14.000Z</time>
      </trkpt>
      <trkpt lat="47.58375" lon="6.81262">
        <ele>431</ele>
        <time>2016-04-10T09:45:15.000Z</time>
      </trkpt>
      <trkpt lat="47.58378" lon="6.81267">
        <ele>431</ele>
        <time>2016-04-10T09:45:16.000Z</time>
      </trkpt>
      <trkpt lat="47.5838" lon="6.81273">
        <ele>431</ele>
        <time>2016-04-10T09:45:17.000Z</time>
      </trkpt>
      <trkpt lat="47.58382" lon="6.81276">
        <ele>431</ele>
        <time>2016-04-10T09:45:18.000Z</time>
      </trkpt>
      <trkpt lat="47.58387" lon="6.81278">
        <ele>431</ele>
        <time>2016-04-10T09:45:19.000Z</time>
      </trkpt>
      <trkpt lat="47.5839" lon="6.81282">
        <ele>431</ele>
        <time>2016-04-10T09:45:20.000Z</time>
      </trkpt>
      <trkpt lat="47.58394" lon="6.81286">
        <ele>431</ele>
        <time>2016-04-10T09:45:21.000Z</time>
      </trkpt>
      <trkpt lat="47.58397" lon="6.81292">
        <ele>431</ele>
        <time>2016-04-10T09:45:22.000Z</time>
      </trkpt>
      <trkpt lat="47.584" lon="6.81296">
        <ele>430</ele>
        <time>2016-04-10T09:45:23.000Z</time>
      </trkpt>
      <trkpt lat="47.58406" lon="6.81301">
        <ele>430</ele>
        <time>2016-04-10T09:45:24.000Z</time>
      </trkpt>
      <trkpt lat="47.58411" lon="6.81305">
        <ele>430</ele>
        <time>2016-04-10T09:45:25.000Z</time>
      </trkpt>
      <trkpt lat="47.58416" lon="6.81314">
        <ele>430</ele>
        <time>2016-04-10T09:45:26.000Z</time>
      </trkpt>
      <trkpt lat="47.58419" lon="6.81317">
        <ele>427</ele>
        <time>2016-04-10T09:45:27.000Z</time>
      </trkpt>
      <trkpt lat="47.58423" lon="6.81321">
        <ele>427</ele>
        <time>2016-04-10T09:45:28.000Z</time>
      </trkpt>
      <trkpt lat="47.58427" lon="6.81324">
        <ele>427</ele>
        <time>2016-04-10T09:45:29.000Z</time>
      </trkpt>
      <trkpt lat="47.5843" lon="6.81327">
        <ele>427</ele>
        <time>2016-04-10T09:45:30.000Z</time>
      </trkpt>
      <trkpt lat="47.58435" lon="6.81335">
        <ele>428</ele>
        <time>2016-04-10T09:45:31.000Z</time>
      </trkpt>
      <trkpt lat="47.5844" lon="6.81338">
        <ele>428</ele>
        <time>2016-04-10T09:45:32.000Z</time>
      </trkpt>
      <trkpt lat="47.58444" lon="6.81343">
        <ele>428</ele>
        <time>2016-04-10T09:45:33.000Z</time>
      </trkpt>
      <trkpt lat="47.58448" lon="6.81347">
        <ele>427</ele>
        <time>2016-04-10T09:45:34.000Z</time>
      </trkpt>
      <trkpt lat="47.58456" lon="6.81355">
        <ele>427</ele>
        <time>2016-04-10T09:45:35.000Z</time>
      </trkpt>
      <trkpt lat="47.58461" lon="6.81362">
        <ele>427</ele>
        <time>2016-04-10T09:45:36.000Z</time>
      </trkpt>
      <trkpt lat="47.58466" lon="6.81368">
        <ele>427</ele>
        <time>2016-04-10T09:45:37.000Z</time>
      </trkpt>
      <trkpt lat="47.5847" lon="6.81378">
        <ele>427</ele>
        <time>2016-04-10T09:45:38.000Z</time>
      </trkpt>
      <trkpt lat="47.58475" lon="6.81388">
        <ele>427</ele>
        <time>2016-04-10T09:45:39.000Z</time>
      </trkpt>
      <trkpt lat="47.5848" lon="6.81398">
        <ele>427</ele>
        <time>2016-04-10T09:45:40.000Z</time>
      </trkpt>
      <trkpt lat="47.58485" lon="6.81407">
        <ele>426</ele>
        <time>2016-04-10T09:45:41.000Z</time>
      </trkpt>
      <trkpt lat="47.58489" lon="6.81419">
        <ele>426</ele>
        <time>2016-04-10T09:45:42.000Z</time>
      </trkpt>
      <trkpt lat="47.58494" lon="6.81425">
        <ele>426</ele>
        <time>2016-04-10T09:45:43.000Z</time>
      </trkpt>
      <trkpt lat="47.58497" lon="6.8143">
        <ele>426</ele>
        <time>2016-04-10T09:45:44.000Z</time>
      </trkpt>
      <trkpt lat="47.58499" lon="6.81431">
        <ele>426</ele>
        <time>2016-04-10T09:45:45.000Z</time>
      </trkpt>
      <trkpt lat="47.58504" lon="6.81435">
        <ele>426</ele>
        <time>2016-04-10T09:45:46.000Z</time>
      </trkpt>
      <trkpt lat="47.58506" lon="6.81439">
        <ele>426</ele>
        <time>2016-04-10T09:45:47.000Z</time>
      </trkpt>
      <trkpt lat="47.58509" lon="6.81442">
        <ele>426</ele>
        <time>2016-04-10T09:45:48.000Z</time>
      </trkpt>
      <trkpt lat="47.58511" lon="6.81448">
        <ele>426</ele>
        <time>2016-04-10T09:45:49.000Z</time>
      </trkpt>
      <trkpt lat="47.58514" lon="6.81453">
        <ele>426</ele>
        <time>2016-04-10T09:45:50.000Z</time>
      </trkpt>
      <trkpt lat="47.58517" lon="6.81456">
        <ele>426</ele>
        <time>2016-04-10T09:45:51.000Z</time>
      </trkpt>
      <trkpt lat="47.58519" lon="6.81459">
        <ele>426</ele>
        <time>2016-04-10T09:45:52.000Z</time>
      </trkpt>
      <trkpt lat="47.58521" lon="6.81463">
        <ele>426</ele>
        <time>2016-04-10T09:45:53.000Z</time>
      </trkpt>
      <trkpt lat="47.58523" lon="6.81466">
        <ele>426</ele>
        <time>2016-04-10T09:45:54.000Z</time>
      </trkpt>
      <trkpt lat="47.58525" lon="6.81469">
        <ele>426</ele>
        <time>2016-04-10T09:45:55.000Z</time>
      </trkpt>
      <trkpt lat="47.58528" lon="6.81472">
        <ele>426</ele>
        <time>2016-04-10T09:45:56.000Z</time>
      </trkpt>
      <trkpt lat="47.5853" lon="6.81474">
        <ele>426</ele>
        <time>2016-04-10T09:45:57.000Z</time>
      </trkpt>
      <trkpt lat="47.58532" lon="6.81476">
        <ele>426</ele>
        <time>2016-04-10T09:45:58.000Z</time>
      </trkpt>
      <trkpt lat="47.58535" lon="6.81479">
        <ele>426</ele>
        <time>2016-04-10T09:46:00.000Z</time>
      </trkpt>
      <trkpt lat="47.58536" lon="6.8148">
        <ele>426</ele>
        <time>2016-04-10T09:46:01.000Z</time>
      </trkpt>
      <trkpt lat="47.58538" lon="6.81481">
        <ele>426</ele>
        <time>2016-04-10T09:46:02.000Z</time>
      </trkpt>
      <trkpt lat="47.5854" lon="6.81482">
        <ele>426</ele>
        <time>2016-04-10T09:46:03.000Z</time>
      </trkpt>
      <trkpt lat="47.58543" lon="6.81484">
        <ele>426</ele>
        <time>2016-04-10T09:46:04.000Z</time>
      </trkpt>
      <trkpt lat="47.58546" lon="6.81485">
        <ele>426</ele>
        <time>2016-04-10T09:46:05.000Z</time>
      </trkpt>
      <trkpt lat="47.5855" lon="6.81486">
        <ele>426</ele>
        <time>2016-04-10T09:46:06.000Z</time>
      </trkpt>
      <trkpt lat="47.58552" lon="6.81487">
        <ele>426</ele>
        <time>2016-04-10T09:46:07.000Z</time>
      </trkpt>
      <trkpt lat="47.58555" lon="6.81488">
        <ele>426</ele>
        <time>2016-04-10T09:46:11.000Z</time>
      </trkpt>
      <trkpt lat="47.58557" lon="6.81488">
        <ele>426</ele>
        <time>2016-04-10T09:46:12.000Z</time>
      </trkpt>
      <trkpt lat="47.58559" lon="6.81488">
        <ele>426</ele>
        <time>2016-04-10T09:46:13.000Z</time>
      </trkpt>
      <trkpt lat="47.58563" lon="6.81487">
        <ele>426</ele>
        <time>2016-04-10T09:46:14.000Z</time>
      </trkpt>
      <trkpt lat="47.58566" lon="6.81487">
        <ele>426</ele>
        <time>2016-04-10T09:46:15.000Z</time>
      </trkpt>
      <trkpt lat="47.5857" lon="6.81486">
        <ele>426</ele>
        <time>2016-04-10T09:46:16.000Z</time>
      </trkpt>
      <trkpt lat="47.58573" lon="6.81486">
        <ele>426</ele>
        <time>2016-04-10T09:46:17.000Z</time>
      </trkpt>
      <trkpt lat="47.58576" lon="6.81487">
        <ele>426</ele>
        <time>2016-04-10T09:46:18.000Z</time>
      </trkpt>
      <trkpt lat="47.58578" lon="6.81489">
        <ele>426</ele>
        <time>2016-04-10T09:46:19.000Z</time>
      </trkpt>
      <trkpt lat="47.58581" lon="6.81492">
        <ele>426</ele>
        <time>2016-04-10T09:46:20.000Z</time>
      </trkpt>
      <trkpt lat="47.58583" lon="6.81495">
        <ele>427</ele>
        <time>2016-04-10T09:46:21.000Z</time>
      </trkpt>
      <trkpt lat="47.58585" lon="6.815">
        <ele>426</ele>
        <time>2016-04-10T09:46:22.000Z</time>
      </trkpt>
      <trkpt lat="47.58587" lon="6.81504">
        <ele>426</ele>
        <time>2016-04-10T09:46:23.000Z</time>
      </trkpt>
      <trkpt lat="47.5859" lon="6.81509">
        <ele>426</ele>
        <time>2016-04-10T09:46:24.000Z</time>
      </trkpt>
      <trkpt lat="47.58591" lon="6.81513">
        <ele>426</ele>
        <time>2016-04-10T09:46:25.000Z</time>
      </trkpt>
      <trkpt lat="47.58594" lon="6.81517">
        <ele>425</ele>
        <time>2016-04-10T09:46:26.000Z</time>
      </trkpt>
      <trkpt lat="47.58597" lon="6.81522">
        <ele>425</ele>
        <time>2016-04-10T09:46:27.000Z</time>
      </trkpt>
      <trkpt lat="47.586" lon="6.81528">
        <ele>425</ele>
        <time>2016-04-10T09:46:28.000Z</time>
      </trkpt>
      <trkpt lat="47.58602" lon="6.81534">
        <ele>425</ele>
        <time>2016-04-10T09:46:29.000Z</time>
      </trkpt>
      <trkpt lat="47.58604" lon="6.8154">
        <ele>425</ele>
        <time>2016-04-10T09:46:30.000Z</time>
      </trkpt>
      <trkpt lat="47.58606" lon="6.81546">
        <ele>425</ele>
        <time>2016-04-10T09:46:31.000Z</time>
      </trkpt>
      <trkpt lat="47.58607" lon="6.81552">
        <ele>425</ele>
        <time>2016-04-10T09:46:32.000Z</time>
      </trkpt>
      <trkpt lat="47.58608" lon="6.81558">
        <ele>425</ele>
        <time>2016-04-10T09:46:33.000Z</time>
      </trkpt>
      <trkpt lat="47.58608" lon="6.81563">
        <ele>425</ele>
        <time>2016-04-10T09:46:34.000Z</time>
      </trkpt>
      <trkpt lat="47.58609" lon="6.81567">
        <ele>425</ele>
        <time>2016-04-10T09:46:35.000Z</time>
      </trkpt>
      <trkpt lat="47.58608" lon="6.81572">
        <ele>425</ele>
        <time>2016-04-10T09:46:36.000Z</time>
      </trkpt>
      <trkpt lat="47.58608" lon="6.81575">
        <ele>426</ele>
        <time>2016-04-10T09:46:37.000Z</time>
      </trkpt>
      <trkpt lat="47.58608" lon="6.81579">
        <ele>426</ele>
        <time>2016-04-10T09:46:38.000Z</time>
      </trkpt>
      <trkpt lat="47.58609" lon="6.81582">
        <ele>426</ele>
        <time>2016-04-10T09:46:39.000Z</time>
      </trkpt>
      <trkpt lat="47.58609" lon="6.81586">
        <ele>427</ele>
        <time>2016-04-10T09:46:40.000Z</time>
      </trkpt>
      <trkpt lat="47.5861" lon="6.81591">
        <ele>427</ele>
        <time>2016-04-10T09:46:41.000Z</time>
      </trkpt>
      <trkpt lat="47.58609" lon="6.81595">
        <ele>427</ele>
        <time>2016-04-10T09:46:42.000Z</time>
      </trkpt>
      <trkpt lat="47.5861" lon="6.816">
        <ele>427</ele>
        <time>2016-04-10T09:46:43.000Z</time>
      </trkpt>
      <trkpt lat="47.5861" lon="6.81605">
        <ele>427</ele>
        <time>2016-04-10T09:46:44.000Z</time>
      </trkpt>
      <trkpt lat="47.58611" lon="6.81609">
        <ele>427</ele>
        <time>2016-04-10T09:46:45.000Z</time>
      </trkpt>
      <trkpt lat="47.58613" lon="6.81613">
        <ele>426</ele>
        <time>2016-04-10T09:46:46.000Z</time>
      </trkpt>
      <trkpt lat="47.58615" lon="6.81617">
        <ele>426</ele>
        <time>2016-04-10T09:46:47.000Z</time>
      </trkpt>
      <trkpt lat="47.58617" lon="6.81621">
        <ele>426</ele>
        <time>2016-04-10T09:46:48.000Z</time>
      </trkpt>
      <trkpt lat="47.5862" lon="6.81625">
        <ele>426</ele>
        <time>2016-04-10T09:46:49.000Z</time>
      </trkpt>
      <trkpt lat="47.58623" lon="6.81629">
        <ele>426</ele>
        <time>2016-04-10T09:46:50.000Z</time>
      </trkpt>
      <trkpt lat="47.58625" lon="6.81633">
        <ele>426</ele>
        <time>2016-04-10T09:46:51.000Z</time>
      </trkpt>
      <trkpt lat="47.58628" lon="6.81637">
        <ele>426</ele>
        <time>2016-04-10T09:46:52.000Z</time>
      </trkpt>
      <trkpt lat="47.5863" lon="6.8164">
        <ele>426</ele>
        <time>2016-04-10T09:46:53.000Z</time>
      </trkpt>
      <trkpt lat="47.58633" lon="6.81644">
        <ele>426</ele>
        <time>2016-04-10T09:46:54.000Z</time>
      </trkpt>
      <trkpt lat="47.58635" lon="6.81647">
        <ele>426</ele>
        <time>2016-04-10T09:46:55.000Z</time>
      </trkpt>
      <trkpt lat="47.58636" lon="6.81651">
        <ele>426</ele>
        <time>2016-04-10T09:46:56.000Z</time>
      </trkpt>
      <trkpt lat="47.58638" lon="6.81656">
        <ele>426</ele>
        <time>2016-04-10T09:46:57.000Z</time>
      </trkpt>
      <trkpt lat="47.58639" lon="6.8166">
        <ele>426</ele>
        <time>2016-04-10T09:46:58.000Z</time>
      </trkpt>
      <trkpt lat="47.58639" lon="6.81664">
        <ele>426</ele>
        <time>2016-04-10T09:46:59.000Z</time>
      </trkpt>
      <trkpt lat="47.5864" lon="6.81669">
        <ele>425</ele>
        <time>2016-04-10T09:47:00.000Z</time>
      </trkpt>
      <trkpt lat="47.58642" lon="6.81673">
        <ele>425</ele>
        <time>2016-04-10T09:47:01.000Z</time>
      </trkpt>
      <trkpt lat="47.58644" lon="6.81678">
        <ele>425</ele>
        <time>2016-04-10T09:47:02.000Z</time>
      </trkpt>
      <trkpt lat="47.58647" lon="6.81682">
        <ele>425</ele>
        <time>2016-04-10T09:47:03.000Z</time>
      </trkpt>
      <trkpt lat="47.58649" lon="6.81686">
        <ele>425</ele>
        <time>2016-04-10T09:47:04.000Z</time>
      </trkpt>
      <trkpt lat="47.5865" lon="6.8169">
        <ele>425</ele>
        <time>2016-04-10T09:47:05.000Z</time>
      </trkpt>
      <trkpt lat="47.58652" lon="6.81694">
        <ele>425</ele>
        <time>2016-04-10T09:47:06.000Z</time>
      </trkpt>
      <trkpt lat="47.58654" lon="6.81697">
        <ele>424</ele>
        <time>2016-04-10T09:47:07.000Z</time>
      </trkpt>
      <trkpt lat="47.58656" lon="6.817">
        <ele>424</ele>
        <time>2016-04-10T09:47:08.000Z</time>
      </trkpt>
      <trkpt lat="47.58657" lon="6.81704">
        <ele>424</ele>
        <time>2016-04-10T09:47:09.000Z</time>
      </trkpt>
      <trkpt lat="47.58659" lon="6.81708">
        <ele>424</ele>
        <time>2016-04-10T09:47:10.000Z</time>
      </trkpt>
      <trkpt lat="47.58661" lon="6.81711">
        <ele>424</ele>
        <time>2016-04-10T09:47:11.000Z</time>
      </trkpt>
      <trkpt lat="47.58663" lon="6.81716">
        <ele>424</ele>
        <time>2016-04-10T09:47:12.000Z</time>
      </trkpt>
      <trkpt lat="47.58665" lon="6.8172">
        <ele>424</ele>
        <time>2016-04-10T09:47:13.000Z</time>
      </trkpt>
      <trkpt lat="47.58666" lon="6.81724">
        <ele>424</ele>
        <time>2016-04-10T09:47:14.000Z</time>
      </trkpt>
      <trkpt lat="47.58669" lon="6.81729">
        <ele>422</ele>
        <time>2016-04-10T09:47:15.000Z</time>
      </trkpt>
      <trkpt lat="47.58671" lon="6.81733">
        <ele>422</ele>
        <time>2016-04-10T09:47:16.000Z</time>
      </trkpt>
      <trkpt lat="47.58672" lon="6.81737">
        <ele>422</ele>
        <time>2016-04-10T09:47:17.000Z</time>
      </trkpt>
      <trkpt lat="47.58674" lon="6.81741">
        <ele>422</ele>
        <time>2016-04-10T09:47:18.000Z</time>
      </trkpt>
      <trkpt lat="47.58676" lon="6.81745">
        <ele>422</ele>
        <time>2016-04-10T09:47:19.000Z</time>
      </trkpt>
      <trkpt lat="47.58678" lon="6.81749">
        <ele>422</ele>
        <time>2016-04-10T09:47:20.000Z</time>
      </trkpt>
      <trkpt lat="47.5868" lon="6.81754">
        <ele>422</ele>
        <time>2016-04-10T09:47:21.000Z</time>
      </trkpt>
      <trkpt lat="47.58683" lon="6.81758">
        <ele>422</ele>
        <time>2016-04-10T09:47:22.000Z</time>
      </trkpt>
      <trkpt lat="47.58685" lon="6.81763">
        <ele>421</ele>
        <time>2016-04-10T09:47:23.000Z</time>
      </trkpt>
      <trkpt lat="47.58687" lon="6.81768">
        <ele>421</ele>
        <time>2016-04-10T09:47:24.000Z</time>
      </trkpt>
      <trkpt lat="47.5869" lon="6.81773">
        <ele>421</ele>
        <time>2016-04-10T09:47:25.000Z</time>
      </trkpt>
      <trkpt lat="47.58693" lon="6.81777">
        <ele>421</ele>
        <time>2016-04-10T09:47:26.000Z</time>
      </trkpt>
      <trkpt lat="47.58696" lon="6.81781">
        <ele>421</ele>
        <time>2016-04-10T09:47:27.000Z</time>
      </trkpt>
      <trkpt lat="47.58699" lon="6.81785">
        <ele>421</ele>
        <time>2016-04-10T09:47:28.000Z</time>
      </trkpt>
      <trkpt lat="47.58702" lon="6.81789">
        <ele>421</ele>
        <time>2016-04-10T09:47:29.000Z</time>
      </trkpt>
      <trkpt lat="47.58704" lon="6.81793">
        <ele>421</ele>
        <time>2016-04-10T09:47:30.000Z</time>
      </trkpt>
      <trkpt lat="47.58707" lon="6.81796">
        <ele>421</ele>
        <time>2016-04-10T09:47:31.000Z</time>
      </trkpt>
      <trkpt lat="47.58711" lon="6.81799">
        <ele>421</ele>
        <time>2016-04-10T09:47:32.000Z</time>
      </trkpt>
      <trkpt lat="47.58714" lon="6.81802">
        <ele>421</ele>
        <time>2016-04-10T09:47:33.000Z</time>
      </trkpt>
      <trkpt lat="47.58717" lon="6.81805">
        <ele>421</ele>
        <time>2016-04-10T09:47:34.000Z</time>
      </trkpt>
      <trkpt lat="47.5872" lon="6.81808">
        <ele>421</ele>
        <time>2016-04-10T09:47:35.000Z</time>
      </trkpt>
      <trkpt lat="47.58723" lon="6.81811">
        <ele>421</ele>
        <time>2016-04-10T09:47:36.000Z</time>
      </trkpt>
      <trkpt lat="47.58727" lon="6.81815">
        <ele>421</ele>
        <time>2016-04-10T09:47:37.000Z</time>
      </trkpt>
      <trkpt lat="47.5873" lon="6.81819">
        <ele>421</ele>
        <time>2016-04-10T09:47:38.000Z</time>
      </trkpt>
      <trkpt lat="47.58733" lon="6.81826">
        <ele>421</ele>
        <time>2016-04-10T09:47:39.000Z</time>
      </trkpt>
      <trkpt lat="47.58736" lon="6.81831">
        <ele>421</ele>
        <time>2016-04-10T09:47:40.000Z</time>
      </trkpt>
      <trkpt lat="47.58739" lon="6.81835">
        <ele>420</ele>
        <time>2016-04-10T09:47:41.000Z</time>
      </trkpt>
      <trkpt lat="47.58743" lon="6.81841">
        <ele>420</ele>
        <time>2016-04-10T09:47:42.000Z</time>
      </trkpt>
      <trkpt lat="47.58746" lon="6.81848">
        <ele>419</ele>
        <time>2016-04-10T09:47:43.000Z</time>
      </trkpt>
      <trkpt lat="47.58749" lon="6.81854">
        <ele>419</ele>
        <time>2016-04-10T09:47:44.000Z</time>
      </trkpt>
      <trkpt lat="47.58752" lon="6.81861">
        <ele>418</ele>
        <time>2016-04-10T09:47:45.000Z</time>
      </trkpt>
      <trkpt lat="47.58756" lon="6.81866">
        <ele>418</ele>
        <time>2016-04-10T09:47:46.000Z</time>
      </trkpt>
      <trkpt lat="47.58759" lon="6.81871">
        <ele>418</ele>
        <time>2016-04-10T09:47:47.000Z</time>
      </trkpt>
      <trkpt lat="47.58763" lon="6.81877">
        <ele>417</ele>
        <time>2016-04-10T09:47:48.000Z</time>
      </trkpt>
      <trkpt lat="47.58766" lon="6.81883">
        <ele>417</ele>
        <time>2016-04-10T09:47:49.000Z</time>
      </trkpt>
      <trkpt lat="47.5877" lon="6.81889">
        <ele>417</ele>
        <time>2016-04-10T09:47:50.000Z</time>
      </trkpt>
      <trkpt lat="47.58774" lon="6.81895">
        <ele>417</ele>
        <time>2016-04-10T09:47:51.000Z</time>
      </trkpt>
      <trkpt lat="47.58777" lon="6.819">
        <ele>417</ele>
        <time>2016-04-10T09:47:52.000Z</time>
      </trkpt>
      <trkpt lat="47.5878" lon="6.81904">
        <ele>417</ele>
        <time>2016-04-10T09:47:53.000Z</time>
      </trkpt>
      <trkpt lat="47.58783" lon="6.8191">
        <ele>417</ele>
        <time>2016-04-10T09:47:54.000Z</time>
      </trkpt>
      <trkpt lat="47.58785" lon="6.81916">
        <ele>417</ele>
        <time>2016-04-10T09:47:55.000Z</time>
      </trkpt>
      <trkpt lat="47.58788" lon="6.8192">
        <ele>416</ele>
        <time>2016-04-10T09:47:56.000Z</time>
      </trkpt>
      <trkpt lat="47.58791" lon="6.81925">
        <ele>416</ele>
        <time>2016-04-10T09:47:57.000Z</time>
      </trkpt>
      <trkpt lat="47.58794" lon="6.81929">
        <ele>416</ele>
        <time>2016-04-10T09:47:58.000Z</time>
      </trkpt>
      <trkpt lat="47.58796" lon="6.81934">
        <ele>416</ele>
        <time>2016-04-10T09:47:59.000Z</time>
      </trkpt>
      <trkpt lat="47.58798" lon="6.81938">
        <ele>416</ele>
        <time>2016-04-10T09:48:00.000Z</time>
      </trkpt>
      <trkpt lat="47.58799" lon="6.81943">
        <ele>416</ele>
        <time>2016-04-10T09:48:01.000Z</time>
      </trkpt>
      <trkpt lat="47.58801" lon="6.81949">
        <ele>416</ele>
        <time>2016-04-10T09:48:02.000Z</time>
      </trkpt>
      <trkpt lat="47.58808" lon="6.81954">
        <ele>416</ele>
        <time>2016-04-10T09:48:03.000Z</time>
      </trkpt>
      <trkpt lat="47.58812" lon="6.81958">
        <ele>416</ele>
        <time>2016-04-10T09:48:04.000Z</time>
      </trkpt>
      <trkpt lat="47.58815" lon="6.81961">
        <ele>416</ele>
        <time>2016-04-10T09:48:05.000Z</time>
      </trkpt>
      <trkpt lat="47.58818" lon="6.81965">
        <ele>416</ele>
        <time>2016-04-10T09:48:06.000Z</time>
      </trkpt>
      <trkpt lat="47.58821" lon="6.8197">
        <ele>417</ele>
        <time>2016-04-10T09:48:07.000Z</time>
      </trkpt>
      <trkpt lat="47.58823" lon="6.81974">
        <ele>417</ele>
        <time>2016-04-10T09:48:08.000Z</time>
      </trkpt>
      <trkpt lat="47.58824" lon="6.81981">
        <ele>417</ele>
        <time>2016-04-10T09:48:09.000Z</time>
      </trkpt>
      <trkpt lat="47.58825" lon="6.81987">
        <ele>417</ele>
        <time>2016-04-10T09:48:10.000Z</time>
      </trkpt>
      <trkpt lat="47.58827" lon="6.81993">
        <ele>418</ele>
        <time>2016-04-10T09:48:11.000Z</time>
      </trkpt>
      <trkpt lat="47.58828" lon="6.81998">
        <ele>418</ele>
        <time>2016-04-10T09:48:12.000Z</time>
      </trkpt>
      <trkpt lat="47.58828" lon="6.82003">
        <ele>419</ele>
        <time>2016-04-10T09:48:13.000Z</time>
      </trkpt>
      <trkpt lat="47.58829" lon="6.8201">
        <ele>418</ele>
        <time>2016-04-10T09:48:14.000Z</time>
      </trkpt>
      <trkpt lat="47.58829" lon="6.82016">
        <ele>418</ele>
        <time>2016-04-10T09:48:15.000Z</time>
      </trkpt>
      <trkpt lat="47.58829" lon="6.82021">
        <ele>418</ele>
        <time>2016-04-10T09:48:16.000Z</time>
      </trkpt>
      <trkpt lat="47.5883" lon="6.82027">
        <ele>418</ele>
        <time>2016-04-10T09:48:17.000Z</time>
      </trkpt>
      <trkpt lat="47.5883" lon="6.82032">
        <ele>418</ele>
        <time>2016-04-10T09:48:18.000Z</time>
      </trkpt>
      <trkpt lat="47.5883" lon="6.82038">
        <ele>418</ele>
        <time>2016-04-10T09:48:19.000Z</time>
      </trkpt>
      <trkpt lat="47.58831" lon="6.82044">
        <ele>418</ele>
        <time>2016-04-10T09:48:20.000Z</time>
      </trkpt>
      <trkpt lat="47.58831" lon="6.8205">
        <ele>419</ele>
        <time>2016-04-10T09:48:21.000Z</time>
      </trkpt>
      <trkpt lat="47.5883" lon="6.82055">
        <ele>419</ele>
        <time>2016-04-10T09:48:22.000Z</time>
      </trkpt>
      <trkpt lat="47.58829" lon="6.82062">
        <ele>419</ele>
        <time>2016-04-10T09:48:23.000Z</time>
      </trkpt>
      <trkpt lat="47.58828" lon="6.82068">
        <ele>420</ele>
        <time>2016-04-10T09:48:24.000Z</time>
      </trkpt>
      <trkpt lat="47.58825" lon="6.82083">
        <ele>421</ele>
        <time>2016-04-10T09:48:25.000Z</time>
      </trkpt>
      <trkpt lat="47.58824" lon="6.82092">
        <ele>422</ele>
        <time>2016-04-10T09:48:26.000Z</time>
      </trkpt>
      <trkpt lat="47.58822" lon="6.821">
        <ele>422</ele>
        <time>2016-04-10T09:48:27.000Z</time>
      </trkpt>
      <trkpt lat="47.58821" lon="6.82109">
        <ele>422</ele>
        <time>2016-04-10T09:48:28.000Z</time>
      </trkpt>
      <trkpt lat="47.5882" lon="6.82117">
        <ele>422</ele>
        <time>2016-04-10T09:48:29.000Z</time>
      </trkpt>
      <trkpt lat="47.58816" lon="6.82123">
        <ele>422</ele>
        <time>2016-04-10T09:48:30.000Z</time>
      </trkpt>
      <trkpt lat="47.58812" lon="6.82128">
        <ele>422</ele>
        <time>2016-04-10T09:48:31.000Z</time>
      </trkpt>
      <trkpt lat="47.58807" lon="6.8213">
        <ele>422</ele>
        <time>2016-04-10T09:48:32.000Z</time>
      </trkpt>
      <trkpt lat="47.58801" lon="6.82123">
        <ele>422</ele>
        <time>2016-04-10T09:48:33.000Z</time>
      </trkpt>
      <trkpt lat="47.58796" lon="6.8212">
        <ele>422</ele>
        <time>2016-04-10T09:48:34.000Z</time>
      </trkpt>
      <trkpt lat="47.58791" lon="6.82116">
        <ele>422</ele>
        <time>2016-04-10T09:48:35.000Z</time>
      </trkpt>
      <trkpt lat="47.58787" lon="6.82113">
        <ele>422</ele>
        <time>2016-04-10T09:48:36.000Z</time>
      </trkpt>
      <trkpt lat="47.58784" lon="6.82104">
        <ele>421</ele>
        <time>2016-04-10T09:48:37.000Z</time>
      </trkpt>
      <trkpt lat="47.5878" lon="6.82096">
        <ele>421</ele>
        <time>2016-04-10T09:48:38.000Z</time>
      </trkpt>
      <trkpt lat="47.58777" lon="6.82091">
        <ele>420</ele>
        <time>2016-04-10T09:48:39.000Z</time>
      </trkpt>
      <trkpt lat="47.58773" lon="6.82082">
        <ele>417</ele>
        <time>2016-04-10T09:48:40.000Z</time>
      </trkpt>
      <trkpt lat="47.58769" lon="6.82075">
        <ele>417</ele>
        <time>2016-04-10T09:48:41.000Z</time>
      </trkpt>
      <trkpt lat="47.58763" lon="6.8207">
        <ele>417</ele>
        <time>2016-04-10T09:48:42.000Z</time>
      </trkpt>
      <trkpt lat="47.58759" lon="6.82065">
        <ele>417</ele>
        <time>2016-04-10T09:48:43.000Z</time>
      </trkpt>
      <trkpt lat="47.58755" lon="6.8206">
        <ele>417</ele>
        <time>2016-04-10T09:48:44.000Z</time>
      </trkpt>
      <trkpt lat="47.58749" lon="6.82054">
        <ele>414</ele>
        <time>2016-04-10T09:48:45.000Z</time>
      </trkpt>
      <trkpt lat="47.58745" lon="6.82048">
        <ele>414</ele>
        <time>2016-04-10T09:48:46.000Z</time>
      </trkpt>
      <trkpt lat="47.58739" lon="6.82044">
        <ele>414</ele>
        <time>2016-04-10T09:48:47.000Z</time>
      </trkpt>
      <trkpt lat="47.58733" lon="6.82039">
        <ele>413</ele>
        <time>2016-04-10T09:48:48.000Z</time>
      </trkpt>
      <trkpt lat="47.58727" lon="6.82035">
        <ele>413</ele>
        <time>2016-04-10T09:48:49.000Z</time>
      </trkpt>
      <trkpt lat="47.58721" lon="6.82033">
        <ele>413</ele>
        <time>2016-04-10T09:48:50.000Z</time>
      </trkpt>
      <trkpt lat="47.58716" lon="6.8203">
        <ele>413</ele>
        <time>2016-04-10T09:48:51.000Z</time>
      </trkpt>
      <trkpt lat="47.5871" lon="6.82028">
        <ele>413</ele>
        <time>2016-04-10T09:48:52.000Z</time>
      </trkpt>
      <trkpt lat="47.58704" lon="6.82026">
        <ele>413</ele>
        <time>2016-04-10T09:48:53.000Z</time>
      </trkpt>
      <trkpt lat="47.58697" lon="6.82025">
        <ele>413</ele>
        <time>2016-04-10T09:48:54.000Z</time>
      </trkpt>
      <trkpt lat="47.58691" lon="6.8202">
        <ele>412</ele>
        <time>2016-04-10T09:48:55.000Z</time>
      </trkpt>
      <trkpt lat="47.58685" lon="6.82017">
        <ele>412</ele>
        <time>2016-04-10T09:48:56.000Z</time>
      </trkpt>
      <trkpt lat="47.58677" lon="6.82013">
        <ele>412</ele>
        <time>2016-04-10T09:48:57.000Z</time>
      </trkpt>
      <trkpt lat="47.58671" lon="6.82011">
        <ele>411</ele>
        <time>2016-04-10T09:48:58.000Z</time>
      </trkpt>
      <trkpt lat="47.58664" lon="6.82007">
        <ele>411</ele>
        <time>2016-04-10T09:48:59.000Z</time>
      </trkpt>
      <trkpt lat="47.58657" lon="6.82001">
        <ele>412</ele>
        <time>2016-04-10T09:49:00.000Z</time>
      </trkpt>
      <trkpt lat="47.58651" lon="6.81999">
        <ele>410</ele>
        <time>2016-04-10T09:49:01.000Z</time>
      </trkpt>
      <trkpt lat="47.58646" lon="6.81997">
        <ele>411</ele>
        <time>2016-04-10T09:49:02.000Z</time>
      </trkpt>
      <trkpt lat="47.58638" lon="6.81993">
        <ele>411</ele>
        <time>2016-04-10T09:49:03.000Z</time>
      </trkpt>
      <trkpt lat="47.58629" lon="6.8199">
        <ele>411</ele>
        <time>2016-04-10T09:49:04.000Z</time>
      </trkpt>
      <trkpt lat="47.58622" lon="6.81985">
        <ele>411</ele>
        <time>2016-04-10T09:49:05.000Z</time>
      </trkpt>
      <trkpt lat="47.58617" lon="6.81982">
        <ele>411</ele>
        <time>2016-04-10T09:49:06.000Z</time>
      </trkpt>
      <trkpt lat="47.58611" lon="6.81978">
        <ele>411</ele>
        <time>2016-04-10T09:49:07.000Z</time>
      </trkpt>
      <trkpt lat="47.58606" lon="6.81974">
        <ele>411</ele>
        <time>2016-04-10T09:49:08.000Z</time>
      </trkpt>
      <trkpt lat="47.586" lon="6.8197">
        <ele>411</ele>
        <time>2016-04-10T09:49:09.000Z</time>
      </trkpt>
      <trkpt lat="47.58594" lon="6.81967">
        <ele>411</ele>
        <time>2016-04-10T09:49:10.000Z</time>
      </trkpt>
      <trkpt lat="47.58588" lon="6.81963">
        <ele>411</ele>
        <time>2016-04-10T09:49:11.000Z</time>
      </trkpt>
      <trkpt lat="47.58582" lon="6.81957">
        <ele>410</ele>
        <time>2016-04-10T09:49:12.000Z</time>
      </trkpt>
      <trkpt lat="47.58574" lon="6.81954">
        <ele>410</ele>
        <time>2016-04-10T09:49:13.000Z</time>
      </trkpt>
      <trkpt lat="47.58568" lon="6.81953">
        <ele>410</ele>
        <time>2016-04-10T09:49:14.000Z</time>
      </trkpt>
      <trkpt lat="47.58562" lon="6.81948">
        <ele>409</ele>
        <time>2016-04-10T09:49:15.000Z</time>
      </trkpt>
      <trkpt lat="47.58556" lon="6.81945">
        <ele>409</ele>
        <time>2016-04-10T09:49:16.000Z</time>
      </trkpt>
      <trkpt lat="47.5855" lon="6.8194">
        <ele>409</ele>
        <time>2016-04-10T09:49:17.000Z</time>
      </trkpt>
      <trkpt lat="47.58543" lon="6.81938">
        <ele>409</ele>
        <time>2016-04-10T09:49:18.000Z</time>
      </trkpt>
      <trkpt lat="47.58535" lon="6.81935">
        <ele>408</ele>
        <time>2016-04-10T09:49:19.000Z</time>
      </trkpt>
      <trkpt lat="47.5853" lon="6.81932">
        <ele>408</ele>
        <time>2016-04-10T09:49:20.000Z</time>
      </trkpt>
      <trkpt lat="47.58525" lon="6.81932">
        <ele>408</ele>
        <time>2016-04-10T09:49:21.000Z</time>
      </trkpt>
      <trkpt lat="47.58516" lon="6.81928">
        <ele>407</ele>
        <time>2016-04-10T09:49:22.000Z</time>
      </trkpt>
      <trkpt lat="47.58506" lon="6.81929">
        <ele>406</ele>
        <time>2016-04-10T09:49:23.000Z</time>
      </trkpt>
      <trkpt lat="47.58499" lon="6.81928">
        <ele>405</ele>
        <time>2016-04-10T09:49:24.000Z</time>
      </trkpt>
      <trkpt lat="47.58493" lon="6.81928">
        <ele>405</ele>
        <time>2016-04-10T09:49:25.000Z</time>
      </trkpt>
      <trkpt lat="47.58486" lon="6.81927">
        <ele>406</ele>
        <time>2016-04-10T09:49:26.000Z</time>
      </trkpt>
      <trkpt lat="47.58479" lon="6.81927">
        <ele>406</ele>
        <time>2016-04-10T09:49:27.000Z</time>
      </trkpt>
      <trkpt lat="47.58471" lon="6.81926">
        <ele>406</ele>
        <time>2016-04-10T09:49:28.000Z</time>
      </trkpt>
      <trkpt lat="47.58466" lon="6.81927">
        <ele>406</ele>
        <time>2016-04-10T09:49:29.000Z</time>
      </trkpt>
      <trkpt lat="47.58461" lon="6.81926">
        <ele>406</ele>
        <time>2016-04-10T09:49:30.000Z</time>
      </trkpt>
      <trkpt lat="47.58456" lon="6.81927">
        <ele>406</ele>
        <time>2016-04-10T09:49:31.000Z</time>
      </trkpt>
      <trkpt lat="47.58451" lon="6.81927">
        <ele>406</ele>
        <time>2016-04-10T09:49:32.000Z</time>
      </trkpt>
      <trkpt lat="47.58446" lon="6.81928">
        <ele>406</ele>
        <time>2016-04-10T09:49:33.000Z</time>
      </trkpt>
      <trkpt lat="47.58442" lon="6.81929">
        <ele>406</ele>
        <time>2016-04-10T09:49:34.000Z</time>
      </trkpt>
      <trkpt lat="47.58436" lon="6.81929">
        <ele>406</ele>
        <time>2016-04-10T09:49:35.000Z</time>
      </trkpt>
      <trkpt lat="47.58431" lon="6.81928">
        <ele>406</ele>
        <time>2016-04-10T09:49:36.000Z</time>
      </trkpt>
      <trkpt lat="47.58425" lon="6.81929">
        <ele>406</ele>
        <time>2016-04-10T09:49:37.000Z</time>
      </trkpt>
      <trkpt lat="47.5842" lon="6.81934">
        <ele>406</ele>
        <time>2016-04-10T09:49:38.000Z</time>
      </trkpt>
      <trkpt lat="47.58417" lon="6.81937">
        <ele>406</ele>
        <time>2016-04-10T09:49:39.000Z</time>
      </trkpt>
      <trkpt lat="47.58415" lon="6.81942">
        <ele>406</ele>
        <time>2016-04-10T09:49:40.000Z</time>
      </trkpt>
      <trkpt lat="47.58413" lon="6.81945">
        <ele>406</ele>
        <time>2016-04-10T09:49:41.000Z</time>
      </trkpt>
      <trkpt lat="47.58411" lon="6.81948">
        <ele>406</ele>
        <time>2016-04-10T09:49:42.000Z</time>
      </trkpt>
      <trkpt lat="47.58409" lon="6.81954">
        <ele>406</ele>
        <time>2016-04-10T09:49:47.000Z</time>
      </trkpt>
      <trkpt lat="47.58407" lon="6.81956">
        <ele>406</ele>
        <time>2016-04-10T09:49:48.000Z</time>
      </trkpt>
      <trkpt lat="47.58406" lon="6.81962">
        <ele>406</ele>
        <time>2016-04-10T09:49:51.000Z</time>
      </trkpt>
      <trkpt lat="47.58406" lon="6.81964">
        <ele>406</ele>
        <time>2016-04-10T09:49:52.000Z</time>
      </trkpt>
      <trkpt lat="47.58403" lon="6.81969">
        <ele>407</ele>
        <time>2016-04-10T09:49:55.000Z</time>
      </trkpt>
      <trkpt lat="47.58403" lon="6.81971">
        <ele>407</ele>
        <time>2016-04-10T09:49:56.000Z</time>
      </trkpt>
      <trkpt lat="47.58402" lon="6.81977">
        <ele>407</ele>
        <time>2016-04-10T09:49:59.000Z</time>
      </trkpt>
      <trkpt lat="47.58402" lon="6.81979">
        <ele>407</ele>
        <time>2016-04-10T09:50:00.000Z</time>
      </trkpt>
      <trkpt lat="47.58403" lon="6.81984">
        <ele>407</ele>
        <time>2016-04-10T09:50:02.000Z</time>
      </trkpt>
      <trkpt lat="47.58404" lon="6.81986">
        <ele>407</ele>
        <time>2016-04-10T09:50:03.000Z</time>
      </trkpt>
      <trkpt lat="47.58402" lon="6.81991">
        <ele>407</ele>
        <time>2016-04-10T09:50:06.000Z</time>
      </trkpt>
      <trkpt lat="47.58401" lon="6.81992">
        <ele>407</ele>
        <time>2016-04-10T09:50:07.000Z</time>
      </trkpt>
      <trkpt lat="47.58397" lon="6.81996">
        <ele>407</ele>
        <time>2016-04-10T09:50:09.000Z</time>
      </trkpt>
      <trkpt lat="47.58396" lon="6.81998">
        <ele>407</ele>
        <time>2016-04-10T09:50:10.000Z</time>
      </trkpt>
      <trkpt lat="47.58393" lon="6.82002">
        <ele>409</ele>
        <time>2016-04-10T09:50:12.000Z</time>
      </trkpt>
      <trkpt lat="47.58392" lon="6.82003">
        <ele>409</ele>
        <time>2016-04-10T09:50:13.000Z</time>
      </trkpt>
      <trkpt lat="47.5839" lon="6.82005">
        <ele>409</ele>
        <time>2016-04-10T09:50:14.000Z</time>
      </trkpt>
      <trkpt lat="47.58387" lon="6.82007">
        <ele>410</ele>
        <time>2016-04-10T09:50:15.000Z</time>
      </trkpt>
      <trkpt lat="47.58385" lon="6.82008">
        <ele>410</ele>
        <time>2016-04-10T09:50:16.000Z</time>
      </trkpt>
      <trkpt lat="47.58383" lon="6.8201">
        <ele>410</ele>
        <time>2016-04-10T09:50:17.000Z</time>
      </trkpt>
      <trkpt lat="47.58381" lon="6.82012">
        <ele>410</ele>
        <time>2016-04-10T09:50:18.000Z</time>
      </trkpt>
      <trkpt lat="47.58379" lon="6.82014">
        <ele>410</ele>
        <time>2016-04-10T09:50:19.000Z</time>
      </trkpt>
      <trkpt lat="47.58378" lon="6.8202">
        <ele>410</ele>
        <time>2016-04-10T09:50:21.000Z</time>
      </trkpt>
      <trkpt lat="47.58378" lon="6.82022">
        <ele>410</ele>
        <time>2016-04-10T09:50:22.000Z</time>
      </trkpt>
      <trkpt lat="47.58377" lon="6.82028">
        <ele>410</ele>
        <time>2016-04-10T09:50:24.000Z</time>
      </trkpt>
      <trkpt lat="47.58376" lon="6.8203">
        <ele>410</ele>
        <time>2016-04-10T09:50:25.000Z</time>
      </trkpt>
      <trkpt lat="47.58373" lon="6.82033">
        <ele>410</ele>
        <time>2016-04-10T09:50:27.000Z</time>
      </trkpt>
      <trkpt lat="47.58372" lon="6.82035">
        <ele>410</ele>
        <time>2016-04-10T09:50:28.000Z</time>
      </trkpt>
      <trkpt lat="47.58369" lon="6.8204">
        <ele>410</ele>
        <time>2016-04-10T09:50:30.000Z</time>
      </trkpt>
      <trkpt lat="47.58368" lon="6.82042">
        <ele>411</ele>
        <time>2016-04-10T09:50:31.000Z</time>
      </trkpt>
      <trkpt lat="47.58366" lon="6.82047">
        <ele>411</ele>
        <time>2016-04-10T09:50:33.000Z</time>
      </trkpt>
      <trkpt lat="47.58365" lon="6.82049">
        <ele>411</ele>
        <time>2016-04-10T09:50:34.000Z</time>
      </trkpt>
      <trkpt lat="47.58363" lon="6.82051">
        <ele>411</ele>
        <time>2016-04-10T09:50:35.000Z</time>
      </trkpt>
      <trkpt lat="47.58362" lon="6.82054">
        <ele>411</ele>
        <time>2016-04-10T09:50:36.000Z</time>
      </trkpt>
      <trkpt lat="47.58359" lon="6.82059">
        <ele>411</ele>
        <time>2016-04-10T09:50:38.000Z</time>
      </trkpt>
      <trkpt lat="47.58357" lon="6.82061">
        <ele>411</ele>
        <time>2016-04-10T09:50:39.000Z</time>
      </trkpt>
      <trkpt lat="47.58354" lon="6.82065">
        <ele>411</ele>
        <time>2016-04-10T09:50:41.000Z</time>
      </trkpt>
      <trkpt lat="47.58353" lon="6.82068">
        <ele>411</ele>
        <time>2016-04-10T09:50:42.000Z</time>
      </trkpt>
      <trkpt lat="47.58351" lon="6.82073">
        <ele>412</ele>
        <time>2016-04-10T09:50:44.000Z</time>
      </trkpt>
      <trkpt lat="47.5835" lon="6.82075">
        <ele>412</ele>
        <time>2016-04-10T09:50:45.000Z</time>
      </trkpt>
      <trkpt lat="47.58348" lon="6.8208">
        <ele>412</ele>
        <time>2016-04-10T09:50:47.000Z</time>
      </trkpt>
      <trkpt lat="47.58347" lon="6.82083">
        <ele>412</ele>
        <time>2016-04-10T09:50:48.000Z</time>
      </trkpt>
      <trkpt lat="47.58345" lon="6.82087">
        <ele>414</ele>
        <time>2016-04-10T09:50:50.000Z</time>
      </trkpt>
      <trkpt lat="47.58344" lon="6.8209">
        <ele>414</ele>
        <time>2016-04-10T09:50:51.000Z</time>
      </trkpt>
      <trkpt lat="47.5834" lon="6.82094">
        <ele>414</ele>
        <time>2016-04-10T09:50:53.000Z</time>
      </trkpt>
      <trkpt lat="47.58339" lon="6.82097">
        <ele>414</ele>
        <time>2016-04-10T09:50:54.000Z</time>
      </trkpt>
      <trkpt lat="47.58336" lon="6.82101">
        <ele>414</ele>
        <time>2016-04-10T09:50:56.000Z</time>
      </trkpt>
      <trkpt lat="47.58335" lon="6.82104">
        <ele>414</ele>
        <time>2016-04-10T09:50:57.000Z</time>
      </trkpt>
      <trkpt lat="47.58332" lon="6.82109">
        <ele>414</ele>
        <time>2016-04-10T09:50:59.000Z</time>
      </trkpt>
      <trkpt lat="47.5833" lon="6.82112">
        <ele>415</ele>
        <time>2016-04-10T09:51:00.000Z</time>
      </trkpt>
      <trkpt lat="47.58329" lon="6.82115">
        <ele>415</ele>
        <time>2016-04-10T09:51:01.000Z</time>
      </trkpt>
      <trkpt lat="47.58327" lon="6.82118">
        <ele>415</ele>
        <time>2016-04-10T09:51:02.000Z</time>
      </trkpt>
      <trkpt lat="47.58325" lon="6.82124">
        <ele>415</ele>
        <time>2016-04-10T09:51:04.000Z</time>
      </trkpt>
      <trkpt lat="47.58324" lon="6.82126">
        <ele>415</ele>
        <time>2016-04-10T09:51:05.000Z</time>
      </trkpt>
      <trkpt lat="47.58322" lon="6.82129">
        <ele>415</ele>
        <time>2016-04-10T09:51:06.000Z</time>
      </trkpt>
      <trkpt lat="47.58321" lon="6.82131">
        <ele>415</ele>
        <time>2016-04-10T09:51:07.000Z</time>
      </trkpt>
      <trkpt lat="47.58319" lon="6.82134">
        <ele>415</ele>
        <time>2016-04-10T09:51:08.000Z</time>
      </trkpt>
      <trkpt lat="47.58317" lon="6.82137">
        <ele>415</ele>
        <time>2016-04-10T09:51:09.000Z</time>
      </trkpt>
      <trkpt lat="47.58315" lon="6.8214">
        <ele>415</ele>
        <time>2016-04-10T09:51:10.000Z</time>
      </trkpt>
      <trkpt lat="47.58314" lon="6.82143">
        <ele>415</ele>
        <time>2016-04-10T09:51:11.000Z</time>
      </trkpt>
      <trkpt lat="47.58312" lon="6.82145">
        <ele>416</ele>
        <time>2016-04-10T09:51:12.000Z</time>
      </trkpt>
      <trkpt lat="47.5831" lon="6.82148">
        <ele>416</ele>
        <time>2016-04-10T09:51:13.000Z</time>
      </trkpt>
      <trkpt lat="47.58307" lon="6.82152">
        <ele>416</ele>
        <time>2016-04-10T09:51:15.000Z</time>
      </trkpt>
      <trkpt lat="47.58307" lon="6.82154">
        <ele>416</ele>
        <time>2016-04-10T09:51:16.000Z</time>
      </trkpt>
      <trkpt lat="47.58307" lon="6.82159">
        <ele>416</ele>
        <time>2016-04-10T09:51:18.000Z</time>
      </trkpt>
      <trkpt lat="47.58307" lon="6.82162">
        <ele>416</ele>
        <time>2016-04-10T09:51:19.000Z</time>
      </trkpt>
      <trkpt lat="47.58307" lon="6.82168">
        <ele>418</ele>
        <time>2016-04-10T09:51:21.000Z</time>
      </trkpt>
      <trkpt lat="47.58306" lon="6.82171">
        <ele>418</ele>
        <time>2016-04-10T09:51:22.000Z</time>
      </trkpt>
      <trkpt lat="47.58306" lon="6.82177">
        <ele>418</ele>
        <time>2016-04-10T09:51:24.000Z</time>
      </trkpt>
      <trkpt lat="47.58305" lon="6.8218">
        <ele>418</ele>
        <time>2016-04-10T09:51:25.000Z</time>
      </trkpt>
      <trkpt lat="47.58304" lon="6.82186">
        <ele>418</ele>
        <time>2016-04-10T09:51:27.000Z</time>
      </trkpt>
      <trkpt lat="47.58303" lon="6.82189">
        <ele>418</ele>
        <time>2016-04-10T09:51:28.000Z</time>
      </trkpt>
      <trkpt lat="47.58302" lon="6.82194">
        <ele>418</ele>
        <time>2016-04-10T09:51:30.000Z</time>
      </trkpt>
      <trkpt lat="47.583" lon="6.82197">
        <ele>418</ele>
        <time>2016-04-10T09:51:31.000Z</time>
      </trkpt>
      <trkpt lat="47.58299" lon="6.82202">
        <ele>418</ele>
        <time>2016-04-10T09:51:33.000Z</time>
      </trkpt>
      <trkpt lat="47.58298" lon="6.82205">
        <ele>418</ele>
        <time>2016-04-10T09:51:34.000Z</time>
      </trkpt>
      <trkpt lat="47.58298" lon="6.82211">
        <ele>418</ele>
        <time>2016-04-10T09:51:36.000Z</time>
      </trkpt>
      <trkpt lat="47.58298" lon="6.82214">
        <ele>418</ele>
        <time>2016-04-10T09:51:37.000Z</time>
      </trkpt>
      <trkpt lat="47.58297" lon="6.82217">
        <ele>419</ele>
        <time>2016-04-10T09:51:38.000Z</time>
      </trkpt>
      <trkpt lat="47.58296" lon="6.82221">
        <ele>419</ele>
        <time>2016-04-10T09:51:39.000Z</time>
      </trkpt>
      <trkpt lat="47.58295" lon="6.82224">
        <ele>419</ele>
        <time>2016-04-10T09:51:40.000Z</time>
      </trkpt>
      <trkpt lat="47.58294" lon="6.82227">
        <ele>419</ele>
        <time>2016-04-10T09:51:41.000Z</time>
      </trkpt>
      <trkpt lat="47.58293" lon="6.82231">
        <ele>419</ele>
        <time>2016-04-10T09:51:42.000Z</time>
      </trkpt>
      <trkpt lat="47.58292" lon="6.82234">
        <ele>419</ele>
        <time>2016-04-10T09:51:43.000Z</time>
      </trkpt>
      <trkpt lat="47.58291" lon="6.82238">
        <ele>419</ele>
        <time>2016-04-10T09:51:44.000Z</time>
      </trkpt>
      <trkpt lat="47.58291" lon="6.82243">
        <ele>419</ele>
        <time>2016-04-10T09:51:45.000Z</time>
      </trkpt>
      <trkpt lat="47.5829" lon="6.82247">
        <ele>419</ele>
        <time>2016-04-10T09:51:46.000Z</time>
      </trkpt>
      <trkpt lat="47.58289" lon="6.82252">
        <ele>420</ele>
        <time>2016-04-10T09:51:47.000Z</time>
      </trkpt>
      <trkpt lat="47.58288" lon="6.82257">
        <ele>420</ele>
        <time>2016-04-10T09:51:48.000Z</time>
      </trkpt>
      <trkpt lat="47.58286" lon="6.82262">
        <ele>420</ele>
        <time>2016-04-10T09:51:49.000Z</time>
      </trkpt>
      <trkpt lat="47.58285" lon="6.82267">
        <ele>420</ele>
        <time>2016-04-10T09:51:50.000Z</time>
      </trkpt>
      <trkpt lat="47.58284" lon="6.82272">
        <ele>420</ele>
        <time>2016-04-10T09:51:51.000Z</time>
      </trkpt>
      <trkpt lat="47.58283" lon="6.82278">
        <ele>420</ele>
        <time>2016-04-10T09:51:52.000Z</time>
      </trkpt>
      <trkpt lat="47.58281" lon="6.82284">
        <ele>420</ele>
        <time>2016-04-10T09:51:53.000Z</time>
      </trkpt>
      <trkpt lat="47.58279" lon="6.8229">
        <ele>420</ele>
        <time>2016-04-10T09:51:54.000Z</time>
      </trkpt>
      <trkpt lat="47.58277" lon="6.82296">
        <ele>420</ele>
        <time>2016-04-10T09:51:55.000Z</time>
      </trkpt>
      <trkpt lat="47.58276" lon="6.82302">
        <ele>420</ele>
        <time>2016-04-10T09:51:56.000Z</time>
      </trkpt>
      <trkpt lat="47.58275" lon="6.82307">
        <ele>420</ele>
        <time>2016-04-10T09:51:57.000Z</time>
      </trkpt>
      <trkpt lat="47.58273" lon="6.82312">
        <ele>420</ele>
        <time>2016-04-10T09:51:58.000Z</time>
      </trkpt>
      <trkpt lat="47.58272" lon="6.82317">
        <ele>420</ele>
        <time>2016-04-10T09:51:59.000Z</time>
      </trkpt>
      <trkpt lat="47.5827" lon="6.82321">
        <ele>419</ele>
        <time>2016-04-10T09:52:00.000Z</time>
      </trkpt>
      <trkpt lat="47.58268" lon="6.82326">
        <ele>419</ele>
        <time>2016-04-10T09:52:01.000Z</time>
      </trkpt>
      <trkpt lat="47.58265" lon="6.82331">
        <ele>419</ele>
        <time>2016-04-10T09:52:02.000Z</time>
      </trkpt>
      <trkpt lat="47.58262" lon="6.82336">
        <ele>419</ele>
        <time>2016-04-10T09:52:03.000Z</time>
      </trkpt>
      <trkpt lat="47.5826" lon="6.82342">
        <ele>419</ele>
        <time>2016-04-10T09:52:04.000Z</time>
      </trkpt>
      <trkpt lat="47.58254" lon="6.82354">
        <ele>419</ele>
        <time>2016-04-10T09:52:05.000Z</time>
      </trkpt>
      <trkpt lat="47.5825" lon="6.8236">
        <ele>415</ele>
        <time>2016-04-10T09:52:06.000Z</time>
      </trkpt>
      <trkpt lat="47.58247" lon="6.82365">
        <ele>415</ele>
        <time>2016-04-10T09:52:07.000Z</time>
      </trkpt>
      <trkpt lat="47.58247" lon="6.82371">
        <ele>415</ele>
        <time>2016-04-10T09:52:08.000Z</time>
      </trkpt>
      <trkpt lat="47.58245" lon="6.82378">
        <ele>415</ele>
        <time>2016-04-10T09:52:09.000Z</time>
      </trkpt>
      <trkpt lat="47.58243" lon="6.82384">
        <ele>415</ele>
        <time>2016-04-10T09:52:10.000Z</time>
      </trkpt>
      <trkpt lat="47.58243" lon="6.82389">
        <ele>415</ele>
        <time>2016-04-10T09:52:11.000Z</time>
      </trkpt>
      <trkpt lat="47.58242" lon="6.82394">
        <ele>415</ele>
        <time>2016-04-10T09:52:12.000Z</time>
      </trkpt>
      <trkpt lat="47.58235" lon="6.824">
        <ele>415</ele>
        <time>2016-04-10T09:52:13.000Z</time>
      </trkpt>
      <trkpt lat="47.58232" lon="6.82406">
        <ele>415</ele>
        <time>2016-04-10T09:52:14.000Z</time>
      </trkpt>
      <trkpt lat="47.5823" lon="6.82412">
        <ele>415</ele>
        <time>2016-04-10T09:52:15.000Z</time>
      </trkpt>
      <trkpt lat="47.58229" lon="6.82416">
        <ele>414</ele>
        <time>2016-04-10T09:52:16.000Z</time>
      </trkpt>
      <trkpt lat="47.58227" lon="6.82422">
        <ele>415</ele>
        <time>2016-04-10T09:52:17.000Z</time>
      </trkpt>
      <trkpt lat="47.58227" lon="6.82426">
        <ele>415</ele>
        <time>2016-04-10T09:52:18.000Z</time>
      </trkpt>
      <trkpt lat="47.58225" lon="6.82431">
        <ele>414</ele>
        <time>2016-04-10T09:52:19.000Z</time>
      </trkpt>
      <trkpt lat="47.58224" lon="6.82435">
        <ele>414</ele>
        <time>2016-04-10T09:52:20.000Z</time>
      </trkpt>
      <trkpt lat="47.58224" lon="6.82441">
        <ele>414</ele>
        <time>2016-04-10T09:52:21.000Z</time>
      </trkpt>
      <trkpt lat="47.58223" lon="6.82447">
        <ele>414</ele>
        <time>2016-04-10T09:52:22.000Z</time>
      </trkpt>
      <trkpt lat="47.58222" lon="6.82453">
        <ele>414</ele>
        <time>2016-04-10T09:52:23.000Z</time>
      </trkpt>
      <trkpt lat="47.58221" lon="6.82458">
        <ele>414</ele>
        <time>2016-04-10T09:52:24.000Z</time>
      </trkpt>
      <trkpt lat="47.5822" lon="6.82463">
        <ele>414</ele>
        <time>2016-04-10T09:52:25.000Z</time>
      </trkpt>
      <trkpt lat="47.5822" lon="6.82468">
        <ele>414</ele>
        <time>2016-04-10T09:52:26.000Z</time>
      </trkpt>
      <trkpt lat="47.58219" lon="6.82473">
        <ele>414</ele>
        <time>2016-04-10T09:52:27.000Z</time>
      </trkpt>
      <trkpt lat="47.58217" lon="6.82478">
        <ele>415</ele>
        <time>2016-04-10T09:52:28.000Z</time>
      </trkpt>
      <trkpt lat="47.58216" lon="6.82484">
        <ele>415</ele>
        <time>2016-04-10T09:52:29.000Z</time>
      </trkpt>
      <trkpt lat="47.58215" lon="6.8249">
        <ele>415</ele>
        <time>2016-04-10T09:52:30.000Z</time>
      </trkpt>
      <trkpt lat="47.58213" lon="6.82496">
        <ele>415</ele>
        <time>2016-04-10T09:52:31.000Z</time>
      </trkpt>
      <trkpt lat="47.58212" lon="6.82501">
        <ele>416</ele>
        <time>2016-04-10T09:52:32.000Z</time>
      </trkpt>
      <trkpt lat="47.5821" lon="6.82506">
        <ele>416</ele>
        <time>2016-04-10T09:52:33.000Z</time>
      </trkpt>
      <trkpt lat="47.58209" lon="6.82509">
        <ele>416</ele>
        <time>2016-04-10T09:52:34.000Z</time>
      </trkpt>
      <trkpt lat="47.58207" lon="6.82512">
        <ele>416</ele>
        <time>2016-04-10T09:52:35.000Z</time>
      </trkpt>
      <trkpt lat="47.58206" lon="6.82515">
        <ele>416</ele>
        <time>2016-04-10T09:52:36.000Z</time>
      </trkpt>
      <trkpt lat="47.58205" lon="6.82518">
        <ele>416</ele>
        <time>2016-04-10T09:52:37.000Z</time>
      </trkpt>
      <trkpt lat="47.58203" lon="6.8252">
        <ele>416</ele>
        <time>2016-04-10T09:52:38.000Z</time>
      </trkpt>
      <trkpt lat="47.58201" lon="6.82525">
        <ele>416</ele>
        <time>2016-04-10T09:52:40.000Z</time>
      </trkpt>
      <trkpt lat="47.582" lon="6.82527">
        <ele>416</ele>
        <time>2016-04-10T09:52:41.000Z</time>
      </trkpt>
      <trkpt lat="47.58198" lon="6.82531">
        <ele>416</ele>
        <time>2016-04-10T09:52:43.000Z</time>
      </trkpt>
      <trkpt lat="47.58197" lon="6.82534">
        <ele>416</ele>
        <time>2016-04-10T09:52:44.000Z</time>
      </trkpt>
      <trkpt lat="47.58196" lon="6.82537">
        <ele>416</ele>
        <time>2016-04-10T09:52:45.000Z</time>
      </trkpt>
      <trkpt lat="47.58194" lon="6.82541">
        <ele>416</ele>
        <time>2016-04-10T09:52:46.000Z</time>
      </trkpt>
      <trkpt lat="47.58193" lon="6.82544">
        <ele>416</ele>
        <time>2016-04-10T09:52:47.000Z</time>
      </trkpt>
      <trkpt lat="47.58192" lon="6.82548">
        <ele>416</ele>
        <time>2016-04-10T09:52:48.000Z</time>
      </trkpt>
      <trkpt lat="47.58192" lon="6.82551">
        <ele>416</ele>
        <time>2016-04-10T09:52:49.000Z</time>
      </trkpt>
      <trkpt lat="47.58191" lon="6.82554">
        <ele>416</ele>
        <time>2016-04-10T09:52:50.000Z</time>
      </trkpt>
      <trkpt lat="47.5819" lon="6.82557">
        <ele>416</ele>
        <time>2016-04-10T09:52:51.000Z</time>
      </trkpt>
      <trkpt lat="47.58189" lon="6.82561">
        <ele>416</ele>
        <time>2016-04-10T09:52:52.000Z</time>
      </trkpt>
      <trkpt lat="47.58188" lon="6.82564">
        <ele>416</ele>
        <time>2016-04-10T09:52:53.000Z</time>
      </trkpt>
      <trkpt lat="47.58188" lon="6.82567">
        <ele>416</ele>
        <time>2016-04-10T09:52:54.000Z</time>
      </trkpt>
      <trkpt lat="47.58187" lon="6.82573">
        <ele>417</ele>
        <time>2016-04-10T09:52:56.000Z</time>
      </trkpt>
      <trkpt lat="47.58186" lon="6.82575">
        <ele>417</ele>
        <time>2016-04-10T09:52:57.000Z</time>
      </trkpt>
      <trkpt lat="47.58183" lon="6.82579">
        <ele>417</ele>
        <time>2016-04-10T09:52:59.000Z</time>
      </trkpt>
      <trkpt lat="47.58181" lon="6.8258">
        <ele>417</ele>
        <time>2016-04-10T09:53:00.000Z</time>
      </trkpt>
      <trkpt lat="47.58178" lon="6.82582">
        <ele>417</ele>
        <time>2016-04-10T09:53:01.000Z</time>
      </trkpt>
      <trkpt lat="47.58175" lon="6.82583">
        <ele>417</ele>
        <time>2016-04-10T09:53:02.000Z</time>
      </trkpt>
      <trkpt lat="47.58172" lon="6.82584">
        <ele>417</ele>
        <time>2016-04-10T09:53:03.000Z</time>
      </trkpt>
      <trkpt lat="47.58169" lon="6.82585">
        <ele>417</ele>
        <time>2016-04-10T09:53:04.000Z</time>
      </trkpt>
      <trkpt lat="47.58166" lon="6.82586">
        <ele>417</ele>
        <time>2016-04-10T09:53:06.000Z</time>
      </trkpt>
      <trkpt lat="47.58164" lon="6.82587">
        <ele>417</ele>
        <time>2016-04-10T09:53:07.000Z</time>
      </trkpt>
      <trkpt lat="47.5816" lon="6.82589">
        <ele>417</ele>
        <time>2016-04-10T09:53:57.000Z</time>
      </trkpt>
      <trkpt lat="47.5816" lon="6.8259">
        <ele>417</ele>
        <time>2016-04-10T09:53:58.000Z</time>
      </trkpt>
      <trkpt lat="47.58156" lon="6.8259">
        <ele>417</ele>
        <time>2016-04-10T09:54:01.000Z</time>
      </trkpt>
      <trkpt lat="47.58153" lon="6.82588">
        <ele>417</ele>
        <time>2016-04-10T09:54:02.000Z</time>
      </trkpt>
      <trkpt lat="47.58149" lon="6.82585">
        <ele>417</ele>
        <time>2016-04-10T09:54:03.000Z</time>
      </trkpt>
      <trkpt lat="47.58145" lon="6.82583">
        <ele>417</ele>
        <time>2016-04-10T09:54:04.000Z</time>
      </trkpt>
      <trkpt lat="47.58142" lon="6.82582">
        <ele>415</ele>
        <time>2016-04-10T09:54:05.000Z</time>
      </trkpt>
      <trkpt lat="47.58139" lon="6.82582">
        <ele>415</ele>
        <time>2016-04-10T09:54:06.000Z</time>
      </trkpt>
      <trkpt lat="47.58136" lon="6.82582">
        <ele>415</ele>
        <time>2016-04-10T09:54:07.000Z</time>
      </trkpt>
      <trkpt lat="47.58133" lon="6.82582">
        <ele>414</ele>
        <time>2016-04-10T09:54:08.000Z</time>
      </trkpt>
      <trkpt lat="47.5813" lon="6.82583">
        <ele>414</ele>
        <time>2016-04-10T09:54:09.000Z</time>
      </trkpt>
      <trkpt lat="47.58127" lon="6.82583">
        <ele>417</ele>
        <time>2016-04-10T09:54:10.000Z</time>
      </trkpt>
      <trkpt lat="47.58123" lon="6.82585">
        <ele>417</ele>
        <time>2016-04-10T09:54:12.000Z</time>
      </trkpt>
      <trkpt lat="47.58121" lon="6.82585">
        <ele>417</ele>
        <time>2016-04-10T09:54:13.000Z</time>
      </trkpt>
      <trkpt lat="47.58118" lon="6.82586">
        <ele>417</ele>
        <time>2016-04-10T09:54:14.000Z</time>
      </trkpt>
      <trkpt lat="47.58116" lon="6.82587">
        <ele>416</ele>
        <time>2016-04-10T09:54:15.000Z</time>
      </trkpt>
      <trkpt lat="47.58113" lon="6.82589">
        <ele>416</ele>
        <time>2016-04-10T09:54:16.000Z</time>
      </trkpt>
      <trkpt lat="47.5811" lon="6.8259">
        <ele>416</ele>
        <time>2016-04-10T09:54:17.000Z</time>
      </trkpt>
      <trkpt lat="47.58098" lon="6.82591">
        <ele>416</ele>
        <time>2016-04-10T09:54:18.000Z</time>
      </trkpt>
      <trkpt lat="47.58092" lon="6.82593">
        <ele>415</ele>
        <time>2016-04-10T09:54:19.000Z</time>
      </trkpt>
      <trkpt lat="47.58088" lon="6.82593">
        <ele>415</ele>
        <time>2016-04-10T09:54:20.000Z</time>
      </trkpt>
      <trkpt lat="47.58083" lon="6.82593">
        <ele>414</ele>
        <time>2016-04-10T09:54:21.000Z</time>
      </trkpt>
      <trkpt lat="47.58079" lon="6.82594">
        <ele>414</ele>
        <time>2016-04-10T09:54:22.000Z</time>
      </trkpt>
      <trkpt lat="47.58074" lon="6.82594">
        <ele>414</ele>
        <time>2016-04-10T09:54:23.000Z</time>
      </trkpt>
      <trkpt lat="47.58069" lon="6.82595">
        <ele>414</ele>
        <time>2016-04-10T09:54:24.000Z</time>
      </trkpt>
      <trkpt lat="47.58063" lon="6.82594">
        <ele>413</ele>
        <time>2016-04-10T09:54:25.000Z</time>
      </trkpt>
      <trkpt lat="47.58057" lon="6.82592">
        <ele>413</ele>
        <time>2016-04-10T09:54:26.000Z</time>
      </trkpt>
      <trkpt lat="47.5805" lon="6.82591">
        <ele>413</ele>
        <time>2016-04-10T09:54:27.000Z</time>
      </trkpt>
      <trkpt lat="47.58045" lon="6.8259">
        <ele>413</ele>
        <time>2016-04-10T09:54:28.000Z</time>
      </trkpt>
      <trkpt lat="47.58038" lon="6.82589">
        <ele>413</ele>
        <time>2016-04-10T09:54:29.000Z</time>
      </trkpt>
      <trkpt lat="47.58032" lon="6.82588">
        <ele>412</ele>
        <time>2016-04-10T09:54:30.000Z</time>
      </trkpt>
      <trkpt lat="47.58028" lon="6.82585">
        <ele>412</ele>
        <time>2016-04-10T09:54:31.000Z</time>
      </trkpt>
      <trkpt lat="47.58021" lon="6.82579">
        <ele>410</ele>
        <time>2016-04-10T09:54:32.000Z</time>
      </trkpt>
      <trkpt lat="47.58016" lon="6.82574">
        <ele>410</ele>
        <time>2016-04-10T09:54:33.000Z</time>
      </trkpt>
      <trkpt lat="47.58012" lon="6.82568">
        <ele>410</ele>
        <time>2016-04-10T09:54:34.000Z</time>
      </trkpt>
      <trkpt lat="47.58007" lon="6.82561">
        <ele>410</ele>
        <time>2016-04-10T09:54:35.000Z</time>
      </trkpt>
      <trkpt lat="47.58001" lon="6.82556">
        <ele>410</ele>
        <time>2016-04-10T09:54:36.000Z</time>
      </trkpt>
      <trkpt lat="47.57995" lon="6.82548">
        <ele>408</ele>
        <time>2016-04-10T09:54:37.000Z</time>
      </trkpt>
      <trkpt lat="47.57988" lon="6.82542">
        <ele>408</ele>
        <time>2016-04-10T09:54:38.000Z</time>
      </trkpt>
      <trkpt lat="47.57982" lon="6.82535">
        <ele>408</ele>
        <time>2016-04-10T09:54:39.000Z</time>
      </trkpt>
      <trkpt lat="47.57976" lon="6.82527">
        <ele>408</ele>
        <time>2016-04-10T09:54:40.000Z</time>
      </trkpt>
      <trkpt lat="47.57971" lon="6.82522">
        <ele>408</ele>
        <time>2016-04-10T09:54:41.000Z</time>
      </trkpt>
      <trkpt lat="47.57966" lon="6.82516">
        <ele>408</ele>
        <time>2016-04-10T09:54:42.000Z</time>
      </trkpt>
      <trkpt lat="47.57962" lon="6.82509">
        <ele>408</ele>
        <time>2016-04-10T09:54:43.000Z</time>
      </trkpt>
      <trkpt lat="47.57956" lon="6.82503">
        <ele>408</ele>
        <time>2016-04-10T09:54:44.000Z</time>
      </trkpt>
      <trkpt lat="47.5795" lon="6.82496">
        <ele>406</ele>
        <time>2016-04-10T09:54:45.000Z</time>
      </trkpt>
      <trkpt lat="47.57946" lon="6.82488">
        <ele>406</ele>
        <time>2016-04-10T09:54:46.000Z</time>
      </trkpt>
      <trkpt lat="47.5794" lon="6.82476">
        <ele>405</ele>
        <time>2016-04-10T09:54:47.000Z</time>
      </trkpt>
      <trkpt lat="47.57937" lon="6.82468">
        <ele>405</ele>
        <time>2016-04-10T09:54:48.000Z</time>
      </trkpt>
      <trkpt lat="47.57933" lon="6.82458">
        <ele>405</ele>
        <time>2016-04-10T09:54:49.000Z</time>
      </trkpt>
      <trkpt lat="47.57928" lon="6.82456">
        <ele>405</ele>
        <time>2016-04-10T09:54:50.000Z</time>
      </trkpt>
      <trkpt lat="47.57925" lon="6.82452">
        <ele>405</ele>
        <time>2016-04-10T09:54:51.000Z</time>
      </trkpt>
      <trkpt lat="47.57922" lon="6.82446">
        <ele>404</ele>
        <time>2016-04-10T09:54:52.000Z</time>
      </trkpt>
      <trkpt lat="47.57918" lon="6.82441">
        <ele>404</ele>
        <time>2016-04-10T09:54:53.000Z</time>
      </trkpt>
      <trkpt lat="47.57913" lon="6.82435">
        <ele>403</ele>
        <time>2016-04-10T09:54:54.000Z</time>
      </trkpt>
      <trkpt lat="47.57907" lon="6.82431">
        <ele>402</ele>
        <time>2016-04-10T09:54:55.000Z</time>
      </trkpt>
      <trkpt lat="47.57898" lon="6.82425">
        <ele>402</ele>
        <time>2016-04-10T09:54:56.000Z</time>
      </trkpt>
      <trkpt lat="47.57892" lon="6.8242">
        <ele>402</ele>
        <time>2016-04-10T09:54:57.000Z</time>
      </trkpt>
      <trkpt lat="47.57885" lon="6.82417">
        <ele>402</ele>
        <time>2016-04-10T09:54:58.000Z</time>
      </trkpt>
      <trkpt lat="47.57877" lon="6.82412">
        <ele>399</ele>
        <time>2016-04-10T09:54:59.000Z</time>
      </trkpt>
      <trkpt lat="47.5787" lon="6.82409">
        <ele>399</ele>
        <time>2016-04-10T09:55:00.000Z</time>
      </trkpt>
      <trkpt lat="47.57862" lon="6.82406">
        <ele>399</ele>
        <time>2016-04-10T09:55:01.000Z</time>
      </trkpt>
      <trkpt lat="47.57854" lon="6.824">
        <ele>399</ele>
        <time>2016-04-10T09:55:02.000Z</time>
      </trkpt>
      <trkpt lat="47.57844" lon="6.82396">
        <ele>398</ele>
        <time>2016-04-10T09:55:03.000Z</time>
      </trkpt>
      <trkpt lat="47.57835" lon="6.8239">
        <ele>398</ele>
        <time>2016-04-10T09:55:04.000Z</time>
      </trkpt>
      <trkpt lat="47.5783" lon="6.82387">
        <ele>397</ele>
        <time>2016-04-10T09:55:05.000Z</time>
      </trkpt>
      <trkpt lat="47.57823" lon="6.82383">
        <ele>396</ele>
        <time>2016-04-10T09:55:06.000Z</time>
      </trkpt>
      <trkpt lat="47.57817" lon="6.82377">
        <ele>396</ele>
        <time>2016-04-10T09:55:07.000Z</time>
      </trkpt>
      <trkpt lat="47.57811" lon="6.82376">
        <ele>396</ele>
        <time>2016-04-10T09:55:08.000Z</time>
      </trkpt>
      <trkpt lat="47.57805" lon="6.82373">
        <ele>396</ele>
        <time>2016-04-10T09:55:09.000Z</time>
      </trkpt>
      <trkpt lat="47.578" lon="6.82371">
        <ele>396</ele>
        <time>2016-04-10T09:55:10.000Z</time>
      </trkpt>
      <trkpt lat="47.57795" lon="6.82367">
        <ele>395</ele>
        <time>2016-04-10T09:55:11.000Z</time>
      </trkpt>
      <trkpt lat="47.57789" lon="6.82364">
        <ele>395</ele>
        <time>2016-04-10T09:55:12.000Z</time>
      </trkpt>
      <trkpt lat="47.57784" lon="6.82364">
        <ele>395</ele>
        <time>2016-04-10T09:55:13.000Z</time>
      </trkpt>
      <trkpt lat="47.5778" lon="6.82364">
        <ele>395</ele>
        <time>2016-04-10T09:55:14.000Z</time>
      </trkpt>
      <trkpt lat="47.57778" lon="6.82363">
        <ele>395</ele>
        <time>2016-04-10T09:55:15.000Z</time>
      </trkpt>
      <trkpt lat="47.57778" lon="6.82365">
        <ele>395</ele>
        <time>2016-04-10T09:55:16.000Z</time>
      </trkpt>
      <trkpt lat="47.57774" lon="6.82368">
        <ele>395</ele>
        <time>2016-04-10T09:55:17.000Z</time>
      </trkpt>
      <trkpt lat="47.57771" lon="6.8237">
        <ele>395</ele>
        <time>2016-04-10T09:55:18.000Z</time>
      </trkpt>
      <trkpt lat="47.57766" lon="6.8237">
        <ele>395</ele>
        <time>2016-04-10T09:55:19.000Z</time>
      </trkpt>
      <trkpt lat="47.57763" lon="6.82369">
        <ele>395</ele>
        <time>2016-04-10T09:55:20.000Z</time>
      </trkpt>
      <trkpt lat="47.57759" lon="6.8237">
        <ele>395</ele>
        <time>2016-04-10T09:55:21.000Z</time>
      </trkpt>
      <trkpt lat="47.57755" lon="6.82368">
        <ele>395</ele>
        <time>2016-04-10T09:55:22.000Z</time>
      </trkpt>
      <trkpt lat="47.57751" lon="6.82367">
        <ele>395</ele>
        <time>2016-04-10T09:55:23.000Z</time>
      </trkpt>
      <trkpt lat="47.57747" lon="6.82366">
        <ele>393</ele>
        <time>2016-04-10T09:55:24.000Z</time>
      </trkpt>
      <trkpt lat="47.57742" lon="6.82365">
        <ele>393</ele>
        <time>2016-04-10T09:55:25.000Z</time>
      </trkpt>
      <trkpt lat="47.57738" lon="6.82365">
        <ele>393</ele>
        <time>2016-04-10T09:55:26.000Z</time>
      </trkpt>
      <trkpt lat="47.57733" lon="6.82365">
        <ele>393</ele>
        <time>2016-04-10T09:55:27.000Z</time>
      </trkpt>
      <trkpt lat="47.57728" lon="6.82365">
        <ele>393</ele>
        <time>2016-04-10T09:55:28.000Z</time>
      </trkpt>
      <trkpt lat="47.57718" lon="6.82368">
        <ele>393</ele>
        <time>2016-04-10T09:55:29.000Z</time>
      </trkpt>
      <trkpt lat="47.57712" lon="6.82369">
        <ele>393</ele>
        <time>2016-04-10T09:55:30.000Z</time>
      </trkpt>
      <trkpt lat="47.57707" lon="6.82371">
        <ele>393</ele>
        <time>2016-04-10T09:55:31.000Z</time>
      </trkpt>
      <trkpt lat="47.57703" lon="6.82372">
        <ele>393</ele>
        <time>2016-04-10T09:55:32.000Z</time>
      </trkpt>
      <trkpt lat="47.57698" lon="6.82374">
        <ele>393</ele>
        <time>2016-04-10T09:55:33.000Z</time>
      </trkpt>
      <trkpt lat="47.57693" lon="6.82377">
        <ele>393</ele>
        <time>2016-04-10T09:55:34.000Z</time>
      </trkpt>
      <trkpt lat="47.57688" lon="6.82379">
        <ele>393</ele>
        <time>2016-04-10T09:55:35.000Z</time>
      </trkpt>
      <trkpt lat="47.57684" lon="6.82382">
        <ele>393</ele>
        <time>2016-04-10T09:55:36.000Z</time>
      </trkpt>
      <trkpt lat="47.57676" lon="6.82384">
        <ele>393</ele>
        <time>2016-04-10T09:55:37.000Z</time>
      </trkpt>
      <trkpt lat="47.57673" lon="6.82386">
        <ele>393</ele>
        <time>2016-04-10T09:55:38.000Z</time>
      </trkpt>
      <trkpt lat="47.57667" lon="6.82388">
        <ele>393</ele>
        <time>2016-04-10T09:55:39.000Z</time>
      </trkpt>
      <trkpt lat="47.5766" lon="6.8239">
        <ele>391</ele>
        <time>2016-04-10T09:55:40.000Z</time>
      </trkpt>
      <trkpt lat="47.57656" lon="6.82389">
        <ele>391</ele>
        <time>2016-04-10T09:55:41.000Z</time>
      </trkpt>
      <trkpt lat="47.57652" lon="6.82389">
        <ele>391</ele>
        <time>2016-04-10T09:55:42.000Z</time>
      </trkpt>
      <trkpt lat="47.57648" lon="6.8239">
        <ele>391</ele>
        <time>2016-04-10T09:55:43.000Z</time>
      </trkpt>
      <trkpt lat="47.57645" lon="6.8239">
        <ele>391</ele>
        <time>2016-04-10T09:55:44.000Z</time>
      </trkpt>
      <trkpt lat="47.57641" lon="6.82391">
        <ele>391</ele>
        <time>2016-04-10T09:55:45.000Z</time>
      </trkpt>
      <trkpt lat="47.57638" lon="6.82391">
        <ele>391</ele>
        <time>2016-04-10T09:55:46.000Z</time>
      </trkpt>
      <trkpt lat="47.57634" lon="6.82392">
        <ele>391</ele>
        <time>2016-04-10T09:55:47.000Z</time>
      </trkpt>
      <trkpt lat="47.57631" lon="6.82393">
        <ele>391</ele>
        <time>2016-04-10T09:55:48.000Z</time>
      </trkpt>
      <trkpt lat="47.57628" lon="6.82395">
        <ele>391</ele>
        <time>2016-04-10T09:55:49.000Z</time>
      </trkpt>
      <trkpt lat="47.57625" lon="6.82396">
        <ele>391</ele>
        <time>2016-04-10T09:55:50.000Z</time>
      </trkpt>
      <trkpt lat="47.57622" lon="6.82398">
        <ele>391</ele>
        <time>2016-04-10T09:55:51.000Z</time>
      </trkpt>
      <trkpt lat="47.57619" lon="6.824">
        <ele>391</ele>
        <time>2016-04-10T09:55:52.000Z</time>
      </trkpt>
      <trkpt lat="47.57616" lon="6.82402">
        <ele>391</ele>
        <time>2016-04-10T09:55:53.000Z</time>
      </trkpt>
      <trkpt lat="47.57613" lon="6.82403">
        <ele>391</ele>
        <time>2016-04-10T09:55:54.000Z</time>
      </trkpt>
      <trkpt lat="47.57611" lon="6.82405">
        <ele>391</ele>
        <time>2016-04-10T09:55:55.000Z</time>
      </trkpt>
      <trkpt lat="47.57608" lon="6.82407">
        <ele>391</ele>
        <time>2016-04-10T09:55:56.000Z</time>
      </trkpt>
      <trkpt lat="47.57605" lon="6.82409">
        <ele>391</ele>
        <time>2016-04-10T09:55:57.000Z</time>
      </trkpt>
      <trkpt lat="47.57603" lon="6.82412">
        <ele>391</ele>
        <time>2016-04-10T09:55:58.000Z</time>
      </trkpt>
      <trkpt lat="47.576" lon="6.82415">
        <ele>391</ele>
        <time>2016-04-10T09:55:59.000Z</time>
      </trkpt>
      <trkpt lat="47.57596" lon="6.82417">
        <ele>392</ele>
        <time>2016-04-10T09:56:00.000Z</time>
      </trkpt>
      <trkpt lat="47.57593" lon="6.82418">
        <ele>392</ele>
        <time>2016-04-10T09:56:01.000Z</time>
      </trkpt>
      <trkpt lat="47.57589" lon="6.8242">
        <ele>392</ele>
        <time>2016-04-10T09:56:02.000Z</time>
      </trkpt>
      <trkpt lat="47.57585" lon="6.82421">
        <ele>392</ele>
        <time>2016-04-10T09:56:03.000Z</time>
      </trkpt>
      <trkpt lat="47.57581" lon="6.82423">
        <ele>391</ele>
        <time>2016-04-10T09:56:04.000Z</time>
      </trkpt>
      <trkpt lat="47.57578" lon="6.82424">
        <ele>391</ele>
        <time>2016-04-10T09:56:05.000Z</time>
      </trkpt>
      <trkpt lat="47.57574" lon="6.82426">
        <ele>391</ele>
        <time>2016-04-10T09:56:06.000Z</time>
      </trkpt>
      <trkpt lat="47.57571" lon="6.82428">
        <ele>390</ele>
        <time>2016-04-10T09:56:07.000Z</time>
      </trkpt>
      <trkpt lat="47.57567" lon="6.8243">
        <ele>390</ele>
        <time>2016-04-10T09:56:08.000Z</time>
      </trkpt>
      <trkpt lat="47.57562" lon="6.82432">
        <ele>390</ele>
        <time>2016-04-10T09:56:09.000Z</time>
      </trkpt>
      <trkpt lat="47.57557" lon="6.82434">
        <ele>390</ele>
        <time>2016-04-10T09:56:10.000Z</time>
      </trkpt>
      <trkpt lat="47.57552" lon="6.82437">
        <ele>390</ele>
        <time>2016-04-10T09:56:11.000Z</time>
      </trkpt>
      <trkpt lat="47.57548" lon="6.8244">
        <ele>390</ele>
        <time>2016-04-10T09:56:12.000Z</time>
      </trkpt>
      <trkpt lat="47.57543" lon="6.82443">
        <ele>390</ele>
        <time>2016-04-10T09:56:13.000Z</time>
      </trkpt>
      <trkpt lat="47.57539" lon="6.82446">
        <ele>390</ele>
        <time>2016-04-10T09:56:14.000Z</time>
      </trkpt>
      <trkpt lat="47.57535" lon="6.82449">
        <ele>389</ele>
        <time>2016-04-10T09:56:15.000Z</time>
      </trkpt>
      <trkpt lat="47.57531" lon="6.82452">
        <ele>389</ele>
        <time>2016-04-10T09:56:16.000Z</time>
      </trkpt>
      <trkpt lat="47.57528" lon="6.82455">
        <ele>389</ele>
        <time>2016-04-10T09:56:17.000Z</time>
      </trkpt>
      <trkpt lat="47.57524" lon="6.82457">
        <ele>389</ele>
        <time>2016-04-10T09:56:18.000Z</time>
      </trkpt>
      <trkpt lat="47.5752" lon="6.82459">
        <ele>389</ele>
        <time>2016-04-10T09:56:19.000Z</time>
      </trkpt>
      <trkpt lat="47.57517" lon="6.82461">
        <ele>389</ele>
        <time>2016-04-10T09:56:20.000Z</time>
      </trkpt>
      <trkpt lat="47.57513" lon="6.82463">
        <ele>389</ele>
        <time>2016-04-10T09:56:21.000Z</time>
      </trkpt>
      <trkpt lat="47.5751" lon="6.82465">
        <ele>389</ele>
        <time>2016-04-10T09:56:22.000Z</time>
      </trkpt>
      <trkpt lat="47.57505" lon="6.82466">
        <ele>389</ele>
        <time>2016-04-10T09:56:23.000Z</time>
      </trkpt>
      <trkpt lat="47.57501" lon="6.82467">
        <ele>389</ele>
        <time>2016-04-10T09:56:24.000Z</time>
      </trkpt>
      <trkpt lat="47.57488" lon="6.82467">
        <ele>387</ele>
        <time>2016-04-10T09:56:25.000Z</time>
      </trkpt>
      <trkpt lat="47.57482" lon="6.82467">
        <ele>387</ele>
        <time>2016-04-10T09:56:26.000Z</time>
      </trkpt>
      <trkpt lat="47.57476" lon="6.82468">
        <ele>387</ele>
        <time>2016-04-10T09:56:27.000Z</time>
      </trkpt>
      <trkpt lat="47.57471" lon="6.82468">
        <ele>386</ele>
        <time>2016-04-10T09:56:28.000Z</time>
      </trkpt>
      <trkpt lat="47.57469" lon="6.82471">
        <ele>387</ele>
        <time>2016-04-10T09:56:29.000Z</time>
      </trkpt>
      <trkpt lat="47.57465" lon="6.82472">
        <ele>387</ele>
        <time>2016-04-10T09:56:30.000Z</time>
      </trkpt>
      <trkpt lat="47.57461" lon="6.82471">
        <ele>386</ele>
        <time>2016-04-10T09:56:31.000Z</time>
      </trkpt>
      <trkpt lat="47.57457" lon="6.82466">
        <ele>386</ele>
        <time>2016-04-10T09:56:32.000Z</time>
      </trkpt>
      <trkpt lat="47.57453" lon="6.82462">
        <ele>386</ele>
        <time>2016-04-10T09:56:33.000Z</time>
      </trkpt>
      <trkpt lat="47.57448" lon="6.82456">
        <ele>386</ele>
        <time>2016-04-10T09:56:34.000Z</time>
      </trkpt>
      <trkpt lat="47.57445" lon="6.82451">
        <ele>386</ele>
        <time>2016-04-10T09:56:35.000Z</time>
      </trkpt>
      <trkpt lat="47.57442" lon="6.82443">
        <ele>385</ele>
        <time>2016-04-10T09:56:36.000Z</time>
      </trkpt>
      <trkpt lat="47.57439" lon="6.82433">
        <ele>385</ele>
        <time>2016-04-10T09:56:37.000Z</time>
      </trkpt>
      <trkpt lat="47.57444" lon="6.82428">
        <ele>385</ele>
        <time>2016-04-10T09:56:38.000Z</time>
      </trkpt>
      <trkpt lat="47.57447" lon="6.82423">
        <ele>385</ele>
        <time>2016-04-10T09:56:39.000Z</time>
      </trkpt>
      <trkpt lat="47.57451" lon="6.82419">
        <ele>385</ele>
        <time>2016-04-10T09:56:40.000Z</time>
      </trkpt>
      <trkpt lat="47.57454" lon="6.82415">
        <ele>383</ele>
        <time>2016-04-10T09:56:41.000Z</time>
      </trkpt>
      <trkpt lat="47.57456" lon="6.8241">
        <ele>383</ele>
        <time>2016-04-10T09:56:42.000Z</time>
      </trkpt>
      <trkpt lat="47.57456" lon="6.82405">
        <ele>383</ele>
        <time>2016-04-10T09:56:43.000Z</time>
      </trkpt>
      <trkpt lat="47.57456" lon="6.824">
        <ele>383</ele>
        <time>2016-04-10T09:56:44.000Z</time>
      </trkpt>
      <trkpt lat="47.57454" lon="6.82395">
        <ele>383</ele>
        <time>2016-04-10T09:56:45.000Z</time>
      </trkpt>
      <trkpt lat="47.57451" lon="6.8239">
        <ele>383</ele>
        <time>2016-04-10T09:56:46.000Z</time>
      </trkpt>
      <trkpt lat="47.57448" lon="6.82385">
        <ele>383</ele>
        <time>2016-04-10T09:56:47.000Z</time>
      </trkpt>
      <trkpt lat="47.57445" lon="6.82382">
        <ele>383</ele>
        <time>2016-04-10T09:56:48.000Z</time>
      </trkpt>
      <trkpt lat="47.57442" lon="6.82381">
        <ele>382</ele>
        <time>2016-04-10T09:56:49.000Z</time>
      </trkpt>
      <trkpt lat="47.5744" lon="6.8238">
        <ele>382</ele>
        <time>2016-04-10T09:56:50.000Z</time>
      </trkpt>
      <trkpt lat="47.57437" lon="6.82381">
        <ele>382</ele>
        <time>2016-04-10T09:56:51.000Z</time>
      </trkpt>
      <trkpt lat="47.57434" lon="6.82382">
        <ele>382</ele>
        <time>2016-04-10T09:56:52.000Z</time>
      </trkpt>
      <trkpt lat="47.57431" lon="6.82383">
        <ele>382</ele>
        <time>2016-04-10T09:56:53.000Z</time>
      </trkpt>
      <trkpt lat="47.57428" lon="6.82383">
        <ele>382</ele>
        <time>2016-04-10T09:56:54.000Z</time>
      </trkpt>
      <trkpt lat="47.57424" lon="6.82383">
        <ele>382</ele>
        <time>2016-04-10T09:56:55.000Z</time>
      </trkpt>
      <trkpt lat="47.57419" lon="6.82382">
        <ele>382</ele>
        <time>2016-04-10T09:56:56.000Z</time>
      </trkpt>
      <trkpt lat="47.57414" lon="6.82381">
        <ele>382</ele>
        <time>2016-04-10T09:56:57.000Z</time>
      </trkpt>
      <trkpt lat="47.5741" lon="6.8238">
        <ele>382</ele>
        <time>2016-04-10T09:56:58.000Z</time>
      </trkpt>
      <trkpt lat="47.57406" lon="6.82379">
        <ele>382</ele>
        <time>2016-04-10T09:56:59.000Z</time>
      </trkpt>
      <trkpt lat="47.57402" lon="6.82378">
        <ele>382</ele>
        <time>2016-04-10T09:57:00.000Z</time>
      </trkpt>
      <trkpt lat="47.57398" lon="6.82378">
        <ele>382</ele>
        <time>2016-04-10T09:57:01.000Z</time>
      </trkpt>
      <trkpt lat="47.57394" lon="6.82378">
        <ele>382</ele>
        <time>2016-04-10T09:57:02.000Z</time>
      </trkpt>
      <trkpt lat="47.5739" lon="6.82377">
        <ele>382</ele>
        <time>2016-04-10T09:57:03.000Z</time>
      </trkpt>
      <trkpt lat="47.57387" lon="6.82378">
        <ele>382</ele>
        <time>2016-04-10T09:57:04.000Z</time>
      </trkpt>
      <trkpt lat="47.57383" lon="6.82378">
        <ele>382</ele>
        <time>2016-04-10T09:57:05.000Z</time>
      </trkpt>
      <trkpt lat="47.5738" lon="6.82378">
        <ele>382</ele>
        <time>2016-04-10T09:57:06.000Z</time>
      </trkpt>
      <trkpt lat="47.57376" lon="6.82378">
        <ele>382</ele>
        <time>2016-04-10T09:57:07.000Z</time>
      </trkpt>
      <trkpt lat="47.57372" lon="6.82377">
        <ele>382</ele>
        <time>2016-04-10T09:57:08.000Z</time>
      </trkpt>
      <trkpt lat="47.57369" lon="6.82377">
        <ele>382</ele>
        <time>2016-04-10T09:57:09.000Z</time>
      </trkpt>
      <trkpt lat="47.57366" lon="6.82377">
        <ele>382</ele>
        <time>2016-04-10T09:57:10.000Z</time>
      </trkpt>
      <trkpt lat="47.57363" lon="6.82377">
        <ele>382</ele>
        <time>2016-04-10T09:57:11.000Z</time>
      </trkpt>
      <trkpt lat="47.57361" lon="6.82378">
        <ele>382</ele>
        <time>2016-04-10T09:57:12.000Z</time>
      </trkpt>
      <trkpt lat="47.57358" lon="6.82378">
        <ele>382</ele>
        <time>2016-04-10T09:57:13.000Z</time>
      </trkpt>
      <trkpt lat="47.57355" lon="6.82379">
        <ele>382</ele>
        <time>2016-04-10T09:57:14.000Z</time>
      </trkpt>
      <trkpt lat="47.57352" lon="6.8238">
        <ele>382</ele>
        <time>2016-04-10T09:57:15.000Z</time>
      </trkpt>
      <trkpt lat="47.57348" lon="6.82382">
        <ele>382</ele>
        <time>2016-04-10T09:57:16.000Z</time>
      </trkpt>
      <trkpt lat="47.57344" lon="6.82384">
        <ele>382</ele>
        <time>2016-04-10T09:57:17.000Z</time>
      </trkpt>
      <trkpt lat="47.5734" lon="6.82386">
        <ele>382</ele>
        <time>2016-04-10T09:57:18.000Z</time>
      </trkpt>
      <trkpt lat="47.57336" lon="6.82387">
        <ele>382</ele>
        <time>2016-04-10T09:57:19.000Z</time>
      </trkpt>
      <trkpt lat="47.57332" lon="6.82389">
        <ele>380</ele>
        <time>2016-04-10T09:57:20.000Z</time>
      </trkpt>
      <trkpt lat="47.57328" lon="6.8239">
        <ele>380</ele>
        <time>2016-04-10T09:57:21.000Z</time>
      </trkpt>
      <trkpt lat="47.57323" lon="6.82391">
        <ele>380</ele>
        <time>2016-04-10T09:57:22.000Z</time>
      </trkpt>
      <trkpt lat="47.57319" lon="6.82392">
        <ele>380</ele>
        <time>2016-04-10T09:57:23.000Z</time>
      </trkpt>
      <trkpt lat="47.57315" lon="6.82393">
        <ele>380</ele>
        <time>2016-04-10T09:57:24.000Z</time>
      </trkpt>
      <trkpt lat="47.5731" lon="6.82393">
        <ele>380</ele>
        <time>2016-04-10T09:57:25.000Z</time>
      </trkpt>
      <trkpt lat="47.57306" lon="6.82393">
        <ele>380</ele>
        <time>2016-04-10T09:57:26.000Z</time>
      </trkpt>
      <trkpt lat="47.57301" lon="6.82394">
        <ele>380</ele>
        <time>2016-04-10T09:57:27.000Z</time>
      </trkpt>
      <trkpt lat="47.57297" lon="6.82394">
        <ele>380</ele>
        <time>2016-04-10T09:57:28.000Z</time>
      </trkpt>
      <trkpt lat="47.57292" lon="6.82394">
        <ele>380</ele>
        <time>2016-04-10T09:57:29.000Z</time>
      </trkpt>
      <trkpt lat="47.57287" lon="6.82394">
        <ele>380</ele>
        <time>2016-04-10T09:57:30.000Z</time>
      </trkpt>
      <trkpt lat="47.57282" lon="6.82392">
        <ele>379</ele>
        <time>2016-04-10T09:57:31.000Z</time>
      </trkpt>
      <trkpt lat="47.57277" lon="6.82389">
        <ele>379</ele>
        <time>2016-04-10T09:57:32.000Z</time>
      </trkpt>
      <trkpt lat="47.57272" lon="6.82385">
        <ele>379</ele>
        <time>2016-04-10T09:57:33.000Z</time>
      </trkpt>
      <trkpt lat="47.57267" lon="6.82381">
        <ele>379</ele>
        <time>2016-04-10T09:57:34.000Z</time>
      </trkpt>
      <trkpt lat="47.57263" lon="6.82377">
        <ele>379</ele>
        <time>2016-04-10T09:57:35.000Z</time>
      </trkpt>
      <trkpt lat="47.57258" lon="6.82374">
        <ele>379</ele>
        <time>2016-04-10T09:57:36.000Z</time>
      </trkpt>
      <trkpt lat="47.57254" lon="6.82372">
        <ele>379</ele>
        <time>2016-04-10T09:57:37.000Z</time>
      </trkpt>
      <trkpt lat="47.5725" lon="6.8237">
        <ele>379</ele>
        <time>2016-04-10T09:57:38.000Z</time>
      </trkpt>
      <trkpt lat="47.57246" lon="6.82369">
        <ele>375</ele>
        <time>2016-04-10T09:57:39.000Z</time>
      </trkpt>
      <trkpt lat="47.57244" lon="6.82366">
        <ele>375</ele>
        <time>2016-04-10T09:57:40.000Z</time>
      </trkpt>
      <trkpt lat="47.57242" lon="6.82362">
        <ele>375</ele>
        <time>2016-04-10T09:57:41.000Z</time>
      </trkpt>
      <trkpt lat="47.57242" lon="6.82358">
        <ele>375</ele>
        <time>2016-04-10T09:57:42.000Z</time>
      </trkpt>
      <trkpt lat="47.57243" lon="6.82353">
        <ele>375</ele>
        <time>2016-04-10T09:57:43.000Z</time>
      </trkpt>
      <trkpt lat="47.57243" lon="6.82348">
        <ele>375</ele>
        <time>2016-04-10T09:57:44.000Z</time>
      </trkpt>
      <trkpt lat="47.57243" lon="6.82344">
        <ele>375</ele>
        <time>2016-04-10T09:57:45.000Z</time>
      </trkpt>
      <trkpt lat="47.57241" lon="6.8234">
        <ele>375</ele>
        <time>2016-04-10T09:57:46.000Z</time>
      </trkpt>
      <trkpt lat="47.57239" lon="6.82336">
        <ele>375</ele>
        <time>2016-04-10T09:57:47.000Z</time>
      </trkpt>
      <trkpt lat="47.57236" lon="6.82333">
        <ele>374</ele>
        <time>2016-04-10T09:57:48.000Z</time>
      </trkpt>
      <trkpt lat="47.57232" lon="6.8233">
        <ele>374</ele>
        <time>2016-04-10T09:57:49.000Z</time>
      </trkpt>
      <trkpt lat="47.57229" lon="6.82328">
        <ele>374</ele>
        <time>2016-04-10T09:57:50.000Z</time>
      </trkpt>
      <trkpt lat="47.57225" lon="6.82327">
        <ele>373</ele>
        <time>2016-04-10T09:57:51.000Z</time>
      </trkpt>
      <trkpt lat="47.57222" lon="6.82326">
        <ele>373</ele>
        <time>2016-04-10T09:57:52.000Z</time>
      </trkpt>
      <trkpt lat="47.57218" lon="6.82326">
        <ele>373</ele>
        <time>2016-04-10T09:57:53.000Z</time>
      </trkpt>
      <trkpt lat="47.57216" lon="6.82325">
        <ele>373</ele>
        <time>2016-04-10T09:57:54.000Z</time>
      </trkpt>
      <trkpt lat="47.57213" lon="6.82322">
        <ele>373</ele>
        <time>2016-04-10T09:57:56.000Z</time>
      </trkpt>
      <trkpt lat="47.57213" lon="6.8232">
        <ele>373</ele>
        <time>2016-04-10T09:57:57.000Z</time>
      </trkpt>
      <trkpt lat="47.57208" lon="6.82321">
        <ele>372</ele>
        <time>2016-04-10T09:58:15.000Z</time>
      </trkpt>
      <trkpt lat="47.57207" lon="6.82321">
        <ele>372</ele>
        <time>2016-04-10T09:58:16.000Z</time>
      </trkpt>
      <trkpt lat="47.57204" lon="6.82317">
        <ele>372</ele>
        <time>2016-04-10T09:59:05.000Z</time>
      </trkpt>
      <trkpt lat="47.57204" lon="6.82315">
        <ele>372</ele>
        <time>2016-04-10T09:59:06.000Z</time>
      </trkpt>
      <trkpt lat="47.57203" lon="6.82312">
        <ele>372</ele>
        <time>2016-04-10T09:59:08.000Z</time>
      </trkpt>
      <trkpt lat="47.57202" lon="6.82308">
        <ele>372</ele>
        <time>2016-04-10T09:59:09.000Z</time>
      </trkpt>
      <trkpt lat="47.57201" lon="6.82301">
        <ele>372</ele>
        <time>2016-04-10T09:59:16.000Z</time>
      </trkpt>
      <trkpt lat="47.572" lon="6.82301">
        <ele>372</ele>
        <time>2016-04-10T09:59:17.000Z</time>
      </trkpt>
      <trkpt lat="47.57201" lon="6.82307">
        <ele>372</ele>
        <time>2016-04-10T10:02:10.000Z</time>
      </trkpt>
      <trkpt lat="47.57201" lon="6.82309">
        <ele>372</ele>
        <time>2016-04-10T10:02:11.000Z</time>
      </trkpt>
      <trkpt lat="47.57198" lon="6.82313">
        <ele>372</ele>
        <time>2016-04-10T10:02:15.000Z</time>
      </trkpt>
      <trkpt lat="47.57197" lon="6.82315">
        <ele>372</ele>
        <time>2016-04-10T10:02:16.000Z</time>
      </trkpt>
      <trkpt lat="47.57196" lon="6.82319">
        <ele>372</ele>
        <time>2016-04-10T10:02:19.000Z</time>
      </trkpt>
      <trkpt lat="47.57195" lon="6.82321">
        <ele>372</ele>
        <time>2016-04-10T10:02:20.000Z</time>
      </trkpt>
      <trkpt lat="47.57193" lon="6.82325">
        <ele>371</ele>
        <time>2016-04-10T10:02:22.000Z</time>
      </trkpt>
      <trkpt lat="47.57192" lon="6.82327">
        <ele>371</ele>
        <time>2016-04-10T10:02:23.000Z</time>
      </trkpt>
      <trkpt lat="47.5719" lon="6.82332">
        <ele>371</ele>
        <time>2016-04-10T10:02:25.000Z</time>
      </trkpt>
      <trkpt lat="47.57189" lon="6.82334">
        <ele>372</ele>
        <time>2016-04-10T10:02:26.000Z</time>
      </trkpt>
      <trkpt lat="47.57188" lon="6.82338">
        <ele>372</ele>
        <time>2016-04-10T10:02:27.000Z</time>
      </trkpt>
      <trkpt lat="47.57187" lon="6.82341">
        <ele>372</ele>
        <time>2016-04-10T10:02:28.000Z</time>
      </trkpt>
      <trkpt lat="47.57186" lon="6.82346">
        <ele>372</ele>
        <time>2016-04-10T10:02:29.000Z</time>
      </trkpt>
      <trkpt lat="47.57185" lon="6.8235">
        <ele>372</ele>
        <time>2016-04-10T10:02:30.000Z</time>
      </trkpt>
      <trkpt lat="47.57183" lon="6.82354">
        <ele>372</ele>
        <time>2016-04-10T10:02:31.000Z</time>
      </trkpt>
      <trkpt lat="47.5718" lon="6.82359">
        <ele>372</ele>
        <time>2016-04-10T10:02:32.000Z</time>
      </trkpt>
      <trkpt lat="47.57178" lon="6.82364">
        <ele>372</ele>
        <time>2016-04-10T10:02:33.000Z</time>
      </trkpt>
      <trkpt lat="47.57175" lon="6.82368">
        <ele>372</ele>
        <time>2016-04-10T10:02:34.000Z</time>
      </trkpt>
      <trkpt lat="47.57173" lon="6.82373">
        <ele>372</ele>
        <time>2016-04-10T10:02:35.000Z</time>
      </trkpt>
      <trkpt lat="47.5717" lon="6.82377">
        <ele>372</ele>
        <time>2016-04-10T10:02:36.000Z</time>
      </trkpt>
      <trkpt lat="47.57168" lon="6.82381">
        <ele>372</ele>
        <time>2016-04-10T10:02:37.000Z</time>
      </trkpt>
      <trkpt lat="47.57165" lon="6.82386">
        <ele>370</ele>
        <time>2016-04-10T10:02:38.000Z</time>
      </trkpt>
      <trkpt lat="47.57163" lon="6.8239">
        <ele>371</ele>
        <time>2016-04-10T10:02:39.000Z</time>
      </trkpt>
      <trkpt lat="47.57161" lon="6.82394">
        <ele>371</ele>
        <time>2016-04-10T10:02:40.000Z</time>
      </trkpt>
      <trkpt lat="47.57158" lon="6.82399">
        <ele>371</ele>
        <time>2016-04-10T10:02:41.000Z</time>
      </trkpt>
      <trkpt lat="47.57156" lon="6.82404">
        <ele>371</ele>
        <time>2016-04-10T10:02:42.000Z</time>
      </trkpt>
      <trkpt lat="47.57153" lon="6.82409">
        <ele>371</ele>
        <time>2016-04-10T10:02:43.000Z</time>
      </trkpt>
      <trkpt lat="47.57149" lon="6.82414">
        <ele>371</ele>
        <time>2016-04-10T10:02:44.000Z</time>
      </trkpt>
      <trkpt lat="47.57141" lon="6.82424">
        <ele>372</ele>
        <time>2016-04-10T10:02:45.000Z</time>
      </trkpt>
      <trkpt lat="47.57137" lon="6.82429">
        <ele>372</ele>
        <time>2016-04-10T10:02:46.000Z</time>
      </trkpt>
      <trkpt lat="47.57133" lon="6.82433">
        <ele>372</ele>
        <time>2016-04-10T10:02:47.000Z</time>
      </trkpt>
      <trkpt lat="47.57129" lon="6.82438">
        <ele>372</ele>
        <time>2016-04-10T10:02:48.000Z</time>
      </trkpt>
      <trkpt lat="47.57126" lon="6.82442">
        <ele>372</ele>
        <time>2016-04-10T10:02:49.000Z</time>
      </trkpt>
      <trkpt lat="47.57121" lon="6.82444">
        <ele>372</ele>
        <time>2016-04-10T10:02:50.000Z</time>
      </trkpt>
      <trkpt lat="47.57117" lon="6.82446">
        <ele>372</ele>
        <time>2016-04-10T10:02:51.000Z</time>
      </trkpt>
      <trkpt lat="47.57113" lon="6.8245">
        <ele>372</ele>
        <time>2016-04-10T10:02:52.000Z</time>
      </trkpt>
      <trkpt lat="47.5711" lon="6.82453">
        <ele>372</ele>
        <time>2016-04-10T10:02:53.000Z</time>
      </trkpt>
      <trkpt lat="47.57106" lon="6.82455">
        <ele>372</ele>
        <time>2016-04-10T10:02:54.000Z</time>
      </trkpt>
      <trkpt lat="47.57102" lon="6.82459">
        <ele>372</ele>
        <time>2016-04-10T10:02:55.000Z</time>
      </trkpt>
      <trkpt lat="47.57098" lon="6.8246">
        <ele>372</ele>
        <time>2016-04-10T10:02:56.000Z</time>
      </trkpt>
      <trkpt lat="47.57094" lon="6.82463">
        <ele>372</ele>
        <time>2016-04-10T10:02:57.000Z</time>
      </trkpt>
      <trkpt lat="47.57089" lon="6.82465">
        <ele>372</ele>
        <time>2016-04-10T10:02:58.000Z</time>
      </trkpt>
      <trkpt lat="47.57085" lon="6.82467">
        <ele>372</ele>
        <time>2016-04-10T10:02:59.000Z</time>
      </trkpt>
      <trkpt lat="47.57081" lon="6.82469">
        <ele>371</ele>
        <time>2016-04-10T10:03:00.000Z</time>
      </trkpt>
      <trkpt lat="47.57076" lon="6.82471">
        <ele>371</ele>
        <time>2016-04-10T10:03:01.000Z</time>
      </trkpt>
      <trkpt lat="47.57071" lon="6.82472">
        <ele>371</ele>
        <time>2016-04-10T10:03:02.000Z</time>
      </trkpt>
      <trkpt lat="47.57067" lon="6.82475">
        <ele>371</ele>
        <time>2016-04-10T10:03:03.000Z</time>
      </trkpt>
      <trkpt lat="47.57062" lon="6.82477">
        <ele>371</ele>
        <time>2016-04-10T10:03:04.000Z</time>
      </trkpt>
      <trkpt lat="47.57056" lon="6.82479">
        <ele>371</ele>
        <time>2016-04-10T10:03:05.000Z</time>
      </trkpt>
      <trkpt lat="47.57051" lon="6.82481">
        <ele>371</ele>
        <time>2016-04-10T10:03:06.000Z</time>
      </trkpt>
      <trkpt lat="47.57046" lon="6.82483">
        <ele>371</ele>
        <time>2016-04-10T10:03:07.000Z</time>
      </trkpt>
      <trkpt lat="47.57041" lon="6.82485">
        <ele>371</ele>
        <time>2016-04-10T10:03:08.000Z</time>
      </trkpt>
      <trkpt lat="47.57036" lon="6.82487">
        <ele>371</ele>
        <time>2016-04-10T10:03:09.000Z</time>
      </trkpt>
      <trkpt lat="47.57031" lon="6.8249">
        <ele>371</ele>
        <time>2016-04-10T10:03:10.000Z</time>
      </trkpt>
      <trkpt lat="47.57026" lon="6.82493">
        <ele>370</ele>
        <time>2016-04-10T10:03:11.000Z</time>
      </trkpt>
      <trkpt lat="47.57022" lon="6.82495">
        <ele>370</ele>
        <time>2016-04-10T10:03:12.000Z</time>
      </trkpt>
      <trkpt lat="47.57018" lon="6.82497">
        <ele>370</ele>
        <time>2016-04-10T10:03:13.000Z</time>
      </trkpt>
      <trkpt lat="47.57013" lon="6.82499">
        <ele>370</ele>
        <time>2016-04-10T10:03:14.000Z</time>
      </trkpt>
      <trkpt lat="47.57009" lon="6.82502">
        <ele>371</ele>
        <time>2016-04-10T10:03:15.000Z</time>
      </trkpt>
      <trkpt lat="47.57004" lon="6.82504">
        <ele>371</ele>
        <time>2016-04-10T10:03:16.000Z</time>
      </trkpt>
      <trkpt lat="47.5699" lon="6.82512">
        <ele>370</ele>
        <time>2016-04-10T10:03:17.000Z</time>
      </trkpt>
      <trkpt lat="47.56983" lon="6.82516">
        <ele>371</ele>
        <time>2016-04-10T10:03:18.000Z</time>
      </trkpt>
      <trkpt lat="47.56976" lon="6.82518">
        <ele>371</ele>
        <time>2016-04-10T10:03:19.000Z</time>
      </trkpt>
      <trkpt lat="47.5697" lon="6.8252">
        <ele>371</ele>
        <time>2016-04-10T10:03:20.000Z</time>
      </trkpt>
      <trkpt lat="47.56964" lon="6.82524">
        <ele>371</ele>
        <time>2016-04-10T10:03:21.000Z</time>
      </trkpt>
      <trkpt lat="47.56959" lon="6.82527">
        <ele>371</ele>
        <time>2016-04-10T10:03:22.000Z</time>
      </trkpt>
      <trkpt lat="47.56954" lon="6.82532">
        <ele>371</ele>
        <time>2016-04-10T10:03:23.000Z</time>
      </trkpt>
      <trkpt lat="47.56948" lon="6.82535">
        <ele>371</ele>
        <time>2016-04-10T10:03:24.000Z</time>
      </trkpt>
      <trkpt lat="47.56943" lon="6.82538">
        <ele>371</ele>
        <time>2016-04-10T10:03:25.000Z</time>
      </trkpt>
      <trkpt lat="47.5694" lon="6.82542">
        <ele>371</ele>
        <time>2016-04-10T10:03:26.000Z</time>
      </trkpt>
      <trkpt lat="47.56936" lon="6.82544">
        <ele>371</ele>
        <time>2016-04-10T10:03:27.000Z</time>
      </trkpt>
      <trkpt lat="47.56932" lon="6.82547">
        <ele>371</ele>
        <time>2016-04-10T10:03:28.000Z</time>
      </trkpt>
      <trkpt lat="47.56928" lon="6.8255">
        <ele>371</ele>
        <time>2016-04-10T10:03:29.000Z</time>
      </trkpt>
      <trkpt lat="47.56926" lon="6.82553">
        <ele>371</ele>
        <time>2016-04-10T10:03:30.000Z</time>
      </trkpt>
      <trkpt lat="47.56922" lon="6.82557">
        <ele>371</ele>
        <time>2016-04-10T10:03:31.000Z</time>
      </trkpt>
      <trkpt lat="47.56917" lon="6.8256">
        <ele>371</ele>
        <time>2016-04-10T10:03:32.000Z</time>
      </trkpt>
      <trkpt lat="47.56912" lon="6.82564">
        <ele>368</ele>
        <time>2016-04-10T10:03:33.000Z</time>
      </trkpt>
      <trkpt lat="47.56906" lon="6.82565">
        <ele>368</ele>
        <time>2016-04-10T10:03:34.000Z</time>
      </trkpt>
      <trkpt lat="47.56902" lon="6.82567">
        <ele>368</ele>
        <time>2016-04-10T10:03:35.000Z</time>
      </trkpt>
      <trkpt lat="47.56897" lon="6.8257">
        <ele>368</ele>
        <time>2016-04-10T10:03:36.000Z</time>
      </trkpt>
      <trkpt lat="47.56893" lon="6.82572">
        <ele>368</ele>
        <time>2016-04-10T10:03:37.000Z</time>
      </trkpt>
      <trkpt lat="47.56889" lon="6.82575">
        <ele>368</ele>
        <time>2016-04-10T10:03:38.000Z</time>
      </trkpt>
      <trkpt lat="47.56885" lon="6.82577">
        <ele>367</ele>
        <time>2016-04-10T10:03:39.000Z</time>
      </trkpt>
      <trkpt lat="47.56878" lon="6.82582">
        <ele>367</ele>
        <time>2016-04-10T10:03:40.000Z</time>
      </trkpt>
      <trkpt lat="47.56871" lon="6.82585">
        <ele>370</ele>
        <time>2016-04-10T10:03:41.000Z</time>
      </trkpt>
      <trkpt lat="47.56867" lon="6.82589">
        <ele>370</ele>
        <time>2016-04-10T10:03:42.000Z</time>
      </trkpt>
      <trkpt lat="47.56862" lon="6.8259">
        <ele>369</ele>
        <time>2016-04-10T10:03:43.000Z</time>
      </trkpt>
      <trkpt lat="47.56857" lon="6.82593">
        <ele>369</ele>
        <time>2016-04-10T10:03:44.000Z</time>
      </trkpt>
      <trkpt lat="47.5685" lon="6.82595">
        <ele>369</ele>
        <time>2016-04-10T10:03:45.000Z</time>
      </trkpt>
      <trkpt lat="47.56844" lon="6.82596">
        <ele>368</ele>
        <time>2016-04-10T10:03:46.000Z</time>
      </trkpt>
      <trkpt lat="47.5684" lon="6.82599">
        <ele>368</ele>
        <time>2016-04-10T10:03:47.000Z</time>
      </trkpt>
      <trkpt lat="47.56833" lon="6.826">
        <ele>366</ele>
        <time>2016-04-10T10:03:48.000Z</time>
      </trkpt>
      <trkpt lat="47.56825" lon="6.82604">
        <ele>366</ele>
        <time>2016-04-10T10:03:49.000Z</time>
      </trkpt>
      <trkpt lat="47.56818" lon="6.82607">
        <ele>366</ele>
        <time>2016-04-10T10:03:50.000Z</time>
      </trkpt>
      <trkpt lat="47.56813" lon="6.82608">
        <ele>366</ele>
        <time>2016-04-10T10:03:51.000Z</time>
      </trkpt>
      <trkpt lat="47.56809" lon="6.8261">
        <ele>366</ele>
        <time>2016-04-10T10:03:52.000Z</time>
      </trkpt>
      <trkpt lat="47.56804" lon="6.8261">
        <ele>366</ele>
        <time>2016-04-10T10:03:53.000Z</time>
      </trkpt>
      <trkpt lat="47.568" lon="6.82614">
        <ele>366</ele>
        <time>2016-04-10T10:03:54.000Z</time>
      </trkpt>
      <trkpt lat="47.56794" lon="6.82618">
        <ele>366</ele>
        <time>2016-04-10T10:03:55.000Z</time>
      </trkpt>
      <trkpt lat="47.56789" lon="6.82619">
        <ele>366</ele>
        <time>2016-04-10T10:03:56.000Z</time>
      </trkpt>
      <trkpt lat="47.56785" lon="6.82622">
        <ele>366</ele>
        <time>2016-04-10T10:03:57.000Z</time>
      </trkpt>
      <trkpt lat="47.56782" lon="6.82627">
        <ele>367</ele>
        <time>2016-04-10T10:03:58.000Z</time>
      </trkpt>
      <trkpt lat="47.56777" lon="6.82632">
        <ele>367</ele>
        <time>2016-04-10T10:03:59.000Z</time>
      </trkpt>
      <trkpt lat="47.56772" lon="6.82634">
        <ele>367</ele>
        <time>2016-04-10T10:04:00.000Z</time>
      </trkpt>
      <trkpt lat="47.56768" lon="6.82635">
        <ele>366</ele>
        <time>2016-04-10T10:04:01.000Z</time>
      </trkpt>
      <trkpt lat="47.56763" lon="6.82637">
        <ele>366</ele>
        <time>2016-04-10T10:04:02.000Z</time>
      </trkpt>
      <trkpt lat="47.56757" lon="6.82638">
        <ele>366</ele>
        <time>2016-04-10T10:04:03.000Z</time>
      </trkpt>
      <trkpt lat="47.5675" lon="6.82638">
        <ele>366</ele>
        <time>2016-04-10T10:04:04.000Z</time>
      </trkpt>
      <trkpt lat="47.56746" lon="6.82639">
        <ele>365</ele>
        <time>2016-04-10T10:04:05.000Z</time>
      </trkpt>
      <trkpt lat="47.56743" lon="6.8264">
        <ele>365</ele>
        <time>2016-04-10T10:04:06.000Z</time>
      </trkpt>
      <trkpt lat="47.56737" lon="6.82631">
        <ele>364</ele>
        <time>2016-04-10T10:04:07.000Z</time>
      </trkpt>
      <trkpt lat="47.56732" lon="6.82623">
        <ele>364</ele>
        <time>2016-04-10T10:04:08.000Z</time>
      </trkpt>
      <trkpt lat="47.56727" lon="6.82617">
        <ele>364</ele>
        <time>2016-04-10T10:04:09.000Z</time>
      </trkpt>
      <trkpt lat="47.56724" lon="6.82609">
        <ele>364</ele>
        <time>2016-04-10T10:04:10.000Z</time>
      </trkpt>
      <trkpt lat="47.56722" lon="6.82602">
        <ele>364</ele>
        <time>2016-04-10T10:04:11.000Z</time>
      </trkpt>
      <trkpt lat="47.5672" lon="6.82597">
        <ele>364</ele>
        <time>2016-04-10T10:04:12.000Z</time>
      </trkpt>
      <trkpt lat="47.56716" lon="6.82591">
        <ele>364</ele>
        <time>2016-04-10T10:04:13.000Z</time>
      </trkpt>
      <trkpt lat="47.56712" lon="6.82585">
        <ele>364</ele>
        <time>2016-04-10T10:04:14.000Z</time>
      </trkpt>
      <trkpt lat="47.5671" lon="6.82579">
        <ele>365</ele>
        <time>2016-04-10T10:04:15.000Z</time>
      </trkpt>
      <trkpt lat="47.56708" lon="6.82574">
        <ele>365</ele>
        <time>2016-04-10T10:04:16.000Z</time>
      </trkpt>
      <trkpt lat="47.56706" lon="6.82569">
        <ele>365</ele>
        <time>2016-04-10T10:04:17.000Z</time>
      </trkpt>
      <trkpt lat="47.56706" lon="6.82562">
        <ele>365</ele>
        <time>2016-04-10T10:04:18.000Z</time>
      </trkpt>
      <trkpt lat="47.56705" lon="6.82556">
        <ele>366</ele>
        <time>2016-04-10T10:04:19.000Z</time>
      </trkpt>
      <trkpt lat="47.56705" lon="6.82551">
        <ele>366</ele>
        <time>2016-04-10T10:04:20.000Z</time>
      </trkpt>
      <trkpt lat="47.56704" lon="6.82547">
        <ele>366</ele>
        <time>2016-04-10T10:04:21.000Z</time>
      </trkpt>
      <trkpt lat="47.56703" lon="6.82545">
        <ele>366</ele>
        <time>2016-04-10T10:04:22.000Z</time>
      </trkpt>
      <trkpt lat="47.56703" lon="6.82541">
        <ele>366</ele>
        <time>2016-04-10T10:04:23.000Z</time>
      </trkpt>
      <trkpt lat="47.56702" lon="6.82537">
        <ele>366</ele>
        <time>2016-04-10T10:04:24.000Z</time>
      </trkpt>
      <trkpt lat="47.56702" lon="6.82533">
        <ele>366</ele>
        <time>2016-04-10T10:04:25.000Z</time>
      </trkpt>
      <trkpt lat="47.56701" lon="6.8253">
        <ele>367</ele>
        <time>2016-04-10T10:04:26.000Z</time>
      </trkpt>
      <trkpt lat="47.567" lon="6.82523">
        <ele>367</ele>
        <time>2016-04-10T10:04:28.000Z</time>
      </trkpt>
      <trkpt lat="47.56699" lon="6.8252">
        <ele>367</ele>
        <time>2016-04-10T10:04:29.000Z</time>
      </trkpt>
      <trkpt lat="47.56697" lon="6.82517">
        <ele>367</ele>
        <time>2016-04-10T10:04:30.000Z</time>
      </trkpt>
      <trkpt lat="47.56696" lon="6.82514">
        <ele>367</ele>
        <time>2016-04-10T10:04:31.000Z</time>
      </trkpt>
      <trkpt lat="47.56694" lon="6.82511">
        <ele>368</ele>
        <time>2016-04-10T10:04:32.000Z</time>
      </trkpt>
      <trkpt lat="47.56693" lon="6.82507">
        <ele>368</ele>
        <time>2016-04-10T10:04:33.000Z</time>
      </trkpt>
      <trkpt lat="47.56692" lon="6.82502">
        <ele>368</ele>
        <time>2016-04-10T10:04:34.000Z</time>
      </trkpt>
      <trkpt lat="47.56691" lon="6.82497">
        <ele>370</ele>
        <time>2016-04-10T10:04:35.000Z</time>
      </trkpt>
      <trkpt lat="47.5669" lon="6.82492">
        <ele>370</ele>
        <time>2016-04-10T10:04:36.000Z</time>
      </trkpt>
      <trkpt lat="47.56688" lon="6.82487">
        <ele>370</ele>
        <time>2016-04-10T10:04:37.000Z</time>
      </trkpt>
      <trkpt lat="47.56686" lon="6.82483">
        <ele>370</ele>
        <time>2016-04-10T10:04:38.000Z</time>
      </trkpt>
      <trkpt lat="47.56685" lon="6.82479">
        <ele>370</ele>
        <time>2016-04-10T10:04:39.000Z</time>
      </trkpt>
      <trkpt lat="47.56683" lon="6.82476">
        <ele>370</ele>
        <time>2016-04-10T10:04:40.000Z</time>
      </trkpt>
      <trkpt lat="47.56681" lon="6.82472">
        <ele>370</ele>
        <time>2016-04-10T10:04:41.000Z</time>
      </trkpt>
      <trkpt lat="47.56679" lon="6.82467">
        <ele>370</ele>
        <time>2016-04-10T10:04:42.000Z</time>
      </trkpt>
      <trkpt lat="47.56677" lon="6.82462">
        <ele>370</ele>
        <time>2016-04-10T10:04:43.000Z</time>
      </trkpt>
      <trkpt lat="47.56675" lon="6.82457">
        <ele>370</ele>
        <time>2016-04-10T10:04:44.000Z</time>
      </trkpt>
      <trkpt lat="47.56674" lon="6.82453">
        <ele>370</ele>
        <time>2016-04-10T10:04:45.000Z</time>
      </trkpt>
      <trkpt lat="47.56673" lon="6.82449">
        <ele>371</ele>
        <time>2016-04-10T10:04:46.000Z</time>
      </trkpt>
      <trkpt lat="47.56671" lon="6.82444">
        <ele>371</ele>
        <time>2016-04-10T10:04:47.000Z</time>
      </trkpt>
      <trkpt lat="47.5667" lon="6.82439">
        <ele>371</ele>
        <time>2016-04-10T10:04:48.000Z</time>
      </trkpt>
      <trkpt lat="47.56668" lon="6.82434">
        <ele>371</ele>
        <time>2016-04-10T10:04:49.000Z</time>
      </trkpt>
      <trkpt lat="47.56666" lon="6.8243">
        <ele>372</ele>
        <time>2016-04-10T10:04:50.000Z</time>
      </trkpt>
      <trkpt lat="47.56664" lon="6.82426">
        <ele>372</ele>
        <time>2016-04-10T10:04:51.000Z</time>
      </trkpt>
      <trkpt lat="47.56662" lon="6.82422">
        <ele>372</ele>
        <time>2016-04-10T10:04:52.000Z</time>
      </trkpt>
      <trkpt lat="47.5666" lon="6.82419">
        <ele>372</ele>
        <time>2016-04-10T10:04:53.000Z</time>
      </trkpt>
      <trkpt lat="47.56658" lon="6.82416">
        <ele>373</ele>
        <time>2016-04-10T10:04:54.000Z</time>
      </trkpt>
      <trkpt lat="47.56656" lon="6.82413">
        <ele>373</ele>
        <time>2016-04-10T10:04:55.000Z</time>
      </trkpt>
      <trkpt lat="47.56653" lon="6.8241">
        <ele>374</ele>
        <time>2016-04-10T10:04:57.000Z</time>
      </trkpt>
      <trkpt lat="47.56652" lon="6.82408">
        <ele>374</ele>
        <time>2016-04-10T10:04:58.000Z</time>
      </trkpt>
      <trkpt lat="47.56648" lon="6.82405">
        <ele>374</ele>
        <time>2016-04-10T10:05:00.000Z</time>
      </trkpt>
      <trkpt lat="47.56646" lon="6.82404">
        <ele>374</ele>
        <time>2016-04-10T10:05:01.000Z</time>
      </trkpt>
      <trkpt lat="47.56642" lon="6.82403">
        <ele>374</ele>
        <time>2016-04-10T10:05:03.000Z</time>
      </trkpt>
      <trkpt lat="47.56641" lon="6.82402">
        <ele>374</ele>
        <time>2016-04-10T10:05:04.000Z</time>
      </trkpt>
      <trkpt lat="47.56637" lon="6.82401">
        <ele>375</ele>
        <time>2016-04-10T10:05:06.000Z</time>
      </trkpt>
      <trkpt lat="47.56636" lon="6.82401">
        <ele>375</ele>
        <time>2016-04-10T10:05:07.000Z</time>
      </trkpt>
      <trkpt lat="47.56632" lon="6.824">
        <ele>375</ele>
        <time>2016-04-10T10:05:10.000Z</time>
      </trkpt>
      <trkpt lat="47.5663" lon="6.82399">
        <ele>375</ele>
        <time>2016-04-10T10:05:11.000Z</time>
      </trkpt>
      <trkpt lat="47.56626" lon="6.82398">
        <ele>375</ele>
        <time>2016-04-10T10:05:13.000Z</time>
      </trkpt>
      <trkpt lat="47.56625" lon="6.82398">
        <ele>375</ele>
        <time>2016-04-10T10:05:14.000Z</time>
      </trkpt>
      <trkpt lat="47.56621" lon="6.82396">
        <ele>375</ele>
        <time>2016-04-10T10:05:16.000Z</time>
      </trkpt>
      <trkpt lat="47.5662" lon="6.82395">
        <ele>375</ele>
        <time>2016-04-10T10:05:17.000Z</time>
      </trkpt>
      <trkpt lat="47.56617" lon="6.82393">
        <ele>376</ele>
        <time>2016-04-10T10:05:19.000Z</time>
      </trkpt>
      <trkpt lat="47.56615" lon="6.82393">
        <ele>376</ele>
        <time>2016-04-10T10:05:20.000Z</time>
      </trkpt>
      <trkpt lat="47.56612" lon="6.8239">
        <ele>376</ele>
        <time>2016-04-10T10:05:22.000Z</time>
      </trkpt>
      <trkpt lat="47.5661" lon="6.82389">
        <ele>376</ele>
        <time>2016-04-10T10:05:23.000Z</time>
      </trkpt>
      <trkpt lat="47.56607" lon="6.82387">
        <ele>376</ele>
        <time>2016-04-10T10:05:25.000Z</time>
      </trkpt>
      <trkpt lat="47.56606" lon="6.82386">
        <ele>376</ele>
        <time>2016-04-10T10:05:26.000Z</time>
      </trkpt>
      <trkpt lat="47.56602" lon="6.82382">
        <ele>376</ele>
        <time>2016-04-10T10:05:29.000Z</time>
      </trkpt>
      <trkpt lat="47.56601" lon="6.82381">
        <ele>376</ele>
        <time>2016-04-10T10:05:30.000Z</time>
      </trkpt>
      <trkpt lat="47.56597" lon="6.82379">
        <ele>376</ele>
        <time>2016-04-10T10:05:32.000Z</time>
      </trkpt>
      <trkpt lat="47.56595" lon="6.82378">
        <ele>376</ele>
        <time>2016-04-10T10:05:33.000Z</time>
      </trkpt>
      <trkpt lat="47.56593" lon="6.82375">
        <ele>376</ele>
        <time>2016-04-10T10:05:35.000Z</time>
      </trkpt>
      <trkpt lat="47.56591" lon="6.82374">
        <ele>377</ele>
        <time>2016-04-10T10:05:36.000Z</time>
      </trkpt>
      <trkpt lat="47.56588" lon="6.8237">
        <ele>377</ele>
        <time>2016-04-10T10:05:38.000Z</time>
      </trkpt>
      <trkpt lat="47.56586" lon="6.82369">
        <ele>377</ele>
        <time>2016-04-10T10:05:39.000Z</time>
      </trkpt>
      <trkpt lat="47.56584" lon="6.82366">
        <ele>377</ele>
        <time>2016-04-10T10:05:40.998Z</time>
      </trkpt>
      <trkpt lat="47.56582" lon="6.82364">
        <ele>381</ele>
        <time>2016-04-10T10:05:42.000Z</time>
      </trkpt>
      <trkpt lat="47.56578" lon="6.82361">
        <ele>381</ele>
        <time>2016-04-10T10:05:44.000Z</time>
      </trkpt>
      <trkpt lat="47.56575" lon="6.8236">
        <ele>381</ele>
        <time>2016-04-10T10:05:45.000Z</time>
      </trkpt>
      <trkpt lat="47.56572" lon="6.82358">
        <ele>381</ele>
        <time>2016-04-10T10:05:47.000Z</time>
      </trkpt>
      <trkpt lat="47.5657" lon="6.82357">
        <ele>381</ele>
        <time>2016-04-10T10:05:48.000Z</time>
      </trkpt>
      <trkpt lat="47.56566" lon="6.82354">
        <ele>381</ele>
        <time>2016-04-10T10:05:50.000Z</time>
      </trkpt>
      <trkpt lat="47.56565" lon="6.82353">
        <ele>381</ele>
        <time>2016-04-10T10:05:51.000Z</time>
      </trkpt>
      <trkpt lat="47.56561" lon="6.8235">
        <ele>381</ele>
        <time>2016-04-10T10:05:53.000Z</time>
      </trkpt>
      <trkpt lat="47.56559" lon="6.82349">
        <ele>381</ele>
        <time>2016-04-10T10:05:54.000Z</time>
      </trkpt>
      <trkpt lat="47.56556" lon="6.82347">
        <ele>382</ele>
        <time>2016-04-10T10:05:56.000Z</time>
      </trkpt>
      <trkpt lat="47.56554" lon="6.82346">
        <ele>382</ele>
        <time>2016-04-10T10:05:57.000Z</time>
      </trkpt>
      <trkpt lat="47.5655" lon="6.82343">
        <ele>382</ele>
        <time>2016-04-10T10:06:00.000Z</time>
      </trkpt>
      <trkpt lat="47.56549" lon="6.82342">
        <ele>382</ele>
        <time>2016-04-10T10:06:01.000Z</time>
      </trkpt>
      <trkpt lat="47.56546" lon="6.82339">
        <ele>382</ele>
        <time>2016-04-10T10:06:03.000Z</time>
      </trkpt>
      <trkpt lat="47.56544" lon="6.82337">
        <ele>382</ele>
        <time>2016-04-10T10:06:04.000Z</time>
      </trkpt>
      <trkpt lat="47.5654" lon="6.82337">
        <ele>382</ele>
        <time>2016-04-10T10:06:06.000Z</time>
      </trkpt>
      <trkpt lat="47.56538" lon="6.82338">
        <ele>383</ele>
        <time>2016-04-10T10:06:07.000Z</time>
      </trkpt>
      <trkpt lat="47.56535" lon="6.82336">
        <ele>383</ele>
        <time>2016-04-10T10:06:09.000Z</time>
      </trkpt>
      <trkpt lat="47.56534" lon="6.82334">
        <ele>383</ele>
        <time>2016-04-10T10:06:10.000Z</time>
      </trkpt>
      <trkpt lat="47.56531" lon="6.8233">
        <ele>384</ele>
        <time>2016-04-10T10:06:12.000Z</time>
      </trkpt>
      <trkpt lat="47.5653" lon="6.82328">
        <ele>384</ele>
        <time>2016-04-10T10:06:13.000Z</time>
      </trkpt>
      <trkpt lat="47.56527" lon="6.82325">
        <ele>384</ele>
        <time>2016-04-10T10:06:15.000Z</time>
      </trkpt>
      <trkpt lat="47.56526" lon="6.82323">
        <ele>384</ele>
        <time>2016-04-10T10:06:16.000Z</time>
      </trkpt>
      <trkpt lat="47.56523" lon="6.8232">
        <ele>384</ele>
        <time>2016-04-10T10:06:18.000Z</time>
      </trkpt>
      <trkpt lat="47.56522" lon="6.82319">
        <ele>384</ele>
        <time>2016-04-10T10:06:19.000Z</time>
      </trkpt>
      <trkpt lat="47.56519" lon="6.82315">
        <ele>384</ele>
        <time>2016-04-10T10:06:21.000Z</time>
      </trkpt>
      <trkpt lat="47.56517" lon="6.82314">
        <ele>384</ele>
        <time>2016-04-10T10:06:22.000Z</time>
      </trkpt>
      <trkpt lat="47.56514" lon="6.82311">
        <ele>385</ele>
        <time>2016-04-10T10:06:24.000Z</time>
      </trkpt>
      <trkpt lat="47.56513" lon="6.82309">
        <ele>385</ele>
        <time>2016-04-10T10:06:25.000Z</time>
      </trkpt>
      <trkpt lat="47.56509" lon="6.82306">
        <ele>385</ele>
        <time>2016-04-10T10:06:27.000Z</time>
      </trkpt>
      <trkpt lat="47.56507" lon="6.82304">
        <ele>385</ele>
        <time>2016-04-10T10:06:28.000Z</time>
      </trkpt>
      <trkpt lat="47.56505" lon="6.82302">
        <ele>385</ele>
        <time>2016-04-10T10:06:29.000Z</time>
      </trkpt>
      <trkpt lat="47.56502" lon="6.823">
        <ele>385</ele>
        <time>2016-04-10T10:06:30.000Z</time>
      </trkpt>
      <trkpt lat="47.56501" lon="6.82297">
        <ele>385</ele>
        <time>2016-04-10T10:06:31.000Z</time>
      </trkpt>
      <trkpt lat="47.56499" lon="6.82295">
        <ele>388</ele>
        <time>2016-04-10T10:06:32.000Z</time>
      </trkpt>
      <trkpt lat="47.56496" lon="6.8229">
        <ele>388</ele>
        <time>2016-04-10T10:06:34.000Z</time>
      </trkpt>
      <trkpt lat="47.56494" lon="6.82288">
        <ele>388</ele>
        <time>2016-04-10T10:06:35.000Z</time>
      </trkpt>
      <trkpt lat="47.56491" lon="6.82285">
        <ele>388</ele>
        <time>2016-04-10T10:06:37.000Z</time>
      </trkpt>
      <trkpt lat="47.56489" lon="6.82283">
        <ele>388</ele>
        <time>2016-04-10T10:06:38.000Z</time>
      </trkpt>
      <trkpt lat="47.56485" lon="6.82281">
        <ele>388</ele>
        <time>2016-04-10T10:06:40.000Z</time>
      </trkpt>
      <trkpt lat="47.56483" lon="6.82279">
        <ele>388</ele>
        <time>2016-04-10T10:06:41.000Z</time>
      </trkpt>
      <trkpt lat="47.5648" lon="6.82278">
        <ele>388</ele>
        <time>2016-04-10T10:06:43.000Z</time>
      </trkpt>
      <trkpt lat="47.56479" lon="6.82277">
        <ele>388</ele>
        <time>2016-04-10T10:06:44.000Z</time>
      </trkpt>
      <trkpt lat="47.56474" lon="6.82275">
        <ele>388</ele>
        <time>2016-04-10T10:06:47.000Z</time>
      </trkpt>
      <trkpt lat="47.56473" lon="6.82274">
        <ele>388</ele>
        <time>2016-04-10T10:06:48.000Z</time>
      </trkpt>
      <trkpt lat="47.5647" lon="6.82272">
        <ele>388</ele>
        <time>2016-04-10T10:06:50.000Z</time>
      </trkpt>
      <trkpt lat="47.56468" lon="6.82271">
        <ele>388</ele>
        <time>2016-04-10T10:06:51.000Z</time>
      </trkpt>
      <trkpt lat="47.56465" lon="6.82269">
        <ele>388</ele>
        <time>2016-04-10T10:06:53.000Z</time>
      </trkpt>
      <trkpt lat="47.56463" lon="6.82268">
        <ele>388</ele>
        <time>2016-04-10T10:06:54.000Z</time>
      </trkpt>
      <trkpt lat="47.56459" lon="6.82267">
        <ele>388</ele>
        <time>2016-04-10T10:06:56.000Z</time>
      </trkpt>
      <trkpt lat="47.56457" lon="6.82266">
        <ele>388</ele>
        <time>2016-04-10T10:06:57.000Z</time>
      </trkpt>
      <trkpt lat="47.56454" lon="6.82265">
        <ele>388</ele>
        <time>2016-04-10T10:06:59.000Z</time>
      </trkpt>
      <trkpt lat="47.56452" lon="6.82264">
        <ele>388</ele>
        <time>2016-04-10T10:07:00.000Z</time>
      </trkpt>
      <trkpt lat="47.5645" lon="6.82263">
        <ele>388</ele>
        <time>2016-04-10T10:07:01.000Z</time>
      </trkpt>
      <trkpt lat="47.56447" lon="6.82262">
        <ele>388</ele>
        <time>2016-04-10T10:07:02.000Z</time>
      </trkpt>
      <trkpt lat="47.56445" lon="6.8226">
        <ele>388</ele>
        <time>2016-04-10T10:07:03.000Z</time>
      </trkpt>
      <trkpt lat="47.56442" lon="6.82258">
        <ele>388</ele>
        <time>2016-04-10T10:07:04.000Z</time>
      </trkpt>
      <trkpt lat="47.5644" lon="6.82257">
        <ele>388</ele>
        <time>2016-04-10T10:07:05.000Z</time>
      </trkpt>
      <trkpt lat="47.56437" lon="6.82256">
        <ele>389</ele>
        <time>2016-04-10T10:07:06.000Z</time>
      </trkpt>
      <trkpt lat="47.56435" lon="6.82255">
        <ele>389</ele>
        <time>2016-04-10T10:07:07.000Z</time>
      </trkpt>
      <trkpt lat="47.56433" lon="6.82254">
        <ele>389</ele>
        <time>2016-04-10T10:07:08.000Z</time>
      </trkpt>
      <trkpt lat="47.5643" lon="6.82253">
        <ele>389</ele>
        <time>2016-04-10T10:07:09.000Z</time>
      </trkpt>
      <trkpt lat="47.56428" lon="6.82253">
        <ele>389</ele>
        <time>2016-04-10T10:07:10.000Z</time>
      </trkpt>
      <trkpt lat="47.56425" lon="6.82252">
        <ele>389</ele>
        <time>2016-04-10T10:07:11.000Z</time>
      </trkpt>
      <trkpt lat="47.56423" lon="6.82251">
        <ele>389</ele>
        <time>2016-04-10T10:07:12.000Z</time>
      </trkpt>
      <trkpt lat="47.56421" lon="6.82251">
        <ele>389</ele>
        <time>2016-04-10T10:07:13.000Z</time>
      </trkpt>
      <trkpt lat="47.56419" lon="6.8225">
        <ele>389</ele>
        <time>2016-04-10T10:07:14.000Z</time>
      </trkpt>
      <trkpt lat="47.56416" lon="6.82249">
        <ele>389</ele>
        <time>2016-04-10T10:07:15.000Z</time>
      </trkpt>
      <trkpt lat="47.56413" lon="6.82248">
        <ele>389</ele>
        <time>2016-04-10T10:07:16.000Z</time>
      </trkpt>
      <trkpt lat="47.5641" lon="6.82247">
        <ele>388</ele>
        <time>2016-04-10T10:07:17.000Z</time>
      </trkpt>
      <trkpt lat="47.56407" lon="6.82247">
        <ele>388</ele>
        <time>2016-04-10T10:07:18.000Z</time>
      </trkpt>
      <trkpt lat="47.56404" lon="6.82246">
        <ele>388</ele>
        <time>2016-04-10T10:07:19.000Z</time>
      </trkpt>
      <trkpt lat="47.56402" lon="6.82245">
        <ele>388</ele>
        <time>2016-04-10T10:07:20.001Z</time>
      </trkpt>
      <trkpt lat="47.56398" lon="6.82245">
        <ele>388</ele>
        <time>2016-04-10T10:07:21.000Z</time>
      </trkpt>
      <trkpt lat="47.56395" lon="6.82244">
        <ele>388</ele>
        <time>2016-04-10T10:07:22.000Z</time>
      </trkpt>
      <trkpt lat="47.56392" lon="6.82244">
        <ele>388</ele>
        <time>2016-04-10T10:07:23.000Z</time>
      </trkpt>
      <trkpt lat="47.56389" lon="6.82243">
        <ele>387</ele>
        <time>2016-04-10T10:07:24.000Z</time>
      </trkpt>
      <trkpt lat="47.56385" lon="6.82243">
        <ele>387</ele>
        <time>2016-04-10T10:07:25.000Z</time>
      </trkpt>
      <trkpt lat="47.56382" lon="6.82242">
        <ele>387</ele>
        <time>2016-04-10T10:07:26.000Z</time>
      </trkpt>
      <trkpt lat="47.56378" lon="6.82241">
        <ele>387</ele>
        <time>2016-04-10T10:07:27.000Z</time>
      </trkpt>
      <trkpt lat="47.56374" lon="6.82239">
        <ele>387</ele>
        <time>2016-04-10T10:07:28.000Z</time>
      </trkpt>
      <trkpt lat="47.5637" lon="6.82238">
        <ele>387</ele>
        <time>2016-04-10T10:07:29.000Z</time>
      </trkpt>
      <trkpt lat="47.56356" lon="6.82234">
        <ele>387</ele>
        <time>2016-04-10T10:07:30.000Z</time>
      </trkpt>
      <trkpt lat="47.56351" lon="6.82231">
        <ele>387</ele>
        <time>2016-04-10T10:07:31.000Z</time>
      </trkpt>
      <trkpt lat="47.56344" lon="6.82226">
        <ele>387</ele>
        <time>2016-04-10T10:07:32.000Z</time>
      </trkpt>
      <trkpt lat="47.56339" lon="6.82224">
        <ele>387</ele>
        <time>2016-04-10T10:07:33.000Z</time>
      </trkpt>
      <trkpt lat="47.56334" lon="6.82222">
        <ele>387</ele>
        <time>2016-04-10T10:07:34.000Z</time>
      </trkpt>
      <trkpt lat="47.56329" lon="6.82222">
        <ele>385</ele>
        <time>2016-04-10T10:07:35.000Z</time>
      </trkpt>
      <trkpt lat="47.56324" lon="6.82224">
        <ele>385</ele>
        <time>2016-04-10T10:07:36.000Z</time>
      </trkpt>
      <trkpt lat="47.5632" lon="6.82224">
        <ele>385</ele>
        <time>2016-04-10T10:07:37.000Z</time>
      </trkpt>
      <trkpt lat="47.56314" lon="6.82226">
        <ele>385</ele>
        <time>2016-04-10T10:07:38.000Z</time>
      </trkpt>
      <trkpt lat="47.56309" lon="6.82226">
        <ele>384</ele>
        <time>2016-04-10T10:07:39.000Z</time>
      </trkpt>
      <trkpt lat="47.56304" lon="6.82229">
        <ele>384</ele>
        <time>2016-04-10T10:07:40.000Z</time>
      </trkpt>
      <trkpt lat="47.56299" lon="6.8223">
        <ele>384</ele>
        <time>2016-04-10T10:07:41.000Z</time>
      </trkpt>
      <trkpt lat="47.56294" lon="6.82231">
        <ele>384</ele>
        <time>2016-04-10T10:07:42.000Z</time>
      </trkpt>
      <trkpt lat="47.56291" lon="6.82233">
        <ele>384</ele>
        <time>2016-04-10T10:07:43.000Z</time>
      </trkpt>
      <trkpt lat="47.56288" lon="6.82235">
        <ele>384</ele>
        <time>2016-04-10T10:07:44.000Z</time>
      </trkpt>
      <trkpt lat="47.56285" lon="6.82237">
        <ele>384</ele>
        <time>2016-04-10T10:07:45.000Z</time>
      </trkpt>
      <trkpt lat="47.56283" lon="6.8224">
        <ele>384</ele>
        <time>2016-04-10T10:07:46.000Z</time>
      </trkpt>
      <trkpt lat="47.5628" lon="6.8224">
        <ele>384</ele>
        <time>2016-04-10T10:07:47.000Z</time>
      </trkpt>
      <trkpt lat="47.56278" lon="6.82242">
        <ele>384</ele>
        <time>2016-04-10T10:07:48.000Z</time>
      </trkpt>
      <trkpt lat="47.56275" lon="6.82243">
        <ele>384</ele>
        <time>2016-04-10T10:07:49.000Z</time>
      </trkpt>
      <trkpt lat="47.56272" lon="6.82245">
        <ele>383</ele>
        <time>2016-04-10T10:07:50.000Z</time>
      </trkpt>
      <trkpt lat="47.5627" lon="6.82249">
        <ele>383</ele>
        <time>2016-04-10T10:07:51.000Z</time>
      </trkpt>
      <trkpt lat="47.56268" lon="6.82252">
        <ele>384</ele>
        <time>2016-04-10T10:07:52.000Z</time>
      </trkpt>
      <trkpt lat="47.56268" lon="6.82256">
        <ele>384</ele>
        <time>2016-04-10T10:07:53.000Z</time>
      </trkpt>
      <trkpt lat="47.5627" lon="6.82261">
        <ele>384</ele>
        <time>2016-04-10T10:07:54.000Z</time>
      </trkpt>
      <trkpt lat="47.56271" lon="6.82265">
        <ele>384</ele>
        <time>2016-04-10T10:07:55.000Z</time>
      </trkpt>
      <trkpt lat="47.56271" lon="6.82269">
        <ele>384</ele>
        <time>2016-04-10T10:07:56.000Z</time>
      </trkpt>
      <trkpt lat="47.5627" lon="6.82272">
        <ele>384</ele>
        <time>2016-04-10T10:07:57.000Z</time>
      </trkpt>
      <trkpt lat="47.56268" lon="6.82275">
        <ele>384</ele>
        <time>2016-04-10T10:07:58.000Z</time>
      </trkpt>
      <trkpt lat="47.56265" lon="6.82278">
        <ele>384</ele>
        <time>2016-04-10T10:07:59.000Z</time>
      </trkpt>
      <trkpt lat="47.56262" lon="6.8228">
        <ele>384</ele>
        <time>2016-04-10T10:08:00.000Z</time>
      </trkpt>
      <trkpt lat="47.5626" lon="6.82282">
        <ele>384</ele>
        <time>2016-04-10T10:08:01.000Z</time>
      </trkpt>
      <trkpt lat="47.56258" lon="6.82285">
        <ele>384</ele>
        <time>2016-04-10T10:08:02.000Z</time>
      </trkpt>
      <trkpt lat="47.56256" lon="6.82288">
        <ele>384</ele>
        <time>2016-04-10T10:08:03.000Z</time>
      </trkpt>
      <trkpt lat="47.56255" lon="6.8229">
        <ele>384</ele>
        <time>2016-04-10T10:08:04.000Z</time>
      </trkpt>
      <trkpt lat="47.56255" lon="6.82296">
        <ele>384</ele>
        <time>2016-04-10T10:08:06.000Z</time>
      </trkpt>
      <trkpt lat="47.56255" lon="6.82299">
        <ele>384</ele>
        <time>2016-04-10T10:08:07.000Z</time>
      </trkpt>
      <trkpt lat="47.56256" lon="6.82303">
        <ele>384</ele>
        <time>2016-04-10T10:08:08.000Z</time>
      </trkpt>
      <trkpt lat="47.56257" lon="6.82307">
        <ele>384</ele>
        <time>2016-04-10T10:08:09.000Z</time>
      </trkpt>
      <trkpt lat="47.56256" lon="6.82312">
        <ele>384</ele>
        <time>2016-04-10T10:08:10.000Z</time>
      </trkpt>
      <trkpt lat="47.56255" lon="6.82316">
        <ele>384</ele>
        <time>2016-04-10T10:08:11.000Z</time>
      </trkpt>
      <trkpt lat="47.56254" lon="6.8232">
        <ele>384</ele>
        <time>2016-04-10T10:08:12.000Z</time>
      </trkpt>
      <trkpt lat="47.56254" lon="6.82323">
        <ele>384</ele>
        <time>2016-04-10T10:08:13.000Z</time>
      </trkpt>
      <trkpt lat="47.56253" lon="6.82328">
        <ele>383</ele>
        <time>2016-04-10T10:08:15.000Z</time>
      </trkpt>
      <trkpt lat="47.56252" lon="6.8233">
        <ele>383</ele>
        <time>2016-04-10T10:08:16.000Z</time>
      </trkpt>
      <trkpt lat="47.5625" lon="6.82334">
        <ele>383</ele>
        <time>2016-04-10T10:08:18.000Z</time>
      </trkpt>
      <trkpt lat="47.5625" lon="6.82337">
        <ele>382</ele>
        <time>2016-04-10T10:08:19.000Z</time>
      </trkpt>
      <trkpt lat="47.56249" lon="6.82342">
        <ele>382</ele>
        <time>2016-04-10T10:08:21.000Z</time>
      </trkpt>
      <trkpt lat="47.56249" lon="6.82345">
        <ele>381</ele>
        <time>2016-04-10T10:08:22.000Z</time>
      </trkpt>
      <trkpt lat="47.56249" lon="6.82348">
        <ele>381</ele>
        <time>2016-04-10T10:08:23.000Z</time>
      </trkpt>
      <trkpt lat="47.56248" lon="6.82352">
        <ele>381</ele>
        <time>2016-04-10T10:08:24.000Z</time>
      </trkpt>
      <trkpt lat="47.56247" lon="6.82357">
        <ele>380</ele>
        <time>2016-04-10T10:08:25.000Z</time>
      </trkpt>
      <trkpt lat="47.56245" lon="6.82361">
        <ele>380</ele>
        <time>2016-04-10T10:08:26.000Z</time>
      </trkpt>
      <trkpt lat="47.56244" lon="6.82366">
        <ele>380</ele>
        <time>2016-04-10T10:08:27.000Z</time>
      </trkpt>
      <trkpt lat="47.56245" lon="6.82371">
        <ele>380</ele>
        <time>2016-04-10T10:08:28.000Z</time>
      </trkpt>
      <trkpt lat="47.56245" lon="6.82376">
        <ele>380</ele>
        <time>2016-04-10T10:08:29.000Z</time>
      </trkpt>
      <trkpt lat="47.56246" lon="6.8238">
        <ele>380</ele>
        <time>2016-04-10T10:08:30.000Z</time>
      </trkpt>
      <trkpt lat="47.56247" lon="6.82384">
        <ele>380</ele>
        <time>2016-04-10T10:08:31.000Z</time>
      </trkpt>
      <trkpt lat="47.56246" lon="6.82388">
        <ele>380</ele>
        <time>2016-04-10T10:08:32.000Z</time>
      </trkpt>
      <trkpt lat="47.56244" lon="6.82391">
        <ele>380</ele>
        <time>2016-04-10T10:08:33.000Z</time>
      </trkpt>
      <trkpt lat="47.56242" lon="6.82392">
        <ele>379</ele>
        <time>2016-04-10T10:08:34.000Z</time>
      </trkpt>
      <trkpt lat="47.56239" lon="6.82392">
        <ele>379</ele>
        <time>2016-04-10T10:08:35.000Z</time>
      </trkpt>
      <trkpt lat="47.56235" lon="6.82391">
        <ele>379</ele>
        <time>2016-04-10T10:08:36.000Z</time>
      </trkpt>
      <trkpt lat="47.56232" lon="6.82394">
        <ele>379</ele>
        <time>2016-04-10T10:08:38.000Z</time>
      </trkpt>
      <trkpt lat="47.56231" lon="6.82398">
        <ele>379</ele>
        <time>2016-04-10T10:08:39.000Z</time>
      </trkpt>
      <trkpt lat="47.56231" lon="6.82402">
        <ele>379</ele>
        <time>2016-04-10T10:08:40.000Z</time>
      </trkpt>
      <trkpt lat="47.56232" lon="6.82406">
        <ele>379</ele>
        <time>2016-04-10T10:08:41.000Z</time>
      </trkpt>
      <trkpt lat="47.56232" lon="6.82409">
        <ele>379</ele>
        <time>2016-04-10T10:08:42.000Z</time>
      </trkpt>
      <trkpt lat="47.56232" lon="6.82413">
        <ele>379</ele>
        <time>2016-04-10T10:08:43.000Z</time>
      </trkpt>
      <trkpt lat="47.56232" lon="6.82417">
        <ele>379</ele>
        <time>2016-04-10T10:08:44.000Z</time>
      </trkpt>
      <trkpt lat="47.56232" lon="6.82421">
        <ele>379</ele>
        <time>2016-04-10T10:08:45.000Z</time>
      </trkpt>
      <trkpt lat="47.56231" lon="6.82426">
        <ele>379</ele>
        <time>2016-04-10T10:08:46.000Z</time>
      </trkpt>
      <trkpt lat="47.56231" lon="6.82431">
        <ele>379</ele>
        <time>2016-04-10T10:08:47.000Z</time>
      </trkpt>
      <trkpt lat="47.5623" lon="6.82436">
        <ele>378</ele>
        <time>2016-04-10T10:08:48.000Z</time>
      </trkpt>
      <trkpt lat="47.5623" lon="6.82442">
        <ele>378</ele>
        <time>2016-04-10T10:08:49.000Z</time>
      </trkpt>
      <trkpt lat="47.5623" lon="6.82448">
        <ele>378</ele>
        <time>2016-04-10T10:08:50.000Z</time>
      </trkpt>
      <trkpt lat="47.56229" lon="6.82453">
        <ele>378</ele>
        <time>2016-04-10T10:08:51.000Z</time>
      </trkpt>
      <trkpt lat="47.56227" lon="6.82459">
        <ele>378</ele>
        <time>2016-04-10T10:08:52.000Z</time>
      </trkpt>
      <trkpt lat="47.56226" lon="6.82465">
        <ele>378</ele>
        <time>2016-04-10T10:08:53.000Z</time>
      </trkpt>
      <trkpt lat="47.56224" lon="6.8247">
        <ele>378</ele>
        <time>2016-04-10T10:08:54.000Z</time>
      </trkpt>
      <trkpt lat="47.56223" lon="6.82476">
        <ele>378</ele>
        <time>2016-04-10T10:08:55.000Z</time>
      </trkpt>
      <trkpt lat="47.56222" lon="6.82481">
        <ele>378</ele>
        <time>2016-04-10T10:08:56.000Z</time>
      </trkpt>
      <trkpt lat="47.5622" lon="6.82487">
        <ele>378</ele>
        <time>2016-04-10T10:08:57.000Z</time>
      </trkpt>
      <trkpt lat="47.56219" lon="6.82491">
        <ele>378</ele>
        <time>2016-04-10T10:08:58.000Z</time>
      </trkpt>
      <trkpt lat="47.56217" lon="6.82496">
        <ele>377</ele>
        <time>2016-04-10T10:08:59.000Z</time>
      </trkpt>
      <trkpt lat="47.56215" lon="6.82501">
        <ele>377</ele>
        <time>2016-04-10T10:09:00.000Z</time>
      </trkpt>
      <trkpt lat="47.56213" lon="6.82506">
        <ele>377</ele>
        <time>2016-04-10T10:09:01.000Z</time>
      </trkpt>
      <trkpt lat="47.5621" lon="6.82511">
        <ele>377</ele>
        <time>2016-04-10T10:09:02.000Z</time>
      </trkpt>
      <trkpt lat="47.56207" lon="6.82517">
        <ele>377</ele>
        <time>2016-04-10T10:09:03.000Z</time>
      </trkpt>
      <trkpt lat="47.56206" lon="6.82523">
        <ele>377</ele>
        <time>2016-04-10T10:09:04.000Z</time>
      </trkpt>
      <trkpt lat="47.56205" lon="6.82529">
        <ele>377</ele>
        <time>2016-04-10T10:09:05.000Z</time>
      </trkpt>
      <trkpt lat="47.56204" lon="6.82535">
        <ele>376</ele>
        <time>2016-04-10T10:09:06.000Z</time>
      </trkpt>
      <trkpt lat="47.56203" lon="6.82541">
        <ele>376</ele>
        <time>2016-04-10T10:09:07.000Z</time>
      </trkpt>
      <trkpt lat="47.56201" lon="6.82546">
        <ele>376</ele>
        <time>2016-04-10T10:09:08.000Z</time>
      </trkpt>
      <trkpt lat="47.56199" lon="6.82551">
        <ele>376</ele>
        <time>2016-04-10T10:09:09.000Z</time>
      </trkpt>
      <trkpt lat="47.56196" lon="6.82555">
        <ele>376</ele>
        <time>2016-04-10T10:09:10.000Z</time>
      </trkpt>
      <trkpt lat="47.56193" lon="6.82559">
        <ele>376</ele>
        <time>2016-04-10T10:09:11.000Z</time>
      </trkpt>
      <trkpt lat="47.56191" lon="6.82563">
        <ele>376</ele>
        <time>2016-04-10T10:09:12.000Z</time>
      </trkpt>
      <trkpt lat="47.56189" lon="6.82567">
        <ele>377</ele>
        <time>2016-04-10T10:09:13.000Z</time>
      </trkpt>
      <trkpt lat="47.56186" lon="6.82571">
        <ele>377</ele>
        <time>2016-04-10T10:09:14.000Z</time>
      </trkpt>
      <trkpt lat="47.56183" lon="6.82573">
        <ele>377</ele>
        <time>2016-04-10T10:09:15.000Z</time>
      </trkpt>
      <trkpt lat="47.56179" lon="6.82574">
        <ele>377</ele>
        <time>2016-04-10T10:09:16.000Z</time>
      </trkpt>
      <trkpt lat="47.56175" lon="6.82574">
        <ele>377</ele>
        <time>2016-04-10T10:09:17.000Z</time>
      </trkpt>
      <trkpt lat="47.5617" lon="6.82574">
        <ele>377</ele>
        <time>2016-04-10T10:09:18.000Z</time>
      </trkpt>
      <trkpt lat="47.56167" lon="6.82574">
        <ele>377</ele>
        <time>2016-04-10T10:09:19.000Z</time>
      </trkpt>
      <trkpt lat="47.56164" lon="6.82576">
        <ele>376</ele>
        <time>2016-04-10T10:09:20.000Z</time>
      </trkpt>
      <trkpt lat="47.56161" lon="6.82578">
        <ele>376</ele>
        <time>2016-04-10T10:09:21.000Z</time>
      </trkpt>
      <trkpt lat="47.5616" lon="6.82582">
        <ele>376</ele>
        <time>2016-04-10T10:09:22.000Z</time>
      </trkpt>
      <trkpt lat="47.56158" lon="6.82586">
        <ele>376</ele>
        <time>2016-04-10T10:09:23.000Z</time>
      </trkpt>
      <trkpt lat="47.56156" lon="6.8259">
        <ele>376</ele>
        <time>2016-04-10T10:09:24.000Z</time>
      </trkpt>
      <trkpt lat="47.56155" lon="6.82593">
        <ele>375</ele>
        <time>2016-04-10T10:09:25.000Z</time>
      </trkpt>
      <trkpt lat="47.56154" lon="6.82596">
        <ele>375</ele>
        <time>2016-04-10T10:09:26.000Z</time>
      </trkpt>
      <trkpt lat="47.56153" lon="6.826">
        <ele>375</ele>
        <time>2016-04-10T10:09:27.000Z</time>
      </trkpt>
      <trkpt lat="47.56151" lon="6.82605">
        <ele>374</ele>
        <time>2016-04-10T10:09:28.000Z</time>
      </trkpt>
      <trkpt lat="47.56149" lon="6.82609">
        <ele>374</ele>
        <time>2016-04-10T10:09:29.000Z</time>
      </trkpt>
      <trkpt lat="47.56146" lon="6.82613">
        <ele>374</ele>
        <time>2016-04-10T10:09:30.000Z</time>
      </trkpt>
      <trkpt lat="47.56143" lon="6.82616">
        <ele>374</ele>
        <time>2016-04-10T10:09:31.000Z</time>
      </trkpt>
      <trkpt lat="47.56141" lon="6.82617">
        <ele>374</ele>
        <time>2016-04-10T10:09:32.000Z</time>
      </trkpt>
      <trkpt lat="47.56138" lon="6.82618">
        <ele>374</ele>
        <time>2016-04-10T10:09:33.000Z</time>
      </trkpt>
      <trkpt lat="47.56135" lon="6.82617">
        <ele>374</ele>
        <time>2016-04-10T10:09:34.000Z</time>
      </trkpt>
      <trkpt lat="47.56133" lon="6.82615">
        <ele>374</ele>
        <time>2016-04-10T10:09:35.000Z</time>
      </trkpt>
      <trkpt lat="47.56131" lon="6.82612">
        <ele>374</ele>
        <time>2016-04-10T10:09:36.000Z</time>
      </trkpt>
      <trkpt lat="47.56129" lon="6.82608">
        <ele>374</ele>
        <time>2016-04-10T10:09:37.000Z</time>
      </trkpt>
      <trkpt lat="47.56128" lon="6.82604">
        <ele>374</ele>
        <time>2016-04-10T10:09:38.000Z</time>
      </trkpt>
      <trkpt lat="47.56126" lon="6.826">
        <ele>374</ele>
        <time>2016-04-10T10:09:39.000Z</time>
      </trkpt>
      <trkpt lat="47.56122" lon="6.82596">
        <ele>374</ele>
        <time>2016-04-10T10:09:40.000Z</time>
      </trkpt>
      <trkpt lat="47.56119" lon="6.82591">
        <ele>373</ele>
        <time>2016-04-10T10:09:41.000Z</time>
      </trkpt>
      <trkpt lat="47.56115" lon="6.82586">
        <ele>373</ele>
        <time>2016-04-10T10:09:42.000Z</time>
      </trkpt>
      <trkpt lat="47.56112" lon="6.82581">
        <ele>373</ele>
        <time>2016-04-10T10:09:43.000Z</time>
      </trkpt>
      <trkpt lat="47.56108" lon="6.82576">
        <ele>373</ele>
        <time>2016-04-10T10:09:44.000Z</time>
      </trkpt>
      <trkpt lat="47.56105" lon="6.82571">
        <ele>373</ele>
        <time>2016-04-10T10:09:45.000Z</time>
      </trkpt>
      <trkpt lat="47.56103" lon="6.82566">
        <ele>373</ele>
        <time>2016-04-10T10:09:46.000Z</time>
      </trkpt>
      <trkpt lat="47.561" lon="6.82562">
        <ele>373</ele>
        <time>2016-04-10T10:09:47.000Z</time>
      </trkpt>
      <trkpt lat="47.56098" lon="6.82557">
        <ele>373</ele>
        <time>2016-04-10T10:09:48.000Z</time>
      </trkpt>
      <trkpt lat="47.56096" lon="6.82553">
        <ele>373</ele>
        <time>2016-04-10T10:09:49.000Z</time>
      </trkpt>
      <trkpt lat="47.56095" lon="6.82548">
        <ele>373</ele>
        <time>2016-04-10T10:09:50.000Z</time>
      </trkpt>
      <trkpt lat="47.56093" lon="6.82544">
        <ele>372</ele>
        <time>2016-04-10T10:09:51.000Z</time>
      </trkpt>
      <trkpt lat="47.56092" lon="6.8254">
        <ele>372</ele>
        <time>2016-04-10T10:09:52.000Z</time>
      </trkpt>
      <trkpt lat="47.5609" lon="6.82536">
        <ele>372</ele>
        <time>2016-04-10T10:09:53.000Z</time>
      </trkpt>
      <trkpt lat="47.56088" lon="6.82533">
        <ele>372</ele>
        <time>2016-04-10T10:09:54.000Z</time>
      </trkpt>
      <trkpt lat="47.56086" lon="6.8253">
        <ele>372</ele>
        <time>2016-04-10T10:09:55.000Z</time>
      </trkpt>
      <trkpt lat="47.56083" lon="6.82526">
        <ele>367</ele>
        <time>2016-04-10T10:09:56.000Z</time>
      </trkpt>
      <trkpt lat="47.5608" lon="6.82523">
        <ele>367</ele>
        <time>2016-04-10T10:09:57.000Z</time>
      </trkpt>
      <trkpt lat="47.56077" lon="6.82521">
        <ele>367</ele>
        <time>2016-04-10T10:09:58.000Z</time>
      </trkpt>
      <trkpt lat="47.56074" lon="6.82518">
        <ele>367</ele>
        <time>2016-04-10T10:09:59.000Z</time>
      </trkpt>
      <trkpt lat="47.56071" lon="6.82516">
        <ele>367</ele>
        <time>2016-04-10T10:10:00.000Z</time>
      </trkpt>
      <trkpt lat="47.56067" lon="6.82514">
        <ele>367</ele>
        <time>2016-04-10T10:10:01.000Z</time>
      </trkpt>
      <trkpt lat="47.56063" lon="6.82511">
        <ele>367</ele>
        <time>2016-04-10T10:10:02.000Z</time>
      </trkpt>
      <trkpt lat="47.56058" lon="6.82508">
        <ele>367</ele>
        <time>2016-04-10T10:10:03.000Z</time>
      </trkpt>
      <trkpt lat="47.56053" lon="6.82504">
        <ele>366</ele>
        <time>2016-04-10T10:10:04.000Z</time>
      </trkpt>
      <trkpt lat="47.56048" lon="6.82501">
        <ele>366</ele>
        <time>2016-04-10T10:10:05.000Z</time>
      </trkpt>
      <trkpt lat="47.56037" lon="6.82495">
        <ele>365</ele>
        <time>2016-04-10T10:10:06.000Z</time>
      </trkpt>
      <trkpt lat="47.56028" lon="6.82491">
        <ele>364</ele>
        <time>2016-04-10T10:10:07.000Z</time>
      </trkpt>
      <trkpt lat="47.56022" lon="6.82489">
        <ele>364</ele>
        <time>2016-04-10T10:10:08.000Z</time>
      </trkpt>
      <trkpt lat="47.56017" lon="6.82486">
        <ele>363</ele>
        <time>2016-04-10T10:10:09.000Z</time>
      </trkpt>
      <trkpt lat="47.56011" lon="6.82483">
        <ele>363</ele>
        <time>2016-04-10T10:10:10.000Z</time>
      </trkpt>
      <trkpt lat="47.56007" lon="6.8248">
        <ele>363</ele>
        <time>2016-04-10T10:10:11.000Z</time>
      </trkpt>
      <trkpt lat="47.56" lon="6.82474">
        <ele>363</ele>
        <time>2016-04-10T10:10:12.000Z</time>
      </trkpt>
      <trkpt lat="47.55993" lon="6.82465">
        <ele>364</ele>
        <time>2016-04-10T10:10:13.000Z</time>
      </trkpt>
      <trkpt lat="47.5599" lon="6.82459">
        <ele>364</ele>
        <time>2016-04-10T10:10:14.000Z</time>
      </trkpt>
      <trkpt lat="47.55985" lon="6.82452">
        <ele>364</ele>
        <time>2016-04-10T10:10:15.000Z</time>
      </trkpt>
      <trkpt lat="47.5598" lon="6.82444">
        <ele>364</ele>
        <time>2016-04-10T10:10:16.000Z</time>
      </trkpt>
      <trkpt lat="47.55978" lon="6.82438">
        <ele>364</ele>
        <time>2016-04-10T10:10:17.000Z</time>
      </trkpt>
      <trkpt lat="47.55976" lon="6.82431">
        <ele>364</ele>
        <time>2016-04-10T10:10:18.000Z</time>
      </trkpt>
      <trkpt lat="47.55978" lon="6.82427">
        <ele>364</ele>
        <time>2016-04-10T10:10:19.000Z</time>
      </trkpt>
      <trkpt lat="47.55977" lon="6.8242">
        <ele>364</ele>
        <time>2016-04-10T10:10:20.000Z</time>
      </trkpt>
      <trkpt lat="47.55977" lon="6.82415">
        <ele>364</ele>
        <time>2016-04-10T10:10:21.000Z</time>
      </trkpt>
      <trkpt lat="47.55977" lon="6.8241">
        <ele>364</ele>
        <time>2016-04-10T10:10:22.000Z</time>
      </trkpt>
      <trkpt lat="47.55978" lon="6.82403">
        <ele>364</ele>
        <time>2016-04-10T10:10:23.000Z</time>
      </trkpt>
      <trkpt lat="47.55979" lon="6.82398">
        <ele>364</ele>
        <time>2016-04-10T10:10:24.000Z</time>
      </trkpt>
      <trkpt lat="47.55979" lon="6.82392">
        <ele>364</ele>
        <time>2016-04-10T10:10:25.000Z</time>
      </trkpt>
      <trkpt lat="47.55979" lon="6.82386">
        <ele>364</ele>
        <time>2016-04-10T10:10:26.000Z</time>
      </trkpt>
      <trkpt lat="47.55979" lon="6.82381">
        <ele>364</ele>
        <time>2016-04-10T10:10:27.000Z</time>
      </trkpt>
      <trkpt lat="47.55979" lon="6.82377">
        <ele>364</ele>
        <time>2016-04-10T10:10:28.000Z</time>
      </trkpt>
      <trkpt lat="47.55979" lon="6.82373">
        <ele>364</ele>
        <time>2016-04-10T10:10:29.000Z</time>
      </trkpt>
      <trkpt lat="47.55979" lon="6.82368">
        <ele>364</ele>
        <time>2016-04-10T10:10:30.000Z</time>
      </trkpt>
      <trkpt lat="47.55979" lon="6.82363">
        <ele>364</ele>
        <time>2016-04-10T10:10:31.000Z</time>
      </trkpt>
      <trkpt lat="47.55979" lon="6.82356">
        <ele>364</ele>
        <time>2016-04-10T10:10:32.000Z</time>
      </trkpt>
      <trkpt lat="47.55979" lon="6.8235">
        <ele>364</ele>
        <time>2016-04-10T10:10:33.000Z</time>
      </trkpt>
      <trkpt lat="47.55979" lon="6.82344">
        <ele>364</ele>
        <time>2016-04-10T10:10:34.000Z</time>
      </trkpt>
      <trkpt lat="47.55979" lon="6.82338">
        <ele>364</ele>
        <time>2016-04-10T10:10:35.000Z</time>
      </trkpt>
      <trkpt lat="47.55978" lon="6.82333">
        <ele>363</ele>
        <time>2016-04-10T10:10:36.000Z</time>
      </trkpt>
      <trkpt lat="47.55978" lon="6.82328">
        <ele>363</ele>
        <time>2016-04-10T10:10:37.000Z</time>
      </trkpt>
      <trkpt lat="47.55977" lon="6.82323">
        <ele>363</ele>
        <time>2016-04-10T10:10:38.000Z</time>
      </trkpt>
      <trkpt lat="47.55977" lon="6.82318">
        <ele>363</ele>
        <time>2016-04-10T10:10:39.000Z</time>
      </trkpt>
      <trkpt lat="47.55977" lon="6.82314">
        <ele>363</ele>
        <time>2016-04-10T10:10:40.000Z</time>
      </trkpt>
      <trkpt lat="47.55976" lon="6.82309">
        <ele>363</ele>
        <time>2016-04-10T10:10:41.000Z</time>
      </trkpt>
      <trkpt lat="47.55976" lon="6.82304">
        <ele>363</ele>
        <time>2016-04-10T10:10:42.000Z</time>
      </trkpt>
      <trkpt lat="47.55975" lon="6.823">
        <ele>363</ele>
        <time>2016-04-10T10:10:43.000Z</time>
      </trkpt>
      <trkpt lat="47.55975" lon="6.82295">
        <ele>363</ele>
        <time>2016-04-10T10:10:44.000Z</time>
      </trkpt>
      <trkpt lat="47.55974" lon="6.82291">
        <ele>363</ele>
        <time>2016-04-10T10:10:45.000Z</time>
      </trkpt>
      <trkpt lat="47.55974" lon="6.82286">
        <ele>363</ele>
        <time>2016-04-10T10:10:46.000Z</time>
      </trkpt>
      <trkpt lat="47.55974" lon="6.82281">
        <ele>363</ele>
        <time>2016-04-10T10:10:47.000Z</time>
      </trkpt>
      <trkpt lat="47.55974" lon="6.82277">
        <ele>363</ele>
        <time>2016-04-10T10:10:48.000Z</time>
      </trkpt>
      <trkpt lat="47.55974" lon="6.82272">
        <ele>363</ele>
        <time>2016-04-10T10:10:49.000Z</time>
      </trkpt>
      <trkpt lat="47.55973" lon="6.82267">
        <ele>363</ele>
        <time>2016-04-10T10:10:50.000Z</time>
      </trkpt>
      <trkpt lat="47.55973" lon="6.82263">
        <ele>363</ele>
        <time>2016-04-10T10:10:51.000Z</time>
      </trkpt>
      <trkpt lat="47.55973" lon="6.82259">
        <ele>363</ele>
        <time>2016-04-10T10:10:52.000Z</time>
      </trkpt>
      <trkpt lat="47.55973" lon="6.82255">
        <ele>363</ele>
        <time>2016-04-10T10:10:53.000Z</time>
      </trkpt>
      <trkpt lat="47.55973" lon="6.8225">
        <ele>361</ele>
        <time>2016-04-10T10:10:54.000Z</time>
      </trkpt>
      <trkpt lat="47.55972" lon="6.82245">
        <ele>361</ele>
        <time>2016-04-10T10:10:55.000Z</time>
      </trkpt>
      <trkpt lat="47.55971" lon="6.82239">
        <ele>361</ele>
        <time>2016-04-10T10:10:56.000Z</time>
      </trkpt>
      <trkpt lat="47.5597" lon="6.82234">
        <ele>362</ele>
        <time>2016-04-10T10:10:57.000Z</time>
      </trkpt>
      <trkpt lat="47.55969" lon="6.82229">
        <ele>362</ele>
        <time>2016-04-10T10:10:58.000Z</time>
      </trkpt>
      <trkpt lat="47.55966" lon="6.82226">
        <ele>362</ele>
        <time>2016-04-10T10:10:59.000Z</time>
      </trkpt>
      <trkpt lat="47.55964" lon="6.82222">
        <ele>362</ele>
        <time>2016-04-10T10:11:00.000Z</time>
      </trkpt>
      <trkpt lat="47.55962" lon="6.82219">
        <ele>362</ele>
        <time>2016-04-10T10:11:01.000Z</time>
      </trkpt>
      <trkpt lat="47.55959" lon="6.82216">
        <ele>362</ele>
        <time>2016-04-10T10:11:02.000Z</time>
      </trkpt>
      <trkpt lat="47.55957" lon="6.82214">
        <ele>362</ele>
        <time>2016-04-10T10:11:03.000Z</time>
      </trkpt>
      <trkpt lat="47.55955" lon="6.82212">
        <ele>362</ele>
        <time>2016-04-10T10:11:04.000Z</time>
      </trkpt>
      <trkpt lat="47.55952" lon="6.8221">
        <ele>362</ele>
        <time>2016-04-10T10:11:05.000Z</time>
      </trkpt>
      <trkpt lat="47.5595" lon="6.82208">
        <ele>362</ele>
        <time>2016-04-10T10:11:06.000Z</time>
      </trkpt>
      <trkpt lat="47.55948" lon="6.82207">
        <ele>362</ele>
        <time>2016-04-10T10:11:07.000Z</time>
      </trkpt>
      <trkpt lat="47.55944" lon="6.82204">
        <ele>362</ele>
        <time>2016-04-10T10:11:09.000Z</time>
      </trkpt>
      <trkpt lat="47.55942" lon="6.82203">
        <ele>362</ele>
        <time>2016-04-10T10:11:10.000Z</time>
      </trkpt>
      <trkpt lat="47.55938" lon="6.82201">
        <ele>362</ele>
        <time>2016-04-10T10:11:12.000Z</time>
      </trkpt>
      <trkpt lat="47.55937" lon="6.822">
        <ele>362</ele>
        <time>2016-04-10T10:11:13.000Z</time>
      </trkpt>
      <trkpt lat="47.55933" lon="6.82198">
        <ele>362</ele>
        <time>2016-04-10T10:11:15.000Z</time>
      </trkpt>
      <trkpt lat="47.55932" lon="6.82196">
        <ele>362</ele>
        <time>2016-04-10T10:11:16.000Z</time>
      </trkpt>
      <trkpt lat="47.55929" lon="6.82195">
        <ele>362</ele>
        <time>2016-04-10T10:11:18.000Z</time>
      </trkpt>
      <trkpt lat="47.55927" lon="6.82194">
        <ele>362</ele>
        <time>2016-04-10T10:11:19.000Z</time>
      </trkpt>
      <trkpt lat="47.55924" lon="6.82193">
        <ele>362</ele>
        <time>2016-04-10T10:11:21.000Z</time>
      </trkpt>
      <trkpt lat="47.55923" lon="6.82193">
        <ele>362</ele>
        <time>2016-04-10T10:11:22.000Z</time>
      </trkpt>
      <trkpt lat="47.55919" lon="6.82191">
        <ele>362</ele>
        <time>2016-04-10T10:11:25.000Z</time>
      </trkpt>
      <trkpt lat="47.55917" lon="6.8219">
        <ele>362</ele>
        <time>2016-04-10T10:11:26.000Z</time>
      </trkpt>
      <trkpt lat="47.55913" lon="6.82188">
        <ele>366</ele>
        <time>2016-04-10T10:11:28.000Z</time>
      </trkpt>
      <trkpt lat="47.55911" lon="6.82186">
        <ele>366</ele>
        <time>2016-04-10T10:11:29.000Z</time>
      </trkpt>
      <trkpt lat="47.55909" lon="6.82185">
        <ele>366</ele>
        <time>2016-04-10T10:11:30.000Z</time>
      </trkpt>
      <trkpt lat="47.55906" lon="6.82184">
        <ele>366</ele>
        <time>2016-04-10T10:11:31.000Z</time>
      </trkpt>
      <trkpt lat="47.55904" lon="6.82183">
        <ele>367</ele>
        <time>2016-04-10T10:11:32.000Z</time>
      </trkpt>
      <trkpt lat="47.55902" lon="6.82182">
        <ele>367</ele>
        <time>2016-04-10T10:11:33.000Z</time>
      </trkpt>
      <trkpt lat="47.55898" lon="6.82181">
        <ele>367</ele>
        <time>2016-04-10T10:11:35.000Z</time>
      </trkpt>
      <trkpt lat="47.55897" lon="6.82181">
        <ele>367</ele>
        <time>2016-04-10T10:11:36.000Z</time>
      </trkpt>
      <trkpt lat="47.55894" lon="6.8218">
        <ele>367</ele>
        <time>2016-04-10T10:11:38.000Z</time>
      </trkpt>
      <trkpt lat="47.55892" lon="6.82179">
        <ele>368</ele>
        <time>2016-04-10T10:11:39.000Z</time>
      </trkpt>
      <trkpt lat="47.55889" lon="6.82178">
        <ele>368</ele>
        <time>2016-04-10T10:11:41.000Z</time>
      </trkpt>
      <trkpt lat="47.55887" lon="6.82177">
        <ele>368</ele>
        <time>2016-04-10T10:11:42.000Z</time>
      </trkpt>
      <trkpt lat="47.55885" lon="6.82176">
        <ele>368</ele>
        <time>2016-04-10T10:11:43.000Z</time>
      </trkpt>
      <trkpt lat="47.55882" lon="6.82175">
        <ele>368</ele>
        <time>2016-04-10T10:11:44.000Z</time>
      </trkpt>
      <trkpt lat="47.5588" lon="6.82175">
        <ele>369</ele>
        <time>2016-04-10T10:11:45.000Z</time>
      </trkpt>
      <trkpt lat="47.55877" lon="6.82174">
        <ele>369</ele>
        <time>2016-04-10T10:11:46.000Z</time>
      </trkpt>
      <trkpt lat="47.55875" lon="6.82173">
        <ele>369</ele>
        <time>2016-04-10T10:11:47.000Z</time>
      </trkpt>
      <trkpt lat="47.55872" lon="6.82172">
        <ele>369</ele>
        <time>2016-04-10T10:11:48.000Z</time>
      </trkpt>
      <trkpt lat="47.5587" lon="6.82171">
        <ele>369</ele>
        <time>2016-04-10T10:11:49.000Z</time>
      </trkpt>
      <trkpt lat="47.55868" lon="6.82169">
        <ele>370</ele>
        <time>2016-04-10T10:11:50.000Z</time>
      </trkpt>
      <trkpt lat="47.55864" lon="6.82166">
        <ele>369</ele>
        <time>2016-04-10T10:11:52.000Z</time>
      </trkpt>
      <trkpt lat="47.55862" lon="6.82165">
        <ele>369</ele>
        <time>2016-04-10T10:11:53.000Z</time>
      </trkpt>
      <trkpt lat="47.55858" lon="6.82162">
        <ele>370</ele>
        <time>2016-04-10T10:11:55.000Z</time>
      </trkpt>
      <trkpt lat="47.55856" lon="6.8216">
        <ele>370</ele>
        <time>2016-04-10T10:11:56.000Z</time>
      </trkpt>
      <trkpt lat="47.55852" lon="6.82158">
        <ele>370</ele>
        <time>2016-04-10T10:11:58.000Z</time>
      </trkpt>
      <trkpt lat="47.5585" lon="6.82157">
        <ele>370</ele>
        <time>2016-04-10T10:11:59.000Z</time>
      </trkpt>
      <trkpt lat="47.55846" lon="6.82154">
        <ele>370</ele>
        <time>2016-04-10T10:12:01.000Z</time>
      </trkpt>
      <trkpt lat="47.55844" lon="6.82153">
        <ele>370</ele>
        <time>2016-04-10T10:12:02.000Z</time>
      </trkpt>
      <trkpt lat="47.55841" lon="6.8215">
        <ele>370</ele>
        <time>2016-04-10T10:12:04.000Z</time>
      </trkpt>
      <trkpt lat="47.55839" lon="6.82149">
        <ele>370</ele>
        <time>2016-04-10T10:12:05.000Z</time>
      </trkpt>
      <trkpt lat="47.55836" lon="6.82147">
        <ele>370</ele>
        <time>2016-04-10T10:12:07.000Z</time>
      </trkpt>
      <trkpt lat="47.55835" lon="6.82146">
        <ele>370</ele>
        <time>2016-04-10T10:12:08.000Z</time>
      </trkpt>
      <trkpt lat="47.55832" lon="6.82144">
        <ele>375</ele>
        <time>2016-04-10T10:12:10.000Z</time>
      </trkpt>
      <trkpt lat="47.55831" lon="6.82143">
        <ele>375</ele>
        <time>2016-04-10T10:12:11.000Z</time>
      </trkpt>
      <trkpt lat="47.55828" lon="6.82141">
        <ele>375</ele>
        <time>2016-04-10T10:12:13.000Z</time>
      </trkpt>
      <trkpt lat="47.55826" lon="6.82141">
        <ele>375</ele>
        <time>2016-04-10T10:12:14.000Z</time>
      </trkpt>
      <trkpt lat="47.55823" lon="6.82139">
        <ele>375</ele>
        <time>2016-04-10T10:12:16.000Z</time>
      </trkpt>
      <trkpt lat="47.55822" lon="6.82137">
        <ele>375</ele>
        <time>2016-04-10T10:12:17.000Z</time>
      </trkpt>
      <trkpt lat="47.55818" lon="6.8214">
        <ele>375</ele>
        <time>2016-04-10T10:12:19.000Z</time>
      </trkpt>
      <trkpt lat="47.55816" lon="6.82141">
        <ele>375</ele>
        <time>2016-04-10T10:12:20.000Z</time>
      </trkpt>
      <trkpt lat="47.55812" lon="6.82139">
        <ele>375</ele>
        <time>2016-04-10T10:12:23.000Z</time>
      </trkpt>
      <trkpt lat="47.55811" lon="6.82138">
        <ele>375</ele>
        <time>2016-04-10T10:12:24.000Z</time>
      </trkpt>
      <trkpt lat="47.55808" lon="6.82135">
        <ele>376</ele>
        <time>2016-04-10T10:12:27.000Z</time>
      </trkpt>
      <trkpt lat="47.55807" lon="6.82134">
        <ele>376</ele>
        <time>2016-04-10T10:12:28.000Z</time>
      </trkpt>
      <trkpt lat="47.55804" lon="6.82131">
        <ele>376</ele>
        <time>2016-04-10T10:12:31.000Z</time>
      </trkpt>
      <trkpt lat="47.55802" lon="6.8213">
        <ele>376</ele>
        <time>2016-04-10T10:12:32.000Z</time>
      </trkpt>
      <trkpt lat="47.55799" lon="6.82127">
        <ele>376</ele>
        <time>2016-04-10T10:12:34.000Z</time>
      </trkpt>
      <trkpt lat="47.55797" lon="6.82127">
        <ele>376</ele>
        <time>2016-04-10T10:12:35.000Z</time>
      </trkpt>
      <trkpt lat="47.55793" lon="6.82125">
        <ele>376</ele>
        <time>2016-04-10T10:12:37.000Z</time>
      </trkpt>
      <trkpt lat="47.55792" lon="6.82123">
        <ele>376</ele>
        <time>2016-04-10T10:12:38.000Z</time>
      </trkpt>
      <trkpt lat="47.55788" lon="6.8212">
        <ele>376</ele>
        <time>2016-04-10T10:12:41.000Z</time>
      </trkpt>
      <trkpt lat="47.55787" lon="6.8212">
        <ele>376</ele>
        <time>2016-04-10T10:12:42.000Z</time>
      </trkpt>
      <trkpt lat="47.55784" lon="6.82118">
        <ele>377</ele>
        <time>2016-04-10T10:12:44.000Z</time>
      </trkpt>
      <trkpt lat="47.55783" lon="6.82118">
        <ele>377</ele>
        <time>2016-04-10T10:12:45.000Z</time>
      </trkpt>
      <trkpt lat="47.55779" lon="6.82117">
        <ele>377</ele>
        <time>2016-04-10T10:12:47.000Z</time>
      </trkpt>
      <trkpt lat="47.55778" lon="6.82116">
        <ele>377</ele>
        <time>2016-04-10T10:12:48.000Z</time>
      </trkpt>
      <trkpt lat="47.55774" lon="6.82115">
        <ele>377</ele>
        <time>2016-04-10T10:12:50.000Z</time>
      </trkpt>
      <trkpt lat="47.55772" lon="6.82114">
        <ele>377</ele>
        <time>2016-04-10T10:12:51.000Z</time>
      </trkpt>
      <trkpt lat="47.55769" lon="6.82113">
        <ele>377</ele>
        <time>2016-04-10T10:12:53.000Z</time>
      </trkpt>
      <trkpt lat="47.55767" lon="6.82112">
        <ele>377</ele>
        <time>2016-04-10T10:12:54.000Z</time>
      </trkpt>
      <trkpt lat="47.55764" lon="6.8211">
        <ele>378</ele>
        <time>2016-04-10T10:12:56.000Z</time>
      </trkpt>
      <trkpt lat="47.55762" lon="6.82109">
        <ele>378</ele>
        <time>2016-04-10T10:12:57.000Z</time>
      </trkpt>
      <trkpt lat="47.55759" lon="6.82107">
        <ele>378</ele>
        <time>2016-04-10T10:12:59.000Z</time>
      </trkpt>
      <trkpt lat="47.55757" lon="6.82106">
        <ele>378</ele>
        <time>2016-04-10T10:13:00.000Z</time>
      </trkpt>
      <trkpt lat="47.55753" lon="6.82105">
        <ele>378</ele>
        <time>2016-04-10T10:13:02.000Z</time>
      </trkpt>
      <trkpt lat="47.55751" lon="6.82105">
        <ele>378</ele>
        <time>2016-04-10T10:13:03.000Z</time>
      </trkpt>
      <trkpt lat="47.55747" lon="6.82105">
        <ele>382</ele>
        <time>2016-04-10T10:13:05.000Z</time>
      </trkpt>
      <trkpt lat="47.55745" lon="6.82104">
        <ele>382</ele>
        <time>2016-04-10T10:13:06.000Z</time>
      </trkpt>
      <trkpt lat="47.55741" lon="6.82104">
        <ele>382</ele>
        <time>2016-04-10T10:13:08.000Z</time>
      </trkpt>
      <trkpt lat="47.55739" lon="6.82103">
        <ele>382</ele>
        <time>2016-04-10T10:13:09.000Z</time>
      </trkpt>
      <trkpt lat="47.55735" lon="6.82102">
        <ele>383</ele>
        <time>2016-04-10T10:13:11.000Z</time>
      </trkpt>
      <trkpt lat="47.55733" lon="6.821">
        <ele>383</ele>
        <time>2016-04-10T10:13:12.000Z</time>
      </trkpt>
      <trkpt lat="47.5573" lon="6.82098">
        <ele>383</ele>
        <time>2016-04-10T10:13:14.000Z</time>
      </trkpt>
      <trkpt lat="47.55729" lon="6.82098">
        <ele>383</ele>
        <time>2016-04-10T10:13:15.000Z</time>
      </trkpt>
      <trkpt lat="47.55726" lon="6.82095">
        <ele>383</ele>
        <time>2016-04-10T10:13:18.000Z</time>
      </trkpt>
      <trkpt lat="47.55725" lon="6.82094">
        <ele>383</ele>
        <time>2016-04-10T10:13:19.000Z</time>
      </trkpt>
      <trkpt lat="47.55721" lon="6.82092">
        <ele>383</ele>
        <time>2016-04-10T10:13:21.000Z</time>
      </trkpt>
      <trkpt lat="47.55719" lon="6.8209">
        <ele>383</ele>
        <time>2016-04-10T10:13:22.000Z</time>
      </trkpt>
      <trkpt lat="47.55717" lon="6.82089">
        <ele>383</ele>
        <time>2016-04-10T10:13:23.000Z</time>
      </trkpt>
      <trkpt lat="47.55714" lon="6.82088">
        <ele>384</ele>
        <time>2016-04-10T10:13:24.000Z</time>
      </trkpt>
      <trkpt lat="47.55712" lon="6.82087">
        <ele>384</ele>
        <time>2016-04-10T10:13:25.000Z</time>
      </trkpt>
      <trkpt lat="47.5571" lon="6.82086">
        <ele>384</ele>
        <time>2016-04-10T10:13:26.000Z</time>
      </trkpt>
      <trkpt lat="47.55706" lon="6.82083">
        <ele>382</ele>
        <time>2016-04-10T10:13:28.000Z</time>
      </trkpt>
      <trkpt lat="47.55703" lon="6.82082">
        <ele>382</ele>
        <time>2016-04-10T10:13:29.000Z</time>
      </trkpt>
      <trkpt lat="47.55701" lon="6.8208">
        <ele>383</ele>
        <time>2016-04-10T10:13:30.000Z</time>
      </trkpt>
      <trkpt lat="47.55699" lon="6.82079">
        <ele>383</ele>
        <time>2016-04-10T10:13:31.000Z</time>
      </trkpt>
      <trkpt lat="47.55695" lon="6.82076">
        <ele>383</ele>
        <time>2016-04-10T10:13:33.000Z</time>
      </trkpt>
      <trkpt lat="47.55692" lon="6.82074">
        <ele>383</ele>
        <time>2016-04-10T10:13:34.000Z</time>
      </trkpt>
      <trkpt lat="47.5569" lon="6.82072">
        <ele>383</ele>
        <time>2016-04-10T10:13:35.000Z</time>
      </trkpt>
      <trkpt lat="47.55688" lon="6.8207">
        <ele>383</ele>
        <time>2016-04-10T10:13:36.000Z</time>
      </trkpt>
      <trkpt lat="47.55685" lon="6.82068">
        <ele>383</ele>
        <time>2016-04-10T10:13:37.000Z</time>
      </trkpt>
      <trkpt lat="47.55682" lon="6.82066">
        <ele>384</ele>
        <time>2016-04-10T10:13:38.000Z</time>
      </trkpt>
      <trkpt lat="47.55679" lon="6.82063">
        <ele>384</ele>
        <time>2016-04-10T10:13:39.000Z</time>
      </trkpt>
      <trkpt lat="47.55676" lon="6.8206">
        <ele>383</ele>
        <time>2016-04-10T10:13:40.000Z</time>
      </trkpt>
      <trkpt lat="47.55674" lon="6.82058">
        <ele>383</ele>
        <time>2016-04-10T10:13:41.000Z</time>
      </trkpt>
      <trkpt lat="47.55672" lon="6.82055">
        <ele>383</ele>
        <time>2016-04-10T10:13:42.000Z</time>
      </trkpt>
      <trkpt lat="47.5567" lon="6.82052">
        <ele>383</ele>
        <time>2016-04-10T10:13:43.000Z</time>
      </trkpt>
      <trkpt lat="47.55667" lon="6.82049">
        <ele>383</ele>
        <time>2016-04-10T10:13:44.000Z</time>
      </trkpt>
      <trkpt lat="47.55665" lon="6.82046">
        <ele>387</ele>
        <time>2016-04-10T10:13:45.000Z</time>
      </trkpt>
      <trkpt lat="47.55663" lon="6.82042">
        <ele>387</ele>
        <time>2016-04-10T10:13:46.000Z</time>
      </trkpt>
      <trkpt lat="47.55661" lon="6.82038">
        <ele>387</ele>
        <time>2016-04-10T10:13:47.000Z</time>
      </trkpt>
      <trkpt lat="47.55658" lon="6.82034">
        <ele>387</ele>
        <time>2016-04-10T10:13:48.000Z</time>
      </trkpt>
      <trkpt lat="47.55655" lon="6.82029">
        <ele>387</ele>
        <time>2016-04-10T10:13:49.000Z</time>
      </trkpt>
      <trkpt lat="47.55652" lon="6.82024">
        <ele>387</ele>
        <time>2016-04-10T10:13:50.000Z</time>
      </trkpt>
      <trkpt lat="47.55649" lon="6.82018">
        <ele>386</ele>
        <time>2016-04-10T10:13:51.000Z</time>
      </trkpt>
      <trkpt lat="47.55646" lon="6.82014">
        <ele>386</ele>
        <time>2016-04-10T10:13:52.000Z</time>
      </trkpt>
      <trkpt lat="47.55643" lon="6.82009">
        <ele>386</ele>
        <time>2016-04-10T10:13:53.000Z</time>
      </trkpt>
      <trkpt lat="47.5564" lon="6.82005">
        <ele>387</ele>
        <time>2016-04-10T10:13:54.000Z</time>
      </trkpt>
      <trkpt lat="47.55638" lon="6.82001">
        <ele>387</ele>
        <time>2016-04-10T10:13:55.000Z</time>
      </trkpt>
      <trkpt lat="47.55635" lon="6.81997">
        <ele>386</ele>
        <time>2016-04-10T10:13:56.000Z</time>
      </trkpt>
      <trkpt lat="47.55633" lon="6.81993">
        <ele>386</ele>
        <time>2016-04-10T10:13:57.000Z</time>
      </trkpt>
      <trkpt lat="47.5563" lon="6.81988">
        <ele>386</ele>
        <time>2016-04-10T10:13:58.000Z</time>
      </trkpt>
      <trkpt lat="47.55628" lon="6.81984">
        <ele>386</ele>
        <time>2016-04-10T10:13:59.000Z</time>
      </trkpt>
      <trkpt lat="47.55625" lon="6.81978">
        <ele>386</ele>
        <time>2016-04-10T10:14:00.000Z</time>
      </trkpt>
      <trkpt lat="47.55622" lon="6.81972">
        <ele>386</ele>
        <time>2016-04-10T10:14:01.000Z</time>
      </trkpt>
      <trkpt lat="47.5562" lon="6.81966">
        <ele>386</ele>
        <time>2016-04-10T10:14:02.000Z</time>
      </trkpt>
      <trkpt lat="47.55618" lon="6.8196">
        <ele>386</ele>
        <time>2016-04-10T10:14:03.000Z</time>
      </trkpt>
      <trkpt lat="47.55616" lon="6.81953">
        <ele>386</ele>
        <time>2016-04-10T10:14:04.000Z</time>
      </trkpt>
      <trkpt lat="47.55615" lon="6.81946">
        <ele>387</ele>
        <time>2016-04-10T10:14:05.000Z</time>
      </trkpt>
      <trkpt lat="47.55614" lon="6.81939">
        <ele>387</ele>
        <time>2016-04-10T10:14:06.000Z</time>
      </trkpt>
      <trkpt lat="47.55613" lon="6.81931">
        <ele>387</ele>
        <time>2016-04-10T10:14:07.000Z</time>
      </trkpt>
      <trkpt lat="47.55612" lon="6.81924">
        <ele>387</ele>
        <time>2016-04-10T10:14:08.000Z</time>
      </trkpt>
      <trkpt lat="47.55613" lon="6.81918">
        <ele>387</ele>
        <time>2016-04-10T10:14:09.000Z</time>
      </trkpt>
      <trkpt lat="47.55615" lon="6.81912">
        <ele>388</ele>
        <time>2016-04-10T10:14:10.000Z</time>
      </trkpt>
      <trkpt lat="47.55616" lon="6.81908">
        <ele>388</ele>
        <time>2016-04-10T10:14:11.000Z</time>
      </trkpt>
      <trkpt lat="47.55618" lon="6.81904">
        <ele>388</ele>
        <time>2016-04-10T10:14:12.000Z</time>
      </trkpt>
      <trkpt lat="47.55619" lon="6.819">
        <ele>388</ele>
        <time>2016-04-10T10:14:13.000Z</time>
      </trkpt>
      <trkpt lat="47.5562" lon="6.81896">
        <ele>388</ele>
        <time>2016-04-10T10:14:14.000Z</time>
      </trkpt>
      <trkpt lat="47.55622" lon="6.81894">
        <ele>388</ele>
        <time>2016-04-10T10:14:15.000Z</time>
      </trkpt>
      <trkpt lat="47.55623" lon="6.81891">
        <ele>388</ele>
        <time>2016-04-10T10:14:16.000Z</time>
      </trkpt>
      <trkpt lat="47.55625" lon="6.81889">
        <ele>388</ele>
        <time>2016-04-10T10:14:17.000Z</time>
      </trkpt>
      <trkpt lat="47.55627" lon="6.81886">
        <ele>388</ele>
        <time>2016-04-10T10:14:18.000Z</time>
      </trkpt>
      <trkpt lat="47.55628" lon="6.81884">
        <ele>387</ele>
        <time>2016-04-10T10:14:19.000Z</time>
      </trkpt>
      <trkpt lat="47.5563" lon="6.81881">
        <ele>387</ele>
        <time>2016-04-10T10:14:20.000Z</time>
      </trkpt>
      <trkpt lat="47.55631" lon="6.81878">
        <ele>387</ele>
        <time>2016-04-10T10:14:21.000Z</time>
      </trkpt>
      <trkpt lat="47.55632" lon="6.81875">
        <ele>388</ele>
        <time>2016-04-10T10:14:22.000Z</time>
      </trkpt>
      <trkpt lat="47.55633" lon="6.81872">
        <ele>388</ele>
        <time>2016-04-10T10:14:23.000Z</time>
      </trkpt>
      <trkpt lat="47.55634" lon="6.81869">
        <ele>387</ele>
        <time>2016-04-10T10:14:24.000Z</time>
      </trkpt>
      <trkpt lat="47.55635" lon="6.81866">
        <ele>387</ele>
        <time>2016-04-10T10:14:25.000Z</time>
      </trkpt>
      <trkpt lat="47.55637" lon="6.8186">
        <ele>387</ele>
        <time>2016-04-10T10:14:27.000Z</time>
      </trkpt>
      <trkpt lat="47.55638" lon="6.81857">
        <ele>387</ele>
        <time>2016-04-10T10:14:28.000Z</time>
      </trkpt>
      <trkpt lat="47.55639" lon="6.8185">
        <ele>387</ele>
        <time>2016-04-10T10:14:30.000Z</time>
      </trkpt>
      <trkpt lat="47.55639" lon="6.81847">
        <ele>387</ele>
        <time>2016-04-10T10:14:31.000Z</time>
      </trkpt>
      <trkpt lat="47.55639" lon="6.81842">
        <ele>387</ele>
        <time>2016-04-10T10:14:33.000Z</time>
      </trkpt>
      <trkpt lat="47.55639" lon="6.81839">
        <ele>387</ele>
        <time>2016-04-10T10:14:34.000Z</time>
      </trkpt>
      <trkpt lat="47.55638" lon="6.81834">
        <ele>388</ele>
        <time>2016-04-10T10:14:36.000Z</time>
      </trkpt>
      <trkpt lat="47.55638" lon="6.81832">
        <ele>390</ele>
        <time>2016-04-10T10:14:37.000Z</time>
      </trkpt>
      <trkpt lat="47.55637" lon="6.81826">
        <ele>390</ele>
        <time>2016-04-10T10:14:40.000Z</time>
      </trkpt>
      <trkpt lat="47.55637" lon="6.81825">
        <ele>390</ele>
        <time>2016-04-10T10:14:41.000Z</time>
      </trkpt>
      <trkpt lat="47.55635" lon="6.8182">
        <ele>391</ele>
        <time>2016-04-10T10:14:45.000Z</time>
      </trkpt>
      <trkpt lat="47.55634" lon="6.81819">
        <ele>391</ele>
        <time>2016-04-10T10:14:46.000Z</time>
      </trkpt>
      <trkpt lat="47.55632" lon="6.81814">
        <ele>391</ele>
        <time>2016-04-10T10:14:48.000Z</time>
      </trkpt>
      <trkpt lat="47.55631" lon="6.81812">
        <ele>391</ele>
        <time>2016-04-10T10:14:49.000Z</time>
      </trkpt>
      <trkpt lat="47.55629" lon="6.81807">
        <ele>392</ele>
        <time>2016-04-10T10:14:51.000Z</time>
      </trkpt>
      <trkpt lat="47.55629" lon="6.81804">
        <ele>392</ele>
        <time>2016-04-10T10:14:52.000Z</time>
      </trkpt>
      <trkpt lat="47.55627" lon="6.81798">
        <ele>392</ele>
        <time>2016-04-10T10:14:55.000Z</time>
      </trkpt>
      <trkpt lat="47.55627" lon="6.81796">
        <ele>392</ele>
        <time>2016-04-10T10:14:56.000Z</time>
      </trkpt>
      <trkpt lat="47.55625" lon="6.81791">
        <ele>392</ele>
        <time>2016-04-10T10:14:58.000Z</time>
      </trkpt>
      <trkpt lat="47.55625" lon="6.81788">
        <ele>392</ele>
        <time>2016-04-10T10:14:59.000Z</time>
      </trkpt>
      <trkpt lat="47.55625" lon="6.81782">
        <ele>392</ele>
        <time>2016-04-10T10:15:02.000Z</time>
      </trkpt>
      <trkpt lat="47.55625" lon="6.8178">
        <ele>392</ele>
        <time>2016-04-10T10:15:03.000Z</time>
      </trkpt>
      <trkpt lat="47.55625" lon="6.81775">
        <ele>393</ele>
        <time>2016-04-10T10:15:05.000Z</time>
      </trkpt>
      <trkpt lat="47.55624" lon="6.81773">
        <ele>393</ele>
        <time>2016-04-10T10:15:06.000Z</time>
      </trkpt>
      <trkpt lat="47.55623" lon="6.81768">
        <ele>393</ele>
        <time>2016-04-10T10:15:08.000Z</time>
      </trkpt>
      <trkpt lat="47.55622" lon="6.81765">
        <ele>393</ele>
        <time>2016-04-10T10:15:09.000Z</time>
      </trkpt>
      <trkpt lat="47.55621" lon="6.81759">
        <ele>393</ele>
        <time>2016-04-10T10:15:12.000Z</time>
      </trkpt>
      <trkpt lat="47.55622" lon="6.81757">
        <ele>393</ele>
        <time>2016-04-10T10:15:13.000Z</time>
      </trkpt>
      <trkpt lat="47.55621" lon="6.81751">
        <ele>393</ele>
        <time>2016-04-10T10:15:16.000Z</time>
      </trkpt>
      <trkpt lat="47.55621" lon="6.8175">
        <ele>395</ele>
        <time>2016-04-10T10:15:17.000Z</time>
      </trkpt>
      <trkpt lat="47.5562" lon="6.81745">
        <ele>395</ele>
        <time>2016-04-10T10:15:19.000Z</time>
      </trkpt>
      <trkpt lat="47.55619" lon="6.81742">
        <ele>395</ele>
        <time>2016-04-10T10:15:20.000Z</time>
      </trkpt>
      <trkpt lat="47.55617" lon="6.81738">
        <ele>395</ele>
        <time>2016-04-10T10:15:23.000Z</time>
      </trkpt>
      <trkpt lat="47.55616" lon="6.81736">
        <ele>396</ele>
        <time>2016-04-10T10:15:24.000Z</time>
      </trkpt>
      <trkpt lat="47.55613" lon="6.81731">
        <ele>396</ele>
        <time>2016-04-10T10:15:27.000Z</time>
      </trkpt>
      <trkpt lat="47.55612" lon="6.8173">
        <ele>396</ele>
        <time>2016-04-10T10:15:28.000Z</time>
      </trkpt>
      <trkpt lat="47.5561" lon="6.81726">
        <ele>396</ele>
        <time>2016-04-10T10:15:31.000Z</time>
      </trkpt>
      <trkpt lat="47.55609" lon="6.81725">
        <ele>396</ele>
        <time>2016-04-10T10:15:32.000Z</time>
      </trkpt>
      <trkpt lat="47.55607" lon="6.8172">
        <ele>396</ele>
        <time>2016-04-10T10:15:34.000Z</time>
      </trkpt>
      <trkpt lat="47.55606" lon="6.81718">
        <ele>396</ele>
        <time>2016-04-10T10:15:35.000Z</time>
      </trkpt>
      <trkpt lat="47.55603" lon="6.81713">
        <ele>396</ele>
        <time>2016-04-10T10:15:37.000Z</time>
      </trkpt>
      <trkpt lat="47.55602" lon="6.81711">
        <ele>396</ele>
        <time>2016-04-10T10:15:38.000Z</time>
      </trkpt>
      <trkpt lat="47.556" lon="6.81706">
        <ele>397</ele>
        <time>2016-04-10T10:15:40.000Z</time>
      </trkpt>
      <trkpt lat="47.55599" lon="6.81704">
        <ele>397</ele>
        <time>2016-04-10T10:15:41.000Z</time>
      </trkpt>
      <trkpt lat="47.55597" lon="6.817">
        <ele>397</ele>
        <time>2016-04-10T10:15:43.000Z</time>
      </trkpt>
      <trkpt lat="47.55596" lon="6.81698">
        <ele>397</ele>
        <time>2016-04-10T10:15:44.000Z</time>
      </trkpt>
      <trkpt lat="47.55594" lon="6.81695">
        <ele>397</ele>
        <time>2016-04-10T10:15:46.000Z</time>
      </trkpt>
      <trkpt lat="47.55593" lon="6.81693">
        <ele>398</ele>
        <time>2016-04-10T10:15:47.000Z</time>
      </trkpt>
      <trkpt lat="47.5559" lon="6.81689">
        <ele>398</ele>
        <time>2016-04-10T10:15:50.000Z</time>
      </trkpt>
      <trkpt lat="47.5559" lon="6.81687">
        <ele>398</ele>
        <time>2016-04-10T10:15:51.000Z</time>
      </trkpt>
      <trkpt lat="47.55587" lon="6.81682">
        <ele>399</ele>
        <time>2016-04-10T10:15:54.000Z</time>
      </trkpt>
      <trkpt lat="47.55586" lon="6.81681">
        <ele>399</ele>
        <time>2016-04-10T10:15:55.000Z</time>
      </trkpt>
      <trkpt lat="47.55583" lon="6.81677">
        <ele>403</ele>
        <time>2016-04-10T10:15:58.000Z</time>
      </trkpt>
      <trkpt lat="47.55582" lon="6.81676">
        <ele>403</ele>
        <time>2016-04-10T10:15:59.000Z</time>
      </trkpt>
      <trkpt lat="47.55579" lon="6.81673">
        <ele>403</ele>
        <time>2016-04-10T10:16:01.000Z</time>
      </trkpt>
      <trkpt lat="47.55578" lon="6.81672">
        <ele>403</ele>
        <time>2016-04-10T10:16:02.000Z</time>
      </trkpt>
      <trkpt lat="47.55575" lon="6.81669">
        <ele>403</ele>
        <time>2016-04-10T10:16:04.000Z</time>
      </trkpt>
      <trkpt lat="47.55574" lon="6.81667">
        <ele>403</ele>
        <time>2016-04-10T10:16:05.000Z</time>
      </trkpt>
      <trkpt lat="47.55572" lon="6.81664">
        <ele>403</ele>
        <time>2016-04-10T10:16:07.000Z</time>
      </trkpt>
      <trkpt lat="47.5557" lon="6.81663">
        <ele>403</ele>
        <time>2016-04-10T10:16:08.000Z</time>
      </trkpt>
      <trkpt lat="47.55566" lon="6.8166">
        <ele>404</ele>
        <time>2016-04-10T10:16:10.000Z</time>
      </trkpt>
      <trkpt lat="47.55565" lon="6.81659">
        <ele>404</ele>
        <time>2016-04-10T10:16:11.000Z</time>
      </trkpt>
      <trkpt lat="47.55561" lon="6.81656">
        <ele>404</ele>
        <time>2016-04-10T10:16:14.000Z</time>
      </trkpt>
      <trkpt lat="47.5556" lon="6.81656">
        <ele>404</ele>
        <time>2016-04-10T10:16:15.000Z</time>
      </trkpt>
      <trkpt lat="47.55556" lon="6.81653">
        <ele>404</ele>
        <time>2016-04-10T10:16:18.000Z</time>
      </trkpt>
      <trkpt lat="47.55555" lon="6.81652">
        <ele>404</ele>
        <time>2016-04-10T10:16:19.000Z</time>
      </trkpt>
      <trkpt lat="47.55551" lon="6.81649">
        <ele>405</ele>
        <time>2016-04-10T10:16:24.000Z</time>
      </trkpt>
      <trkpt lat="47.5555" lon="6.81649">
        <ele>405</ele>
        <time>2016-04-10T10:16:25.000Z</time>
      </trkpt>
      <trkpt lat="47.55546" lon="6.81649">
        <ele>405</ele>
        <time>2016-04-10T10:16:29.000Z</time>
      </trkpt>
      <trkpt lat="47.55544" lon="6.81649">
        <ele>405</ele>
        <time>2016-04-10T10:16:30.000Z</time>
      </trkpt>
      <trkpt lat="47.5554" lon="6.81649">
        <ele>405</ele>
        <time>2016-04-10T10:16:32.000Z</time>
      </trkpt>
      <trkpt lat="47.55538" lon="6.81649">
        <ele>405</ele>
        <time>2016-04-10T10:16:33.000Z</time>
      </trkpt>
      <trkpt lat="47.55534" lon="6.81649">
        <ele>406</ele>
        <time>2016-04-10T10:16:35.000Z</time>
      </trkpt>
      <trkpt lat="47.55532" lon="6.81649">
        <ele>406</ele>
        <time>2016-04-10T10:16:36.000Z</time>
      </trkpt>
      <trkpt lat="47.55528" lon="6.81651">
        <ele>406</ele>
        <time>2016-04-10T10:16:38.000Z</time>
      </trkpt>
      <trkpt lat="47.55526" lon="6.81651">
        <ele>406</ele>
        <time>2016-04-10T10:16:39.000Z</time>
      </trkpt>
      <trkpt lat="47.55524" lon="6.81651">
        <ele>406</ele>
        <time>2016-04-10T10:16:40.000Z</time>
      </trkpt>
      <trkpt lat="47.55521" lon="6.81651">
        <ele>406</ele>
        <time>2016-04-10T10:16:41.000Z</time>
      </trkpt>
      <trkpt lat="47.55519" lon="6.81651">
        <ele>406</ele>
        <time>2016-04-10T10:16:42.000Z</time>
      </trkpt>
      <trkpt lat="47.55517" lon="6.81651">
        <ele>407</ele>
        <time>2016-04-10T10:16:43.000Z</time>
      </trkpt>
      <trkpt lat="47.55513" lon="6.8165">
        <ele>407</ele>
        <time>2016-04-10T10:16:45.000Z</time>
      </trkpt>
      <trkpt lat="47.55511" lon="6.8165">
        <ele>407</ele>
        <time>2016-04-10T10:16:46.000Z</time>
      </trkpt>
      <trkpt lat="47.55508" lon="6.81649">
        <ele>407</ele>
        <time>2016-04-10T10:16:47.000Z</time>
      </trkpt>
      <trkpt lat="47.55506" lon="6.81649">
        <ele>407</ele>
        <time>2016-04-10T10:16:48.000Z</time>
      </trkpt>
      <trkpt lat="47.55504" lon="6.81648">
        <ele>407</ele>
        <time>2016-04-10T10:16:49.000Z</time>
      </trkpt>
      <trkpt lat="47.55501" lon="6.81648">
        <ele>407</ele>
        <time>2016-04-10T10:16:50.000Z</time>
      </trkpt>
      <trkpt lat="47.55497" lon="6.81646">
        <ele>409</ele>
        <time>2016-04-10T10:16:52.000Z</time>
      </trkpt>
      <trkpt lat="47.55496" lon="6.81644">
        <ele>409</ele>
        <time>2016-04-10T10:16:53.000Z</time>
      </trkpt>
      <trkpt lat="47.55492" lon="6.81641">
        <ele>409</ele>
        <time>2016-04-10T10:16:55.000Z</time>
      </trkpt>
      <trkpt lat="47.5549" lon="6.81639">
        <ele>408</ele>
        <time>2016-04-10T10:16:56.000Z</time>
      </trkpt>
      <trkpt lat="47.55486" lon="6.81637">
        <ele>408</ele>
        <time>2016-04-10T10:16:58.000Z</time>
      </trkpt>
      <trkpt lat="47.55485" lon="6.81635">
        <ele>408</ele>
        <time>2016-04-10T10:16:59.000Z</time>
      </trkpt>
      <trkpt lat="47.55483" lon="6.81633">
        <ele>408</ele>
        <time>2016-04-10T10:17:00.000Z</time>
      </trkpt>
      <trkpt lat="47.55481" lon="6.8163">
        <ele>408</ele>
        <time>2016-04-10T10:17:01.000Z</time>
      </trkpt>
      <trkpt lat="47.55479" lon="6.81628">
        <ele>408</ele>
        <time>2016-04-10T10:17:02.000Z</time>
      </trkpt>
      <trkpt lat="47.55477" lon="6.81626">
        <ele>408</ele>
        <time>2016-04-10T10:17:03.000Z</time>
      </trkpt>
      <trkpt lat="47.55476" lon="6.81624">
        <ele>408</ele>
        <time>2016-04-10T10:17:04.000Z</time>
      </trkpt>
      <trkpt lat="47.55474" lon="6.81622">
        <ele>408</ele>
        <time>2016-04-10T10:17:05.000Z</time>
      </trkpt>
      <trkpt lat="47.55472" lon="6.8162">
        <ele>408</ele>
        <time>2016-04-10T10:17:06.000Z</time>
      </trkpt>
      <trkpt lat="47.55469" lon="6.81618">
        <ele>408</ele>
        <time>2016-04-10T10:17:07.000Z</time>
      </trkpt>
      <trkpt lat="47.55467" lon="6.81617">
        <ele>408</ele>
        <time>2016-04-10T10:17:08.000Z</time>
      </trkpt>
      <trkpt lat="47.55465" lon="6.81615">
        <ele>408</ele>
        <time>2016-04-10T10:17:09.000Z</time>
      </trkpt>
      <trkpt lat="47.55463" lon="6.81612">
        <ele>408</ele>
        <time>2016-04-10T10:17:10.000Z</time>
      </trkpt>
      <trkpt lat="47.55461" lon="6.8161">
        <ele>408</ele>
        <time>2016-04-10T10:17:11.000Z</time>
      </trkpt>
      <trkpt lat="47.55459" lon="6.81608">
        <ele>408</ele>
        <time>2016-04-10T10:17:12.000Z</time>
      </trkpt>
      <trkpt lat="47.55457" lon="6.81606">
        <ele>408</ele>
        <time>2016-04-10T10:17:13.000Z</time>
      </trkpt>
      <trkpt lat="47.55455" lon="6.81604">
        <ele>408</ele>
        <time>2016-04-10T10:17:14.000Z</time>
      </trkpt>
      <trkpt lat="47.55453" lon="6.81602">
        <ele>408</ele>
        <time>2016-04-10T10:17:15.000Z</time>
      </trkpt>
      <trkpt lat="47.5545" lon="6.816">
        <ele>408</ele>
        <time>2016-04-10T10:17:16.000Z</time>
      </trkpt>
      <trkpt lat="47.55448" lon="6.81599">
        <ele>408</ele>
        <time>2016-04-10T10:17:17.000Z</time>
      </trkpt>
      <trkpt lat="47.55446" lon="6.81597">
        <ele>408</ele>
        <time>2016-04-10T10:17:18.000Z</time>
      </trkpt>
      <trkpt lat="47.55444" lon="6.81595">
        <ele>408</ele>
        <time>2016-04-10T10:17:19.000Z</time>
      </trkpt>
      <trkpt lat="47.55442" lon="6.81593">
        <ele>408</ele>
        <time>2016-04-10T10:17:20.000Z</time>
      </trkpt>
      <trkpt lat="47.5544" lon="6.81591">
        <ele>408</ele>
        <time>2016-04-10T10:17:21.000Z</time>
      </trkpt>
      <trkpt lat="47.55438" lon="6.81589">
        <ele>408</ele>
        <time>2016-04-10T10:17:22.000Z</time>
      </trkpt>
      <trkpt lat="47.55436" lon="6.81587">
        <ele>408</ele>
        <time>2016-04-10T10:17:23.000Z</time>
      </trkpt>
      <trkpt lat="47.55434" lon="6.81584">
        <ele>408</ele>
        <time>2016-04-10T10:17:24.000Z</time>
      </trkpt>
      <trkpt lat="47.55431" lon="6.81581">
        <ele>407</ele>
        <time>2016-04-10T10:17:25.000Z</time>
      </trkpt>
      <trkpt lat="47.55429" lon="6.81577">
        <ele>407</ele>
        <time>2016-04-10T10:17:26.000Z</time>
      </trkpt>
      <trkpt lat="47.55426" lon="6.81574">
        <ele>407</ele>
        <time>2016-04-10T10:17:27.000Z</time>
      </trkpt>
      <trkpt lat="47.55423" lon="6.8157">
        <ele>408</ele>
        <time>2016-04-10T10:17:28.000Z</time>
      </trkpt>
      <trkpt lat="47.5542" lon="6.81567">
        <ele>408</ele>
        <time>2016-04-10T10:17:29.000Z</time>
      </trkpt>
      <trkpt lat="47.55417" lon="6.81563">
        <ele>408</ele>
        <time>2016-04-10T10:17:30.000Z</time>
      </trkpt>
      <trkpt lat="47.55414" lon="6.8156">
        <ele>406</ele>
        <time>2016-04-10T10:17:31.000Z</time>
      </trkpt>
      <trkpt lat="47.55411" lon="6.81557">
        <ele>406</ele>
        <time>2016-04-10T10:17:32.000Z</time>
      </trkpt>
      <trkpt lat="47.55408" lon="6.81554">
        <ele>406</ele>
        <time>2016-04-10T10:17:33.000Z</time>
      </trkpt>
      <trkpt lat="47.55405" lon="6.81551">
        <ele>406</ele>
        <time>2016-04-10T10:17:34.000Z</time>
      </trkpt>
      <trkpt lat="47.55402" lon="6.81548">
        <ele>406</ele>
        <time>2016-04-10T10:17:35.000Z</time>
      </trkpt>
      <trkpt lat="47.55399" lon="6.81546">
        <ele>406</ele>
        <time>2016-04-10T10:17:36.000Z</time>
      </trkpt>
      <trkpt lat="47.55395" lon="6.81543">
        <ele>406</ele>
        <time>2016-04-10T10:17:37.000Z</time>
      </trkpt>
      <trkpt lat="47.55392" lon="6.81541">
        <ele>406</ele>
        <time>2016-04-10T10:17:38.000Z</time>
      </trkpt>
      <trkpt lat="47.55389" lon="6.81538">
        <ele>406</ele>
        <time>2016-04-10T10:17:39.000Z</time>
      </trkpt>
      <trkpt lat="47.55385" lon="6.81535">
        <ele>406</ele>
        <time>2016-04-10T10:17:40.000Z</time>
      </trkpt>
      <trkpt lat="47.55382" lon="6.81532">
        <ele>405</ele>
        <time>2016-04-10T10:17:41.000Z</time>
      </trkpt>
      <trkpt lat="47.55378" lon="6.81528">
        <ele>405</ele>
        <time>2016-04-10T10:17:42.000Z</time>
      </trkpt>
      <trkpt lat="47.55374" lon="6.81522">
        <ele>405</ele>
        <time>2016-04-10T10:17:43.000Z</time>
      </trkpt>
      <trkpt lat="47.5537" lon="6.81518">
        <ele>405</ele>
        <time>2016-04-10T10:17:44.000Z</time>
      </trkpt>
      <trkpt lat="47.55365" lon="6.81514">
        <ele>405</ele>
        <time>2016-04-10T10:17:45.000Z</time>
      </trkpt>
      <trkpt lat="47.5536" lon="6.8151">
        <ele>405</ele>
        <time>2016-04-10T10:17:46.000Z</time>
      </trkpt>
      <trkpt lat="47.55356" lon="6.81508">
        <ele>404</ele>
        <time>2016-04-10T10:17:47.000Z</time>
      </trkpt>
      <trkpt lat="47.55351" lon="6.81502">
        <ele>404</ele>
        <time>2016-04-10T10:17:48.000Z</time>
      </trkpt>
      <trkpt lat="47.55345" lon="6.81499">
        <ele>405</ele>
        <time>2016-04-10T10:17:49.000Z</time>
      </trkpt>
      <trkpt lat="47.5534" lon="6.81495">
        <ele>404</ele>
        <time>2016-04-10T10:17:50.000Z</time>
      </trkpt>
      <trkpt lat="47.55334" lon="6.81491">
        <ele>404</ele>
        <time>2016-04-10T10:17:51.000Z</time>
      </trkpt>
      <trkpt lat="47.55329" lon="6.81487">
        <ele>403</ele>
        <time>2016-04-10T10:17:52.000Z</time>
      </trkpt>
      <trkpt lat="47.55323" lon="6.81484">
        <ele>403</ele>
        <time>2016-04-10T10:17:53.000Z</time>
      </trkpt>
      <trkpt lat="47.55317" lon="6.8148">
        <ele>402</ele>
        <time>2016-04-10T10:17:54.000Z</time>
      </trkpt>
      <trkpt lat="47.55311" lon="6.81477">
        <ele>402</ele>
        <time>2016-04-10T10:17:55.000Z</time>
      </trkpt>
      <trkpt lat="47.55304" lon="6.81474">
        <ele>402</ele>
        <time>2016-04-10T10:17:56.000Z</time>
      </trkpt>
      <trkpt lat="47.55298" lon="6.81471">
        <ele>402</ele>
        <time>2016-04-10T10:17:57.000Z</time>
      </trkpt>
      <trkpt lat="47.55291" lon="6.81468">
        <ele>402</ele>
        <time>2016-04-10T10:17:58.000Z</time>
      </trkpt>
      <trkpt lat="47.55286" lon="6.81467">
        <ele>402</ele>
        <time>2016-04-10T10:17:59.000Z</time>
      </trkpt>
      <trkpt lat="47.55281" lon="6.81466">
        <ele>402</ele>
        <time>2016-04-10T10:18:00.000Z</time>
      </trkpt>
      <trkpt lat="47.55276" lon="6.81467">
        <ele>402</ele>
        <time>2016-04-10T10:18:01.000Z</time>
      </trkpt>
      <trkpt lat="47.55271" lon="6.81466">
        <ele>401</ele>
        <time>2016-04-10T10:18:02.000Z</time>
      </trkpt>
      <trkpt lat="47.55265" lon="6.81466">
        <ele>401</ele>
        <time>2016-04-10T10:18:03.000Z</time>
      </trkpt>
      <trkpt lat="47.55259" lon="6.81465">
        <ele>401</ele>
        <time>2016-04-10T10:18:04.000Z</time>
      </trkpt>
      <trkpt lat="47.55253" lon="6.81464">
        <ele>401</ele>
        <time>2016-04-10T10:18:05.000Z</time>
      </trkpt>
      <trkpt lat="47.55248" lon="6.81463">
        <ele>399</ele>
        <time>2016-04-10T10:18:06.000Z</time>
      </trkpt>
      <trkpt lat="47.55243" lon="6.81462">
        <ele>399</ele>
        <time>2016-04-10T10:18:07.000Z</time>
      </trkpt>
      <trkpt lat="47.55239" lon="6.81462">
        <ele>399</ele>
        <time>2016-04-10T10:18:08.000Z</time>
      </trkpt>
      <trkpt lat="47.55235" lon="6.81462">
        <ele>399</ele>
        <time>2016-04-10T10:18:09.000Z</time>
      </trkpt>
      <trkpt lat="47.5523" lon="6.81463">
        <ele>399</ele>
        <time>2016-04-10T10:18:10.000Z</time>
      </trkpt>
      <trkpt lat="47.55224" lon="6.81464">
        <ele>399</ele>
        <time>2016-04-10T10:18:11.000Z</time>
      </trkpt>
      <trkpt lat="47.55219" lon="6.81464">
        <ele>398</ele>
        <time>2016-04-10T10:18:12.000Z</time>
      </trkpt>
      <trkpt lat="47.55213" lon="6.81464">
        <ele>398</ele>
        <time>2016-04-10T10:18:13.000Z</time>
      </trkpt>
      <trkpt lat="47.55206" lon="6.81463">
        <ele>398</ele>
        <time>2016-04-10T10:18:14.000Z</time>
      </trkpt>
      <trkpt lat="47.55201" lon="6.81464">
        <ele>398</ele>
        <time>2016-04-10T10:18:15.000Z</time>
      </trkpt>
      <trkpt lat="47.55198" lon="6.81463">
        <ele>398</ele>
        <time>2016-04-10T10:18:16.000Z</time>
      </trkpt>
      <trkpt lat="47.55193" lon="6.81464">
        <ele>398</ele>
        <time>2016-04-10T10:18:17.000Z</time>
      </trkpt>
      <trkpt lat="47.5519" lon="6.81463">
        <ele>398</ele>
        <time>2016-04-10T10:18:18.000Z</time>
      </trkpt>
      <trkpt lat="47.55185" lon="6.81464">
        <ele>398</ele>
        <time>2016-04-10T10:18:19.000Z</time>
      </trkpt>
      <trkpt lat="47.55179" lon="6.81464">
        <ele>398</ele>
        <time>2016-04-10T10:18:20.000Z</time>
      </trkpt>
      <trkpt lat="47.55175" lon="6.81465">
        <ele>398</ele>
        <time>2016-04-10T10:18:21.000Z</time>
      </trkpt>
      <trkpt lat="47.55169" lon="6.81465">
        <ele>398</ele>
        <time>2016-04-10T10:18:22.000Z</time>
      </trkpt>
      <trkpt lat="47.55165" lon="6.81464">
        <ele>396</ele>
        <time>2016-04-10T10:18:23.000Z</time>
      </trkpt>
      <trkpt lat="47.5516" lon="6.81465">
        <ele>396</ele>
        <time>2016-04-10T10:18:24.000Z</time>
      </trkpt>
      <trkpt lat="47.55156" lon="6.81465">
        <ele>396</ele>
        <time>2016-04-10T10:18:25.000Z</time>
      </trkpt>
      <trkpt lat="47.55152" lon="6.81466">
        <ele>396</ele>
        <time>2016-04-10T10:18:26.000Z</time>
      </trkpt>
      <trkpt lat="47.55148" lon="6.81466">
        <ele>396</ele>
        <time>2016-04-10T10:18:27.000Z</time>
      </trkpt>
      <trkpt lat="47.55143" lon="6.81467">
        <ele>396</ele>
        <time>2016-04-10T10:18:28.000Z</time>
      </trkpt>
      <trkpt lat="47.55133" lon="6.81473">
        <ele>396</ele>
        <time>2016-04-10T10:18:29.000Z</time>
      </trkpt>
      <trkpt lat="47.55127" lon="6.81475">
        <ele>396</ele>
        <time>2016-04-10T10:18:30.000Z</time>
      </trkpt>
      <trkpt lat="47.55123" lon="6.81478">
        <ele>396</ele>
        <time>2016-04-10T10:18:31.000Z</time>
      </trkpt>
      <trkpt lat="47.55118" lon="6.81481">
        <ele>396</ele>
        <time>2016-04-10T10:18:32.000Z</time>
      </trkpt>
      <trkpt lat="47.55115" lon="6.81483">
        <ele>396</ele>
        <time>2016-04-10T10:18:33.000Z</time>
      </trkpt>
      <trkpt lat="47.5511" lon="6.81485">
        <ele>396</ele>
        <time>2016-04-10T10:18:34.000Z</time>
      </trkpt>
      <trkpt lat="47.55104" lon="6.81488">
        <ele>396</ele>
        <time>2016-04-10T10:18:35.000Z</time>
      </trkpt>
      <trkpt lat="47.55098" lon="6.8149">
        <ele>396</ele>
        <time>2016-04-10T10:18:36.000Z</time>
      </trkpt>
      <trkpt lat="47.55092" lon="6.81493">
        <ele>395</ele>
        <time>2016-04-10T10:18:37.000Z</time>
      </trkpt>
      <trkpt lat="47.55087" lon="6.81497">
        <ele>395</ele>
        <time>2016-04-10T10:18:38.000Z</time>
      </trkpt>
      <trkpt lat="47.55081" lon="6.81498">
        <ele>395</ele>
        <time>2016-04-10T10:18:39.000Z</time>
      </trkpt>
      <trkpt lat="47.55074" lon="6.81502">
        <ele>394</ele>
        <time>2016-04-10T10:18:40.000Z</time>
      </trkpt>
      <trkpt lat="47.55067" lon="6.81506">
        <ele>393</ele>
        <time>2016-04-10T10:18:41.000Z</time>
      </trkpt>
      <trkpt lat="47.55059" lon="6.81509">
        <ele>393</ele>
        <time>2016-04-10T10:18:42.000Z</time>
      </trkpt>
      <trkpt lat="47.55053" lon="6.81511">
        <ele>392</ele>
        <time>2016-04-10T10:18:43.000Z</time>
      </trkpt>
      <trkpt lat="47.55049" lon="6.81513">
        <ele>392</ele>
        <time>2016-04-10T10:18:43.998Z</time>
      </trkpt>
      <trkpt lat="47.5504" lon="6.81514">
        <ele>392</ele>
        <time>2016-04-10T10:18:45.000Z</time>
      </trkpt>
      <trkpt lat="47.55035" lon="6.81516">
        <ele>392</ele>
        <time>2016-04-10T10:18:46.000Z</time>
      </trkpt>
      <trkpt lat="47.55028" lon="6.81517">
        <ele>392</ele>
        <time>2016-04-10T10:18:47.000Z</time>
      </trkpt>
      <trkpt lat="47.55023" lon="6.81522">
        <ele>391</ele>
        <time>2016-04-10T10:18:48.000Z</time>
      </trkpt>
      <trkpt lat="47.55016" lon="6.81524">
        <ele>391</ele>
        <time>2016-04-10T10:18:49.000Z</time>
      </trkpt>
      <trkpt lat="47.55009" lon="6.81526">
        <ele>391</ele>
        <time>2016-04-10T10:18:50.000Z</time>
      </trkpt>
      <trkpt lat="47.55003" lon="6.81528">
        <ele>391</ele>
        <time>2016-04-10T10:18:51.000Z</time>
      </trkpt>
      <trkpt lat="47.54996" lon="6.8153">
        <ele>390</ele>
        <time>2016-04-10T10:18:52.000Z</time>
      </trkpt>
      <trkpt lat="47.5499" lon="6.81532">
        <ele>390</ele>
        <time>2016-04-10T10:18:53.000Z</time>
      </trkpt>
      <trkpt lat="47.54984" lon="6.81535">
        <ele>390</ele>
        <time>2016-04-10T10:18:54.000Z</time>
      </trkpt>
      <trkpt lat="47.54978" lon="6.81538">
        <ele>389</ele>
        <time>2016-04-10T10:18:55.000Z</time>
      </trkpt>
      <trkpt lat="47.54973" lon="6.81541">
        <ele>389</ele>
        <time>2016-04-10T10:18:56.000Z</time>
      </trkpt>
      <trkpt lat="47.54968" lon="6.81545">
        <ele>389</ele>
        <time>2016-04-10T10:18:57.000Z</time>
      </trkpt>
      <trkpt lat="47.54964" lon="6.81547">
        <ele>389</ele>
        <time>2016-04-10T10:18:58.000Z</time>
      </trkpt>
      <trkpt lat="47.5496" lon="6.8155">
        <ele>389</ele>
        <time>2016-04-10T10:18:59.000Z</time>
      </trkpt>
      <trkpt lat="47.54956" lon="6.81552">
        <ele>389</ele>
        <time>2016-04-10T10:19:00.000Z</time>
      </trkpt>
      <trkpt lat="47.54952" lon="6.81555">
        <ele>389</ele>
        <time>2016-04-10T10:19:01.000Z</time>
      </trkpt>
      <trkpt lat="47.54947" lon="6.81556">
        <ele>389</ele>
        <time>2016-04-10T10:19:02.000Z</time>
      </trkpt>
      <trkpt lat="47.54939" lon="6.81558">
        <ele>389</ele>
        <time>2016-04-10T10:19:03.000Z</time>
      </trkpt>
      <trkpt lat="47.54934" lon="6.81561">
        <ele>389</ele>
        <time>2016-04-10T10:19:04.000Z</time>
      </trkpt>
      <trkpt lat="47.54931" lon="6.81564">
        <ele>388</ele>
        <time>2016-04-10T10:19:05.000Z</time>
      </trkpt>
      <trkpt lat="47.54926" lon="6.81566">
        <ele>388</ele>
        <time>2016-04-10T10:19:06.000Z</time>
      </trkpt>
      <trkpt lat="47.54922" lon="6.81569">
        <ele>388</ele>
        <time>2016-04-10T10:19:07.000Z</time>
      </trkpt>
      <trkpt lat="47.54918" lon="6.8157">
        <ele>388</ele>
        <time>2016-04-10T10:19:08.000Z</time>
      </trkpt>
      <trkpt lat="47.54913" lon="6.81571">
        <ele>388</ele>
        <time>2016-04-10T10:19:09.000Z</time>
      </trkpt>
      <trkpt lat="47.54907" lon="6.81571">
        <ele>388</ele>
        <time>2016-04-10T10:19:10.000Z</time>
      </trkpt>
      <trkpt lat="47.54901" lon="6.81572">
        <ele>388</ele>
        <time>2016-04-10T10:19:11.000Z</time>
      </trkpt>
      <trkpt lat="47.54898" lon="6.81567">
        <ele>388</ele>
        <time>2016-04-10T10:19:12.000Z</time>
      </trkpt>
      <trkpt lat="47.54894" lon="6.81563">
        <ele>388</ele>
        <time>2016-04-10T10:19:13.000Z</time>
      </trkpt>
      <trkpt lat="47.54889" lon="6.8156">
        <ele>388</ele>
        <time>2016-04-10T10:19:14.000Z</time>
      </trkpt>
      <trkpt lat="47.54885" lon="6.81556">
        <ele>388</ele>
        <time>2016-04-10T10:19:15.000Z</time>
      </trkpt>
      <trkpt lat="47.54882" lon="6.81553">
        <ele>388</ele>
        <time>2016-04-10T10:19:16.000Z</time>
      </trkpt>
      <trkpt lat="47.54878" lon="6.8155">
        <ele>388</ele>
        <time>2016-04-10T10:19:17.000Z</time>
      </trkpt>
      <trkpt lat="47.54873" lon="6.81549">
        <ele>388</ele>
        <time>2016-04-10T10:19:18.000Z</time>
      </trkpt>
      <trkpt lat="47.54869" lon="6.81546">
        <ele>388</ele>
        <time>2016-04-10T10:19:19.000Z</time>
      </trkpt>
      <trkpt lat="47.54866" lon="6.81543">
        <ele>388</ele>
        <time>2016-04-10T10:19:20.000Z</time>
      </trkpt>
      <trkpt lat="47.54862" lon="6.81541">
        <ele>388</ele>
        <time>2016-04-10T10:19:21.000Z</time>
      </trkpt>
      <trkpt lat="47.54859" lon="6.81538">
        <ele>388</ele>
        <time>2016-04-10T10:19:22.000Z</time>
      </trkpt>
      <trkpt lat="47.54855" lon="6.81536">
        <ele>388</ele>
        <time>2016-04-10T10:19:23.000Z</time>
      </trkpt>
      <trkpt lat="47.54852" lon="6.81534">
        <ele>388</ele>
        <time>2016-04-10T10:19:24.000Z</time>
      </trkpt>
      <trkpt lat="47.54849" lon="6.81532">
        <ele>388</ele>
        <time>2016-04-10T10:19:25.000Z</time>
      </trkpt>
      <trkpt lat="47.54845" lon="6.8153">
        <ele>388</ele>
        <time>2016-04-10T10:19:26.000Z</time>
      </trkpt>
      <trkpt lat="47.54842" lon="6.81527">
        <ele>388</ele>
        <time>2016-04-10T10:19:27.000Z</time>
      </trkpt>
      <trkpt lat="47.54839" lon="6.81525">
        <ele>388</ele>
        <time>2016-04-10T10:19:28.000Z</time>
      </trkpt>
      <trkpt lat="47.54837" lon="6.81522">
        <ele>388</ele>
        <time>2016-04-10T10:19:29.000Z</time>
      </trkpt>
      <trkpt lat="47.54835" lon="6.81519">
        <ele>388</ele>
        <time>2016-04-10T10:19:30.000Z</time>
      </trkpt>
      <trkpt lat="47.54835" lon="6.81515">
        <ele>388</ele>
        <time>2016-04-10T10:19:31.000Z</time>
      </trkpt>
      <trkpt lat="47.54836" lon="6.81511">
        <ele>388</ele>
        <time>2016-04-10T10:19:32.000Z</time>
      </trkpt>
      <trkpt lat="47.54839" lon="6.81507">
        <ele>388</ele>
        <time>2016-04-10T10:19:33.000Z</time>
      </trkpt>
      <trkpt lat="47.54843" lon="6.81504">
        <ele>388</ele>
        <time>2016-04-10T10:19:34.000Z</time>
      </trkpt>
      <trkpt lat="47.54848" lon="6.81503">
        <ele>388</ele>
        <time>2016-04-10T10:19:35.000Z</time>
      </trkpt>
      <trkpt lat="47.54852" lon="6.81502">
        <ele>388</ele>
        <time>2016-04-10T10:19:36.000Z</time>
      </trkpt>
      <trkpt lat="47.54856" lon="6.81501">
        <ele>388</ele>
        <time>2016-04-10T10:19:37.000Z</time>
      </trkpt>
      <trkpt lat="47.54859" lon="6.815">
        <ele>389</ele>
        <time>2016-04-10T10:19:38.000Z</time>
      </trkpt>
      <trkpt lat="47.54863" lon="6.81498">
        <ele>389</ele>
        <time>2016-04-10T10:19:39.000Z</time>
      </trkpt>
      <trkpt lat="47.54866" lon="6.81496">
        <ele>389</ele>
        <time>2016-04-10T10:19:40.000Z</time>
      </trkpt>
      <trkpt lat="47.54869" lon="6.81494">
        <ele>389</ele>
        <time>2016-04-10T10:19:41.000Z</time>
      </trkpt>
      <trkpt lat="47.54873" lon="6.81491">
        <ele>389</ele>
        <time>2016-04-10T10:19:42.000Z</time>
      </trkpt>
      <trkpt lat="47.54877" lon="6.81489">
        <ele>389</ele>
        <time>2016-04-10T10:19:43.000Z</time>
      </trkpt>
      <trkpt lat="47.5488" lon="6.81486">
        <ele>389</ele>
        <time>2016-04-10T10:19:44.000Z</time>
      </trkpt>
      <trkpt lat="47.54884" lon="6.81483">
        <ele>389</ele>
        <time>2016-04-10T10:19:45.000Z</time>
      </trkpt>
      <trkpt lat="47.54887" lon="6.8148">
        <ele>389</ele>
        <time>2016-04-10T10:19:46.000Z</time>
      </trkpt>
      <trkpt lat="47.5489" lon="6.81477">
        <ele>390</ele>
        <time>2016-04-10T10:19:47.000Z</time>
      </trkpt>
      <trkpt lat="47.54893" lon="6.81475">
        <ele>390</ele>
        <time>2016-04-10T10:19:48.000Z</time>
      </trkpt>
      <trkpt lat="47.54895" lon="6.81472">
        <ele>390</ele>
        <time>2016-04-10T10:19:49.000Z</time>
      </trkpt>
      <trkpt lat="47.54897" lon="6.81468">
        <ele>390</ele>
        <time>2016-04-10T10:19:50.000Z</time>
      </trkpt>
      <trkpt lat="47.54898" lon="6.81465">
        <ele>390</ele>
        <time>2016-04-10T10:19:51.000Z</time>
      </trkpt>
      <trkpt lat="47.54898" lon="6.81461">
        <ele>390</ele>
        <time>2016-04-10T10:19:52.000Z</time>
      </trkpt>
      <trkpt lat="47.54898" lon="6.81457">
        <ele>390</ele>
        <time>2016-04-10T10:19:53.000Z</time>
      </trkpt>
      <trkpt lat="47.54899" lon="6.81453">
        <ele>390</ele>
        <time>2016-04-10T10:19:54.000Z</time>
      </trkpt>
      <trkpt lat="47.549" lon="6.81449">
        <ele>390</ele>
        <time>2016-04-10T10:19:55.000Z</time>
      </trkpt>
      <trkpt lat="47.54902" lon="6.81446">
        <ele>390</ele>
        <time>2016-04-10T10:19:56.000Z</time>
      </trkpt>
      <trkpt lat="47.54904" lon="6.81443">
        <ele>390</ele>
        <time>2016-04-10T10:19:57.000Z</time>
      </trkpt>
      <trkpt lat="47.54906" lon="6.8144">
        <ele>391</ele>
        <time>2016-04-10T10:19:58.000Z</time>
      </trkpt>
      <trkpt lat="47.54909" lon="6.81438">
        <ele>391</ele>
        <time>2016-04-10T10:19:59.000Z</time>
      </trkpt>
      <trkpt lat="47.54911" lon="6.81436">
        <ele>391</ele>
        <time>2016-04-10T10:20:00.000Z</time>
      </trkpt>
      <trkpt lat="47.54913" lon="6.81434">
        <ele>391</ele>
        <time>2016-04-10T10:20:01.000Z</time>
      </trkpt>
      <trkpt lat="47.54915" lon="6.81432">
        <ele>391</ele>
        <time>2016-04-10T10:20:02.000Z</time>
      </trkpt>
      <trkpt lat="47.54917" lon="6.81429">
        <ele>393</ele>
        <time>2016-04-10T10:20:03.000Z</time>
      </trkpt>
      <trkpt lat="47.54919" lon="6.81427">
        <ele>393</ele>
        <time>2016-04-10T10:20:04.000Z</time>
      </trkpt>
      <trkpt lat="47.5492" lon="6.81424">
        <ele>393</ele>
        <time>2016-04-10T10:20:05.000Z</time>
      </trkpt>
      <trkpt lat="47.54921" lon="6.8142">
        <ele>393</ele>
        <time>2016-04-10T10:20:06.000Z</time>
      </trkpt>
      <trkpt lat="47.54922" lon="6.81417">
        <ele>393</ele>
        <time>2016-04-10T10:20:07.000Z</time>
      </trkpt>
      <trkpt lat="47.54924" lon="6.81415">
        <ele>393</ele>
        <time>2016-04-10T10:20:08.000Z</time>
      </trkpt>
      <trkpt lat="47.54925" lon="6.81413">
        <ele>393</ele>
        <time>2016-04-10T10:20:09.000Z</time>
      </trkpt>
      <trkpt lat="47.54928" lon="6.81411">
        <ele>393</ele>
        <time>2016-04-10T10:20:10.000Z</time>
      </trkpt>
      <trkpt lat="47.5493" lon="6.8141">
        <ele>393</ele>
        <time>2016-04-10T10:20:11.000Z</time>
      </trkpt>
      <trkpt lat="47.54932" lon="6.81409">
        <ele>393</ele>
        <time>2016-04-10T10:20:12.000Z</time>
      </trkpt>
      <trkpt lat="47.54934" lon="6.81404">
        <ele>394</ele>
        <time>2016-04-10T10:20:45.000Z</time>
      </trkpt>
      <trkpt lat="47.54935" lon="6.81402">
        <ele>394</ele>
        <time>2016-04-10T10:20:46.000Z</time>
      </trkpt>
      <trkpt lat="47.54938" lon="6.81397">
        <ele>394</ele>
        <time>2016-04-10T10:20:48.000Z</time>
      </trkpt>
      <trkpt lat="47.54939" lon="6.81395">
        <ele>394</ele>
        <time>2016-04-10T10:20:49.000Z</time>
      </trkpt>
      <trkpt lat="47.54941" lon="6.81389">
        <ele>394</ele>
        <time>2016-04-10T10:20:51.000Z</time>
      </trkpt>
      <trkpt lat="47.54941" lon="6.81385">
        <ele>394</ele>
        <time>2016-04-10T10:20:52.000Z</time>
      </trkpt>
      <trkpt lat="47.54941" lon="6.81381">
        <ele>394</ele>
        <time>2016-04-10T10:20:53.000Z</time>
      </trkpt>
      <trkpt lat="47.5494" lon="6.81376">
        <ele>394</ele>
        <time>2016-04-10T10:20:54.000Z</time>
      </trkpt>
      <trkpt lat="47.54938" lon="6.81371">
        <ele>394</ele>
        <time>2016-04-10T10:20:55.000Z</time>
      </trkpt>
      <trkpt lat="47.54937" lon="6.81367">
        <ele>393</ele>
        <time>2016-04-10T10:20:56.000Z</time>
      </trkpt>
      <trkpt lat="47.54936" lon="6.81363">
        <ele>393</ele>
        <time>2016-04-10T10:20:57.000Z</time>
      </trkpt>
      <trkpt lat="47.54935" lon="6.81359">
        <ele>393</ele>
        <time>2016-04-10T10:20:58.000Z</time>
      </trkpt>
      <trkpt lat="47.54935" lon="6.81355">
        <ele>393</ele>
        <time>2016-04-10T10:20:59.000Z</time>
      </trkpt>
      <trkpt lat="47.54935" lon="6.81351">
        <ele>393</ele>
        <time>2016-04-10T10:21:00.000Z</time>
      </trkpt>
      <trkpt lat="47.54935" lon="6.81347">
        <ele>393</ele>
        <time>2016-04-10T10:21:01.000Z</time>
      </trkpt>
      <trkpt lat="47.54935" lon="6.81344">
        <ele>393</ele>
        <time>2016-04-10T10:21:02.000Z</time>
      </trkpt>
      <trkpt lat="47.54935" lon="6.81338">
        <ele>393</ele>
        <time>2016-04-10T10:21:04.000Z</time>
      </trkpt>
      <trkpt lat="47.54935" lon="6.81335">
        <ele>393</ele>
        <time>2016-04-10T10:21:05.000Z</time>
      </trkpt>
      <trkpt lat="47.54934" lon="6.81332">
        <ele>392</ele>
        <time>2016-04-10T10:21:06.000Z</time>
      </trkpt>
      <trkpt lat="47.54933" lon="6.81329">
        <ele>392</ele>
        <time>2016-04-10T10:21:07.000Z</time>
      </trkpt>
      <trkpt lat="47.54932" lon="6.81325">
        <ele>392</ele>
        <time>2016-04-10T10:21:08.000Z</time>
      </trkpt>
      <trkpt lat="47.54932" lon="6.81321">
        <ele>392</ele>
        <time>2016-04-10T10:21:09.000Z</time>
      </trkpt>
      <trkpt lat="47.54932" lon="6.81317">
        <ele>392</ele>
        <time>2016-04-10T10:21:10.000Z</time>
      </trkpt>
      <trkpt lat="47.54931" lon="6.81313">
        <ele>393</ele>
        <time>2016-04-10T10:21:11.000Z</time>
      </trkpt>
      <trkpt lat="47.54932" lon="6.81308">
        <ele>393</ele>
        <time>2016-04-10T10:21:12.000Z</time>
      </trkpt>
      <trkpt lat="47.54932" lon="6.81304">
        <ele>393</ele>
        <time>2016-04-10T10:21:13.000Z</time>
      </trkpt>
      <trkpt lat="47.54932" lon="6.813">
        <ele>393</ele>
        <time>2016-04-10T10:21:14.000Z</time>
      </trkpt>
      <trkpt lat="47.54931" lon="6.81296">
        <ele>393</ele>
        <time>2016-04-10T10:21:15.000Z</time>
      </trkpt>
      <trkpt lat="47.54931" lon="6.81292">
        <ele>393</ele>
        <time>2016-04-10T10:21:16.000Z</time>
      </trkpt>
      <trkpt lat="47.5493" lon="6.81288">
        <ele>393</ele>
        <time>2016-04-10T10:21:17.000Z</time>
      </trkpt>
      <trkpt lat="47.5493" lon="6.81283">
        <ele>392</ele>
        <time>2016-04-10T10:21:18.000Z</time>
      </trkpt>
      <trkpt lat="47.54929" lon="6.81279">
        <ele>392</ele>
        <time>2016-04-10T10:21:19.000Z</time>
      </trkpt>
      <trkpt lat="47.54928" lon="6.81274">
        <ele>392</ele>
        <time>2016-04-10T10:21:20.000Z</time>
      </trkpt>
      <trkpt lat="47.54927" lon="6.81268">
        <ele>392</ele>
        <time>2016-04-10T10:21:21.000Z</time>
      </trkpt>
      <trkpt lat="47.54925" lon="6.81262">
        <ele>392</ele>
        <time>2016-04-10T10:21:22.000Z</time>
      </trkpt>
      <trkpt lat="47.54924" lon="6.81257">
        <ele>391</ele>
        <time>2016-04-10T10:21:23.000Z</time>
      </trkpt>
      <trkpt lat="47.54923" lon="6.81251">
        <ele>391</ele>
        <time>2016-04-10T10:21:24.000Z</time>
      </trkpt>
      <trkpt lat="47.54921" lon="6.81245">
        <ele>390</ele>
        <time>2016-04-10T10:21:25.000Z</time>
      </trkpt>
      <trkpt lat="47.5492" lon="6.81239">
        <ele>391</ele>
        <time>2016-04-10T10:21:26.000Z</time>
      </trkpt>
      <trkpt lat="47.54919" lon="6.81234">
        <ele>391</ele>
        <time>2016-04-10T10:21:27.000Z</time>
      </trkpt>
      <trkpt lat="47.54917" lon="6.81229">
        <ele>391</ele>
        <time>2016-04-10T10:21:28.000Z</time>
      </trkpt>
      <trkpt lat="47.54916" lon="6.81222">
        <ele>388</ele>
        <time>2016-04-10T10:21:29.000Z</time>
      </trkpt>
      <trkpt lat="47.54923" lon="6.81201">
        <ele>391</ele>
        <time>2016-04-10T10:21:30.000Z</time>
      </trkpt>
      <trkpt lat="47.54928" lon="6.81192">
        <ele>391</ele>
        <time>2016-04-10T10:21:31.000Z</time>
      </trkpt>
      <trkpt lat="47.54931" lon="6.81186">
        <ele>391</ele>
        <time>2016-04-10T10:21:32.000Z</time>
      </trkpt>
      <trkpt lat="47.54931" lon="6.81176">
        <ele>390</ele>
        <time>2016-04-10T10:21:33.000Z</time>
      </trkpt>
      <trkpt lat="47.54931" lon="6.81168">
        <ele>390</ele>
        <time>2016-04-10T10:21:34.000Z</time>
      </trkpt>
      <trkpt lat="47.5493" lon="6.81161">
        <ele>389</ele>
        <time>2016-04-10T10:21:35.000Z</time>
      </trkpt>
      <trkpt lat="47.54929" lon="6.81154">
        <ele>389</ele>
        <time>2016-04-10T10:21:36.000Z</time>
      </trkpt>
      <trkpt lat="47.54926" lon="6.81143">
        <ele>389</ele>
        <time>2016-04-10T10:21:37.000Z</time>
      </trkpt>
      <trkpt lat="47.54924" lon="6.81135">
        <ele>389</ele>
        <time>2016-04-10T10:21:38.000Z</time>
      </trkpt>
      <trkpt lat="47.54923" lon="6.81127">
        <ele>389</ele>
        <time>2016-04-10T10:21:39.000Z</time>
      </trkpt>
      <trkpt lat="47.54923" lon="6.81119">
        <ele>389</ele>
        <time>2016-04-10T10:21:40.000Z</time>
      </trkpt>
      <trkpt lat="47.54922" lon="6.8111">
        <ele>388</ele>
        <time>2016-04-10T10:21:41.000Z</time>
      </trkpt>
      <trkpt lat="47.54921" lon="6.81103">
        <ele>388</ele>
        <time>2016-04-10T10:21:42.000Z</time>
      </trkpt>
      <trkpt lat="47.54918" lon="6.81095">
        <ele>388</ele>
        <time>2016-04-10T10:21:43.000Z</time>
      </trkpt>
      <trkpt lat="47.54914" lon="6.81089">
        <ele>387</ele>
        <time>2016-04-10T10:21:44.000Z</time>
      </trkpt>
      <trkpt lat="47.54909" lon="6.81083">
        <ele>386</ele>
        <time>2016-04-10T10:21:45.000Z</time>
      </trkpt>
      <trkpt lat="47.54906" lon="6.81077">
        <ele>385</ele>
        <time>2016-04-10T10:21:46.000Z</time>
      </trkpt>
      <trkpt lat="47.54903" lon="6.81072">
        <ele>384</ele>
        <time>2016-04-10T10:21:47.000Z</time>
      </trkpt>
      <trkpt lat="47.549" lon="6.81068">
        <ele>384</ele>
        <time>2016-04-10T10:21:48.000Z</time>
      </trkpt>
      <trkpt lat="47.54897" lon="6.81061">
        <ele>383</ele>
        <time>2016-04-10T10:21:49.000Z</time>
      </trkpt>
      <trkpt lat="47.54896" lon="6.8105">
        <ele>383</ele>
        <time>2016-04-10T10:21:50.000Z</time>
      </trkpt>
      <trkpt lat="47.54894" lon="6.81041">
        <ele>383</ele>
        <time>2016-04-10T10:21:51.000Z</time>
      </trkpt>
      <trkpt lat="47.54893" lon="6.81032">
        <ele>382</ele>
        <time>2016-04-10T10:21:52.000Z</time>
      </trkpt>
      <trkpt lat="47.5489" lon="6.81023">
        <ele>382</ele>
        <time>2016-04-10T10:21:53.000Z</time>
      </trkpt>
      <trkpt lat="47.54887" lon="6.81014">
        <ele>382</ele>
        <time>2016-04-10T10:21:54.000Z</time>
      </trkpt>
      <trkpt lat="47.54886" lon="6.81002">
        <ele>381</ele>
        <time>2016-04-10T10:21:55.000Z</time>
      </trkpt>
      <trkpt lat="47.54885" lon="6.80991">
        <ele>379</ele>
        <time>2016-04-10T10:21:56.000Z</time>
      </trkpt>
      <trkpt lat="47.54884" lon="6.80981">
        <ele>379</ele>
        <time>2016-04-10T10:21:57.000Z</time>
      </trkpt>
      <trkpt lat="47.54882" lon="6.80972">
        <ele>379</ele>
        <time>2016-04-10T10:21:58.000Z</time>
      </trkpt>
      <trkpt lat="47.5488" lon="6.80963">
        <ele>379</ele>
        <time>2016-04-10T10:21:59.000Z</time>
      </trkpt>
      <trkpt lat="47.54878" lon="6.80953">
        <ele>379</ele>
        <time>2016-04-10T10:22:00.000Z</time>
      </trkpt>
      <trkpt lat="47.54876" lon="6.80945">
        <ele>379</ele>
        <time>2016-04-10T10:22:01.000Z</time>
      </trkpt>
      <trkpt lat="47.54874" lon="6.80939">
        <ele>379</ele>
        <time>2016-04-10T10:22:02.000Z</time>
      </trkpt>
      <trkpt lat="47.54873" lon="6.80933">
        <ele>378</ele>
        <time>2016-04-10T10:22:03.000Z</time>
      </trkpt>
      <trkpt lat="47.54873" lon="6.80929">
        <ele>378</ele>
        <time>2016-04-10T10:22:04.000Z</time>
      </trkpt>
      <trkpt lat="47.54875" lon="6.80926">
        <ele>379</ele>
        <time>2016-04-10T10:22:05.000Z</time>
      </trkpt>
      <trkpt lat="47.54877" lon="6.80922">
        <ele>379</ele>
        <time>2016-04-10T10:22:06.000Z</time>
      </trkpt>
      <trkpt lat="47.54878" lon="6.80919">
        <ele>379</ele>
        <time>2016-04-10T10:22:07.000Z</time>
      </trkpt>
      <trkpt lat="47.54879" lon="6.80915">
        <ele>378</ele>
        <time>2016-04-10T10:22:08.000Z</time>
      </trkpt>
      <trkpt lat="47.54879" lon="6.8091">
        <ele>378</ele>
        <time>2016-04-10T10:22:09.000Z</time>
      </trkpt>
      <trkpt lat="47.54878" lon="6.80903">
        <ele>378</ele>
        <time>2016-04-10T10:22:10.000Z</time>
      </trkpt>
      <trkpt lat="47.54878" lon="6.80897">
        <ele>378</ele>
        <time>2016-04-10T10:22:11.000Z</time>
      </trkpt>
      <trkpt lat="47.54878" lon="6.80891">
        <ele>378</ele>
        <time>2016-04-10T10:22:12.000Z</time>
      </trkpt>
      <trkpt lat="47.54878" lon="6.80884">
        <ele>378</ele>
        <time>2016-04-10T10:22:13.000Z</time>
      </trkpt>
      <trkpt lat="47.54877" lon="6.80877">
        <ele>378</ele>
        <time>2016-04-10T10:22:14.000Z</time>
      </trkpt>
      <trkpt lat="47.54871" lon="6.80865">
        <ele>378</ele>
        <time>2016-04-10T10:22:15.000Z</time>
      </trkpt>
      <trkpt lat="47.54867" lon="6.80859">
        <ele>378</ele>
        <time>2016-04-10T10:22:16.000Z</time>
      </trkpt>
      <trkpt lat="47.54863" lon="6.80851">
        <ele>378</ele>
        <time>2016-04-10T10:22:17.000Z</time>
      </trkpt>
      <trkpt lat="47.54856" lon="6.80846">
        <ele>377</ele>
        <time>2016-04-10T10:22:18.000Z</time>
      </trkpt>
      <trkpt lat="47.54852" lon="6.80839">
        <ele>377</ele>
        <time>2016-04-10T10:22:19.000Z</time>
      </trkpt>
      <trkpt lat="47.54846" lon="6.80833">
        <ele>377</ele>
        <time>2016-04-10T10:22:20.000Z</time>
      </trkpt>
      <trkpt lat="47.54841" lon="6.80826">
        <ele>376</ele>
        <time>2016-04-10T10:22:21.000Z</time>
      </trkpt>
      <trkpt lat="47.54833" lon="6.80818">
        <ele>374</ele>
        <time>2016-04-10T10:22:22.000Z</time>
      </trkpt>
      <trkpt lat="47.54827" lon="6.8081">
        <ele>374</ele>
        <time>2016-04-10T10:22:23.000Z</time>
      </trkpt>
      <trkpt lat="47.54823" lon="6.80801">
        <ele>374</ele>
        <time>2016-04-10T10:22:24.000Z</time>
      </trkpt>
      <trkpt lat="47.54819" lon="6.80791">
        <ele>373</ele>
        <time>2016-04-10T10:22:25.000Z</time>
      </trkpt>
      <trkpt lat="47.54813" lon="6.80783">
        <ele>373</ele>
        <time>2016-04-10T10:22:26.000Z</time>
      </trkpt>
      <trkpt lat="47.54808" lon="6.80773">
        <ele>373</ele>
        <time>2016-04-10T10:22:27.000Z</time>
      </trkpt>
      <trkpt lat="47.54802" lon="6.80763">
        <ele>373</ele>
        <time>2016-04-10T10:22:28.000Z</time>
      </trkpt>
      <trkpt lat="47.54795" lon="6.80753">
        <ele>373</ele>
        <time>2016-04-10T10:22:29.000Z</time>
      </trkpt>
      <trkpt lat="47.54789" lon="6.80746">
        <ele>372</ele>
        <time>2016-04-10T10:22:30.000Z</time>
      </trkpt>
      <trkpt lat="47.54784" lon="6.80737">
        <ele>372</ele>
        <time>2016-04-10T10:22:31.000Z</time>
      </trkpt>
      <trkpt lat="47.54778" lon="6.8073">
        <ele>372</ele>
        <time>2016-04-10T10:22:32.000Z</time>
      </trkpt>
      <trkpt lat="47.54771" lon="6.80724">
        <ele>372</ele>
        <time>2016-04-10T10:22:33.000Z</time>
      </trkpt>
      <trkpt lat="47.54766" lon="6.80718">
        <ele>372</ele>
        <time>2016-04-10T10:22:34.000Z</time>
      </trkpt>
      <trkpt lat="47.54762" lon="6.80715">
        <ele>372</ele>
        <time>2016-04-10T10:22:35.000Z</time>
      </trkpt>
      <trkpt lat="47.54759" lon="6.80712">
        <ele>372</ele>
        <time>2016-04-10T10:22:36.000Z</time>
      </trkpt>
      <trkpt lat="47.54755" lon="6.80707">
        <ele>372</ele>
        <time>2016-04-10T10:22:37.000Z</time>
      </trkpt>
      <trkpt lat="47.54749" lon="6.80702">
        <ele>371</ele>
        <time>2016-04-10T10:22:38.000Z</time>
      </trkpt>
      <trkpt lat="47.54744" lon="6.80698">
        <ele>371</ele>
        <time>2016-04-10T10:22:39.000Z</time>
      </trkpt>
      <trkpt lat="47.5474" lon="6.80692">
        <ele>371</ele>
        <time>2016-04-10T10:22:40.000Z</time>
      </trkpt>
      <trkpt lat="47.54737" lon="6.80689">
        <ele>371</ele>
        <time>2016-04-10T10:22:41.000Z</time>
      </trkpt>
      <trkpt lat="47.54734" lon="6.80689">
        <ele>371</ele>
        <time>2016-04-10T10:22:42.000Z</time>
      </trkpt>
      <trkpt lat="47.5473" lon="6.80687">
        <ele>371</ele>
        <time>2016-04-10T10:22:43.000Z</time>
      </trkpt>
      <trkpt lat="47.54727" lon="6.80686">
        <ele>371</ele>
        <time>2016-04-10T10:22:44.000Z</time>
      </trkpt>
      <trkpt lat="47.54725" lon="6.80683">
        <ele>371</ele>
        <time>2016-04-10T10:22:45.000Z</time>
      </trkpt>
      <trkpt lat="47.54725" lon="6.80676">
        <ele>371</ele>
        <time>2016-04-10T10:22:46.000Z</time>
      </trkpt>
      <trkpt lat="47.54725" lon="6.8067">
        <ele>371</ele>
        <time>2016-04-10T10:22:47.000Z</time>
      </trkpt>
      <trkpt lat="47.54724" lon="6.80662">
        <ele>371</ele>
        <time>2016-04-10T10:22:48.000Z</time>
      </trkpt>
      <trkpt lat="47.54722" lon="6.80658">
        <ele>371</ele>
        <time>2016-04-10T10:22:49.000Z</time>
      </trkpt>
      <trkpt lat="47.54721" lon="6.80653">
        <ele>371</ele>
        <time>2016-04-10T10:22:50.000Z</time>
      </trkpt>
      <trkpt lat="47.54719" lon="6.80648">
        <ele>371</ele>
        <time>2016-04-10T10:22:51.000Z</time>
      </trkpt>
      <trkpt lat="47.54717" lon="6.80643">
        <ele>371</ele>
        <time>2016-04-10T10:22:52.000Z</time>
      </trkpt>
      <trkpt lat="47.54715" lon="6.80638">
        <ele>370</ele>
        <time>2016-04-10T10:22:53.000Z</time>
      </trkpt>
      <trkpt lat="47.5471" lon="6.80627">
        <ele>370</ele>
        <time>2016-04-10T10:22:54.000Z</time>
      </trkpt>
      <trkpt lat="47.54708" lon="6.8062">
        <ele>370</ele>
        <time>2016-04-10T10:22:55.000Z</time>
      </trkpt>
      <trkpt lat="47.54706" lon="6.80615">
        <ele>370</ele>
        <time>2016-04-10T10:22:56.000Z</time>
      </trkpt>
      <trkpt lat="47.54704" lon="6.80613">
        <ele>370</ele>
        <time>2016-04-10T10:22:57.000Z</time>
      </trkpt>
      <trkpt lat="47.54702" lon="6.80608">
        <ele>370</ele>
        <time>2016-04-10T10:22:58.000Z</time>
      </trkpt>
      <trkpt lat="47.54699" lon="6.80602">
        <ele>370</ele>
        <time>2016-04-10T10:22:59.000Z</time>
      </trkpt>
      <trkpt lat="47.54698" lon="6.80597">
        <ele>370</ele>
        <time>2016-04-10T10:23:00.000Z</time>
      </trkpt>
      <trkpt lat="47.54697" lon="6.80593">
        <ele>370</ele>
        <time>2016-04-10T10:23:01.000Z</time>
      </trkpt>
      <trkpt lat="47.54696" lon="6.8059">
        <ele>370</ele>
        <time>2016-04-10T10:23:02.000Z</time>
      </trkpt>
      <trkpt lat="47.54694" lon="6.80586">
        <ele>369</ele>
        <time>2016-04-10T10:23:03.000Z</time>
      </trkpt>
      <trkpt lat="47.54693" lon="6.80583">
        <ele>369</ele>
        <time>2016-04-10T10:23:04.000Z</time>
      </trkpt>
      <trkpt lat="47.54693" lon="6.8058">
        <ele>369</ele>
        <time>2016-04-10T10:23:05.000Z</time>
      </trkpt>
      <trkpt lat="47.54692" lon="6.80577">
        <ele>369</ele>
        <time>2016-04-10T10:23:06.000Z</time>
      </trkpt>
      <trkpt lat="47.54691" lon="6.80573">
        <ele>369</ele>
        <time>2016-04-10T10:23:07.000Z</time>
      </trkpt>
      <trkpt lat="47.54691" lon="6.80569">
        <ele>369</ele>
        <time>2016-04-10T10:23:08.000Z</time>
      </trkpt>
      <trkpt lat="47.5469" lon="6.80565">
        <ele>369</ele>
        <time>2016-04-10T10:23:09.000Z</time>
      </trkpt>
      <trkpt lat="47.54689" lon="6.8056">
        <ele>369</ele>
        <time>2016-04-10T10:23:10.000Z</time>
      </trkpt>
      <trkpt lat="47.54688" lon="6.80556">
        <ele>369</ele>
        <time>2016-04-10T10:23:11.000Z</time>
      </trkpt>
      <trkpt lat="47.54688" lon="6.80551">
        <ele>369</ele>
        <time>2016-04-10T10:23:12.000Z</time>
      </trkpt>
      <trkpt lat="47.54688" lon="6.80546">
        <ele>369</ele>
        <time>2016-04-10T10:23:13.000Z</time>
      </trkpt>
      <trkpt lat="47.54687" lon="6.80541">
        <ele>369</ele>
        <time>2016-04-10T10:23:14.000Z</time>
      </trkpt>
      <trkpt lat="47.54686" lon="6.80536">
        <ele>369</ele>
        <time>2016-04-10T10:23:15.000Z</time>
      </trkpt>
      <trkpt lat="47.54685" lon="6.80531">
        <ele>369</ele>
        <time>2016-04-10T10:23:16.000Z</time>
      </trkpt>
      <trkpt lat="47.54685" lon="6.80526">
        <ele>369</ele>
        <time>2016-04-10T10:23:17.000Z</time>
      </trkpt>
      <trkpt lat="47.54684" lon="6.8052">
        <ele>369</ele>
        <time>2016-04-10T10:23:18.000Z</time>
      </trkpt>
      <trkpt lat="47.54683" lon="6.80515">
        <ele>369</ele>
        <time>2016-04-10T10:23:19.000Z</time>
      </trkpt>
      <trkpt lat="47.54682" lon="6.8051">
        <ele>369</ele>
        <time>2016-04-10T10:23:20.000Z</time>
      </trkpt>
      <trkpt lat="47.54681" lon="6.80505">
        <ele>369</ele>
        <time>2016-04-10T10:23:21.000Z</time>
      </trkpt>
      <trkpt lat="47.54681" lon="6.805">
        <ele>369</ele>
        <time>2016-04-10T10:23:22.000Z</time>
      </trkpt>
      <trkpt lat="47.5468" lon="6.80495">
        <ele>370</ele>
        <time>2016-04-10T10:23:23.000Z</time>
      </trkpt>
      <trkpt lat="47.54678" lon="6.80491">
        <ele>370</ele>
        <time>2016-04-10T10:23:24.000Z</time>
      </trkpt>
      <trkpt lat="47.54677" lon="6.80486">
        <ele>370</ele>
        <time>2016-04-10T10:23:25.000Z</time>
      </trkpt>
      <trkpt lat="47.54676" lon="6.80481">
        <ele>370</ele>
        <time>2016-04-10T10:23:26.000Z</time>
      </trkpt>
      <trkpt lat="47.54674" lon="6.80476">
        <ele>370</ele>
        <time>2016-04-10T10:23:27.000Z</time>
      </trkpt>
      <trkpt lat="47.54673" lon="6.80471">
        <ele>370</ele>
        <time>2016-04-10T10:23:28.000Z</time>
      </trkpt>
      <trkpt lat="47.54671" lon="6.80467">
        <ele>370</ele>
        <time>2016-04-10T10:23:29.000Z</time>
      </trkpt>
      <trkpt lat="47.5467" lon="6.80462">
        <ele>370</ele>
        <time>2016-04-10T10:23:30.000Z</time>
      </trkpt>
      <trkpt lat="47.54669" lon="6.80457">
        <ele>370</ele>
        <time>2016-04-10T10:23:31.000Z</time>
      </trkpt>
      <trkpt lat="47.54668" lon="6.80452">
        <ele>370</ele>
        <time>2016-04-10T10:23:32.000Z</time>
      </trkpt>
      <trkpt lat="47.54667" lon="6.80448">
        <ele>370</ele>
        <time>2016-04-10T10:23:33.000Z</time>
      </trkpt>
      <trkpt lat="47.54666" lon="6.80444">
        <ele>368</ele>
        <time>2016-04-10T10:23:34.000Z</time>
      </trkpt>
      <trkpt lat="47.54665" lon="6.8044">
        <ele>369</ele>
        <time>2016-04-10T10:23:35.000Z</time>
      </trkpt>
      <trkpt lat="47.54665" lon="6.80436">
        <ele>369</ele>
        <time>2016-04-10T10:23:36.000Z</time>
      </trkpt>
      <trkpt lat="47.54664" lon="6.80433">
        <ele>369</ele>
        <time>2016-04-10T10:23:37.000Z</time>
      </trkpt>
      <trkpt lat="47.54662" lon="6.80427">
        <ele>369</ele>
        <time>2016-04-10T10:23:39.000Z</time>
      </trkpt>
      <trkpt lat="47.54662" lon="6.80425">
        <ele>370</ele>
        <time>2016-04-10T10:23:40.000Z</time>
      </trkpt>
      <trkpt lat="47.54659" lon="6.8042">
        <ele>370</ele>
        <time>2016-04-10T10:23:42.000Z</time>
      </trkpt>
      <trkpt lat="47.54658" lon="6.80418">
        <ele>370</ele>
        <time>2016-04-10T10:23:43.000Z</time>
      </trkpt>
      <trkpt lat="47.54655" lon="6.80414">
        <ele>371</ele>
        <time>2016-04-10T10:23:45.000Z</time>
      </trkpt>
      <trkpt lat="47.54653" lon="6.80412">
        <ele>371</ele>
        <time>2016-04-10T10:23:46.000Z</time>
      </trkpt>
      <trkpt lat="47.5465" lon="6.80409">
        <ele>371</ele>
        <time>2016-04-10T10:23:47.000Z</time>
      </trkpt>
      <trkpt lat="47.54648" lon="6.80407">
        <ele>371</ele>
        <time>2016-04-10T10:23:48.000Z</time>
      </trkpt>
      <trkpt lat="47.54646" lon="6.80405">
        <ele>371</ele>
        <time>2016-04-10T10:23:49.000Z</time>
      </trkpt>
      <trkpt lat="47.54644" lon="6.80402">
        <ele>371</ele>
        <time>2016-04-10T10:23:50.000Z</time>
      </trkpt>
      <trkpt lat="47.54641" lon="6.804">
        <ele>371</ele>
        <time>2016-04-10T10:23:51.000Z</time>
      </trkpt>
      <trkpt lat="47.54639" lon="6.80398">
        <ele>371</ele>
        <time>2016-04-10T10:23:52.000Z</time>
      </trkpt>
      <trkpt lat="47.54637" lon="6.80395">
        <ele>371</ele>
        <time>2016-04-10T10:23:53.000Z</time>
      </trkpt>
      <trkpt lat="47.54635" lon="6.80392">
        <ele>371</ele>
        <time>2016-04-10T10:23:54.000Z</time>
      </trkpt>
      <trkpt lat="47.54633" lon="6.80389">
        <ele>371</ele>
        <time>2016-04-10T10:23:55.000Z</time>
      </trkpt>
      <trkpt lat="47.54631" lon="6.80385">
        <ele>371</ele>
        <time>2016-04-10T10:23:56.000Z</time>
      </trkpt>
      <trkpt lat="47.54628" lon="6.80382">
        <ele>371</ele>
        <time>2016-04-10T10:23:57.000Z</time>
      </trkpt>
      <trkpt lat="47.54626" lon="6.80378">
        <ele>371</ele>
        <time>2016-04-10T10:23:58.000Z</time>
      </trkpt>
      <trkpt lat="47.54623" lon="6.80375">
        <ele>371</ele>
        <time>2016-04-10T10:23:59.000Z</time>
      </trkpt>
      <trkpt lat="47.54621" lon="6.80372">
        <ele>371</ele>
        <time>2016-04-10T10:24:00.000Z</time>
      </trkpt>
      <trkpt lat="47.54619" lon="6.80369">
        <ele>371</ele>
        <time>2016-04-10T10:24:01.000Z</time>
      </trkpt>
      <trkpt lat="47.54618" lon="6.80365">
        <ele>372</ele>
        <time>2016-04-10T10:24:02.000Z</time>
      </trkpt>
      <trkpt lat="47.54616" lon="6.80361">
        <ele>372</ele>
        <time>2016-04-10T10:24:03.000Z</time>
      </trkpt>
      <trkpt lat="47.54614" lon="6.80358">
        <ele>372</ele>
        <time>2016-04-10T10:24:04.000Z</time>
      </trkpt>
      <trkpt lat="47.54612" lon="6.80355">
        <ele>372</ele>
        <time>2016-04-10T10:24:05.000Z</time>
      </trkpt>
      <trkpt lat="47.5461" lon="6.80352">
        <ele>371</ele>
        <time>2016-04-10T10:24:06.000Z</time>
      </trkpt>
      <trkpt lat="47.54607" lon="6.8035">
        <ele>371</ele>
        <time>2016-04-10T10:24:07.000Z</time>
      </trkpt>
      <trkpt lat="47.54605" lon="6.80348">
        <ele>371</ele>
        <time>2016-04-10T10:24:08.000Z</time>
      </trkpt>
      <trkpt lat="47.54602" lon="6.80346">
        <ele>371</ele>
        <time>2016-04-10T10:24:10.000Z</time>
      </trkpt>
      <trkpt lat="47.546" lon="6.80345">
        <ele>371</ele>
        <time>2016-04-10T10:24:11.000Z</time>
      </trkpt>
      <trkpt lat="47.54598" lon="6.80343">
        <ele>371</ele>
        <time>2016-04-10T10:24:12.000Z</time>
      </trkpt>
      <trkpt lat="47.54595" lon="6.80341">
        <ele>371</ele>
        <time>2016-04-10T10:24:13.000Z</time>
      </trkpt>
      <trkpt lat="47.54593" lon="6.80339">
        <ele>371</ele>
        <time>2016-04-10T10:24:14.000Z</time>
      </trkpt>
      <trkpt lat="47.54591" lon="6.80337">
        <ele>370</ele>
        <time>2016-04-10T10:24:15.000Z</time>
      </trkpt>
      <trkpt lat="47.54588" lon="6.80334">
        <ele>370</ele>
        <time>2016-04-10T10:24:16.000Z</time>
      </trkpt>
      <trkpt lat="47.54586" lon="6.8033">
        <ele>371</ele>
        <time>2016-04-10T10:24:17.000Z</time>
      </trkpt>
      <trkpt lat="47.54583" lon="6.80327">
        <ele>370</ele>
        <time>2016-04-10T10:24:18.000Z</time>
      </trkpt>
      <trkpt lat="47.5458" lon="6.80323">
        <ele>370</ele>
        <time>2016-04-10T10:24:19.000Z</time>
      </trkpt>
      <trkpt lat="47.54577" lon="6.80319">
        <ele>370</ele>
        <time>2016-04-10T10:24:20.000Z</time>
      </trkpt>
      <trkpt lat="47.54574" lon="6.80314">
        <ele>370</ele>
        <time>2016-04-10T10:24:21.000Z</time>
      </trkpt>
      <trkpt lat="47.54571" lon="6.80309">
        <ele>370</ele>
        <time>2016-04-10T10:24:22.000Z</time>
      </trkpt>
      <trkpt lat="47.54569" lon="6.80304">
        <ele>370</ele>
        <time>2016-04-10T10:24:23.000Z</time>
      </trkpt>
      <trkpt lat="47.54567" lon="6.80299">
        <ele>370</ele>
        <time>2016-04-10T10:24:24.000Z</time>
      </trkpt>
      <trkpt lat="47.54565" lon="6.80295">
        <ele>370</ele>
        <time>2016-04-10T10:24:25.000Z</time>
      </trkpt>
      <trkpt lat="47.54563" lon="6.80291">
        <ele>370</ele>
        <time>2016-04-10T10:24:26.000Z</time>
      </trkpt>
      <trkpt lat="47.54561" lon="6.80287">
        <ele>371</ele>
        <time>2016-04-10T10:24:27.000Z</time>
      </trkpt>
      <trkpt lat="47.54559" lon="6.80283">
        <ele>371</ele>
        <time>2016-04-10T10:24:28.000Z</time>
      </trkpt>
      <trkpt lat="47.54557" lon="6.80279">
        <ele>371</ele>
        <time>2016-04-10T10:24:29.000Z</time>
      </trkpt>
      <trkpt lat="47.54555" lon="6.80275">
        <ele>371</ele>
        <time>2016-04-10T10:24:30.000Z</time>
      </trkpt>
      <trkpt lat="47.54553" lon="6.80271">
        <ele>371</ele>
        <time>2016-04-10T10:24:31.000Z</time>
      </trkpt>
      <trkpt lat="47.5455" lon="6.80266">
        <ele>371</ele>
        <time>2016-04-10T10:24:32.000Z</time>
      </trkpt>
      <trkpt lat="47.54548" lon="6.80261">
        <ele>371</ele>
        <time>2016-04-10T10:24:33.000Z</time>
      </trkpt>
      <trkpt lat="47.54545" lon="6.80256">
        <ele>370</ele>
        <time>2016-04-10T10:24:34.000Z</time>
      </trkpt>
      <trkpt lat="47.54542" lon="6.8025">
        <ele>370</ele>
        <time>2016-04-10T10:24:35.000Z</time>
      </trkpt>
      <trkpt lat="47.5454" lon="6.80245">
        <ele>373</ele>
        <time>2016-04-10T10:24:36.000Z</time>
      </trkpt>
      <trkpt lat="47.54537" lon="6.8024">
        <ele>372</ele>
        <time>2016-04-10T10:24:37.000Z</time>
      </trkpt>
      <trkpt lat="47.54535" lon="6.80235">
        <ele>372</ele>
        <time>2016-04-10T10:24:38.000Z</time>
      </trkpt>
      <trkpt lat="47.54533" lon="6.80229">
        <ele>372</ele>
        <time>2016-04-10T10:24:39.000Z</time>
      </trkpt>
      <trkpt lat="47.5453" lon="6.80223">
        <ele>372</ele>
        <time>2016-04-10T10:24:40.000Z</time>
      </trkpt>
      <trkpt lat="47.54529" lon="6.80218">
        <ele>372</ele>
        <time>2016-04-10T10:24:41.000Z</time>
      </trkpt>
      <trkpt lat="47.54524" lon="6.80209">
        <ele>372</ele>
        <time>2016-04-10T10:24:42.000Z</time>
      </trkpt>
      <trkpt lat="47.5452" lon="6.80204">
        <ele>372</ele>
        <time>2016-04-10T10:24:43.000Z</time>
      </trkpt>
      <trkpt lat="47.54517" lon="6.802">
        <ele>372</ele>
        <time>2016-04-10T10:24:44.000Z</time>
      </trkpt>
      <trkpt lat="47.54515" lon="6.80195">
        <ele>372</ele>
        <time>2016-04-10T10:24:45.000Z</time>
      </trkpt>
      <trkpt lat="47.54514" lon="6.80189">
        <ele>372</ele>
        <time>2016-04-10T10:24:46.000Z</time>
      </trkpt>
      <trkpt lat="47.54512" lon="6.80182">
        <ele>371</ele>
        <time>2016-04-10T10:24:47.000Z</time>
      </trkpt>
      <trkpt lat="47.54509" lon="6.80176">
        <ele>371</ele>
        <time>2016-04-10T10:24:48.000Z</time>
      </trkpt>
      <trkpt lat="47.54506" lon="6.80172">
        <ele>370</ele>
        <time>2016-04-10T10:24:49.000Z</time>
      </trkpt>
      <trkpt lat="47.54505" lon="6.80165">
        <ele>370</ele>
        <time>2016-04-10T10:24:50.000Z</time>
      </trkpt>
      <trkpt lat="47.54502" lon="6.8016">
        <ele>371</ele>
        <time>2016-04-10T10:24:51.000Z</time>
      </trkpt>
      <trkpt lat="47.545" lon="6.80155">
        <ele>371</ele>
        <time>2016-04-10T10:24:52.000Z</time>
      </trkpt>
      <trkpt lat="47.54499" lon="6.80151">
        <ele>367</ele>
        <time>2016-04-10T10:24:53.000Z</time>
      </trkpt>
      <trkpt lat="47.54497" lon="6.80146">
        <ele>367</ele>
        <time>2016-04-10T10:24:54.000Z</time>
      </trkpt>
      <trkpt lat="47.54496" lon="6.80142">
        <ele>367</ele>
        <time>2016-04-10T10:24:55.000Z</time>
      </trkpt>
      <trkpt lat="47.54494" lon="6.80139">
        <ele>367</ele>
        <time>2016-04-10T10:24:56.000Z</time>
      </trkpt>
      <trkpt lat="47.54493" lon="6.80135">
        <ele>366</ele>
        <time>2016-04-10T10:24:57.000Z</time>
      </trkpt>
      <trkpt lat="47.54492" lon="6.80131">
        <ele>366</ele>
        <time>2016-04-10T10:24:58.000Z</time>
      </trkpt>
      <trkpt lat="47.54493" lon="6.80125">
        <ele>366</ele>
        <time>2016-04-10T10:24:59.000Z</time>
      </trkpt>
      <trkpt lat="47.54493" lon="6.8012">
        <ele>366</ele>
        <time>2016-04-10T10:25:00.000Z</time>
      </trkpt>
      <trkpt lat="47.54493" lon="6.80114">
        <ele>367</ele>
        <time>2016-04-10T10:25:01.000Z</time>
      </trkpt>
      <trkpt lat="47.54494" lon="6.80109">
        <ele>367</ele>
        <time>2016-04-10T10:25:02.000Z</time>
      </trkpt>
      <trkpt lat="47.54494" lon="6.80104">
        <ele>367</ele>
        <time>2016-04-10T10:25:03.000Z</time>
      </trkpt>
      <trkpt lat="47.54493" lon="6.80099">
        <ele>368</ele>
        <time>2016-04-10T10:25:04.000Z</time>
      </trkpt>
      <trkpt lat="47.54492" lon="6.80094">
        <ele>368</ele>
        <time>2016-04-10T10:25:05.000Z</time>
      </trkpt>
      <trkpt lat="47.54491" lon="6.8009">
        <ele>368</ele>
        <time>2016-04-10T10:25:06.000Z</time>
      </trkpt>
      <trkpt lat="47.5449" lon="6.80086">
        <ele>368</ele>
        <time>2016-04-10T10:25:07.000Z</time>
      </trkpt>
      <trkpt lat="47.54488" lon="6.80081">
        <ele>369</ele>
        <time>2016-04-10T10:25:08.000Z</time>
      </trkpt>
      <trkpt lat="47.54487" lon="6.80077">
        <ele>368</ele>
        <time>2016-04-10T10:25:09.000Z</time>
      </trkpt>
      <trkpt lat="47.54485" lon="6.80072">
        <ele>368</ele>
        <time>2016-04-10T10:25:10.000Z</time>
      </trkpt>
      <trkpt lat="47.54483" lon="6.80068">
        <ele>368</ele>
        <time>2016-04-10T10:25:11.000Z</time>
      </trkpt>
      <trkpt lat="47.54481" lon="6.80063">
        <ele>368</ele>
        <time>2016-04-10T10:25:12.000Z</time>
      </trkpt>
      <trkpt lat="47.54479" lon="6.80058">
        <ele>367</ele>
        <time>2016-04-10T10:25:13.000Z</time>
      </trkpt>
      <trkpt lat="47.54478" lon="6.80053">
        <ele>367</ele>
        <time>2016-04-10T10:25:14.000Z</time>
      </trkpt>
      <trkpt lat="47.54477" lon="6.80049">
        <ele>367</ele>
        <time>2016-04-10T10:25:15.000Z</time>
      </trkpt>
      <trkpt lat="47.54476" lon="6.80045">
        <ele>367</ele>
        <time>2016-04-10T10:25:16.000Z</time>
      </trkpt>
      <trkpt lat="47.54475" lon="6.80041">
        <ele>367</ele>
        <time>2016-04-10T10:25:17.000Z</time>
      </trkpt>
      <trkpt lat="47.54473" lon="6.80037">
        <ele>367</ele>
        <time>2016-04-10T10:25:18.000Z</time>
      </trkpt>
      <trkpt lat="47.54472" lon="6.80033">
        <ele>367</ele>
        <time>2016-04-10T10:25:19.000Z</time>
      </trkpt>
      <trkpt lat="47.54471" lon="6.80029">
        <ele>367</ele>
        <time>2016-04-10T10:25:20.000Z</time>
      </trkpt>
      <trkpt lat="47.5447" lon="6.80025">
        <ele>367</ele>
        <time>2016-04-10T10:25:21.000Z</time>
      </trkpt>
      <trkpt lat="47.54469" lon="6.80021">
        <ele>368</ele>
        <time>2016-04-10T10:25:22.000Z</time>
      </trkpt>
      <trkpt lat="47.54467" lon="6.80018">
        <ele>367</ele>
        <time>2016-04-10T10:25:23.000Z</time>
      </trkpt>
      <trkpt lat="47.54466" lon="6.80016">
        <ele>367</ele>
        <time>2016-04-10T10:25:24.000Z</time>
      </trkpt>
      <trkpt lat="47.54464" lon="6.80014">
        <ele>367</ele>
        <time>2016-04-10T10:25:25.000Z</time>
      </trkpt>
      <trkpt lat="47.54462" lon="6.80011">
        <ele>367</ele>
        <time>2016-04-10T10:25:26.000Z</time>
      </trkpt>
      <trkpt lat="47.5446" lon="6.80008">
        <ele>367</ele>
        <time>2016-04-10T10:25:27.000Z</time>
      </trkpt>
      <trkpt lat="47.54458" lon="6.80005">
        <ele>367</ele>
        <time>2016-04-10T10:25:28.000Z</time>
      </trkpt>
      <trkpt lat="47.54456" lon="6.8">
        <ele>367</ele>
        <time>2016-04-10T10:25:29.000Z</time>
      </trkpt>
      <trkpt lat="47.54455" lon="6.79996">
        <ele>369</ele>
        <time>2016-04-10T10:25:30.000Z</time>
      </trkpt>
      <trkpt lat="47.54453" lon="6.79992">
        <ele>369</ele>
        <time>2016-04-10T10:25:31.000Z</time>
      </trkpt>
      <trkpt lat="47.54452" lon="6.79988">
        <ele>369</ele>
        <time>2016-04-10T10:25:32.000Z</time>
      </trkpt>
      <trkpt lat="47.5445" lon="6.79984">
        <ele>369</ele>
        <time>2016-04-10T10:25:33.000Z</time>
      </trkpt>
      <trkpt lat="47.54449" lon="6.7998">
        <ele>369</ele>
        <time>2016-04-10T10:25:34.000Z</time>
      </trkpt>
      <trkpt lat="47.54448" lon="6.79976">
        <ele>369</ele>
        <time>2016-04-10T10:25:35.000Z</time>
      </trkpt>
      <trkpt lat="47.54447" lon="6.79973">
        <ele>369</ele>
        <time>2016-04-10T10:25:36.000Z</time>
      </trkpt>
      <trkpt lat="47.54446" lon="6.7997">
        <ele>370</ele>
        <time>2016-04-10T10:25:37.000Z</time>
      </trkpt>
      <trkpt lat="47.54444" lon="6.79967">
        <ele>370</ele>
        <time>2016-04-10T10:25:38.000Z</time>
      </trkpt>
      <trkpt lat="47.54443" lon="6.79964">
        <ele>370</ele>
        <time>2016-04-10T10:25:39.000Z</time>
      </trkpt>
      <trkpt lat="47.54441" lon="6.79962">
        <ele>370</ele>
        <time>2016-04-10T10:25:40.000Z</time>
      </trkpt>
      <trkpt lat="47.54439" lon="6.79959">
        <ele>370</ele>
        <time>2016-04-10T10:25:41.000Z</time>
      </trkpt>
      <trkpt lat="47.54437" lon="6.79957">
        <ele>370</ele>
        <time>2016-04-10T10:25:42.000Z</time>
      </trkpt>
      <trkpt lat="47.54435" lon="6.79954">
        <ele>370</ele>
        <time>2016-04-10T10:25:43.000Z</time>
      </trkpt>
      <trkpt lat="47.54433" lon="6.79951">
        <ele>370</ele>
        <time>2016-04-10T10:25:44.000Z</time>
      </trkpt>
      <trkpt lat="47.54431" lon="6.79948">
        <ele>370</ele>
        <time>2016-04-10T10:25:45.000Z</time>
      </trkpt>
      <trkpt lat="47.54429" lon="6.79945">
        <ele>370</ele>
        <time>2016-04-10T10:25:46.000Z</time>
      </trkpt>
      <trkpt lat="47.54427" lon="6.79941">
        <ele>370</ele>
        <time>2016-04-10T10:25:47.000Z</time>
      </trkpt>
      <trkpt lat="47.54424" lon="6.79938">
        <ele>370</ele>
        <time>2016-04-10T10:25:48.000Z</time>
      </trkpt>
      <trkpt lat="47.54421" lon="6.79933">
        <ele>370</ele>
        <time>2016-04-10T10:25:49.000Z</time>
      </trkpt>
      <trkpt lat="47.54419" lon="6.79929">
        <ele>370</ele>
        <time>2016-04-10T10:25:50.000Z</time>
      </trkpt>
      <trkpt lat="47.54417" lon="6.79925">
        <ele>370</ele>
        <time>2016-04-10T10:25:51.000Z</time>
      </trkpt>
      <trkpt lat="47.54415" lon="6.79921">
        <ele>369</ele>
        <time>2016-04-10T10:25:52.000Z</time>
      </trkpt>
      <trkpt lat="47.54413" lon="6.79916">
        <ele>369</ele>
        <time>2016-04-10T10:25:53.000Z</time>
      </trkpt>
      <trkpt lat="47.54412" lon="6.79912">
        <ele>369</ele>
        <time>2016-04-10T10:25:54.000Z</time>
      </trkpt>
      <trkpt lat="47.5441" lon="6.79908">
        <ele>369</ele>
        <time>2016-04-10T10:25:55.000Z</time>
      </trkpt>
      <trkpt lat="47.54408" lon="6.79904">
        <ele>368</ele>
        <time>2016-04-10T10:25:56.000Z</time>
      </trkpt>
      <trkpt lat="47.54406" lon="6.799">
        <ele>368</ele>
        <time>2016-04-10T10:25:57.000Z</time>
      </trkpt>
      <trkpt lat="47.54403" lon="6.79896">
        <ele>368</ele>
        <time>2016-04-10T10:25:58.000Z</time>
      </trkpt>
      <trkpt lat="47.544" lon="6.79892">
        <ele>367</ele>
        <time>2016-04-10T10:25:59.000Z</time>
      </trkpt>
      <trkpt lat="47.54397" lon="6.79887">
        <ele>367</ele>
        <time>2016-04-10T10:26:00.000Z</time>
      </trkpt>
      <trkpt lat="47.54394" lon="6.79883">
        <ele>367</ele>
        <time>2016-04-10T10:26:01.000Z</time>
      </trkpt>
      <trkpt lat="47.54391" lon="6.79878">
        <ele>367</ele>
        <time>2016-04-10T10:26:02.000Z</time>
      </trkpt>
      <trkpt lat="47.54389" lon="6.79874">
        <ele>367</ele>
        <time>2016-04-10T10:26:03.000Z</time>
      </trkpt>
      <trkpt lat="47.54387" lon="6.7987">
        <ele>367</ele>
        <time>2016-04-10T10:26:04.000Z</time>
      </trkpt>
      <trkpt lat="47.54386" lon="6.79865">
        <ele>367</ele>
        <time>2016-04-10T10:26:05.000Z</time>
      </trkpt>
      <trkpt lat="47.54384" lon="6.7986">
        <ele>367</ele>
        <time>2016-04-10T10:26:06.000Z</time>
      </trkpt>
      <trkpt lat="47.54383" lon="6.79856">
        <ele>367</ele>
        <time>2016-04-10T10:26:07.000Z</time>
      </trkpt>
      <trkpt lat="47.54382" lon="6.79851">
        <ele>367</ele>
        <time>2016-04-10T10:26:08.000Z</time>
      </trkpt>
      <trkpt lat="47.54381" lon="6.79846">
        <ele>367</ele>
        <time>2016-04-10T10:26:09.000Z</time>
      </trkpt>
      <trkpt lat="47.5438" lon="6.79841">
        <ele>367</ele>
        <time>2016-04-10T10:26:10.000Z</time>
      </trkpt>
      <trkpt lat="47.54379" lon="6.79836">
        <ele>367</ele>
        <time>2016-04-10T10:26:11.000Z</time>
      </trkpt>
      <trkpt lat="47.54378" lon="6.79832">
        <ele>367</ele>
        <time>2016-04-10T10:26:12.000Z</time>
      </trkpt>
      <trkpt lat="47.54377" lon="6.79827">
        <ele>367</ele>
        <time>2016-04-10T10:26:13.000Z</time>
      </trkpt>
      <trkpt lat="47.54376" lon="6.79822">
        <ele>367</ele>
        <time>2016-04-10T10:26:14.000Z</time>
      </trkpt>
      <trkpt lat="47.54375" lon="6.79817">
        <ele>367</ele>
        <time>2016-04-10T10:26:15.000Z</time>
      </trkpt>
      <trkpt lat="47.54374" lon="6.79812">
        <ele>367</ele>
        <time>2016-04-10T10:26:16.000Z</time>
      </trkpt>
      <trkpt lat="47.54372" lon="6.79807">
        <ele>367</ele>
        <time>2016-04-10T10:26:17.000Z</time>
      </trkpt>
      <trkpt lat="47.5437" lon="6.79802">
        <ele>367</ele>
        <time>2016-04-10T10:26:18.000Z</time>
      </trkpt>
      <trkpt lat="47.54369" lon="6.79797">
        <ele>367</ele>
        <time>2016-04-10T10:26:19.000Z</time>
      </trkpt>
      <trkpt lat="47.54367" lon="6.79792">
        <ele>367</ele>
        <time>2016-04-10T10:26:20.000Z</time>
      </trkpt>
      <trkpt lat="47.54365" lon="6.79788">
        <ele>367</ele>
        <time>2016-04-10T10:26:21.000Z</time>
      </trkpt>
      <trkpt lat="47.54363" lon="6.79784">
        <ele>367</ele>
        <time>2016-04-10T10:26:22.000Z</time>
      </trkpt>
      <trkpt lat="47.54362" lon="6.79782">
        <ele>367</ele>
        <time>2016-04-10T10:26:23.000Z</time>
      </trkpt>
      <trkpt lat="47.54359" lon="6.79781">
        <ele>367</ele>
        <time>2016-04-10T10:26:24.000Z</time>
      </trkpt>
      <trkpt lat="47.54357" lon="6.7978">
        <ele>366</ele>
        <time>2016-04-10T10:26:25.000Z</time>
      </trkpt>
      <trkpt lat="47.54346" lon="6.79776">
        <ele>366</ele>
        <time>2016-04-10T10:26:26.000Z</time>
      </trkpt>
      <trkpt lat="47.54341" lon="6.79777">
        <ele>366</ele>
        <time>2016-04-10T10:26:27.000Z</time>
      </trkpt>
      <trkpt lat="47.54335" lon="6.79777">
        <ele>366</ele>
        <time>2016-04-10T10:26:28.000Z</time>
      </trkpt>
      <trkpt lat="47.54329" lon="6.79776">
        <ele>360</ele>
        <time>2016-04-10T10:26:29.000Z</time>
      </trkpt>
      <trkpt lat="47.54324" lon="6.79773">
        <ele>360</ele>
        <time>2016-04-10T10:26:30.000Z</time>
      </trkpt>
      <trkpt lat="47.54318" lon="6.79774">
        <ele>360</ele>
        <time>2016-04-10T10:26:31.000Z</time>
      </trkpt>
      <trkpt lat="47.54312" lon="6.79775">
        <ele>360</ele>
        <time>2016-04-10T10:26:32.000Z</time>
      </trkpt>
      <trkpt lat="47.54306" lon="6.79774">
        <ele>359</ele>
        <time>2016-04-10T10:26:33.000Z</time>
      </trkpt>
      <trkpt lat="47.54299" lon="6.79775">
        <ele>359</ele>
        <time>2016-04-10T10:26:34.000Z</time>
      </trkpt>
      <trkpt lat="47.54291" lon="6.79777">
        <ele>358</ele>
        <time>2016-04-10T10:26:35.000Z</time>
      </trkpt>
      <trkpt lat="47.54283" lon="6.79778">
        <ele>357</ele>
        <time>2016-04-10T10:26:36.000Z</time>
      </trkpt>
      <trkpt lat="47.54275" lon="6.79781">
        <ele>357</ele>
        <time>2016-04-10T10:26:37.000Z</time>
      </trkpt>
      <trkpt lat="47.54267" lon="6.79782">
        <ele>357</ele>
        <time>2016-04-10T10:26:38.000Z</time>
      </trkpt>
      <trkpt lat="47.54259" lon="6.79784">
        <ele>356</ele>
        <time>2016-04-10T10:26:39.000Z</time>
      </trkpt>
      <trkpt lat="47.54251" lon="6.79785">
        <ele>356</ele>
        <time>2016-04-10T10:26:40.000Z</time>
      </trkpt>
      <trkpt lat="47.54242" lon="6.79786">
        <ele>352</ele>
        <time>2016-04-10T10:26:41.000Z</time>
      </trkpt>
      <trkpt lat="47.54233" lon="6.79786">
        <ele>352</ele>
        <time>2016-04-10T10:26:42.000Z</time>
      </trkpt>
      <trkpt lat="47.54224" lon="6.79787">
        <ele>352</ele>
        <time>2016-04-10T10:26:43.000Z</time>
      </trkpt>
      <trkpt lat="47.54215" lon="6.79788">
        <ele>352</ele>
        <time>2016-04-10T10:26:44.000Z</time>
      </trkpt>
      <trkpt lat="47.54207" lon="6.7979">
        <ele>352</ele>
        <time>2016-04-10T10:26:45.000Z</time>
      </trkpt>
      <trkpt lat="47.54199" lon="6.7979">
        <ele>352</ele>
        <time>2016-04-10T10:26:46.000Z</time>
      </trkpt>
      <trkpt lat="47.54191" lon="6.79792">
        <ele>352</ele>
        <time>2016-04-10T10:26:47.000Z</time>
      </trkpt>
      <trkpt lat="47.54183" lon="6.79793">
        <ele>352</ele>
        <time>2016-04-10T10:26:48.000Z</time>
      </trkpt>
      <trkpt lat="47.54176" lon="6.79793">
        <ele>352</ele>
        <time>2016-04-10T10:26:49.000Z</time>
      </trkpt>
      <trkpt lat="47.54169" lon="6.79792">
        <ele>352</ele>
        <time>2016-04-10T10:26:50.000Z</time>
      </trkpt>
      <trkpt lat="47.54163" lon="6.79789">
        <ele>353</ele>
        <time>2016-04-10T10:26:51.000Z</time>
      </trkpt>
      <trkpt lat="47.54157" lon="6.79785">
        <ele>353</ele>
        <time>2016-04-10T10:26:52.000Z</time>
      </trkpt>
      <trkpt lat="47.54151" lon="6.79781">
        <ele>352</ele>
        <time>2016-04-10T10:26:53.000Z</time>
      </trkpt>
      <trkpt lat="47.54146" lon="6.79776">
        <ele>352</ele>
        <time>2016-04-10T10:26:54.000Z</time>
      </trkpt>
      <trkpt lat="47.54143" lon="6.79771">
        <ele>352</ele>
        <time>2016-04-10T10:26:55.000Z</time>
      </trkpt>
      <trkpt lat="47.54139" lon="6.79767">
        <ele>352</ele>
        <time>2016-04-10T10:26:56.000Z</time>
      </trkpt>
      <trkpt lat="47.54135" lon="6.79762">
        <ele>353</ele>
        <time>2016-04-10T10:26:57.000Z</time>
      </trkpt>
      <trkpt lat="47.54132" lon="6.79759">
        <ele>353</ele>
        <time>2016-04-10T10:26:58.000Z</time>
      </trkpt>
      <trkpt lat="47.54128" lon="6.79756">
        <ele>353</ele>
        <time>2016-04-10T10:26:59.000Z</time>
      </trkpt>
      <trkpt lat="47.54124" lon="6.79753">
        <ele>353</ele>
        <time>2016-04-10T10:27:00.000Z</time>
      </trkpt>
      <trkpt lat="47.5412" lon="6.7975">
        <ele>351</ele>
        <time>2016-04-10T10:27:01.000Z</time>
      </trkpt>
      <trkpt lat="47.54116" lon="6.79747">
        <ele>352</ele>
        <time>2016-04-10T10:27:02.000Z</time>
      </trkpt>
      <trkpt lat="47.54112" lon="6.79744">
        <ele>352</ele>
        <time>2016-04-10T10:27:03.000Z</time>
      </trkpt>
      <trkpt lat="47.54107" lon="6.79742">
        <ele>352</ele>
        <time>2016-04-10T10:27:04.000Z</time>
      </trkpt>
      <trkpt lat="47.54103" lon="6.7974">
        <ele>352</ele>
        <time>2016-04-10T10:27:05.000Z</time>
      </trkpt>
      <trkpt lat="47.54098" lon="6.79738">
        <ele>352</ele>
        <time>2016-04-10T10:27:06.000Z</time>
      </trkpt>
      <trkpt lat="47.54094" lon="6.79738">
        <ele>352</ele>
        <time>2016-04-10T10:27:07.000Z</time>
      </trkpt>
      <trkpt lat="47.5409" lon="6.79738">
        <ele>353</ele>
        <time>2016-04-10T10:27:08.000Z</time>
      </trkpt>
      <trkpt lat="47.54085" lon="6.79738">
        <ele>353</ele>
        <time>2016-04-10T10:27:09.000Z</time>
      </trkpt>
      <trkpt lat="47.5408" lon="6.79739">
        <ele>354</ele>
        <time>2016-04-10T10:27:10.000Z</time>
      </trkpt>
      <trkpt lat="47.54075" lon="6.7974">
        <ele>354</ele>
        <time>2016-04-10T10:27:11.000Z</time>
      </trkpt>
      <trkpt lat="47.5407" lon="6.79743">
        <ele>354</ele>
        <time>2016-04-10T10:27:12.000Z</time>
      </trkpt>
      <trkpt lat="47.54065" lon="6.79745">
        <ele>354</ele>
        <time>2016-04-10T10:27:13.000Z</time>
      </trkpt>
      <trkpt lat="47.5406" lon="6.79745">
        <ele>354</ele>
        <time>2016-04-10T10:27:14.000Z</time>
      </trkpt>
      <trkpt lat="47.54056" lon="6.79747">
        <ele>354</ele>
        <time>2016-04-10T10:27:15.000Z</time>
      </trkpt>
      <trkpt lat="47.54052" lon="6.79749">
        <ele>354</ele>
        <time>2016-04-10T10:27:16.000Z</time>
      </trkpt>
      <trkpt lat="47.54047" lon="6.7975">
        <ele>355</ele>
        <time>2016-04-10T10:27:17.000Z</time>
      </trkpt>
      <trkpt lat="47.54043" lon="6.79752">
        <ele>355</ele>
        <time>2016-04-10T10:27:18.000Z</time>
      </trkpt>
      <trkpt lat="47.5404" lon="6.79754">
        <ele>355</ele>
        <time>2016-04-10T10:27:19.000Z</time>
      </trkpt>
      <trkpt lat="47.54037" lon="6.79757">
        <ele>355</ele>
        <time>2016-04-10T10:27:20.000Z</time>
      </trkpt>
      <trkpt lat="47.54034" lon="6.79761">
        <ele>355</ele>
        <time>2016-04-10T10:27:21.000Z</time>
      </trkpt>
      <trkpt lat="47.5403" lon="6.79762">
        <ele>355</ele>
        <time>2016-04-10T10:27:22.000Z</time>
      </trkpt>
      <trkpt lat="47.54026" lon="6.79766">
        <ele>355</ele>
        <time>2016-04-10T10:27:23.000Z</time>
      </trkpt>
      <trkpt lat="47.54022" lon="6.79769">
        <ele>355</ele>
        <time>2016-04-10T10:27:24.000Z</time>
      </trkpt>
      <trkpt lat="47.54018" lon="6.79773">
        <ele>355</ele>
        <time>2016-04-10T10:27:25.000Z</time>
      </trkpt>
      <trkpt lat="47.54014" lon="6.79776">
        <ele>355</ele>
        <time>2016-04-10T10:27:26.000Z</time>
      </trkpt>
      <trkpt lat="47.54009" lon="6.79779">
        <ele>355</ele>
        <time>2016-04-10T10:27:27.000Z</time>
      </trkpt>
      <trkpt lat="47.54003" lon="6.79782">
        <ele>355</ele>
        <time>2016-04-10T10:27:28.000Z</time>
      </trkpt>
      <trkpt lat="47.53998" lon="6.79784">
        <ele>354</ele>
        <time>2016-04-10T10:27:29.000Z</time>
      </trkpt>
      <trkpt lat="47.53993" lon="6.79787">
        <ele>354</ele>
        <time>2016-04-10T10:27:30.000Z</time>
      </trkpt>
      <trkpt lat="47.53988" lon="6.7979">
        <ele>354</ele>
        <time>2016-04-10T10:27:31.000Z</time>
      </trkpt>
      <trkpt lat="47.53982" lon="6.79794">
        <ele>353</ele>
        <time>2016-04-10T10:27:32.000Z</time>
      </trkpt>
      <trkpt lat="47.53977" lon="6.79799">
        <ele>353</ele>
        <time>2016-04-10T10:27:33.000Z</time>
      </trkpt>
      <trkpt lat="47.53972" lon="6.79805">
        <ele>353</ele>
        <time>2016-04-10T10:27:34.000Z</time>
      </trkpt>
      <trkpt lat="47.53967" lon="6.7981">
        <ele>353</ele>
        <time>2016-04-10T10:27:35.000Z</time>
      </trkpt>
      <trkpt lat="47.53961" lon="6.79815">
        <ele>353</ele>
        <time>2016-04-10T10:27:36.000Z</time>
      </trkpt>
      <trkpt lat="47.53956" lon="6.79821">
        <ele>353</ele>
        <time>2016-04-10T10:27:37.000Z</time>
      </trkpt>
      <trkpt lat="47.53951" lon="6.79827">
        <ele>352</ele>
        <time>2016-04-10T10:27:38.000Z</time>
      </trkpt>
      <trkpt lat="47.53946" lon="6.79833">
        <ele>352</ele>
        <time>2016-04-10T10:27:39.000Z</time>
      </trkpt>
      <trkpt lat="47.53941" lon="6.79839">
        <ele>352</ele>
        <time>2016-04-10T10:27:40.000Z</time>
      </trkpt>
      <trkpt lat="47.53936" lon="6.79843">
        <ele>352</ele>
        <time>2016-04-10T10:27:41.000Z</time>
      </trkpt>
      <trkpt lat="47.5393" lon="6.79848">
        <ele>352</ele>
        <time>2016-04-10T10:27:42.000Z</time>
      </trkpt>
      <trkpt lat="47.53925" lon="6.79852">
        <ele>352</ele>
        <time>2016-04-10T10:27:43.000Z</time>
      </trkpt>
      <trkpt lat="47.53921" lon="6.79856">
        <ele>352</ele>
        <time>2016-04-10T10:27:44.000Z</time>
      </trkpt>
      <trkpt lat="47.53915" lon="6.79859">
        <ele>350</ele>
        <time>2016-04-10T10:27:45.000Z</time>
      </trkpt>
      <trkpt lat="47.53909" lon="6.79859">
        <ele>350</ele>
        <time>2016-04-10T10:27:46.000Z</time>
      </trkpt>
      <trkpt lat="47.53903" lon="6.79854">
        <ele>350</ele>
        <time>2016-04-10T10:27:47.000Z</time>
      </trkpt>
      <trkpt lat="47.53899" lon="6.79847">
        <ele>350</ele>
        <time>2016-04-10T10:27:48.000Z</time>
      </trkpt>
      <trkpt lat="47.53896" lon="6.79839">
        <ele>350</ele>
        <time>2016-04-10T10:27:49.000Z</time>
      </trkpt>
      <trkpt lat="47.53893" lon="6.79831">
        <ele>348</ele>
        <time>2016-04-10T10:27:50.000Z</time>
      </trkpt>
      <trkpt lat="47.5389" lon="6.79825">
        <ele>348</ele>
        <time>2016-04-10T10:27:51.000Z</time>
      </trkpt>
      <trkpt lat="47.53887" lon="6.79817">
        <ele>348</ele>
        <time>2016-04-10T10:27:52.000Z</time>
      </trkpt>
      <trkpt lat="47.53885" lon="6.79809">
        <ele>348</ele>
        <time>2016-04-10T10:27:53.000Z</time>
      </trkpt>
      <trkpt lat="47.53882" lon="6.79802">
        <ele>348</ele>
        <time>2016-04-10T10:27:54.000Z</time>
      </trkpt>
      <trkpt lat="47.53881" lon="6.79793">
        <ele>348</ele>
        <time>2016-04-10T10:27:55.000Z</time>
      </trkpt>
      <trkpt lat="47.53879" lon="6.79785">
        <ele>348</ele>
        <time>2016-04-10T10:27:56.000Z</time>
      </trkpt>
      <trkpt lat="47.53876" lon="6.79778">
        <ele>347</ele>
        <time>2016-04-10T10:27:57.000Z</time>
      </trkpt>
      <trkpt lat="47.53875" lon="6.7977">
        <ele>347</ele>
        <time>2016-04-10T10:27:58.000Z</time>
      </trkpt>
      <trkpt lat="47.53872" lon="6.79762">
        <ele>347</ele>
        <time>2016-04-10T10:27:59.000Z</time>
      </trkpt>
      <trkpt lat="47.5387" lon="6.79753">
        <ele>347</ele>
        <time>2016-04-10T10:28:00.000Z</time>
      </trkpt>
      <trkpt lat="47.53867" lon="6.79744">
        <ele>347</ele>
        <time>2016-04-10T10:28:01.000Z</time>
      </trkpt>
      <trkpt lat="47.53865" lon="6.79735">
        <ele>346</ele>
        <time>2016-04-10T10:28:02.000Z</time>
      </trkpt>
      <trkpt lat="47.53861" lon="6.79726">
        <ele>346</ele>
        <time>2016-04-10T10:28:03.000Z</time>
      </trkpt>
      <trkpt lat="47.53858" lon="6.79716">
        <ele>346</ele>
        <time>2016-04-10T10:28:04.000Z</time>
      </trkpt>
      <trkpt lat="47.53854" lon="6.79707">
        <ele>346</ele>
        <time>2016-04-10T10:28:05.000Z</time>
      </trkpt>
      <trkpt lat="47.53849" lon="6.79697">
        <ele>346</ele>
        <time>2016-04-10T10:28:06.000Z</time>
      </trkpt>
      <trkpt lat="47.53845" lon="6.79687">
        <ele>345</ele>
        <time>2016-04-10T10:28:07.000Z</time>
      </trkpt>
      <trkpt lat="47.5384" lon="6.79678">
        <ele>345</ele>
        <time>2016-04-10T10:28:08.000Z</time>
      </trkpt>
      <trkpt lat="47.53835" lon="6.79668">
        <ele>343</ele>
        <time>2016-04-10T10:28:09.000Z</time>
      </trkpt>
      <trkpt lat="47.5383" lon="6.79659">
        <ele>343</ele>
        <time>2016-04-10T10:28:10.000Z</time>
      </trkpt>
      <trkpt lat="47.53824" lon="6.7965">
        <ele>344</ele>
        <time>2016-04-10T10:28:11.000Z</time>
      </trkpt>
      <trkpt lat="47.53819" lon="6.79642">
        <ele>344</ele>
        <time>2016-04-10T10:28:12.000Z</time>
      </trkpt>
      <trkpt lat="47.53813" lon="6.79635">
        <ele>344</ele>
        <time>2016-04-10T10:28:13.000Z</time>
      </trkpt>
      <trkpt lat="47.53806" lon="6.79628">
        <ele>344</ele>
        <time>2016-04-10T10:28:14.000Z</time>
      </trkpt>
      <trkpt lat="47.538" lon="6.79621">
        <ele>344</ele>
        <time>2016-04-10T10:28:15.000Z</time>
      </trkpt>
      <trkpt lat="47.53795" lon="6.79613">
        <ele>344</ele>
        <time>2016-04-10T10:28:16.000Z</time>
      </trkpt>
      <trkpt lat="47.53789" lon="6.79605">
        <ele>344</ele>
        <time>2016-04-10T10:28:17.000Z</time>
      </trkpt>
      <trkpt lat="47.53783" lon="6.79596">
        <ele>344</ele>
        <time>2016-04-10T10:28:18.000Z</time>
      </trkpt>
      <trkpt lat="47.53778" lon="6.79588">
        <ele>343</ele>
        <time>2016-04-10T10:28:19.000Z</time>
      </trkpt>
      <trkpt lat="47.53772" lon="6.7958">
        <ele>344</ele>
        <time>2016-04-10T10:28:20.000Z</time>
      </trkpt>
      <trkpt lat="47.53765" lon="6.79572">
        <ele>343</ele>
        <time>2016-04-10T10:28:21.000Z</time>
      </trkpt>
      <trkpt lat="47.53759" lon="6.79564">
        <ele>344</ele>
        <time>2016-04-10T10:28:22.000Z</time>
      </trkpt>
      <trkpt lat="47.53753" lon="6.79556">
        <ele>344</ele>
        <time>2016-04-10T10:28:23.000Z</time>
      </trkpt>
      <trkpt lat="47.53747" lon="6.79547">
        <ele>340</ele>
        <time>2016-04-10T10:28:24.000Z</time>
      </trkpt>
      <trkpt lat="47.53741" lon="6.79539">
        <ele>341</ele>
        <time>2016-04-10T10:28:25.000Z</time>
      </trkpt>
      <trkpt lat="47.53734" lon="6.79531">
        <ele>341</ele>
        <time>2016-04-10T10:28:26.000Z</time>
      </trkpt>
      <trkpt lat="47.53728" lon="6.79524">
        <ele>340</ele>
        <time>2016-04-10T10:28:27.000Z</time>
      </trkpt>
      <trkpt lat="47.53721" lon="6.79517">
        <ele>340</ele>
        <time>2016-04-10T10:28:28.000Z</time>
      </trkpt>
      <trkpt lat="47.53715" lon="6.7951">
        <ele>340</ele>
        <time>2016-04-10T10:28:29.000Z</time>
      </trkpt>
      <trkpt lat="47.53708" lon="6.79502">
        <ele>340</ele>
        <time>2016-04-10T10:28:30.000Z</time>
      </trkpt>
      <trkpt lat="47.53701" lon="6.79495">
        <ele>339</ele>
        <time>2016-04-10T10:28:31.000Z</time>
      </trkpt>
      <trkpt lat="47.53694" lon="6.79487">
        <ele>339</ele>
        <time>2016-04-10T10:28:32.000Z</time>
      </trkpt>
      <trkpt lat="47.53687" lon="6.79479">
        <ele>338</ele>
        <time>2016-04-10T10:28:33.000Z</time>
      </trkpt>
      <trkpt lat="47.5368" lon="6.79471">
        <ele>338</ele>
        <time>2016-04-10T10:28:34.000Z</time>
      </trkpt>
      <trkpt lat="47.53673" lon="6.79463">
        <ele>338</ele>
        <time>2016-04-10T10:28:35.000Z</time>
      </trkpt>
      <trkpt lat="47.53666" lon="6.79455">
        <ele>336</ele>
        <time>2016-04-10T10:28:36.000Z</time>
      </trkpt>
      <trkpt lat="47.53659" lon="6.79446">
        <ele>335</ele>
        <time>2016-04-10T10:28:37.000Z</time>
      </trkpt>
      <trkpt lat="47.53653" lon="6.79438">
        <ele>335</ele>
        <time>2016-04-10T10:28:38.000Z</time>
      </trkpt>
      <trkpt lat="47.53646" lon="6.79431">
        <ele>335</ele>
        <time>2016-04-10T10:28:39.000Z</time>
      </trkpt>
      <trkpt lat="47.53639" lon="6.79425">
        <ele>335</ele>
        <time>2016-04-10T10:28:40.000Z</time>
      </trkpt>
      <trkpt lat="47.53632" lon="6.79417">
        <ele>332</ele>
        <time>2016-04-10T10:28:41.000Z</time>
      </trkpt>
      <trkpt lat="47.53626" lon="6.79408">
        <ele>332</ele>
        <time>2016-04-10T10:28:42.000Z</time>
      </trkpt>
      <trkpt lat="47.53621" lon="6.79398">
        <ele>332</ele>
        <time>2016-04-10T10:28:43.000Z</time>
      </trkpt>
      <trkpt lat="47.53616" lon="6.79387">
        <ele>331</ele>
        <time>2016-04-10T10:28:44.000Z</time>
      </trkpt>
      <trkpt lat="47.5361" lon="6.79379">
        <ele>331</ele>
        <time>2016-04-10T10:28:45.000Z</time>
      </trkpt>
      <trkpt lat="47.53605" lon="6.79373">
        <ele>330</ele>
        <time>2016-04-10T10:28:46.000Z</time>
      </trkpt>
      <trkpt lat="47.536" lon="6.79367">
        <ele>330</ele>
        <time>2016-04-10T10:28:47.000Z</time>
      </trkpt>
      <trkpt lat="47.53596" lon="6.79362">
        <ele>330</ele>
        <time>2016-04-10T10:28:48.000Z</time>
      </trkpt>
      <trkpt lat="47.53594" lon="6.79358">
        <ele>329</ele>
        <time>2016-04-10T10:28:49.000Z</time>
      </trkpt>
      <trkpt lat="47.53592" lon="6.79354">
        <ele>329</ele>
        <time>2016-04-10T10:28:50.000Z</time>
      </trkpt>
      <trkpt lat="47.53591" lon="6.7935">
        <ele>328</ele>
        <time>2016-04-10T10:28:51.000Z</time>
      </trkpt>
      <trkpt lat="47.5359" lon="6.79348">
        <ele>328</ele>
        <time>2016-04-10T10:28:52.000Z</time>
      </trkpt>
      <trkpt lat="47.53586" lon="6.79349">
        <ele>328</ele>
        <time>2016-04-10T10:28:54.000Z</time>
      </trkpt>
      <trkpt lat="47.53585" lon="6.79349">
        <ele>328</ele>
        <time>2016-04-10T10:28:55.000Z</time>
      </trkpt>
      <trkpt lat="47.53582" lon="6.79351">
        <ele>326</ele>
        <time>2016-04-10T10:28:57.000Z</time>
      </trkpt>
      <trkpt lat="47.5358" lon="6.79351">
        <ele>326</ele>
        <time>2016-04-10T10:28:58.000Z</time>
      </trkpt>
      <trkpt lat="47.53578" lon="6.79352">
        <ele>326</ele>
        <time>2016-04-10T10:28:59.000Z</time>
      </trkpt>
      <trkpt lat="47.53575" lon="6.79353">
        <ele>326</ele>
        <time>2016-04-10T10:29:00.000Z</time>
      </trkpt>
      <trkpt lat="47.53572" lon="6.79354">
        <ele>326</ele>
        <time>2016-04-10T10:29:01.000Z</time>
      </trkpt>
      <trkpt lat="47.5357" lon="6.79355">
        <ele>326</ele>
        <time>2016-04-10T10:29:02.000Z</time>
      </trkpt>
      <trkpt lat="47.53572" lon="6.7935">
        <ele>326</ele>
        <time>2016-04-10T10:29:09.000Z</time>
      </trkpt>
      <trkpt lat="47.53574" lon="6.79349">
        <ele>326</ele>
        <time>2016-04-10T10:29:10.000Z</time>
      </trkpt>
      <trkpt lat="47.53576" lon="6.79348">
        <ele>326</ele>
        <time>2016-04-10T10:29:11.000Z</time>
      </trkpt>
      <trkpt lat="47.53578" lon="6.79347">
        <ele>326</ele>
        <time>2016-04-10T10:29:12.000Z</time>
      </trkpt>
      <trkpt lat="47.53581" lon="6.79345">
        <ele>326</ele>
        <time>2016-04-10T10:29:13.000Z</time>
      </trkpt>
      <trkpt lat="47.53583" lon="6.79343">
        <ele>327</ele>
        <time>2016-04-10T10:29:14.000Z</time>
      </trkpt>
      <trkpt lat="47.53586" lon="6.79341">
        <ele>327</ele>
        <time>2016-04-10T10:29:15.000Z</time>
      </trkpt>
      <trkpt lat="47.53589" lon="6.79338">
        <ele>327</ele>
        <time>2016-04-10T10:29:16.000Z</time>
      </trkpt>
      <trkpt lat="47.53592" lon="6.79335">
        <ele>327</ele>
        <time>2016-04-10T10:29:17.000Z</time>
      </trkpt>
      <trkpt lat="47.53594" lon="6.79331">
        <ele>326</ele>
        <time>2016-04-10T10:29:18.000Z</time>
      </trkpt>
      <trkpt lat="47.53597" lon="6.7932">
        <ele>327</ele>
        <time>2016-04-10T10:29:19.000Z</time>
      </trkpt>
      <trkpt lat="47.53599" lon="6.79314">
        <ele>327</ele>
        <time>2016-04-10T10:29:20.000Z</time>
      </trkpt>
      <trkpt lat="47.536" lon="6.79306">
        <ele>327</ele>
        <time>2016-04-10T10:29:21.000Z</time>
      </trkpt>
      <trkpt lat="47.53602" lon="6.79298">
        <ele>327</ele>
        <time>2016-04-10T10:29:22.000Z</time>
      </trkpt>
      <trkpt lat="47.53604" lon="6.7929">
        <ele>327</ele>
        <time>2016-04-10T10:29:23.000Z</time>
      </trkpt>
      <trkpt lat="47.53605" lon="6.79282">
        <ele>327</ele>
        <time>2016-04-10T10:29:24.000Z</time>
      </trkpt>
      <trkpt lat="47.53604" lon="6.79272">
        <ele>326</ele>
        <time>2016-04-10T10:29:25.000Z</time>
      </trkpt>
      <trkpt lat="47.53604" lon="6.79263">
        <ele>326</ele>
        <time>2016-04-10T10:29:26.000Z</time>
      </trkpt>
      <trkpt lat="47.53603" lon="6.79253">
        <ele>326</ele>
        <time>2016-04-10T10:29:27.000Z</time>
      </trkpt>
      <trkpt lat="47.53598" lon="6.79248">
        <ele>324</ele>
        <time>2016-04-10T10:29:28.000Z</time>
      </trkpt>
      <trkpt lat="47.53594" lon="6.7924">
        <ele>324</ele>
        <time>2016-04-10T10:29:29.000Z</time>
      </trkpt>
      <trkpt lat="47.5359" lon="6.79233">
        <ele>324</ele>
        <time>2016-04-10T10:29:30.000Z</time>
      </trkpt>
      <trkpt lat="47.53585" lon="6.79228">
        <ele>324</ele>
        <time>2016-04-10T10:29:31.000Z</time>
      </trkpt>
      <trkpt lat="47.5358" lon="6.79222">
        <ele>321</ele>
        <time>2016-04-10T10:29:32.000Z</time>
      </trkpt>
      <trkpt lat="47.53575" lon="6.79215">
        <ele>320</ele>
        <time>2016-04-10T10:29:33.000Z</time>
      </trkpt>
      <trkpt lat="47.5357" lon="6.79208">
        <ele>320</ele>
        <time>2016-04-10T10:29:34.000Z</time>
      </trkpt>
      <trkpt lat="47.53566" lon="6.79199">
        <ele>320</ele>
        <time>2016-04-10T10:29:35.000Z</time>
      </trkpt>
      <trkpt lat="47.53561" lon="6.7919">
        <ele>320</ele>
        <time>2016-04-10T10:29:36.000Z</time>
      </trkpt>
      <trkpt lat="47.53555" lon="6.79182">
        <ele>320</ele>
        <time>2016-04-10T10:29:37.000Z</time>
      </trkpt>
      <trkpt lat="47.53551" lon="6.79173">
        <ele>320</ele>
        <time>2016-04-10T10:29:38.000Z</time>
      </trkpt>
      <trkpt lat="47.53545" lon="6.79164">
        <ele>320</ele>
        <time>2016-04-10T10:29:39.000Z</time>
      </trkpt>
      <trkpt lat="47.5354" lon="6.79156">
        <ele>319</ele>
        <time>2016-04-10T10:29:40.000Z</time>
      </trkpt>
      <trkpt lat="47.53536" lon="6.79147">
        <ele>319</ele>
        <time>2016-04-10T10:29:41.000Z</time>
      </trkpt>
      <trkpt lat="47.53532" lon="6.79139">
        <ele>319</ele>
        <time>2016-04-10T10:29:42.000Z</time>
      </trkpt>
      <trkpt lat="47.53528" lon="6.79131">
        <ele>319</ele>
        <time>2016-04-10T10:29:43.000Z</time>
      </trkpt>
      <trkpt lat="47.53523" lon="6.79124">
        <ele>319</ele>
        <time>2016-04-10T10:29:44.000Z</time>
      </trkpt>
      <trkpt lat="47.53519" lon="6.79118">
        <ele>319</ele>
        <time>2016-04-10T10:29:45.000Z</time>
      </trkpt>
      <trkpt lat="47.53516" lon="6.7911">
        <ele>319</ele>
        <time>2016-04-10T10:29:46.000Z</time>
      </trkpt>
      <trkpt lat="47.53512" lon="6.79103">
        <ele>319</ele>
        <time>2016-04-10T10:29:47.000Z</time>
      </trkpt>
      <trkpt lat="47.53508" lon="6.79097">
        <ele>319</ele>
        <time>2016-04-10T10:29:48.000Z</time>
      </trkpt>
      <trkpt lat="47.53505" lon="6.7909">
        <ele>319</ele>
        <time>2016-04-10T10:29:49.000Z</time>
      </trkpt>
      <trkpt lat="47.53501" lon="6.79083">
        <ele>319</ele>
        <time>2016-04-10T10:29:50.000Z</time>
      </trkpt>
      <trkpt lat="47.53497" lon="6.79079">
        <ele>319</ele>
        <time>2016-04-10T10:29:51.000Z</time>
      </trkpt>
      <trkpt lat="47.53495" lon="6.79078">
        <ele>319</ele>
        <time>2016-04-10T10:29:52.000Z</time>
      </trkpt>
      <trkpt lat="47.53493" lon="6.79078">
        <ele>319</ele>
        <time>2016-04-10T10:29:53.000Z</time>
      </trkpt>
      <trkpt lat="47.5349" lon="6.79076">
        <ele>319</ele>
        <time>2016-04-10T10:29:54.000Z</time>
      </trkpt>
      <trkpt lat="47.53486" lon="6.79074">
        <ele>319</ele>
        <time>2016-04-10T10:29:55.000Z</time>
      </trkpt>
      <trkpt lat="47.53483" lon="6.79074">
        <ele>319</ele>
        <time>2016-04-10T10:29:56.000Z</time>
      </trkpt>
      <trkpt lat="47.5348" lon="6.79072">
        <ele>319</ele>
        <time>2016-04-10T10:29:57.000Z</time>
      </trkpt>
      <trkpt lat="47.53475" lon="6.79071">
        <ele>319</ele>
        <time>2016-04-10T10:29:58.000Z</time>
      </trkpt>
      <trkpt lat="47.53468" lon="6.79073">
        <ele>319</ele>
        <time>2016-04-10T10:29:59.000Z</time>
      </trkpt>
      <trkpt lat="47.53464" lon="6.79076">
        <ele>319</ele>
        <time>2016-04-10T10:30:00.000Z</time>
      </trkpt>
      <trkpt lat="47.5346" lon="6.79079">
        <ele>319</ele>
        <time>2016-04-10T10:30:01.000Z</time>
      </trkpt>
      <trkpt lat="47.53456" lon="6.79082">
        <ele>319</ele>
        <time>2016-04-10T10:30:02.000Z</time>
      </trkpt>
      <trkpt lat="47.53451" lon="6.79086">
        <ele>319</ele>
        <time>2016-04-10T10:30:03.000Z</time>
      </trkpt>
      <trkpt lat="47.53448" lon="6.79088">
        <ele>319</ele>
        <time>2016-04-10T10:30:04.000Z</time>
      </trkpt>
      <trkpt lat="47.53444" lon="6.79092">
        <ele>319</ele>
        <time>2016-04-10T10:30:05.000Z</time>
      </trkpt>
      <trkpt lat="47.53441" lon="6.79096">
        <ele>319</ele>
        <time>2016-04-10T10:30:06.000Z</time>
      </trkpt>
      <trkpt lat="47.53439" lon="6.79101">
        <ele>319</ele>
        <time>2016-04-10T10:30:07.000Z</time>
      </trkpt>
      <trkpt lat="47.53437" lon="6.79106">
        <ele>319</ele>
        <time>2016-04-10T10:30:08.000Z</time>
      </trkpt>
      <trkpt lat="47.53436" lon="6.79113">
        <ele>319</ele>
        <time>2016-04-10T10:30:09.000Z</time>
      </trkpt>
      <trkpt lat="47.53437" lon="6.79119">
        <ele>319</ele>
        <time>2016-04-10T10:30:10.000Z</time>
      </trkpt>
      <trkpt lat="47.53438" lon="6.79124">
        <ele>319</ele>
        <time>2016-04-10T10:30:11.000Z</time>
      </trkpt>
      <trkpt lat="47.5344" lon="6.79129">
        <ele>318</ele>
        <time>2016-04-10T10:30:12.000Z</time>
      </trkpt>
      <trkpt lat="47.53442" lon="6.79133">
        <ele>318</ele>
        <time>2016-04-10T10:30:13.000Z</time>
      </trkpt>
      <trkpt lat="47.53444" lon="6.79137">
        <ele>318</ele>
        <time>2016-04-10T10:30:14.000Z</time>
      </trkpt>
      <trkpt lat="47.53446" lon="6.79141">
        <ele>318</ele>
        <time>2016-04-10T10:30:15.000Z</time>
      </trkpt>
      <trkpt lat="47.53449" lon="6.79144">
        <ele>318</ele>
        <time>2016-04-10T10:30:16.000Z</time>
      </trkpt>
      <trkpt lat="47.53452" lon="6.79146">
        <ele>318</ele>
        <time>2016-04-10T10:30:17.000Z</time>
      </trkpt>
      <trkpt lat="47.53455" lon="6.79148">
        <ele>318</ele>
        <time>2016-04-10T10:30:18.000Z</time>
      </trkpt>
      <trkpt lat="47.53458" lon="6.79149">
        <ele>318</ele>
        <time>2016-04-10T10:30:19.000Z</time>
      </trkpt>
      <trkpt lat="47.53461" lon="6.7915">
        <ele>318</ele>
        <time>2016-04-10T10:30:20.000Z</time>
      </trkpt>
      <trkpt lat="47.53464" lon="6.79151">
        <ele>318</ele>
        <time>2016-04-10T10:30:21.000Z</time>
      </trkpt>
      <trkpt lat="47.53467" lon="6.79152">
        <ele>318</ele>
        <time>2016-04-10T10:30:22.000Z</time>
      </trkpt>
      <trkpt lat="47.5347" lon="6.79153">
        <ele>318</ele>
        <time>2016-04-10T10:30:23.000Z</time>
      </trkpt>
      <trkpt lat="47.53472" lon="6.79155">
        <ele>318</ele>
        <time>2016-04-10T10:30:24.000Z</time>
      </trkpt>
      <trkpt lat="47.53475" lon="6.79157">
        <ele>318</ele>
        <time>2016-04-10T10:30:25.000Z</time>
      </trkpt>
      <trkpt lat="47.53478" lon="6.7916">
        <ele>318</ele>
        <time>2016-04-10T10:30:26.000Z</time>
      </trkpt>
      <trkpt lat="47.5348" lon="6.79164">
        <ele>318</ele>
        <time>2016-04-10T10:30:27.000Z</time>
      </trkpt>
      <trkpt lat="47.53482" lon="6.79169">
        <ele>318</ele>
        <time>2016-04-10T10:30:28.000Z</time>
      </trkpt>
      <trkpt lat="47.53483" lon="6.79174">
        <ele>318</ele>
        <time>2016-04-10T10:30:29.000Z</time>
      </trkpt>
      <trkpt lat="47.53485" lon="6.79179">
        <ele>318</ele>
        <time>2016-04-10T10:30:30.000Z</time>
      </trkpt>
      <trkpt lat="47.53486" lon="6.79183">
        <ele>318</ele>
        <time>2016-04-10T10:30:31.000Z</time>
      </trkpt>
      <trkpt lat="47.53487" lon="6.79188">
        <ele>318</ele>
        <time>2016-04-10T10:30:32.000Z</time>
      </trkpt>
      <trkpt lat="47.53488" lon="6.79192">
        <ele>318</ele>
        <time>2016-04-10T10:30:33.000Z</time>
      </trkpt>
      <trkpt lat="47.5349" lon="6.79196">
        <ele>318</ele>
        <time>2016-04-10T10:30:34.000Z</time>
      </trkpt>
      <trkpt lat="47.53491" lon="6.792">
        <ele>318</ele>
        <time>2016-04-10T10:30:35.000Z</time>
      </trkpt>
      <trkpt lat="47.53493" lon="6.79204">
        <ele>318</ele>
        <time>2016-04-10T10:30:36.000Z</time>
      </trkpt>
      <trkpt lat="47.53495" lon="6.79207">
        <ele>318</ele>
        <time>2016-04-10T10:30:37.000Z</time>
      </trkpt>
      <trkpt lat="47.53497" lon="6.79211">
        <ele>318</ele>
        <time>2016-04-10T10:30:38.000Z</time>
      </trkpt>
      <trkpt lat="47.53499" lon="6.79215">
        <ele>318</ele>
        <time>2016-04-10T10:30:39.000Z</time>
      </trkpt>
      <trkpt lat="47.53502" lon="6.79218">
        <ele>319</ele>
        <time>2016-04-10T10:30:40.000Z</time>
      </trkpt>
      <trkpt lat="47.53504" lon="6.79222">
        <ele>319</ele>
        <time>2016-04-10T10:30:41.000Z</time>
      </trkpt>
      <trkpt lat="47.53506" lon="6.79226">
        <ele>319</ele>
        <time>2016-04-10T10:30:42.000Z</time>
      </trkpt>
      <trkpt lat="47.53508" lon="6.79231">
        <ele>319</ele>
        <time>2016-04-10T10:30:43.000Z</time>
      </trkpt>
      <trkpt lat="47.5351" lon="6.79235">
        <ele>319</ele>
        <time>2016-04-10T10:30:44.000Z</time>
      </trkpt>
      <trkpt lat="47.53511" lon="6.7924">
        <ele>319</ele>
        <time>2016-04-10T10:30:45.000Z</time>
      </trkpt>
      <trkpt lat="47.53513" lon="6.79244">
        <ele>319</ele>
        <time>2016-04-10T10:30:46.000Z</time>
      </trkpt>
      <trkpt lat="47.53514" lon="6.79248">
        <ele>319</ele>
        <time>2016-04-10T10:30:47.000Z</time>
      </trkpt>
      <trkpt lat="47.53514" lon="6.79253">
        <ele>320</ele>
        <time>2016-04-10T10:30:48.000Z</time>
      </trkpt>
      <trkpt lat="47.53514" lon="6.79258">
        <ele>320</ele>
        <time>2016-04-10T10:30:49.000Z</time>
      </trkpt>
      <trkpt lat="47.53513" lon="6.79262">
        <ele>320</ele>
        <time>2016-04-10T10:30:50.000Z</time>
      </trkpt>
      <trkpt lat="47.53511" lon="6.79267">
        <ele>320</ele>
        <time>2016-04-10T10:30:51.000Z</time>
      </trkpt>
      <trkpt lat="47.53509" lon="6.79271">
        <ele>320</ele>
        <time>2016-04-10T10:30:52.000Z</time>
      </trkpt>
      <trkpt lat="47.53506" lon="6.79275">
        <ele>320</ele>
        <time>2016-04-10T10:30:53.000Z</time>
      </trkpt>
      <trkpt lat="47.53504" lon="6.79279">
        <ele>320</ele>
        <time>2016-04-10T10:30:54.000Z</time>
      </trkpt>
      <trkpt lat="47.53501" lon="6.79283">
        <ele>320</ele>
        <time>2016-04-10T10:30:55.000Z</time>
      </trkpt>
      <trkpt lat="47.53499" lon="6.79287">
        <ele>319</ele>
        <time>2016-04-10T10:30:56.000Z</time>
      </trkpt>
      <trkpt lat="47.53497" lon="6.79291">
        <ele>319</ele>
        <time>2016-04-10T10:30:57.000Z</time>
      </trkpt>
      <trkpt lat="47.53495" lon="6.79295">
        <ele>319</ele>
        <time>2016-04-10T10:30:58.000Z</time>
      </trkpt>
      <trkpt lat="47.53492" lon="6.79299">
        <ele>319</ele>
        <time>2016-04-10T10:30:59.000Z</time>
      </trkpt>
      <trkpt lat="47.5349" lon="6.79302">
        <ele>319</ele>
        <time>2016-04-10T10:31:00.000Z</time>
      </trkpt>
      <trkpt lat="47.53487" lon="6.79304">
        <ele>319</ele>
        <time>2016-04-10T10:31:01.000Z</time>
      </trkpt>
      <trkpt lat="47.53484" lon="6.79307">
        <ele>319</ele>
        <time>2016-04-10T10:31:02.000Z</time>
      </trkpt>
      <trkpt lat="47.5348" lon="6.79308">
        <ele>319</ele>
        <time>2016-04-10T10:31:03.000Z</time>
      </trkpt>
      <trkpt lat="47.53477" lon="6.7931">
        <ele>319</ele>
        <time>2016-04-10T10:31:04.000Z</time>
      </trkpt>
      <trkpt lat="47.53475" lon="6.79312">
        <ele>319</ele>
        <time>2016-04-10T10:31:05.000Z</time>
      </trkpt>
      <trkpt lat="47.53472" lon="6.79315">
        <ele>319</ele>
        <time>2016-04-10T10:31:06.000Z</time>
      </trkpt>
      <trkpt lat="47.5347" lon="6.79318">
        <ele>319</ele>
        <time>2016-04-10T10:31:07.000Z</time>
      </trkpt>
      <trkpt lat="47.53467" lon="6.79321">
        <ele>319</ele>
        <time>2016-04-10T10:31:08.000Z</time>
      </trkpt>
      <trkpt lat="47.53464" lon="6.79323">
        <ele>319</ele>
        <time>2016-04-10T10:31:09.000Z</time>
      </trkpt>
      <trkpt lat="47.53461" lon="6.79324">
        <ele>319</ele>
        <time>2016-04-10T10:31:10.000Z</time>
      </trkpt>
      <trkpt lat="47.53458" lon="6.79323">
        <ele>319</ele>
        <time>2016-04-10T10:31:11.000Z</time>
      </trkpt>
      <trkpt lat="47.53455" lon="6.79321">
        <ele>319</ele>
        <time>2016-04-10T10:31:12.000Z</time>
      </trkpt>
      <trkpt lat="47.53452" lon="6.79319">
        <ele>318</ele>
        <time>2016-04-10T10:31:13.000Z</time>
      </trkpt>
      <trkpt lat="47.53449" lon="6.79317">
        <ele>318</ele>
        <time>2016-04-10T10:31:14.000Z</time>
      </trkpt>
      <trkpt lat="47.53446" lon="6.79314">
        <ele>318</ele>
        <time>2016-04-10T10:31:15.000Z</time>
      </trkpt>
      <trkpt lat="47.53443" lon="6.79312">
        <ele>318</ele>
        <time>2016-04-10T10:31:16.000Z</time>
      </trkpt>
      <trkpt lat="47.5344" lon="6.7931">
        <ele>318</ele>
        <time>2016-04-10T10:31:17.000Z</time>
      </trkpt>
      <trkpt lat="47.53437" lon="6.79309">
        <ele>318</ele>
        <time>2016-04-10T10:31:18.000Z</time>
      </trkpt>
      <trkpt lat="47.53434" lon="6.79308">
        <ele>318</ele>
        <time>2016-04-10T10:31:19.000Z</time>
      </trkpt>
      <trkpt lat="47.53431" lon="6.79306">
        <ele>318</ele>
        <time>2016-04-10T10:31:20.000Z</time>
      </trkpt>
      <trkpt lat="47.53428" lon="6.79305">
        <ele>318</ele>
        <time>2016-04-10T10:31:21.000Z</time>
      </trkpt>
      <trkpt lat="47.53425" lon="6.79304">
        <ele>318</ele>
        <time>2016-04-10T10:31:22.000Z</time>
      </trkpt>
      <trkpt lat="47.53422" lon="6.79303">
        <ele>318</ele>
        <time>2016-04-10T10:31:23.000Z</time>
      </trkpt>
      <trkpt lat="47.53419" lon="6.79304">
        <ele>318</ele>
        <time>2016-04-10T10:31:24.000Z</time>
      </trkpt>
      <trkpt lat="47.53416" lon="6.79304">
        <ele>317</ele>
        <time>2016-04-10T10:31:25.000Z</time>
      </trkpt>
      <trkpt lat="47.53413" lon="6.79306">
        <ele>317</ele>
        <time>2016-04-10T10:31:26.000Z</time>
      </trkpt>
      <trkpt lat="47.5341" lon="6.79308">
        <ele>317</ele>
        <time>2016-04-10T10:31:27.000Z</time>
      </trkpt>
      <trkpt lat="47.53407" lon="6.7931">
        <ele>317</ele>
        <time>2016-04-10T10:31:28.000Z</time>
      </trkpt>
      <trkpt lat="47.53404" lon="6.79313">
        <ele>317</ele>
        <time>2016-04-10T10:31:29.000Z</time>
      </trkpt>
      <trkpt lat="47.53401" lon="6.79315">
        <ele>317</ele>
        <time>2016-04-10T10:31:30.000Z</time>
      </trkpt>
      <trkpt lat="47.53397" lon="6.79318">
        <ele>317</ele>
        <time>2016-04-10T10:31:31.000Z</time>
      </trkpt>
      <trkpt lat="47.53394" lon="6.7932">
        <ele>317</ele>
        <time>2016-04-10T10:31:32.000Z</time>
      </trkpt>
      <trkpt lat="47.53392" lon="6.79323">
        <ele>317</ele>
        <time>2016-04-10T10:31:33.000Z</time>
      </trkpt>
      <trkpt lat="47.5339" lon="6.79325">
        <ele>317</ele>
        <time>2016-04-10T10:31:34.000Z</time>
      </trkpt>
      <trkpt lat="47.53388" lon="6.79328">
        <ele>317</ele>
        <time>2016-04-10T10:31:35.000Z</time>
      </trkpt>
      <trkpt lat="47.53388" lon="6.79331">
        <ele>317</ele>
        <time>2016-04-10T10:31:36.000Z</time>
      </trkpt>
      <trkpt lat="47.53387" lon="6.79335">
        <ele>319</ele>
        <time>2016-04-10T10:31:37.000Z</time>
      </trkpt>
      <trkpt lat="47.53387" lon="6.79339">
        <ele>319</ele>
        <time>2016-04-10T10:31:38.000Z</time>
      </trkpt>
      <trkpt lat="47.53387" lon="6.79344">
        <ele>319</ele>
        <time>2016-04-10T10:31:39.000Z</time>
      </trkpt>
      <trkpt lat="47.53387" lon="6.79349">
        <ele>319</ele>
        <time>2016-04-10T10:31:40.000Z</time>
      </trkpt>
      <trkpt lat="47.53386" lon="6.79355">
        <ele>319</ele>
        <time>2016-04-10T10:31:41.000Z</time>
      </trkpt>
      <trkpt lat="47.53386" lon="6.7936">
        <ele>319</ele>
        <time>2016-04-10T10:31:42.000Z</time>
      </trkpt>
      <trkpt lat="47.53385" lon="6.79365">
        <ele>320</ele>
        <time>2016-04-10T10:31:43.000Z</time>
      </trkpt>
      <trkpt lat="47.53383" lon="6.7937">
        <ele>320</ele>
        <time>2016-04-10T10:31:44.000Z</time>
      </trkpt>
      <trkpt lat="47.53381" lon="6.79374">
        <ele>320</ele>
        <time>2016-04-10T10:31:45.000Z</time>
      </trkpt>
      <trkpt lat="47.53378" lon="6.79377">
        <ele>320</ele>
        <time>2016-04-10T10:31:46.000Z</time>
      </trkpt>
      <trkpt lat="47.53376" lon="6.7938">
        <ele>320</ele>
        <time>2016-04-10T10:31:47.000Z</time>
      </trkpt>
      <trkpt lat="47.53373" lon="6.79383">
        <ele>320</ele>
        <time>2016-04-10T10:31:48.000Z</time>
      </trkpt>
      <trkpt lat="47.5337" lon="6.79386">
        <ele>320</ele>
        <time>2016-04-10T10:31:49.000Z</time>
      </trkpt>
      <trkpt lat="47.53368" lon="6.79389">
        <ele>320</ele>
        <time>2016-04-10T10:31:50.000Z</time>
      </trkpt>
      <trkpt lat="47.53366" lon="6.79393">
        <ele>320</ele>
        <time>2016-04-10T10:31:51.000Z</time>
      </trkpt>
      <trkpt lat="47.53364" lon="6.79397">
        <ele>320</ele>
        <time>2016-04-10T10:31:52.000Z</time>
      </trkpt>
      <trkpt lat="47.53362" lon="6.79402">
        <ele>320</ele>
        <time>2016-04-10T10:31:53.000Z</time>
      </trkpt>
      <trkpt lat="47.5336" lon="6.79406">
        <ele>320</ele>
        <time>2016-04-10T10:31:54.000Z</time>
      </trkpt>
      <trkpt lat="47.53358" lon="6.79409">
        <ele>320</ele>
        <time>2016-04-10T10:31:55.000Z</time>
      </trkpt>
      <trkpt lat="47.53355" lon="6.79413">
        <ele>320</ele>
        <time>2016-04-10T10:31:56.000Z</time>
      </trkpt>
      <trkpt lat="47.53353" lon="6.79415">
        <ele>320</ele>
        <time>2016-04-10T10:31:57.000Z</time>
      </trkpt>
      <trkpt lat="47.5335" lon="6.79418">
        <ele>322</ele>
        <time>2016-04-10T10:31:58.000Z</time>
      </trkpt>
      <trkpt lat="47.53347" lon="6.79419">
        <ele>321</ele>
        <time>2016-04-10T10:31:59.000Z</time>
      </trkpt>
      <trkpt lat="47.53344" lon="6.79421">
        <ele>321</ele>
        <time>2016-04-10T10:32:00.000Z</time>
      </trkpt>
      <trkpt lat="47.53341" lon="6.79422">
        <ele>321</ele>
        <time>2016-04-10T10:32:01.000Z</time>
      </trkpt>
      <trkpt lat="47.53338" lon="6.79424">
        <ele>321</ele>
        <time>2016-04-10T10:32:02.000Z</time>
      </trkpt>
      <trkpt lat="47.53335" lon="6.79424">
        <ele>320</ele>
        <time>2016-04-10T10:32:03.000Z</time>
      </trkpt>
      <trkpt lat="47.53331" lon="6.79425">
        <ele>319</ele>
        <time>2016-04-10T10:32:04.000Z</time>
      </trkpt>
      <trkpt lat="47.53328" lon="6.79425">
        <ele>319</ele>
        <time>2016-04-10T10:32:05.000Z</time>
      </trkpt>
      <trkpt lat="47.53324" lon="6.79425">
        <ele>319</ele>
        <time>2016-04-10T10:32:06.000Z</time>
      </trkpt>
      <trkpt lat="47.53321" lon="6.79425">
        <ele>319</ele>
        <time>2016-04-10T10:32:07.000Z</time>
      </trkpt>
      <trkpt lat="47.53317" lon="6.79425">
        <ele>319</ele>
        <time>2016-04-10T10:32:08.000Z</time>
      </trkpt>
      <trkpt lat="47.53314" lon="6.79425">
        <ele>319</ele>
        <time>2016-04-10T10:32:09.000Z</time>
      </trkpt>
      <trkpt lat="47.5331" lon="6.79426">
        <ele>319</ele>
        <time>2016-04-10T10:32:10.000Z</time>
      </trkpt>
      <trkpt lat="47.53307" lon="6.79427">
        <ele>319</ele>
        <time>2016-04-10T10:32:11.000Z</time>
      </trkpt>
      <trkpt lat="47.53304" lon="6.79428">
        <ele>319</ele>
        <time>2016-04-10T10:32:12.000Z</time>
      </trkpt>
      <trkpt lat="47.533" lon="6.79429">
        <ele>319</ele>
        <time>2016-04-10T10:32:13.000Z</time>
      </trkpt>
      <trkpt lat="47.53297" lon="6.7943">
        <ele>319</ele>
        <time>2016-04-10T10:32:14.000Z</time>
      </trkpt>
      <trkpt lat="47.53294" lon="6.7943">
        <ele>319</ele>
        <time>2016-04-10T10:32:15.000Z</time>
      </trkpt>
      <trkpt lat="47.53291" lon="6.79431">
        <ele>319</ele>
        <time>2016-04-10T10:32:16.000Z</time>
      </trkpt>
      <trkpt lat="47.53288" lon="6.79431">
        <ele>319</ele>
        <time>2016-04-10T10:32:17.000Z</time>
      </trkpt>
      <trkpt lat="47.53285" lon="6.7943">
        <ele>319</ele>
        <time>2016-04-10T10:32:18.000Z</time>
      </trkpt>
      <trkpt lat="47.53283" lon="6.7943">
        <ele>319</ele>
        <time>2016-04-10T10:32:19.000Z</time>
      </trkpt>
      <trkpt lat="47.5328" lon="6.7943">
        <ele>319</ele>
        <time>2016-04-10T10:32:20.000Z</time>
      </trkpt>
      <trkpt lat="47.53277" lon="6.7943">
        <ele>319</ele>
        <time>2016-04-10T10:32:21.000Z</time>
      </trkpt>
      <trkpt lat="47.53275" lon="6.7943">
        <ele>319</ele>
        <time>2016-04-10T10:32:22.000Z</time>
      </trkpt>
      <trkpt lat="47.53272" lon="6.7943">
        <ele>319</ele>
        <time>2016-04-10T10:32:23.000Z</time>
      </trkpt>
      <trkpt lat="47.53269" lon="6.79431">
        <ele>319</ele>
        <time>2016-04-10T10:32:24.000Z</time>
      </trkpt>
      <trkpt lat="47.53265" lon="6.79432">
        <ele>319</ele>
        <time>2016-04-10T10:32:25.000Z</time>
      </trkpt>
      <trkpt lat="47.53262" lon="6.79433">
        <ele>319</ele>
        <time>2016-04-10T10:32:26.000Z</time>
      </trkpt>
      <trkpt lat="47.53258" lon="6.79433">
        <ele>319</ele>
        <time>2016-04-10T10:32:27.000Z</time>
      </trkpt>
      <trkpt lat="47.53256" lon="6.79433">
        <ele>319</ele>
        <time>2016-04-10T10:32:28.000Z</time>
      </trkpt>
      <trkpt lat="47.53253" lon="6.79433">
        <ele>319</ele>
        <time>2016-04-10T10:32:29.000Z</time>
      </trkpt>
      <trkpt lat="47.53251" lon="6.79433">
        <ele>319</ele>
        <time>2016-04-10T10:32:30.000Z</time>
      </trkpt>
      <trkpt lat="47.53248" lon="6.79433">
        <ele>318</ele>
        <time>2016-04-10T10:32:31.000Z</time>
      </trkpt>
      <trkpt lat="47.53246" lon="6.79433">
        <ele>318</ele>
        <time>2016-04-10T10:32:32.000Z</time>
      </trkpt>
      <trkpt lat="47.53243" lon="6.79433">
        <ele>318</ele>
        <time>2016-04-10T10:32:33.000Z</time>
      </trkpt>
      <trkpt lat="47.53241" lon="6.79434">
        <ele>318</ele>
        <time>2016-04-10T10:32:34.000Z</time>
      </trkpt>
      <trkpt lat="47.53239" lon="6.79436">
        <ele>318</ele>
        <time>2016-04-10T10:32:35.000Z</time>
      </trkpt>
      <trkpt lat="47.53237" lon="6.79439">
        <ele>318</ele>
        <time>2016-04-10T10:32:36.000Z</time>
      </trkpt>
      <trkpt lat="47.53235" lon="6.79443">
        <ele>318</ele>
        <time>2016-04-10T10:32:37.000Z</time>
      </trkpt>
      <trkpt lat="47.53233" lon="6.79446">
        <ele>318</ele>
        <time>2016-04-10T10:32:38.000Z</time>
      </trkpt>
      <trkpt lat="47.53231" lon="6.79449">
        <ele>318</ele>
        <time>2016-04-10T10:32:38.999Z</time>
      </trkpt>
      <trkpt lat="47.53229" lon="6.79453">
        <ele>318</ele>
        <time>2016-04-10T10:32:40.000Z</time>
      </trkpt>
      <trkpt lat="47.53227" lon="6.79456">
        <ele>318</ele>
        <time>2016-04-10T10:32:41.000Z</time>
      </trkpt>
      <trkpt lat="47.53225" lon="6.79458">
        <ele>318</ele>
        <time>2016-04-10T10:32:42.000Z</time>
      </trkpt>
      <trkpt lat="47.53222" lon="6.79461">
        <ele>319</ele>
        <time>2016-04-10T10:32:43.000Z</time>
      </trkpt>
      <trkpt lat="47.53219" lon="6.79463">
        <ele>319</ele>
        <time>2016-04-10T10:32:44.000Z</time>
      </trkpt>
      <trkpt lat="47.53216" lon="6.79465">
        <ele>319</ele>
        <time>2016-04-10T10:32:45.000Z</time>
      </trkpt>
      <trkpt lat="47.53213" lon="6.79467">
        <ele>319</ele>
        <time>2016-04-10T10:32:46.000Z</time>
      </trkpt>
      <trkpt lat="47.5321" lon="6.79469">
        <ele>319</ele>
        <time>2016-04-10T10:32:47.000Z</time>
      </trkpt>
      <trkpt lat="47.53207" lon="6.79472">
        <ele>319</ele>
        <time>2016-04-10T10:32:48.000Z</time>
      </trkpt>
      <trkpt lat="47.53205" lon="6.79476">
        <ele>319</ele>
        <time>2016-04-10T10:32:49.000Z</time>
      </trkpt>
      <trkpt lat="47.53202" lon="6.7948">
        <ele>319</ele>
        <time>2016-04-10T10:32:50.000Z</time>
      </trkpt>
      <trkpt lat="47.532" lon="6.79484">
        <ele>319</ele>
        <time>2016-04-10T10:32:51.000Z</time>
      </trkpt>
      <trkpt lat="47.53198" lon="6.79487">
        <ele>319</ele>
        <time>2016-04-10T10:32:52.000Z</time>
      </trkpt>
      <trkpt lat="47.53195" lon="6.79491">
        <ele>319</ele>
        <time>2016-04-10T10:32:53.000Z</time>
      </trkpt>
      <trkpt lat="47.53193" lon="6.79494">
        <ele>319</ele>
        <time>2016-04-10T10:32:54.000Z</time>
      </trkpt>
      <trkpt lat="47.5319" lon="6.79497">
        <ele>319</ele>
        <time>2016-04-10T10:32:55.000Z</time>
      </trkpt>
      <trkpt lat="47.53187" lon="6.79501">
        <ele>319</ele>
        <time>2016-04-10T10:32:56.000Z</time>
      </trkpt>
      <trkpt lat="47.53185" lon="6.79505">
        <ele>319</ele>
        <time>2016-04-10T10:32:57.000Z</time>
      </trkpt>
      <trkpt lat="47.53182" lon="6.79508">
        <ele>319</ele>
        <time>2016-04-10T10:32:58.000Z</time>
      </trkpt>
      <trkpt lat="47.53179" lon="6.7951">
        <ele>319</ele>
        <time>2016-04-10T10:32:59.000Z</time>
      </trkpt>
      <trkpt lat="47.53175" lon="6.79513">
        <ele>319</ele>
        <time>2016-04-10T10:33:00.000Z</time>
      </trkpt>
      <trkpt lat="47.53172" lon="6.79516">
        <ele>319</ele>
        <time>2016-04-10T10:33:01.000Z</time>
      </trkpt>
      <trkpt lat="47.53169" lon="6.79519">
        <ele>319</ele>
        <time>2016-04-10T10:33:02.000Z</time>
      </trkpt>
      <trkpt lat="47.53167" lon="6.79522">
        <ele>320</ele>
        <time>2016-04-10T10:33:03.000Z</time>
      </trkpt>
      <trkpt lat="47.53164" lon="6.79524">
        <ele>320</ele>
        <time>2016-04-10T10:33:04.000Z</time>
      </trkpt>
      <trkpt lat="47.53161" lon="6.79525">
        <ele>320</ele>
        <time>2016-04-10T10:33:05.000Z</time>
      </trkpt>
      <trkpt lat="47.53157" lon="6.79525">
        <ele>320</ele>
        <time>2016-04-10T10:33:06.000Z</time>
      </trkpt>
      <trkpt lat="47.53153" lon="6.79522">
        <ele>320</ele>
        <time>2016-04-10T10:33:07.000Z</time>
      </trkpt>
      <trkpt lat="47.5315" lon="6.79519">
        <ele>321</ele>
        <time>2016-04-10T10:33:08.000Z</time>
      </trkpt>
      <trkpt lat="47.53146" lon="6.79515">
        <ele>321</ele>
        <time>2016-04-10T10:33:09.000Z</time>
      </trkpt>
      <trkpt lat="47.53142" lon="6.79511">
        <ele>321</ele>
        <time>2016-04-10T10:33:10.000Z</time>
      </trkpt>
      <trkpt lat="47.53138" lon="6.79507">
        <ele>321</ele>
        <time>2016-04-10T10:33:11.000Z</time>
      </trkpt>
      <trkpt lat="47.53135" lon="6.79501">
        <ele>321</ele>
        <time>2016-04-10T10:33:12.000Z</time>
      </trkpt>
      <trkpt lat="47.53132" lon="6.79496">
        <ele>321</ele>
        <time>2016-04-10T10:33:13.000Z</time>
      </trkpt>
      <trkpt lat="47.53129" lon="6.79491">
        <ele>321</ele>
        <time>2016-04-10T10:33:14.000Z</time>
      </trkpt>
      <trkpt lat="47.53125" lon="6.79485">
        <ele>321</ele>
        <time>2016-04-10T10:33:15.000Z</time>
      </trkpt>
      <trkpt lat="47.53122" lon="6.79481">
        <ele>321</ele>
        <time>2016-04-10T10:33:16.000Z</time>
      </trkpt>
      <trkpt lat="47.5312" lon="6.79476">
        <ele>321</ele>
        <time>2016-04-10T10:33:17.000Z</time>
      </trkpt>
      <trkpt lat="47.53117" lon="6.79471">
        <ele>321</ele>
        <time>2016-04-10T10:33:18.000Z</time>
      </trkpt>
      <trkpt lat="47.53114" lon="6.79467">
        <ele>321</ele>
        <time>2016-04-10T10:33:19.000Z</time>
      </trkpt>
      <trkpt lat="47.53111" lon="6.79463">
        <ele>321</ele>
        <time>2016-04-10T10:33:20.000Z</time>
      </trkpt>
      <trkpt lat="47.53108" lon="6.7946">
        <ele>321</ele>
        <time>2016-04-10T10:33:21.000Z</time>
      </trkpt>
      <trkpt lat="47.53104" lon="6.79458">
        <ele>321</ele>
        <time>2016-04-10T10:33:22.000Z</time>
      </trkpt>
      <trkpt lat="47.53101" lon="6.79455">
        <ele>321</ele>
        <time>2016-04-10T10:33:23.000Z</time>
      </trkpt>
      <trkpt lat="47.53098" lon="6.79451">
        <ele>321</ele>
        <time>2016-04-10T10:33:25.000Z</time>
      </trkpt>
      <trkpt lat="47.53098" lon="6.79449">
        <ele>321</ele>
        <time>2016-04-10T10:33:26.000Z</time>
      </trkpt>
      <trkpt lat="47.53097" lon="6.79444">
        <ele>321</ele>
        <time>2016-04-10T10:34:19.000Z</time>
      </trkpt>
      <trkpt lat="47.53096" lon="6.79439">
        <ele>321</ele>
        <time>2016-04-10T10:34:20.000Z</time>
      </trkpt>
      <trkpt lat="47.53095" lon="6.79435">
        <ele>321</ele>
        <time>2016-04-10T10:34:21.000Z</time>
      </trkpt>
      <trkpt lat="47.53093" lon="6.7943">
        <ele>321</ele>
        <time>2016-04-10T10:34:22.000Z</time>
      </trkpt>
      <trkpt lat="47.53091" lon="6.79425">
        <ele>321</ele>
        <time>2016-04-10T10:34:23.000Z</time>
      </trkpt>
      <trkpt lat="47.53089" lon="6.79421">
        <ele>321</ele>
        <time>2016-04-10T10:34:24.000Z</time>
      </trkpt>
      <trkpt lat="47.53087" lon="6.79418">
        <ele>321</ele>
        <time>2016-04-10T10:34:25.000Z</time>
      </trkpt>
      <trkpt lat="47.53085" lon="6.79415">
        <ele>321</ele>
        <time>2016-04-10T10:34:26.000Z</time>
      </trkpt>
      <trkpt lat="47.53083" lon="6.79412">
        <ele>322</ele>
        <time>2016-04-10T10:34:27.000Z</time>
      </trkpt>
      <trkpt lat="47.53082" lon="6.79408">
        <ele>322</ele>
        <time>2016-04-10T10:34:28.000Z</time>
      </trkpt>
      <trkpt lat="47.53081" lon="6.79404">
        <ele>322</ele>
        <time>2016-04-10T10:34:29.000Z</time>
      </trkpt>
      <trkpt lat="47.53082" lon="6.79399">
        <ele>323</ele>
        <time>2016-04-10T10:34:30.000Z</time>
      </trkpt>
      <trkpt lat="47.53082" lon="6.79394">
        <ele>323</ele>
        <time>2016-04-10T10:34:31.000Z</time>
      </trkpt>
      <trkpt lat="47.53083" lon="6.79389">
        <ele>323</ele>
        <time>2016-04-10T10:34:32.000Z</time>
      </trkpt>
      <trkpt lat="47.53083" lon="6.79383">
        <ele>323</ele>
        <time>2016-04-10T10:34:33.000Z</time>
      </trkpt>
      <trkpt lat="47.53084" lon="6.79372">
        <ele>319</ele>
        <time>2016-04-10T10:34:34.000Z</time>
      </trkpt>
      <trkpt lat="47.53084" lon="6.79365">
        <ele>319</ele>
        <time>2016-04-10T10:34:35.000Z</time>
      </trkpt>
      <trkpt lat="47.53085" lon="6.79357">
        <ele>319</ele>
        <time>2016-04-10T10:34:36.000Z</time>
      </trkpt>
      <trkpt lat="47.53086" lon="6.7935">
        <ele>319</ele>
        <time>2016-04-10T10:34:37.000Z</time>
      </trkpt>
      <trkpt lat="47.53086" lon="6.79344">
        <ele>318</ele>
        <time>2016-04-10T10:34:38.000Z</time>
      </trkpt>
      <trkpt lat="47.53085" lon="6.7934">
        <ele>318</ele>
        <time>2016-04-10T10:34:39.000Z</time>
      </trkpt>
      <trkpt lat="47.53087" lon="6.79334">
        <ele>318</ele>
        <time>2016-04-10T10:34:43.000Z</time>
      </trkpt>
      <trkpt lat="47.53087" lon="6.79334">
        <ele>318</ele>
        <time>2016-04-10T10:34:44.000Z</time>
      </trkpt>
      <trkpt lat="47.53088" lon="6.7933">
        <ele>318</ele>
        <time>2016-04-10T10:35:18.000Z</time>
      </trkpt>
      <trkpt lat="47.53088" lon="6.79327">
        <ele>318</ele>
        <time>2016-04-10T10:35:19.000Z</time>
      </trkpt>
      <trkpt lat="47.53089" lon="6.79322">
        <ele>318</ele>
        <time>2016-04-10T10:35:21.000Z</time>
      </trkpt>
      <trkpt lat="47.5309" lon="6.79319">
        <ele>318</ele>
        <time>2016-04-10T10:35:22.000Z</time>
      </trkpt>
      <trkpt lat="47.53086" lon="6.79316">
        <ele>318</ele>
        <time>2016-04-10T10:35:50.000Z</time>
      </trkpt>
      <trkpt lat="47.53086" lon="6.79315">
        <ele>318</ele>
        <time>2016-04-10T10:35:51.000Z</time>
      </trkpt>
      <trkpt lat="47.53087" lon="6.79309">
        <ele>318</ele>
        <time>2016-04-10T10:35:55.000Z</time>
      </trkpt>
      <trkpt lat="47.53087" lon="6.79307">
        <ele>318</ele>
        <time>2016-04-10T10:35:56.000Z</time>
      </trkpt>
      <trkpt lat="47.5309" lon="6.79313">
        <ele>318</ele>
        <time>2016-04-10T10:37:53.000Z</time>
      </trkpt>
      <trkpt lat="47.5309" lon="6.79314">
        <ele>318</ele>
        <time>2016-04-10T10:37:54.000Z</time>
      </trkpt>
      <trkpt lat="47.53092" lon="6.79319">
        <ele>318</ele>
        <time>2016-04-10T10:37:59.000Z</time>
      </trkpt>
      <trkpt lat="47.53093" lon="6.7932">
        <ele>318</ele>
        <time>2016-04-10T10:38:00.000Z</time>
      </trkpt>
      <trkpt lat="47.53092" lon="6.79326">
        <ele>318</ele>
        <time>2016-04-10T10:38:49.000Z</time>
      </trkpt>
      <trkpt lat="47.53091" lon="6.79327">
        <ele>318</ele>
        <time>2016-04-10T10:38:50.000Z</time>
      </trkpt>
      <trkpt lat="47.5309" lon="6.79334">
        <ele>318</ele>
        <time>2016-04-10T10:39:57.000Z</time>
      </trkpt>
      <trkpt lat="47.5309" lon="6.79334">
        <ele>318</ele>
        <time>2016-04-10T10:39:58.000Z</time>
      </trkpt>
      <trkpt lat="47.53088" lon="6.79339">
        <ele>318</ele>
        <time>2016-04-10T10:40:40.000Z</time>
      </trkpt>
      <trkpt lat="47.53088" lon="6.7934">
        <ele>318</ele>
        <time>2016-04-10T10:40:41.000Z</time>
      </trkpt>
      <trkpt lat="47.53087" lon="6.79345">
        <ele>318</ele>
        <time>2016-04-10T10:40:43.000Z</time>
      </trkpt>
      <trkpt lat="47.53087" lon="6.79348">
        <ele>319</ele>
        <time>2016-04-10T10:40:44.000Z</time>
      </trkpt>
      <trkpt lat="47.53087" lon="6.79352">
        <ele>319</ele>
        <time>2016-04-10T10:40:45.000Z</time>
      </trkpt>
      <trkpt lat="47.53087" lon="6.79356">
        <ele>319</ele>
        <time>2016-04-10T10:40:46.000Z</time>
      </trkpt>
      <trkpt lat="47.53088" lon="6.79359">
        <ele>319</ele>
        <time>2016-04-10T10:40:47.000Z</time>
      </trkpt>
      <trkpt lat="47.53088" lon="6.79363">
        <ele>319</ele>
        <time>2016-04-10T10:40:48.000Z</time>
      </trkpt>
      <trkpt lat="47.53087" lon="6.79367">
        <ele>319</ele>
        <time>2016-04-10T10:40:49.000Z</time>
      </trkpt>
      <trkpt lat="47.53087" lon="6.7937">
        <ele>319</ele>
        <time>2016-04-10T10:40:50.000Z</time>
      </trkpt>
      <trkpt lat="47.53087" lon="6.79377">
        <ele>319</ele>
        <time>2016-04-10T10:40:52.000Z</time>
      </trkpt>
      <trkpt lat="47.53086" lon="6.79379">
        <ele>319</ele>
        <time>2016-04-10T10:40:53.000Z</time>
      </trkpt>
      <trkpt lat="47.53086" lon="6.79385">
        <ele>319</ele>
        <time>2016-04-10T10:40:55.000Z</time>
      </trkpt>
      <trkpt lat="47.53085" lon="6.79387">
        <ele>320</ele>
        <time>2016-04-10T10:40:56.000Z</time>
      </trkpt>
      <trkpt lat="47.53085" lon="6.79392">
        <ele>320</ele>
        <time>2016-04-10T10:40:58.000Z</time>
      </trkpt>
      <trkpt lat="47.53084" lon="6.79394">
        <ele>320</ele>
        <time>2016-04-10T10:40:59.000Z</time>
      </trkpt>
    </trkseg>
  </trk>
</gpx>